<?xml version='1.0' encoding='UTF-8'?><gpx version="1.1" creator="JPX - https://github.com/jenetics/jpx" xmlns="http://www.topografix.com/GPX/1/1"><trk><trkseg><trkpt lat="45.718483430455734" lon="9.77097365948631"><ele>333.0</ele><time>2026-05-02T07:58:02Z</time></trkpt><trkpt lat="45.718390428883694" lon="9.770906731355"><ele>333.0</ele><time>2026-05-02T07:58:04Z</time></trkpt><trkpt lat="45.71828152195581" lon="9.770812855430366"><ele>333.0</ele><time>2026-05-02T07:58:06Z</time></trkpt><trkpt lat="45.718170065002035" lon="9.770727807260403"><ele>333.0</ele><time>2026-05-02T07:58:08Z</time></trkpt><trkpt lat="45.718076902616964" lon="9.77066071010504"><ele>333.0</ele><time>2026-05-02T07:58:10Z</time></trkpt><trkpt lat="45.71799211338491" lon="9.770630549109201"><ele>333.0</ele><time>2026-05-02T07:58:12Z</time></trkpt><trkpt lat="45.71791367140819" lon="9.770579135374227"><ele>333.0</ele><time>2026-05-02T07:58:14Z</time></trkpt><trkpt lat="45.71783737617541" lon="9.770583090632865"><ele>333.0</ele><time>2026-05-02T07:58:16Z</time></trkpt><trkpt lat="45.71776148165585" lon="9.770548591617056"><ele>333.0</ele><time>2026-05-02T07:58:18Z</time></trkpt><trkpt lat="45.717667997527045" lon="9.770444544389107"><ele>333.0</ele><time>2026-05-02T07:58:20Z</time></trkpt><trkpt lat="45.71761906361016" lon="9.77038640231665"><ele>331.59999999999997</ele><time>2026-05-02T07:58:21Z</time></trkpt><trkpt lat="45.71752633096275" lon="9.770303452527218"><ele>330.2</ele><time>2026-05-02T07:58:23Z</time></trkpt><trkpt lat="45.71747942009187" lon="9.770242291215917"><ele>328.8</ele><time>2026-05-02T07:58:25Z</time></trkpt><trkpt lat="45.71753280532461" lon="9.770148233183349"><ele>327.4</ele><time>2026-05-02T07:58:28Z</time></trkpt><trkpt lat="45.717602108178305" lon="9.770050417746095"><ele>326.0</ele><time>2026-05-02T07:58:30Z</time></trkpt><trkpt lat="45.71768836187901" lon="9.76992103924791"><ele>326.33333333333337</ele><time>2026-05-02T07:58:32Z</time></trkpt><trkpt lat="45.71773172007822" lon="9.769850488992708"><ele>326.6666666666667</ele><time>2026-05-02T07:58:33Z</time></trkpt><trkpt lat="45.717771909284984" lon="9.769775883931693"><ele>327.0</ele><time>2026-05-02T07:58:34Z</time></trkpt><trkpt lat="45.717854507581684" lon="9.76964783506575"><ele>327.3333333333333</ele><time>2026-05-02T07:58:36Z</time></trkpt><trkpt lat="45.71790182997151" lon="9.769582272387893"><ele>327.66666666666663</ele><time>2026-05-02T07:58:37Z</time></trkpt><trkpt lat="45.717977306946075" lon="9.769451573023439"><ele>328.0</ele><time>2026-05-02T07:58:39Z</time></trkpt><trkpt lat="45.71805894668128" lon="9.769326842776303"><ele>327.0</ele><time>2026-05-02T07:58:41Z</time></trkpt><trkpt lat="45.71815386314095" lon="9.769189406551547"><ele>326.0</ele><time>2026-05-02T07:58:43Z</time></trkpt><trkpt lat="45.71819928472731" lon="9.769121159204786"><ele>325.0</ele><time>2026-05-02T07:58:44Z</time></trkpt><trkpt lat="45.71825097366644" lon="9.76905334584447"><ele>324.0</ele><time>2026-05-02T07:58:45Z</time></trkpt><trkpt lat="45.71830130622599" lon="9.768989082296459"><ele>323.0</ele><time>2026-05-02T07:58:46Z</time></trkpt><trkpt lat="45.718350966894945" lon="9.768928795917205"><ele>322.0</ele><time>2026-05-02T07:58:47Z</time></trkpt><trkpt lat="45.71840375671456" lon="9.768873102327285"><ele>322.0</ele><time>2026-05-02T07:58:48Z</time></trkpt><trkpt lat="45.718461386877664" lon="9.768820654383067"><ele>322.0</ele><time>2026-05-02T07:58:49Z</time></trkpt><trkpt lat="45.71851830761128" lon="9.76876825602738"><ele>322.0</ele><time>2026-05-02T07:58:50Z</time></trkpt><trkpt lat="45.718568172278324" lon="9.768705994838534"><ele>322.0</ele><time>2026-05-02T07:58:51Z</time></trkpt><trkpt lat="45.71861856651556" lon="9.76863101764157"><ele>322.0</ele><time>2026-05-02T07:58:52Z</time></trkpt><trkpt lat="45.71869061742399" lon="9.768610605430231"><ele>322.0</ele><time>2026-05-02T07:58:53Z</time></trkpt><trkpt lat="45.718741767066525" lon="9.768554284451342"><ele>322.0</ele><time>2026-05-02T07:58:54Z</time></trkpt><trkpt lat="45.71879356897472" lon="9.768501672476967"><ele>322.14285714285717</ele><time>2026-05-02T07:58:55Z</time></trkpt><trkpt lat="45.718851710118884" lon="9.768451725649472"><ele>322.2857142857143</ele><time>2026-05-02T07:58:56Z</time></trkpt><trkpt lat="45.71890598800741" lon="9.768395451956108"><ele>322.42857142857144</ele><time>2026-05-02T07:58:57Z</time></trkpt><trkpt lat="45.71895912211452" lon="9.768344921482267"><ele>322.57142857142856</ele><time>2026-05-02T07:58:58Z</time></trkpt><trkpt lat="45.719009410129566" lon="9.768289269366836"><ele>322.7142857142857</ele><time>2026-05-02T07:58:59Z</time></trkpt><trkpt lat="45.71906333239826" lon="9.768241969954497"><ele>322.8571428571429</ele><time>2026-05-02T07:59:00Z</time></trkpt><trkpt lat="45.71911601376928" lon="9.768190038955181"><ele>323.0</ele><time>2026-05-02T07:59:01Z</time></trkpt><trkpt lat="45.71921886307055" lon="9.768100640884375"><ele>323.0</ele><time>2026-05-02T07:59:03Z</time></trkpt><trkpt lat="45.719324250098374" lon="9.76799672739546"><ele>323.0</ele><time>2026-05-02T07:59:05Z</time></trkpt><trkpt lat="45.719377061660076" lon="9.767938327485831"><ele>323.0</ele><time>2026-05-02T07:59:06Z</time></trkpt><trkpt lat="45.719426881885646" lon="9.767878041389894"><ele>323.0</ele><time>2026-05-02T07:59:07Z</time></trkpt><trkpt lat="45.71947800239875" lon="9.767823638848041"><ele>323.0</ele><time>2026-05-02T07:59:08Z</time></trkpt><trkpt lat="45.719534821353655" lon="9.76776378216112"><ele>323.0</ele><time>2026-05-02T07:59:09Z</time></trkpt><trkpt lat="45.71958870939706" lon="9.767711155576565"><ele>323.42857142857144</ele><time>2026-05-02T07:59:10Z</time></trkpt><trkpt lat="45.71964480748717" lon="9.767659625979194"><ele>323.8571428571429</ele><time>2026-05-02T07:59:11Z</time></trkpt><trkpt lat="45.71970554609606" lon="9.767604124035605"><ele>324.28571428571433</ele><time>2026-05-02T07:59:12Z</time></trkpt><trkpt lat="45.719760300333476" lon="9.767548303426588"><ele>324.7142857142857</ele><time>2026-05-02T07:59:13Z</time></trkpt><trkpt lat="45.71981357569352" lon="9.76749275597231"><ele>325.1428571428571</ele><time>2026-05-02T07:59:14Z</time></trkpt><trkpt lat="45.71987244536874" lon="9.767433098431479"><ele>325.5714285714286</ele><time>2026-05-02T07:59:15Z</time></trkpt><trkpt lat="45.71992595849352" lon="9.767385056772524"><ele>326.0</ele><time>2026-05-02T07:59:16Z</time></trkpt><trkpt lat="45.719980598812484" lon="9.767329192795087"><ele>326.0</ele><time>2026-05-02T07:59:17Z</time></trkpt><trkpt lat="45.72003621591224" lon="9.767273697909303"><ele>326.0</ele><time>2026-05-02T07:59:18Z</time></trkpt><trkpt lat="45.720089117073364" lon="9.767222085934712"><ele>326.0</ele><time>2026-05-02T07:59:19Z</time></trkpt><trkpt lat="45.72014350612065" lon="9.767166677232895"><ele>326.0</ele><time>2026-05-02T07:59:20Z</time></trkpt><trkpt lat="45.72019543053005" lon="9.767110137777513"><ele>326.0</ele><time>2026-05-02T07:59:21Z</time></trkpt><trkpt lat="45.72024730180429" lon="9.767049326982622"><ele>326.0</ele><time>2026-05-02T07:59:22Z</time></trkpt><trkpt lat="45.72029956680397" lon="9.766994492804443"><ele>326.0</ele><time>2026-05-02T07:59:23Z</time></trkpt><trkpt lat="45.7204165210665" lon="9.766891559940692"><ele>325.0</ele><time>2026-05-02T07:59:25Z</time></trkpt><trkpt lat="45.72052793375607" lon="9.766800705833068"><ele>324.0</ele><time>2026-05-02T07:59:27Z</time></trkpt><trkpt lat="45.720636157310004" lon="9.766687103551742"><ele>323.0</ele><time>2026-05-02T07:59:29Z</time></trkpt><trkpt lat="45.72072615889928" lon="9.76655455987666"><ele>322.0</ele><time>2026-05-02T07:59:31Z</time></trkpt><trkpt lat="45.720824448292234" lon="9.766428029592685"><ele>322.0</ele><time>2026-05-02T07:59:33Z</time></trkpt><trkpt lat="45.72087182536222" lon="9.766366161513847"><ele>322.0</ele><time>2026-05-02T07:59:34Z</time></trkpt><trkpt lat="45.72092445616946" lon="9.766292451003391"><ele>322.0</ele><time>2026-05-02T07:59:35Z</time></trkpt><trkpt lat="45.720973651606066" lon="9.766234325424552"><ele>322.0</ele><time>2026-05-02T07:59:36Z</time></trkpt><trkpt lat="45.72102572539416" lon="9.76616816131498"><ele>322.0</ele><time>2026-05-02T07:59:37Z</time></trkpt><trkpt lat="45.72107462669121" lon="9.766104158072238"><ele>322.0</ele><time>2026-05-02T07:59:38Z</time></trkpt><trkpt lat="45.72117373145533" lon="9.76598395853099"><ele>321.57142857142856</ele><time>2026-05-02T07:59:40Z</time></trkpt><trkpt lat="45.721225488226764" lon="9.765927632774902"><ele>321.1428571428571</ele><time>2026-05-02T07:59:41Z</time></trkpt><trkpt lat="45.72127754244037" lon="9.765871234320642"><ele>320.7142857142857</ele><time>2026-05-02T07:59:42Z</time></trkpt><trkpt lat="45.721329851645535" lon="9.765812621075224"><ele>320.2857142857143</ele><time>2026-05-02T07:59:43Z</time></trkpt><trkpt lat="45.72138165680321" lon="9.765753163477745"><ele>319.85714285714283</ele><time>2026-05-02T07:59:44Z</time></trkpt><trkpt lat="45.72143368963164" lon="9.765695286317916"><ele>319.42857142857144</ele><time>2026-05-02T07:59:45Z</time></trkpt><trkpt lat="45.72148854240906" lon="9.76564167260457"><ele>319.0</ele><time>2026-05-02T07:59:46Z</time></trkpt><trkpt lat="45.721591468998774" lon="9.76552950286909"><ele>319.0</ele><time>2026-05-02T07:59:48Z</time></trkpt><trkpt lat="45.7216427460698" lon="9.765473408609322"><ele>319.0</ele><time>2026-05-02T07:59:49Z</time></trkpt><trkpt lat="45.721695169046754" lon="9.765418056649336"><ele>319.0</ele><time>2026-05-02T07:59:50Z</time></trkpt><trkpt lat="45.7217490443565" lon="9.765361938043387"><ele>319.0</ele><time>2026-05-02T07:59:51Z</time></trkpt><trkpt lat="45.72186562302705" lon="9.765262530091118"><ele>319.0</ele><time>2026-05-02T07:59:53Z</time></trkpt><trkpt lat="45.721973686164816" lon="9.765158047828695"><ele>319.0</ele><time>2026-05-02T07:59:55Z</time></trkpt><trkpt lat="45.72203017651882" lon="9.765102157447078"><ele>319.0</ele><time>2026-05-02T07:59:56Z</time></trkpt><trkpt lat="45.722088744364996" lon="9.765045480728416"><ele>319.0</ele><time>2026-05-02T07:59:57Z</time></trkpt><trkpt lat="45.722146578405265" lon="9.764989400565295"><ele>319.0</ele><time>2026-05-02T07:59:58Z</time></trkpt><trkpt lat="45.72220464972955" lon="9.764933846088097"><ele>319.0</ele><time>2026-05-02T07:59:59Z</time></trkpt><trkpt lat="45.72226245723675" lon="9.764874700274495"><ele>319.0</ele><time>2026-05-02T08:00:00Z</time></trkpt><trkpt lat="45.722318686981104" lon="9.764819734851246"><ele>319.0</ele><time>2026-05-02T08:00:01Z</time></trkpt><trkpt lat="45.72237784993398" lon="9.76476324454792"><ele>319.0</ele><time>2026-05-02T08:00:02Z</time></trkpt><trkpt lat="45.72243783698213" lon="9.764708924503074"><ele>319.0</ele><time>2026-05-02T08:00:03Z</time></trkpt><trkpt lat="45.72249767735844" lon="9.76465105272483"><ele>319.0</ele><time>2026-05-02T08:00:04Z</time></trkpt><trkpt lat="45.72255442534659" lon="9.764594547247583"><ele>319.0</ele><time>2026-05-02T08:00:05Z</time></trkpt><trkpt lat="45.72261110104049" lon="9.764536865505685"><ele>319.0</ele><time>2026-05-02T08:00:06Z</time></trkpt><trkpt lat="45.72267030489769" lon="9.76448103423192"><ele>319.0</ele><time>2026-05-02T08:00:07Z</time></trkpt><trkpt lat="45.72272857745533" lon="9.764427376192117"><ele>319.0</ele><time>2026-05-02T08:00:08Z</time></trkpt><trkpt lat="45.72278701741343" lon="9.764374044190324"><ele>318.2857142857143</ele><time>2026-05-02T08:00:09Z</time></trkpt><trkpt lat="45.72284525354963" lon="9.76431804139929"><ele>317.57142857142856</ele><time>2026-05-02T08:00:10Z</time></trkpt><trkpt lat="45.722901612931736" lon="9.764258036553759"><ele>316.85714285714283</ele><time>2026-05-02T08:00:11Z</time></trkpt><trkpt lat="45.722955981539535" lon="9.764197017672519"><ele>316.1428571428571</ele><time>2026-05-02T08:00:12Z</time></trkpt><trkpt lat="45.72300954446067" lon="9.764136010815234"><ele>315.42857142857144</ele><time>2026-05-02T08:00:13Z</time></trkpt><trkpt lat="45.72306270429527" lon="9.7640760555778"><ele>314.71428571428567</ele><time>2026-05-02T08:00:14Z</time></trkpt><trkpt lat="45.723111103723106" lon="9.764013751976382"><ele>314.0</ele><time>2026-05-02T08:00:15Z</time></trkpt><trkpt lat="45.72315984870094" lon="9.763950365082113"><ele>314.0</ele><time>2026-05-02T08:00:16Z</time></trkpt><trkpt lat="45.72320872086199" lon="9.763887580004521"><ele>314.0</ele><time>2026-05-02T08:00:17Z</time></trkpt><trkpt lat="45.72325860096744" lon="9.763822471337297"><ele>314.0</ele><time>2026-05-02T08:00:18Z</time></trkpt><trkpt lat="45.723308584615545" lon="9.763759452156151"><ele>314.0</ele><time>2026-05-02T08:00:19Z</time></trkpt><trkpt lat="45.72336047471844" lon="9.76369828125088"><ele>314.0</ele><time>2026-05-02T08:00:20Z</time></trkpt><trkpt lat="45.723411843611466" lon="9.763627003658451"><ele>314.0</ele><time>2026-05-02T08:00:21Z</time></trkpt><trkpt lat="45.72349826792496" lon="9.763491973689908"><ele>314.1666666666667</ele><time>2026-05-02T08:00:23Z</time></trkpt><trkpt lat="45.7235417101052" lon="9.763419813314892"><ele>314.33333333333337</ele><time>2026-05-02T08:00:24Z</time></trkpt><trkpt lat="45.72358686942654" lon="9.763352842127302"><ele>314.5</ele><time>2026-05-02T08:00:25Z</time></trkpt><trkpt lat="45.72363646800557" lon="9.763292854414447"><ele>314.6666666666667</ele><time>2026-05-02T08:00:26Z</time></trkpt><trkpt lat="45.72368927972422" lon="9.763232549766531"><ele>314.8333333333333</ele><time>2026-05-02T08:00:27Z</time></trkpt><trkpt lat="45.72374434955989" lon="9.763177696566164"><ele>315.0</ele><time>2026-05-02T08:00:28Z</time></trkpt><trkpt lat="45.72384622955168" lon="9.763064742246875"><ele>314.8333333333333</ele><time>2026-05-02T08:00:30Z</time></trkpt><trkpt lat="45.723900228371875" lon="9.763005325547002"><ele>314.6666666666667</ele><time>2026-05-02T08:00:31Z</time></trkpt><trkpt lat="45.72395177130548" lon="9.76295160172568"><ele>314.5</ele><time>2026-05-02T08:00:32Z</time></trkpt><trkpt lat="45.72400516243475" lon="9.762893161282673"><ele>314.33333333333337</ele><time>2026-05-02T08:00:33Z</time></trkpt><trkpt lat="45.724062425984314" lon="9.762835869991898"><ele>314.1666666666667</ele><time>2026-05-02T08:00:34Z</time></trkpt><trkpt lat="45.724156545581614" lon="9.762720481917999"><ele>314.0</ele><time>2026-05-02T08:00:36Z</time></trkpt><trkpt lat="45.72420786088114" lon="9.762655710844188"><ele>313.99999999999994</ele><time>2026-05-02T08:00:37Z</time></trkpt><trkpt lat="45.72425318568361" lon="9.762583121914787"><ele>314.0</ele><time>2026-05-02T08:00:38Z</time></trkpt><trkpt lat="45.724295905118474" lon="9.762507743593934"><ele>314.0</ele><time>2026-05-02T08:00:39Z</time></trkpt><trkpt lat="45.72433426018739" lon="9.76242695099715"><ele>314.0</ele><time>2026-05-02T08:00:40Z</time></trkpt><trkpt lat="45.72437394609889" lon="9.762346371696653"><ele>314.0</ele><time>2026-05-02T08:00:41Z</time></trkpt><trkpt lat="45.724414275491604" lon="9.762271191778785"><ele>313.99999999999994</ele><time>2026-05-02T08:00:42Z</time></trkpt><trkpt lat="45.72444794779094" lon="9.762183130512017"><ele>314.0</ele><time>2026-05-02T08:00:43Z</time></trkpt><trkpt lat="45.72448818673824" lon="9.762093888400546"><ele>314.1428571428571</ele><time>2026-05-02T08:00:44Z</time></trkpt><trkpt lat="45.72452916891841" lon="9.761991031741088"><ele>314.2857142857143</ele><time>2026-05-02T08:00:45Z</time></trkpt><trkpt lat="45.72455864566622" lon="9.761909554505081"><ele>314.42857142857144</ele><time>2026-05-02T08:00:46Z</time></trkpt><trkpt lat="45.72459321502019" lon="9.761822593753605"><ele>314.57142857142856</ele><time>2026-05-02T08:00:47Z</time></trkpt><trkpt lat="45.724636669909515" lon="9.76172379511366"><ele>314.7142857142857</ele><time>2026-05-02T08:00:48Z</time></trkpt><trkpt lat="45.72468004177999" lon="9.761645048108658"><ele>314.85714285714283</ele><time>2026-05-02T08:00:49Z</time></trkpt><trkpt lat="45.72472616946255" lon="9.761562445285305"><ele>315.0</ele><time>2026-05-02T08:00:50Z</time></trkpt><trkpt lat="45.7247706067841" lon="9.761488063542142"><ele>315.0</ele><time>2026-05-02T08:00:51Z</time></trkpt><trkpt lat="45.72482603301613" lon="9.761421262114503"><ele>315.0</ele><time>2026-05-02T08:00:52Z</time></trkpt><trkpt lat="45.72488439500429" lon="9.761355549929652"><ele>315.0</ele><time>2026-05-02T08:00:53Z</time></trkpt><trkpt lat="45.724944051819776" lon="9.761300183044261"><ele>315.0</ele><time>2026-05-02T08:00:54Z</time></trkpt><trkpt lat="45.72500993636336" lon="9.761245964764353"><ele>315.0</ele><time>2026-05-02T08:00:55Z</time></trkpt><trkpt lat="45.725075323814785" lon="9.761204901786531"><ele>315.0</ele><time>2026-05-02T08:00:56Z</time></trkpt><trkpt lat="45.72514418866862" lon="9.761162197803264"><ele>315.0</ele><time>2026-05-02T08:00:57Z</time></trkpt><trkpt lat="45.72522216040144" lon="9.761115255613538"><ele>315.3333333333333</ele><time>2026-05-02T08:00:58Z</time></trkpt><trkpt lat="45.72535656388749" lon="9.761038800116694"><ele>315.6666666666667</ele><time>2026-05-02T08:01:00Z</time></trkpt><trkpt lat="45.72542664804234" lon="9.7610049753227"><ele>316.0</ele><time>2026-05-02T08:01:01Z</time></trkpt><trkpt lat="45.72549329735525" lon="9.760972676020664"><ele>316.33333333333337</ele><time>2026-05-02T08:01:02Z</time></trkpt><trkpt lat="45.7255688431584" lon="9.76094323066718"><ele>316.6666666666667</ele><time>2026-05-02T08:01:03Z</time></trkpt><trkpt lat="45.72564118913349" lon="9.760912778778863"><ele>317.0</ele><time>2026-05-02T08:01:04Z</time></trkpt><trkpt lat="45.725712137837355" lon="9.760882191187228"><ele>316.42857142857144</ele><time>2026-05-02T08:01:05Z</time></trkpt><trkpt lat="45.725780511546745" lon="9.760855455870281"><ele>315.85714285714283</ele><time>2026-05-02T08:01:06Z</time></trkpt><trkpt lat="45.7258516995375" lon="9.760826002428475"><ele>315.2857142857143</ele><time>2026-05-02T08:01:07Z</time></trkpt><trkpt lat="45.725921866914284" lon="9.760796415218172"><ele>314.7142857142857</ele><time>2026-05-02T08:01:08Z</time></trkpt><trkpt lat="45.72599248267575" lon="9.760766234307006"><ele>314.14285714285717</ele><time>2026-05-02T08:01:09Z</time></trkpt><trkpt lat="45.726062657781654" lon="9.760740610486096"><ele>313.57142857142856</ele><time>2026-05-02T08:01:10Z</time></trkpt><trkpt lat="45.72613241107208" lon="9.760709739774757"><ele>313.0</ele><time>2026-05-02T08:01:11Z</time></trkpt><trkpt lat="45.7262035801812" lon="9.760679030877027"><ele>313.0</ele><time>2026-05-02T08:01:12Z</time></trkpt><trkpt lat="45.726271284353594" lon="9.760651972846503"><ele>313.0</ele><time>2026-05-02T08:01:13Z</time></trkpt><trkpt lat="45.72634030745219" lon="9.760624145353667"><ele>313.0</ele><time>2026-05-02T08:01:14Z</time></trkpt><trkpt lat="45.72641116576271" lon="9.760596222586253"><ele>313.0</ele><time>2026-05-02T08:01:15Z</time></trkpt><trkpt lat="45.7264770362294" lon="9.760577744717336"><ele>313.0</ele><time>2026-05-02T08:01:16Z</time></trkpt><trkpt lat="45.72655061747081" lon="9.760542128296752"><ele>313.0</ele><time>2026-05-02T08:01:17Z</time></trkpt><trkpt lat="45.72661428838296" lon="9.760516585897246"><ele>313.0</ele><time>2026-05-02T08:01:18Z</time></trkpt><trkpt lat="45.726683127555816" lon="9.760487141008053"><ele>313.0</ele><time>2026-05-02T08:01:19Z</time></trkpt><trkpt lat="45.72675152719494" lon="9.760458619804435"><ele>313.0</ele><time>2026-05-02T08:01:20Z</time></trkpt><trkpt lat="45.72682056234666" lon="9.7604373823692"><ele>313.0</ele><time>2026-05-02T08:01:21Z</time></trkpt><trkpt lat="45.7268899606077" lon="9.760414782051926"><ele>313.0</ele><time>2026-05-02T08:01:22Z</time></trkpt><trkpt lat="45.72695958126955" lon="9.76039710590613"><ele>313.0</ele><time>2026-05-02T08:01:23Z</time></trkpt><trkpt lat="45.727028135462504" lon="9.760379052561351"><ele>313.0</ele><time>2026-05-02T08:01:24Z</time></trkpt><trkpt lat="45.727094604966716" lon="9.760370779557803"><ele>313.0</ele><time>2026-05-02T08:01:25Z</time></trkpt><trkpt lat="45.727162636205875" lon="9.760342308727113"><ele>312.57142857142856</ele><time>2026-05-02T08:01:26Z</time></trkpt><trkpt lat="45.72723228445078" lon="9.760327551288851"><ele>312.14285714285717</ele><time>2026-05-02T08:01:27Z</time></trkpt><trkpt lat="45.72730069603012" lon="9.760301811467114"><ele>311.7142857142857</ele><time>2026-05-02T08:01:28Z</time></trkpt><trkpt lat="45.727364772324236" lon="9.760285488441143"><ele>311.2857142857143</ele><time>2026-05-02T08:01:29Z</time></trkpt><trkpt lat="45.72743065279058" lon="9.760251736966032"><ele>310.85714285714283</ele><time>2026-05-02T08:01:30Z</time></trkpt><trkpt lat="45.72749493912231" lon="9.760224959898881"><ele>310.42857142857144</ele><time>2026-05-02T08:01:31Z</time></trkpt><trkpt lat="45.72755655488471" lon="9.760191766244926"><ele>310.0</ele><time>2026-05-02T08:01:32Z</time></trkpt><trkpt lat="45.727626412731105" lon="9.760157226464825"><ele>310.0</ele><time>2026-05-02T08:01:33Z</time></trkpt><trkpt lat="45.727685024068656" lon="9.76012181998854"><ele>310.0</ele><time>2026-05-02T08:01:34Z</time></trkpt><trkpt lat="45.72775146725943" lon="9.760085989291232"><ele>310.0</ele><time>2026-05-02T08:01:35Z</time></trkpt><trkpt lat="45.72781282250023" lon="9.760058176547377"><ele>310.0</ele><time>2026-05-02T08:01:36Z</time></trkpt><trkpt lat="45.72787569178784" lon="9.76002251398862"><ele>310.0</ele><time>2026-05-02T08:01:37Z</time></trkpt><trkpt lat="45.727937351983655" lon="9.759992079947123"><ele>310.0</ele><time>2026-05-02T08:01:38Z</time></trkpt><trkpt lat="45.7279994662528" lon="9.759959136834631"><ele>310.0</ele><time>2026-05-02T08:01:39Z</time></trkpt><trkpt lat="45.7280621014801" lon="9.759925160616511"><ele>310.0</ele><time>2026-05-02T08:01:40Z</time></trkpt><trkpt lat="45.72812458971401" lon="9.759892382123262"><ele>310.0</ele><time>2026-05-02T08:01:41Z</time></trkpt><trkpt lat="45.72818732758714" lon="9.759860233500103"><ele>310.0</ele><time>2026-05-02T08:01:42Z</time></trkpt><trkpt lat="45.728253268979" lon="9.759827686175331"><ele>310.0</ele><time>2026-05-02T08:01:43Z</time></trkpt><trkpt lat="45.72831307866993" lon="9.759796623884096"><ele>310.0</ele><time>2026-05-02T08:01:44Z</time></trkpt><trkpt lat="45.728371861692786" lon="9.759760998551467"><ele>310.0</ele><time>2026-05-02T08:01:45Z</time></trkpt><trkpt lat="45.728434908905115" lon="9.759727170306137"><ele>310.0</ele><time>2026-05-02T08:01:46Z</time></trkpt><trkpt lat="45.72849541489785" lon="9.759696171266993"><ele>310.0</ele><time>2026-05-02T08:01:47Z</time></trkpt><trkpt lat="45.72855596776732" lon="9.75966227051299"><ele>310.0</ele><time>2026-05-02T08:01:48Z</time></trkpt><trkpt lat="45.728618357478496" lon="9.759631015182439"><ele>310.0</ele><time>2026-05-02T08:01:49Z</time></trkpt><trkpt lat="45.7286789065988" lon="9.75959916080599"><ele>310.0</ele><time>2026-05-02T08:01:50Z</time></trkpt><trkpt lat="45.72873972630801" lon="9.759564626610926"><ele>310.0</ele><time>2026-05-02T08:01:51Z</time></trkpt><trkpt lat="45.72880034094083" lon="9.75953470275449"><ele>310.0</ele><time>2026-05-02T08:01:52Z</time></trkpt><trkpt lat="45.728862021369906" lon="9.759501032617111"><ele>310.0</ele><time>2026-05-02T08:01:53Z</time></trkpt><trkpt lat="45.72892448606674" lon="9.759470722627496"><ele>310.66666666666663</ele><time>2026-05-02T08:01:54Z</time></trkpt><trkpt lat="45.72898736827322" lon="9.759447055557635"><ele>311.3333333333333</ele><time>2026-05-02T08:01:55Z</time></trkpt><trkpt lat="45.72905416401823" lon="9.759430521867868"><ele>312.0</ele><time>2026-05-02T08:01:56Z</time></trkpt><trkpt lat="45.729181708662395" lon="9.759394121111082"><ele>312.6666666666667</ele><time>2026-05-02T08:01:58Z</time></trkpt><trkpt lat="45.729244740082194" lon="9.759383612040372"><ele>313.33333333333337</ele><time>2026-05-02T08:01:59Z</time></trkpt><trkpt lat="45.72930854715228" lon="9.75937193515305"><ele>314.0</ele><time>2026-05-02T08:02:00Z</time></trkpt><trkpt lat="45.729372259503464" lon="9.75936637178333"><ele>314.1428571428571</ele><time>2026-05-02T08:02:01Z</time></trkpt><trkpt lat="45.72943730398986" lon="9.759366360570821"><ele>314.2857142857143</ele><time>2026-05-02T08:02:02Z</time></trkpt><trkpt lat="45.72950036376401" lon="9.759365085279873"><ele>314.42857142857144</ele><time>2026-05-02T08:02:03Z</time></trkpt><trkpt lat="45.72956658414128" lon="9.75936937068178"><ele>314.57142857142856</ele><time>2026-05-02T08:02:04Z</time></trkpt><trkpt lat="45.729631272202376" lon="9.759367275171405"><ele>314.7142857142857</ele><time>2026-05-02T08:02:05Z</time></trkpt><trkpt lat="45.7296961723697" lon="9.759360468266673"><ele>314.85714285714283</ele><time>2026-05-02T08:02:06Z</time></trkpt><trkpt lat="45.7297611999513" lon="9.759359698407469"><ele>315.0</ele><time>2026-05-02T08:02:07Z</time></trkpt><trkpt lat="45.72982685489965" lon="9.759354875396365"><ele>313.5</ele><time>2026-05-02T08:02:08Z</time></trkpt><trkpt lat="45.729891874657824" lon="9.759345413050601"><ele>312.0</ele><time>2026-05-02T08:02:09Z</time></trkpt><trkpt lat="45.72995676283327" lon="9.759338679091563"><ele>310.5</ele><time>2026-05-02T08:02:10Z</time></trkpt><trkpt lat="45.73008791716368" lon="9.759327467620142"><ele>309.0</ele><time>2026-05-02T08:02:12Z</time></trkpt><trkpt lat="45.730155112171765" lon="9.759309075352432"><ele>307.5</ele><time>2026-05-02T08:02:13Z</time></trkpt><trkpt lat="45.730225867168855" lon="9.759286975613922"><ele>306.0</ele><time>2026-05-02T08:02:14Z</time></trkpt><trkpt lat="45.73035626814393" lon="9.75928629574447"><ele>306.0</ele><time>2026-05-02T08:02:16Z</time></trkpt><trkpt lat="45.730421762476084" lon="9.75927219382926"><ele>306.0</ele><time>2026-05-02T08:02:17Z</time></trkpt><trkpt lat="45.730486233710984" lon="9.75925759186359"><ele>306.0</ele><time>2026-05-02T08:02:18Z</time></trkpt><trkpt lat="45.730552346892054" lon="9.75923812647579"><ele>306.0</ele><time>2026-05-02T08:02:19Z</time></trkpt><trkpt lat="45.73061749829586" lon="9.759215132387432"><ele>306.0</ele><time>2026-05-02T08:02:20Z</time></trkpt><trkpt lat="45.73067820974276" lon="9.759182180922242"><ele>306.0</ele><time>2026-05-02T08:02:21Z</time></trkpt><trkpt lat="45.73074738186998" lon="9.759143000718673"><ele>306.0</ele><time>2026-05-02T08:02:22Z</time></trkpt><trkpt lat="45.73086472708004" lon="9.759067242781416"><ele>306.0</ele><time>2026-05-02T08:02:24Z</time></trkpt><trkpt lat="45.73092754025049" lon="9.759021398660636"><ele>306.0</ele><time>2026-05-02T08:02:25Z</time></trkpt><trkpt lat="45.73098473015173" lon="9.75897998175221"><ele>306.0</ele><time>2026-05-02T08:02:26Z</time></trkpt><trkpt lat="45.73106085868729" lon="9.758928268407436"><ele>306.0</ele><time>2026-05-02T08:02:27Z</time></trkpt><trkpt lat="45.73114093655466" lon="9.758881982507093"><ele>306.0</ele><time>2026-05-02T08:02:28Z</time></trkpt><trkpt lat="45.73121085111458" lon="9.758854902256868"><ele>306.0</ele><time>2026-05-02T08:02:29Z</time></trkpt><trkpt lat="45.731295020235486" lon="9.758838649461163"><ele>306.1666666666667</ele><time>2026-05-02T08:02:30Z</time></trkpt><trkpt lat="45.73137768244135" lon="9.758829769899966"><ele>306.3333333333333</ele><time>2026-05-02T08:02:31Z</time></trkpt><trkpt lat="45.73145875083465" lon="9.758815833083586"><ele>306.5</ele><time>2026-05-02T08:02:32Z</time></trkpt><trkpt lat="45.73154069640242" lon="9.758799274379987"><ele>306.66666666666663</ele><time>2026-05-02T08:02:33Z</time></trkpt><trkpt lat="45.73162196394221" lon="9.758785926759067"><ele>306.8333333333333</ele><time>2026-05-02T08:02:34Z</time></trkpt><trkpt lat="45.73169858181024" lon="9.758784775266099"><ele>307.0</ele><time>2026-05-02T08:02:35Z</time></trkpt><trkpt lat="45.731775089652714" lon="9.758781123496002"><ele>306.99999999999994</ele><time>2026-05-02T08:02:36Z</time></trkpt><trkpt lat="45.731844564558415" lon="9.758761226946852"><ele>307.0</ele><time>2026-05-02T08:02:37Z</time></trkpt><trkpt lat="45.73191308294893" lon="9.758739980406716"><ele>307.0</ele><time>2026-05-02T08:02:38Z</time></trkpt><trkpt lat="45.731979948956614" lon="9.758710820524568"><ele>307.0</ele><time>2026-05-02T08:02:39Z</time></trkpt><trkpt lat="45.73204126476856" lon="9.758683932748424"><ele>307.0</ele><time>2026-05-02T08:02:40Z</time></trkpt><trkpt lat="45.73210579516004" lon="9.758645403464113"><ele>306.99999999999994</ele><time>2026-05-02T08:02:41Z</time></trkpt><trkpt lat="45.73216838826551" lon="9.75861289538566"><ele>307.0</ele><time>2026-05-02T08:02:42Z</time></trkpt><trkpt lat="45.73223289322197" lon="9.758584421573232"><ele>307.4285714285714</ele><time>2026-05-02T08:02:43Z</time></trkpt><trkpt lat="45.732292874743045" lon="9.758556103929"><ele>307.85714285714283</ele><time>2026-05-02T08:02:44Z</time></trkpt><trkpt lat="45.73235367772912" lon="9.758527297717558"><ele>308.2857142857143</ele><time>2026-05-02T08:02:45Z</time></trkpt><trkpt lat="45.73241502335827" lon="9.75849988353038"><ele>308.71428571428567</ele><time>2026-05-02T08:02:46Z</time></trkpt><trkpt lat="45.73247566168589" lon="9.758471856589422"><ele>309.1428571428571</ele><time>2026-05-02T08:02:47Z</time></trkpt><trkpt lat="45.732593611538334" lon="9.758409701543115"><ele>309.57142857142856</ele><time>2026-05-02T08:02:49Z</time></trkpt><trkpt lat="45.73265423798009" lon="9.758377230624049"><ele>310.0</ele><time>2026-05-02T08:02:50Z</time></trkpt><trkpt lat="45.73271406527971" lon="9.758340421178833"><ele>309.2</ele><time>2026-05-02T08:02:51Z</time></trkpt><trkpt lat="45.73277203968857" lon="9.758293998844028"><ele>308.4</ele><time>2026-05-02T08:02:52Z</time></trkpt><trkpt lat="45.7328287716017" lon="9.758248990628621"><ele>307.6</ele><time>2026-05-02T08:02:53Z</time></trkpt><trkpt lat="45.73294828335883" lon="9.758161764385797"><ele>306.8</ele><time>2026-05-02T08:02:55Z</time></trkpt><trkpt lat="45.73305311645259" lon="9.758077663807159"><ele>306.0</ele><time>2026-05-02T08:02:57Z</time></trkpt><trkpt lat="45.73311467407298" lon="9.758035461376803"><ele>306.0</ele><time>2026-05-02T08:02:58Z</time></trkpt><trkpt lat="45.73322765663588" lon="9.75795343981445"><ele>306.0</ele><time>2026-05-02T08:03:00Z</time></trkpt><trkpt lat="45.73328503391418" lon="9.757913071176423"><ele>306.0</ele><time>2026-05-02T08:03:01Z</time></trkpt><trkpt lat="45.73334647462574" lon="9.757887683758296"><ele>306.0</ele><time>2026-05-02T08:03:02Z</time></trkpt><trkpt lat="45.73347699872091" lon="9.757881778628844"><ele>306.0</ele><time>2026-05-02T08:03:04Z</time></trkpt><trkpt lat="45.733518526518665" lon="9.757811718110567"><ele>306.0</ele><time>2026-05-02T08:03:05Z</time></trkpt><trkpt lat="45.73358650606766" lon="9.757773878679295"><ele>306.2</ele><time>2026-05-02T08:03:06Z</time></trkpt><trkpt lat="45.73370677437259" lon="9.757735121028254"><ele>306.40000000000003</ele><time>2026-05-02T08:03:08Z</time></trkpt><trkpt lat="45.73382221938502" lon="9.757672934123349"><ele>306.6</ele><time>2026-05-02T08:03:10Z</time></trkpt><trkpt lat="45.733879479020835" lon="9.757631791796712"><ele>306.8</ele><time>2026-05-02T08:03:11Z</time></trkpt><trkpt lat="45.73399408863728" lon="9.757551680316555"><ele>307.0</ele><time>2026-05-02T08:03:13Z</time></trkpt><trkpt lat="45.734105302920014" lon="9.757466293310014"><ele>306.99999999999994</ele><time>2026-05-02T08:03:15Z</time></trkpt><trkpt lat="45.73416832520939" lon="9.757429132509552"><ele>307.0</ele><time>2026-05-02T08:03:16Z</time></trkpt><trkpt lat="45.73423240608962" lon="9.7573941536776"><ele>307.0</ele><time>2026-05-02T08:03:17Z</time></trkpt><trkpt lat="45.734295378017855" lon="9.757367104621139"><ele>307.0</ele><time>2026-05-02T08:03:18Z</time></trkpt><trkpt lat="45.73438052152942" lon="9.75735197732385"><ele>307.0</ele><time>2026-05-02T08:03:19Z</time></trkpt><trkpt lat="45.734446486649986" lon="9.757339277261575"><ele>306.99999999999994</ele><time>2026-05-02T08:03:20Z</time></trkpt><trkpt lat="45.73452606978561" lon="9.757328240152718"><ele>307.0</ele><time>2026-05-02T08:03:21Z</time></trkpt><trkpt lat="45.73461141842876" lon="9.757329301337172"><ele>307.0</ele><time>2026-05-02T08:03:22Z</time></trkpt><trkpt lat="45.73468880324114" lon="9.757318979038873"><ele>307.0</ele><time>2026-05-02T08:03:23Z</time></trkpt><trkpt lat="45.73477330479571" lon="9.757308998742795"><ele>307.0</ele><time>2026-05-02T08:03:24Z</time></trkpt><trkpt lat="45.734861878062226" lon="9.757300451061157"><ele>307.0</ele><time>2026-05-02T08:03:25Z</time></trkpt><trkpt lat="45.73494705289881" lon="9.757298540972936"><ele>307.0</ele><time>2026-05-02T08:03:26Z</time></trkpt><trkpt lat="45.73503605230099" lon="9.757289363192722"><ele>307.0</ele><time>2026-05-02T08:03:27Z</time></trkpt><trkpt lat="45.735125749967345" lon="9.757281865412889"><ele>307.0</ele><time>2026-05-02T08:03:28Z</time></trkpt><trkpt lat="45.73521591081062" lon="9.757275246990389"><ele>307.0</ele><time>2026-05-02T08:03:29Z</time></trkpt><trkpt lat="45.73530569457007" lon="9.75726869273098"><ele>307.0</ele><time>2026-05-02T08:03:30Z</time></trkpt><trkpt lat="45.73539468129727" lon="9.75725953962975"><ele>307.0</ele><time>2026-05-02T08:03:31Z</time></trkpt><trkpt lat="45.735484710895875" lon="9.757253537133135"><ele>307.0</ele><time>2026-05-02T08:03:32Z</time></trkpt><trkpt lat="45.735573197632355" lon="9.75724187966617"><ele>307.0</ele><time>2026-05-02T08:03:33Z</time></trkpt><trkpt lat="45.73566191900507" lon="9.75723135622417"><ele>306.16666666666663</ele><time>2026-05-02T08:03:34Z</time></trkpt><trkpt lat="45.73574130269135" lon="9.757236194917104"><ele>305.3333333333333</ele><time>2026-05-02T08:03:35Z</time></trkpt><trkpt lat="45.73583757478744" lon="9.757243747134597"><ele>304.5</ele><time>2026-05-02T08:03:36Z</time></trkpt><trkpt lat="45.735927179200004" lon="9.757267166265933"><ele>303.6666666666667</ele><time>2026-05-02T08:03:37Z</time></trkpt><trkpt lat="45.73601137022414" lon="9.757292746873972"><ele>302.83333333333337</ele><time>2026-05-02T08:03:38Z</time></trkpt><trkpt lat="45.73609822273979" lon="9.757317018544466"><ele>302.0</ele><time>2026-05-02T08:03:39Z</time></trkpt><trkpt lat="45.73618146063463" lon="9.757344561190127"><ele>301.83333333333337</ele><time>2026-05-02T08:03:40Z</time></trkpt><trkpt lat="45.736263021633874" lon="9.757375349854172"><ele>301.6666666666667</ele><time>2026-05-02T08:03:41Z</time></trkpt><trkpt lat="45.7363385112136" lon="9.757417119614788"><ele>301.5</ele><time>2026-05-02T08:03:42Z</time></trkpt><trkpt lat="45.736407531461964" lon="9.757474503332181"><ele>301.3333333333333</ele><time>2026-05-02T08:03:43Z</time></trkpt><trkpt lat="45.73646006242971" lon="9.757552648579052"><ele>301.16666666666663</ele><time>2026-05-02T08:03:44Z</time></trkpt><trkpt lat="45.73651569781148" lon="9.757628026765245"><ele>301.0</ele><time>2026-05-02T08:03:45Z</time></trkpt><trkpt lat="45.73655603545432" lon="9.757717502026054"><ele>301.0</ele><time>2026-05-02T08:03:46Z</time></trkpt><trkpt lat="45.73659906814671" lon="9.757804646118185"><ele>301.0</ele><time>2026-05-02T08:03:47Z</time></trkpt><trkpt lat="45.73663862033058" lon="9.75789273471088"><ele>301.0</ele><time>2026-05-02T08:03:48Z</time></trkpt><trkpt lat="45.73667225845132" lon="9.757973520262343"><ele>301.0</ele><time>2026-05-02T08:03:49Z</time></trkpt><trkpt lat="45.73670675842292" lon="9.758055823230643"><ele>301.0</ele><time>2026-05-02T08:03:50Z</time></trkpt><trkpt lat="45.736753252499554" lon="9.75814455003063"><ele>301.0</ele><time>2026-05-02T08:03:51Z</time></trkpt><trkpt lat="45.736794505683314" lon="9.758223456314166"><ele>301.0</ele><time>2026-05-02T08:03:52Z</time></trkpt><trkpt lat="45.73682598179757" lon="9.758311300810018"><ele>301.0</ele><time>2026-05-02T08:03:53Z</time></trkpt><trkpt lat="45.736860997434405" lon="9.758386396082589"><ele>301.0</ele><time>2026-05-02T08:03:54Z</time></trkpt><trkpt lat="45.736895872636296" lon="9.758466005668343"><ele>301.0</ele><time>2026-05-02T08:03:55Z</time></trkpt><trkpt lat="45.73693075292101" lon="9.758544795254352"><ele>301.0</ele><time>2026-05-02T08:03:56Z</time></trkpt><trkpt lat="45.736968386880775" lon="9.75862433146432"><ele>301.0</ele><time>2026-05-02T08:03:57Z</time></trkpt><trkpt lat="45.7370047175468" lon="9.75870141215999"><ele>301.0</ele><time>2026-05-02T08:03:58Z</time></trkpt><trkpt lat="45.73703881633783" lon="9.758784784997331"><ele>301.0</ele><time>2026-05-02T08:03:59Z</time></trkpt><trkpt lat="45.73707185028323" lon="9.758861942007396"><ele>300.3333333333333</ele><time>2026-05-02T08:04:00Z</time></trkpt><trkpt lat="45.737104120443156" lon="9.758942574049478"><ele>299.66666666666663</ele><time>2026-05-02T08:04:01Z</time></trkpt><trkpt lat="45.737137821086456" lon="9.759023293872842"><ele>299.0</ele><time>2026-05-02T08:04:02Z</time></trkpt><trkpt lat="45.737169515780515" lon="9.759106697305146"><ele>298.3333333333333</ele><time>2026-05-02T08:04:03Z</time></trkpt><trkpt lat="45.73723850428785" lon="9.759261360290363"><ele>297.6666666666667</ele><time>2026-05-02T08:04:05Z</time></trkpt><trkpt lat="45.73726455549762" lon="9.759348351959707"><ele>297.0</ele><time>2026-05-02T08:04:06Z</time></trkpt><trkpt lat="45.73730765164346" lon="9.759512647875857"><ele>297.0</ele><time>2026-05-02T08:04:08Z</time></trkpt><trkpt lat="45.73734733430995" lon="9.759663807491245"><ele>297.0</ele><time>2026-05-02T08:04:10Z</time></trkpt><trkpt lat="45.73738869712234" lon="9.759825702528662"><ele>297.0</ele><time>2026-05-02T08:04:12Z</time></trkpt><trkpt lat="45.73741662406959" lon="9.75991736014336"><ele>297.0</ele><time>2026-05-02T08:04:13Z</time></trkpt><trkpt lat="45.73744495902607" lon="9.760006184982364"><ele>297.0</ele><time>2026-05-02T08:04:14Z</time></trkpt><trkpt lat="45.7374691872789" lon="9.760092337702533"><ele>297.0</ele><time>2026-05-02T08:04:15Z</time></trkpt><trkpt lat="45.737493309489075" lon="9.76018340924887"><ele>297.42857142857144</ele><time>2026-05-02T08:04:16Z</time></trkpt><trkpt lat="45.73751757519534" lon="9.76027234642857"><ele>297.8571428571429</ele><time>2026-05-02T08:04:17Z</time></trkpt><trkpt lat="45.737538911898206" lon="9.760364318569419"><ele>298.2857142857143</ele><time>2026-05-02T08:04:18Z</time></trkpt><trkpt lat="45.73755381222987" lon="9.760453071344193"><ele>298.7142857142857</ele><time>2026-05-02T08:04:19Z</time></trkpt><trkpt lat="45.73757219104316" lon="9.760542549198762"><ele>299.1428571428571</ele><time>2026-05-02T08:04:20Z</time></trkpt><trkpt lat="45.737589371620615" lon="9.760633276542121"><ele>299.57142857142856</ele><time>2026-05-02T08:04:21Z</time></trkpt><trkpt lat="45.7376075190027" lon="9.760721805423197"><ele>300.0</ele><time>2026-05-02T08:04:22Z</time></trkpt><trkpt lat="45.73762430998981" lon="9.760811439998994"><ele>300.0</ele><time>2026-05-02T08:04:23Z</time></trkpt><trkpt lat="45.73763904872258" lon="9.760901451681905"><ele>300.0</ele><time>2026-05-02T08:04:24Z</time></trkpt><trkpt lat="45.7376501136217" lon="9.760993754893715"><ele>300.0</ele><time>2026-05-02T08:04:25Z</time></trkpt><trkpt lat="45.73766044248287" lon="9.761091814456217"><ele>300.0</ele><time>2026-05-02T08:04:26Z</time></trkpt><trkpt lat="45.73768683412328" lon="9.7612669013746"><ele>300.0</ele><time>2026-05-02T08:04:28Z</time></trkpt><trkpt lat="45.737696733750184" lon="9.761357035607162"><ele>300.0</ele><time>2026-05-02T08:04:29Z</time></trkpt><trkpt lat="45.737706777925865" lon="9.761449274334147"><ele>300.6666666666667</ele><time>2026-05-02T08:04:30Z</time></trkpt><trkpt lat="45.737716139056154" lon="9.76153961551785"><ele>301.3333333333333</ele><time>2026-05-02T08:04:31Z</time></trkpt><trkpt lat="45.73772148779539" lon="9.761630358042362"><ele>302.0</ele><time>2026-05-02T08:04:32Z</time></trkpt><trkpt lat="45.73772114707093" lon="9.76181205964391"><ele>302.66666666666663</ele><time>2026-05-02T08:04:34Z</time></trkpt><trkpt lat="45.73772331199115" lon="9.761990660911719"><ele>303.3333333333333</ele><time>2026-05-02T08:04:36Z</time></trkpt><trkpt lat="45.73772293670267" lon="9.762082162050934"><ele>304.0</ele><time>2026-05-02T08:04:37Z</time></trkpt><trkpt lat="45.737722258231436" lon="9.762172896569355"><ele>302.3333333333333</ele><time>2026-05-02T08:04:38Z</time></trkpt><trkpt lat="45.737723896642855" lon="9.762263161095555"><ele>300.66666666666663</ele><time>2026-05-02T08:04:39Z</time></trkpt><trkpt lat="45.737723464208415" lon="9.762353730632327"><ele>299.0</ele><time>2026-05-02T08:04:40Z</time></trkpt><trkpt lat="45.73773101599586" lon="9.762533439514673"><ele>297.3333333333333</ele><time>2026-05-02T08:04:42Z</time></trkpt><trkpt lat="45.73773477606958" lon="9.762625470269512"><ele>295.6666666666667</ele><time>2026-05-02T08:04:43Z</time></trkpt><trkpt lat="45.73775373540981" lon="9.762800998371036"><ele>294.0</ele><time>2026-05-02T08:04:45Z</time></trkpt><trkpt lat="45.73779260704981" lon="9.762971456451373"><ele>294.0</ele><time>2026-05-02T08:04:47Z</time></trkpt><trkpt lat="45.73784200591488" lon="9.763145053230978"><ele>294.0</ele><time>2026-05-02T08:04:49Z</time></trkpt><trkpt lat="45.737892898871266" lon="9.763310778642635"><ele>294.0</ele><time>2026-05-02T08:04:51Z</time></trkpt><trkpt lat="45.73794962243437" lon="9.76346798510391"><ele>294.0</ele><time>2026-05-02T08:04:53Z</time></trkpt><trkpt lat="45.738002971080135" lon="9.76363078789725"><ele>295.0</ele><time>2026-05-02T08:04:55Z</time></trkpt><trkpt lat="45.73802768137875" lon="9.76371657343323"><ele>296.0</ele><time>2026-05-02T08:04:56Z</time></trkpt><trkpt lat="45.73808986895248" lon="9.76387076670957"><ele>297.0</ele><time>2026-05-02T08:04:58Z</time></trkpt><trkpt lat="45.73811926136259" lon="9.76395308630671"><ele>298.0</ele><time>2026-05-02T08:04:59Z</time></trkpt><trkpt lat="45.738178055617084" lon="9.764121870263585"><ele>299.0</ele><time>2026-05-02T08:05:01Z</time></trkpt><trkpt lat="45.738226130702735" lon="9.76428453926017"><ele>299.6666666666667</ele><time>2026-05-02T08:05:03Z</time></trkpt><trkpt lat="45.73825494637006" lon="9.764448240352099"><ele>300.33333333333337</ele><time>2026-05-02T08:05:05Z</time></trkpt><trkpt lat="45.73827105106118" lon="9.764536672502503"><ele>301.0</ele><time>2026-05-02T08:05:06Z</time></trkpt><trkpt lat="45.73833265151093" lon="9.764695499187361"><ele>301.6666666666667</ele><time>2026-05-02T08:05:08Z</time></trkpt><trkpt lat="45.73835572655942" lon="9.764781676688177"><ele>302.3333333333333</ele><time>2026-05-02T08:05:09Z</time></trkpt><trkpt lat="45.73838221939148" lon="9.76487453791872"><ele>303.0</ele><time>2026-05-02T08:05:10Z</time></trkpt><trkpt lat="45.73840820495078" lon="9.76495891179929"><ele>303.0</ele><time>2026-05-02T08:05:11Z</time></trkpt><trkpt lat="45.738433790458664" lon="9.76504326444002"><ele>303.0</ele><time>2026-05-02T08:05:12Z</time></trkpt><trkpt lat="45.738462576490846" lon="9.76512862624341"><ele>303.0</ele><time>2026-05-02T08:05:13Z</time></trkpt><trkpt lat="45.73848880972191" lon="9.765211001392911"><ele>303.0</ele><time>2026-05-02T08:05:14Z</time></trkpt><trkpt lat="45.73851533726887" lon="9.765297272060165"><ele>303.0</ele><time>2026-05-02T08:05:15Z</time></trkpt><trkpt lat="45.73854151003411" lon="9.765381008783109"><ele>303.0</ele><time>2026-05-02T08:05:16Z</time></trkpt><trkpt lat="45.73857874501454" lon="9.765456524656475"><ele>303.0</ele><time>2026-05-02T08:05:17Z</time></trkpt><trkpt lat="45.73859327530448" lon="9.765550424071161"><ele>302.6666666666667</ele><time>2026-05-02T08:05:18Z</time></trkpt><trkpt lat="45.73862805911909" lon="9.76563275686424"><ele>302.3333333333333</ele><time>2026-05-02T08:05:19Z</time></trkpt><trkpt lat="45.73868234620739" lon="9.76579883373337"><ele>302.0</ele><time>2026-05-02T08:05:21Z</time></trkpt><trkpt lat="45.73870953333586" lon="9.765883158124195"><ele>301.66666666666663</ele><time>2026-05-02T08:05:22Z</time></trkpt><trkpt lat="45.73874066148848" lon="9.76596280144358"><ele>301.3333333333333</ele><time>2026-05-02T08:05:23Z</time></trkpt><trkpt lat="45.73876274773192" lon="9.766048452376605"><ele>301.0</ele><time>2026-05-02T08:05:24Z</time></trkpt><trkpt lat="45.73879160445917" lon="9.766131706478292"><ele>301.0</ele><time>2026-05-02T08:05:25Z</time></trkpt><trkpt lat="45.73881771776257" lon="9.766215383219397"><ele>301.0</ele><time>2026-05-02T08:05:26Z</time></trkpt><trkpt lat="45.73887090154656" lon="9.766378272282877"><ele>301.0</ele><time>2026-05-02T08:05:28Z</time></trkpt><trkpt lat="45.73889909696406" lon="9.766461557523856"><ele>301.0</ele><time>2026-05-02T08:05:29Z</time></trkpt><trkpt lat="45.73892439106551" lon="9.766547126556226"><ele>301.0</ele><time>2026-05-02T08:05:30Z</time></trkpt><trkpt lat="45.738952277893695" lon="9.766630723902761"><ele>301.0</ele><time>2026-05-02T08:05:31Z</time></trkpt><trkpt lat="45.73900214986878" lon="9.766795674615517"><ele>301.6</ele><time>2026-05-02T08:05:33Z</time></trkpt><trkpt lat="45.73905341008796" lon="9.76696214655643"><ele>302.20000000000005</ele><time>2026-05-02T08:05:35Z</time></trkpt><trkpt lat="45.73908785239919" lon="9.767132738175503"><ele>302.79999999999995</ele><time>2026-05-02T08:05:37Z</time></trkpt><trkpt lat="45.73909152966246" lon="9.767224361065441"><ele>303.4</ele><time>2026-05-02T08:05:38Z</time></trkpt><trkpt lat="45.739084222808096" lon="9.767395706934316"><ele>304.0</ele><time>2026-05-02T08:05:40Z</time></trkpt><trkpt lat="45.73905044615203" lon="9.767558269110268"><ele>305.75</ele><time>2026-05-02T08:05:42Z</time></trkpt><trkpt lat="45.73905057087869" lon="9.767727284064646"><ele>307.5</ele><time>2026-05-02T08:05:44Z</time></trkpt><trkpt lat="45.73911850603328" lon="9.767873234479994"><ele>309.25</ele><time>2026-05-02T08:05:46Z</time></trkpt><trkpt lat="45.73923008379818" lon="9.767962616350271"><ele>311.0</ele><time>2026-05-02T08:05:48Z</time></trkpt><trkpt lat="45.739336195249344" lon="9.768051552223083"><ele>309.5</ele><time>2026-05-02T08:05:50Z</time></trkpt><trkpt lat="45.73944332336002" lon="9.768138921649427"><ele>308.0</ele><time>2026-05-02T08:05:52Z</time></trkpt><trkpt lat="45.73955455318482" lon="9.768211154694596"><ele>306.5</ele><time>2026-05-02T08:05:54Z</time></trkpt><trkpt lat="45.73966583965488" lon="9.76828715085146"><ele>305.0</ele><time>2026-05-02T08:05:56Z</time></trkpt><trkpt lat="45.73978007483628" lon="9.76835709276707"><ele>305.0</ele><time>2026-05-02T08:05:58Z</time></trkpt><trkpt lat="45.73983961464759" lon="9.768391939235476"><ele>305.0</ele><time>2026-05-02T08:05:59Z</time></trkpt><trkpt lat="45.73989931321537" lon="9.768431640991365"><ele>305.0</ele><time>2026-05-02T08:06:00Z</time></trkpt><trkpt lat="45.73996123549236" lon="9.768470109479955"><ele>305.0</ele><time>2026-05-02T08:06:01Z</time></trkpt><trkpt lat="45.74002288493073" lon="9.76850732355162"><ele>305.0</ele><time>2026-05-02T08:06:02Z</time></trkpt><trkpt lat="45.74008359426092" lon="9.768542562853742"><ele>305.0</ele><time>2026-05-02T08:06:03Z</time></trkpt><trkpt lat="45.74014270458768" lon="9.768578999443774"><ele>305.0</ele><time>2026-05-02T08:06:04Z</time></trkpt><trkpt lat="45.74020104691004" lon="9.768618185446709"><ele>305.33333333333337</ele><time>2026-05-02T08:06:05Z</time></trkpt><trkpt lat="45.74025787953284" lon="9.76865861073812"><ele>305.6666666666667</ele><time>2026-05-02T08:06:06Z</time></trkpt><trkpt lat="45.7403699120899" lon="9.768741848709247"><ele>306.0</ele><time>2026-05-02T08:06:08Z</time></trkpt><trkpt lat="45.74047967415928" lon="9.768817858964516"><ele>306.3333333333333</ele><time>2026-05-02T08:06:10Z</time></trkpt><trkpt lat="45.74053787179673" lon="9.768860647589545"><ele>306.66666666666663</ele><time>2026-05-02T08:06:11Z</time></trkpt><trkpt lat="45.740594705063344" lon="9.76890612087906"><ele>307.0</ele><time>2026-05-02T08:06:12Z</time></trkpt><trkpt lat="45.74064793574652" lon="9.768956155610299"><ele>306.99999999999994</ele><time>2026-05-02T08:06:13Z</time></trkpt><trkpt lat="45.74069876173835" lon="9.76901127668361"><ele>307.0</ele><time>2026-05-02T08:06:14Z</time></trkpt><trkpt lat="45.74075048315762" lon="9.769064467560776"><ele>307.0</ele><time>2026-05-02T08:06:15Z</time></trkpt><trkpt lat="45.740802743805" lon="9.769120335057439"><ele>307.0</ele><time>2026-05-02T08:06:16Z</time></trkpt><trkpt lat="45.740855382407155" lon="9.769176783836537"><ele>307.0</ele><time>2026-05-02T08:06:17Z</time></trkpt><trkpt lat="45.74090597351877" lon="9.76923465803887"><ele>306.99999999999994</ele><time>2026-05-02T08:06:18Z</time></trkpt><trkpt lat="45.74095809308548" lon="9.769287845602793"><ele>307.0</ele><time>2026-05-02T08:06:19Z</time></trkpt><trkpt lat="45.74100820027956" lon="9.7693438849686"><ele>306.85714285714283</ele><time>2026-05-02T08:06:20Z</time></trkpt><trkpt lat="45.74105941683717" lon="9.769402946079264"><ele>306.7142857142857</ele><time>2026-05-02T08:06:21Z</time></trkpt><trkpt lat="45.74111215546923" lon="9.769468252629801"><ele>306.57142857142856</ele><time>2026-05-02T08:06:22Z</time></trkpt><trkpt lat="45.74116313042988" lon="9.769524806135133"><ele>306.42857142857144</ele><time>2026-05-02T08:06:23Z</time></trkpt><trkpt lat="45.7412146987129" lon="9.769594021932834"><ele>306.2857142857143</ele><time>2026-05-02T08:06:24Z</time></trkpt><trkpt lat="45.74126237034553" lon="9.769663230901084"><ele>306.1428571428571</ele><time>2026-05-02T08:06:25Z</time></trkpt><trkpt lat="45.74130824825282" lon="9.769740591521566"><ele>306.0</ele><time>2026-05-02T08:06:26Z</time></trkpt><trkpt lat="45.74135253496222" lon="9.769821707917528"><ele>306.0</ele><time>2026-05-02T08:06:27Z</time></trkpt><trkpt lat="45.74139550675985" lon="9.769890505571976"><ele>306.0</ele><time>2026-05-02T08:06:28Z</time></trkpt><trkpt lat="45.74143808567612" lon="9.7699597920594"><ele>306.0</ele><time>2026-05-02T08:06:29Z</time></trkpt><trkpt lat="45.74148079669577" lon="9.770027327862893"><ele>306.0</ele><time>2026-05-02T08:06:30Z</time></trkpt><trkpt lat="45.741524698453006" lon="9.77009676731594"><ele>306.0</ele><time>2026-05-02T08:06:31Z</time></trkpt><trkpt lat="45.74156549161725" lon="9.770167164050331"><ele>306.0</ele><time>2026-05-02T08:06:32Z</time></trkpt><trkpt lat="45.74160999987879" lon="9.770236386991291"><ele>306.0</ele><time>2026-05-02T08:06:33Z</time></trkpt><trkpt lat="45.74165338449009" lon="9.770305032403458"><ele>305.6666666666667</ele><time>2026-05-02T08:06:34Z</time></trkpt><trkpt lat="45.74169666063864" lon="9.770370884843798"><ele>305.3333333333333</ele><time>2026-05-02T08:06:35Z</time></trkpt><trkpt lat="45.74177771279443" lon="9.770502783122971"><ele>305.0</ele><time>2026-05-02T08:06:37Z</time></trkpt><trkpt lat="45.741809954995105" lon="9.770582356820558"><ele>304.66666666666663</ele><time>2026-05-02T08:06:38Z</time></trkpt><trkpt lat="45.741877074723625" lon="9.77073237971982"><ele>304.3333333333333</ele><time>2026-05-02T08:06:40Z</time></trkpt><trkpt lat="45.74190497164978" lon="9.77081681434109"><ele>304.0</ele><time>2026-05-02T08:06:41Z</time></trkpt><trkpt lat="45.74197093132574" lon="9.770969218623051"><ele>304.5</ele><time>2026-05-02T08:06:43Z</time></trkpt><trkpt lat="45.74204118112628" lon="9.77112080265893"><ele>305.0</ele><time>2026-05-02T08:06:45Z</time></trkpt><trkpt lat="45.7421140711327" lon="9.771268678018476"><ele>305.5</ele><time>2026-05-02T08:06:47Z</time></trkpt><trkpt lat="45.742151987694335" lon="9.771342584191213"><ele>306.0</ele><time>2026-05-02T08:06:48Z</time></trkpt><trkpt lat="45.742192259116145" lon="9.77141379521673"><ele>306.5</ele><time>2026-05-02T08:06:49Z</time></trkpt><trkpt lat="45.74223135844636" lon="9.771488299867586"><ele>307.0</ele><time>2026-05-02T08:06:50Z</time></trkpt><trkpt lat="45.742308662941845" lon="9.771627954282462"><ele>307.0</ele><time>2026-05-02T08:06:52Z</time></trkpt><trkpt lat="45.74238472325445" lon="9.771769367534068"><ele>307.0</ele><time>2026-05-02T08:06:54Z</time></trkpt><trkpt lat="45.74247580449062" lon="9.7718923375541"><ele>307.0</ele><time>2026-05-02T08:06:56Z</time></trkpt><trkpt lat="45.74253308159965" lon="9.77194216819787"><ele>307.0</ele><time>2026-05-02T08:06:57Z</time></trkpt><trkpt lat="45.74259063215101" lon="9.771983185081009"><ele>307.0</ele><time>2026-05-02T08:06:58Z</time></trkpt><trkpt lat="45.742645891643235" lon="9.77202866062776"><ele>307.0</ele><time>2026-05-02T08:06:59Z</time></trkpt><trkpt lat="45.74270235210346" lon="9.772072104251942"><ele>306.5</ele><time>2026-05-02T08:07:00Z</time></trkpt><trkpt lat="45.742758085295954" lon="9.772114453049351"><ele>306.0</ele><time>2026-05-02T08:07:01Z</time></trkpt><trkpt lat="45.74285790509825" lon="9.772223170997458"><ele>305.5</ele><time>2026-05-02T08:07:03Z</time></trkpt><trkpt lat="45.74290369685007" lon="9.77228646256847"><ele>305.0</ele><time>2026-05-02T08:07:04Z</time></trkpt><trkpt lat="45.742950365692465" lon="9.772352335748872"><ele>304.5</ele><time>2026-05-02T08:07:05Z</time></trkpt><trkpt lat="45.74303950864786" lon="9.77248325045251"><ele>304.0</ele><time>2026-05-02T08:07:07Z</time></trkpt><trkpt lat="45.743084026559586" lon="9.77255297694735"><ele>304.0</ele><time>2026-05-02T08:07:08Z</time></trkpt><trkpt lat="45.743122394810484" lon="9.772626882699157"><ele>304.0</ele><time>2026-05-02T08:07:09Z</time></trkpt><trkpt lat="45.74315435966527" lon="9.772706565700863"><ele>304.0</ele><time>2026-05-02T08:07:10Z</time></trkpt><trkpt lat="45.74318229514528" lon="9.772788464757145"><ele>304.0</ele><time>2026-05-02T08:07:11Z</time></trkpt><trkpt lat="45.74323340273123" lon="9.772953107629121"><ele>304.0</ele><time>2026-05-02T08:07:13Z</time></trkpt><trkpt lat="45.743269137726415" lon="9.773124204422508"><ele>304.0</ele><time>2026-05-02T08:07:15Z</time></trkpt><trkpt lat="45.743294193963365" lon="9.773207289920608"><ele>304.3333333333333</ele><time>2026-05-02T08:07:16Z</time></trkpt><trkpt lat="45.743317122695736" lon="9.773292377167117"><ele>304.66666666666663</ele><time>2026-05-02T08:07:17Z</time></trkpt><trkpt lat="45.74333528738074" lon="9.773378819745261"><ele>305.0</ele><time>2026-05-02T08:07:18Z</time></trkpt><trkpt lat="45.74336906014295" lon="9.773552870298415"><ele>305.3333333333333</ele><time>2026-05-02T08:07:20Z</time></trkpt><trkpt lat="45.74340375891498" lon="9.77372205247472"><ele>305.6666666666667</ele><time>2026-05-02T08:07:22Z</time></trkpt><trkpt lat="45.74342295461368" lon="9.773808962160851"><ele>306.0</ele><time>2026-05-02T08:07:23Z</time></trkpt><trkpt lat="45.74345626486324" lon="9.773978432800176"><ele>306.3333333333333</ele><time>2026-05-02T08:07:25Z</time></trkpt><trkpt lat="45.74347490110557" lon="9.77406721655817"><ele>306.6666666666667</ele><time>2026-05-02T08:07:26Z</time></trkpt><trkpt lat="45.74350837998533" lon="9.774242978917709"><ele>307.0</ele><time>2026-05-02T08:07:28Z</time></trkpt><trkpt lat="45.743526776441165" lon="9.774332020659052"><ele>307.33333333333337</ele><time>2026-05-02T08:07:29Z</time></trkpt><trkpt lat="45.74354491635373" lon="9.774420340820116"><ele>307.6666666666667</ele><time>2026-05-02T08:07:30Z</time></trkpt><trkpt lat="45.74356199835693" lon="9.774508275447513"><ele>308.0</ele><time>2026-05-02T08:07:31Z</time></trkpt><trkpt lat="45.743583004326396" lon="9.774596631761408"><ele>308.0</ele><time>2026-05-02T08:07:32Z</time></trkpt><trkpt lat="45.74362407767831" lon="9.774766622316795"><ele>308.0</ele><time>2026-05-02T08:07:34Z</time></trkpt><trkpt lat="45.74363703313809" lon="9.774913409635314"><ele>308.0</ele><time>2026-05-02T08:07:36Z</time></trkpt><trkpt lat="45.74362636516657" lon="9.775031102954504"><ele>308.0</ele><time>2026-05-02T08:07:39Z</time></trkpt><trkpt lat="45.743574160784746" lon="9.77509049109172"><ele>308.0</ele><time>2026-05-02T08:07:42Z</time></trkpt><trkpt lat="45.74366547210722" lon="9.775071771755995"><ele>308.0</ele><time>2026-05-02T08:07:46Z</time></trkpt><trkpt lat="45.743741252879445" lon="9.775082946637955"><ele>308.0</ele><time>2026-05-02T08:07:48Z</time></trkpt><trkpt lat="45.743774284928215" lon="9.775164402389963"><ele>308.0</ele><time>2026-05-02T08:07:49Z</time></trkpt><trkpt lat="45.7437937581043" lon="9.775255469459697"><ele>308.0</ele><time>2026-05-02T08:07:50Z</time></trkpt><trkpt lat="45.74382633697424" lon="9.775338969842528"><ele>308.0</ele><time>2026-05-02T08:07:51Z</time></trkpt><trkpt lat="45.74386491858777" lon="9.77541636762449"><ele>308.0</ele><time>2026-05-02T08:07:52Z</time></trkpt><trkpt lat="45.743901914174344" lon="9.775494246350652"><ele>308.0</ele><time>2026-05-02T08:07:53Z</time></trkpt><trkpt lat="45.74393478389049" lon="9.775575083988365"><ele>308.2857142857143</ele><time>2026-05-02T08:07:54Z</time></trkpt><trkpt lat="45.743965274510614" lon="9.775660734017823"><ele>308.57142857142856</ele><time>2026-05-02T08:07:55Z</time></trkpt><trkpt lat="45.744001963747685" lon="9.775737585064483"><ele>308.8571428571429</ele><time>2026-05-02T08:07:56Z</time></trkpt><trkpt lat="45.74403531539015" lon="9.775817505747657"><ele>309.1428571428571</ele><time>2026-05-02T08:07:57Z</time></trkpt><trkpt lat="45.74407200168875" lon="9.775894248795128"><ele>309.42857142857144</ele><time>2026-05-02T08:07:58Z</time></trkpt><trkpt lat="45.744107838204954" lon="9.775973932188244"><ele>309.7142857142857</ele><time>2026-05-02T08:07:59Z</time></trkpt><trkpt lat="45.74414092978103" lon="9.776053093498543"><ele>310.0</ele><time>2026-05-02T08:08:00Z</time></trkpt><trkpt lat="45.744178464151" lon="9.776129919758944"><ele>310.16666666666663</ele><time>2026-05-02T08:08:01Z</time></trkpt><trkpt lat="45.74424823180069" lon="9.776284850231585"><ele>310.3333333333333</ele><time>2026-05-02T08:08:03Z</time></trkpt><trkpt lat="45.74428305608457" lon="9.776364473913137"><ele>310.5</ele><time>2026-05-02T08:08:04Z</time></trkpt><trkpt lat="45.74432287634136" lon="9.776439930732796"><ele>310.6666666666667</ele><time>2026-05-02T08:08:05Z</time></trkpt><trkpt lat="45.744360963484354" lon="9.776512681016204"><ele>310.83333333333337</ele><time>2026-05-02T08:08:06Z</time></trkpt><trkpt lat="45.74440036092802" lon="9.776584073973153"><ele>311.0</ele><time>2026-05-02T08:08:07Z</time></trkpt><trkpt lat="45.7444416754651" lon="9.776653901120026"><ele>310.85714285714283</ele><time>2026-05-02T08:08:08Z</time></trkpt><trkpt lat="45.74448111656675" lon="9.776728840282615"><ele>310.7142857142857</ele><time>2026-05-02T08:08:09Z</time></trkpt><trkpt lat="45.74451995896749" lon="9.776803292387509"><ele>310.57142857142856</ele><time>2026-05-02T08:08:10Z</time></trkpt><trkpt lat="45.74459841337379" lon="9.776943248477304"><ele>310.42857142857144</ele><time>2026-05-02T08:08:12Z</time></trkpt><trkpt lat="45.744639415836176" lon="9.777016730266425"><ele>310.2857142857143</ele><time>2026-05-02T08:08:13Z</time></trkpt><trkpt lat="45.744677750403476" lon="9.777088860043476"><ele>310.14285714285717</ele><time>2026-05-02T08:08:14Z</time></trkpt><trkpt lat="45.74471515051973" lon="9.777162368744865"><ele>310.0</ele><time>2026-05-02T08:08:15Z</time></trkpt><trkpt lat="45.74478817846473" lon="9.777310558112074"><ele>310.0</ele><time>2026-05-02T08:08:17Z</time></trkpt><trkpt lat="45.74482287535085" lon="9.777386696879645"><ele>310.0</ele><time>2026-05-02T08:08:18Z</time></trkpt><trkpt lat="45.74485759666281" lon="9.777462627331131"><ele>310.0</ele><time>2026-05-02T08:08:19Z</time></trkpt><trkpt lat="45.74488805826949" lon="9.777543921526457"><ele>310.0</ele><time>2026-05-02T08:08:20Z</time></trkpt><trkpt lat="45.74491156346776" lon="9.777629319042044"><ele>310.0</ele><time>2026-05-02T08:08:21Z</time></trkpt><trkpt lat="45.74496025410061" lon="9.777792527681326"><ele>310.0</ele><time>2026-05-02T08:08:23Z</time></trkpt><trkpt lat="45.74500917556773" lon="9.777957276459592"><ele>310.16666666666663</ele><time>2026-05-02T08:08:25Z</time></trkpt><trkpt lat="45.74503726376061" lon="9.778038276179092"><ele>310.3333333333333</ele><time>2026-05-02T08:08:26Z</time></trkpt><trkpt lat="45.745092731491674" lon="9.77820062250043"><ele>310.5</ele><time>2026-05-02T08:08:28Z</time></trkpt><trkpt lat="45.7451273212656" lon="9.77827751741043"><ele>310.6666666666667</ele><time>2026-05-02T08:08:29Z</time></trkpt><trkpt lat="45.745162684657124" lon="9.778353229539517"><ele>310.83333333333337</ele><time>2026-05-02T08:08:30Z</time></trkpt><trkpt lat="45.74519907158389" lon="9.778434734151704"><ele>311.0</ele><time>2026-05-02T08:08:31Z</time></trkpt><trkpt lat="45.7452710732554" lon="9.778579976385268"><ele>311.0</ele><time>2026-05-02T08:08:33Z</time></trkpt><trkpt lat="45.74531838278139" lon="9.778651687596543"><ele>311.0</ele><time>2026-05-02T08:08:34Z</time></trkpt><trkpt lat="45.7453894742757" lon="9.778798223025241"><ele>311.0</ele><time>2026-05-02T08:08:36Z</time></trkpt><trkpt lat="45.74542450674051" lon="9.778874702891832"><ele>311.0</ele><time>2026-05-02T08:08:37Z</time></trkpt><trkpt lat="45.74545324390875" lon="9.77895861336911"><ele>311.0</ele><time>2026-05-02T08:08:38Z</time></trkpt><trkpt lat="45.74548303369438" lon="9.779038637760243"><ele>311.0</ele><time>2026-05-02T08:08:39Z</time></trkpt><trkpt lat="45.7455338410224" lon="9.779205678550037"><ele>311.33333333333337</ele><time>2026-05-02T08:08:41Z</time></trkpt><trkpt lat="45.745585948361985" lon="9.779368314438111"><ele>311.6666666666667</ele><time>2026-05-02T08:08:43Z</time></trkpt><trkpt lat="45.745613683227276" lon="9.779456477757313"><ele>312.0</ele><time>2026-05-02T08:08:44Z</time></trkpt><trkpt lat="45.74565328588566" lon="9.779531029556637"><ele>312.3333333333333</ele><time>2026-05-02T08:08:45Z</time></trkpt><trkpt lat="45.74570356319541" lon="9.779697587452205"><ele>312.66666666666663</ele><time>2026-05-02T08:08:47Z</time></trkpt><trkpt lat="45.745729459414676" lon="9.779780019176474"><ele>313.0</ele><time>2026-05-02T08:08:48Z</time></trkpt><trkpt lat="45.74575760852243" lon="9.779862300500497"><ele>313.0</ele><time>2026-05-02T08:08:49Z</time></trkpt><trkpt lat="45.745812397373626" lon="9.780025014852596"><ele>313.0</ele><time>2026-05-02T08:08:51Z</time></trkpt><trkpt lat="45.745834312536935" lon="9.78011130649407"><ele>313.0</ele><time>2026-05-02T08:08:52Z</time></trkpt><trkpt lat="45.74586163899238" lon="9.780195033851237"><ele>313.0</ele><time>2026-05-02T08:08:53Z</time></trkpt><trkpt lat="45.745907963901494" lon="9.780362022278808"><ele>313.0</ele><time>2026-05-02T08:08:55Z</time></trkpt><trkpt lat="45.745931531881354" lon="9.780447780330764"><ele>313.0</ele><time>2026-05-02T08:08:56Z</time></trkpt><trkpt lat="45.745955867069526" lon="9.78053596438134"><ele>313.0</ele><time>2026-05-02T08:08:57Z</time></trkpt><trkpt lat="45.74598019118158" lon="9.780620863302625"><ele>313.0</ele><time>2026-05-02T08:08:58Z</time></trkpt><trkpt lat="45.746004362480306" lon="9.780711411079864"><ele>313.0</ele><time>2026-05-02T08:08:59Z</time></trkpt><trkpt lat="45.74605351347226" lon="9.78087032480913"><ele>313.0</ele><time>2026-05-02T08:09:01Z</time></trkpt><trkpt lat="45.746104875649955" lon="9.78103762883667"><ele>313.0</ele><time>2026-05-02T08:09:03Z</time></trkpt><trkpt lat="45.74615032440163" lon="9.781208835391427"><ele>313.0</ele><time>2026-05-02T08:09:05Z</time></trkpt><trkpt lat="45.74619414260669" lon="9.781375932962675"><ele>313.0</ele><time>2026-05-02T08:09:07Z</time></trkpt><trkpt lat="45.74621635846239" lon="9.781460638609602"><ele>313.0</ele><time>2026-05-02T08:09:08Z</time></trkpt><trkpt lat="45.746262563758286" lon="9.781622394037875"><ele>313.0</ele><time>2026-05-02T08:09:10Z</time></trkpt><trkpt lat="45.74628806976369" lon="9.781712854481269"><ele>313.0</ele><time>2026-05-02T08:09:11Z</time></trkpt><trkpt lat="45.74630631368325" lon="9.781804593894783"><ele>313.0</ele><time>2026-05-02T08:09:12Z</time></trkpt><trkpt lat="45.746355434746356" lon="9.781972808037683"><ele>313.2</ele><time>2026-05-02T08:09:14Z</time></trkpt><trkpt lat="45.74639739100762" lon="9.78214525025554"><ele>313.4</ele><time>2026-05-02T08:09:16Z</time></trkpt><trkpt lat="45.746445673768484" lon="9.782311789886641"><ele>313.59999999999997</ele><time>2026-05-02T08:09:18Z</time></trkpt><trkpt lat="45.746489456492746" lon="9.782476926511816"><ele>313.8</ele><time>2026-05-02T08:09:20Z</time></trkpt><trkpt lat="45.74651328910591" lon="9.7825606326948"><ele>314.0</ele><time>2026-05-02T08:09:21Z</time></trkpt><trkpt lat="45.74653548507924" lon="9.78264560821421"><ele>314.59999999999997</ele><time>2026-05-02T08:09:22Z</time></trkpt><trkpt lat="45.746559807561965" lon="9.78272901474362"><ele>315.2</ele><time>2026-05-02T08:09:23Z</time></trkpt><trkpt lat="45.746578181681905" lon="9.782822749300307"><ele>315.79999999999995</ele><time>2026-05-02T08:09:24Z</time></trkpt><trkpt lat="45.746624838971" lon="9.782986335770632"><ele>316.4</ele><time>2026-05-02T08:09:26Z</time></trkpt><trkpt lat="45.74668313206857" lon="9.783159589894485"><ele>317.0</ele><time>2026-05-02T08:09:28Z</time></trkpt><trkpt lat="45.74672364398357" lon="9.783317480155576"><ele>317.0</ele><time>2026-05-02T08:09:30Z</time></trkpt><trkpt lat="45.74678385910192" lon="9.783483061108612"><ele>317.0</ele><time>2026-05-02T08:09:32Z</time></trkpt><trkpt lat="45.74684146736128" lon="9.78364490035381"><ele>317.0</ele><time>2026-05-02T08:09:34Z</time></trkpt><trkpt lat="45.746868942224694" lon="9.78372931240965"><ele>317.0</ele><time>2026-05-02T08:09:35Z</time></trkpt><trkpt lat="45.74689831341942" lon="9.78382021783177"><ele>317.0</ele><time>2026-05-02T08:09:36Z</time></trkpt><trkpt lat="45.7469284389651" lon="9.783901105033426"><ele>317.0</ele><time>2026-05-02T08:09:37Z</time></trkpt><trkpt lat="45.74695732068156" lon="9.78398356196773"><ele>317.0</ele><time>2026-05-02T08:09:38Z</time></trkpt><trkpt lat="45.74698529080157" lon="9.784069474913684"><ele>317.0</ele><time>2026-05-02T08:09:39Z</time></trkpt><trkpt lat="45.74702215552524" lon="9.784145462687599"><ele>317.0</ele><time>2026-05-02T08:09:40Z</time></trkpt><trkpt lat="45.74705388353651" lon="9.784227108541504"><ele>317.0</ele><time>2026-05-02T08:09:41Z</time></trkpt><trkpt lat="45.747081347363476" lon="9.784310929154621"><ele>317.0</ele><time>2026-05-02T08:09:42Z</time></trkpt><trkpt lat="45.747141624306764" lon="9.784476960244358"><ele>317.42857142857144</ele><time>2026-05-02T08:09:44Z</time></trkpt><trkpt lat="45.74717040062101" lon="9.78456125881237"><ele>317.85714285714283</ele><time>2026-05-02T08:09:45Z</time></trkpt><trkpt lat="45.747200028714936" lon="9.78464476964095"><ele>318.2857142857143</ele><time>2026-05-02T08:09:46Z</time></trkpt><trkpt lat="45.747232501457574" lon="9.784725407325674"><ele>318.7142857142857</ele><time>2026-05-02T08:09:47Z</time></trkpt><trkpt lat="45.74726511107174" lon="9.784806060983868"><ele>319.14285714285717</ele><time>2026-05-02T08:09:48Z</time></trkpt><trkpt lat="45.747297832401394" lon="9.784887568212737"><ele>319.57142857142856</ele><time>2026-05-02T08:09:49Z</time></trkpt><trkpt lat="45.747322145036904" lon="9.784975639767868"><ele>320.0</ele><time>2026-05-02T08:09:50Z</time></trkpt><trkpt lat="45.74735184857526" lon="9.78506299893371"><ele>320.0</ele><time>2026-05-02T08:09:51Z</time></trkpt><trkpt lat="45.747386076858504" lon="9.785144328797736"><ele>320.0</ele><time>2026-05-02T08:09:52Z</time></trkpt><trkpt lat="45.747424347853936" lon="9.785233930986983"><ele>320.0</ele><time>2026-05-02T08:09:53Z</time></trkpt><trkpt lat="45.74745422965068" lon="9.78531487780574"><ele>320.0</ele><time>2026-05-02T08:09:54Z</time></trkpt><trkpt lat="45.74748374709944" lon="9.78539526543599"><ele>320.0</ele><time>2026-05-02T08:09:55Z</time></trkpt><trkpt lat="45.747508463006945" lon="9.785479044563935"><ele>320.0</ele><time>2026-05-02T08:09:56Z</time></trkpt><trkpt lat="45.747541638628554" lon="9.785556170520655"><ele>320.0</ele><time>2026-05-02T08:09:57Z</time></trkpt><trkpt lat="45.74757444057894" lon="9.785635268979515"><ele>320.2857142857143</ele><time>2026-05-02T08:09:58Z</time></trkpt><trkpt lat="45.747602291109224" lon="9.785718307355495"><ele>320.57142857142856</ele><time>2026-05-02T08:09:59Z</time></trkpt><trkpt lat="45.74762940626308" lon="9.78580116604296"><ele>320.8571428571429</ele><time>2026-05-02T08:10:00Z</time></trkpt><trkpt lat="45.747655447880064" lon="9.785883432518318"><ele>321.1428571428571</ele><time>2026-05-02T08:10:01Z</time></trkpt><trkpt lat="45.74768514406087" lon="9.785965684128337"><ele>321.42857142857144</ele><time>2026-05-02T08:10:02Z</time></trkpt><trkpt lat="45.74774861943205" lon="9.786117540908535"><ele>321.7142857142857</ele><time>2026-05-02T08:10:04Z</time></trkpt><trkpt lat="45.74776993154576" lon="9.786204817361352"><ele>322.0</ele><time>2026-05-02T08:10:05Z</time></trkpt><trkpt lat="45.74782954152886" lon="9.786364510986656"><ele>322.0</ele><time>2026-05-02T08:10:07Z</time></trkpt><trkpt lat="45.74786177860643" lon="9.786444108820778"><ele>322.0</ele><time>2026-05-02T08:10:08Z</time></trkpt><trkpt lat="45.74789415101134" lon="9.786524404073768"><ele>322.0</ele><time>2026-05-02T08:10:09Z</time></trkpt><trkpt lat="45.74792683792599" lon="9.786603268659244"><ele>322.0</ele><time>2026-05-02T08:10:10Z</time></trkpt><trkpt lat="45.74795827754681" lon="9.78668692625878"><ele>322.0</ele><time>2026-05-02T08:10:11Z</time></trkpt><trkpt lat="45.74798761445265" lon="9.786767251192677"><ele>322.0</ele><time>2026-05-02T08:10:12Z</time></trkpt><trkpt lat="45.74802578016134" lon="9.786897378456954"><ele>322.0</ele><time>2026-05-02T08:10:14Z</time></trkpt><trkpt lat="45.74809725061049" lon="9.787039044635977"><ele>323.5</ele><time>2026-05-02T08:10:16Z</time></trkpt><trkpt lat="45.748137744759134" lon="9.787109785505924"><ele>325.0</ele><time>2026-05-02T08:10:17Z</time></trkpt><trkpt lat="45.748186587756976" lon="9.787171674722778"><ele>326.5</ele><time>2026-05-02T08:10:18Z</time></trkpt><trkpt lat="45.74824375771469" lon="9.78721387910597"><ele>328.0</ele><time>2026-05-02T08:10:19Z</time></trkpt><trkpt lat="45.748307820352984" lon="9.787236296370269"><ele>329.5</ele><time>2026-05-02T08:10:20Z</time></trkpt><trkpt lat="45.74837515500786" lon="9.78724519726301"><ele>331.0</ele><time>2026-05-02T08:10:21Z</time></trkpt><trkpt lat="45.74849887245524" lon="9.787232353313343"><ele>330.4</ele><time>2026-05-02T08:10:23Z</time></trkpt><trkpt lat="45.74861259753138" lon="9.787232080793087"><ele>329.8</ele><time>2026-05-02T08:10:25Z</time></trkpt><trkpt lat="45.74872066077908" lon="9.787228482197056"><ele>329.2</ele><time>2026-05-02T08:10:27Z</time></trkpt><trkpt lat="45.7488227927908" lon="9.787230958402748"><ele>328.59999999999997</ele><time>2026-05-02T08:10:29Z</time></trkpt><trkpt lat="45.74894431914284" lon="9.787238093073588"><ele>328.0</ele><time>2026-05-02T08:10:31Z</time></trkpt><trkpt lat="45.74905996041711" lon="9.787256404727414"><ele>328.0</ele><time>2026-05-02T08:10:33Z</time></trkpt><trkpt lat="45.74917013139257" lon="9.78727809015151"><ele>328.0</ele><time>2026-05-02T08:10:35Z</time></trkpt><trkpt lat="45.74926638789835" lon="9.787321673226286"><ele>328.0</ele><time>2026-05-02T08:10:37Z</time></trkpt><trkpt lat="45.7493467897024" lon="9.787384248623889"><ele>328.0</ele><time>2026-05-02T08:10:39Z</time></trkpt><trkpt lat="45.749452502324154" lon="9.78748504347503"><ele>328.0</ele><time>2026-05-02T08:10:41Z</time></trkpt><trkpt lat="45.74950979363933" lon="9.78754047890561"><ele>328.4285714285714</ele><time>2026-05-02T08:10:42Z</time></trkpt><trkpt lat="45.74956179877265" lon="9.787603192383232"><ele>328.85714285714283</ele><time>2026-05-02T08:10:43Z</time></trkpt><trkpt lat="45.74961806098829" lon="9.787658850400055"><ele>329.2857142857143</ele><time>2026-05-02T08:10:44Z</time></trkpt><trkpt lat="45.749672195951675" lon="9.787713945122338"><ele>329.71428571428567</ele><time>2026-05-02T08:10:45Z</time></trkpt><trkpt lat="45.74972342901928" lon="9.787771204585036"><ele>330.1428571428571</ele><time>2026-05-02T08:10:46Z</time></trkpt><trkpt lat="45.74977228068286" lon="9.78782874323825"><ele>330.57142857142856</ele><time>2026-05-02T08:10:47Z</time></trkpt><trkpt lat="45.7498211638714" lon="9.787887450804815"><ele>331.0</ele><time>2026-05-02T08:10:48Z</time></trkpt><trkpt lat="45.749921873132074" lon="9.787999326172406"><ele>331.0</ele><time>2026-05-02T08:10:50Z</time></trkpt><trkpt lat="45.74997262141325" lon="9.788055387565246"><ele>331.0</ele><time>2026-05-02T08:10:51Z</time></trkpt><trkpt lat="45.750071881044335" lon="9.78816680289151"><ele>331.0</ele><time>2026-05-02T08:10:53Z</time></trkpt><trkpt lat="45.75012167377187" lon="9.788224159085575"><ele>331.0</ele><time>2026-05-02T08:10:54Z</time></trkpt><trkpt lat="45.75017366793874" lon="9.788281261901542"><ele>331.0</ele><time>2026-05-02T08:10:55Z</time></trkpt><trkpt lat="45.75021582103938" lon="9.78835264597535"><ele>331.0</ele><time>2026-05-02T08:10:56Z</time></trkpt><trkpt lat="45.75027506239627" lon="9.788512532393415"><ele>331.0</ele><time>2026-05-02T08:10:58Z</time></trkpt><trkpt lat="45.75031325037432" lon="9.788589244531687"><ele>331.0</ele><time>2026-05-02T08:10:59Z</time></trkpt><trkpt lat="45.75038829125311" lon="9.788736056543874"><ele>331.0</ele><time>2026-05-02T08:11:01Z</time></trkpt><trkpt lat="45.7504267676365" lon="9.788808425217653"><ele>331.0</ele><time>2026-05-02T08:11:02Z</time></trkpt><trkpt lat="45.750472682864036" lon="9.7888751908266"><ele>331.0</ele><time>2026-05-02T08:11:03Z</time></trkpt><trkpt lat="45.750521902728764" lon="9.788939431452981"><ele>331.0</ele><time>2026-05-02T08:11:04Z</time></trkpt><trkpt lat="45.75057593167717" lon="9.788992161304066"><ele>331.0</ele><time>2026-05-02T08:11:05Z</time></trkpt><trkpt lat="45.75062380339426" lon="9.789060350426697"><ele>331.0</ele><time>2026-05-02T08:11:06Z</time></trkpt><trkpt lat="45.75072864003452" lon="9.789155545521577"><ele>331.0</ele><time>2026-05-02T08:11:08Z</time></trkpt><trkpt lat="45.7508327898884" lon="9.789245119420283"><ele>331.0</ele><time>2026-05-02T08:11:10Z</time></trkpt><trkpt lat="45.750886563890276" lon="9.789304413143471"><ele>331.0</ele><time>2026-05-02T08:11:11Z</time></trkpt><trkpt lat="45.75094035521275" lon="9.789353327521052"><ele>331.0</ele><time>2026-05-02T08:11:12Z</time></trkpt><trkpt lat="45.750998956963166" lon="9.789398068891792"><ele>331.42857142857144</ele><time>2026-05-02T08:11:13Z</time></trkpt><trkpt lat="45.7510611960327" lon="9.789433336535012"><ele>331.85714285714283</ele><time>2026-05-02T08:11:14Z</time></trkpt><trkpt lat="45.7511239653784" lon="9.78946465671001"><ele>332.2857142857143</ele><time>2026-05-02T08:11:15Z</time></trkpt><trkpt lat="45.751186879157586" lon="9.789493459149574"><ele>332.7142857142857</ele><time>2026-05-02T08:11:16Z</time></trkpt><trkpt lat="45.75124598844788" lon="9.789525934042329"><ele>333.14285714285717</ele><time>2026-05-02T08:11:17Z</time></trkpt><trkpt lat="45.75130876181883" lon="9.789558180920476"><ele>333.57142857142856</ele><time>2026-05-02T08:11:18Z</time></trkpt><trkpt lat="45.75137092016433" lon="9.789592933178607"><ele>334.0</ele><time>2026-05-02T08:11:19Z</time></trkpt><trkpt lat="45.75143402009397" lon="9.789623047034716"><ele>334.0</ele><time>2026-05-02T08:11:20Z</time></trkpt><trkpt lat="45.751495218076556" lon="9.789657962097772"><ele>334.0</ele><time>2026-05-02T08:11:21Z</time></trkpt><trkpt lat="45.75155694896919" lon="9.78968671084825"><ele>334.0</ele><time>2026-05-02T08:11:22Z</time></trkpt><trkpt lat="45.75161881999476" lon="9.789726356285223"><ele>334.0</ele><time>2026-05-02T08:11:23Z</time></trkpt><trkpt lat="45.75167809441661" lon="9.789759031036924"><ele>334.0</ele><time>2026-05-02T08:11:24Z</time></trkpt><trkpt lat="45.751735421341294" lon="9.789807275051315"><ele>334.0</ele><time>2026-05-02T08:11:25Z</time></trkpt><trkpt lat="45.751797079183945" lon="9.789846720576023"><ele>334.0</ele><time>2026-05-02T08:11:26Z</time></trkpt><trkpt lat="45.75185633008296" lon="9.78988402376184"><ele>333.0</ele><time>2026-05-02T08:11:27Z</time></trkpt><trkpt lat="45.751915572452546" lon="9.789921764101164"><ele>332.0</ele><time>2026-05-02T08:11:28Z</time></trkpt><trkpt lat="45.75197980639682" lon="9.78995529194068"><ele>331.0</ele><time>2026-05-02T08:11:29Z</time></trkpt><trkpt lat="45.75204137015108" lon="9.789988756434633"><ele>330.0</ele><time>2026-05-02T08:11:30Z</time></trkpt><trkpt lat="45.752101976886735" lon="9.79003355997676"><ele>329.0</ele><time>2026-05-02T08:11:31Z</time></trkpt><trkpt lat="45.752156334739226" lon="9.79008429731779"><ele>328.0</ele><time>2026-05-02T08:11:32Z</time></trkpt><trkpt lat="45.75220695163183" lon="9.790148922327091"><ele>327.0</ele><time>2026-05-02T08:11:33Z</time></trkpt><trkpt lat="45.75224561869413" lon="9.790228526094998"><ele>327.0</ele><time>2026-05-02T08:11:34Z</time></trkpt><trkpt lat="45.7522747058193" lon="9.790314748190239"><ele>327.0</ele><time>2026-05-02T08:11:35Z</time></trkpt><trkpt lat="45.752299363009165" lon="9.790405124220852"><ele>327.0</ele><time>2026-05-02T08:11:36Z</time></trkpt><trkpt lat="45.75231798372243" lon="9.790494798858393"><ele>327.0</ele><time>2026-05-02T08:11:37Z</time></trkpt><trkpt lat="45.75234231312783" lon="9.79058305543455"><ele>327.0</ele><time>2026-05-02T08:11:38Z</time></trkpt><trkpt lat="45.75235534789901" lon="9.790675864066785"><ele>327.0</ele><time>2026-05-02T08:11:39Z</time></trkpt><trkpt lat="45.752384603027366" lon="9.790761234154164"><ele>327.0</ele><time>2026-05-02T08:11:40Z</time></trkpt><trkpt lat="45.75239979888413" lon="9.790853491126667"><ele>327.0</ele><time>2026-05-02T08:11:41Z</time></trkpt><trkpt lat="45.75241710144006" lon="9.790943204710828"><ele>327.0</ele><time>2026-05-02T08:11:42Z</time></trkpt><trkpt lat="45.75243607837454" lon="9.79103675726666"><ele>327.0</ele><time>2026-05-02T08:11:43Z</time></trkpt><trkpt lat="45.752451139457904" lon="9.791125942621504"><ele>327.0</ele><time>2026-05-02T08:11:44Z</time></trkpt><trkpt lat="45.75247156889909" lon="9.791222121946243"><ele>327.0</ele><time>2026-05-02T08:11:45Z</time></trkpt><trkpt lat="45.752508714035535" lon="9.791297287126728"><ele>327.0</ele><time>2026-05-02T08:11:46Z</time></trkpt><trkpt lat="45.752548331972356" lon="9.791373849473834"><ele>327.0</ele><time>2026-05-02T08:11:47Z</time></trkpt><trkpt lat="45.7525875026149" lon="9.79144969848536"><ele>327.0</ele><time>2026-05-02T08:11:48Z</time></trkpt><trkpt lat="45.752626923824984" lon="9.7915245936519"><ele>327.0</ele><time>2026-05-02T08:11:49Z</time></trkpt><trkpt lat="45.75266856350852" lon="9.791597303216516"><ele>327.0</ele><time>2026-05-02T08:11:50Z</time></trkpt><trkpt lat="45.752714295986806" lon="9.791660423515822"><ele>327.0</ele><time>2026-05-02T08:11:51Z</time></trkpt><trkpt lat="45.75277042787816" lon="9.79172215654767"><ele>327.0</ele><time>2026-05-02T08:11:52Z</time></trkpt><trkpt lat="45.75281579991499" lon="9.791785248443231"><ele>327.0</ele><time>2026-05-02T08:11:53Z</time></trkpt><trkpt lat="45.752858146095235" lon="9.791852961059156"><ele>327.0</ele><time>2026-05-02T08:11:54Z</time></trkpt><trkpt lat="45.752911498916355" lon="9.791915574240535"><ele>327.0</ele><time>2026-05-02T08:11:55Z</time></trkpt><trkpt lat="45.75296076939249" lon="9.79197764814008"><ele>327.0</ele><time>2026-05-02T08:11:56Z</time></trkpt><trkpt lat="45.75300957643015" lon="9.792038930644864"><ele>327.0</ele><time>2026-05-02T08:11:57Z</time></trkpt><trkpt lat="45.753060233049055" lon="9.792098754927181"><ele>327.0</ele><time>2026-05-02T08:11:58Z</time></trkpt><trkpt lat="45.753110407570674" lon="9.792162065849185"><ele>327.0</ele><time>2026-05-02T08:11:59Z</time></trkpt><trkpt lat="45.75315694073234" lon="9.792228608483361"><ele>327.0</ele><time>2026-05-02T08:12:00Z</time></trkpt><trkpt lat="45.7532609390796" lon="9.792341554895234"><ele>327.0</ele><time>2026-05-02T08:12:02Z</time></trkpt><trkpt lat="45.753299935177694" lon="9.792415263125726"><ele>327.0</ele><time>2026-05-02T08:12:03Z</time></trkpt><trkpt lat="45.75339817172767" lon="9.792533610926254"><ele>327.0</ele><time>2026-05-02T08:12:05Z</time></trkpt><trkpt lat="45.753450476295434" lon="9.792596051002509"><ele>327.0</ele><time>2026-05-02T08:12:06Z</time></trkpt><trkpt lat="45.75349946132833" lon="9.792660274221308"><ele>327.0</ele><time>2026-05-02T08:12:07Z</time></trkpt><trkpt lat="45.753544821700515" lon="9.79272719508985"><ele>327.0</ele><time>2026-05-02T08:12:08Z</time></trkpt><trkpt lat="45.7535915009826" lon="9.792794190382006"><ele>326.3333333333333</ele><time>2026-05-02T08:12:09Z</time></trkpt><trkpt lat="45.75363482406457" lon="9.792861503031974"><ele>325.6666666666667</ele><time>2026-05-02T08:12:10Z</time></trkpt><trkpt lat="45.75367615788863" lon="9.792934200861904"><ele>325.0</ele><time>2026-05-02T08:12:11Z</time></trkpt><trkpt lat="45.7537173495133" lon="9.793007262122968"><ele>324.33333333333337</ele><time>2026-05-02T08:12:12Z</time></trkpt><trkpt lat="45.75375946211727" lon="9.793075635306757"><ele>323.6666666666667</ele><time>2026-05-02T08:12:13Z</time></trkpt><trkpt lat="45.75383838458403" lon="9.793226915258101"><ele>323.0</ele><time>2026-05-02T08:12:15Z</time></trkpt><trkpt lat="45.75390450461638" lon="9.793388261382052"><ele>325.59999999999997</ele><time>2026-05-02T08:12:17Z</time></trkpt><trkpt lat="45.75398129063944" lon="9.79353193053939"><ele>328.2</ele><time>2026-05-02T08:12:19Z</time></trkpt><trkpt lat="45.754029101931536" lon="9.793603905118731"><ele>330.8</ele><time>2026-05-02T08:12:20Z</time></trkpt><trkpt lat="45.7541199262568" lon="9.793735983523908"><ele>333.4</ele><time>2026-05-02T08:12:22Z</time></trkpt><trkpt lat="45.75416335054147" lon="9.793806756939711"><ele>336.0</ele><time>2026-05-02T08:12:23Z</time></trkpt><trkpt lat="45.7542111564696" lon="9.793869342644816"><ele>336.0</ele><time>2026-05-02T08:12:24Z</time></trkpt><trkpt lat="45.75429985842171" lon="9.79400127707473"><ele>336.0</ele><time>2026-05-02T08:12:26Z</time></trkpt><trkpt lat="45.754345711152325" lon="9.79406674191861"><ele>336.0</ele><time>2026-05-02T08:12:27Z</time></trkpt><trkpt lat="45.75438606765038" lon="9.794136808822952"><ele>336.0</ele><time>2026-05-02T08:12:28Z</time></trkpt><trkpt lat="45.75442625235804" lon="9.794214715202802"><ele>336.0</ele><time>2026-05-02T08:12:29Z</time></trkpt><trkpt lat="45.754465327744185" lon="9.794293858246451"><ele>336.0</ele><time>2026-05-02T08:12:30Z</time></trkpt><trkpt lat="45.754499798638896" lon="9.794374974275277"><ele>334.42857142857144</ele><time>2026-05-02T08:12:31Z</time></trkpt><trkpt lat="45.75453292298382" lon="9.794453887135752"><ele>332.8571428571429</ele><time>2026-05-02T08:12:32Z</time></trkpt><trkpt lat="45.754555743605444" lon="9.794538341277411"><ele>331.2857142857143</ele><time>2026-05-02T08:12:33Z</time></trkpt><trkpt lat="45.75458144611899" lon="9.794621859424408"><ele>329.7142857142857</ele><time>2026-05-02T08:12:34Z</time></trkpt><trkpt lat="45.75461390486181" lon="9.794704615645566"><ele>328.14285714285717</ele><time>2026-05-02T08:12:35Z</time></trkpt><trkpt lat="45.75464853936133" lon="9.794783272650816"><ele>326.57142857142856</ele><time>2026-05-02T08:12:36Z</time></trkpt><trkpt lat="45.75468781344831" lon="9.794855144915482"><ele>325.0</ele><time>2026-05-02T08:12:37Z</time></trkpt><trkpt lat="45.75473027960577" lon="9.794929921191262"><ele>325.0</ele><time>2026-05-02T08:12:38Z</time></trkpt><trkpt lat="45.754771599786146" lon="9.795002974291727"><ele>325.0</ele><time>2026-05-02T08:12:39Z</time></trkpt><trkpt lat="45.75481058681305" lon="9.795075745138185"><ele>325.0</ele><time>2026-05-02T08:12:40Z</time></trkpt><trkpt lat="45.754860466694964" lon="9.795156210264517"><ele>325.0</ele><time>2026-05-02T08:12:41Z</time></trkpt><trkpt lat="45.75491891770109" lon="9.79531303016426"><ele>325.0</ele><time>2026-05-02T08:12:43Z</time></trkpt><trkpt lat="45.754954176642215" lon="9.795389783600173"><ele>325.0</ele><time>2026-05-02T08:12:44Z</time></trkpt><trkpt lat="45.754981988181555" lon="9.795474040987877"><ele>325.4285714285714</ele><time>2026-05-02T08:12:45Z</time></trkpt><trkpt lat="45.75501002574924" lon="9.795557538024244"><ele>325.8571428571429</ele><time>2026-05-02T08:12:46Z</time></trkpt><trkpt lat="45.755033218168876" lon="9.795643711748978"><ele>326.2857142857143</ele><time>2026-05-02T08:12:47Z</time></trkpt><trkpt lat="45.75506138390241" lon="9.795731912755986"><ele>326.71428571428567</ele><time>2026-05-02T08:12:48Z</time></trkpt><trkpt lat="45.755084618800886" lon="9.795815967642946"><ele>327.1428571428571</ele><time>2026-05-02T08:12:49Z</time></trkpt><trkpt lat="45.75510978878043" lon="9.795904844795249"><ele>327.57142857142856</ele><time>2026-05-02T08:12:50Z</time></trkpt><trkpt lat="45.755137823835234" lon="9.795988896438242"><ele>328.0</ele><time>2026-05-02T08:12:51Z</time></trkpt><trkpt lat="45.75516416806121" lon="9.796075864408667"><ele>326.79999999999995</ele><time>2026-05-02T08:12:52Z</time></trkpt><trkpt lat="45.755218727385945" lon="9.79623510859422"><ele>325.6</ele><time>2026-05-02T08:12:54Z</time></trkpt><trkpt lat="45.75526654065849" lon="9.796400990952524"><ele>324.4</ele><time>2026-05-02T08:12:56Z</time></trkpt><trkpt lat="45.75531559412401" lon="9.796563231740345"><ele>323.20000000000005</ele><time>2026-05-02T08:12:58Z</time></trkpt><trkpt lat="45.75534193874586" lon="9.796647043332262"><ele>322.0</ele><time>2026-05-02T08:12:59Z</time></trkpt><trkpt lat="45.75536778599001" lon="9.796730100819975"><ele>322.0</ele><time>2026-05-02T08:13:00Z</time></trkpt><trkpt lat="45.75539293155955" lon="9.796815920431056"><ele>322.0</ele><time>2026-05-02T08:13:01Z</time></trkpt><trkpt lat="45.75541884762279" lon="9.796900971228265"><ele>322.0</ele><time>2026-05-02T08:13:02Z</time></trkpt><trkpt lat="45.75547881523046" lon="9.797063697821796"><ele>322.0</ele><time>2026-05-02T08:13:04Z</time></trkpt><trkpt lat="45.75553383589621" lon="9.79722977118236"><ele>322.0</ele><time>2026-05-02T08:13:06Z</time></trkpt><trkpt lat="45.75558422899346" lon="9.797397460571371"><ele>322.6</ele><time>2026-05-02T08:13:08Z</time></trkpt><trkpt lat="45.755632699773976" lon="9.79755794620912"><ele>323.20000000000005</ele><time>2026-05-02T08:13:10Z</time></trkpt><trkpt lat="45.755675680538594" lon="9.797705768544372"><ele>323.8</ele><time>2026-05-02T08:13:12Z</time></trkpt><trkpt lat="45.75572056238413" lon="9.797842929375527"><ele>324.4</ele><time>2026-05-02T08:13:14Z</time></trkpt><trkpt lat="45.75575424408315" lon="9.797974124631455"><ele>325.0</ele><time>2026-05-02T08:13:16Z</time></trkpt><trkpt lat="45.7558158791896" lon="9.798063390349332"><ele>324.8333333333333</ele><time>2026-05-02T08:13:18Z</time></trkpt><trkpt lat="45.75591800044384" lon="9.79805293732646"><ele>324.66666666666663</ele><time>2026-05-02T08:13:20Z</time></trkpt><trkpt lat="45.7559765261593" lon="9.798009348533096"><ele>324.5</ele><time>2026-05-02T08:13:21Z</time></trkpt><trkpt lat="45.756033951304374" lon="9.797960935941186"><ele>324.3333333333333</ele><time>2026-05-02T08:13:22Z</time></trkpt><trkpt lat="45.75608990442305" lon="9.797909115549391"><ele>324.1666666666667</ele><time>2026-05-02T08:13:23Z</time></trkpt><trkpt lat="45.75619741695033" lon="9.79781101996636"><ele>324.0</ele><time>2026-05-02T08:13:25Z</time></trkpt><trkpt lat="45.756306007255866" lon="9.797711893742465"><ele>324.125</ele><time>2026-05-02T08:13:27Z</time></trkpt><trkpt lat="45.756359537939765" lon="9.797663768350404"><ele>324.25</ele><time>2026-05-02T08:13:28Z</time></trkpt><trkpt lat="45.75641333892755" lon="9.797616182024093"><ele>324.375</ele><time>2026-05-02T08:13:29Z</time></trkpt><trkpt lat="45.75646897622079" lon="9.797570105136018"><ele>324.5</ele><time>2026-05-02T08:13:30Z</time></trkpt><trkpt lat="45.75652256874569" lon="9.797521840989509"><ele>324.625</ele><time>2026-05-02T08:13:31Z</time></trkpt><trkpt lat="45.7565799643205" lon="9.797483590994062"><ele>324.75</ele><time>2026-05-02T08:13:32Z</time></trkpt><trkpt lat="45.75663409074373" lon="9.797433165761738"><ele>324.875</ele><time>2026-05-02T08:13:33Z</time></trkpt><trkpt lat="45.75668861465029" lon="9.797387825217427"><ele>325.0</ele><time>2026-05-02T08:13:34Z</time></trkpt><trkpt lat="45.75674628821741" lon="9.797337534045623"><ele>325.0</ele><time>2026-05-02T08:13:35Z</time></trkpt><trkpt lat="45.75680118718817" lon="9.797285357857234"><ele>325.0</ele><time>2026-05-02T08:13:36Z</time></trkpt><trkpt lat="45.756855832974814" lon="9.79722805625329"><ele>325.0</ele><time>2026-05-02T08:13:37Z</time></trkpt><trkpt lat="45.756910990509084" lon="9.797179564869076"><ele>325.0</ele><time>2026-05-02T08:13:38Z</time></trkpt><trkpt lat="45.75696700770335" lon="9.79713044786882"><ele>325.0</ele><time>2026-05-02T08:13:39Z</time></trkpt><trkpt lat="45.757020478986014" lon="9.79707772507699"><ele>325.0</ele><time>2026-05-02T08:13:40Z</time></trkpt><trkpt lat="45.757128892582124" lon="9.796983521379529"><ele>325.3333333333333</ele><time>2026-05-02T08:13:42Z</time></trkpt><trkpt lat="45.75723276713842" lon="9.79688781792105"><ele>325.66666666666663</ele><time>2026-05-02T08:13:44Z</time></trkpt><trkpt lat="45.75734881265922" lon="9.796846255166393"><ele>326.0</ele><time>2026-05-02T08:13:46Z</time></trkpt><trkpt lat="45.75740521792814" lon="9.796895177088395"><ele>326.3333333333333</ele><time>2026-05-02T08:13:47Z</time></trkpt><trkpt lat="45.75744688298033" lon="9.796970553715028"><ele>326.6666666666667</ele><time>2026-05-02T08:13:48Z</time></trkpt><trkpt lat="45.75748948333561" lon="9.797037607441663"><ele>327.0</ele><time>2026-05-02T08:13:49Z</time></trkpt><trkpt lat="45.75756327685578" lon="9.797188410377176"><ele>327.0</ele><time>2026-05-02T08:13:51Z</time></trkpt><trkpt lat="45.757635203308155" lon="9.797337574700084"><ele>327.0</ele><time>2026-05-02T08:13:53Z</time></trkpt><trkpt lat="45.75767442217131" lon="9.79741137615777"><ele>327.0</ele><time>2026-05-02T08:13:54Z</time></trkpt><trkpt lat="45.757753896027246" lon="9.797551060423979"><ele>327.0</ele><time>2026-05-02T08:13:56Z</time></trkpt><trkpt lat="45.757796444508315" lon="9.79761931522476"><ele>327.0</ele><time>2026-05-02T08:13:57Z</time></trkpt><trkpt lat="45.757841801311365" lon="9.797682740089423"><ele>327.0</ele><time>2026-05-02T08:13:58Z</time></trkpt><trkpt lat="45.757892767696774" lon="9.797738929544716"><ele>327.6</ele><time>2026-05-02T08:13:59Z</time></trkpt><trkpt lat="45.75800055146104" lon="9.797795527784736"><ele>328.20000000000005</ele><time>2026-05-02T08:14:01Z</time></trkpt><trkpt lat="45.758073742797" lon="9.797806416865797"><ele>328.8</ele><time>2026-05-02T08:14:02Z</time></trkpt><trkpt lat="45.75818957952026" lon="9.797755343992447"><ele>329.4</ele><time>2026-05-02T08:14:04Z</time></trkpt><trkpt lat="45.75830292260462" lon="9.797717718346437"><ele>330.0</ele><time>2026-05-02T08:14:06Z</time></trkpt><trkpt lat="45.75841801770853" lon="9.797753844987959"><ele>330.00000000000006</ele><time>2026-05-02T08:14:08Z</time></trkpt><trkpt lat="45.75846545497729" lon="9.797813693702368"><ele>330.0</ele><time>2026-05-02T08:14:09Z</time></trkpt><trkpt lat="45.75850261315089" lon="9.797891193082643"><ele>330.0</ele><time>2026-05-02T08:14:10Z</time></trkpt><trkpt lat="45.758541888763126" lon="9.797970124192705"><ele>330.0</ele><time>2026-05-02T08:14:11Z</time></trkpt><trkpt lat="45.75857970117701" lon="9.79804237196322"><ele>330.0</ele><time>2026-05-02T08:14:12Z</time></trkpt><trkpt lat="45.7586228692927" lon="9.79811593802132"><ele>330.00000000000006</ele><time>2026-05-02T08:14:13Z</time></trkpt><trkpt lat="45.7586631972207" lon="9.798190597678103"><ele>330.0</ele><time>2026-05-02T08:14:14Z</time></trkpt><trkpt lat="45.75870148303521" lon="9.798263864183289"><ele>330.28571428571433</ele><time>2026-05-02T08:14:15Z</time></trkpt><trkpt lat="45.75874549268494" lon="9.798337073557953"><ele>330.57142857142856</ele><time>2026-05-02T08:14:16Z</time></trkpt><trkpt lat="45.758789001563585" lon="9.798407899593586"><ele>330.8571428571429</ele><time>2026-05-02T08:14:17Z</time></trkpt><trkpt lat="45.758833950017305" lon="9.798476049864949"><ele>331.14285714285717</ele><time>2026-05-02T08:14:18Z</time></trkpt><trkpt lat="45.75887890172208" lon="9.798548361701519"><ele>331.42857142857144</ele><time>2026-05-02T08:14:19Z</time></trkpt><trkpt lat="45.758920864296975" lon="9.798620514739786"><ele>331.7142857142857</ele><time>2026-05-02T08:14:20Z</time></trkpt><trkpt lat="45.758958020058024" lon="9.79870182162124"><ele>332.0</ele><time>2026-05-02T08:14:21Z</time></trkpt><trkpt lat="45.75900044457176" lon="9.79877250802167"><ele>332.0</ele><time>2026-05-02T08:14:22Z</time></trkpt><trkpt lat="45.75904053770961" lon="9.798850063872813"><ele>332.0</ele><time>2026-05-02T08:14:23Z</time></trkpt><trkpt lat="45.75908755028219" lon="9.798919381251968"><ele>332.0</ele><time>2026-05-02T08:14:24Z</time></trkpt><trkpt lat="45.75913008764482" lon="9.798992046599318"><ele>332.0</ele><time>2026-05-02T08:14:25Z</time></trkpt><trkpt lat="45.759173404362116" lon="9.799064419212286"><ele>332.0</ele><time>2026-05-02T08:14:26Z</time></trkpt><trkpt lat="45.75921603839627" lon="9.799136816790933"><ele>332.0</ele><time>2026-05-02T08:14:27Z</time></trkpt><trkpt lat="45.759257546909055" lon="9.799208252254463"><ele>332.0</ele><time>2026-05-02T08:14:28Z</time></trkpt><trkpt lat="45.75930266485577" lon="9.799280977341501"><ele>332.2857142857143</ele><time>2026-05-02T08:14:29Z</time></trkpt><trkpt lat="45.75934404649349" lon="9.799354358624278"><ele>332.5714285714286</ele><time>2026-05-02T08:14:30Z</time></trkpt><trkpt lat="45.75938612346343" lon="9.799427584553856"><ele>332.8571428571429</ele><time>2026-05-02T08:14:31Z</time></trkpt><trkpt lat="45.75942756541204" lon="9.79950098161018"><ele>333.1428571428571</ele><time>2026-05-02T08:14:32Z</time></trkpt><trkpt lat="45.759468080070654" lon="9.799576154363349"><ele>333.42857142857144</ele><time>2026-05-02T08:14:33Z</time></trkpt><trkpt lat="45.75950990228708" lon="9.799652200687106"><ele>333.7142857142857</ele><time>2026-05-02T08:14:34Z</time></trkpt><trkpt lat="45.75955157254215" lon="9.799725336085094"><ele>334.0</ele><time>2026-05-02T08:14:35Z</time></trkpt><trkpt lat="45.75959396799618" lon="9.799798099327337"><ele>334.0</ele><time>2026-05-02T08:14:36Z</time></trkpt><trkpt lat="45.75963484196169" lon="9.79986877078959"><ele>334.0</ele><time>2026-05-02T08:14:37Z</time></trkpt><trkpt lat="45.75967747157049" lon="9.799941248683904"><ele>334.0</ele><time>2026-05-02T08:14:38Z</time></trkpt><trkpt lat="45.75972172941497" lon="9.800012641309419"><ele>334.0</ele><time>2026-05-02T08:14:39Z</time></trkpt><trkpt lat="45.759762275740016" lon="9.80008347864336"><ele>334.0</ele><time>2026-05-02T08:14:40Z</time></trkpt><trkpt lat="45.75980564309141" lon="9.800153335630156"><ele>334.0</ele><time>2026-05-02T08:14:41Z</time></trkpt><trkpt lat="45.75984638535801" lon="9.800224173412442"><ele>334.0</ele><time>2026-05-02T08:14:42Z</time></trkpt><trkpt lat="45.75989098165468" lon="9.800293367594348"><ele>333.4</ele><time>2026-05-02T08:14:43Z</time></trkpt><trkpt lat="45.759933312390366" lon="9.800365219991527"><ele>332.79999999999995</ele><time>2026-05-02T08:14:44Z</time></trkpt><trkpt lat="45.7600147599346" lon="9.800507683597472"><ele>332.20000000000005</ele><time>2026-05-02T08:14:46Z</time></trkpt><trkpt lat="45.76005612662705" lon="9.80057860086851"><ele>331.6</ele><time>2026-05-02T08:14:47Z</time></trkpt><trkpt lat="45.76010806308702" lon="9.800653453511439"><ele>331.0</ele><time>2026-05-02T08:14:48Z</time></trkpt><trkpt lat="45.76018462791707" lon="9.80079285593801"><ele>331.0</ele><time>2026-05-02T08:14:50Z</time></trkpt><trkpt lat="45.76023005415112" lon="9.800869699620673"><ele>331.0</ele><time>2026-05-02T08:14:51Z</time></trkpt><trkpt lat="45.76030794220418" lon="9.801010845500917"><ele>331.0</ele><time>2026-05-02T08:14:53Z</time></trkpt><trkpt lat="45.760348588644916" lon="9.801083971214391"><ele>331.0</ele><time>2026-05-02T08:14:54Z</time></trkpt><trkpt lat="45.76038865473353" lon="9.80115363641266"><ele>331.0</ele><time>2026-05-02T08:14:55Z</time></trkpt><trkpt lat="45.76042807713523" lon="9.801226438802107"><ele>331.0</ele><time>2026-05-02T08:14:56Z</time></trkpt><trkpt lat="45.76046977125548" lon="9.801297145342652"><ele>331.0</ele><time>2026-05-02T08:14:57Z</time></trkpt><trkpt lat="45.76055238667694" lon="9.801433857639331"><ele>331.0</ele><time>2026-05-02T08:14:59Z</time></trkpt><trkpt lat="45.76063457972372" lon="9.801575866813826"><ele>331.0</ele><time>2026-05-02T08:15:01Z</time></trkpt><trkpt lat="45.76071707251935" lon="9.801715620772272"><ele>331.0</ele><time>2026-05-02T08:15:03Z</time></trkpt><trkpt lat="45.760762041582176" lon="9.80178669463058"><ele>330.66666666666663</ele><time>2026-05-02T08:15:04Z</time></trkpt><trkpt lat="45.760838862918924" lon="9.801926308092233"><ele>330.3333333333333</ele><time>2026-05-02T08:15:06Z</time></trkpt><trkpt lat="45.76088552721152" lon="9.801997244121194"><ele>330.0</ele><time>2026-05-02T08:15:07Z</time></trkpt><trkpt lat="45.76092525156655" lon="9.80207052524687"><ele>329.6666666666667</ele><time>2026-05-02T08:15:08Z</time></trkpt><trkpt lat="45.761009671986045" lon="9.802205642287408"><ele>329.33333333333337</ele><time>2026-05-02T08:15:10Z</time></trkpt><trkpt lat="45.761051538201386" lon="9.80227504752967"><ele>329.0</ele><time>2026-05-02T08:15:11Z</time></trkpt><trkpt lat="45.76109278037446" lon="9.802345751413966"><ele>329.6666666666667</ele><time>2026-05-02T08:15:12Z</time></trkpt><trkpt lat="45.761172965018346" lon="9.802487758480089"><ele>330.33333333333337</ele><time>2026-05-02T08:15:14Z</time></trkpt><trkpt lat="45.76121537484799" lon="9.80255756301591"><ele>331.0</ele><time>2026-05-02T08:15:15Z</time></trkpt><trkpt lat="45.76125712714835" lon="9.802628883377972"><ele>331.6666666666667</ele><time>2026-05-02T08:15:16Z</time></trkpt><trkpt lat="45.761299050625816" lon="9.802696276703847"><ele>332.3333333333333</ele><time>2026-05-02T08:15:17Z</time></trkpt><trkpt lat="45.76134147612671" lon="9.802767183484557"><ele>333.0</ele><time>2026-05-02T08:15:18Z</time></trkpt><trkpt lat="45.76142437315925" lon="9.802905018990623"><ele>333.0</ele><time>2026-05-02T08:15:20Z</time></trkpt><trkpt lat="45.761464343291244" lon="9.802975227484296"><ele>333.0</ele><time>2026-05-02T08:15:21Z</time></trkpt><trkpt lat="45.76150530847651" lon="9.803045064084664"><ele>333.0</ele><time>2026-05-02T08:15:22Z</time></trkpt><trkpt lat="45.76154479058917" lon="9.80311872995314"><ele>333.0</ele><time>2026-05-02T08:15:23Z</time></trkpt><trkpt lat="45.76158738528248" lon="9.80318522753916"><ele>333.0</ele><time>2026-05-02T08:15:24Z</time></trkpt><trkpt lat="45.76162997268487" lon="9.80325324150286"><ele>333.0</ele><time>2026-05-02T08:15:25Z</time></trkpt><trkpt lat="45.76166968396564" lon="9.80332452589642"><ele>333.0</ele><time>2026-05-02T08:15:26Z</time></trkpt><trkpt lat="45.76171312323185" lon="9.803393783371748"><ele>333.0</ele><time>2026-05-02T08:15:27Z</time></trkpt><trkpt lat="45.7617525940711" lon="9.80346501223593"><ele>333.1666666666667</ele><time>2026-05-02T08:15:28Z</time></trkpt><trkpt lat="45.76179643993848" lon="9.803532671349167"><ele>333.3333333333333</ele><time>2026-05-02T08:15:29Z</time></trkpt><trkpt lat="45.76188040155625" lon="9.80366763419185"><ele>333.5</ele><time>2026-05-02T08:15:31Z</time></trkpt><trkpt lat="45.76192587113621" lon="9.80373244453734"><ele>333.66666666666663</ele><time>2026-05-02T08:15:32Z</time></trkpt><trkpt lat="45.76196616164604" lon="9.803805293119668"><ele>333.8333333333333</ele><time>2026-05-02T08:15:33Z</time></trkpt><trkpt lat="45.76204733878921" lon="9.80394645458516"><ele>334.0</ele><time>2026-05-02T08:15:35Z</time></trkpt><trkpt lat="45.76208793076306" lon="9.804015821627786"><ele>334.4</ele><time>2026-05-02T08:15:36Z</time></trkpt><trkpt lat="45.76213005370074" lon="9.804086296757449"><ele>334.79999999999995</ele><time>2026-05-02T08:15:37Z</time></trkpt><trkpt lat="45.76221556758162" lon="9.804223954441468"><ele>335.20000000000005</ele><time>2026-05-02T08:15:39Z</time></trkpt><trkpt lat="45.7622936023223" lon="9.804363024326193"><ele>335.6</ele><time>2026-05-02T08:15:41Z</time></trkpt><trkpt lat="45.76233383180956" lon="9.804434050359168"><ele>336.0</ele><time>2026-05-02T08:15:42Z</time></trkpt><trkpt lat="45.76241463858658" lon="9.80457262251786"><ele>336.0</ele><time>2026-05-02T08:15:44Z</time></trkpt><trkpt lat="45.76245578347103" lon="9.804641519517254"><ele>336.0</ele><time>2026-05-02T08:15:45Z</time></trkpt><trkpt lat="45.76249556098436" lon="9.80471736721744"><ele>336.0</ele><time>2026-05-02T08:15:46Z</time></trkpt><trkpt lat="45.7625680939965" lon="9.804845891258914"><ele>336.0</ele><time>2026-05-02T08:15:48Z</time></trkpt><trkpt lat="45.76261605256016" lon="9.804924152920353"><ele>336.0</ele><time>2026-05-02T08:15:49Z</time></trkpt><trkpt lat="45.76269822020075" lon="9.805058321609549"><ele>336.0</ele><time>2026-05-02T08:15:51Z</time></trkpt><trkpt lat="45.76274012485445" lon="9.80513110922104"><ele>336.14285714285717</ele><time>2026-05-02T08:15:52Z</time></trkpt><trkpt lat="45.76281891422038" lon="9.805275363642089"><ele>336.2857142857143</ele><time>2026-05-02T08:15:54Z</time></trkpt><trkpt lat="45.762858956896196" lon="9.805345323107973"><ele>336.42857142857144</ele><time>2026-05-02T08:15:55Z</time></trkpt><trkpt lat="45.76289956892976" lon="9.805417120814646"><ele>336.57142857142856</ele><time>2026-05-02T08:15:56Z</time></trkpt><trkpt lat="45.762941926451326" lon="9.805487434333223"><ele>336.7142857142857</ele><time>2026-05-02T08:15:57Z</time></trkpt><trkpt lat="45.76298318905322" lon="9.805557915235706"><ele>336.8571428571429</ele><time>2026-05-02T08:15:58Z</time></trkpt><trkpt lat="45.76302417678286" lon="9.805628269707256"><ele>337.0</ele><time>2026-05-02T08:15:59Z</time></trkpt><trkpt lat="45.76310672108562" lon="9.805765584821666"><ele>337.0</ele><time>2026-05-02T08:16:01Z</time></trkpt><trkpt lat="45.76314717074973" lon="9.80583646718487"><ele>337.0</ele><time>2026-05-02T08:16:02Z</time></trkpt><trkpt lat="45.763187484138825" lon="9.805906387325566"><ele>337.0</ele><time>2026-05-02T08:16:03Z</time></trkpt><trkpt lat="45.76326985182495" lon="9.806050926742131"><ele>337.0</ele><time>2026-05-02T08:16:05Z</time></trkpt><trkpt lat="45.763353864454196" lon="9.806184997306463"><ele>337.0</ele><time>2026-05-02T08:16:07Z</time></trkpt><trkpt lat="45.76343585465955" lon="9.806326394566188"><ele>337.0</ele><time>2026-05-02T08:16:09Z</time></trkpt><trkpt lat="45.76347499869417" lon="9.80639840738147"><ele>337.0</ele><time>2026-05-02T08:16:10Z</time></trkpt><trkpt lat="45.763556985943794" lon="9.806537169045805"><ele>337.0</ele><time>2026-05-02T08:16:12Z</time></trkpt><trkpt lat="45.7636359822335" lon="9.80666489725693"><ele>337.0</ele><time>2026-05-02T08:16:14Z</time></trkpt><trkpt lat="45.76368278273656" lon="9.806739718616567"><ele>337.0</ele><time>2026-05-02T08:16:15Z</time></trkpt><trkpt lat="45.763772901248466" lon="9.806864869472722"><ele>337.8</ele><time>2026-05-02T08:16:17Z</time></trkpt><trkpt lat="45.763808397928955" lon="9.806944766238338"><ele>338.6</ele><time>2026-05-02T08:16:18Z</time></trkpt><trkpt lat="45.76388712939266" lon="9.807084811579086"><ele>339.40000000000003</ele><time>2026-05-02T08:16:20Z</time></trkpt><trkpt lat="45.76397069696913" lon="9.807224763813666"><ele>340.20000000000005</ele><time>2026-05-02T08:16:22Z</time></trkpt><trkpt lat="45.76401078553925" lon="9.807297994253885"><ele>341.0</ele><time>2026-05-02T08:16:23Z</time></trkpt><trkpt lat="45.76408905054747" lon="9.807430666046644"><ele>341.0</ele><time>2026-05-02T08:16:25Z</time></trkpt><trkpt lat="45.76413587658589" lon="9.807498766538103"><ele>341.0</ele><time>2026-05-02T08:16:26Z</time></trkpt><trkpt lat="45.76423175431536" lon="9.80763399231385"><ele>341.0</ele><time>2026-05-02T08:16:28Z</time></trkpt><trkpt lat="45.76428770269119" lon="9.807722479310899"><ele>341.0</ele><time>2026-05-02T08:16:29Z</time></trkpt><trkpt lat="45.76436739138924" lon="9.807793838947319"><ele>341.0</ele><time>2026-05-02T08:16:31Z</time></trkpt><trkpt lat="45.764419206769055" lon="9.807855420715295"><ele>341.0</ele><time>2026-05-02T08:16:32Z</time></trkpt><trkpt lat="45.76451724469927" lon="9.807953415740883"><ele>341.33333333333337</ele><time>2026-05-02T08:16:34Z</time></trkpt><trkpt lat="45.76457470237661" lon="9.807997593366466"><ele>341.6666666666667</ele><time>2026-05-02T08:16:35Z</time></trkpt><trkpt lat="45.764677661236014" lon="9.808088682553333"><ele>342.0</ele><time>2026-05-02T08:16:37Z</time></trkpt><trkpt lat="45.76473970731052" lon="9.808119119679969"><ele>342.3333333333333</ele><time>2026-05-02T08:16:38Z</time></trkpt><trkpt lat="45.76484839041305" lon="9.808193946875079"><ele>342.66666666666663</ele><time>2026-05-02T08:16:40Z</time></trkpt><trkpt lat="45.76491028071888" lon="9.808227380169788"><ele>343.0</ele><time>2026-05-02T08:16:41Z</time></trkpt><trkpt lat="45.765023251241544" lon="9.808281795258106"><ele>343.0</ele><time>2026-05-02T08:16:43Z</time></trkpt><trkpt lat="45.765084372682786" lon="9.808317821054219"><ele>343.0</ele><time>2026-05-02T08:16:44Z</time></trkpt><trkpt lat="45.76520117988009" lon="9.808382426081893"><ele>343.0</ele><time>2026-05-02T08:16:46Z</time></trkpt><trkpt lat="45.76531825973391" lon="9.808443450259196"><ele>343.0</ele><time>2026-05-02T08:16:48Z</time></trkpt><trkpt lat="45.76544249689561" lon="9.808505561578544"><ele>343.0</ele><time>2026-05-02T08:16:50Z</time></trkpt><trkpt lat="45.76555897936662" lon="9.8085619304786"><ele>342.4</ele><time>2026-05-02T08:16:52Z</time></trkpt><trkpt lat="45.76567681034507" lon="9.808623194621022"><ele>341.79999999999995</ele><time>2026-05-02T08:16:54Z</time></trkpt><trkpt lat="45.76579332204324" lon="9.808686876552464"><ele>341.2</ele><time>2026-05-02T08:16:56Z</time></trkpt><trkpt lat="45.765851993730614" lon="9.808722910488015"><ele>340.6</ele><time>2026-05-02T08:16:57Z</time></trkpt><trkpt lat="45.76596873994688" lon="9.808787362110255"><ele>340.0</ele><time>2026-05-02T08:16:59Z</time></trkpt><trkpt lat="45.76603523915031" lon="9.808809124623853"><ele>341.2</ele><time>2026-05-02T08:17:00Z</time></trkpt><trkpt lat="45.7661500603609" lon="9.808876985957365"><ele>342.4</ele><time>2026-05-02T08:17:02Z</time></trkpt><trkpt lat="45.76626634964017" lon="9.808941964917196"><ele>343.6</ele><time>2026-05-02T08:17:04Z</time></trkpt><trkpt lat="45.76632634959762" lon="9.808975863952725"><ele>344.8</ele><time>2026-05-02T08:17:05Z</time></trkpt><trkpt lat="45.76644026357807" lon="9.809032898800051"><ele>346.0</ele><time>2026-05-02T08:17:07Z</time></trkpt><trkpt lat="45.76654292426449" lon="9.809090612333005"><ele>346.0</ele><time>2026-05-02T08:17:09Z</time></trkpt><trkpt lat="45.76667526181375" lon="9.809143619652593"><ele>346.0</ele><time>2026-05-02T08:17:11Z</time></trkpt><trkpt lat="45.7667893124728" lon="9.809198803962385"><ele>346.0</ele><time>2026-05-02T08:17:13Z</time></trkpt><trkpt lat="45.76684845592705" lon="9.809243969038164"><ele>346.0</ele><time>2026-05-02T08:17:14Z</time></trkpt><trkpt lat="45.76691263719126" lon="9.80927317659449"><ele>346.0</ele><time>2026-05-02T08:17:15Z</time></trkpt><trkpt lat="45.76702767221947" lon="9.809342037437894"><ele>346.0</ele><time>2026-05-02T08:17:17Z</time></trkpt><trkpt lat="45.767149012342166" lon="9.809404288535656"><ele>346.0</ele><time>2026-05-02T08:17:19Z</time></trkpt><trkpt lat="45.767264945478" lon="9.809475233510202"><ele>346.0</ele><time>2026-05-02T08:17:21Z</time></trkpt><trkpt lat="45.76732573725018" lon="9.8095025446914"><ele>346.0</ele><time>2026-05-02T08:17:22Z</time></trkpt><trkpt lat="45.76738710451171" lon="9.80952879415236"><ele>346.0</ele><time>2026-05-02T08:17:23Z</time></trkpt><trkpt lat="45.767502080755115" lon="9.809591145727614"><ele>346.0</ele><time>2026-05-02T08:17:25Z</time></trkpt><trkpt lat="45.76762055156276" lon="9.809651203468954"><ele>346.0</ele><time>2026-05-02T08:17:27Z</time></trkpt><trkpt lat="45.7677389995074" lon="9.809719372008027"><ele>346.0</ele><time>2026-05-02T08:17:29Z</time></trkpt><trkpt lat="45.767856261486436" lon="9.8097783466065"><ele>346.0</ele><time>2026-05-02T08:17:31Z</time></trkpt><trkpt lat="45.76797152721958" lon="9.809842342437197"><ele>346.8333333333333</ele><time>2026-05-02T08:17:33Z</time></trkpt><trkpt lat="45.768030672404095" lon="9.8098779984164"><ele>347.66666666666663</ele><time>2026-05-02T08:17:34Z</time></trkpt><trkpt lat="45.76809204758178" lon="9.809906571122943"><ele>348.5</ele><time>2026-05-02T08:17:35Z</time></trkpt><trkpt lat="45.76821206357881" lon="9.809975710015934"><ele>349.3333333333333</ele><time>2026-05-02T08:17:37Z</time></trkpt><trkpt lat="45.76827492250545" lon="9.810006652051264"><ele>350.1666666666667</ele><time>2026-05-02T08:17:38Z</time></trkpt><trkpt lat="45.76833450113534" lon="9.81003659757778"><ele>351.0</ele><time>2026-05-02T08:17:39Z</time></trkpt><trkpt lat="45.76845478110036" lon="9.81010097029883"><ele>350.6</ele><time>2026-05-02T08:17:41Z</time></trkpt><trkpt lat="45.76857234679219" lon="9.81016361870343"><ele>350.20000000000005</ele><time>2026-05-02T08:17:43Z</time></trkpt><trkpt lat="45.768631610078096" lon="9.810197660876552"><ele>349.79999999999995</ele><time>2026-05-02T08:17:44Z</time></trkpt><trkpt lat="45.768743991773" lon="9.810254513351445"><ele>349.4</ele><time>2026-05-02T08:17:46Z</time></trkpt><trkpt lat="45.76885317041103" lon="9.810310652086246"><ele>349.0</ele><time>2026-05-02T08:17:48Z</time></trkpt><trkpt lat="45.768963206912005" lon="9.810368551325436"><ele>349.0</ele><time>2026-05-02T08:17:50Z</time></trkpt><trkpt lat="45.76906898521283" lon="9.81043836014057"><ele>349.0</ele><time>2026-05-02T08:17:52Z</time></trkpt><trkpt lat="45.769172912182576" lon="9.810510048230348"><ele>349.0</ele><time>2026-05-02T08:17:54Z</time></trkpt><trkpt lat="45.769274830558615" lon="9.8105780467213"><ele>349.0</ele><time>2026-05-02T08:17:56Z</time></trkpt><trkpt lat="45.76937728536564" lon="9.81064147048023"><ele>349.0</ele><time>2026-05-02T08:17:58Z</time></trkpt><trkpt lat="45.7694778387186" lon="9.810690407458786"><ele>349.0</ele><time>2026-05-02T08:18:00Z</time></trkpt><trkpt lat="45.76958040949556" lon="9.810732526648511"><ele>349.0</ele><time>2026-05-02T08:18:02Z</time></trkpt><trkpt lat="45.76967241678185" lon="9.810784118565177"><ele>349.0</ele><time>2026-05-02T08:18:04Z</time></trkpt><trkpt lat="45.76977483094934" lon="9.810826523676521"><ele>349.0</ele><time>2026-05-02T08:18:06Z</time></trkpt><trkpt lat="45.769843751365194" lon="9.810853919063776"><ele>348.99999999999994</ele><time>2026-05-02T08:18:07Z</time></trkpt><trkpt lat="45.769903893725534" lon="9.810896042496717"><ele>349.0</ele><time>2026-05-02T08:18:08Z</time></trkpt><trkpt lat="45.76996329110653" lon="9.810936061385688"><ele>349.0</ele><time>2026-05-02T08:18:09Z</time></trkpt><trkpt lat="45.77002406617567" lon="9.810975756816726"><ele>349.0</ele><time>2026-05-02T08:18:10Z</time></trkpt><trkpt lat="45.77008446820536" lon="9.81100347271822"><ele>349.0</ele><time>2026-05-02T08:18:11Z</time></trkpt><trkpt lat="45.770145387719765" lon="9.811035891171965"><ele>348.99999999999994</ele><time>2026-05-02T08:18:12Z</time></trkpt><trkpt lat="45.77020488822023" lon="9.811069112594772"><ele>349.0</ele><time>2026-05-02T08:18:13Z</time></trkpt><trkpt lat="45.77026463385214" lon="9.81110025810111"><ele>348.99999999999994</ele><time>2026-05-02T08:18:14Z</time></trkpt><trkpt lat="45.77032424559813" lon="9.811134661292886"><ele>349.0</ele><time>2026-05-02T08:18:15Z</time></trkpt><trkpt lat="45.77038493231855" lon="9.811170545090516"><ele>349.0</ele><time>2026-05-02T08:18:16Z</time></trkpt><trkpt lat="45.77044487729512" lon="9.811206331042237"><ele>349.0</ele><time>2026-05-02T08:18:17Z</time></trkpt><trkpt lat="45.77050347416833" lon="9.811241388347398"><ele>349.0</ele><time>2026-05-02T08:18:18Z</time></trkpt><trkpt lat="45.77056201433543" lon="9.811277299249516"><ele>348.99999999999994</ele><time>2026-05-02T08:18:19Z</time></trkpt><trkpt lat="45.77062075124971" lon="9.811317939086111"><ele>349.0</ele><time>2026-05-02T08:18:20Z</time></trkpt><trkpt lat="45.7706800682228" lon="9.811359728651736"><ele>348.99999999999994</ele><time>2026-05-02T08:18:21Z</time></trkpt><trkpt lat="45.77073615290773" lon="9.811401868386731"><ele>349.0</ele><time>2026-05-02T08:18:22Z</time></trkpt><trkpt lat="45.770795744830146" lon="9.811442449695761"><ele>349.0</ele><time>2026-05-02T08:18:23Z</time></trkpt><trkpt lat="45.77085259670453" lon="9.811484364754335"><ele>349.0</ele><time>2026-05-02T08:18:24Z</time></trkpt><trkpt lat="45.77091338783631" lon="9.81153135873414"><ele>349.0</ele><time>2026-05-02T08:18:25Z</time></trkpt><trkpt lat="45.770968781986994" lon="9.81157430192686"><ele>348.99999999999994</ele><time>2026-05-02T08:18:26Z</time></trkpt><trkpt lat="45.771024396453846" lon="9.81162090691249"><ele>349.0</ele><time>2026-05-02T08:18:27Z</time></trkpt><trkpt lat="45.771088355854154" lon="9.811668356321038"><ele>349.0</ele><time>2026-05-02T08:18:28Z</time></trkpt><trkpt lat="45.77119947498957" lon="9.811749108039503"><ele>349.0</ele><time>2026-05-02T08:18:30Z</time></trkpt><trkpt lat="45.77130905428457" lon="9.811844587357472"><ele>349.0</ele><time>2026-05-02T08:18:32Z</time></trkpt><trkpt lat="45.77136419439748" lon="9.811890824144625"><ele>349.0</ele><time>2026-05-02T08:18:33Z</time></trkpt><trkpt lat="45.771472183531344" lon="9.811984217833766"><ele>349.0</ele><time>2026-05-02T08:18:35Z</time></trkpt><trkpt lat="45.77153233070713" lon="9.812029675221806"><ele>349.0</ele><time>2026-05-02T08:18:36Z</time></trkpt><trkpt lat="45.77163974168785" lon="9.812121757306766"><ele>349.0</ele><time>2026-05-02T08:18:38Z</time></trkpt><trkpt lat="45.77169462177236" lon="9.812167215254194"><ele>349.0</ele><time>2026-05-02T08:18:39Z</time></trkpt><trkpt lat="45.771749636310446" lon="9.812213905210589"><ele>349.0</ele><time>2026-05-02T08:18:40Z</time></trkpt><trkpt lat="45.771805562348895" lon="9.812260560454247"><ele>349.0</ele><time>2026-05-02T08:18:41Z</time></trkpt><trkpt lat="45.77191248450979" lon="9.812354967539813"><ele>349.0</ele><time>2026-05-02T08:18:43Z</time></trkpt><trkpt lat="45.77196673624982" lon="9.81240600922138"><ele>349.2857142857143</ele><time>2026-05-02T08:18:44Z</time></trkpt><trkpt lat="45.772023223059485" lon="9.812452510926068"><ele>349.57142857142856</ele><time>2026-05-02T08:18:45Z</time></trkpt><trkpt lat="45.77207853982551" lon="9.812499461319195"><ele>349.8571428571429</ele><time>2026-05-02T08:18:46Z</time></trkpt><trkpt lat="45.772131662180044" lon="9.81254936326503"><ele>350.1428571428571</ele><time>2026-05-02T08:18:47Z</time></trkpt><trkpt lat="45.772190133381194" lon="9.812591611207894"><ele>350.42857142857144</ele><time>2026-05-02T08:18:48Z</time></trkpt><trkpt lat="45.7722449652784" lon="9.812640063719304"><ele>350.7142857142857</ele><time>2026-05-02T08:18:49Z</time></trkpt><trkpt lat="45.77230091464351" lon="9.81268686521043"><ele>351.0</ele><time>2026-05-02T08:18:50Z</time></trkpt><trkpt lat="45.77235571763452" lon="9.812733163720756"><ele>351.00000000000006</ele><time>2026-05-02T08:18:51Z</time></trkpt><trkpt lat="45.77240941445973" lon="9.812782969776109"><ele>351.0</ele><time>2026-05-02T08:18:52Z</time></trkpt><trkpt lat="45.77246561427256" lon="9.812827870282314"><ele>351.0</ele><time>2026-05-02T08:18:53Z</time></trkpt><trkpt lat="45.77251910544911" lon="9.81287800602474"><ele>351.0</ele><time>2026-05-02T08:18:54Z</time></trkpt><trkpt lat="45.77257517777766" lon="9.812923735914937"><ele>351.0</ele><time>2026-05-02T08:18:55Z</time></trkpt><trkpt lat="45.77263081611913" lon="9.812968040559694"><ele>351.00000000000006</ele><time>2026-05-02T08:18:56Z</time></trkpt><trkpt lat="45.772686382810946" lon="9.81301762518933"><ele>351.0</ele><time>2026-05-02T08:18:57Z</time></trkpt><trkpt lat="45.77274218521674" lon="9.813062669790476"><ele>351.28571428571433</ele><time>2026-05-02T08:18:58Z</time></trkpt><trkpt lat="45.772797844044774" lon="9.813108478361592"><ele>351.57142857142856</ele><time>2026-05-02T08:18:59Z</time></trkpt><trkpt lat="45.772852051684225" lon="9.813155636031206"><ele>351.8571428571429</ele><time>2026-05-02T08:19:00Z</time></trkpt><trkpt lat="45.7729050086822" lon="9.813204940814447"><ele>352.14285714285717</ele><time>2026-05-02T08:19:01Z</time></trkpt><trkpt lat="45.77296179007854" lon="9.813251836000866"><ele>352.42857142857144</ele><time>2026-05-02T08:19:02Z</time></trkpt><trkpt lat="45.773016474243775" lon="9.813296869650307"><ele>352.7142857142857</ele><time>2026-05-02T08:19:03Z</time></trkpt><trkpt lat="45.773071304948026" lon="9.813346442507672"><ele>353.0</ele><time>2026-05-02T08:19:04Z</time></trkpt><trkpt lat="45.77318035332741" lon="9.81343888080647"><ele>353.0</ele><time>2026-05-02T08:19:06Z</time></trkpt><trkpt lat="45.77323656957479" lon="9.813484119000716"><ele>353.0</ele><time>2026-05-02T08:19:07Z</time></trkpt><trkpt lat="45.77329108622216" lon="9.81353252026605"><ele>353.0</ele><time>2026-05-02T08:19:08Z</time></trkpt><trkpt lat="45.77334840395323" lon="9.813580227334038"><ele>353.0</ele><time>2026-05-02T08:19:09Z</time></trkpt><trkpt lat="45.77340240617906" lon="9.813630570949762"><ele>353.0</ele><time>2026-05-02T08:19:10Z</time></trkpt><trkpt lat="45.77345782738587" lon="9.813678224185027"><ele>353.0</ele><time>2026-05-02T08:19:11Z</time></trkpt><trkpt lat="45.773514956025224" lon="9.813725411895579"><ele>353.0</ele><time>2026-05-02T08:19:12Z</time></trkpt><trkpt lat="45.77357212307225" lon="9.813772653039093"><ele>353.1666666666667</ele><time>2026-05-02T08:19:13Z</time></trkpt><trkpt lat="45.773626549197836" lon="9.81382182433123"><ele>353.33333333333337</ele><time>2026-05-02T08:19:14Z</time></trkpt><trkpt lat="45.773682662198965" lon="9.813865364814362"><ele>353.5</ele><time>2026-05-02T08:19:15Z</time></trkpt><trkpt lat="45.77373845172935" lon="9.813921250987352"><ele>353.6666666666667</ele><time>2026-05-02T08:19:16Z</time></trkpt><trkpt lat="45.77384944602598" lon="9.814010233555964"><ele>353.8333333333333</ele><time>2026-05-02T08:19:18Z</time></trkpt><trkpt lat="45.77395635770083" lon="9.814101749067987"><ele>354.0</ele><time>2026-05-02T08:19:20Z</time></trkpt><trkpt lat="45.774063000032285" lon="9.814196203576286"><ele>354.0</ele><time>2026-05-02T08:19:22Z</time></trkpt><trkpt lat="45.77416894141152" lon="9.814286612129518"><ele>354.0</ele><time>2026-05-02T08:19:24Z</time></trkpt><trkpt lat="45.7742745289149" lon="9.814379178576884"><ele>354.0</ele><time>2026-05-02T08:19:26Z</time></trkpt><trkpt lat="45.7743809360976" lon="9.814471993914404"><ele>354.0</ele><time>2026-05-02T08:19:28Z</time></trkpt><trkpt lat="45.774488986675735" lon="9.814564817050362"><ele>355.5</ele><time>2026-05-02T08:19:30Z</time></trkpt><trkpt lat="45.77459549977555" lon="9.814658115073142"><ele>357.0</ele><time>2026-05-02T08:19:32Z</time></trkpt><trkpt lat="45.77465422583167" lon="9.814705669586495"><ele>358.5</ele><time>2026-05-02T08:19:33Z</time></trkpt><trkpt lat="45.774709486965016" lon="9.814751475515527"><ele>360.0</ele><time>2026-05-02T08:19:34Z</time></trkpt><trkpt lat="45.77476517652998" lon="9.814798603152878"><ele>361.5</ele><time>2026-05-02T08:19:35Z</time></trkpt><trkpt lat="45.77482105179585" lon="9.814845702998785"><ele>363.0</ele><time>2026-05-02T08:19:36Z</time></trkpt><trkpt lat="45.774879300018476" lon="9.814894370766329"><ele>362.99999999999994</ele><time>2026-05-02T08:19:37Z</time></trkpt><trkpt lat="45.77493899320734" lon="9.814944187921903"><ele>363.0</ele><time>2026-05-02T08:19:38Z</time></trkpt><trkpt lat="45.77499763688764" lon="9.81499450012725"><ele>363.0</ele><time>2026-05-02T08:19:39Z</time></trkpt><trkpt lat="45.775055614125165" lon="9.815044827698923"><ele>363.0</ele><time>2026-05-02T08:19:40Z</time></trkpt><trkpt lat="45.77511453451839" lon="9.815095290066024"><ele>363.0</ele><time>2026-05-02T08:19:41Z</time></trkpt><trkpt lat="45.77517360393709" lon="9.815143010048365"><ele>362.99999999999994</ele><time>2026-05-02T08:19:42Z</time></trkpt><trkpt lat="45.77523164451225" lon="9.815191735580145"><ele>363.0</ele><time>2026-05-02T08:19:43Z</time></trkpt><trkpt lat="45.77528851862512" lon="9.815241679811548"><ele>362.2857142857143</ele><time>2026-05-02T08:19:44Z</time></trkpt><trkpt lat="45.77534449135144" lon="9.815295757393123"><ele>361.57142857142856</ele><time>2026-05-02T08:19:45Z</time></trkpt><trkpt lat="45.77539902681971" lon="9.81534670150408"><ele>360.8571428571429</ele><time>2026-05-02T08:19:46Z</time></trkpt><trkpt lat="45.775452840922036" lon="9.815398313635349"><ele>360.1428571428571</ele><time>2026-05-02T08:19:47Z</time></trkpt><trkpt lat="45.775506511192695" lon="9.81545484786761"><ele>359.42857142857144</ele><time>2026-05-02T08:19:48Z</time></trkpt><trkpt lat="45.77555885159835" lon="9.815510012735976"><ele>358.7142857142857</ele><time>2026-05-02T08:19:49Z</time></trkpt><trkpt lat="45.77561070988457" lon="9.815570582811974"><ele>358.0</ele><time>2026-05-02T08:19:50Z</time></trkpt><trkpt lat="45.77566239713938" lon="9.815627311790513"><ele>358.0</ele><time>2026-05-02T08:19:51Z</time></trkpt><trkpt lat="45.77571492771557" lon="9.815684653000982"><ele>358.0</ele><time>2026-05-02T08:19:52Z</time></trkpt><trkpt lat="45.7757681615943" lon="9.815745220803098"><ele>358.0</ele><time>2026-05-02T08:19:53Z</time></trkpt><trkpt lat="45.77583342711231" lon="9.815892787573313"><ele>358.0</ele><time>2026-05-02T08:19:55Z</time></trkpt><trkpt lat="45.775895264072275" lon="9.815954627245405"><ele>358.0</ele><time>2026-05-02T08:19:56Z</time></trkpt><trkpt lat="45.77595629523307" lon="9.816011080528929"><ele>358.0</ele><time>2026-05-02T08:19:57Z</time></trkpt><trkpt lat="45.77600451075991" lon="9.816080589201349"><ele>358.4</ele><time>2026-05-02T08:19:58Z</time></trkpt><trkpt lat="45.77608522179636" lon="9.816158071007926"><ele>358.79999999999995</ele><time>2026-05-02T08:19:59Z</time></trkpt><trkpt lat="45.77615077946067" lon="9.816258631493348"><ele>359.2</ele><time>2026-05-02T08:20:01Z</time></trkpt><trkpt lat="45.776201295739654" lon="9.81632461522391"><ele>359.6</ele><time>2026-05-02T08:20:02Z</time></trkpt><trkpt lat="45.77630666544178" lon="9.81643305324088"><ele>360.0</ele><time>2026-05-02T08:20:04Z</time></trkpt><trkpt lat="45.776354009127566" lon="9.816494445306125"><ele>360.0</ele><time>2026-05-02T08:20:05Z</time></trkpt><trkpt lat="45.77640342502062" lon="9.816553294168846"><ele>360.0</ele><time>2026-05-02T08:20:06Z</time></trkpt><trkpt lat="45.77645361456167" lon="9.816614281367794"><ele>360.0</ele><time>2026-05-02T08:20:07Z</time></trkpt><trkpt lat="45.77650515362726" lon="9.81667375678584"><ele>360.0</ele><time>2026-05-02T08:20:08Z</time></trkpt><trkpt lat="45.77655543070398" lon="9.816735149114704"><ele>360.0</ele><time>2026-05-02T08:20:09Z</time></trkpt><trkpt lat="45.77660801359729" lon="9.816791923246463"><ele>360.0</ele><time>2026-05-02T08:20:10Z</time></trkpt><trkpt lat="45.77665815925785" lon="9.816853293878303"><ele>360.0</ele><time>2026-05-02T08:20:11Z</time></trkpt><trkpt lat="45.77670800154368" lon="9.816914538375904"><ele>360.6</ele><time>2026-05-02T08:20:12Z</time></trkpt><trkpt lat="45.776755370014996" lon="9.81697718613666"><ele>361.2</ele><time>2026-05-02T08:20:13Z</time></trkpt><trkpt lat="45.776851217166076" lon="9.817094977244135"><ele>361.79999999999995</ele><time>2026-05-02T08:20:15Z</time></trkpt><trkpt lat="45.776903204366555" lon="9.817152203354665"><ele>362.4</ele><time>2026-05-02T08:20:16Z</time></trkpt><trkpt lat="45.777003968962624" lon="9.81726868617906"><ele>363.0</ele><time>2026-05-02T08:20:18Z</time></trkpt><trkpt lat="45.77705471809641" lon="9.81732635197387"><ele>363.0</ele><time>2026-05-02T08:20:19Z</time></trkpt><trkpt lat="45.77710903692654" lon="9.817377134860017"><ele>363.0</ele><time>2026-05-02T08:20:20Z</time></trkpt><trkpt lat="45.77716023916252" lon="9.817435778452761"><ele>363.0</ele><time>2026-05-02T08:20:21Z</time></trkpt><trkpt lat="45.77721108582349" lon="9.81748925662034"><ele>363.0</ele><time>2026-05-02T08:20:22Z</time></trkpt><trkpt lat="45.77726422777162" lon="9.817541122365862"><ele>363.0</ele><time>2026-05-02T08:20:23Z</time></trkpt><trkpt lat="45.77731475960421" lon="9.817594992987221"><ele>363.0</ele><time>2026-05-02T08:20:24Z</time></trkpt><trkpt lat="45.77736771040339" lon="9.817645766902482"><ele>363.0</ele><time>2026-05-02T08:20:25Z</time></trkpt><trkpt lat="45.77742143482629" lon="9.817697536424367"><ele>363.0</ele><time>2026-05-02T08:20:26Z</time></trkpt><trkpt lat="45.77747692803794" lon="9.817744891174359"><ele>362.2</ele><time>2026-05-02T08:20:27Z</time></trkpt><trkpt lat="45.77759329262733" lon="9.817815745595857"><ele>361.4</ele><time>2026-05-02T08:20:29Z</time></trkpt><trkpt lat="45.77765404921459" lon="9.817844342254286"><ele>360.59999999999997</ele><time>2026-05-02T08:20:30Z</time></trkpt><trkpt lat="45.7777139816532" lon="9.817875579194023"><ele>359.79999999999995</ele><time>2026-05-02T08:20:31Z</time></trkpt><trkpt lat="45.77783120727457" lon="9.817930273974662"><ele>359.0</ele><time>2026-05-02T08:20:33Z</time></trkpt><trkpt lat="45.77794964650079" lon="9.817977325966982"><ele>359.0</ele><time>2026-05-02T08:20:35Z</time></trkpt><trkpt lat="45.77806722068336" lon="9.818022036495373"><ele>359.0</ele><time>2026-05-02T08:20:37Z</time></trkpt><trkpt lat="45.778182632766985" lon="9.818073764929258"><ele>359.0</ele><time>2026-05-02T08:20:39Z</time></trkpt><trkpt lat="45.778299430960466" lon="9.818133921811702"><ele>359.0</ele><time>2026-05-02T08:20:41Z</time></trkpt><trkpt lat="45.77841126210256" lon="9.818203476292599"><ele>358.0</ele><time>2026-05-02T08:20:43Z</time></trkpt><trkpt lat="45.77851912340587" lon="9.81829728577755"><ele>357.0</ele><time>2026-05-02T08:20:45Z</time></trkpt><trkpt lat="45.77862736210792" lon="9.81838905318963"><ele>356.0</ele><time>2026-05-02T08:20:47Z</time></trkpt><trkpt lat="45.77868344024328" lon="9.818440904808055"><ele>355.0</ele><time>2026-05-02T08:20:48Z</time></trkpt><trkpt lat="45.778792321187446" lon="9.81853863638872"><ele>354.0</ele><time>2026-05-02T08:20:50Z</time></trkpt><trkpt lat="45.778848675296" lon="9.818584359664252"><ele>354.0</ele><time>2026-05-02T08:20:51Z</time></trkpt><trkpt lat="45.77890371157535" lon="9.818634268027528"><ele>354.0</ele><time>2026-05-02T08:20:52Z</time></trkpt><trkpt lat="45.77896018049896" lon="9.818681658938356"><ele>354.0</ele><time>2026-05-02T08:20:53Z</time></trkpt><trkpt lat="45.779015218212436" lon="9.818728221808163"><ele>354.0</ele><time>2026-05-02T08:20:54Z</time></trkpt><trkpt lat="45.77906936150704" lon="9.818779729159319"><ele>354.0</ele><time>2026-05-02T08:20:55Z</time></trkpt><trkpt lat="45.7791775845596" lon="9.818877901648046"><ele>354.0</ele><time>2026-05-02T08:20:57Z</time></trkpt><trkpt lat="45.779287538158215" lon="9.81897682102607"><ele>354.6666666666667</ele><time>2026-05-02T08:20:59Z</time></trkpt><trkpt lat="45.779397881743435" lon="9.819072895858636"><ele>355.3333333333333</ele><time>2026-05-02T08:21:01Z</time></trkpt><trkpt lat="45.77945222213702" lon="9.819122092291487"><ele>356.0</ele><time>2026-05-02T08:21:02Z</time></trkpt><trkpt lat="45.77950892703372" lon="9.8191665044412"><ele>356.66666666666663</ele><time>2026-05-02T08:21:03Z</time></trkpt><trkpt lat="45.77956571227962" lon="9.819214874082977"><ele>357.3333333333333</ele><time>2026-05-02T08:21:04Z</time></trkpt><trkpt lat="45.779620536027636" lon="9.819265611862745"><ele>358.0</ele><time>2026-05-02T08:21:05Z</time></trkpt><trkpt lat="45.77973079912887" lon="9.819357725217728"><ele>358.0</ele><time>2026-05-02T08:21:07Z</time></trkpt><trkpt lat="45.7797871533235" lon="9.819406350863042"><ele>358.0</ele><time>2026-05-02T08:21:08Z</time></trkpt><trkpt lat="45.779841148781756" lon="9.819454226380245"><ele>358.0</ele><time>2026-05-02T08:21:09Z</time></trkpt><trkpt lat="45.779897489824094" lon="9.81950181936401"><ele>358.0</ele><time>2026-05-02T08:21:10Z</time></trkpt><trkpt lat="45.779952742487104" lon="9.81954901021674"><ele>358.0</ele><time>2026-05-02T08:21:11Z</time></trkpt><trkpt lat="45.78000918575619" lon="9.819597662537891"><ele>358.0</ele><time>2026-05-02T08:21:12Z</time></trkpt><trkpt lat="45.7801220405962" lon="9.819689198844125"><ele>358.00000000000006</ele><time>2026-05-02T08:21:14Z</time></trkpt><trkpt lat="45.7801809678443" lon="9.819727807320415"><ele>358.0</ele><time>2026-05-02T08:21:15Z</time></trkpt><trkpt lat="45.78023866292514" lon="9.819771404925191"><ele>358.0</ele><time>2026-05-02T08:21:16Z</time></trkpt><trkpt lat="45.78029676506016" lon="9.81981733707663"><ele>358.0</ele><time>2026-05-02T08:21:17Z</time></trkpt><trkpt lat="45.780354216535464" lon="9.8198593231252"><ele>358.0</ele><time>2026-05-02T08:21:18Z</time></trkpt><trkpt lat="45.78041293988542" lon="9.819900452918345"><ele>358.00000000000006</ele><time>2026-05-02T08:21:19Z</time></trkpt><trkpt lat="45.78047117001965" lon="9.819945584994672"><ele>358.0</ele><time>2026-05-02T08:21:20Z</time></trkpt><trkpt lat="45.78052678245942" lon="9.819991620317099"><ele>357.66666666666663</ele><time>2026-05-02T08:21:21Z</time></trkpt><trkpt lat="45.78058294785087" lon="9.8200329408745"><ele>357.3333333333333</ele><time>2026-05-02T08:21:22Z</time></trkpt><trkpt lat="45.78064071198438" lon="9.820075322617017"><ele>357.0</ele><time>2026-05-02T08:21:23Z</time></trkpt><trkpt lat="45.78069739908243" lon="9.82011508789245"><ele>356.6666666666667</ele><time>2026-05-02T08:21:24Z</time></trkpt><trkpt lat="45.78075711009167" lon="9.820150555630448"><ele>356.33333333333337</ele><time>2026-05-02T08:21:25Z</time></trkpt><trkpt lat="45.7808157494808" lon="9.820197168628448"><ele>356.0</ele><time>2026-05-02T08:21:26Z</time></trkpt><trkpt lat="45.78092106907462" lon="9.820299090662486"><ele>355.99999999999994</ele><time>2026-05-02T08:21:28Z</time></trkpt><trkpt lat="45.78097472066401" lon="9.820348645007746"><ele>356.0</ele><time>2026-05-02T08:21:29Z</time></trkpt><trkpt lat="45.781026951287195" lon="9.820400863691818"><ele>356.0</ele><time>2026-05-02T08:21:30Z</time></trkpt><trkpt lat="45.781082866062256" lon="9.820447980666547"><ele>356.0</ele><time>2026-05-02T08:21:31Z</time></trkpt><trkpt lat="45.781137959825585" lon="9.820495930925157"><ele>356.0</ele><time>2026-05-02T08:21:32Z</time></trkpt><trkpt lat="45.78119461847731" lon="9.820540254749377"><ele>355.99999999999994</ele><time>2026-05-02T08:21:33Z</time></trkpt><trkpt lat="45.78125312237663" lon="9.820590841671885"><ele>356.0</ele><time>2026-05-02T08:21:34Z</time></trkpt><trkpt lat="45.78130926726587" lon="9.82063992385751"><ele>355.83333333333337</ele><time>2026-05-02T08:21:35Z</time></trkpt><trkpt lat="45.781367907807265" lon="9.820695523680888"><ele>355.6666666666667</ele><time>2026-05-02T08:21:36Z</time></trkpt><trkpt lat="45.78142871377379" lon="9.820755963736621"><ele>355.5</ele><time>2026-05-02T08:21:37Z</time></trkpt><trkpt lat="45.78149676436797" lon="9.82080701546714"><ele>355.3333333333333</ele><time>2026-05-02T08:21:38Z</time></trkpt><trkpt lat="45.78156495175167" lon="9.820874245232657"><ele>355.16666666666663</ele><time>2026-05-02T08:21:39Z</time></trkpt><trkpt lat="45.781628117172346" lon="9.820931929759274"><ele>355.0</ele><time>2026-05-02T08:21:40Z</time></trkpt><trkpt lat="45.78169100127164" lon="9.820986547054055"><ele>355.0</ele><time>2026-05-02T08:21:41Z</time></trkpt><trkpt lat="45.78175273371703" lon="9.821040872947185"><ele>355.0</ele><time>2026-05-02T08:21:42Z</time></trkpt><trkpt lat="45.781813648849976" lon="9.821094839851186"><ele>355.0</ele><time>2026-05-02T08:21:43Z</time></trkpt><trkpt lat="45.781873807003805" lon="9.821149758295165"><ele>355.0</ele><time>2026-05-02T08:21:44Z</time></trkpt><trkpt lat="45.78196914357505" lon="9.821245506002981"><ele>355.0</ele><time>2026-05-02T08:21:46Z</time></trkpt><trkpt lat="45.782103589839195" lon="9.821216025325157"><ele>355.0</ele><time>2026-05-02T08:21:48Z</time></trkpt><trkpt lat="45.78217244104508" lon="9.821214094968076"><ele>355.0</ele><time>2026-05-02T08:21:49Z</time></trkpt><trkpt lat="45.782244079990704" lon="9.821213351844786"><ele>355.0</ele><time>2026-05-02T08:21:50Z</time></trkpt><trkpt lat="45.7823684568724" lon="9.821218063103196"><ele>355.0</ele><time>2026-05-02T08:21:52Z</time></trkpt><trkpt lat="45.78249013376182" lon="9.821211429369889"><ele>355.0</ele><time>2026-05-02T08:21:54Z</time></trkpt><trkpt lat="45.78261058936822" lon="9.821202375027802"><ele>355.66666666666663</ele><time>2026-05-02T08:21:56Z</time></trkpt><trkpt lat="45.782731411028095" lon="9.821198357155268"><ele>356.3333333333333</ele><time>2026-05-02T08:21:58Z</time></trkpt><trkpt lat="45.78279544341789" lon="9.821190539061584"><ele>357.0</ele><time>2026-05-02T08:21:59Z</time></trkpt><trkpt lat="45.78285968095778" lon="9.821185532354017"><ele>357.6666666666667</ele><time>2026-05-02T08:22:00Z</time></trkpt><trkpt lat="45.78292391176669" lon="9.821172112582145"><ele>358.33333333333337</ele><time>2026-05-02T08:22:01Z</time></trkpt><trkpt lat="45.783045497139106" lon="9.821169225292083"><ele>359.0</ele><time>2026-05-02T08:22:03Z</time></trkpt><trkpt lat="45.78316271491293" lon="9.821162566833776"><ele>359.0</ele><time>2026-05-02T08:22:05Z</time></trkpt><trkpt lat="45.78322794311723" lon="9.821166641224368"><ele>359.0</ele><time>2026-05-02T08:22:06Z</time></trkpt><trkpt lat="45.78335422565785" lon="9.821180044632753"><ele>359.0</ele><time>2026-05-02T08:22:08Z</time></trkpt><trkpt lat="45.78347994457367" lon="9.8211919803767"><ele>359.0</ele><time>2026-05-02T08:22:10Z</time></trkpt><trkpt lat="45.78354331765086" lon="9.821187388044716"><ele>359.0</ele><time>2026-05-02T08:22:11Z</time></trkpt><trkpt lat="45.783667183438524" lon="9.821208088447804"><ele>359.2</ele><time>2026-05-02T08:22:13Z</time></trkpt><trkpt lat="45.783791905833" lon="9.821233453133468"><ele>359.4</ele><time>2026-05-02T08:22:15Z</time></trkpt><trkpt lat="45.783855032835376" lon="9.821253726672541"><ele>359.6</ele><time>2026-05-02T08:22:16Z</time></trkpt><trkpt lat="45.783978787886475" lon="9.821295890031447"><ele>359.8</ele><time>2026-05-02T08:22:18Z</time></trkpt><trkpt lat="45.78409879742095" lon="9.821346362509425"><ele>360.0</ele><time>2026-05-02T08:22:20Z</time></trkpt><trkpt lat="45.78422148013454" lon="9.821389632231249"><ele>360.0</ele><time>2026-05-02T08:22:22Z</time></trkpt><trkpt lat="45.78428529552843" lon="9.821405892397607"><ele>360.0</ele><time>2026-05-02T08:22:23Z</time></trkpt><trkpt lat="45.784409242756276" lon="9.82145094590318"><ele>360.0</ele><time>2026-05-02T08:22:25Z</time></trkpt><trkpt lat="45.78447134517605" lon="9.821471459789576"><ele>360.0</ele><time>2026-05-02T08:22:26Z</time></trkpt><trkpt lat="45.784591600380566" lon="9.821519229240568"><ele>360.0</ele><time>2026-05-02T08:22:28Z</time></trkpt><trkpt lat="45.784652984517805" lon="9.821544177280789"><ele>360.0</ele><time>2026-05-02T08:22:29Z</time></trkpt><trkpt lat="45.784714012181574" lon="9.821572418457572"><ele>361.0</ele><time>2026-05-02T08:22:30Z</time></trkpt><trkpt lat="45.78483874672094" lon="9.82161294667902"><ele>362.0</ele><time>2026-05-02T08:22:32Z</time></trkpt><trkpt lat="45.78495605614858" lon="9.821652739369693"><ele>363.0</ele><time>2026-05-02T08:22:34Z</time></trkpt><trkpt lat="45.78506831438535" lon="9.821689421101356"><ele>364.0</ele><time>2026-05-02T08:22:36Z</time></trkpt><trkpt lat="45.78517196937473" lon="9.821716996973684"><ele>363.4</ele><time>2026-05-02T08:22:38Z</time></trkpt><trkpt lat="45.7852764536319" lon="9.821760765406653"><ele>362.79999999999995</ele><time>2026-05-02T08:22:40Z</time></trkpt><trkpt lat="45.7853736146661" lon="9.821795840784413"><ele>362.20000000000005</ele><time>2026-05-02T08:22:42Z</time></trkpt><trkpt lat="45.78547999004054" lon="9.821828910579589"><ele>361.6</ele><time>2026-05-02T08:22:44Z</time></trkpt><trkpt lat="45.785541187116905" lon="9.821852029247962"><ele>361.0</ele><time>2026-05-02T08:22:45Z</time></trkpt><trkpt lat="45.78565786699258" lon="9.821904307381578"><ele>361.0</ele><time>2026-05-02T08:22:47Z</time></trkpt><trkpt lat="45.78575757422978" lon="9.821954859559565"><ele>361.0</ele><time>2026-05-02T08:22:49Z</time></trkpt><trkpt lat="45.78583977863913" lon="9.822007462034595"><ele>361.0</ele><time>2026-05-02T08:22:51Z</time></trkpt><trkpt lat="45.785952204548416" lon="9.822069965682985"><ele>361.0</ele><time>2026-05-02T08:22:53Z</time></trkpt><trkpt lat="45.7860645984466" lon="9.822137697012456"><ele>361.0</ele><time>2026-05-02T08:22:55Z</time></trkpt><trkpt lat="45.78617881139655" lon="9.822196987562322"><ele>361.8571428571429</ele><time>2026-05-02T08:22:57Z</time></trkpt><trkpt lat="45.786237964540035" lon="9.822232494272074"><ele>362.71428571428567</ele><time>2026-05-02T08:22:58Z</time></trkpt><trkpt lat="45.78629722171477" lon="9.822274096706455"><ele>363.57142857142856</ele><time>2026-05-02T08:22:59Z</time></trkpt><trkpt lat="45.78635461563693" lon="9.822316294498016"><ele>364.42857142857144</ele><time>2026-05-02T08:23:00Z</time></trkpt><trkpt lat="45.7864144055136" lon="9.822357910698353"><ele>365.28571428571433</ele><time>2026-05-02T08:23:01Z</time></trkpt><trkpt lat="45.786474678573484" lon="9.822397916675772"><ele>366.1428571428571</ele><time>2026-05-02T08:23:02Z</time></trkpt><trkpt lat="45.786531862200796" lon="9.822439656632005"><ele>367.0</ele><time>2026-05-02T08:23:03Z</time></trkpt><trkpt lat="45.78664343661852" lon="9.822513428528655"><ele>367.0</ele><time>2026-05-02T08:23:05Z</time></trkpt><trkpt lat="45.786750194455536" lon="9.822586026436019"><ele>367.0</ele><time>2026-05-02T08:23:07Z</time></trkpt><trkpt lat="45.78685246531319" lon="9.822664447802927"><ele>367.0</ele><time>2026-05-02T08:23:09Z</time></trkpt><trkpt lat="45.78695891805296" lon="9.822756892625312"><ele>367.0</ele><time>2026-05-02T08:23:11Z</time></trkpt><trkpt lat="45.78701146062917" lon="9.822808777744342"><ele>367.0</ele><time>2026-05-02T08:23:12Z</time></trkpt><trkpt lat="45.787115186371715" lon="9.82290569442602"><ele>366.20000000000005</ele><time>2026-05-02T08:23:14Z</time></trkpt><trkpt lat="45.78721364444731" lon="9.823010191179042"><ele>365.4</ele><time>2026-05-02T08:23:16Z</time></trkpt><trkpt lat="45.78730733533648" lon="9.823135425786774"><ele>364.6</ele><time>2026-05-02T08:23:18Z</time></trkpt><trkpt lat="45.78735826460833" lon="9.8231983499724"><ele>363.79999999999995</ele><time>2026-05-02T08:23:19Z</time></trkpt><trkpt lat="45.78740757456936" lon="9.82326442109153"><ele>363.0</ele><time>2026-05-02T08:23:20Z</time></trkpt><trkpt lat="45.787452454937345" lon="9.823331634235803"><ele>362.99999999999994</ele><time>2026-05-02T08:23:21Z</time></trkpt><trkpt lat="45.78749772721695" lon="9.823402280391626"><ele>363.0</ele><time>2026-05-02T08:23:22Z</time></trkpt><trkpt lat="45.78754204408056" lon="9.823473017089409"><ele>363.0</ele><time>2026-05-02T08:23:23Z</time></trkpt><trkpt lat="45.78758765554598" lon="9.823544948243232"><ele>363.0</ele><time>2026-05-02T08:23:24Z</time></trkpt><trkpt lat="45.78763188653284" lon="9.823618400593622"><ele>363.0</ele><time>2026-05-02T08:23:25Z</time></trkpt><trkpt lat="45.787675322795394" lon="9.823691671540141"><ele>362.99999999999994</ele><time>2026-05-02T08:23:26Z</time></trkpt><trkpt lat="45.78771470168265" lon="9.823769704302476"><ele>363.0</ele><time>2026-05-02T08:23:27Z</time></trkpt><trkpt lat="45.787752169818724" lon="9.823843021315065"><ele>362.8333333333333</ele><time>2026-05-02T08:23:28Z</time></trkpt><trkpt lat="45.787833947792414" lon="9.823979311943955"><ele>362.6666666666667</ele><time>2026-05-02T08:23:30Z</time></trkpt><trkpt lat="45.78787570661727" lon="9.824054476277439"><ele>362.5</ele><time>2026-05-02T08:23:31Z</time></trkpt><trkpt lat="45.787924339182396" lon="9.824125012802813"><ele>362.33333333333337</ele><time>2026-05-02T08:23:32Z</time></trkpt><trkpt lat="45.78796882065181" lon="9.824191012383803"><ele>362.1666666666667</ele><time>2026-05-02T08:23:33Z</time></trkpt><trkpt lat="45.788017150133435" lon="9.824253529108503"><ele>362.0</ele><time>2026-05-02T08:23:34Z</time></trkpt><trkpt lat="45.78805671809788" lon="9.824327248514571"><ele>362.0</ele><time>2026-05-02T08:23:35Z</time></trkpt><trkpt lat="45.788094046349975" lon="9.824407621408849"><ele>362.0</ele><time>2026-05-02T08:23:36Z</time></trkpt><trkpt lat="45.78812796161357" lon="9.824489422681406"><ele>362.0</ele><time>2026-05-02T08:23:37Z</time></trkpt><trkpt lat="45.78815901145489" lon="9.82457194846834"><ele>362.0</ele><time>2026-05-02T08:23:38Z</time></trkpt><trkpt lat="45.788196475928935" lon="9.824655333955826"><ele>362.0</ele><time>2026-05-02T08:23:39Z</time></trkpt><trkpt lat="45.78823113923896" lon="9.824731652404258"><ele>362.0</ele><time>2026-05-02T08:23:40Z</time></trkpt><trkpt lat="45.788272418417776" lon="9.824806328090684"><ele>362.0</ele><time>2026-05-02T08:23:41Z</time></trkpt><trkpt lat="45.788311933338925" lon="9.824880999530183"><ele>362.0</ele><time>2026-05-02T08:23:42Z</time></trkpt><trkpt lat="45.788390034915295" lon="9.825022652012168"><ele>362.0</ele><time>2026-05-02T08:23:44Z</time></trkpt><trkpt lat="45.78846978480585" lon="9.825163704847157"><ele>362.0</ele><time>2026-05-02T08:23:46Z</time></trkpt><trkpt lat="45.78850868845296" lon="9.825237266139352"><ele>362.0</ele><time>2026-05-02T08:23:47Z</time></trkpt><trkpt lat="45.78854504222731" lon="9.825313245458707"><ele>362.0</ele><time>2026-05-02T08:23:48Z</time></trkpt><trkpt lat="45.7885855602272" lon="9.825385564148144"><ele>362.0</ele><time>2026-05-02T08:23:49Z</time></trkpt><trkpt lat="45.78862809830345" lon="9.82545651794599"><ele>362.42857142857144</ele><time>2026-05-02T08:23:50Z</time></trkpt><trkpt lat="45.78866970598542" lon="9.825526267825628"><ele>362.85714285714283</ele><time>2026-05-02T08:23:51Z</time></trkpt><trkpt lat="45.78871361248641" lon="9.825594239790904"><ele>363.28571428571433</ele><time>2026-05-02T08:23:52Z</time></trkpt><trkpt lat="45.788783258499095" lon="9.825748503383153"><ele>363.7142857142857</ele><time>2026-05-02T08:23:54Z</time></trkpt><trkpt lat="45.788815546106406" lon="9.825827796586003"><ele>364.14285714285717</ele><time>2026-05-02T08:23:55Z</time></trkpt><trkpt lat="45.78885223184339" lon="9.825904194427418"><ele>364.5714285714286</ele><time>2026-05-02T08:23:56Z</time></trkpt><trkpt lat="45.78889083550128" lon="9.825977083032795"><ele>365.0</ele><time>2026-05-02T08:23:57Z</time></trkpt><trkpt lat="45.78893259711033" lon="9.826046621221575"><ele>365.33333333333337</ele><time>2026-05-02T08:23:58Z</time></trkpt><trkpt lat="45.78897164270809" lon="9.826122641635619"><ele>365.6666666666667</ele><time>2026-05-02T08:23:59Z</time></trkpt><trkpt lat="45.78905233641014" lon="9.826260805540215"><ele>366.0</ele><time>2026-05-02T08:24:01Z</time></trkpt><trkpt lat="45.78908901161905" lon="9.826336730503208"><ele>366.3333333333333</ele><time>2026-05-02T08:24:02Z</time></trkpt><trkpt lat="45.78912457569657" lon="9.826411640719057"><ele>366.66666666666663</ele><time>2026-05-02T08:24:03Z</time></trkpt><trkpt lat="45.78919903055038" lon="9.826553640890022"><ele>367.0</ele><time>2026-05-02T08:24:05Z</time></trkpt><trkpt lat="45.789238295851" lon="9.826627267639253"><ele>367.0</ele><time>2026-05-02T08:24:06Z</time></trkpt><trkpt lat="45.78927837548881" lon="9.826697746514746"><ele>367.0</ele><time>2026-05-02T08:24:07Z</time></trkpt><trkpt lat="45.789316850056224" lon="9.826771009848427"><ele>367.0</ele><time>2026-05-02T08:24:08Z</time></trkpt><trkpt lat="45.78935231020979" lon="9.826845860027435"><ele>367.0</ele><time>2026-05-02T08:24:09Z</time></trkpt><trkpt lat="45.78942711447689" lon="9.826988666420426"><ele>367.0</ele><time>2026-05-02T08:24:11Z</time></trkpt><trkpt lat="45.78950505408004" lon="9.82713107692855"><ele>367.0</ele><time>2026-05-02T08:24:13Z</time></trkpt><trkpt lat="45.78957924806116" lon="9.827272356743547"><ele>366.8333333333333</ele><time>2026-05-02T08:24:15Z</time></trkpt><trkpt lat="45.78964995823549" lon="9.827419530836341"><ele>366.66666666666663</ele><time>2026-05-02T08:24:17Z</time></trkpt><trkpt lat="45.78968543118275" lon="9.827494996553948"><ele>366.5</ele><time>2026-05-02T08:24:18Z</time></trkpt><trkpt lat="45.78976088142128" lon="9.827640232857027"><ele>366.3333333333333</ele><time>2026-05-02T08:24:20Z</time></trkpt><trkpt lat="45.789801988968456" lon="9.827716431054139"><ele>366.1666666666667</ele><time>2026-05-02T08:24:21Z</time></trkpt><trkpt lat="45.78984203904482" lon="9.827789959032799"><ele>366.0</ele><time>2026-05-02T08:24:22Z</time></trkpt><trkpt lat="45.789878755435986" lon="9.827868703905988"><ele>366.0</ele><time>2026-05-02T08:24:23Z</time></trkpt><trkpt lat="45.78991273565276" lon="9.827945405274363"><ele>366.0</ele><time>2026-05-02T08:24:24Z</time></trkpt><trkpt lat="45.78995225840037" lon="9.828019495441506"><ele>366.0</ele><time>2026-05-02T08:24:25Z</time></trkpt><trkpt lat="45.79002926336112" lon="9.828160711138464"><ele>366.0</ele><time>2026-05-02T08:24:27Z</time></trkpt><trkpt lat="45.790102538044984" lon="9.828307962921635"><ele>366.0</ele><time>2026-05-02T08:24:29Z</time></trkpt><trkpt lat="45.79017885446539" lon="9.82845149332755"><ele>366.14285714285717</ele><time>2026-05-02T08:24:31Z</time></trkpt><trkpt lat="45.790246183528794" lon="9.828601071426851"><ele>366.28571428571433</ele><time>2026-05-02T08:24:33Z</time></trkpt><trkpt lat="45.790284795137985" lon="9.828675798588367"><ele>366.42857142857144</ele><time>2026-05-02T08:24:34Z</time></trkpt><trkpt lat="45.79032353521721" lon="9.828751551538979"><ele>366.57142857142856</ele><time>2026-05-02T08:24:35Z</time></trkpt><trkpt lat="45.790358756262" lon="9.828828142529218"><ele>366.7142857142857</ele><time>2026-05-02T08:24:36Z</time></trkpt><trkpt lat="45.79039560706532" lon="9.828902322277576"><ele>366.85714285714283</ele><time>2026-05-02T08:24:37Z</time></trkpt><trkpt lat="45.79043243503606" lon="9.828978438045652"><ele>367.0</ele><time>2026-05-02T08:24:38Z</time></trkpt><trkpt lat="45.790471510350706" lon="9.829051685423535"><ele>367.0</ele><time>2026-05-02T08:24:39Z</time></trkpt><trkpt lat="45.790508421176355" lon="9.82912642346005"><ele>367.0</ele><time>2026-05-02T08:24:40Z</time></trkpt><trkpt lat="45.790545376255864" lon="9.829200543972389"><ele>367.0</ele><time>2026-05-02T08:24:41Z</time></trkpt><trkpt lat="45.790585941666514" lon="9.82927655120418"><ele>367.0</ele><time>2026-05-02T08:24:42Z</time></trkpt><trkpt lat="45.79062178111575" lon="9.829355258254894"><ele>367.0</ele><time>2026-05-02T08:24:43Z</time></trkpt><trkpt lat="45.790659950493726" lon="9.829431997196778"><ele>367.0</ele><time>2026-05-02T08:24:44Z</time></trkpt><trkpt lat="45.79069811358514" lon="9.829511745292374"><ele>367.0</ele><time>2026-05-02T08:24:45Z</time></trkpt><trkpt lat="45.79073774150245" lon="9.829585542348038"><ele>367.0</ele><time>2026-05-02T08:24:46Z</time></trkpt><trkpt lat="45.79077402266855" lon="9.829663484396864"><ele>367.0</ele><time>2026-05-02T08:24:47Z</time></trkpt><trkpt lat="45.79081289515221" lon="9.829738927188176"><ele>367.0</ele><time>2026-05-02T08:24:48Z</time></trkpt><trkpt lat="45.79085353544487" lon="9.82981413524865"><ele>367.0</ele><time>2026-05-02T08:24:49Z</time></trkpt><trkpt lat="45.79089626249511" lon="9.82988801601429"><ele>367.0</ele><time>2026-05-02T08:24:50Z</time></trkpt><trkpt lat="45.7909350431323" lon="9.829963988040179"><ele>367.0</ele><time>2026-05-02T08:24:51Z</time></trkpt><trkpt lat="45.790972657464664" lon="9.830040270323716"><ele>367.0</ele><time>2026-05-02T08:24:52Z</time></trkpt><trkpt lat="45.791013726314866" lon="9.830114756756865"><ele>366.85714285714283</ele><time>2026-05-02T08:24:53Z</time></trkpt><trkpt lat="45.791057722195255" lon="9.830188632152897"><ele>366.7142857142857</ele><time>2026-05-02T08:24:54Z</time></trkpt><trkpt lat="45.79109727523627" lon="9.830262188227767"><ele>366.57142857142856</ele><time>2026-05-02T08:24:55Z</time></trkpt><trkpt lat="45.7911381960798" lon="9.83033626223185"><ele>366.42857142857144</ele><time>2026-05-02T08:24:56Z</time></trkpt><trkpt lat="45.79117675543059" lon="9.83041382475917"><ele>366.28571428571433</ele><time>2026-05-02T08:24:57Z</time></trkpt><trkpt lat="45.79121820234655" lon="9.830485018040664"><ele>366.14285714285717</ele><time>2026-05-02T08:24:58Z</time></trkpt><trkpt lat="45.79125604157508" lon="9.830564319018865"><ele>366.0</ele><time>2026-05-02T08:24:59Z</time></trkpt><trkpt lat="45.79128716944993" lon="9.830644708849693"><ele>366.0</ele><time>2026-05-02T08:25:00Z</time></trkpt><trkpt lat="45.79132375119154" lon="9.830719967664773"><ele>366.0</ele><time>2026-05-02T08:25:01Z</time></trkpt><trkpt lat="45.79136843640587" lon="9.83079317800386"><ele>366.0</ele><time>2026-05-02T08:25:02Z</time></trkpt><trkpt lat="45.791458396978584" lon="9.830929619122385"><ele>366.0</ele><time>2026-05-02T08:25:04Z</time></trkpt><trkpt lat="45.7915078354641" lon="9.83099100501727"><ele>366.0</ele><time>2026-05-02T08:25:05Z</time></trkpt><trkpt lat="45.791557654285725" lon="9.831058037088525"><ele>366.0</ele><time>2026-05-02T08:25:06Z</time></trkpt><trkpt lat="45.791601826086556" lon="9.831122554185933"><ele>365.8571428571429</ele><time>2026-05-02T08:25:07Z</time></trkpt><trkpt lat="45.79165070822151" lon="9.831190746113027"><ele>365.7142857142857</ele><time>2026-05-02T08:25:08Z</time></trkpt><trkpt lat="45.79169522172511" lon="9.831257413358875"><ele>365.57142857142856</ele><time>2026-05-02T08:25:09Z</time></trkpt><trkpt lat="45.79174130387678" lon="9.83132486413743"><ele>365.42857142857144</ele><time>2026-05-02T08:25:10Z</time></trkpt><trkpt lat="45.79178626041834" lon="9.83139222859751"><ele>365.2857142857143</ele><time>2026-05-02T08:25:11Z</time></trkpt><trkpt lat="45.79183576549415" lon="9.83145740637329"><ele>365.14285714285717</ele><time>2026-05-02T08:25:12Z</time></trkpt><trkpt lat="45.79188364120111" lon="9.83151666232732"><ele>365.0</ele><time>2026-05-02T08:25:13Z</time></trkpt><trkpt lat="45.791936036938345" lon="9.831572983087119"><ele>365.42857142857144</ele><time>2026-05-02T08:25:14Z</time></trkpt><trkpt lat="45.79198656363179" lon="9.83163156860404"><ele>365.8571428571429</ele><time>2026-05-02T08:25:15Z</time></trkpt><trkpt lat="45.79203863725108" lon="9.831688338104927"><ele>366.28571428571433</ele><time>2026-05-02T08:25:16Z</time></trkpt><trkpt lat="45.79209281656527" lon="9.831741926190622"><ele>366.7142857142857</ele><time>2026-05-02T08:25:17Z</time></trkpt><trkpt lat="45.79215057352503" lon="9.831788051868303"><ele>367.1428571428571</ele><time>2026-05-02T08:25:18Z</time></trkpt><trkpt lat="45.7922056669129" lon="9.83183601258754"><ele>367.5714285714286</ele><time>2026-05-02T08:25:19Z</time></trkpt><trkpt lat="45.79226167046589" lon="9.831891529183041"><ele>368.0</ele><time>2026-05-02T08:25:20Z</time></trkpt><trkpt lat="45.79231308316523" lon="9.831951560320165"><ele>368.14285714285717</ele><time>2026-05-02T08:25:21Z</time></trkpt><trkpt lat="45.79236369696825" lon="9.83201365716283"><ele>368.2857142857143</ele><time>2026-05-02T08:25:22Z</time></trkpt><trkpt lat="45.792421142396336" lon="9.832063897791954"><ele>368.42857142857144</ele><time>2026-05-02T08:25:23Z</time></trkpt><trkpt lat="45.792478146684786" lon="9.832111588245187"><ele>368.57142857142856</ele><time>2026-05-02T08:25:24Z</time></trkpt><trkpt lat="45.792534374694576" lon="9.832163501466713"><ele>368.71428571428567</ele><time>2026-05-02T08:25:25Z</time></trkpt><trkpt lat="45.79258949276586" lon="9.832217126488963"><ele>368.85714285714283</ele><time>2026-05-02T08:25:26Z</time></trkpt><trkpt lat="45.79264357088921" lon="9.832270355359944"><ele>369.0</ele><time>2026-05-02T08:25:27Z</time></trkpt><trkpt lat="45.79269550499388" lon="9.832326119577708"><ele>369.0</ele><time>2026-05-02T08:25:28Z</time></trkpt><trkpt lat="45.79274682271175" lon="9.832383775747251"><ele>369.0</ele><time>2026-05-02T08:25:29Z</time></trkpt><trkpt lat="45.792799249808176" lon="9.832441435770827"><ele>369.0</ele><time>2026-05-02T08:25:30Z</time></trkpt><trkpt lat="45.792846695691956" lon="9.832502251882657"><ele>369.0</ele><time>2026-05-02T08:25:31Z</time></trkpt><trkpt lat="45.79294358567154" lon="9.83262462623808"><ele>369.0</ele><time>2026-05-02T08:25:33Z</time></trkpt><trkpt lat="45.792991547146826" lon="9.832686545951608"><ele>369.0</ele><time>2026-05-02T08:25:34Z</time></trkpt><trkpt lat="45.79304811874382" lon="9.832746492059155"><ele>369.3333333333333</ele><time>2026-05-02T08:25:35Z</time></trkpt><trkpt lat="45.79313606050223" lon="9.832879493086141"><ele>369.6666666666667</ele><time>2026-05-02T08:25:37Z</time></trkpt><trkpt lat="45.7931832595488" lon="9.832949693105835"><ele>370.0</ele><time>2026-05-02T08:25:38Z</time></trkpt><trkpt lat="45.79322910165862" lon="9.83301397708483"><ele>370.33333333333337</ele><time>2026-05-02T08:25:39Z</time></trkpt><trkpt lat="45.79327635167609" lon="9.833084653184507"><ele>370.6666666666667</ele><time>2026-05-02T08:25:40Z</time></trkpt><trkpt lat="45.79332145314441" lon="9.833150229773585"><ele>371.0</ele><time>2026-05-02T08:25:41Z</time></trkpt><trkpt lat="45.793362593839504" lon="9.833223933258202"><ele>371.0</ele><time>2026-05-02T08:25:42Z</time></trkpt><trkpt lat="45.793400013556884" lon="9.833301497606259"><ele>371.0</ele><time>2026-05-02T08:25:43Z</time></trkpt><trkpt lat="45.79343799989973" lon="9.833379336108509"><ele>371.0</ele><time>2026-05-02T08:25:44Z</time></trkpt><trkpt lat="45.79347323597912" lon="9.833456548193961"><ele>371.0</ele><time>2026-05-02T08:25:45Z</time></trkpt><trkpt lat="45.79350786544339" lon="9.833535856339294"><ele>371.0</ele><time>2026-05-02T08:25:46Z</time></trkpt><trkpt lat="45.79354286820697" lon="9.833614265355417"><ele>371.0</ele><time>2026-05-02T08:25:47Z</time></trkpt><trkpt lat="45.79357647528603" lon="9.83369230741211"><ele>371.0</ele><time>2026-05-02T08:25:48Z</time></trkpt><trkpt lat="45.793611765246396" lon="9.833769499254984"><ele>371.33333333333337</ele><time>2026-05-02T08:25:49Z</time></trkpt><trkpt lat="45.79364455184119" lon="9.833849797191297"><ele>371.6666666666667</ele><time>2026-05-02T08:25:50Z</time></trkpt><trkpt lat="45.79367837339759" lon="9.83392705902896"><ele>372.0</ele><time>2026-05-02T08:25:51Z</time></trkpt><trkpt lat="45.79374693590273" lon="9.834078732556561"><ele>372.3333333333333</ele><time>2026-05-02T08:25:53Z</time></trkpt><trkpt lat="45.793777039884624" lon="9.834158599210165"><ele>372.66666666666663</ele><time>2026-05-02T08:25:54Z</time></trkpt><trkpt lat="45.7938102787252" lon="9.834237015876692"><ele>373.0</ele><time>2026-05-02T08:25:55Z</time></trkpt><trkpt lat="45.79387591598503" lon="9.834388431585797"><ele>373.14285714285717</ele><time>2026-05-02T08:25:57Z</time></trkpt><trkpt lat="45.793910915903105" lon="9.834467949168186"><ele>373.28571428571433</ele><time>2026-05-02T08:25:58Z</time></trkpt><trkpt lat="45.7939441925843" lon="9.834545620767644"><ele>373.42857142857144</ele><time>2026-05-02T08:25:59Z</time></trkpt><trkpt lat="45.793978505470584" lon="9.834622890426424"><ele>373.57142857142856</ele><time>2026-05-02T08:26:00Z</time></trkpt><trkpt lat="45.79401141173071" lon="9.834700113562077"><ele>373.7142857142857</ele><time>2026-05-02T08:26:01Z</time></trkpt><trkpt lat="45.79404497584147" lon="9.834778023046619"><ele>373.85714285714283</ele><time>2026-05-02T08:26:02Z</time></trkpt><trkpt lat="45.7940690529688" lon="9.83486152960402"><ele>374.0</ele><time>2026-05-02T08:26:03Z</time></trkpt><trkpt lat="45.79411585269035" lon="9.834930699437445"><ele>374.0</ele><time>2026-05-02T08:26:04Z</time></trkpt><trkpt lat="45.794181654589686" lon="9.835081474617288"><ele>374.0</ele><time>2026-05-02T08:26:06Z</time></trkpt><trkpt lat="45.79421043992288" lon="9.835162993998788"><ele>374.0</ele><time>2026-05-02T08:26:07Z</time></trkpt><trkpt lat="45.7942462716059" lon="9.835238456308359"><ele>374.0</ele><time>2026-05-02T08:26:08Z</time></trkpt><trkpt lat="45.794308083878995" lon="9.835392538539674"><ele>374.0</ele><time>2026-05-02T08:26:10Z</time></trkpt><trkpt lat="45.79437436852808" lon="9.835543198774975"><ele>374.25</ele><time>2026-05-02T08:26:12Z</time></trkpt><trkpt lat="45.79443763583324" lon="9.835695839189635"><ele>374.5</ele><time>2026-05-02T08:26:14Z</time></trkpt><trkpt lat="45.79450191485794" lon="9.835848751293073"><ele>374.75</ele><time>2026-05-02T08:26:16Z</time></trkpt><trkpt lat="45.794564050247445" lon="9.836003204825708"><ele>375.0</ele><time>2026-05-02T08:26:18Z</time></trkpt><trkpt lat="45.79462457464306" lon="9.836158012308019"><ele>375.0</ele><time>2026-05-02T08:26:20Z</time></trkpt><trkpt lat="45.79467714819217" lon="9.836316316635953"><ele>375.0</ele><time>2026-05-02T08:26:22Z</time></trkpt><trkpt lat="45.79470550290426" lon="9.836397442010705"><ele>375.0</ele><time>2026-05-02T08:26:23Z</time></trkpt><trkpt lat="45.794754755729485" lon="9.836559739201107"><ele>375.0</ele><time>2026-05-02T08:26:25Z</time></trkpt><trkpt lat="45.79477855862269" lon="9.836644905764627"><ele>375.0</ele><time>2026-05-02T08:26:26Z</time></trkpt><trkpt lat="45.79480101878801" lon="9.836730115052267"><ele>375.0</ele><time>2026-05-02T08:26:27Z</time></trkpt><trkpt lat="45.794826475657736" lon="9.836814134437143"><ele>374.8571428571429</ele><time>2026-05-02T08:26:28Z</time></trkpt><trkpt lat="45.794848584453796" lon="9.836900702035294"><ele>374.71428571428567</ele><time>2026-05-02T08:26:29Z</time></trkpt><trkpt lat="45.79486892935502" lon="9.836988137644003"><ele>374.57142857142856</ele><time>2026-05-02T08:26:30Z</time></trkpt><trkpt lat="45.79488966654366" lon="9.837075436373304"><ele>374.42857142857144</ele><time>2026-05-02T08:26:31Z</time></trkpt><trkpt lat="45.79493078511152" lon="9.83724401595405"><ele>374.28571428571433</ele><time>2026-05-02T08:26:33Z</time></trkpt><trkpt lat="45.79493901944551" lon="9.837333803631994"><ele>374.1428571428571</ele><time>2026-05-02T08:26:34Z</time></trkpt><trkpt lat="45.79495799162688" lon="9.837420567969795"><ele>374.0</ele><time>2026-05-02T08:26:35Z</time></trkpt><trkpt lat="45.794974885476165" lon="9.837509399046558"><ele>374.0</ele><time>2026-05-02T08:26:36Z</time></trkpt><trkpt lat="45.7949874924193" lon="9.837598942568732"><ele>374.0</ele><time>2026-05-02T08:26:37Z</time></trkpt><trkpt lat="45.794998786440416" lon="9.83768972056621"><ele>374.0</ele><time>2026-05-02T08:26:38Z</time></trkpt><trkpt lat="45.795011326031556" lon="9.837778933401628"><ele>374.0</ele><time>2026-05-02T08:26:39Z</time></trkpt><trkpt lat="45.79503485803643" lon="9.83794935113899"><ele>374.0</ele><time>2026-05-02T08:26:41Z</time></trkpt><trkpt lat="45.795055028317485" lon="9.838115617493504"><ele>374.0</ele><time>2026-05-02T08:26:43Z</time></trkpt><trkpt lat="45.795075651341904" lon="9.838295570088958"><ele>374.0</ele><time>2026-05-02T08:26:45Z</time></trkpt><trkpt lat="45.795085721368544" lon="9.838385344887884"><ele>374.0</ele><time>2026-05-02T08:26:46Z</time></trkpt><trkpt lat="45.79509463943033" lon="9.838480206502043"><ele>374.0</ele><time>2026-05-02T08:26:47Z</time></trkpt><trkpt lat="45.795103126888534" lon="9.838572725677793"><ele>374.0</ele><time>2026-05-02T08:26:48Z</time></trkpt><trkpt lat="45.79511366191624" lon="9.838664226384507"><ele>374.0</ele><time>2026-05-02T08:26:49Z</time></trkpt><trkpt lat="45.79512333594568" lon="9.838755670492018"><ele>374.0</ele><time>2026-05-02T08:26:50Z</time></trkpt><trkpt lat="45.795134071492335" lon="9.838847592872291"><ele>374.0</ele><time>2026-05-02T08:26:51Z</time></trkpt><trkpt lat="45.79514675011171" lon="9.838939793549498"><ele>374.0</ele><time>2026-05-02T08:26:52Z</time></trkpt><trkpt lat="45.795157029575904" lon="9.839030647019783"><ele>374.0</ele><time>2026-05-02T08:26:53Z</time></trkpt><trkpt lat="45.79516668083691" lon="9.83912233099356"><ele>374.0</ele><time>2026-05-02T08:26:54Z</time></trkpt><trkpt lat="45.79517588747784" lon="9.83921506263435"><ele>374.0</ele><time>2026-05-02T08:26:55Z</time></trkpt><trkpt lat="45.79518676909265" lon="9.839304837769646"><ele>374.0</ele><time>2026-05-02T08:26:56Z</time></trkpt><trkpt lat="45.795194429165406" lon="9.839396476557091"><ele>374.0</ele><time>2026-05-02T08:26:57Z</time></trkpt><trkpt lat="45.79520711885642" lon="9.8394888887614"><ele>374.0</ele><time>2026-05-02T08:26:58Z</time></trkpt><trkpt lat="45.795219337740235" lon="9.839579388474192"><ele>374.4285714285714</ele><time>2026-05-02T08:26:59Z</time></trkpt><trkpt lat="45.79522708341249" lon="9.839670194698103"><ele>374.8571428571429</ele><time>2026-05-02T08:27:00Z</time></trkpt><trkpt lat="45.795239931270515" lon="9.839761533056006"><ele>375.2857142857143</ele><time>2026-05-02T08:27:01Z</time></trkpt><trkpt lat="45.795252132706636" lon="9.839854259501895"><ele>375.71428571428567</ele><time>2026-05-02T08:27:02Z</time></trkpt><trkpt lat="45.79525959616068" lon="9.839946746348772"><ele>376.1428571428571</ele><time>2026-05-02T08:27:03Z</time></trkpt><trkpt lat="45.79527196959906" lon="9.840039335018119"><ele>376.57142857142856</ele><time>2026-05-02T08:27:04Z</time></trkpt><trkpt lat="45.79528465386936" lon="9.840131474770622"><ele>377.0</ele><time>2026-05-02T08:27:05Z</time></trkpt><trkpt lat="45.7953072318457" lon="9.840308055668642"><ele>377.0</ele><time>2026-05-02T08:27:07Z</time></trkpt><trkpt lat="45.79532214093955" lon="9.840398178945126"><ele>377.0</ele><time>2026-05-02T08:27:08Z</time></trkpt><trkpt lat="45.79533128573988" lon="9.840489974724255"><ele>377.0</ele><time>2026-05-02T08:27:09Z</time></trkpt><trkpt lat="45.79534299261436" lon="9.84058148561887"><ele>377.0</ele><time>2026-05-02T08:27:10Z</time></trkpt><trkpt lat="45.7953772629022" lon="9.840755471002533"><ele>377.0</ele><time>2026-05-02T08:27:12Z</time></trkpt><trkpt lat="45.7953950651393" lon="9.840845132463466"><ele>377.0</ele><time>2026-05-02T08:27:13Z</time></trkpt><trkpt lat="45.795415521409645" lon="9.840933789717514"><ele>376.83333333333337</ele><time>2026-05-02T08:27:14Z</time></trkpt><trkpt lat="45.79543961530304" lon="9.841018315911322"><ele>376.6666666666667</ele><time>2026-05-02T08:27:15Z</time></trkpt><trkpt lat="45.7954609276344" lon="9.84110594750008"><ele>376.5</ele><time>2026-05-02T08:27:16Z</time></trkpt><trkpt lat="45.79548417500778" lon="9.84119305187371"><ele>376.3333333333333</ele><time>2026-05-02T08:27:17Z</time></trkpt><trkpt lat="45.79553871481352" lon="9.84136056495242"><ele>376.16666666666663</ele><time>2026-05-02T08:27:19Z</time></trkpt><trkpt lat="45.79558719490174" lon="9.841518642251128"><ele>376.0</ele><time>2026-05-02T08:27:21Z</time></trkpt><trkpt lat="45.79561780203216" lon="9.84159783310356"><ele>376.0</ele><time>2026-05-02T08:27:22Z</time></trkpt><trkpt lat="45.79564734202706" lon="9.841679455656466"><ele>376.0</ele><time>2026-05-02T08:27:23Z</time></trkpt><trkpt lat="45.795685203770034" lon="9.841837149904665"><ele>376.0</ele><time>2026-05-02T08:27:25Z</time></trkpt><trkpt lat="45.79575416850123" lon="9.841906087926432"><ele>376.0</ele><time>2026-05-02T08:27:26Z</time></trkpt><trkpt lat="45.79578081502473" lon="9.841991877473115"><ele>376.0</ele><time>2026-05-02T08:27:27Z</time></trkpt><trkpt lat="45.79581769533506" lon="9.842066318074322"><ele>376.0</ele><time>2026-05-02T08:27:28Z</time></trkpt><trkpt lat="45.79585033487452" lon="9.842144775002664"><ele>375.8333333333333</ele><time>2026-05-02T08:27:29Z</time></trkpt><trkpt lat="45.79589933779256" lon="9.842205082563712"><ele>375.66666666666663</ele><time>2026-05-02T08:27:30Z</time></trkpt><trkpt lat="45.795952819653785" lon="9.842254739967442"><ele>375.5</ele><time>2026-05-02T08:27:31Z</time></trkpt><trkpt lat="45.79597574647685" lon="9.842367329702588"><ele>375.3333333333333</ele><time>2026-05-02T08:27:32Z</time></trkpt><trkpt lat="45.796022780379495" lon="9.842432949514981"><ele>375.1666666666667</ele><time>2026-05-02T08:27:33Z</time></trkpt><trkpt lat="45.79609730684306" lon="9.842585579881293"><ele>375.0</ele><time>2026-05-02T08:27:35Z</time></trkpt><trkpt lat="45.79614390352028" lon="9.84266069128568"><ele>376.0</ele><time>2026-05-02T08:27:36Z</time></trkpt><trkpt lat="45.79621239157091" lon="9.842813460749204"><ele>377.0</ele><time>2026-05-02T08:27:38Z</time></trkpt><trkpt lat="45.796251220802674" lon="9.842889191829705"><ele>378.0</ele><time>2026-05-02T08:27:39Z</time></trkpt><trkpt lat="45.79628953391459" lon="9.84296587985858"><ele>379.0</ele><time>2026-05-02T08:27:40Z</time></trkpt><trkpt lat="45.79632414260884" lon="9.843043574829283"><ele>380.0</ele><time>2026-05-02T08:27:41Z</time></trkpt><trkpt lat="45.79636108102951" lon="9.843121722032308"><ele>381.0</ele><time>2026-05-02T08:27:42Z</time></trkpt><trkpt lat="45.79639835673255" lon="9.843199805594038"><ele>381.0</ele><time>2026-05-02T08:27:43Z</time></trkpt><trkpt lat="45.79642942818423" lon="9.843283413960243"><ele>381.0</ele><time>2026-05-02T08:27:44Z</time></trkpt><trkpt lat="45.79646181563863" lon="9.843364889183988"><ele>381.0</ele><time>2026-05-02T08:27:45Z</time></trkpt><trkpt lat="45.7964890844481" lon="9.843448253935852"><ele>381.0</ele><time>2026-05-02T08:27:46Z</time></trkpt><trkpt lat="45.79652147327501" lon="9.84353400251126"><ele>381.0</ele><time>2026-05-02T08:27:47Z</time></trkpt><trkpt lat="45.796549985977144" lon="9.843616344132107"><ele>381.0</ele><time>2026-05-02T08:27:48Z</time></trkpt><trkpt lat="45.79657877723878" lon="9.843701104318393"><ele>381.0</ele><time>2026-05-02T08:27:49Z</time></trkpt><trkpt lat="45.79660327477646" lon="9.843786096059006"><ele>380.85714285714283</ele><time>2026-05-02T08:27:50Z</time></trkpt><trkpt lat="45.79663018928939" lon="9.84387281796441"><ele>380.7142857142857</ele><time>2026-05-02T08:27:51Z</time></trkpt><trkpt lat="45.79665410723134" lon="9.843958935540153"><ele>380.57142857142856</ele><time>2026-05-02T08:27:52Z</time></trkpt><trkpt lat="45.796676068519204" lon="9.844044168331578"><ele>380.42857142857144</ele><time>2026-05-02T08:27:53Z</time></trkpt><trkpt lat="45.79670064833263" lon="9.844130226061731"><ele>380.28571428571433</ele><time>2026-05-02T08:27:54Z</time></trkpt><trkpt lat="45.79672632375632" lon="9.844214751714798"><ele>380.14285714285717</ele><time>2026-05-02T08:27:55Z</time></trkpt><trkpt lat="45.79675932923581" lon="9.844296967775312"><ele>380.0</ele><time>2026-05-02T08:27:56Z</time></trkpt><trkpt lat="45.796774841372105" lon="9.844384768162213"><ele>379.83333333333337</ele><time>2026-05-02T08:27:57Z</time></trkpt><trkpt lat="45.79680385663456" lon="9.844472079765136"><ele>379.6666666666667</ele><time>2026-05-02T08:27:58Z</time></trkpt><trkpt lat="45.796827884978" lon="9.844556933623997"><ele>379.5</ele><time>2026-05-02T08:27:59Z</time></trkpt><trkpt lat="45.79685263743334" lon="9.844642940979869"><ele>379.3333333333333</ele><time>2026-05-02T08:28:00Z</time></trkpt><trkpt lat="45.79687991754395" lon="9.844736051997845"><ele>379.16666666666663</ele><time>2026-05-02T08:28:01Z</time></trkpt><trkpt lat="45.796923823719" lon="9.8448944579249"><ele>379.0</ele><time>2026-05-02T08:28:03Z</time></trkpt><trkpt lat="45.79697094170917" lon="9.845060785413908"><ele>379.4</ele><time>2026-05-02T08:28:05Z</time></trkpt><trkpt lat="45.79699482004308" lon="9.845145280843047"><ele>379.79999999999995</ele><time>2026-05-02T08:28:06Z</time></trkpt><trkpt lat="45.79700819239779" lon="9.845292904844442"><ele>380.20000000000005</ele><time>2026-05-02T08:28:08Z</time></trkpt><trkpt lat="45.79706752043657" lon="9.845396624185822"><ele>380.6</ele><time>2026-05-02T08:28:09Z</time></trkpt><trkpt lat="45.797093006650826" lon="9.845482182369224"><ele>381.0</ele><time>2026-05-02T08:28:10Z</time></trkpt><trkpt lat="45.79714439140693" lon="9.845643925278443"><ele>381.0</ele><time>2026-05-02T08:28:12Z</time></trkpt><trkpt lat="45.79717364476126" lon="9.845725019731018"><ele>381.0</ele><time>2026-05-02T08:28:13Z</time></trkpt><trkpt lat="45.79719413308024" lon="9.84581093084554"><ele>381.0</ele><time>2026-05-02T08:28:14Z</time></trkpt><trkpt lat="45.79722142321699" lon="9.845893478070995"><ele>381.0</ele><time>2026-05-02T08:28:15Z</time></trkpt><trkpt lat="45.79727237035913" lon="9.846052661527178"><ele>381.0</ele><time>2026-05-02T08:28:17Z</time></trkpt><trkpt lat="45.79733593388482" lon="9.84621130250116"><ele>381.0</ele><time>2026-05-02T08:28:19Z</time></trkpt><trkpt lat="45.797368592415765" lon="9.846289270212074"><ele>380.8333333333333</ele><time>2026-05-02T08:28:20Z</time></trkpt><trkpt lat="45.79740554489815" lon="9.846367195323785"><ele>380.6666666666667</ele><time>2026-05-02T08:28:21Z</time></trkpt><trkpt lat="45.79743991314503" lon="9.846447135375259"><ele>380.5</ele><time>2026-05-02T08:28:22Z</time></trkpt><trkpt lat="45.79747094783888" lon="9.846528701192371"><ele>380.33333333333337</ele><time>2026-05-02T08:28:23Z</time></trkpt><trkpt lat="45.797537743269714" lon="9.84667992448853"><ele>380.1666666666667</ele><time>2026-05-02T08:28:25Z</time></trkpt><trkpt lat="45.79760820843621" lon="9.846827788619326"><ele>380.0</ele><time>2026-05-02T08:28:27Z</time></trkpt><trkpt lat="45.797686116702295" lon="9.846968868932361"><ele>380.0</ele><time>2026-05-02T08:28:29Z</time></trkpt><trkpt lat="45.79773371130517" lon="9.847037620445038"><ele>380.0</ele><time>2026-05-02T08:28:30Z</time></trkpt><trkpt lat="45.79781839806835" lon="9.847168336974708"><ele>380.0</ele><time>2026-05-02T08:28:32Z</time></trkpt><trkpt lat="45.79790526272165" lon="9.847300487658737"><ele>380.0</ele><time>2026-05-02T08:28:34Z</time></trkpt><trkpt lat="45.79799316663867" lon="9.847430436081646"><ele>380.0</ele><time>2026-05-02T08:28:36Z</time></trkpt><trkpt lat="45.798042276029015" lon="9.847489570349044"><ele>380.0</ele><time>2026-05-02T08:28:37Z</time></trkpt><trkpt lat="45.79809251637076" lon="9.847550984154916"><ele>380.0</ele><time>2026-05-02T08:28:38Z</time></trkpt><trkpt lat="45.79819023004321" lon="9.847666327213725"><ele>380.0</ele><time>2026-05-02T08:28:40Z</time></trkpt><trkpt lat="45.79823962816186" lon="9.84772721555616"><ele>380.0</ele><time>2026-05-02T08:28:41Z</time></trkpt><trkpt lat="45.798290896237894" lon="9.84778141422903"><ele>380.0</ele><time>2026-05-02T08:28:42Z</time></trkpt><trkpt lat="45.798341880283786" lon="9.847835717700992"><ele>380.0</ele><time>2026-05-02T08:28:43Z</time></trkpt><trkpt lat="45.798444805850856" lon="9.847940251960939"><ele>380.4</ele><time>2026-05-02T08:28:45Z</time></trkpt><trkpt lat="45.798548291073956" lon="9.848036821330185"><ele>380.8</ele><time>2026-05-02T08:28:47Z</time></trkpt><trkpt lat="45.798614253810236" lon="9.848076596967715"><ele>381.20000000000005</ele><time>2026-05-02T08:28:48Z</time></trkpt><trkpt lat="45.79872367648461" lon="9.848163065382035"><ele>381.6</ele><time>2026-05-02T08:28:50Z</time></trkpt><trkpt lat="45.79882031646017" lon="9.848236494825667"><ele>382.0</ele><time>2026-05-02T08:28:52Z</time></trkpt><trkpt lat="45.798885338327025" lon="9.84827885444499"><ele>382.0</ele><time>2026-05-02T08:28:53Z</time></trkpt><trkpt lat="45.79900081399939" lon="9.848355159459274"><ele>382.0</ele><time>2026-05-02T08:28:55Z</time></trkpt><trkpt lat="45.79905902144641" lon="9.848392871667425"><ele>382.0</ele><time>2026-05-02T08:28:56Z</time></trkpt><trkpt lat="45.79911745820447" lon="9.848428537965317"><ele>382.0</ele><time>2026-05-02T08:28:57Z</time></trkpt><trkpt lat="45.799175265144235" lon="9.84846526848569"><ele>382.0</ele><time>2026-05-02T08:28:58Z</time></trkpt><trkpt lat="45.79928967771042" lon="9.848536546133824"><ele>382.0</ele><time>2026-05-02T08:29:00Z</time></trkpt><trkpt lat="45.79934974473947" lon="9.84857473959056"><ele>381.5714285714286</ele><time>2026-05-02T08:29:01Z</time></trkpt><trkpt lat="45.799407352613706" lon="9.848613839885113"><ele>381.1428571428571</ele><time>2026-05-02T08:29:02Z</time></trkpt><trkpt lat="45.799465002421634" lon="9.848653229432736"><ele>380.7142857142857</ele><time>2026-05-02T08:29:03Z</time></trkpt><trkpt lat="45.799523184238176" lon="9.848688489743875"><ele>380.28571428571433</ele><time>2026-05-02T08:29:04Z</time></trkpt><trkpt lat="45.79958038847089" lon="9.848728386987336"><ele>379.8571428571429</ele><time>2026-05-02T08:29:05Z</time></trkpt><trkpt lat="45.79963978811" lon="9.848764203418863"><ele>379.42857142857144</ele><time>2026-05-02T08:29:06Z</time></trkpt><trkpt lat="45.799757756645164" lon="9.848833989693253"><ele>379.0</ele><time>2026-05-02T08:29:08Z</time></trkpt><trkpt lat="45.79981575116079" lon="9.8488726718161"><ele>379.00000000000006</ele><time>2026-05-02T08:29:09Z</time></trkpt><trkpt lat="45.79987528525276" lon="9.848909953277657"><ele>379.0</ele><time>2026-05-02T08:29:10Z</time></trkpt><trkpt lat="45.7999348722331" lon="9.848943608664078"><ele>379.0</ele><time>2026-05-02T08:29:11Z</time></trkpt><trkpt lat="45.79999551071259" lon="9.848978188017067"><ele>379.0</ele><time>2026-05-02T08:29:12Z</time></trkpt><trkpt lat="45.80005375931341" lon="9.849015592438494"><ele>379.0</ele><time>2026-05-02T08:29:13Z</time></trkpt><trkpt lat="45.80011664208361" lon="9.849042380662778"><ele>379.00000000000006</ele><time>2026-05-02T08:29:14Z</time></trkpt><trkpt lat="45.80022859917314" lon="9.849124791127425"><ele>379.0</ele><time>2026-05-02T08:29:16Z</time></trkpt><trkpt lat="45.80028938716801" lon="9.849158560697777"><ele>379.66666666666663</ele><time>2026-05-02T08:29:17Z</time></trkpt><trkpt lat="45.8003470945575" lon="9.849200373051689"><ele>380.3333333333333</ele><time>2026-05-02T08:29:18Z</time></trkpt><trkpt lat="45.80040808677587" lon="9.849236933800558"><ele>381.0</ele><time>2026-05-02T08:29:19Z</time></trkpt><trkpt lat="45.80046724441465" lon="9.849273380316559"><ele>381.6666666666667</ele><time>2026-05-02T08:29:20Z</time></trkpt><trkpt lat="45.800526723426" lon="9.849311461315471"><ele>382.33333333333337</ele><time>2026-05-02T08:29:21Z</time></trkpt><trkpt lat="45.80064366322498" lon="9.84938553290081"><ele>383.0</ele><time>2026-05-02T08:29:23Z</time></trkpt><trkpt lat="45.800704344301316" lon="9.849420375793818"><ele>383.1666666666667</ele><time>2026-05-02T08:29:24Z</time></trkpt><trkpt lat="45.80076213540238" lon="9.849458931403008"><ele>383.33333333333337</ele><time>2026-05-02T08:29:25Z</time></trkpt><trkpt lat="45.800876171428996" lon="9.849530564042347"><ele>383.5</ele><time>2026-05-02T08:29:27Z</time></trkpt><trkpt lat="45.80093359179924" lon="9.849569084187141"><ele>383.6666666666667</ele><time>2026-05-02T08:29:28Z</time></trkpt><trkpt lat="45.80099496545144" lon="9.849602037513517"><ele>383.8333333333333</ele><time>2026-05-02T08:29:29Z</time></trkpt><trkpt lat="45.80105342076068" lon="9.84963837768512"><ele>384.0</ele><time>2026-05-02T08:29:30Z</time></trkpt><trkpt lat="45.80116823513057" lon="9.849713056307277"><ele>384.1428571428571</ele><time>2026-05-02T08:29:32Z</time></trkpt><trkpt lat="45.80122708815987" lon="9.849748678165572"><ele>384.2857142857143</ele><time>2026-05-02T08:29:33Z</time></trkpt><trkpt lat="45.801287920722615" lon="9.849783542908025"><ele>384.42857142857144</ele><time>2026-05-02T08:29:34Z</time></trkpt><trkpt lat="45.80140326432512" lon="9.849855762966536"><ele>384.57142857142856</ele><time>2026-05-02T08:29:36Z</time></trkpt><trkpt lat="45.80146186287693" lon="9.849895983892102"><ele>384.7142857142857</ele><time>2026-05-02T08:29:37Z</time></trkpt><trkpt lat="45.801519634971015" lon="9.849932751488195"><ele>384.85714285714283</ele><time>2026-05-02T08:29:38Z</time></trkpt><trkpt lat="45.80157755855545" lon="9.849970640759043"><ele>385.0</ele><time>2026-05-02T08:29:39Z</time></trkpt><trkpt lat="45.80163699538673" lon="9.850005846721473"><ele>385.0</ele><time>2026-05-02T08:29:40Z</time></trkpt><trkpt lat="45.801696994832575" lon="9.850043776816635"><ele>385.0</ele><time>2026-05-02T08:29:41Z</time></trkpt><trkpt lat="45.801753370042604" lon="9.85008473183509"><ele>385.0</ele><time>2026-05-02T08:29:42Z</time></trkpt><trkpt lat="45.80181015116432" lon="9.850125214998762"><ele>385.0</ele><time>2026-05-02T08:29:43Z</time></trkpt><trkpt lat="45.80186859463902" lon="9.850159258688903"><ele>385.0</ele><time>2026-05-02T08:29:44Z</time></trkpt><trkpt lat="45.8019267734935" lon="9.850196321766003"><ele>385.0</ele><time>2026-05-02T08:29:45Z</time></trkpt><trkpt lat="45.8019871531996" lon="9.850228784601379"><ele>385.0</ele><time>2026-05-02T08:29:46Z</time></trkpt><trkpt lat="45.80210275259281" lon="9.85029983823923"><ele>385.25</ele><time>2026-05-02T08:29:48Z</time></trkpt><trkpt lat="45.80221839867464" lon="9.850369563635422"><ele>385.5</ele><time>2026-05-02T08:29:50Z</time></trkpt><trkpt lat="45.80233145583726" lon="9.850435615344098"><ele>385.75</ele><time>2026-05-02T08:29:52Z</time></trkpt><trkpt lat="45.8024428711812" lon="9.850508342072004"><ele>386.0</ele><time>2026-05-02T08:29:54Z</time></trkpt><trkpt lat="45.80255820546761" lon="9.850581422067824"><ele>386.20000000000005</ele><time>2026-05-02T08:29:56Z</time></trkpt><trkpt lat="45.8026715261497" lon="9.850650499516911"><ele>386.40000000000003</ele><time>2026-05-02T08:29:58Z</time></trkpt><trkpt lat="45.80278213958991" lon="9.85072200361502"><ele>386.6</ele><time>2026-05-02T08:30:00Z</time></trkpt><trkpt lat="45.80284028612223" lon="9.850759550802113"><ele>386.8</ele><time>2026-05-02T08:30:01Z</time></trkpt><trkpt lat="45.802953771126504" lon="9.85083038883267"><ele>387.0</ele><time>2026-05-02T08:30:03Z</time></trkpt><trkpt lat="45.80301218127914" lon="9.850865307781639"><ele>387.0</ele><time>2026-05-02T08:30:04Z</time></trkpt><trkpt lat="45.8031392425711" lon="9.850948313924917"><ele>387.0</ele><time>2026-05-02T08:30:06Z</time></trkpt><trkpt lat="45.80324773311886" lon="9.850999392834488"><ele>387.0</ele><time>2026-05-02T08:30:08Z</time></trkpt><trkpt lat="45.80334975301523" lon="9.851098056509388"><ele>387.0</ele><time>2026-05-02T08:30:10Z</time></trkpt><trkpt lat="45.80345788710188" lon="9.851182338673745"><ele>387.0</ele><time>2026-05-02T08:30:12Z</time></trkpt><trkpt lat="45.80356270336425" lon="9.851274726279213"><ele>387.0</ele><time>2026-05-02T08:30:14Z</time></trkpt><trkpt lat="45.80361597304971" lon="9.851323949180008"><ele>387.0</ele><time>2026-05-02T08:30:15Z</time></trkpt><trkpt lat="45.80371799115026" lon="9.85142667301514"><ele>387.0</ele><time>2026-05-02T08:30:17Z</time></trkpt><trkpt lat="45.80381727463572" lon="9.851535750989802"><ele>387.0</ele><time>2026-05-02T08:30:19Z</time></trkpt><trkpt lat="45.80391266065326" lon="9.851647517283865"><ele>387.0</ele><time>2026-05-02T08:30:21Z</time></trkpt><trkpt lat="45.80401368048206" lon="9.851759838181122"><ele>387.0</ele><time>2026-05-02T08:30:23Z</time></trkpt><trkpt lat="45.80411149193173" lon="9.851874303054199"><ele>387.0</ele><time>2026-05-02T08:30:25Z</time></trkpt><trkpt lat="45.80416127023513" lon="9.851934120855997"><ele>387.0</ele><time>2026-05-02T08:30:26Z</time></trkpt><trkpt lat="45.804207193505604" lon="9.852001380938907"><ele>387.0</ele><time>2026-05-02T08:30:27Z</time></trkpt><trkpt lat="45.80426084592632" lon="9.852058238459588"><ele>386.8571428571429</ele><time>2026-05-02T08:30:28Z</time></trkpt><trkpt lat="45.80431084225787" lon="9.852119071733945"><ele>386.7142857142857</ele><time>2026-05-02T08:30:29Z</time></trkpt><trkpt lat="45.804359489100534" lon="9.852178657520234"><ele>386.57142857142856</ele><time>2026-05-02T08:30:30Z</time></trkpt><trkpt lat="45.80441053687649" lon="9.852234770543731"><ele>386.42857142857144</ele><time>2026-05-02T08:30:31Z</time></trkpt><trkpt lat="45.804459830901806" lon="9.852291083510945"><ele>386.2857142857143</ele><time>2026-05-02T08:30:32Z</time></trkpt><trkpt lat="45.80450908895313" lon="9.852351601304509"><ele>386.14285714285717</ele><time>2026-05-02T08:30:33Z</time></trkpt><trkpt lat="45.80460863877805" lon="9.852456767534266"><ele>386.0</ele><time>2026-05-02T08:30:35Z</time></trkpt><trkpt lat="45.8047077886938" lon="9.852576845843743"><ele>387.20000000000005</ele><time>2026-05-02T08:30:37Z</time></trkpt><trkpt lat="45.80480336598629" lon="9.85269202515261"><ele>388.40000000000003</ele><time>2026-05-02T08:30:39Z</time></trkpt><trkpt lat="45.80485387464086" lon="9.852756182281578"><ele>389.6</ele><time>2026-05-02T08:30:40Z</time></trkpt><trkpt lat="45.80495254982988" lon="9.852879990086947"><ele>390.8</ele><time>2026-05-02T08:30:42Z</time></trkpt><trkpt lat="45.80500844189619" lon="9.852940032603817"><ele>392.0</ele><time>2026-05-02T08:30:43Z</time></trkpt><trkpt lat="45.805098487232954" lon="9.853064633274835"><ele>391.99999999999994</ele><time>2026-05-02T08:30:45Z</time></trkpt><trkpt lat="45.805151274058275" lon="9.853125052352532"><ele>392.0</ele><time>2026-05-02T08:30:46Z</time></trkpt><trkpt lat="45.80525138848358" lon="9.853233175466343"><ele>392.0</ele><time>2026-05-02T08:30:48Z</time></trkpt><trkpt lat="45.80530173641832" lon="9.853295332993701"><ele>392.0</ele><time>2026-05-02T08:30:49Z</time></trkpt><trkpt lat="45.80534880810955" lon="9.853355753505335"><ele>391.99999999999994</ele><time>2026-05-02T08:30:50Z</time></trkpt><trkpt lat="45.80539786949803" lon="9.853415417048609"><ele>392.0</ele><time>2026-05-02T08:30:51Z</time></trkpt><trkpt lat="45.80544786529637" lon="9.853473720706655"><ele>392.20000000000005</ele><time>2026-05-02T08:30:52Z</time></trkpt><trkpt lat="45.80554317890061" lon="9.853584600680987"><ele>392.4</ele><time>2026-05-02T08:30:54Z</time></trkpt><trkpt lat="45.80563340224523" lon="9.85368836736971"><ele>392.6</ele><time>2026-05-02T08:30:56Z</time></trkpt><trkpt lat="45.80572343513021" lon="9.85379643918316"><ele>392.79999999999995</ele><time>2026-05-02T08:30:58Z</time></trkpt><trkpt lat="45.80577289311896" lon="9.853854292137306"><ele>393.0</ele><time>2026-05-02T08:30:59Z</time></trkpt><trkpt lat="45.80586985564015" lon="9.853970297433936"><ele>393.0</ele><time>2026-05-02T08:31:01Z</time></trkpt><trkpt lat="45.80596807671909" lon="9.85408584324963"><ele>393.0</ele><time>2026-05-02T08:31:03Z</time></trkpt><trkpt lat="45.80606212939307" lon="9.8541995867435"><ele>393.0</ele><time>2026-05-02T08:31:05Z</time></trkpt><trkpt lat="45.806152072991665" lon="9.85431404463284"><ele>393.0</ele><time>2026-05-02T08:31:07Z</time></trkpt><trkpt lat="45.806200947773206" lon="9.854372025009537"><ele>393.0</ele><time>2026-05-02T08:31:08Z</time></trkpt><trkpt lat="45.80626599552997" lon="9.85450701282465"><ele>393.5714285714286</ele><time>2026-05-02T08:31:10Z</time></trkpt><trkpt lat="45.80628533947897" lon="9.85465816201452"><ele>394.14285714285717</ele><time>2026-05-02T08:31:12Z</time></trkpt><trkpt lat="45.80631615356593" lon="9.854741105891865"><ele>394.7142857142857</ele><time>2026-05-02T08:31:13Z</time></trkpt><trkpt lat="45.806361647538324" lon="9.854814309043558"><ele>395.28571428571433</ele><time>2026-05-02T08:31:14Z</time></trkpt><trkpt lat="45.80641530950599" lon="9.854866234776667"><ele>395.85714285714283</ele><time>2026-05-02T08:31:15Z</time></trkpt><trkpt lat="45.806478311600344" lon="9.854896383036186"><ele>396.42857142857144</ele><time>2026-05-02T08:31:16Z</time></trkpt><trkpt lat="45.80654148889566" lon="9.854918920167325"><ele>397.0</ele><time>2026-05-02T08:31:17Z</time></trkpt><trkpt lat="45.80660080877028" lon="9.85495346067562"><ele>397.0</ele><time>2026-05-02T08:31:18Z</time></trkpt><trkpt lat="45.806660232305354" lon="9.854996659706558"><ele>397.0</ele><time>2026-05-02T08:31:19Z</time></trkpt><trkpt lat="45.80671024101121" lon="9.855056117686884"><ele>397.0</ele><time>2026-05-02T08:31:20Z</time></trkpt><trkpt lat="45.8067515335567" lon="9.855130015031298"><ele>397.0</ele><time>2026-05-02T08:31:21Z</time></trkpt><trkpt lat="45.806790024129846" lon="9.855206835727502"><ele>397.0</ele><time>2026-05-02T08:31:22Z</time></trkpt><trkpt lat="45.806835389099" lon="9.855278333137665"><ele>397.0</ele><time>2026-05-02T08:31:23Z</time></trkpt><trkpt lat="45.80687876784945" lon="9.855349080865736"><ele>397.0</ele><time>2026-05-02T08:31:24Z</time></trkpt><trkpt lat="45.806921986745685" lon="9.855420033440732"><ele>396.85714285714283</ele><time>2026-05-02T08:31:25Z</time></trkpt><trkpt lat="45.806966327472885" lon="9.855490956753394"><ele>396.71428571428567</ele><time>2026-05-02T08:31:26Z</time></trkpt><trkpt lat="45.80701027329632" lon="9.855562751707053"><ele>396.57142857142856</ele><time>2026-05-02T08:31:27Z</time></trkpt><trkpt lat="45.80705323208399" lon="9.855633846768866"><ele>396.42857142857144</ele><time>2026-05-02T08:31:28Z</time></trkpt><trkpt lat="45.80709869953872" lon="9.855703147774646"><ele>396.2857142857143</ele><time>2026-05-02T08:31:29Z</time></trkpt><trkpt lat="45.80714369773192" lon="9.855769556108159"><ele>396.14285714285717</ele><time>2026-05-02T08:31:30Z</time></trkpt><trkpt lat="45.807184781395854" lon="9.855840358085858"><ele>396.0</ele><time>2026-05-02T08:31:31Z</time></trkpt><trkpt lat="45.80722371096223" lon="9.85591619354503"><ele>396.5</ele><time>2026-05-02T08:31:32Z</time></trkpt><trkpt lat="45.8073064300697" lon="9.856053361622308"><ele>397.0</ele><time>2026-05-02T08:31:34Z</time></trkpt><trkpt lat="45.80738806021953" lon="9.856185117308522"><ele>397.5</ele><time>2026-05-02T08:31:36Z</time></trkpt><trkpt lat="45.80746304961672" lon="9.856310497521184"><ele>398.0</ele><time>2026-05-02T08:31:38Z</time></trkpt><trkpt lat="45.80754319464748" lon="9.85643617491817"><ele>397.99999999999994</ele><time>2026-05-02T08:31:40Z</time></trkpt><trkpt lat="45.80758483860669" lon="9.856504150486737"><ele>398.0</ele><time>2026-05-02T08:31:41Z</time></trkpt><trkpt lat="45.80762993948462" lon="9.856569956376429"><ele>398.0</ele><time>2026-05-02T08:31:42Z</time></trkpt><trkpt lat="45.80771810550756" lon="9.856702510287425"><ele>398.0</ele><time>2026-05-02T08:31:44Z</time></trkpt><trkpt lat="45.80776279687946" lon="9.856768786448674"><ele>398.0</ele><time>2026-05-02T08:31:45Z</time></trkpt><trkpt lat="45.80781552667825" lon="9.856825706775895"><ele>397.99999999999994</ele><time>2026-05-02T08:31:46Z</time></trkpt><trkpt lat="45.80785990112085" lon="9.856890546018915"><ele>398.0</ele><time>2026-05-02T08:31:47Z</time></trkpt><trkpt lat="45.80790925145053" lon="9.856948720591934"><ele>397.2857142857143</ele><time>2026-05-02T08:31:48Z</time></trkpt><trkpt lat="45.80795810111609" lon="9.857010663813023"><ele>396.57142857142856</ele><time>2026-05-02T08:31:49Z</time></trkpt><trkpt lat="45.808011430696695" lon="9.857067719454776"><ele>395.8571428571429</ele><time>2026-05-02T08:31:50Z</time></trkpt><trkpt lat="45.808061680928816" lon="9.857126942413428"><ele>395.1428571428571</ele><time>2026-05-02T08:31:51Z</time></trkpt><trkpt lat="45.808115452881516" lon="9.857182460389623"><ele>394.42857142857144</ele><time>2026-05-02T08:31:52Z</time></trkpt><trkpt lat="45.80817022889999" lon="9.857233615935767"><ele>393.7142857142857</ele><time>2026-05-02T08:31:53Z</time></trkpt><trkpt lat="45.808226067741245" lon="9.857284993592422"><ele>393.0</ele><time>2026-05-02T08:31:54Z</time></trkpt><trkpt lat="45.80827866306007" lon="9.857340876933215"><ele>393.0</ele><time>2026-05-02T08:31:55Z</time></trkpt><trkpt lat="45.808330547956785" lon="9.857397145087571"><ele>393.0</ele><time>2026-05-02T08:31:56Z</time></trkpt><trkpt lat="45.80838471268428" lon="9.8574508287347"><ele>393.0</ele><time>2026-05-02T08:31:57Z</time></trkpt><trkpt lat="45.80848693259131" lon="9.857557460098217"><ele>393.0</ele><time>2026-05-02T08:31:59Z</time></trkpt><trkpt lat="45.80858854241638" lon="9.857659322266851"><ele>393.0</ele><time>2026-05-02T08:32:01Z</time></trkpt><trkpt lat="45.8086951660457" lon="9.857757961637319"><ele>393.59999999999997</ele><time>2026-05-02T08:32:03Z</time></trkpt><trkpt lat="45.80874829958728" lon="9.857807003454381"><ele>394.2</ele><time>2026-05-02T08:32:04Z</time></trkpt><trkpt lat="45.80880160410789" lon="9.857857496478193"><ele>394.8</ele><time>2026-05-02T08:32:05Z</time></trkpt><trkpt lat="45.80890318181249" lon="9.85795631372031"><ele>395.4</ele><time>2026-05-02T08:32:07Z</time></trkpt><trkpt lat="45.808999334013926" lon="9.858045979119186"><ele>396.0</ele><time>2026-05-02T08:32:09Z</time></trkpt><trkpt lat="45.80909050653206" lon="9.858131243388591"><ele>396.0</ele><time>2026-05-02T08:32:11Z</time></trkpt><trkpt lat="45.80918086700144" lon="9.858216566646046"><ele>396.0</ele><time>2026-05-02T08:32:13Z</time></trkpt><trkpt lat="45.809285273433346" lon="9.858313394373818"><ele>396.0</ele><time>2026-05-02T08:32:15Z</time></trkpt><trkpt lat="45.80934209075589" lon="9.858354637761522"><ele>396.0</ele><time>2026-05-02T08:32:16Z</time></trkpt><trkpt lat="45.80940196330931" lon="9.858382600388"><ele>396.0</ele><time>2026-05-02T08:32:17Z</time></trkpt><trkpt lat="45.809458908830415" lon="9.858427950850887"><ele>396.0</ele><time>2026-05-02T08:32:18Z</time></trkpt><trkpt lat="45.809505384960566" lon="9.858490621109834"><ele>395.75</ele><time>2026-05-02T08:32:19Z</time></trkpt><trkpt lat="45.80954906908813" lon="9.858559161141548"><ele>395.5</ele><time>2026-05-02T08:32:20Z</time></trkpt><trkpt lat="45.80959971844798" lon="9.858615546911935"><ele>395.25</ele><time>2026-05-02T08:32:21Z</time></trkpt><trkpt lat="45.80965170601702" lon="9.858668630954496"><ele>395.0</ele><time>2026-05-02T08:32:22Z</time></trkpt><trkpt lat="45.80970416136978" lon="9.858719499156814"><ele>394.75</ele><time>2026-05-02T08:32:23Z</time></trkpt><trkpt lat="45.80975983655441" lon="9.858770384805261"><ele>394.5</ele><time>2026-05-02T08:32:24Z</time></trkpt><trkpt lat="45.809811354237425" lon="9.858823428188083"><ele>394.25</ele><time>2026-05-02T08:32:25Z</time></trkpt><trkpt lat="45.809865184723364" lon="9.858870436315424"><ele>394.0</ele><time>2026-05-02T08:32:26Z</time></trkpt><trkpt lat="45.80991833922458" lon="9.858928638467235"><ele>394.00000000000006</ele><time>2026-05-02T08:32:27Z</time></trkpt><trkpt lat="45.809972551054464" lon="9.858975026241534"><ele>394.0</ele><time>2026-05-02T08:32:28Z</time></trkpt><trkpt lat="45.810027028043265" lon="9.85902962147365"><ele>394.0</ele><time>2026-05-02T08:32:29Z</time></trkpt><trkpt lat="45.810135154131004" lon="9.859131303060934"><ele>394.0</ele><time>2026-05-02T08:32:31Z</time></trkpt><trkpt lat="45.810187453367945" lon="9.85918392316918"><ele>394.00000000000006</ele><time>2026-05-02T08:32:32Z</time></trkpt><trkpt lat="45.810288547732966" lon="9.859278201892149"><ele>394.0</ele><time>2026-05-02T08:32:34Z</time></trkpt><trkpt lat="45.810384781945984" lon="9.859369446438397"><ele>394.1666666666667</ele><time>2026-05-02T08:32:36Z</time></trkpt><trkpt lat="45.81047707202551" lon="9.859460684999174"><ele>394.33333333333337</ele><time>2026-05-02T08:32:38Z</time></trkpt><trkpt lat="45.8105312303586" lon="9.859506853621774"><ele>394.5</ele><time>2026-05-02T08:32:39Z</time></trkpt><trkpt lat="45.81063520481005" lon="9.859609059995574"><ele>394.66666666666663</ele><time>2026-05-02T08:32:41Z</time></trkpt><trkpt lat="45.81068904912463" lon="9.859657751645054"><ele>394.8333333333333</ele><time>2026-05-02T08:32:42Z</time></trkpt><trkpt lat="45.81074000245418" lon="9.859711347889379"><ele>395.0</ele><time>2026-05-02T08:32:43Z</time></trkpt><trkpt lat="45.81084632100384" lon="9.859804160681746"><ele>394.99999999999994</ele><time>2026-05-02T08:32:45Z</time></trkpt><trkpt lat="45.81089861742695" lon="9.8598577012013"><ele>395.0</ele><time>2026-05-02T08:32:46Z</time></trkpt><trkpt lat="45.811011571178746" lon="9.859931629353426"><ele>395.0</ele><time>2026-05-02T08:32:48Z</time></trkpt><trkpt lat="45.81107030526672" lon="9.859973340987096"><ele>395.0</ele><time>2026-05-02T08:32:49Z</time></trkpt><trkpt lat="45.81112543678412" lon="9.860018546950608"><ele>394.99999999999994</ele><time>2026-05-02T08:32:50Z</time></trkpt><trkpt lat="45.811235581583276" lon="9.860106570058974"><ele>395.0</ele><time>2026-05-02T08:32:52Z</time></trkpt><trkpt lat="45.811344702884696" lon="9.860189482441921"><ele>395.16666666666663</ele><time>2026-05-02T08:32:54Z</time></trkpt><trkpt lat="45.8114017148407" lon="9.860230451830493"><ele>395.3333333333333</ele><time>2026-05-02T08:32:55Z</time></trkpt><trkpt lat="45.81145936753048" lon="9.860266921209908"><ele>395.5</ele><time>2026-05-02T08:32:56Z</time></trkpt><trkpt lat="45.81151798343737" lon="9.860303111156565"><ele>395.66666666666663</ele><time>2026-05-02T08:32:57Z</time></trkpt><trkpt lat="45.811637724611366" lon="9.860361927108963"><ele>395.8333333333333</ele><time>2026-05-02T08:32:59Z</time></trkpt><trkpt lat="45.81169727979154" lon="9.86039224666886"><ele>396.0</ele><time>2026-05-02T08:33:00Z</time></trkpt><trkpt lat="45.81181528934416" lon="9.860449771094228"><ele>396.25</ele><time>2026-05-02T08:33:02Z</time></trkpt><trkpt lat="45.81193189670613" lon="9.860514188137879"><ele>396.5</ele><time>2026-05-02T08:33:04Z</time></trkpt><trkpt lat="45.81204937394611" lon="9.860565913353966"><ele>396.75</ele><time>2026-05-02T08:33:06Z</time></trkpt><trkpt lat="45.812168985667206" lon="9.860593678837327"><ele>397.0</ele><time>2026-05-02T08:33:08Z</time></trkpt><trkpt lat="45.81229203354459" lon="9.860612483598263"><ele>397.00000000000006</ele><time>2026-05-02T08:33:10Z</time></trkpt><trkpt lat="45.81241455756206" lon="9.860623387172655"><ele>397.0</ele><time>2026-05-02T08:33:12Z</time></trkpt><trkpt lat="45.812477512121276" lon="9.860621350169124"><ele>397.0</ele><time>2026-05-02T08:33:13Z</time></trkpt><trkpt lat="45.81260595301285" lon="9.860623016461123"><ele>397.0</ele><time>2026-05-02T08:33:15Z</time></trkpt><trkpt lat="45.81267026601648" lon="9.860620988159628"><ele>397.00000000000006</ele><time>2026-05-02T08:33:16Z</time></trkpt><trkpt lat="45.812734654017426" lon="9.860615332291136"><ele>397.0</ele><time>2026-05-02T08:33:17Z</time></trkpt><trkpt lat="45.81286056679094" lon="9.860596750284472"><ele>397.40000000000003</ele><time>2026-05-02T08:33:19Z</time></trkpt><trkpt lat="45.812984510414864" lon="9.860578399318454"><ele>397.8</ele><time>2026-05-02T08:33:21Z</time></trkpt><trkpt lat="45.81304831240518" lon="9.860567801886958"><ele>398.2</ele><time>2026-05-02T08:33:22Z</time></trkpt><trkpt lat="45.813169680608716" lon="9.860552199875796"><ele>398.6</ele><time>2026-05-02T08:33:24Z</time></trkpt><trkpt lat="45.81323503183913" lon="9.860537744953275"><ele>399.0</ele><time>2026-05-02T08:33:25Z</time></trkpt><trkpt lat="45.81335689682448" lon="9.860515344114653"><ele>399.0</ele><time>2026-05-02T08:33:27Z</time></trkpt><trkpt lat="45.81348088803455" lon="9.860491593563747"><ele>399.0</ele><time>2026-05-02T08:33:29Z</time></trkpt><trkpt lat="45.81360329107981" lon="9.860471632774082"><ele>399.0</ele><time>2026-05-02T08:33:31Z</time></trkpt><trkpt lat="45.813666416251586" lon="9.860459631787856"><ele>399.0</ele><time>2026-05-02T08:33:32Z</time></trkpt><trkpt lat="45.81378886926899" lon="9.86042996497881"><ele>399.0</ele><time>2026-05-02T08:33:34Z</time></trkpt><trkpt lat="45.813906658555446" lon="9.860407445291647"><ele>400.0</ele><time>2026-05-02T08:33:36Z</time></trkpt><trkpt lat="45.81401589189514" lon="9.860393556227063"><ele>401.0</ele><time>2026-05-02T08:33:38Z</time></trkpt><trkpt lat="45.81411733233174" lon="9.860373746468271"><ele>402.0</ele><time>2026-05-02T08:33:40Z</time></trkpt><trkpt lat="45.81421332861047" lon="9.86035958632031"><ele>403.0</ele><time>2026-05-02T08:33:42Z</time></trkpt><trkpt lat="45.81430627756192" lon="9.860344967888665"><ele>404.0</ele><time>2026-05-02T08:33:44Z</time></trkpt><trkpt lat="45.814398696794306" lon="9.860340067810142"><ele>404.0</ele><time>2026-05-02T08:33:46Z</time></trkpt><trkpt lat="45.81450937025316" lon="9.860340901803438"><ele>404.0</ele><time>2026-05-02T08:33:48Z</time></trkpt><trkpt lat="45.81463234680492" lon="9.860337924612164"><ele>404.0</ele><time>2026-05-02T08:33:50Z</time></trkpt><trkpt lat="45.81469689047305" lon="9.86033872127677"><ele>404.0</ele><time>2026-05-02T08:33:51Z</time></trkpt><trkpt lat="45.814824040376514" lon="9.86034225266592"><ele>404.0</ele><time>2026-05-02T08:33:53Z</time></trkpt><trkpt lat="45.81488903200799" lon="9.860352432187408"><ele>404.0</ele><time>2026-05-02T08:33:54Z</time></trkpt><trkpt lat="45.81495438826934" lon="9.860350454142994"><ele>404.0</ele><time>2026-05-02T08:33:55Z</time></trkpt><trkpt lat="45.815021579179266" lon="9.86035034325173"><ele>404.0</ele><time>2026-05-02T08:33:56Z</time></trkpt><trkpt lat="45.81508734512421" lon="9.860349293159144"><ele>404.0</ele><time>2026-05-02T08:33:57Z</time></trkpt><trkpt lat="45.81515579746741" lon="9.860348337023217"><ele>404.0</ele><time>2026-05-02T08:33:58Z</time></trkpt><trkpt lat="45.81522571406543" lon="9.860349913935684"><ele>404.0</ele><time>2026-05-02T08:33:59Z</time></trkpt><trkpt lat="45.81529282028569" lon="9.860354483017517"><ele>404.0</ele><time>2026-05-02T08:34:00Z</time></trkpt><trkpt lat="45.81536091140828" lon="9.860348813755852"><ele>403.6</ele><time>2026-05-02T08:34:01Z</time></trkpt><trkpt lat="45.81542512801656" lon="9.860356606077245"><ele>403.2</ele><time>2026-05-02T08:34:02Z</time></trkpt><trkpt lat="45.81549262612219" lon="9.860360438691432"><ele>402.8</ele><time>2026-05-02T08:34:03Z</time></trkpt><trkpt lat="45.81561729577569" lon="9.860362121272912"><ele>402.40000000000003</ele><time>2026-05-02T08:34:05Z</time></trkpt><trkpt lat="45.81568085709762" lon="9.86036193360178"><ele>402.0</ele><time>2026-05-02T08:34:06Z</time></trkpt><trkpt lat="45.815811897390546" lon="9.86036704242387"><ele>402.0</ele><time>2026-05-02T08:34:08Z</time></trkpt><trkpt lat="45.81587719057292" lon="9.86036228908004"><ele>402.0</ele><time>2026-05-02T08:34:09Z</time></trkpt><trkpt lat="45.815944675293395" lon="9.860368228459487"><ele>402.0</ele><time>2026-05-02T08:34:10Z</time></trkpt><trkpt lat="45.81601080462604" lon="9.860370715330953"><ele>402.0</ele><time>2026-05-02T08:34:11Z</time></trkpt><trkpt lat="45.816077063641394" lon="9.860375147486138"><ele>402.0</ele><time>2026-05-02T08:34:12Z</time></trkpt><trkpt lat="45.816141906079494" lon="9.860377110522256"><ele>402.0</ele><time>2026-05-02T08:34:13Z</time></trkpt><trkpt lat="45.8162098453094" lon="9.860378162536273"><ele>402.0</ele><time>2026-05-02T08:34:14Z</time></trkpt><trkpt lat="45.81633765870534" lon="9.860382879386643"><ele>401.8</ele><time>2026-05-02T08:34:16Z</time></trkpt><trkpt lat="45.81640228027673" lon="9.860382516830091"><ele>401.6</ele><time>2026-05-02T08:34:17Z</time></trkpt><trkpt lat="45.81652941037887" lon="9.860385140325237"><ele>401.40000000000003</ele><time>2026-05-02T08:34:19Z</time></trkpt><trkpt lat="45.81665405802863" lon="9.860391885176014"><ele>401.20000000000005</ele><time>2026-05-02T08:34:21Z</time></trkpt><trkpt lat="45.816781915113076" lon="9.860392446055561"><ele>401.0</ele><time>2026-05-02T08:34:23Z</time></trkpt><trkpt lat="45.81690935398278" lon="9.860401062493416"><ele>401.3333333333333</ele><time>2026-05-02T08:34:25Z</time></trkpt><trkpt lat="45.81703316312502" lon="9.860402468752484"><ele>401.66666666666663</ele><time>2026-05-02T08:34:27Z</time></trkpt><trkpt lat="45.81716117141646" lon="9.860408859519746"><ele>402.0</ele><time>2026-05-02T08:34:29Z</time></trkpt><trkpt lat="45.817224217390034" lon="9.860409109107735"><ele>402.33333333333337</ele><time>2026-05-02T08:34:30Z</time></trkpt><trkpt lat="45.81728843642635" lon="9.860413642557132"><ele>402.6666666666667</ele><time>2026-05-02T08:34:31Z</time></trkpt><trkpt lat="45.8173533826226" lon="9.86042127021694"><ele>403.0</ele><time>2026-05-02T08:34:32Z</time></trkpt><trkpt lat="45.817417573266745" lon="9.860423161698604"><ele>403.0</ele><time>2026-05-02T08:34:33Z</time></trkpt><trkpt lat="45.81748076760734" lon="9.860422311445541"><ele>403.0</ele><time>2026-05-02T08:34:34Z</time></trkpt><trkpt lat="45.817544774394506" lon="9.860423810508596"><ele>403.0</ele><time>2026-05-02T08:34:35Z</time></trkpt><trkpt lat="45.81766570614186" lon="9.86046940777062"><ele>403.0</ele><time>2026-05-02T08:34:37Z</time></trkpt><trkpt lat="45.81776348322837" lon="9.860577877899697"><ele>403.0</ele><time>2026-05-02T08:34:39Z</time></trkpt><trkpt lat="45.817812575764876" lon="9.860714375580429"><ele>403.83333333333337</ele><time>2026-05-02T08:34:41Z</time></trkpt><trkpt lat="45.81783716726887" lon="9.860814571785502"><ele>404.6666666666667</ele><time>2026-05-02T08:34:43Z</time></trkpt><trkpt lat="45.81791569132551" lon="9.860912400364628"><ele>405.5</ele><time>2026-05-02T08:34:45Z</time></trkpt><trkpt lat="45.817977735374825" lon="9.860940697397512"><ele>406.33333333333337</ele><time>2026-05-02T08:34:46Z</time></trkpt><trkpt lat="45.81804679240144" lon="9.86093831637489"><ele>407.1666666666667</ele><time>2026-05-02T08:34:47Z</time></trkpt><trkpt lat="45.81811139492664" lon="9.860902638483182"><ele>408.0</ele><time>2026-05-02T08:34:48Z</time></trkpt><trkpt lat="45.81816658899443" lon="9.860841922093114"><ele>408.0</ele><time>2026-05-02T08:34:49Z</time></trkpt><trkpt lat="45.81820393994597" lon="9.8607524238465"><ele>408.0</ele><time>2026-05-02T08:34:50Z</time></trkpt><trkpt lat="45.81823414758321" lon="9.86065907346192"><ele>408.0</ele><time>2026-05-02T08:34:51Z</time></trkpt><trkpt lat="45.81828063599771" lon="9.860586723993666"><ele>408.0</ele><time>2026-05-02T08:34:52Z</time></trkpt><trkpt lat="45.81833199910796" lon="9.860533375620998"><ele>408.0</ele><time>2026-05-02T08:34:53Z</time></trkpt><trkpt lat="45.81840688712512" lon="9.860471036039225"><ele>408.0</ele><time>2026-05-02T08:34:55Z</time></trkpt><trkpt lat="45.81845774395975" lon="9.860410603002338"><ele>408.0</ele><time>2026-05-02T08:34:58Z</time></trkpt><trkpt lat="45.818546206434284" lon="9.860386940008068"><ele>407.8571428571429</ele><time>2026-05-02T08:35:00Z</time></trkpt><trkpt lat="45.818670357605185" lon="9.860398640781103"><ele>407.7142857142857</ele><time>2026-05-02T08:35:02Z</time></trkpt><trkpt lat="45.818736530663706" lon="9.860403637674764"><ele>407.57142857142856</ele><time>2026-05-02T08:35:03Z</time></trkpt><trkpt lat="45.8188015819238" lon="9.86040795192572"><ele>407.42857142857144</ele><time>2026-05-02T08:35:04Z</time></trkpt><trkpt lat="45.81886495860168" lon="9.860410534937762"><ele>407.2857142857143</ele><time>2026-05-02T08:35:05Z</time></trkpt><trkpt lat="45.81892799253817" lon="9.860408814457452"><ele>407.14285714285717</ele><time>2026-05-02T08:35:06Z</time></trkpt><trkpt lat="45.81899202146086" lon="9.86041137008905"><ele>407.0</ele><time>2026-05-02T08:35:07Z</time></trkpt><trkpt lat="45.819116855442175" lon="9.860409930896129"><ele>406.99999999999994</ele><time>2026-05-02T08:35:09Z</time></trkpt><trkpt lat="45.81918089182623" lon="9.860409605555894"><ele>407.0</ele><time>2026-05-02T08:35:10Z</time></trkpt><trkpt lat="45.81930423598469" lon="9.860418447027817"><ele>407.0</ele><time>2026-05-02T08:35:12Z</time></trkpt><trkpt lat="45.8193725391705" lon="9.860415410159927"><ele>407.0</ele><time>2026-05-02T08:35:13Z</time></trkpt><trkpt lat="45.81949600234375" lon="9.860422480316698"><ele>406.99999999999994</ele><time>2026-05-02T08:35:15Z</time></trkpt><trkpt lat="45.819558901000384" lon="9.860426404632358"><ele>407.0</ele><time>2026-05-02T08:35:16Z</time></trkpt><trkpt lat="45.81962218271062" lon="9.86042957538001"><ele>407.99999999999994</ele><time>2026-05-02T08:35:17Z</time></trkpt><trkpt lat="45.81968624078776" lon="9.860426851482252"><ele>409.0</ele><time>2026-05-02T08:35:18Z</time></trkpt><trkpt lat="45.81974961978214" lon="9.860425243862341"><ele>410.0</ele><time>2026-05-02T08:35:19Z</time></trkpt><trkpt lat="45.81987471031464" lon="9.86042581669827"><ele>411.0</ele><time>2026-05-02T08:35:21Z</time></trkpt><trkpt lat="45.81993871996943" lon="9.860428947260484"><ele>411.99999999999994</ele><time>2026-05-02T08:35:22Z</time></trkpt><trkpt lat="45.82000227735093" lon="9.860435267787787"><ele>413.0</ele><time>2026-05-02T08:35:23Z</time></trkpt><trkpt lat="45.82012558765909" lon="9.860470217205583"><ele>412.7142857142857</ele><time>2026-05-02T08:35:25Z</time></trkpt><trkpt lat="45.820188414718324" lon="9.860488673194576"><ele>412.42857142857144</ele><time>2026-05-02T08:35:26Z</time></trkpt><trkpt lat="45.82025262548391" lon="9.860488729297149"><ele>412.1428571428571</ele><time>2026-05-02T08:35:27Z</time></trkpt><trkpt lat="45.820317400551055" lon="9.860492718678664"><ele>411.8571428571429</ele><time>2026-05-02T08:35:28Z</time></trkpt><trkpt lat="45.82038198159562" lon="9.860496529219729"><ele>411.57142857142856</ele><time>2026-05-02T08:35:29Z</time></trkpt><trkpt lat="45.8204477726175" lon="9.86049800255373"><ele>411.2857142857143</ele><time>2026-05-02T08:35:30Z</time></trkpt><trkpt lat="45.82051209774438" lon="9.860499465716874"><ele>411.0</ele><time>2026-05-02T08:35:31Z</time></trkpt><trkpt lat="45.82057789299831" lon="9.860502025742983"><ele>411.0</ele><time>2026-05-02T08:35:32Z</time></trkpt><trkpt lat="45.8206410154239" lon="9.860506683462129"><ele>411.0</ele><time>2026-05-02T08:35:33Z</time></trkpt><trkpt lat="45.82070623009339" lon="9.860508698444152"><ele>411.0</ele><time>2026-05-02T08:35:34Z</time></trkpt><trkpt lat="45.82077092963659" lon="9.860509777351025"><ele>411.0</ele><time>2026-05-02T08:35:35Z</time></trkpt><trkpt lat="45.820894788983935" lon="9.860515648034376"><ele>411.0</ele><time>2026-05-02T08:35:37Z</time></trkpt><trkpt lat="45.821011972005806" lon="9.860517374107307"><ele>411.0</ele><time>2026-05-02T08:35:39Z</time></trkpt><trkpt lat="45.82114067275653" lon="9.860519519758887"><ele>411.8</ele><time>2026-05-02T08:35:41Z</time></trkpt><trkpt lat="45.82120588531631" lon="9.86052249708338"><ele>412.6</ele><time>2026-05-02T08:35:42Z</time></trkpt><trkpt lat="45.82132940471029" lon="9.860519883861748"><ele>413.4</ele><time>2026-05-02T08:35:44Z</time></trkpt><trkpt lat="45.8214468210338" lon="9.860534965725247"><ele>414.2</ele><time>2026-05-02T08:35:46Z</time></trkpt><trkpt lat="45.82156811695219" lon="9.860517982626737"><ele>415.0</ele><time>2026-05-02T08:35:48Z</time></trkpt><trkpt lat="45.82163368328298" lon="9.860532190858326"><ele>415.00000000000006</ele><time>2026-05-02T08:35:49Z</time></trkpt><trkpt lat="45.82169477457262" lon="9.860569543718974"><ele>415.0</ele><time>2026-05-02T08:35:50Z</time></trkpt><trkpt lat="45.82175361426575" lon="9.860615304189091"><ele>415.0</ele><time>2026-05-02T08:35:51Z</time></trkpt><trkpt lat="45.82181407856093" lon="9.860650034811417"><ele>415.0</ele><time>2026-05-02T08:35:52Z</time></trkpt><trkpt lat="45.8218761653372" lon="9.860679835688739"><ele>415.00000000000006</ele><time>2026-05-02T08:35:53Z</time></trkpt><trkpt lat="45.82199653735836" lon="9.86072661726122"><ele>415.0</ele><time>2026-05-02T08:35:55Z</time></trkpt><trkpt lat="45.82211467810213" lon="9.860782070309897"><ele>414.4</ele><time>2026-05-02T08:35:57Z</time></trkpt><trkpt lat="45.82223151106102" lon="9.86084844433369"><ele>413.8</ele><time>2026-05-02T08:35:59Z</time></trkpt><trkpt lat="45.82229343810977" lon="9.860872475436961"><ele>413.20000000000005</ele><time>2026-05-02T08:36:00Z</time></trkpt><trkpt lat="45.82241177577726" lon="9.860924543615113"><ele>412.6</ele><time>2026-05-02T08:36:02Z</time></trkpt><trkpt lat="45.822529699579825" lon="9.860987742984824"><ele>412.0</ele><time>2026-05-02T08:36:04Z</time></trkpt><trkpt lat="45.82265134907024" lon="9.861039496097439"><ele>414.99999999999994</ele><time>2026-05-02T08:36:06Z</time></trkpt><trkpt lat="45.822711569182594" lon="9.861068433958112"><ele>418.0</ele><time>2026-05-02T08:36:07Z</time></trkpt><trkpt lat="45.822771285539" lon="9.861100057094479"><ele>421.0</ele><time>2026-05-02T08:36:08Z</time></trkpt><trkpt lat="45.82283053678096" lon="9.861132097216917"><ele>424.0</ele><time>2026-05-02T08:36:09Z</time></trkpt><trkpt lat="45.82289197746963" lon="9.861158661539806"><ele>427.0</ele><time>2026-05-02T08:36:10Z</time></trkpt><trkpt lat="45.82295435407444" lon="9.86118627344574"><ele>429.99999999999994</ele><time>2026-05-02T08:36:11Z</time></trkpt><trkpt lat="45.823015402858054" lon="9.86121423800679"><ele>433.0</ele><time>2026-05-02T08:36:12Z</time></trkpt><trkpt lat="45.82313125007602" lon="9.861280199685588"><ele>433.00000000000006</ele><time>2026-05-02T08:36:14Z</time></trkpt><trkpt lat="45.82325118180218" lon="9.861332612865704"><ele>433.0</ele><time>2026-05-02T08:36:16Z</time></trkpt><trkpt lat="45.82331377952237" lon="9.861357280136312"><ele>433.0</ele><time>2026-05-02T08:36:17Z</time></trkpt><trkpt lat="45.82337507743848" lon="9.861385272528347"><ele>433.0</ele><time>2026-05-02T08:36:18Z</time></trkpt><trkpt lat="45.82343833365816" lon="9.86141435056434"><ele>433.00000000000006</ele><time>2026-05-02T08:36:19Z</time></trkpt><trkpt lat="45.82349757005951" lon="9.86144847744114"><ele>433.0</ele><time>2026-05-02T08:36:20Z</time></trkpt><trkpt lat="45.82355883454538" lon="9.861483271854695"><ele>428.75</ele><time>2026-05-02T08:36:21Z</time></trkpt><trkpt lat="45.82361866810274" lon="9.861514990429658"><ele>424.5</ele><time>2026-05-02T08:36:22Z</time></trkpt><trkpt lat="45.823741550441646" lon="9.861571367231358"><ele>420.25</ele><time>2026-05-02T08:36:24Z</time></trkpt><trkpt lat="45.82386068400812" lon="9.861630885616135"><ele>416.0</ele><time>2026-05-02T08:36:26Z</time></trkpt><trkpt lat="45.82398517826572" lon="9.86169326532325"><ele>416.0</ele><time>2026-05-02T08:36:28Z</time></trkpt><trkpt lat="45.824104109641596" lon="9.861750981306821"><ele>416.0</ele><time>2026-05-02T08:36:30Z</time></trkpt><trkpt lat="45.824166846009376" lon="9.861783150414544"><ele>416.0</ele><time>2026-05-02T08:36:31Z</time></trkpt><trkpt lat="45.82428685468441" lon="9.861839311140146"><ele>416.0</ele><time>2026-05-02T08:36:33Z</time></trkpt><trkpt lat="45.82435783218193" lon="9.8618631453436"><ele>416.0</ele><time>2026-05-02T08:36:34Z</time></trkpt><trkpt lat="45.82446850504602" lon="9.861933438005524"><ele>419.0</ele><time>2026-05-02T08:36:36Z</time></trkpt><trkpt lat="45.82458472718846" lon="9.861993943709383"><ele>422.0</ele><time>2026-05-02T08:36:38Z</time></trkpt><trkpt lat="45.82470452024143" lon="9.862047591527816"><ele>425.0</ele><time>2026-05-02T08:36:40Z</time></trkpt><trkpt lat="45.82482176708691" lon="9.862103788844243"><ele>428.0</ele><time>2026-05-02T08:36:42Z</time></trkpt><trkpt lat="45.82493441347517" lon="9.862168588508277"><ele>428.0</ele><time>2026-05-02T08:36:44Z</time></trkpt><trkpt lat="45.82499716944851" lon="9.86219732802633"><ele>427.99999999999994</ele><time>2026-05-02T08:36:45Z</time></trkpt><trkpt lat="45.82511682092837" lon="9.862252186643813"><ele>427.99999999999994</ele><time>2026-05-02T08:36:47Z</time></trkpt><trkpt lat="45.82523159504986" lon="9.862304016355873"><ele>428.0</ele><time>2026-05-02T08:36:49Z</time></trkpt><trkpt lat="45.825345368131295" lon="9.86236982094761"><ele>428.0</ele><time>2026-05-02T08:36:51Z</time></trkpt><trkpt lat="45.8254632603143" lon="9.86242544684137"><ele>427.16666666666663</ele><time>2026-05-02T08:36:53Z</time></trkpt><trkpt lat="45.82558297325089" lon="9.862479068452737"><ele>426.3333333333333</ele><time>2026-05-02T08:36:55Z</time></trkpt><trkpt lat="45.825646521561914" lon="9.86250290006032"><ele>425.5</ele><time>2026-05-02T08:36:56Z</time></trkpt><trkpt lat="45.825709625306764" lon="9.862526846074639"><ele>424.66666666666663</ele><time>2026-05-02T08:36:57Z</time></trkpt><trkpt lat="45.825772505817575" lon="9.862544765513178"><ele>423.8333333333333</ele><time>2026-05-02T08:36:58Z</time></trkpt><trkpt lat="45.825835942078115" lon="9.862566585204066"><ele>423.0</ele><time>2026-05-02T08:36:59Z</time></trkpt><trkpt lat="45.82589984955012" lon="9.862585572649273"><ele>425.25</ele><time>2026-05-02T08:37:00Z</time></trkpt><trkpt lat="45.82602301089955" lon="9.862615495870521"><ele>427.5</ele><time>2026-05-02T08:37:02Z</time></trkpt><trkpt lat="45.82614029902377" lon="9.86263408293132"><ele>429.75</ele><time>2026-05-02T08:37:04Z</time></trkpt><trkpt lat="45.82626012822147" lon="9.862643317857966"><ele>432.0</ele><time>2026-05-02T08:37:06Z</time></trkpt><trkpt lat="45.82638174555761" lon="9.862635668870935"><ele>432.0</ele><time>2026-05-02T08:37:08Z</time></trkpt><trkpt lat="45.826496407360644" lon="9.862657134385696"><ele>432.0</ele><time>2026-05-02T08:37:10Z</time></trkpt><trkpt lat="45.82655853926081" lon="9.862675433909248"><ele>432.0</ele><time>2026-05-02T08:37:11Z</time></trkpt><trkpt lat="45.82662315997194" lon="9.862698527494342"><ele>432.0</ele><time>2026-05-02T08:37:12Z</time></trkpt><trkpt lat="45.82668579473379" lon="9.86272281057425"><ele>432.0</ele><time>2026-05-02T08:37:13Z</time></trkpt><trkpt lat="45.82675039238433" lon="9.862749644115409"><ele>432.0</ele><time>2026-05-02T08:37:14Z</time></trkpt><trkpt lat="45.826815220846846" lon="9.862771867812596"><ele>432.0</ele><time>2026-05-02T08:37:15Z</time></trkpt><trkpt lat="45.82687943902348" lon="9.862797937282538"><ele>430.0</ele><time>2026-05-02T08:37:16Z</time></trkpt><trkpt lat="45.8269427514274" lon="9.862833653920248"><ele>428.0</ele><time>2026-05-02T08:37:17Z</time></trkpt><trkpt lat="45.82700357303624" lon="9.86286815002683"><ele>426.0</ele><time>2026-05-02T08:37:18Z</time></trkpt><trkpt lat="45.82706663989298" lon="9.862899236695158"><ele>424.0</ele><time>2026-05-02T08:37:19Z</time></trkpt><trkpt lat="45.827128593888936" lon="9.862938470870303"><ele>422.0</ele><time>2026-05-02T08:37:20Z</time></trkpt><trkpt lat="45.827242626967546" lon="9.863018294478918"><ele>420.0</ele><time>2026-05-02T08:37:22Z</time></trkpt><trkpt lat="45.82729953150885" lon="9.863059315890977"><ele>420.0</ele><time>2026-05-02T08:37:23Z</time></trkpt><trkpt lat="45.82741329052771" lon="9.863146261061889"><ele>420.0</ele><time>2026-05-02T08:37:25Z</time></trkpt><trkpt lat="45.82747151430081" lon="9.86318868604946"><ele>420.0</ele><time>2026-05-02T08:37:26Z</time></trkpt><trkpt lat="45.827532221881285" lon="9.863234422646892"><ele>420.0</ele><time>2026-05-02T08:37:27Z</time></trkpt><trkpt lat="45.82758895022812" lon="9.863277227258786"><ele>420.0</ele><time>2026-05-02T08:37:28Z</time></trkpt><trkpt lat="45.827649395200055" lon="9.863318669142698"><ele>420.0</ele><time>2026-05-02T08:37:29Z</time></trkpt><trkpt lat="45.827763031272426" lon="9.86340250326938"><ele>418.85714285714283</ele><time>2026-05-02T08:37:31Z</time></trkpt><trkpt lat="45.82781889532271" lon="9.863445917431074"><ele>417.7142857142857</ele><time>2026-05-02T08:37:32Z</time></trkpt><trkpt lat="45.82787840794683" lon="9.863489162276062"><ele>416.57142857142856</ele><time>2026-05-02T08:37:33Z</time></trkpt><trkpt lat="45.82794083829832" lon="9.863534407647489"><ele>415.42857142857144</ele><time>2026-05-02T08:37:34Z</time></trkpt><trkpt lat="45.82799828363286" lon="9.863580102762798"><ele>414.2857142857143</ele><time>2026-05-02T08:37:35Z</time></trkpt><trkpt lat="45.82805508873363" lon="9.863626178006866"><ele>413.1428571428571</ele><time>2026-05-02T08:37:36Z</time></trkpt><trkpt lat="45.82811279128154" lon="9.863668589920227"><ele>412.0</ele><time>2026-05-02T08:37:37Z</time></trkpt><trkpt lat="45.8281690781236" lon="9.863709715475107"><ele>414.25</ele><time>2026-05-02T08:37:38Z</time></trkpt><trkpt lat="45.82827960357063" lon="9.863792430599537"><ele>416.5</ele><time>2026-05-02T08:37:40Z</time></trkpt><trkpt lat="45.82838548511229" lon="9.863869770569941"><ele>418.75</ele><time>2026-05-02T08:37:42Z</time></trkpt><trkpt lat="45.82849118779274" lon="9.863941109755691"><ele>421.0</ele><time>2026-05-02T08:37:44Z</time></trkpt><trkpt lat="45.82859209163888" lon="9.864012835278139"><ele>421.00000000000006</ele><time>2026-05-02T08:37:46Z</time></trkpt><trkpt lat="45.828689425554636" lon="9.864088035946818"><ele>421.0</ele><time>2026-05-02T08:37:48Z</time></trkpt><trkpt lat="45.8288025801004" lon="9.864159622819612"><ele>421.0</ele><time>2026-05-02T08:37:50Z</time></trkpt><trkpt lat="45.82886439130888" lon="9.864199599305202"><ele>421.0</ele><time>2026-05-02T08:37:51Z</time></trkpt><trkpt lat="45.828926079456664" lon="9.864230932971271"><ele>421.00000000000006</ele><time>2026-05-02T08:37:52Z</time></trkpt><trkpt lat="45.82900174839513" lon="9.86426985953024"><ele>421.0</ele><time>2026-05-02T08:37:53Z</time></trkpt><trkpt lat="45.82910225347761" lon="9.864343180834565"><ele>422.75</ele><time>2026-05-02T08:37:55Z</time></trkpt><trkpt lat="45.829216669167046" lon="9.86440809608486"><ele>424.5</ele><time>2026-05-02T08:37:57Z</time></trkpt><trkpt lat="45.82933132429285" lon="9.864475656574905"><ele>426.25</ele><time>2026-05-02T08:37:59Z</time></trkpt><trkpt lat="45.829445088803" lon="9.86453511724945"><ele>428.0</ele><time>2026-05-02T08:38:01Z</time></trkpt><trkpt lat="45.829558338692394" lon="9.86460770182425"><ele>427.99999999999994</ele><time>2026-05-02T08:38:03Z</time></trkpt><trkpt lat="45.82961896177371" lon="9.864645489209686"><ele>428.0</ele><time>2026-05-02T08:38:04Z</time></trkpt><trkpt lat="45.82974208154429" lon="9.864711594963715"><ele>428.0</ele><time>2026-05-02T08:38:06Z</time></trkpt><trkpt lat="45.82980650452711" lon="9.864746055250214"><ele>428.0</ele><time>2026-05-02T08:38:07Z</time></trkpt><trkpt lat="45.829861993888834" lon="9.864791561380695"><ele>427.99999999999994</ele><time>2026-05-02T08:38:08Z</time></trkpt><trkpt lat="45.82992261882134" lon="9.864820945647695"><ele>428.0</ele><time>2026-05-02T08:38:09Z</time></trkpt><trkpt lat="45.829982842268834" lon="9.864856073704003"><ele>427.99999999999994</ele><time>2026-05-02T08:38:10Z</time></trkpt><trkpt lat="45.83004012388085" lon="9.864896980334292"><ele>428.0</ele><time>2026-05-02T08:38:11Z</time></trkpt><trkpt lat="45.83015611148823" lon="9.86496395106966"><ele>428.0</ele><time>2026-05-02T08:38:13Z</time></trkpt><trkpt lat="45.83021770069532" lon="9.865000584870755"><ele>428.0</ele><time>2026-05-02T08:38:14Z</time></trkpt><trkpt lat="45.83027720905249" lon="9.865038723952413"><ele>427.99999999999994</ele><time>2026-05-02T08:38:15Z</time></trkpt><trkpt lat="45.830337415736516" lon="9.865074595673992"><ele>428.0</ele><time>2026-05-02T08:38:16Z</time></trkpt><trkpt lat="45.83039605091639" lon="9.865112893948934"><ele>428.16666666666663</ele><time>2026-05-02T08:38:17Z</time></trkpt><trkpt lat="45.830454623003256" lon="9.865147515250468"><ele>428.3333333333333</ele><time>2026-05-02T08:38:18Z</time></trkpt><trkpt lat="45.83051395962121" lon="9.86518440974143"><ele>428.5</ele><time>2026-05-02T08:38:19Z</time></trkpt><trkpt lat="45.83057341799103" lon="9.865217751520573"><ele>428.66666666666663</ele><time>2026-05-02T08:38:20Z</time></trkpt><trkpt lat="45.83069087999407" lon="9.865287082352882"><ele>428.8333333333333</ele><time>2026-05-02T08:38:22Z</time></trkpt><trkpt lat="45.830749327931535" lon="9.865322042914839"><ele>429.0</ele><time>2026-05-02T08:38:23Z</time></trkpt><trkpt lat="45.83086703833474" lon="9.865393483720544"><ele>427.0</ele><time>2026-05-02T08:38:25Z</time></trkpt><trkpt lat="45.83098265493941" lon="9.865462902714174"><ele>425.0</ele><time>2026-05-02T08:38:27Z</time></trkpt><trkpt lat="45.83109807170776" lon="9.86553048644257"><ele>423.0</ele><time>2026-05-02T08:38:29Z</time></trkpt><trkpt lat="45.83115673825042" lon="9.865567068229616"><ele>421.0</ele><time>2026-05-02T08:38:30Z</time></trkpt><trkpt lat="45.83127115659907" lon="9.865644751804739"><ele>419.0</ele><time>2026-05-02T08:38:32Z</time></trkpt><trkpt lat="45.83138822811254" lon="9.865721751515709"><ele>418.99999999999994</ele><time>2026-05-02T08:38:34Z</time></trkpt><trkpt lat="45.83150069225204" lon="9.865803969378646"><ele>419.0</ele><time>2026-05-02T08:38:36Z</time></trkpt><trkpt lat="45.83161215180515" lon="9.865889967988458"><ele>419.0</ele><time>2026-05-02T08:38:38Z</time></trkpt><trkpt lat="45.831669273381536" lon="9.865931336367735"><ele>419.0</ele><time>2026-05-02T08:38:39Z</time></trkpt><trkpt lat="45.83172733811651" lon="9.86597349413907"><ele>418.99999999999994</ele><time>2026-05-02T08:38:40Z</time></trkpt><trkpt lat="45.83178291435852" lon="9.866017529583567"><ele>419.0</ele><time>2026-05-02T08:38:41Z</time></trkpt><trkpt lat="45.831841152517136" lon="9.866060006608267"><ele>419.1428571428571</ele><time>2026-05-02T08:38:42Z</time></trkpt><trkpt lat="45.83189732298168" lon="9.866104118594228"><ele>419.2857142857143</ele><time>2026-05-02T08:38:43Z</time></trkpt><trkpt lat="45.83195530516445" lon="9.866146845890759"><ele>419.42857142857144</ele><time>2026-05-02T08:38:44Z</time></trkpt><trkpt lat="45.83201327396225" lon="9.866188304737276"><ele>419.57142857142856</ele><time>2026-05-02T08:38:45Z</time></trkpt><trkpt lat="45.83207223813449" lon="9.866227491047422"><ele>419.7142857142857</ele><time>2026-05-02T08:38:46Z</time></trkpt><trkpt lat="45.83212796959172" lon="9.866273643242252"><ele>419.85714285714283</ele><time>2026-05-02T08:38:47Z</time></trkpt><trkpt lat="45.8321870617183" lon="9.866316823470983"><ele>420.0</ele><time>2026-05-02T08:38:48Z</time></trkpt><trkpt lat="45.83229951571309" lon="9.866404152493255"><ele>420.0</ele><time>2026-05-02T08:38:50Z</time></trkpt><trkpt lat="45.83235670117467" lon="9.86644825563155"><ele>420.0</ele><time>2026-05-02T08:38:51Z</time></trkpt><trkpt lat="45.83241458672474" lon="9.866491098234999"><ele>420.0</ele><time>2026-05-02T08:38:52Z</time></trkpt><trkpt lat="45.832472294429444" lon="9.866533820150414"><ele>420.0</ele><time>2026-05-02T08:38:53Z</time></trkpt><trkpt lat="45.832530452536005" lon="9.866574746921671"><ele>420.0</ele><time>2026-05-02T08:38:54Z</time></trkpt><trkpt lat="45.832586323152725" lon="9.866622134011166"><ele>420.0</ele><time>2026-05-02T08:38:55Z</time></trkpt><trkpt lat="45.83269779326103" lon="9.866709728921764"><ele>421.8</ele><time>2026-05-02T08:38:57Z</time></trkpt><trkpt lat="45.83280856502657" lon="9.866790386073195"><ele>423.6</ele><time>2026-05-02T08:38:59Z</time></trkpt><trkpt lat="45.83291689339783" lon="9.866872229166713"><ele>425.4</ele><time>2026-05-02T08:39:01Z</time></trkpt><trkpt lat="45.83297165003109" lon="9.866916898066536"><ele>427.2</ele><time>2026-05-02T08:39:02Z</time></trkpt><trkpt lat="45.83308093463819" lon="9.867000960592327"><ele>429.0</ele><time>2026-05-02T08:39:04Z</time></trkpt><trkpt lat="45.83313907378717" lon="9.86703598080614"><ele>429.0</ele><time>2026-05-02T08:39:05Z</time></trkpt><trkpt lat="45.83324659191288" lon="9.86711903164106"><ele>429.0</ele><time>2026-05-02T08:39:07Z</time></trkpt><trkpt lat="45.83335563542076" lon="9.867200499661104"><ele>429.0</ele><time>2026-05-02T08:39:09Z</time></trkpt><trkpt lat="45.83341139652461" lon="9.867243985950545"><ele>429.0</ele><time>2026-05-02T08:39:10Z</time></trkpt><trkpt lat="45.83351933109326" lon="9.867326462889784"><ele>429.0</ele><time>2026-05-02T08:39:12Z</time></trkpt><trkpt lat="45.83363070347934" lon="9.867406908178475"><ele>427.4</ele><time>2026-05-02T08:39:14Z</time></trkpt><trkpt lat="45.83374020065249" lon="9.86749473588459"><ele>425.79999999999995</ele><time>2026-05-02T08:39:16Z</time></trkpt><trkpt lat="45.833849634075605" lon="9.867576977779898"><ele>424.20000000000005</ele><time>2026-05-02T08:39:18Z</time></trkpt><trkpt lat="45.83390649027876" lon="9.86761607636628"><ele>422.6</ele><time>2026-05-02T08:39:19Z</time></trkpt><trkpt lat="45.83401549856893" lon="9.867697141310456"><ele>421.0</ele><time>2026-05-02T08:39:21Z</time></trkpt><trkpt lat="45.83412505041321" lon="9.867780700253338"><ele>422.4</ele><time>2026-05-02T08:39:23Z</time></trkpt><trkpt lat="45.834234819766536" lon="9.867862324045655"><ele>423.8</ele><time>2026-05-02T08:39:25Z</time></trkpt><trkpt lat="45.83429211474478" lon="9.86790434878123"><ele>425.19999999999993</ele><time>2026-05-02T08:39:26Z</time></trkpt><trkpt lat="45.83440228702674" lon="9.867984832517989"><ele>426.59999999999997</ele><time>2026-05-02T08:39:28Z</time></trkpt><trkpt lat="45.83446010840973" lon="9.868026845970803"><ele>428.0</ele><time>2026-05-02T08:39:29Z</time></trkpt><trkpt lat="45.83456958303352" lon="9.868111911295246"><ele>428.0</ele><time>2026-05-02T08:39:31Z</time></trkpt><trkpt lat="45.83467723324372" lon="9.868190035196921"><ele>427.99999999999994</ele><time>2026-05-02T08:39:33Z</time></trkpt><trkpt lat="45.83473308775387" lon="9.868233264775913"><ele>427.99999999999994</ele><time>2026-05-02T08:39:34Z</time></trkpt><trkpt lat="45.834844278414806" lon="9.868317683115208"><ele>428.0</ele><time>2026-05-02T08:39:36Z</time></trkpt><trkpt lat="45.83495325901976" lon="9.86840005496814"><ele>428.0</ele><time>2026-05-02T08:39:38Z</time></trkpt><trkpt lat="45.835007839470734" lon="9.86844753746099"><ele>428.0</ele><time>2026-05-02T08:39:39Z</time></trkpt><trkpt lat="45.83511735189124" lon="9.86853250318918"><ele>427.99999999999994</ele><time>2026-05-02T08:39:41Z</time></trkpt><trkpt lat="45.83517346424682" lon="9.868576635458549"><ele>427.99999999999994</ele><time>2026-05-02T08:39:42Z</time></trkpt><trkpt lat="45.83528311607996" lon="9.868666054861244"><ele>428.0</ele><time>2026-05-02T08:39:44Z</time></trkpt><trkpt lat="45.83533920046218" lon="9.868711994997874"><ele>428.0</ele><time>2026-05-02T08:39:45Z</time></trkpt><trkpt lat="45.83544996054951" lon="9.86880287873711"><ele>427.99999999999994</ele><time>2026-05-02T08:39:47Z</time></trkpt><trkpt lat="45.835557323911374" lon="9.868892977315701"><ele>428.0</ele><time>2026-05-02T08:39:49Z</time></trkpt><trkpt lat="45.835610754612894" lon="9.868945884048179"><ele>428.0</ele><time>2026-05-02T08:39:50Z</time></trkpt><trkpt lat="45.83566478339554" lon="9.868994800193798"><ele>428.0</ele><time>2026-05-02T08:39:51Z</time></trkpt><trkpt lat="45.83577179886689" lon="9.86908638418272"><ele>427.99999999999994</ele><time>2026-05-02T08:39:53Z</time></trkpt><trkpt lat="45.83582550878996" lon="9.869134508763219"><ele>428.0</ele><time>2026-05-02T08:39:54Z</time></trkpt><trkpt lat="45.83587776991229" lon="9.869186997894086"><ele>427.99999999999994</ele><time>2026-05-02T08:39:55Z</time></trkpt><trkpt lat="45.83593145057808" lon="9.869235889054977"><ele>428.0</ele><time>2026-05-02T08:39:56Z</time></trkpt><trkpt lat="45.836035678144945" lon="9.869335859874564"><ele>428.0</ele><time>2026-05-02T08:39:58Z</time></trkpt><trkpt lat="45.83608995575374" lon="9.869383617636949"><ele>428.0</ele><time>2026-05-02T08:39:59Z</time></trkpt><trkpt lat="45.836197919989054" lon="9.869482904366745"><ele>427.99999999999994</ele><time>2026-05-02T08:40:01Z</time></trkpt><trkpt lat="45.8362514939523" lon="9.869530899454695"><ele>428.0</ele><time>2026-05-02T08:40:02Z</time></trkpt><trkpt lat="45.8363585743861" lon="9.869628830138051"><ele>428.5</ele><time>2026-05-02T08:40:04Z</time></trkpt><trkpt lat="45.83646791934611" lon="9.869726150830793"><ele>429.0</ele><time>2026-05-02T08:40:06Z</time></trkpt><trkpt lat="45.83657069138174" lon="9.869826726462414"><ele>429.5</ele><time>2026-05-02T08:40:08Z</time></trkpt><trkpt lat="45.83667504212655" lon="9.86992622981458"><ele>430.0</ele><time>2026-05-02T08:40:10Z</time></trkpt><trkpt lat="45.836780697252586" lon="9.870021969311411"><ele>430.00000000000006</ele><time>2026-05-02T08:40:12Z</time></trkpt><trkpt lat="45.83683393567831" lon="9.870070323682402"><ele>430.0</ele><time>2026-05-02T08:40:13Z</time></trkpt><trkpt lat="45.83688612961102" lon="9.870121992101845"><ele>430.0</ele><time>2026-05-02T08:40:14Z</time></trkpt><trkpt lat="45.83693912601192" lon="9.870172690946672"><ele>430.0</ele><time>2026-05-02T08:40:15Z</time></trkpt><trkpt lat="45.837044206174674" lon="9.870270065900918"><ele>430.00000000000006</ele><time>2026-05-02T08:40:17Z</time></trkpt><trkpt lat="45.8371502439911" lon="9.870366067394665"><ele>430.0</ele><time>2026-05-02T08:40:19Z</time></trkpt><trkpt lat="45.83720380653413" lon="9.87041489279939"><ele>430.0</ele><time>2026-05-02T08:40:20Z</time></trkpt><trkpt lat="45.83730894905741" lon="9.870509674306538"><ele>430.0</ele><time>2026-05-02T08:40:22Z</time></trkpt><trkpt lat="45.83741135011832" lon="9.870606606511128"><ele>430.0</ele><time>2026-05-02T08:40:24Z</time></trkpt><trkpt lat="45.83746525839332" lon="9.87065531573162"><ele>430.0</ele><time>2026-05-02T08:40:25Z</time></trkpt><trkpt lat="45.83757062630096" lon="9.870748965827783"><ele>430.0</ele><time>2026-05-02T08:40:27Z</time></trkpt><trkpt lat="45.837673100820645" lon="9.87084130141701"><ele>429.8</ele><time>2026-05-02T08:40:29Z</time></trkpt><trkpt lat="45.83777773084637" lon="9.870939800210051"><ele>429.6</ele><time>2026-05-02T08:40:31Z</time></trkpt><trkpt lat="45.83787940050251" lon="9.871042836767364"><ele>429.4</ele><time>2026-05-02T08:40:33Z</time></trkpt><trkpt lat="45.837929814656476" lon="9.871098390921318"><ele>429.2</ele><time>2026-05-02T08:40:34Z</time></trkpt><trkpt lat="45.837980312665536" lon="9.87115351053815"><ele>429.0</ele><time>2026-05-02T08:40:35Z</time></trkpt><trkpt lat="45.838072370311565" lon="9.871271251770361"><ele>429.0</ele><time>2026-05-02T08:40:37Z</time></trkpt><trkpt lat="45.83815651180946" lon="9.87138901875503"><ele>429.0</ele><time>2026-05-02T08:40:39Z</time></trkpt><trkpt lat="45.83823917845357" lon="9.871526378354936"><ele>429.0</ele><time>2026-05-02T08:40:41Z</time></trkpt><trkpt lat="45.83828047992516" lon="9.87159985700557"><ele>429.0</ele><time>2026-05-02T08:40:42Z</time></trkpt><trkpt lat="45.8383172946896" lon="9.871679591895683"><ele>429.0</ele><time>2026-05-02T08:40:43Z</time></trkpt><trkpt lat="45.83836038729997" lon="9.871753584019151"><ele>429.0</ele><time>2026-05-02T08:40:44Z</time></trkpt><trkpt lat="45.83842211431059" lon="9.871914940673362"><ele>428.2857142857143</ele><time>2026-05-02T08:40:46Z</time></trkpt><trkpt lat="45.838471167783425" lon="9.871980702589216"><ele>427.57142857142856</ele><time>2026-05-02T08:40:47Z</time></trkpt><trkpt lat="45.83851413361094" lon="9.87205796065011"><ele>426.8571428571429</ele><time>2026-05-02T08:40:48Z</time></trkpt><trkpt lat="45.838556826541776" lon="9.872127930108125"><ele>426.1428571428571</ele><time>2026-05-02T08:40:49Z</time></trkpt><trkpt lat="45.838601137044506" lon="9.872195913742662"><ele>425.4285714285714</ele><time>2026-05-02T08:40:50Z</time></trkpt><trkpt lat="45.838646328581234" lon="9.872263159794471"><ele>424.7142857142857</ele><time>2026-05-02T08:40:51Z</time></trkpt><trkpt lat="45.83869181685555" lon="9.872330861133308"><ele>424.0</ele><time>2026-05-02T08:40:52Z</time></trkpt><trkpt lat="45.838736858517485" lon="9.872398234806328"><ele>424.0</ele><time>2026-05-02T08:40:53Z</time></trkpt><trkpt lat="45.83878236839026" lon="9.872469345047959"><ele>424.0</ele><time>2026-05-02T08:40:54Z</time></trkpt><trkpt lat="45.8388264126673" lon="9.872539221552854"><ele>424.0</ele><time>2026-05-02T08:40:55Z</time></trkpt><trkpt lat="45.83887306372232" lon="9.872610297793594"><ele>424.0</ele><time>2026-05-02T08:40:56Z</time></trkpt><trkpt lat="45.8389196837087" lon="9.872683767500371"><ele>424.0</ele><time>2026-05-02T08:40:57Z</time></trkpt><trkpt lat="45.8389642805737" lon="9.872756310738405"><ele>424.0</ele><time>2026-05-02T08:40:58Z</time></trkpt><trkpt lat="45.83901458251078" lon="9.872826184257372"><ele>424.0</ele><time>2026-05-02T08:40:59Z</time></trkpt><trkpt lat="45.839058577190535" lon="9.87289961831989"><ele>423.5714285714286</ele><time>2026-05-02T08:41:00Z</time></trkpt><trkpt lat="45.83910532761418" lon="9.872970412203326"><ele>423.1428571428571</ele><time>2026-05-02T08:41:01Z</time></trkpt><trkpt lat="45.83915582122929" lon="9.873041510595634"><ele>422.7142857142857</ele><time>2026-05-02T08:41:02Z</time></trkpt><trkpt lat="45.83919323647954" lon="9.873122498888842"><ele>422.28571428571433</ele><time>2026-05-02T08:41:03Z</time></trkpt><trkpt lat="45.83925069363283" lon="9.873178956026285"><ele>421.8571428571429</ele><time>2026-05-02T08:41:04Z</time></trkpt><trkpt lat="45.83929556623822" lon="9.873253609968996"><ele>421.42857142857144</ele><time>2026-05-02T08:41:05Z</time></trkpt><trkpt lat="45.83934635588203" lon="9.873318067379264"><ele>421.0</ele><time>2026-05-02T08:41:06Z</time></trkpt><trkpt lat="45.83939612821356" lon="9.873382624085405"><ele>422.6666666666667</ele><time>2026-05-02T08:41:07Z</time></trkpt><trkpt lat="45.839444852471786" lon="9.873442954555633"><ele>424.33333333333337</ele><time>2026-05-02T08:41:08Z</time></trkpt><trkpt lat="45.839493647734265" lon="9.87350212005574"><ele>426.0</ele><time>2026-05-02T08:41:09Z</time></trkpt><trkpt lat="45.839589393172666" lon="9.873613325394267"><ele>427.66666666666663</ele><time>2026-05-02T08:41:11Z</time></trkpt><trkpt lat="45.839639030008925" lon="9.873676722326428"><ele>429.3333333333333</ele><time>2026-05-02T08:41:12Z</time></trkpt><trkpt lat="45.839686711273565" lon="9.87373880318254"><ele>431.0</ele><time>2026-05-02T08:41:13Z</time></trkpt><trkpt lat="45.839782188968165" lon="9.873855972720117"><ele>431.0</ele><time>2026-05-02T08:41:15Z</time></trkpt><trkpt lat="45.83983234927922" lon="9.873913810447444"><ele>431.0</ele><time>2026-05-02T08:41:16Z</time></trkpt><trkpt lat="45.83992759945832" lon="9.874034968940931"><ele>431.0</ele><time>2026-05-02T08:41:18Z</time></trkpt><trkpt lat="45.84002194217107" lon="9.87415097086276"><ele>431.0</ele><time>2026-05-02T08:41:20Z</time></trkpt><trkpt lat="45.840071098647336" lon="9.874208532206334"><ele>431.0</ele><time>2026-05-02T08:41:21Z</time></trkpt><trkpt lat="45.840166071568106" lon="9.874319103234397"><ele>431.5</ele><time>2026-05-02T08:41:23Z</time></trkpt><trkpt lat="45.840262028464764" lon="9.874425369079214"><ele>432.0</ele><time>2026-05-02T08:41:25Z</time></trkpt><trkpt lat="45.84036520376094" lon="9.874526978313737"><ele>432.5</ele><time>2026-05-02T08:41:27Z</time></trkpt><trkpt lat="45.84046946813539" lon="9.874618971469308"><ele>433.0</ele><time>2026-05-02T08:41:29Z</time></trkpt><trkpt lat="45.84057131534476" lon="9.874714515198956"><ele>433.0</ele><time>2026-05-02T08:41:31Z</time></trkpt><trkpt lat="45.84067378016917" lon="9.874807512554092"><ele>433.0</ele><time>2026-05-02T08:41:33Z</time></trkpt><trkpt lat="45.84078189769187" lon="9.87489506440517"><ele>433.0</ele><time>2026-05-02T08:41:35Z</time></trkpt><trkpt lat="45.84088754630241" lon="9.874980321439962"><ele>433.0</ele><time>2026-05-02T08:41:37Z</time></trkpt><trkpt lat="45.840995746172254" lon="9.875064535692752"><ele>434.25</ele><time>2026-05-02T08:41:39Z</time></trkpt><trkpt lat="45.84110197479324" lon="9.875150355235556"><ele>435.5</ele><time>2026-05-02T08:41:41Z</time></trkpt><trkpt lat="45.84120575028066" lon="9.875238618630487"><ele>436.75</ele><time>2026-05-02T08:41:43Z</time></trkpt><trkpt lat="45.841313502235934" lon="9.875323307107529"><ele>438.0</ele><time>2026-05-02T08:41:45Z</time></trkpt><trkpt lat="45.84141837395111" lon="9.875408223202573"><ele>438.0</ele><time>2026-05-02T08:41:47Z</time></trkpt><trkpt lat="45.841520220630734" lon="9.875491553124206"><ele>438.0</ele><time>2026-05-02T08:41:49Z</time></trkpt><trkpt lat="45.84162434865168" lon="9.875576686832177"><ele>438.0</ele><time>2026-05-02T08:41:51Z</time></trkpt><trkpt lat="45.841725132917226" lon="9.875664778578091"><ele>438.0</ele><time>2026-05-02T08:41:53Z</time></trkpt><trkpt lat="45.84182122845924" lon="9.875761916908175"><ele>437.5</ele><time>2026-05-02T08:41:55Z</time></trkpt><trkpt lat="45.84191337729068" lon="9.875867721500045"><ele>437.0</ele><time>2026-05-02T08:41:57Z</time></trkpt><trkpt lat="45.84200208098161" lon="9.875979206834005"><ele>436.5</ele><time>2026-05-02T08:41:59Z</time></trkpt><trkpt lat="45.842086107177835" lon="9.876100712963751"><ele>436.0</ele><time>2026-05-02T08:42:01Z</time></trkpt><trkpt lat="45.842166799166115" lon="9.876230107333976"><ele>436.0</ele><time>2026-05-02T08:42:03Z</time></trkpt><trkpt lat="45.84224263717259" lon="9.87636459808831"><ele>436.0</ele><time>2026-05-02T08:42:05Z</time></trkpt><trkpt lat="45.84231228294546" lon="9.876507944894561"><ele>436.0</ele><time>2026-05-02T08:42:07Z</time></trkpt><trkpt lat="45.842380023464685" lon="9.876658162702233"><ele>436.0</ele><time>2026-05-02T08:42:09Z</time></trkpt><trkpt lat="45.8424087357341" lon="9.876738704453636"><ele>436.0</ele><time>2026-05-02T08:42:10Z</time></trkpt><trkpt lat="45.84246531587234" lon="9.876897622944938"><ele>434.25</ele><time>2026-05-02T08:42:12Z</time></trkpt><trkpt lat="45.84251174664388" lon="9.877053341408573"><ele>432.5</ele><time>2026-05-02T08:42:14Z</time></trkpt><trkpt lat="45.84255962727196" lon="9.87720279824175"><ele>430.75</ele><time>2026-05-02T08:42:16Z</time></trkpt><trkpt lat="45.842606650260294" lon="9.877348056752995"><ele>429.0</ele><time>2026-05-02T08:42:18Z</time></trkpt><trkpt lat="45.842656048084" lon="9.877491244463272"><ele>429.0</ele><time>2026-05-02T08:42:20Z</time></trkpt><trkpt lat="45.842681156679646" lon="9.877576609974193"><ele>429.0</ele><time>2026-05-02T08:42:21Z</time></trkpt><trkpt lat="45.84270945204607" lon="9.877657862693024"><ele>429.0</ele><time>2026-05-02T08:42:22Z</time></trkpt><trkpt lat="45.84273529575095" lon="9.877744218641123"><ele>429.0</ele><time>2026-05-02T08:42:23Z</time></trkpt><trkpt lat="45.842760582850026" lon="9.877827961534976"><ele>429.0</ele><time>2026-05-02T08:42:24Z</time></trkpt><trkpt lat="45.842785849472435" lon="9.877913146781951"><ele>429.0</ele><time>2026-05-02T08:42:25Z</time></trkpt><trkpt lat="45.842813943431636" lon="9.877996212097575"><ele>429.0</ele><time>2026-05-02T08:42:26Z</time></trkpt><trkpt lat="45.84284117464242" lon="9.878081626575295"><ele>429.5</ele><time>2026-05-02T08:42:27Z</time></trkpt><trkpt lat="45.84289542554203" lon="9.878249575662847"><ele>430.0</ele><time>2026-05-02T08:42:29Z</time></trkpt><trkpt lat="45.842921401972944" lon="9.878332793866887"><ele>430.5</ele><time>2026-05-02T08:42:30Z</time></trkpt><trkpt lat="45.84295008775829" lon="9.878415073213516"><ele>431.0</ele><time>2026-05-02T08:42:31Z</time></trkpt><trkpt lat="45.8429768602309" lon="9.878498720281316"><ele>431.5</ele><time>2026-05-02T08:42:32Z</time></trkpt><trkpt lat="45.84303147996048" lon="9.87866190927281"><ele>432.0</ele><time>2026-05-02T08:42:34Z</time></trkpt><trkpt lat="45.843060431031574" lon="9.878743015978067"><ele>432.57142857142856</ele><time>2026-05-02T08:42:35Z</time></trkpt><trkpt lat="45.843088938239426" lon="9.878824526450822"><ele>433.1428571428571</ele><time>2026-05-02T08:42:36Z</time></trkpt><trkpt lat="45.84311765515348" lon="9.878907449319813"><ele>433.7142857142857</ele><time>2026-05-02T08:42:37Z</time></trkpt><trkpt lat="45.84318219893473" lon="9.879064220181041"><ele>434.2857142857143</ele><time>2026-05-02T08:42:39Z</time></trkpt><trkpt lat="45.84321323493311" lon="9.879143998612076"><ele>434.8571428571429</ele><time>2026-05-02T08:42:40Z</time></trkpt><trkpt lat="45.84324841972462" lon="9.879220926390978"><ele>435.42857142857144</ele><time>2026-05-02T08:42:41Z</time></trkpt><trkpt lat="45.84328188436214" lon="9.879297641478013"><ele>436.0</ele><time>2026-05-02T08:42:42Z</time></trkpt><trkpt lat="45.84331629229401" lon="9.87937699578711"><ele>436.0</ele><time>2026-05-02T08:42:43Z</time></trkpt><trkpt lat="45.84335315450395" lon="9.879450679408935"><ele>436.0</ele><time>2026-05-02T08:42:44Z</time></trkpt><trkpt lat="45.84339124782717" lon="9.879525266869896"><ele>436.0</ele><time>2026-05-02T08:42:45Z</time></trkpt><trkpt lat="45.84342733828073" lon="9.8796025761393"><ele>436.0</ele><time>2026-05-02T08:42:46Z</time></trkpt><trkpt lat="45.84346780222188" lon="9.879674379250124"><ele>436.0</ele><time>2026-05-02T08:42:47Z</time></trkpt><trkpt lat="45.843505626279224" lon="9.879748970283824"><ele>436.0</ele><time>2026-05-02T08:42:48Z</time></trkpt><trkpt lat="45.84354783884355" lon="9.879821414600075"><ele>436.0</ele><time>2026-05-02T08:42:49Z</time></trkpt><trkpt lat="45.843638497456894" lon="9.879942548073839"><ele>436.00000000000006</ele><time>2026-05-02T08:42:51Z</time></trkpt><trkpt lat="45.843739957069246" lon="9.88004624128322"><ele>436.0</ele><time>2026-05-02T08:42:53Z</time></trkpt><trkpt lat="45.843801056101476" lon="9.880085677165107"><ele>436.0</ele><time>2026-05-02T08:42:54Z</time></trkpt><trkpt lat="45.843862339501804" lon="9.880107557921823"><ele>436.0</ele><time>2026-05-02T08:42:55Z</time></trkpt><trkpt lat="45.84392432882751" lon="9.880126410099173"><ele>436.00000000000006</ele><time>2026-05-02T08:42:56Z</time></trkpt><trkpt lat="45.84399045428618" lon="9.880127496797357"><ele>436.0</ele><time>2026-05-02T08:42:57Z</time></trkpt><trkpt lat="45.84411388379862" lon="9.88009098610551"><ele>436.00000000000006</ele><time>2026-05-02T08:42:59Z</time></trkpt><trkpt lat="45.84417282696755" lon="9.880058736436059"><ele>436.0</ele><time>2026-05-02T08:43:00Z</time></trkpt><trkpt lat="45.844231120737824" lon="9.880020334581415"><ele>436.0</ele><time>2026-05-02T08:43:01Z</time></trkpt><trkpt lat="45.84429149474866" lon="9.879989695932435"><ele>436.0</ele><time>2026-05-02T08:43:02Z</time></trkpt><trkpt lat="45.84440953729075" lon="9.879926361118997"><ele>436.00000000000006</ele><time>2026-05-02T08:43:04Z</time></trkpt><trkpt lat="45.84452523033529" lon="9.879865846667006"><ele>436.0</ele><time>2026-05-02T08:43:06Z</time></trkpt><trkpt lat="45.84463719012071" lon="9.879807618066549"><ele>436.20000000000005</ele><time>2026-05-02T08:43:08Z</time></trkpt><trkpt lat="45.84475113178549" lon="9.879757979688746"><ele>436.40000000000003</ele><time>2026-05-02T08:43:10Z</time></trkpt><trkpt lat="45.844868571512116" lon="9.879708317507419"><ele>436.6</ele><time>2026-05-02T08:43:12Z</time></trkpt><trkpt lat="45.844987008656084" lon="9.879666511959886"><ele>436.8</ele><time>2026-05-02T08:43:14Z</time></trkpt><trkpt lat="45.84504986691881" lon="9.879646535173878"><ele>437.0</ele><time>2026-05-02T08:43:15Z</time></trkpt><trkpt lat="45.84511385192744" lon="9.879634140255911"><ele>436.85714285714283</ele><time>2026-05-02T08:43:16Z</time></trkpt><trkpt lat="45.84517743735663" lon="9.879616822157669"><ele>436.7142857142857</ele><time>2026-05-02T08:43:17Z</time></trkpt><trkpt lat="45.845242605802426" lon="9.8796010186493"><ele>436.57142857142856</ele><time>2026-05-02T08:43:18Z</time></trkpt><trkpt lat="45.84530584413435" lon="9.879589973751823"><ele>436.42857142857144</ele><time>2026-05-02T08:43:19Z</time></trkpt><trkpt lat="45.845373712969206" lon="9.879572137928609"><ele>436.28571428571433</ele><time>2026-05-02T08:43:20Z</time></trkpt><trkpt lat="45.84543892514036" lon="9.879562438424239"><ele>436.14285714285717</ele><time>2026-05-02T08:43:21Z</time></trkpt><trkpt lat="45.84550900205835" lon="9.879542329086561"><ele>436.0</ele><time>2026-05-02T08:43:22Z</time></trkpt><trkpt lat="45.84557337494087" lon="9.879540967214478"><ele>436.0</ele><time>2026-05-02T08:43:23Z</time></trkpt><trkpt lat="45.845640926896074" lon="9.879528576157238"><ele>436.0</ele><time>2026-05-02T08:43:24Z</time></trkpt><trkpt lat="45.84571006708615" lon="9.87951832000904"><ele>436.0</ele><time>2026-05-02T08:43:25Z</time></trkpt><trkpt lat="45.84578011998238" lon="9.879507358608224"><ele>436.0</ele><time>2026-05-02T08:43:26Z</time></trkpt><trkpt lat="45.845849762006054" lon="9.879498302137806"><ele>436.0</ele><time>2026-05-02T08:43:27Z</time></trkpt><trkpt lat="45.8459208572408" lon="9.87949297092547"><ele>436.0</ele><time>2026-05-02T08:43:28Z</time></trkpt><trkpt lat="45.84599328251302" lon="9.879475537497427"><ele>436.0</ele><time>2026-05-02T08:43:29Z</time></trkpt><trkpt lat="45.846064196593886" lon="9.87946330141587"><ele>435.6666666666667</ele><time>2026-05-02T08:43:30Z</time></trkpt><trkpt lat="45.846136359187874" lon="9.87945484290187"><ele>435.33333333333337</ele><time>2026-05-02T08:43:31Z</time></trkpt><trkpt lat="45.84620925263951" lon="9.879436882072145"><ele>435.0</ele><time>2026-05-02T08:43:32Z</time></trkpt><trkpt lat="45.846283961967956" lon="9.879420599169203"><ele>434.66666666666663</ele><time>2026-05-02T08:43:33Z</time></trkpt><trkpt lat="45.8463578662898" lon="9.879412927118732"><ele>434.3333333333333</ele><time>2026-05-02T08:43:34Z</time></trkpt><trkpt lat="45.846436146951845" lon="9.879405239921903"><ele>434.0</ele><time>2026-05-02T08:43:35Z</time></trkpt><trkpt lat="45.846511475796895" lon="9.879405644367534"><ele>433.99999999999994</ele><time>2026-05-02T08:43:36Z</time></trkpt><trkpt lat="45.84659202236266" lon="9.8793956804397"><ele>434.0</ele><time>2026-05-02T08:43:37Z</time></trkpt><trkpt lat="45.846669832038614" lon="9.87938186014419"><ele>434.0</ele><time>2026-05-02T08:43:38Z</time></trkpt><trkpt lat="45.84674738272218" lon="9.879362638146416"><ele>434.0</ele><time>2026-05-02T08:43:39Z</time></trkpt><trkpt lat="45.84682424003137" lon="9.87934978532931"><ele>433.99999999999994</ele><time>2026-05-02T08:43:40Z</time></trkpt><trkpt lat="45.84690274098275" lon="9.879345972115871"><ele>434.0</ele><time>2026-05-02T08:43:41Z</time></trkpt><trkpt lat="45.84697915521723" lon="9.879346228806117"><ele>434.42857142857144</ele><time>2026-05-02T08:43:42Z</time></trkpt><trkpt lat="45.84705486191229" lon="9.879342521916822"><ele>434.8571428571429</ele><time>2026-05-02T08:43:43Z</time></trkpt><trkpt lat="45.84713084789949" lon="9.8793414936747"><ele>435.2857142857143</ele><time>2026-05-02T08:43:44Z</time></trkpt><trkpt lat="45.847204667625924" lon="9.87934919234665"><ele>435.7142857142857</ele><time>2026-05-02T08:43:45Z</time></trkpt><trkpt lat="45.847279175006804" lon="9.879356800335831"><ele>436.14285714285717</ele><time>2026-05-02T08:43:46Z</time></trkpt><trkpt lat="45.84735029890439" lon="9.879377818487317"><ele>436.57142857142856</ele><time>2026-05-02T08:43:47Z</time></trkpt><trkpt lat="45.84741949298304" lon="9.879402392985245"><ele>437.0</ele><time>2026-05-02T08:43:48Z</time></trkpt><trkpt lat="45.84748682875847" lon="9.879426676810292"><ele>437.0</ele><time>2026-05-02T08:43:49Z</time></trkpt><trkpt lat="45.847552556927745" lon="9.879457052684891"><ele>437.0</ele><time>2026-05-02T08:43:50Z</time></trkpt><trkpt lat="45.8476143865257" lon="9.879493577258751"><ele>437.0</ele><time>2026-05-02T08:43:51Z</time></trkpt><trkpt lat="45.84767417584777" lon="9.879531446114534"><ele>437.0</ele><time>2026-05-02T08:43:52Z</time></trkpt><trkpt lat="45.84773348481618" lon="9.879573026684941"><ele>437.0</ele><time>2026-05-02T08:43:53Z</time></trkpt><trkpt lat="45.847789032942806" lon="9.879618265073116"><ele>437.0</ele><time>2026-05-02T08:43:54Z</time></trkpt><trkpt lat="45.84784151496226" lon="9.879669382057374"><ele>437.0</ele><time>2026-05-02T08:43:55Z</time></trkpt><trkpt lat="45.84789396376519" lon="9.87972155119806"><ele>436.99999999999994</ele><time>2026-05-02T08:43:56Z</time></trkpt><trkpt lat="45.847991790949614" lon="9.879833129544116"><ele>437.0</ele><time>2026-05-02T08:43:58Z</time></trkpt><trkpt lat="45.84803966584428" lon="9.879892573626325"><ele>437.0</ele><time>2026-05-02T08:43:59Z</time></trkpt><trkpt lat="45.84808788809663" lon="9.8799519325623"><ele>437.0</ele><time>2026-05-02T08:44:00Z</time></trkpt><trkpt lat="45.84819015477131" lon="9.880053644975277"><ele>436.99999999999994</ele><time>2026-05-02T08:44:02Z</time></trkpt><trkpt lat="45.848233129764154" lon="9.880124016541231"><ele>437.0</ele><time>2026-05-02T08:44:03Z</time></trkpt><trkpt lat="45.848331955435015" lon="9.880237158961377"><ele>436.8</ele><time>2026-05-02T08:44:05Z</time></trkpt><trkpt lat="45.848425643047115" lon="9.880355242577387"><ele>436.6</ele><time>2026-05-02T08:44:07Z</time></trkpt><trkpt lat="45.84847459837267" lon="9.880413503270413"><ele>436.40000000000003</ele><time>2026-05-02T08:44:08Z</time></trkpt><trkpt lat="45.84857243804966" lon="9.880527569637744"><ele>436.20000000000005</ele><time>2026-05-02T08:44:10Z</time></trkpt><trkpt lat="45.84866520734889" lon="9.880644416172728"><ele>436.0</ele><time>2026-05-02T08:44:12Z</time></trkpt><trkpt lat="45.84876207804363" lon="9.880758220958414"><ele>436.20000000000005</ele><time>2026-05-02T08:44:14Z</time></trkpt><trkpt lat="45.84885585608544" lon="9.880873820903536"><ele>436.40000000000003</ele><time>2026-05-02T08:44:16Z</time></trkpt><trkpt lat="45.84894937885698" lon="9.880991701678619"><ele>436.6</ele><time>2026-05-02T08:44:18Z</time></trkpt><trkpt lat="45.84900154829004" lon="9.881047055479772"><ele>436.8</ele><time>2026-05-02T08:44:19Z</time></trkpt><trkpt lat="45.84905072665381" lon="9.88110379389848"><ele>437.0</ele><time>2026-05-02T08:44:20Z</time></trkpt><trkpt lat="45.849148568477766" lon="9.881216081418726"><ele>437.0</ele><time>2026-05-02T08:44:22Z</time></trkpt><trkpt lat="45.84924555132285" lon="9.881325477775674"><ele>437.00000000000006</ele><time>2026-05-02T08:44:24Z</time></trkpt><trkpt lat="45.84930018548217" lon="9.881371976923443"><ele>437.00000000000006</ele><time>2026-05-02T08:44:25Z</time></trkpt><trkpt lat="45.84940700804933" lon="9.881464031122606"><ele>437.0</ele><time>2026-05-02T08:44:27Z</time></trkpt><trkpt lat="45.84951732246879" lon="9.881547249746658"><ele>437.0</ele><time>2026-05-02T08:44:29Z</time></trkpt><trkpt lat="45.849626789405164" lon="9.881608438976263"><ele>437.8</ele><time>2026-05-02T08:44:31Z</time></trkpt><trkpt lat="45.84974401873502" lon="9.88166776550097"><ele>438.6</ele><time>2026-05-02T08:44:33Z</time></trkpt><trkpt lat="45.8498642733804" lon="9.881715107545961"><ele>439.40000000000003</ele><time>2026-05-02T08:44:35Z</time></trkpt><trkpt lat="45.84998449884643" lon="9.881756466476045"><ele>440.20000000000005</ele><time>2026-05-02T08:44:37Z</time></trkpt><trkpt lat="45.85004691689081" lon="9.881770198790367"><ele>441.0</ele><time>2026-05-02T08:44:38Z</time></trkpt><trkpt lat="45.850167245458366" lon="9.881799176721268"><ele>441.25</ele><time>2026-05-02T08:44:40Z</time></trkpt><trkpt lat="45.85029156795567" lon="9.881812807246467"><ele>441.5</ele><time>2026-05-02T08:44:42Z</time></trkpt><trkpt lat="45.8504160665295" lon="9.881816059786829"><ele>441.75</ele><time>2026-05-02T08:44:44Z</time></trkpt><trkpt lat="45.85054010262859" lon="9.881801489903983"><ele>442.0</ele><time>2026-05-02T08:44:46Z</time></trkpt><trkpt lat="45.85066424914603" lon="9.881786474994495"><ele>442.0</ele><time>2026-05-02T08:44:48Z</time></trkpt><trkpt lat="45.85078075925945" lon="9.88178187537662"><ele>442.00000000000006</ele><time>2026-05-02T08:44:50Z</time></trkpt><trkpt lat="45.85088704122427" lon="9.881772150488743"><ele>442.00000000000006</ele><time>2026-05-02T08:44:52Z</time></trkpt><trkpt lat="45.850991664399324" lon="9.881761401998569"><ele>442.0</ele><time>2026-05-02T08:44:54Z</time></trkpt><trkpt lat="45.85111212914399" lon="9.881746613264752"><ele>442.0</ele><time>2026-05-02T08:44:56Z</time></trkpt><trkpt lat="45.85123913138383" lon="9.881734965777408"><ele>443.50000000000006</ele><time>2026-05-02T08:44:58Z</time></trkpt><trkpt lat="45.85130646798294" lon="9.881727674803043"><ele>445.0</ele><time>2026-05-02T08:44:59Z</time></trkpt><trkpt lat="45.85137512266815" lon="9.881720594029604"><ele>446.5</ele><time>2026-05-02T08:45:00Z</time></trkpt><trkpt lat="45.85144081853282" lon="9.8817119364348"><ele>448.0</ele><time>2026-05-02T08:45:01Z</time></trkpt><trkpt lat="45.851507329974666" lon="9.88170437135002"><ele>449.50000000000006</ele><time>2026-05-02T08:45:02Z</time></trkpt><trkpt lat="45.85164420442646" lon="9.88169406403818"><ele>451.0</ele><time>2026-05-02T08:45:04Z</time></trkpt><trkpt lat="45.85176967246356" lon="9.881680321943085"><ele>450.6</ele><time>2026-05-02T08:45:06Z</time></trkpt><trkpt lat="45.85189958088339" lon="9.881665656974368"><ele>450.20000000000005</ele><time>2026-05-02T08:45:08Z</time></trkpt><trkpt lat="45.852029922207585" lon="9.88164633761309"><ele>449.79999999999995</ele><time>2026-05-02T08:45:10Z</time></trkpt><trkpt lat="45.852094594166566" lon="9.881640315300336"><ele>449.4</ele><time>2026-05-02T08:45:11Z</time></trkpt><trkpt lat="45.85216093718328" lon="9.881630198218625"><ele>449.0</ele><time>2026-05-02T08:45:12Z</time></trkpt><trkpt lat="45.85222725191055" lon="9.881619389212347"><ele>449.0</ele><time>2026-05-02T08:45:13Z</time></trkpt><trkpt lat="45.852295550650645" lon="9.881606241950703"><ele>448.99999999999994</ele><time>2026-05-02T08:45:14Z</time></trkpt><trkpt lat="45.85236139938386" lon="9.881592918180266"><ele>449.0</ele><time>2026-05-02T08:45:15Z</time></trkpt><trkpt lat="45.85242781198193" lon="9.881580361279656"><ele>449.0</ele><time>2026-05-02T08:45:16Z</time></trkpt><trkpt lat="45.85249346639891" lon="9.881565204163042"><ele>448.99999999999994</ele><time>2026-05-02T08:45:17Z</time></trkpt><trkpt lat="45.852557251326985" lon="9.881547736307168"><ele>449.0</ele><time>2026-05-02T08:45:18Z</time></trkpt><trkpt lat="45.852620782391966" lon="9.881530917026684"><ele>449.0</ele><time>2026-05-02T08:45:19Z</time></trkpt><trkpt lat="45.8526869003598" lon="9.88151420749716"><ele>448.5</ele><time>2026-05-02T08:45:20Z</time></trkpt><trkpt lat="45.85274938482022" lon="9.881494488956818"><ele>448.0</ele><time>2026-05-02T08:45:21Z</time></trkpt><trkpt lat="45.85281169350608" lon="9.881473427410958"><ele>447.5</ele><time>2026-05-02T08:45:22Z</time></trkpt><trkpt lat="45.85287293048854" lon="9.881451263714021"><ele>447.0</ele><time>2026-05-02T08:45:23Z</time></trkpt><trkpt lat="45.85293558197029" lon="9.881432868715322"><ele>446.5</ele><time>2026-05-02T08:45:24Z</time></trkpt><trkpt lat="45.852997242371956" lon="9.881410502930281"><ele>446.0</ele><time>2026-05-02T08:45:25Z</time></trkpt><trkpt lat="45.8530595595313" lon="9.881384313372418"><ele>445.5</ele><time>2026-05-02T08:45:26Z</time></trkpt><trkpt lat="45.85312071388583" lon="9.881360262302897"><ele>445.0</ele><time>2026-05-02T08:45:27Z</time></trkpt><trkpt lat="45.85318223141467" lon="9.881332451924266"><ele>445.00000000000006</ele><time>2026-05-02T08:45:28Z</time></trkpt><trkpt lat="45.85324346458319" lon="9.881303873096499"><ele>445.0</ele><time>2026-05-02T08:45:29Z</time></trkpt><trkpt lat="45.853306072224704" lon="9.881277475268966"><ele>445.0</ele><time>2026-05-02T08:45:30Z</time></trkpt><trkpt lat="45.85336666038153" lon="9.88124513707803"><ele>445.0</ele><time>2026-05-02T08:45:31Z</time></trkpt><trkpt lat="45.85348972411263" lon="9.881190659959385"><ele>445.00000000000006</ele><time>2026-05-02T08:45:33Z</time></trkpt><trkpt lat="45.85355024097817" lon="9.881159079302396"><ele>445.0</ele><time>2026-05-02T08:45:34Z</time></trkpt><trkpt lat="45.853609570986954" lon="9.881123470063947"><ele>444.33333333333337</ele><time>2026-05-02T08:45:35Z</time></trkpt><trkpt lat="45.85372564376327" lon="9.881052400397776"><ele>443.6666666666667</ele><time>2026-05-02T08:45:37Z</time></trkpt><trkpt lat="45.853784781032836" lon="9.881020551254394"><ele>443.0</ele><time>2026-05-02T08:45:38Z</time></trkpt><trkpt lat="45.8538439637591" lon="9.880983905596148"><ele>442.33333333333337</ele><time>2026-05-02T08:45:39Z</time></trkpt><trkpt lat="45.853903214939535" lon="9.880949198750082"><ele>441.6666666666667</ele><time>2026-05-02T08:45:40Z</time></trkpt><trkpt lat="45.85401618328637" lon="9.880877378441472"><ele>441.0</ele><time>2026-05-02T08:45:42Z</time></trkpt><trkpt lat="45.8541289355877" lon="9.880804128521826"><ele>441.20000000000005</ele><time>2026-05-02T08:45:44Z</time></trkpt><trkpt lat="45.85418674566356" lon="9.880764952306997"><ele>441.40000000000003</ele><time>2026-05-02T08:45:45Z</time></trkpt><trkpt lat="45.85429785335285" lon="9.880692950372836"><ele>441.6</ele><time>2026-05-02T08:45:47Z</time></trkpt><trkpt lat="45.85441444861719" lon="9.880628837159467"><ele>441.8</ele><time>2026-05-02T08:45:49Z</time></trkpt><trkpt lat="45.854528663303434" lon="9.880561023892017"><ele>442.0</ele><time>2026-05-02T08:45:51Z</time></trkpt><trkpt lat="45.85458871661546" lon="9.88053155229022"><ele>442.0</ele><time>2026-05-02T08:45:52Z</time></trkpt><trkpt lat="45.85470971570154" lon="9.880485145259652"><ele>442.0</ele><time>2026-05-02T08:45:54Z</time></trkpt><trkpt lat="45.85482725528707" lon="9.880443915747286"><ele>442.0</ele><time>2026-05-02T08:45:56Z</time></trkpt><trkpt lat="45.85494593635827" lon="9.88041271848035"><ele>442.0</ele><time>2026-05-02T08:45:58Z</time></trkpt><trkpt lat="45.85506777019105" lon="9.88038855889381"><ele>442.40000000000003</ele><time>2026-05-02T08:46:00Z</time></trkpt><trkpt lat="45.85519140327681" lon="9.880371007499308"><ele>442.80000000000007</ele><time>2026-05-02T08:46:02Z</time></trkpt><trkpt lat="45.855254597768926" lon="9.880361801059195"><ele>443.2</ele><time>2026-05-02T08:46:03Z</time></trkpt><trkpt lat="45.855377166573554" lon="9.880346086510256"><ele>443.6</ele><time>2026-05-02T08:46:05Z</time></trkpt><trkpt lat="45.8554405028482" lon="9.880337989229698"><ele>444.0</ele><time>2026-05-02T08:46:06Z</time></trkpt><trkpt lat="45.85555932357873" lon="9.880300165372415"><ele>444.0</ele><time>2026-05-02T08:46:08Z</time></trkpt><trkpt lat="45.85566175772575" lon="9.880275471078994"><ele>444.0</ele><time>2026-05-02T08:46:10Z</time></trkpt><trkpt lat="45.85572631808314" lon="9.880254518011508"><ele>444.0</ele><time>2026-05-02T08:46:11Z</time></trkpt><trkpt lat="45.855830598752206" lon="9.880209103156657"><ele>444.0</ele><time>2026-05-02T08:46:13Z</time></trkpt><trkpt lat="45.85593261093304" lon="9.880164992236539"><ele>444.0</ele><time>2026-05-02T08:46:15Z</time></trkpt><trkpt lat="45.85602717888516" lon="9.880115515903775"><ele>444.4</ele><time>2026-05-02T08:46:17Z</time></trkpt><trkpt lat="45.85612411661322" lon="9.880064671997108"><ele>444.79999999999995</ele><time>2026-05-02T08:46:19Z</time></trkpt><trkpt lat="45.85623529938985" lon="9.880005049313295"><ele>445.20000000000005</ele><time>2026-05-02T08:46:21Z</time></trkpt><trkpt lat="45.85634398353779" lon="9.87995561434736"><ele>445.6</ele><time>2026-05-02T08:46:23Z</time></trkpt><trkpt lat="45.85644868459927" lon="9.879905021924351"><ele>446.0</ele><time>2026-05-02T08:46:25Z</time></trkpt><trkpt lat="45.85657104870202" lon="9.879852051741066"><ele>446.0</ele><time>2026-05-02T08:46:27Z</time></trkpt><trkpt lat="45.85662997284249" lon="9.879813544351872"><ele>446.0</ele><time>2026-05-02T08:46:28Z</time></trkpt><trkpt lat="45.85669232360779" lon="9.879782073041238"><ele>446.0</ele><time>2026-05-02T08:46:29Z</time></trkpt><trkpt lat="45.8567548102028" lon="9.879755992601531"><ele>446.0</ele><time>2026-05-02T08:46:30Z</time></trkpt><trkpt lat="45.85681687474385" lon="9.879729520005812"><ele>446.0</ele><time>2026-05-02T08:46:31Z</time></trkpt><trkpt lat="45.85688071379902" lon="9.87970083912245"><ele>446.0</ele><time>2026-05-02T08:46:32Z</time></trkpt><trkpt lat="45.85694127236711" lon="9.879672596303545"><ele>446.0</ele><time>2026-05-02T08:46:33Z</time></trkpt><trkpt lat="45.85700154409745" lon="9.879638295170148"><ele>445.4</ele><time>2026-05-02T08:46:34Z</time></trkpt><trkpt lat="45.85706169278419" lon="9.879610732649622"><ele>444.8</ele><time>2026-05-02T08:46:35Z</time></trkpt><trkpt lat="45.857179213885274" lon="9.879541765090273"><ele>444.19999999999993</ele><time>2026-05-02T08:46:37Z</time></trkpt><trkpt lat="45.85723773578445" lon="9.879505068449948"><ele>443.59999999999997</ele><time>2026-05-02T08:46:38Z</time></trkpt><trkpt lat="45.857355921822055" lon="9.879445627864733"><ele>443.0</ele><time>2026-05-02T08:46:40Z</time></trkpt><trkpt lat="45.85747399981628" lon="9.879391334016933"><ele>443.0</ele><time>2026-05-02T08:46:42Z</time></trkpt><trkpt lat="45.857589631391015" lon="9.879341887165122"><ele>442.99999999999994</ele><time>2026-05-02T08:46:44Z</time></trkpt><trkpt lat="45.85764914418482" lon="9.87931201869603"><ele>442.99999999999994</ele><time>2026-05-02T08:46:45Z</time></trkpt><trkpt lat="45.857767769882045" lon="9.87925022873396"><ele>443.0</ele><time>2026-05-02T08:46:47Z</time></trkpt><trkpt lat="45.85782944940802" lon="9.879226407311139"><ele>443.0</ele><time>2026-05-02T08:46:48Z</time></trkpt><trkpt lat="45.85794954770169" lon="9.87918412427986"><ele>444.75</ele><time>2026-05-02T08:46:50Z</time></trkpt><trkpt lat="45.85807382065171" lon="9.87916811596319"><ele>446.5</ele><time>2026-05-02T08:46:52Z</time></trkpt><trkpt lat="45.85819334136398" lon="9.87917549659423"><ele>448.25</ele><time>2026-05-02T08:46:54Z</time></trkpt><trkpt lat="45.858301392183485" lon="9.879194923525247"><ele>450.0</ele><time>2026-05-02T08:46:56Z</time></trkpt><trkpt lat="45.85839732059982" lon="9.879222478782008"><ele>450.2</ele><time>2026-05-02T08:46:58Z</time></trkpt><trkpt lat="45.858497044687645" lon="9.879247914325981"><ele>450.4</ele><time>2026-05-02T08:47:00Z</time></trkpt><trkpt lat="45.85861454352969" lon="9.879279209401421"><ele>450.6</ele><time>2026-05-02T08:47:02Z</time></trkpt><trkpt lat="45.858717309733294" lon="9.879303136112792"><ele>450.8</ele><time>2026-05-02T08:47:04Z</time></trkpt><trkpt lat="45.85881356797088" lon="9.87931633794893"><ele>451.0</ele><time>2026-05-02T08:47:06Z</time></trkpt><trkpt lat="45.85889918870417" lon="9.879334986066983"><ele>451.00000000000006</ele><time>2026-05-02T08:47:08Z</time></trkpt><trkpt lat="45.85897429965783" lon="9.879353248822463"><ele>451.0</ele><time>2026-05-02T08:47:10Z</time></trkpt><trkpt lat="45.85904157009655" lon="9.879368878579461"><ele>451.0</ele><time>2026-05-02T08:47:12Z</time></trkpt><trkpt lat="45.85910415074842" lon="9.879389829718015"><ele>451.0</ele><time>2026-05-02T08:47:14Z</time></trkpt><trkpt lat="45.85917418927302" lon="9.879406972487457"><ele>451.00000000000006</ele><time>2026-05-02T08:47:16Z</time></trkpt><trkpt lat="45.859245487509696" lon="9.879377722732686"><ele>451.0</ele><time>2026-05-02T08:47:18Z</time></trkpt><trkpt lat="45.85926329870202" lon="9.879227018958382"><ele>451.0</ele><time>2026-05-02T08:47:20Z</time></trkpt><trkpt lat="45.859262426734546" lon="9.879064735620483"><ele>451.0</ele><time>2026-05-02T08:47:22Z</time></trkpt><trkpt lat="45.85926184940418" lon="9.878912202843834"><ele>451.0</ele><time>2026-05-02T08:47:24Z</time></trkpt><trkpt lat="45.859269098777055" lon="9.87875282551406"><ele>451.0</ele><time>2026-05-02T08:47:26Z</time></trkpt><trkpt lat="45.8592799736499" lon="9.87857217061662"><ele>453.33333333333337</ele><time>2026-05-02T08:47:28Z</time></trkpt><trkpt lat="45.85928913049994" lon="9.878479166257584"><ele>455.6666666666667</ele><time>2026-05-02T08:47:29Z</time></trkpt><trkpt lat="45.85929749786913" lon="9.878388791671924"><ele>458.0</ele><time>2026-05-02T08:47:30Z</time></trkpt><trkpt lat="45.85930255579557" lon="9.878298168892325"><ele>460.33333333333337</ele><time>2026-05-02T08:47:31Z</time></trkpt><trkpt lat="45.85930766846673" lon="9.878206997860739"><ele>462.6666666666667</ele><time>2026-05-02T08:47:32Z</time></trkpt><trkpt lat="45.85931713833146" lon="9.878029221655424"><ele>465.0</ele><time>2026-05-02T08:47:34Z</time></trkpt><trkpt lat="45.8593283440629" lon="9.877855037279398"><ele>468.75</ele><time>2026-05-02T08:47:36Z</time></trkpt><trkpt lat="45.85934229932879" lon="9.877685329685479"><ele>472.5</ele><time>2026-05-02T08:47:38Z</time></trkpt><trkpt lat="45.859353270738325" lon="9.877510619785166"><ele>476.25</ele><time>2026-05-02T08:47:40Z</time></trkpt><trkpt lat="45.859365944398355" lon="9.87733656270507"><ele>480.0</ele><time>2026-05-02T08:47:42Z</time></trkpt><trkpt lat="45.8593773080218" lon="9.877164607105822"><ele>481.4</ele><time>2026-05-02T08:47:44Z</time></trkpt><trkpt lat="45.85938521912406" lon="9.876983332387178"><ele>482.8</ele><time>2026-05-02T08:47:46Z</time></trkpt><trkpt lat="45.8593987398803" lon="9.876806447379487"><ele>484.20000000000005</ele><time>2026-05-02T08:47:48Z</time></trkpt><trkpt lat="45.85940798364499" lon="9.87663090424366"><ele>485.6</ele><time>2026-05-02T08:47:50Z</time></trkpt><trkpt lat="45.85941730433522" lon="9.876539311976854"><ele>487.0</ele><time>2026-05-02T08:47:51Z</time></trkpt><trkpt lat="45.859416881509375" lon="9.87644610743607"><ele>487.40000000000003</ele><time>2026-05-02T08:47:52Z</time></trkpt><trkpt lat="45.859431557677624" lon="9.876268841997362"><ele>487.80000000000007</ele><time>2026-05-02T08:47:54Z</time></trkpt><trkpt lat="45.85943925058095" lon="9.876178079195835"><ele>488.2</ele><time>2026-05-02T08:47:55Z</time></trkpt><trkpt lat="45.859449880681325" lon="9.876001465091779"><ele>488.6</ele><time>2026-05-02T08:47:57Z</time></trkpt><trkpt lat="45.85946088210026" lon="9.875827620515343"><ele>489.0</ele><time>2026-05-02T08:47:59Z</time></trkpt><trkpt lat="45.859475253492484" lon="9.875650348612139"><ele>486.75</ele><time>2026-05-02T08:48:01Z</time></trkpt><trkpt lat="45.859488340812746" lon="9.875474434414565"><ele>484.5</ele><time>2026-05-02T08:48:03Z</time></trkpt><trkpt lat="45.85950012509799" lon="9.875295529039802"><ele>482.25</ele><time>2026-05-02T08:48:05Z</time></trkpt><trkpt lat="45.85951287734025" lon="9.875117617683745"><ele>480.0</ele><time>2026-05-02T08:48:07Z</time></trkpt><trkpt lat="45.85952327544563" lon="9.874940013622009"><ele>477.0</ele><time>2026-05-02T08:48:09Z</time></trkpt><trkpt lat="45.85953240678398" lon="9.874764635223551"><ele>474.0</ele><time>2026-05-02T08:48:11Z</time></trkpt><trkpt lat="45.85953599811844" lon="9.874587143988895"><ele>471.0</ele><time>2026-05-02T08:48:13Z</time></trkpt><trkpt lat="45.859534594533834" lon="9.87440948203806"><ele>468.0</ele><time>2026-05-02T08:48:15Z</time></trkpt><trkpt lat="45.85952809663476" lon="9.87423493757232"><ele>468.0</ele><time>2026-05-02T08:48:17Z</time></trkpt><trkpt lat="45.85952550102209" lon="9.874143729072717"><ele>467.99999999999994</ele><time>2026-05-02T08:48:18Z</time></trkpt><trkpt lat="45.8595193740131" lon="9.873966448743646"><ele>467.99999999999994</ele><time>2026-05-02T08:48:20Z</time></trkpt><trkpt lat="45.85951371722433" lon="9.873791195603147"><ele>468.0</ele><time>2026-05-02T08:48:22Z</time></trkpt><trkpt lat="45.85951064905242" lon="9.873699078537042"><ele>468.0</ele><time>2026-05-02T08:48:23Z</time></trkpt><trkpt lat="45.85950860937384" lon="9.873525596102958"><ele>468.5</ele><time>2026-05-02T08:48:25Z</time></trkpt><trkpt lat="45.85950122594788" lon="9.873347418357723"><ele>469.0</ele><time>2026-05-02T08:48:27Z</time></trkpt><trkpt lat="45.859495502142956" lon="9.873169269010274"><ele>469.5</ele><time>2026-05-02T08:48:29Z</time></trkpt><trkpt lat="45.859492108408666" lon="9.872995986254296"><ele>470.0</ele><time>2026-05-02T08:48:31Z</time></trkpt><trkpt lat="45.85948561857132" lon="9.872820459683606"><ele>470.0</ele><time>2026-05-02T08:48:33Z</time></trkpt><trkpt lat="45.859477356066485" lon="9.872655176918899"><ele>470.0</ele><time>2026-05-02T08:48:35Z</time></trkpt><trkpt lat="45.859477203409504" lon="9.87256060618937"><ele>470.0</ele><time>2026-05-02T08:48:36Z</time></trkpt><trkpt lat="45.859472514714255" lon="9.872385301979815"><ele>470.0</ele><time>2026-05-02T08:48:38Z</time></trkpt><trkpt lat="45.85945162510427" lon="9.87220903782202"><ele>470.0</ele><time>2026-05-02T08:48:40Z</time></trkpt><trkpt lat="45.85945585052078" lon="9.872031597136674"><ele>470.5</ele><time>2026-05-02T08:48:42Z</time></trkpt><trkpt lat="45.859452415005585" lon="9.871853934221134"><ele>471.0</ele><time>2026-05-02T08:48:44Z</time></trkpt><trkpt lat="45.859444606357556" lon="9.87167855588262"><ele>471.5</ele><time>2026-05-02T08:48:46Z</time></trkpt><trkpt lat="45.859438626052714" lon="9.87150313429897"><ele>472.0</ele><time>2026-05-02T08:48:48Z</time></trkpt><trkpt lat="45.8594352798478" lon="9.871328116000097"><ele>473.0</ele><time>2026-05-02T08:48:50Z</time></trkpt><trkpt lat="45.859429330755326" lon="9.87115076728411"><ele>474.0</ele><time>2026-05-02T08:48:52Z</time></trkpt><trkpt lat="45.85942494581609" lon="9.87097461771265"><ele>475.0</ele><time>2026-05-02T08:48:54Z</time></trkpt><trkpt lat="45.859422750847756" lon="9.870798270281023"><ele>476.0</ele><time>2026-05-02T08:48:56Z</time></trkpt><trkpt lat="45.85941435785368" lon="9.870621626487212"><ele>476.0</ele><time>2026-05-02T08:48:58Z</time></trkpt><trkpt lat="45.8594062379799" lon="9.87044567491766"><ele>476.0</ele><time>2026-05-02T08:49:00Z</time></trkpt><trkpt lat="45.859400902000395" lon="9.870273723996013"><ele>476.0</ele><time>2026-05-02T08:49:02Z</time></trkpt><trkpt lat="45.85939442440747" lon="9.870182060148863"><ele>476.0</ele><time>2026-05-02T08:49:03Z</time></trkpt><trkpt lat="45.85938555326105" lon="9.870009974748585"><ele>476.0</ele><time>2026-05-02T08:49:05Z</time></trkpt><trkpt lat="45.85937464229128" lon="9.86983701595886"><ele>475.4</ele><time>2026-05-02T08:49:07Z</time></trkpt><trkpt lat="45.859366472763035" lon="9.869659627362351"><ele>474.8</ele><time>2026-05-02T08:49:09Z</time></trkpt><trkpt lat="45.85935968478186" lon="9.869569261441052"><ele>474.19999999999993</ele><time>2026-05-02T08:49:10Z</time></trkpt><trkpt lat="45.85935058004788" lon="9.869403271207062"><ele>473.59999999999997</ele><time>2026-05-02T08:49:12Z</time></trkpt><trkpt lat="45.859332401046416" lon="9.869235628290259"><ele>473.0</ele><time>2026-05-02T08:49:14Z</time></trkpt><trkpt lat="45.85930981409234" lon="9.869072448798065"><ele>473.5</ele><time>2026-05-02T08:49:16Z</time></trkpt><trkpt lat="45.8592753285704" lon="9.868908074916348"><ele>474.0</ele><time>2026-05-02T08:49:18Z</time></trkpt><trkpt lat="45.85924710979337" lon="9.86874347366554"><ele>474.5</ele><time>2026-05-02T08:49:20Z</time></trkpt><trkpt lat="45.85921542369018" lon="9.868584329055414"><ele>475.0</ele><time>2026-05-02T08:49:22Z</time></trkpt><trkpt lat="45.85918088521324" lon="9.868422681344839"><ele>475.0</ele><time>2026-05-02T08:49:24Z</time></trkpt><trkpt lat="45.85914718324874" lon="9.868258161966686"><ele>475.0</ele><time>2026-05-02T08:49:26Z</time></trkpt><trkpt lat="45.85912100588138" lon="9.86809506855863"><ele>475.0</ele><time>2026-05-02T08:49:28Z</time></trkpt><trkpt lat="45.85908634512696" lon="9.867931363052936"><ele>475.0</ele><time>2026-05-02T08:49:30Z</time></trkpt><trkpt lat="45.85905282067119" lon="9.867769576739958"><ele>475.5</ele><time>2026-05-02T08:49:32Z</time></trkpt><trkpt lat="45.85902892239513" lon="9.867605707594409"><ele>476.0</ele><time>2026-05-02T08:49:34Z</time></trkpt><trkpt lat="45.85900035381208" lon="9.86744006701519"><ele>476.5</ele><time>2026-05-02T08:49:36Z</time></trkpt><trkpt lat="45.85899238835178" lon="9.867271826288418"><ele>477.0</ele><time>2026-05-02T08:49:38Z</time></trkpt><trkpt lat="45.859006144049424" lon="9.867103887364749"><ele>477.0</ele><time>2026-05-02T08:49:40Z</time></trkpt><trkpt lat="45.859025022340795" lon="9.866939824982703"><ele>477.0</ele><time>2026-05-02T08:49:42Z</time></trkpt><trkpt lat="45.85903991508048" lon="9.86677145815316"><ele>477.0</ele><time>2026-05-02T08:49:44Z</time></trkpt><trkpt lat="45.859055764501356" lon="9.866602572106736"><ele>477.0</ele><time>2026-05-02T08:49:46Z</time></trkpt><trkpt lat="45.85907506403459" lon="9.866432138950866"><ele>477.5</ele><time>2026-05-02T08:49:48Z</time></trkpt><trkpt lat="45.859089903144394" lon="9.866262439870814"><ele>478.0</ele><time>2026-05-02T08:49:50Z</time></trkpt><trkpt lat="45.8591094531743" lon="9.86609405671188"><ele>478.5</ele><time>2026-05-02T08:49:52Z</time></trkpt><trkpt lat="45.85912571503591" lon="9.865925022003509"><ele>479.0</ele><time>2026-05-02T08:49:54Z</time></trkpt><trkpt lat="45.859141241974505" lon="9.865750165914102"><ele>479.25</ele><time>2026-05-02T08:49:56Z</time></trkpt><trkpt lat="45.85915296146985" lon="9.865576479952718"><ele>479.5</ele><time>2026-05-02T08:49:58Z</time></trkpt><trkpt lat="45.85916227628404" lon="9.865403166955911"><ele>479.75</ele><time>2026-05-02T08:50:00Z</time></trkpt><trkpt lat="45.85916792354952" lon="9.865240211581384"><ele>480.0</ele><time>2026-05-02T08:50:02Z</time></trkpt><trkpt lat="45.85917511869244" lon="9.865075452872702"><ele>480.4</ele><time>2026-05-02T08:50:04Z</time></trkpt><trkpt lat="45.8591775379734" lon="9.864983790699194"><ele>480.8</ele><time>2026-05-02T08:50:05Z</time></trkpt><trkpt lat="45.85918231558427" lon="9.864890896688594"><ele>481.20000000000005</ele><time>2026-05-02T08:50:06Z</time></trkpt><trkpt lat="45.85919245125584" lon="9.864708093092812"><ele>481.6</ele><time>2026-05-02T08:50:08Z</time></trkpt><trkpt lat="45.85920373128345" lon="9.864532369861967"><ele>482.0</ele><time>2026-05-02T08:50:10Z</time></trkpt><trkpt lat="45.859214357868815" lon="9.864355324038216"><ele>483.0</ele><time>2026-05-02T08:50:12Z</time></trkpt><trkpt lat="45.8592326428703" lon="9.864179364275094"><ele>484.0</ele><time>2026-05-02T08:50:14Z</time></trkpt><trkpt lat="45.85924641133561" lon="9.864006605959098"><ele>485.0</ele><time>2026-05-02T08:50:16Z</time></trkpt><trkpt lat="45.85925897356149" lon="9.863831773635269"><ele>486.0</ele><time>2026-05-02T08:50:18Z</time></trkpt><trkpt lat="45.859275918225364" lon="9.863657961152375"><ele>495.75</ele><time>2026-05-02T08:50:20Z</time></trkpt><trkpt lat="45.85929127777816" lon="9.863486447471432"><ele>505.5</ele><time>2026-05-02T08:50:22Z</time></trkpt><trkpt lat="45.8593044261331" lon="9.863314211889904"><ele>515.25</ele><time>2026-05-02T08:50:24Z</time></trkpt><trkpt lat="45.85931555818136" lon="9.863141950594642"><ele>525.0</ele><time>2026-05-02T08:50:26Z</time></trkpt><trkpt lat="45.85932991626237" lon="9.862973249966174"><ele>525.4</ele><time>2026-05-02T08:50:28Z</time></trkpt><trkpt lat="45.859344652989144" lon="9.862808900633462"><ele>525.8</ele><time>2026-05-02T08:50:30Z</time></trkpt><trkpt lat="45.859341598959695" lon="9.862716062201418"><ele>526.2</ele><time>2026-05-02T08:50:31Z</time></trkpt><trkpt lat="45.85936077319845" lon="9.862553920531397"><ele>526.6</ele><time>2026-05-02T08:50:33Z</time></trkpt><trkpt lat="45.859372704071816" lon="9.862385180718016"><ele>527.0</ele><time>2026-05-02T08:50:35Z</time></trkpt><trkpt lat="45.85938689089113" lon="9.862218847585527"><ele>527.2</ele><time>2026-05-02T08:50:37Z</time></trkpt><trkpt lat="45.85939280223391" lon="9.8620453170362"><ele>527.4000000000001</ele><time>2026-05-02T08:50:39Z</time></trkpt><trkpt lat="45.859398399188784" lon="9.861871240071258"><ele>527.5999999999999</ele><time>2026-05-02T08:50:41Z</time></trkpt><trkpt lat="45.859399983547654" lon="9.861700555363905"><ele>527.8</ele><time>2026-05-02T08:50:43Z</time></trkpt><trkpt lat="45.859396175057256" lon="9.861610204614921"><ele>528.0</ele><time>2026-05-02T08:50:44Z</time></trkpt><trkpt lat="45.85939045828034" lon="9.861435194773167"><ele>529.0</ele><time>2026-05-02T08:50:46Z</time></trkpt><trkpt lat="45.85938247622906" lon="9.861265683577042"><ele>530.0</ele><time>2026-05-02T08:50:48Z</time></trkpt><trkpt lat="45.85936830920963" lon="9.861099027292282"><ele>531.0</ele><time>2026-05-02T08:50:50Z</time></trkpt><trkpt lat="45.859345519688276" lon="9.860930769276456"><ele>532.0</ele><time>2026-05-02T08:50:52Z</time></trkpt><trkpt lat="45.859323900713996" lon="9.86076382262025"><ele>533.5</ele><time>2026-05-02T08:50:54Z</time></trkpt><trkpt lat="45.85930035954836" lon="9.860596018818478"><ele>535.0</ele><time>2026-05-02T08:50:56Z</time></trkpt><trkpt lat="45.859274466580764" lon="9.860429589344607"><ele>536.5</ele><time>2026-05-02T08:50:58Z</time></trkpt><trkpt lat="45.859250670401266" lon="9.860261261831443"><ele>538.0</ele><time>2026-05-02T08:51:00Z</time></trkpt><trkpt lat="45.859222797846165" lon="9.860099548433858"><ele>530.1999999999999</ele><time>2026-05-02T08:51:02Z</time></trkpt><trkpt lat="45.859201174140736" lon="9.860012041508359"><ele>522.4</ele><time>2026-05-02T08:51:03Z</time></trkpt><trkpt lat="45.859184169391526" lon="9.85985313799312"><ele>514.5999999999999</ele><time>2026-05-02T08:51:05Z</time></trkpt><trkpt lat="45.859155460207916" lon="9.859682805290545"><ele>506.79999999999995</ele><time>2026-05-02T08:51:07Z</time></trkpt><trkpt lat="45.85912567510715" lon="9.859513707475895"><ele>499.0</ele><time>2026-05-02T08:51:09Z</time></trkpt><trkpt lat="45.859088399015285" lon="9.859354995357462"><ele>500.4</ele><time>2026-05-02T08:51:11Z</time></trkpt><trkpt lat="45.859085304493306" lon="9.859264435567013"><ele>501.79999999999995</ele><time>2026-05-02T08:51:12Z</time></trkpt><trkpt lat="45.85905579040178" lon="9.85909772082741"><ele>503.20000000000005</ele><time>2026-05-02T08:51:14Z</time></trkpt><trkpt lat="45.85901911497622" lon="9.85893525115509"><ele>504.6</ele><time>2026-05-02T08:51:16Z</time></trkpt><trkpt lat="45.858975851303036" lon="9.858774907022468"><ele>506.0</ele><time>2026-05-02T08:51:18Z</time></trkpt><trkpt lat="45.85893678376621" lon="9.858616429621774"><ele>506.0</ele><time>2026-05-02T08:51:20Z</time></trkpt><trkpt lat="45.85889584183772" lon="9.85845623093284"><ele>506.0</ele><time>2026-05-02T08:51:22Z</time></trkpt><trkpt lat="45.85884551300955" lon="9.858299853615195"><ele>506.0</ele><time>2026-05-02T08:51:24Z</time></trkpt><trkpt lat="45.85878860351322" lon="9.858141915889975"><ele>506.0</ele><time>2026-05-02T08:51:26Z</time></trkpt><trkpt lat="45.858727986872196" lon="9.857996150759686"><ele>509.25</ele><time>2026-05-02T08:51:28Z</time></trkpt><trkpt lat="45.85867465252254" lon="9.85785397252688"><ele>512.5</ele><time>2026-05-02T08:51:30Z</time></trkpt><trkpt lat="45.85861969349588" lon="9.85772352793719"><ele>515.75</ele><time>2026-05-02T08:51:32Z</time></trkpt><trkpt lat="45.85856616163692" lon="9.857568849193878"><ele>519.0</ele><time>2026-05-02T08:51:34Z</time></trkpt><trkpt lat="45.858536813629726" lon="9.85739702999798"><ele>520.25</ele><time>2026-05-02T08:51:36Z</time></trkpt><trkpt lat="45.85852639593202" lon="9.857223308663775"><ele>521.5</ele><time>2026-05-02T08:51:38Z</time></trkpt><trkpt lat="45.85853685386498" lon="9.857054543158537"><ele>522.75</ele><time>2026-05-02T08:51:40Z</time></trkpt><trkpt lat="45.85856187536043" lon="9.856882533515286"><ele>524.0</ele><time>2026-05-02T08:51:42Z</time></trkpt><trkpt lat="45.85858683054784" lon="9.856713023222"><ele>524.0</ele><time>2026-05-02T08:51:44Z</time></trkpt><trkpt lat="45.85861271180649" lon="9.856551183565786"><ele>524.0</ele><time>2026-05-02T08:51:46Z</time></trkpt><trkpt lat="45.85864239918109" lon="9.856389579715199"><ele>524.0</ele><time>2026-05-02T08:51:48Z</time></trkpt><trkpt lat="45.85867236625565" lon="9.856229720955769"><ele>524.0</ele><time>2026-05-02T08:51:50Z</time></trkpt><trkpt lat="45.85870247656178" lon="9.856070085989671"><ele>523.8</ele><time>2026-05-02T08:51:52Z</time></trkpt><trkpt lat="45.858733554462766" lon="9.85591638803305"><ele>523.5999999999999</ele><time>2026-05-02T08:51:54Z</time></trkpt><trkpt lat="45.85876804219416" lon="9.855769880625079"><ele>523.4</ele><time>2026-05-02T08:51:56Z</time></trkpt><trkpt lat="45.85878868206477" lon="9.85562213202155"><ele>523.1999999999999</ele><time>2026-05-02T08:51:58Z</time></trkpt><trkpt lat="45.85879637411972" lon="9.85546981724846"><ele>523.0</ele><time>2026-05-02T08:52:00Z</time></trkpt><trkpt lat="45.8587949999799" lon="9.855309058644458"><ele>523.0</ele><time>2026-05-02T08:52:02Z</time></trkpt><trkpt lat="45.858788874010514" lon="9.855159455235002"><ele>523.0</ele><time>2026-05-02T08:52:04Z</time></trkpt><trkpt lat="45.85877616179096" lon="9.85501308060158"><ele>523.0</ele><time>2026-05-02T08:52:06Z</time></trkpt><trkpt lat="45.858756659551695" lon="9.85486323745983"><ele>523.0</ele><time>2026-05-02T08:52:08Z</time></trkpt><trkpt lat="45.858731557188754" lon="9.854712593743603"><ele>523.0</ele><time>2026-05-02T08:52:10Z</time></trkpt><trkpt lat="45.85870808307325" lon="9.854562031474487"><ele>524.1999999999999</ele><time>2026-05-02T08:52:12Z</time></trkpt><trkpt lat="45.85867866631448" lon="9.854418529229214"><ele>525.4</ele><time>2026-05-02T08:52:14Z</time></trkpt><trkpt lat="45.858648695078976" lon="9.854274760726396"><ele>526.5999999999999</ele><time>2026-05-02T08:52:16Z</time></trkpt><trkpt lat="45.85861844482106" lon="9.854135410267498"><ele>527.8</ele><time>2026-05-02T08:52:18Z</time></trkpt><trkpt lat="45.85859453751175" lon="9.853988703596546"><ele>529.0</ele><time>2026-05-02T08:52:20Z</time></trkpt><trkpt lat="45.858565151034384" lon="9.853843162053334"><ele>529.8</ele><time>2026-05-02T08:52:22Z</time></trkpt><trkpt lat="45.858537379604364" lon="9.853698251777688"><ele>530.5999999999999</ele><time>2026-05-02T08:52:24Z</time></trkpt><trkpt lat="45.85851479822804" lon="9.853547455049164"><ele>531.4</ele><time>2026-05-02T08:52:26Z</time></trkpt><trkpt lat="45.8584998007261" lon="9.853395427555965"><ele>532.1999999999999</ele><time>2026-05-02T08:52:28Z</time></trkpt><trkpt lat="45.85848357452246" lon="9.853242864560515"><ele>533.0</ele><time>2026-05-02T08:52:30Z</time></trkpt><trkpt lat="45.858471216073646" lon="9.85309773622082"><ele>530.4</ele><time>2026-05-02T08:52:32Z</time></trkpt><trkpt lat="45.85845823223581" lon="9.852953919643594"><ele>527.8</ele><time>2026-05-02T08:52:34Z</time></trkpt><trkpt lat="45.85844566416315" lon="9.852806561808974"><ele>525.2</ele><time>2026-05-02T08:52:36Z</time></trkpt><trkpt lat="45.85843477263814" lon="9.852660197732806"><ele>522.6</ele><time>2026-05-02T08:52:38Z</time></trkpt><trkpt lat="45.85842758063352" lon="9.852517189905825"><ele>520.0</ele><time>2026-05-02T08:52:40Z</time></trkpt><trkpt lat="45.85842450080635" lon="9.85237322004017"><ele>520.0</ele><time>2026-05-02T08:52:42Z</time></trkpt><trkpt lat="45.85842722946996" lon="9.852223349225573"><ele>520.0</ele><time>2026-05-02T08:52:44Z</time></trkpt><trkpt lat="45.85843339601972" lon="9.852069884998091"><ele>520.0</ele><time>2026-05-02T08:52:46Z</time></trkpt><trkpt lat="45.85843448184527" lon="9.851915670498544"><ele>520.0</ele><time>2026-05-02T08:52:48Z</time></trkpt><trkpt lat="45.85843699968479" lon="9.851760570644004"><ele>520.0</ele><time>2026-05-02T08:52:50Z</time></trkpt><trkpt lat="45.858441434065526" lon="9.851605409137314"><ele>520.8</ele><time>2026-05-02T08:52:52Z</time></trkpt><trkpt lat="45.85844335925631" lon="9.85145065955811"><ele>521.6</ele><time>2026-05-02T08:52:54Z</time></trkpt><trkpt lat="45.85844798545148" lon="9.851303106147808"><ele>522.4</ele><time>2026-05-02T08:52:56Z</time></trkpt><trkpt lat="45.85845412029852" lon="9.85116026982223"><ele>523.2</ele><time>2026-05-02T08:52:58Z</time></trkpt><trkpt lat="45.85845889390411" lon="9.851015075315877"><ele>524.0</ele><time>2026-05-02T08:53:00Z</time></trkpt><trkpt lat="45.85846925287826" lon="9.850871192606604"><ele>531.0</ele><time>2026-05-02T08:53:02Z</time></trkpt><trkpt lat="45.858480061095" lon="9.850724744135222"><ele>538.0</ele><time>2026-05-02T08:53:04Z</time></trkpt><trkpt lat="45.85848655630715" lon="9.850576235089285"><ele>545.0</ele><time>2026-05-02T08:53:06Z</time></trkpt><trkpt lat="45.85849203795119" lon="9.850422971751001"><ele>552.0</ele><time>2026-05-02T08:53:08Z</time></trkpt><trkpt lat="45.85849810013855" lon="9.850268898405377"><ele>559.0</ele><time>2026-05-02T08:53:10Z</time></trkpt><trkpt lat="45.85850321244906" lon="9.850117113824485"><ele>559.0</ele><time>2026-05-02T08:53:12Z</time></trkpt><trkpt lat="45.858508734118175" lon="9.849965125722257"><ele>559.0</ele><time>2026-05-02T08:53:14Z</time></trkpt><trkpt lat="45.85851184320987" lon="9.849809180224465"><ele>559.0</ele><time>2026-05-02T08:53:16Z</time></trkpt><trkpt lat="45.85851674477569" lon="9.849652908022373"><ele>559.0</ele><time>2026-05-02T08:53:18Z</time></trkpt><trkpt lat="45.85852058906102" lon="9.849499965573102"><ele>559.0</ele><time>2026-05-02T08:53:20Z</time></trkpt><trkpt lat="45.858531712115045" lon="9.849348900732082"><ele>557.4</ele><time>2026-05-02T08:53:22Z</time></trkpt><trkpt lat="45.85854713700217" lon="9.84919905231811"><ele>555.8</ele><time>2026-05-02T08:53:24Z</time></trkpt><trkpt lat="45.85859553459476" lon="9.849057049792572"><ele>554.2</ele><time>2026-05-02T08:53:26Z</time></trkpt><trkpt lat="45.85865239510962" lon="9.848928746253083"><ele>552.6</ele><time>2026-05-02T08:53:28Z</time></trkpt><trkpt lat="45.85870619547881" lon="9.848798213246098"><ele>551.0</ele><time>2026-05-02T08:53:30Z</time></trkpt><trkpt lat="45.85875331022161" lon="9.848665111379933"><ele>551.0</ele><time>2026-05-02T08:53:32Z</time></trkpt><trkpt lat="45.8587849037335" lon="9.848523213797886"><ele>551.0</ele><time>2026-05-02T08:53:34Z</time></trkpt><trkpt lat="45.85879819313042" lon="9.84837709821358"><ele>551.0</ele><time>2026-05-02T08:53:36Z</time></trkpt><trkpt lat="45.858811394016904" lon="9.848233456877429"><ele>551.0</ele><time>2026-05-02T08:53:38Z</time></trkpt><trkpt lat="45.858827122968584" lon="9.848090747175018"><ele>551.0</ele><time>2026-05-02T08:53:40Z</time></trkpt><trkpt lat="45.85883779291256" lon="9.847949233721518"><ele>551.4</ele><time>2026-05-02T08:53:42Z</time></trkpt><trkpt lat="45.858848671688875" lon="9.84781762028689"><ele>551.8</ele><time>2026-05-02T08:53:44Z</time></trkpt><trkpt lat="45.858865170801735" lon="9.847683342612223"><ele>552.1999999999999</ele><time>2026-05-02T08:53:46Z</time></trkpt><trkpt lat="45.858875168770275" lon="9.847550513335449"><ele>552.6</ele><time>2026-05-02T08:53:48Z</time></trkpt><trkpt lat="45.8588839590344" lon="9.847421560651627"><ele>553.0</ele><time>2026-05-02T08:53:50Z</time></trkpt><trkpt lat="45.858890091317235" lon="9.847287188091638"><ele>554.1999999999999</ele><time>2026-05-02T08:53:52Z</time></trkpt><trkpt lat="45.85891528892943" lon="9.847159228632524"><ele>555.4</ele><time>2026-05-02T08:53:54Z</time></trkpt><trkpt lat="45.85896491541412" lon="9.847045840263055"><ele>556.5999999999999</ele><time>2026-05-02T08:53:56Z</time></trkpt><trkpt lat="45.859026490586174" lon="9.846961999246373"><ele>557.8</ele><time>2026-05-02T08:53:58Z</time></trkpt><trkpt lat="45.85910392960157" lon="9.846897187976662"><ele>559.0</ele><time>2026-05-02T08:54:00Z</time></trkpt><trkpt lat="45.85919311427875" lon="9.846888070011147"><ele>567.6</ele><time>2026-05-02T08:54:02Z</time></trkpt><trkpt lat="45.85929549551821" lon="9.846918771538103"><ele>576.2</ele><time>2026-05-02T08:54:04Z</time></trkpt><trkpt lat="45.85939333576482" lon="9.846940002691586"><ele>584.8000000000001</ele><time>2026-05-02T08:54:06Z</time></trkpt><trkpt lat="45.859467989449165" lon="9.846953862854493"><ele>593.4</ele><time>2026-05-02T08:54:08Z</time></trkpt><trkpt lat="45.859562013663435" lon="9.846940554412479"><ele>602.0</ele><time>2026-05-02T08:54:10Z</time></trkpt><trkpt lat="45.85963974385494" lon="9.846886554682943"><ele>602.0</ele><time>2026-05-02T08:54:12Z</time></trkpt><trkpt lat="45.859711792178494" lon="9.846803769767606"><ele>602.0</ele><time>2026-05-02T08:54:14Z</time></trkpt><trkpt lat="45.859745427506866" lon="9.84668226665652"><ele>602.0</ele><time>2026-05-02T08:54:16Z</time></trkpt><trkpt lat="45.85973342380384" lon="9.846557055172697"><ele>602.0</ele><time>2026-05-02T08:54:18Z</time></trkpt><trkpt lat="45.8596910265626" lon="9.846440891229788"><ele>602.0</ele><time>2026-05-02T08:54:20Z</time></trkpt><trkpt lat="45.85964070005002" lon="9.846339831559538"><ele>602.0</ele><time>2026-05-02T08:54:22Z</time></trkpt><trkpt lat="45.8595920813909" lon="9.846242479105632"><ele>599.6666666666666</ele><time>2026-05-02T08:54:24Z</time></trkpt><trkpt lat="45.859546696041406" lon="9.846136574189288"><ele>597.3333333333333</ele><time>2026-05-02T08:54:26Z</time></trkpt><trkpt lat="45.85950906202301" lon="9.84602932852893"><ele>595.0</ele><time>2026-05-02T08:54:28Z</time></trkpt><trkpt lat="45.85946782870842" lon="9.845927347679623"><ele>592.6666666666666</ele><time>2026-05-02T08:54:30Z</time></trkpt><trkpt lat="45.85943058992807" lon="9.845822727681508"><ele>590.3333333333334</ele><time>2026-05-02T08:54:32Z</time></trkpt><trkpt lat="45.85939490924713" lon="9.84569539519508"><ele>588.0</ele><time>2026-05-02T08:54:34Z</time></trkpt><trkpt lat="45.85938388590715" lon="9.845558055751757"><ele>588.0</ele><time>2026-05-02T08:54:36Z</time></trkpt><trkpt lat="45.85937665460189" lon="9.84542658368087"><ele>588.0</ele><time>2026-05-02T08:54:38Z</time></trkpt><trkpt lat="45.85936270480727" lon="9.845292525509208"><ele>588.0</ele><time>2026-05-02T08:54:40Z</time></trkpt><trkpt lat="45.85935628910146" lon="9.845161229430964"><ele>588.0</ele><time>2026-05-02T08:54:42Z</time></trkpt><trkpt lat="45.85935590146051" lon="9.845031066012737"><ele>588.0</ele><time>2026-05-02T08:54:44Z</time></trkpt><trkpt lat="45.859361915425474" lon="9.84490317251238"><ele>590.0</ele><time>2026-05-02T08:54:46Z</time></trkpt><trkpt lat="45.85938551275556" lon="9.844774735690924"><ele>592.0</ele><time>2026-05-02T08:54:48Z</time></trkpt><trkpt lat="45.859414155375575" lon="9.844648363868265"><ele>594.0</ele><time>2026-05-02T08:54:50Z</time></trkpt><trkpt lat="45.85946033631273" lon="9.844524280762116"><ele>596.0</ele><time>2026-05-02T08:54:52Z</time></trkpt><trkpt lat="45.859499903346844" lon="9.844404072383236"><ele>598.0</ele><time>2026-05-02T08:54:54Z</time></trkpt><trkpt lat="45.85953406168993" lon="9.844285444657409"><ele>598.0</ele><time>2026-05-02T08:54:56Z</time></trkpt><trkpt lat="45.85956980255297" lon="9.844169185639553"><ele>598.0</ele><time>2026-05-02T08:54:58Z</time></trkpt><trkpt lat="45.85959182111012" lon="9.84404652637156"><ele>598.0</ele><time>2026-05-02T08:55:00Z</time></trkpt><trkpt lat="45.8596009448248" lon="9.843910964864572"><ele>598.0</ele><time>2026-05-02T08:55:02Z</time></trkpt><trkpt lat="45.859626015152145" lon="9.84378287435854"><ele>598.0</ele><time>2026-05-02T08:55:04Z</time></trkpt><trkpt lat="45.85963463510147" lon="9.843650186713427"><ele>598.0</ele><time>2026-05-02T08:55:06Z</time></trkpt><trkpt lat="45.85965122226504" lon="9.843524020649049"><ele>598.0</ele><time>2026-05-02T08:55:08Z</time></trkpt><trkpt lat="45.85966258748933" lon="9.843399023354147"><ele>598.0</ele><time>2026-05-02T08:55:10Z</time></trkpt><trkpt lat="45.859681180485026" lon="9.843272352159113"><ele>598.0</ele><time>2026-05-02T08:55:12Z</time></trkpt><trkpt lat="45.85970851302684" lon="9.843159947795357"><ele>598.0</ele><time>2026-05-02T08:55:14Z</time></trkpt><trkpt lat="45.8597381609568" lon="9.84305103534691"><ele>598.0</ele><time>2026-05-02T08:55:16Z</time></trkpt><trkpt lat="45.85976767165063" lon="9.842937414664439"><ele>597.6666666666667</ele><time>2026-05-02T08:55:18Z</time></trkpt><trkpt lat="45.85980662330435" lon="9.842827277911407"><ele>597.3333333333334</ele><time>2026-05-02T08:55:20Z</time></trkpt><trkpt lat="45.85984669265484" lon="9.842715691944402"><ele>597.0</ele><time>2026-05-02T08:55:22Z</time></trkpt><trkpt lat="45.85988033983763" lon="9.84259730109489"><ele>596.6666666666666</ele><time>2026-05-02T08:55:24Z</time></trkpt><trkpt lat="45.85992870630243" lon="9.842486447229366"><ele>596.3333333333333</ele><time>2026-05-02T08:55:26Z</time></trkpt><trkpt lat="45.859972864495624" lon="9.842380029499012"><ele>596.0</ele><time>2026-05-02T08:55:28Z</time></trkpt><trkpt lat="45.86001341067796" lon="9.842276774347184"><ele>594.3333333333333</ele><time>2026-05-02T08:55:30Z</time></trkpt><trkpt lat="45.860051095793914" lon="9.842168236676683"><ele>592.6666666666666</ele><time>2026-05-02T08:55:32Z</time></trkpt><trkpt lat="45.86007887772274" lon="9.842051154561402"><ele>591.0</ele><time>2026-05-02T08:55:34Z</time></trkpt><trkpt lat="45.86011047529947" lon="9.841936583853533"><ele>589.3333333333334</ele><time>2026-05-02T08:55:36Z</time></trkpt><trkpt lat="45.86014310421883" lon="9.841816463047865"><ele>587.6666666666667</ele><time>2026-05-02T08:55:38Z</time></trkpt><trkpt lat="45.860163672464545" lon="9.841693267739283"><ele>586.0</ele><time>2026-05-02T08:55:40Z</time></trkpt><trkpt lat="45.86018892964642" lon="9.841577304302277"><ele>589.5</ele><time>2026-05-02T08:55:42Z</time></trkpt><trkpt lat="45.860218850211076" lon="9.841460950286717"><ele>593.0</ele><time>2026-05-02T08:55:44Z</time></trkpt><trkpt lat="45.860251997427596" lon="9.841351110672313"><ele>596.5</ele><time>2026-05-02T08:55:46Z</time></trkpt><trkpt lat="45.860289250870835" lon="9.84123931337781"><ele>600.0</ele><time>2026-05-02T08:55:48Z</time></trkpt><trkpt lat="45.860285772654024" lon="9.841126228749447"><ele>603.5</ele><time>2026-05-02T08:55:51Z</time></trkpt><trkpt lat="45.86033939400754" lon="9.841173797593205"><ele>607.0</ele><time>2026-05-02T08:56:55Z</time></trkpt><trkpt lat="45.860369736745156" lon="9.841081574593268"><ele>607.0</ele><time>2026-05-02T08:56:58Z</time></trkpt><trkpt lat="45.860432341598305" lon="9.841011589988279"><ele>607.0</ele><time>2026-05-02T08:57:00Z</time></trkpt><trkpt lat="45.860500063361464" lon="9.84094126255682"><ele>607.0</ele><time>2026-05-02T08:57:02Z</time></trkpt><trkpt lat="45.860576632807096" lon="9.840868892864291"><ele>607.0</ele><time>2026-05-02T08:57:04Z</time></trkpt><trkpt lat="45.860655130196" lon="9.840803782854282"><ele>607.0</ele><time>2026-05-02T08:57:06Z</time></trkpt><trkpt lat="45.860732007462886" lon="9.840741913205623"><ele>607.0</ele><time>2026-05-02T08:57:08Z</time></trkpt><trkpt lat="45.86080852019373" lon="9.840683137349075"><ele>606.1666666666667</ele><time>2026-05-02T08:57:10Z</time></trkpt><trkpt lat="45.86088653512395" lon="9.84061694524424"><ele>605.3333333333334</ele><time>2026-05-02T08:57:12Z</time></trkpt><trkpt lat="45.860965031920536" lon="9.840553221628838"><ele>604.5</ele><time>2026-05-02T08:57:14Z</time></trkpt><trkpt lat="45.86104456240697" lon="9.840507136633468"><ele>603.6666666666666</ele><time>2026-05-02T08:57:16Z</time></trkpt><trkpt lat="45.86110863000656" lon="9.840421392115225"><ele>602.8333333333333</ele><time>2026-05-02T08:57:18Z</time></trkpt><trkpt lat="45.86117102533054" lon="9.840328503841317"><ele>602.0</ele><time>2026-05-02T08:57:20Z</time></trkpt><trkpt lat="45.86122708648699" lon="9.840230902763171"><ele>606.8000000000001</ele><time>2026-05-02T08:57:22Z</time></trkpt><trkpt lat="45.86126637503829" lon="9.840116688149948"><ele>611.6</ele><time>2026-05-02T08:57:24Z</time></trkpt><trkpt lat="45.861292884524325" lon="9.839989364686351"><ele>616.4000000000001</ele><time>2026-05-02T08:57:26Z</time></trkpt><trkpt lat="45.861308617617176" lon="9.839859404121174"><ele>621.2</ele><time>2026-05-02T08:57:28Z</time></trkpt><trkpt lat="45.86135496649201" lon="9.839748966253438"><ele>626.0</ele><time>2026-05-02T08:57:30Z</time></trkpt><trkpt lat="45.86138133359373" lon="9.839625824468095"><ele>626.0</ele><time>2026-05-02T08:57:32Z</time></trkpt><trkpt lat="45.861414431035634" lon="9.839509053592273"><ele>626.0</ele><time>2026-05-02T08:57:34Z</time></trkpt><trkpt lat="45.86143997212869" lon="9.839395926058645"><ele>626.0</ele><time>2026-05-02T08:57:36Z</time></trkpt><trkpt lat="45.86147276349005" lon="9.839273869010412"><ele>626.0</ele><time>2026-05-02T08:57:38Z</time></trkpt><trkpt lat="45.861503884605106" lon="9.839163506696142"><ele>626.0</ele><time>2026-05-02T08:57:40Z</time></trkpt><trkpt lat="45.8615336998127" lon="9.839052243498939"><ele>626.0</ele><time>2026-05-02T08:57:42Z</time></trkpt><trkpt lat="45.86156090977595" lon="9.83893714043704"><ele>625.8333333333333</ele><time>2026-05-02T08:57:44Z</time></trkpt><trkpt lat="45.861597931849374" lon="9.838826573601649"><ele>625.6666666666666</ele><time>2026-05-02T08:57:46Z</time></trkpt><trkpt lat="45.861623016319506" lon="9.838709023985256"><ele>625.5</ele><time>2026-05-02T08:57:48Z</time></trkpt><trkpt lat="45.86165295560052" lon="9.838599814832916"><ele>625.3333333333334</ele><time>2026-05-02T08:57:50Z</time></trkpt><trkpt lat="45.86168176924429" lon="9.838489028451828"><ele>625.1666666666667</ele><time>2026-05-02T08:57:52Z</time></trkpt><trkpt lat="45.86171115121266" lon="9.838375769556405"><ele>625.0</ele><time>2026-05-02T08:57:54Z</time></trkpt><trkpt lat="45.86175027679209" lon="9.838265356315095"><ele>628.7142857142858</ele><time>2026-05-02T08:57:56Z</time></trkpt><trkpt lat="45.86180135742584" lon="9.838174795772858"><ele>632.4285714285714</ele><time>2026-05-02T08:57:58Z</time></trkpt><trkpt lat="45.86187282887047" lon="9.838123533626762"><ele>636.1428571428571</ele><time>2026-05-02T08:58:00Z</time></trkpt><trkpt lat="45.86193364902359" lon="9.838059962234762"><ele>639.8571428571429</ele><time>2026-05-02T08:58:02Z</time></trkpt><trkpt lat="45.86199167962457" lon="9.83801751191321"><ele>643.5714285714286</ele><time>2026-05-02T08:58:04Z</time></trkpt><trkpt lat="45.86205855937999" lon="9.837976704158033"><ele>647.2857142857143</ele><time>2026-05-02T08:58:51Z</time></trkpt><trkpt lat="45.86212603264904" lon="9.837977265337528"><ele>651.0</ele><time>2026-05-02T08:58:53Z</time></trkpt><trkpt lat="45.862187059632674" lon="9.837939788809846"><ele>651.0</ele><time>2026-05-02T08:58:55Z</time></trkpt><trkpt lat="45.862255355556236" lon="9.837891082347765"><ele>651.0</ele><time>2026-05-02T08:58:57Z</time></trkpt><trkpt lat="45.86232872081608" lon="9.837834880127012"><ele>651.0</ele><time>2026-05-02T08:58:59Z</time></trkpt><trkpt lat="45.862399936710254" lon="9.837770391092349"><ele>651.0</ele><time>2026-05-02T08:59:01Z</time></trkpt><trkpt lat="45.86246637101551" lon="9.83768283147419"><ele>651.0</ele><time>2026-05-02T08:59:03Z</time></trkpt><trkpt lat="45.86254074989316" lon="9.83761263362654"><ele>651.0</ele><time>2026-05-02T08:59:05Z</time></trkpt><trkpt lat="45.86262460178996" lon="9.837579911328756"><ele>650.6666666666666</ele><time>2026-05-02T08:59:07Z</time></trkpt><trkpt lat="45.86270821073547" lon="9.837593043125056"><ele>650.3333333333334</ele><time>2026-05-02T08:59:09Z</time></trkpt><trkpt lat="45.86278759394626" lon="9.837644718979622"><ele>650.0</ele><time>2026-05-02T08:59:11Z</time></trkpt><trkpt lat="45.86286224357862" lon="9.837710574625982"><ele>649.6666666666667</ele><time>2026-05-02T08:59:13Z</time></trkpt><trkpt lat="45.862942168320316" lon="9.837785718981658"><ele>649.3333333333334</ele><time>2026-05-02T08:59:15Z</time></trkpt><trkpt lat="45.86302274049316" lon="9.83785737205705"><ele>649.0</ele><time>2026-05-02T08:59:17Z</time></trkpt><trkpt lat="45.86310651132805" lon="9.83792040888809"><ele>653.4000000000001</ele><time>2026-05-02T08:59:19Z</time></trkpt><trkpt lat="45.86319498024672" lon="9.837984315825071"><ele>657.8</ele><time>2026-05-02T08:59:21Z</time></trkpt><trkpt lat="45.863285431207366" lon="9.838001155055643"><ele>662.2</ele><time>2026-05-02T08:59:23Z</time></trkpt><trkpt lat="45.86336880491106" lon="9.837961004270639"><ele>666.5999999999999</ele><time>2026-05-02T08:59:25Z</time></trkpt><trkpt lat="45.863404257607016" lon="9.83783341603499"><ele>671.0</ele><time>2026-05-02T08:59:27Z</time></trkpt><trkpt lat="45.863378192764316" lon="9.837683752346107"><ele>666.5999999999999</ele><time>2026-05-02T08:59:29Z</time></trkpt><trkpt lat="45.86333996039789" lon="9.837553241779695"><ele>662.2</ele><time>2026-05-02T08:59:31Z</time></trkpt><trkpt lat="45.86331252777156" lon="9.837422789678715"><ele>657.8</ele><time>2026-05-02T08:59:33Z</time></trkpt><trkpt lat="45.863290196520154" lon="9.837300852448546"><ele>653.4000000000001</ele><time>2026-05-02T08:59:35Z</time></trkpt><trkpt lat="45.86327552378234" lon="9.837162223480378"><ele>649.0</ele><time>2026-05-02T08:59:37Z</time></trkpt><trkpt lat="45.863259590002315" lon="9.837026467345453"><ele>649.0</ele><time>2026-05-02T08:59:39Z</time></trkpt><trkpt lat="45.86325073086835" lon="9.836890426457897"><ele>649.0</ele><time>2026-05-02T08:59:41Z</time></trkpt><trkpt lat="45.86324183897422" lon="9.83675452860383"><ele>649.0</ele><time>2026-05-02T08:59:43Z</time></trkpt><trkpt lat="45.86322584360919" lon="9.836619611686842"><ele>649.0</ele><time>2026-05-02T08:59:45Z</time></trkpt><trkpt lat="45.86321527203369" lon="9.836486208196195"><ele>649.0</ele><time>2026-05-02T08:59:47Z</time></trkpt><trkpt lat="45.86322643520488" lon="9.836353696509526"><ele>648.6</ele><time>2026-05-02T08:59:49Z</time></trkpt><trkpt lat="45.863260994296574" lon="9.836224390513497"><ele>648.2</ele><time>2026-05-02T08:59:51Z</time></trkpt><trkpt lat="45.8633018692572" lon="9.836092962593277"><ele>647.8000000000001</ele><time>2026-05-02T08:59:53Z</time></trkpt><trkpt lat="45.863338638075774" lon="9.835958931969015"><ele>647.4000000000001</ele><time>2026-05-02T08:59:55Z</time></trkpt><trkpt lat="45.86337854729076" lon="9.835828529475622"><ele>647.0</ele><time>2026-05-02T08:59:57Z</time></trkpt><trkpt lat="45.86341466025132" lon="9.835697331282201"><ele>653.0</ele><time>2026-05-02T08:59:59Z</time></trkpt><trkpt lat="45.86345423561033" lon="9.835571892583442"><ele>659.0</ele><time>2026-05-02T09:00:01Z</time></trkpt><trkpt lat="45.86350773868464" lon="9.835454505969091"><ele>665.0</ele><time>2026-05-02T09:00:03Z</time></trkpt><trkpt lat="45.86358903373283" lon="9.83538289495819"><ele>671.0</ele><time>2026-05-02T09:00:05Z</time></trkpt><trkpt lat="45.86369321081659" lon="9.835370054273467"><ele>677.0</ele><time>2026-05-02T09:00:07Z</time></trkpt><trkpt lat="45.86377505300774" lon="9.835354590140925"><ele>677.0</ele><time>2026-05-02T09:00:09Z</time></trkpt><trkpt lat="45.86386714018474" lon="9.835328176381328"><ele>677.0</ele><time>2026-05-02T09:00:11Z</time></trkpt><trkpt lat="45.863943200845284" lon="9.835247468909126"><ele>677.0</ele><time>2026-05-02T09:00:13Z</time></trkpt><trkpt lat="45.86400866994473" lon="9.835132538607866"><ele>677.0</ele><time>2026-05-02T09:00:15Z</time></trkpt><trkpt lat="45.86406108531428" lon="9.835015763853358"><ele>677.0</ele><time>2026-05-02T09:00:17Z</time></trkpt><trkpt lat="45.86411800664035" lon="9.834907231003463"><ele>674.5</ele><time>2026-05-02T09:00:19Z</time></trkpt><trkpt lat="45.86417384606578" lon="9.834801762094273"><ele>672.0</ele><time>2026-05-02T09:00:21Z</time></trkpt><trkpt lat="45.86422701709363" lon="9.83469649748686"><ele>669.5</ele><time>2026-05-02T09:00:23Z</time></trkpt><trkpt lat="45.86428748046472" lon="9.83460433825672"><ele>667.0</ele><time>2026-05-02T09:00:25Z</time></trkpt><trkpt lat="45.86434170169717" lon="9.834514491251689"><ele>664.5</ele><time>2026-05-02T09:00:27Z</time></trkpt><trkpt lat="45.86441162658215" lon="9.834438766046766"><ele>662.0</ele><time>2026-05-02T09:00:29Z</time></trkpt><trkpt lat="45.8644905366147" lon="9.83439214014"><ele>670.0</ele><time>2026-05-02T09:00:31Z</time></trkpt><trkpt lat="45.864584289732754" lon="9.834400429232762"><ele>678.0</ele><time>2026-05-02T09:00:33Z</time></trkpt><trkpt lat="45.8646756328163" lon="9.834423965846876"><ele>686.0</ele><time>2026-05-02T09:00:35Z</time></trkpt><trkpt lat="45.86476554415657" lon="9.834436105912225"><ele>694.0</ele><time>2026-05-02T09:00:37Z</time></trkpt><trkpt lat="45.8648542600937" lon="9.834460401140198"><ele>702.0</ele><time>2026-05-02T09:00:39Z</time></trkpt><trkpt lat="45.8649403908222" lon="9.834478247295657"><ele>702.0</ele><time>2026-05-02T09:00:41Z</time></trkpt><trkpt lat="45.865029500256966" lon="9.834487236170709"><ele>702.0</ele><time>2026-05-02T09:00:43Z</time></trkpt><trkpt lat="45.86511773538081" lon="9.834460929869481"><ele>702.0</ele><time>2026-05-02T09:00:45Z</time></trkpt><trkpt lat="45.865189631122554" lon="9.834369642680404"><ele>702.0</ele><time>2026-05-02T09:00:47Z</time></trkpt><trkpt lat="45.86521991278102" lon="9.834233891661318"><ele>702.0</ele><time>2026-05-02T09:00:49Z</time></trkpt><trkpt lat="45.86523839070247" lon="9.834105169843722"><ele>702.2</ele><time>2026-05-02T09:00:51Z</time></trkpt><trkpt lat="45.86525494110474" lon="9.833973941676511"><ele>702.4000000000001</ele><time>2026-05-02T09:00:53Z</time></trkpt><trkpt lat="45.865303981547136" lon="9.83385864500889"><ele>702.5999999999999</ele><time>2026-05-02T09:00:55Z</time></trkpt><trkpt lat="45.86535823281807" lon="9.833740872173363"><ele>702.8</ele><time>2026-05-02T09:00:57Z</time></trkpt><trkpt lat="45.86540723217098" lon="9.83362301714135"><ele>703.0</ele><time>2026-05-02T09:00:59Z</time></trkpt><trkpt lat="45.86545149485044" lon="9.833505609507021"><ele>700.2</ele><time>2026-05-02T09:01:01Z</time></trkpt><trkpt lat="45.8654979308093" lon="9.833391023263992"><ele>697.4</ele><time>2026-05-02T09:01:03Z</time></trkpt><trkpt lat="45.865542833925055" lon="9.833272062636937"><ele>694.6</ele><time>2026-05-02T09:01:05Z</time></trkpt><trkpt lat="45.865590698295264" lon="9.833156600275403"><ele>691.8000000000001</ele><time>2026-05-02T09:01:07Z</time></trkpt><trkpt lat="45.86564982593261" lon="9.833050428195788"><ele>689.0</ele><time>2026-05-02T09:01:09Z</time></trkpt><trkpt lat="45.86572079798679" lon="9.832960165623101"><ele>689.0</ele><time>2026-05-02T09:01:11Z</time></trkpt><trkpt lat="45.865792925682705" lon="9.832873385946657"><ele>689.0</ele><time>2026-05-02T09:01:13Z</time></trkpt><trkpt lat="45.86586224114505" lon="9.832782281745946"><ele>689.0</ele><time>2026-05-02T09:01:15Z</time></trkpt><trkpt lat="45.865923230693376" lon="9.832684275871014"><ele>689.0</ele><time>2026-05-02T09:01:17Z</time></trkpt><trkpt lat="45.86598513282546" lon="9.832588423101464"><ele>689.0</ele><time>2026-05-02T09:01:19Z</time></trkpt><trkpt lat="45.8660398629135" lon="9.832483754902572"><ele>691.2</ele><time>2026-05-02T09:01:21Z</time></trkpt><trkpt lat="45.86608035990539" lon="9.832369560426965"><ele>693.4000000000001</ele><time>2026-05-02T09:01:23Z</time></trkpt><trkpt lat="45.86610671192785" lon="9.83224530022065"><ele>695.6</ele><time>2026-05-02T09:01:25Z</time></trkpt><trkpt lat="45.86614243601061" lon="9.832122732678423"><ele>697.8</ele><time>2026-05-02T09:01:27Z</time></trkpt><trkpt lat="45.86619721189451" lon="9.832020099884163"><ele>700.0</ele><time>2026-05-02T09:01:29Z</time></trkpt><trkpt lat="45.86627836395779" lon="9.831968983361046"><ele>700.0</ele><time>2026-05-02T09:01:31Z</time></trkpt><trkpt lat="45.86637016689823" lon="9.831971340484385"><ele>700.0</ele><time>2026-05-02T09:01:33Z</time></trkpt><trkpt lat="45.8664623399165" lon="9.832007046061003"><ele>700.0</ele><time>2026-05-02T09:01:35Z</time></trkpt><trkpt lat="45.8665572006557" lon="9.832045761215143"><ele>700.0</ele><time>2026-05-02T09:01:37Z</time></trkpt><trkpt lat="45.86665719555002" lon="9.832085587692497"><ele>700.0</ele><time>2026-05-02T09:01:39Z</time></trkpt><trkpt lat="45.866762073998615" lon="9.832120598135614"><ele>705.5</ele><time>2026-05-02T09:01:41Z</time></trkpt><trkpt lat="45.866867848656575" lon="9.832126323024616"><ele>711.0</ele><time>2026-05-02T09:01:43Z</time></trkpt><trkpt lat="45.8669794880435" lon="9.832153141971125"><ele>716.5</ele><time>2026-05-02T09:01:45Z</time></trkpt><trkpt lat="45.8670851204031" lon="9.83208617386096"><ele>722.0</ele><time>2026-05-02T09:01:47Z</time></trkpt><trkpt lat="45.8671738439951" lon="9.831969580750329"><ele>722.0</ele><time>2026-05-02T09:01:49Z</time></trkpt><trkpt lat="45.86721524065484" lon="9.831811638205991"><ele>722.0</ele><time>2026-05-02T09:01:51Z</time></trkpt><trkpt lat="45.86720130853827" lon="9.83163788214864"><ele>722.0</ele><time>2026-05-02T09:01:53Z</time></trkpt><trkpt lat="45.867167424203316" lon="9.831470557787748"><ele>722.0</ele><time>2026-05-02T09:01:55Z</time></trkpt><trkpt lat="45.867131235603544" lon="9.831303083702128"><ele>718.2</ele><time>2026-05-02T09:01:57Z</time></trkpt><trkpt lat="45.867081180890004" lon="9.83113922976911"><ele>714.4000000000001</ele><time>2026-05-02T09:01:59Z</time></trkpt><trkpt lat="45.867034607964136" lon="9.830970894990061"><ele>710.5999999999999</ele><time>2026-05-02T09:02:01Z</time></trkpt><trkpt lat="45.86702120408151" lon="9.830881327177803"><ele>706.8</ele><time>2026-05-02T09:02:02Z</time></trkpt><trkpt lat="45.8670169234994" lon="9.830788722063234"><ele>703.0</ele><time>2026-05-02T09:02:03Z</time></trkpt><trkpt lat="45.86704949445147" lon="9.830617724324279"><ele>703.0</ele><time>2026-05-02T09:02:05Z</time></trkpt><trkpt lat="45.867113819986834" lon="9.830465220703271"><ele>703.0</ele><time>2026-05-02T09:02:07Z</time></trkpt><trkpt lat="45.86717619832033" lon="9.830315236130057"><ele>703.0</ele><time>2026-05-02T09:02:09Z</time></trkpt><trkpt lat="45.86723682067478" lon="9.830162112339163"><ele>703.0</ele><time>2026-05-02T09:02:11Z</time></trkpt><trkpt lat="45.867300299811056" lon="9.83001002077087"><ele>702.2</ele><time>2026-05-02T09:02:13Z</time></trkpt><trkpt lat="45.86735953908257" lon="9.82985347581727"><ele>701.4</ele><time>2026-05-02T09:02:15Z</time></trkpt><trkpt lat="45.86741713469975" lon="9.82969395388371"><ele>700.6</ele><time>2026-05-02T09:02:17Z</time></trkpt><trkpt lat="45.867449336744514" lon="9.82961527441334"><ele>699.8000000000001</ele><time>2026-05-02T09:02:18Z</time></trkpt><trkpt lat="45.86751191915911" lon="9.829458311922883"><ele>699.0</ele><time>2026-05-02T09:02:20Z</time></trkpt><trkpt lat="45.86754292310582" lon="9.829379088617227"><ele>696.2</ele><time>2026-05-02T09:02:21Z</time></trkpt><trkpt lat="45.86760176509155" lon="9.829223399460696"><ele>693.4000000000001</ele><time>2026-05-02T09:02:23Z</time></trkpt><trkpt lat="45.867628053394526" lon="9.829140484562553"><ele>690.6</ele><time>2026-05-02T09:02:24Z</time></trkpt><trkpt lat="45.86767500252766" lon="9.82898161564716"><ele>687.8</ele><time>2026-05-02T09:02:26Z</time></trkpt><trkpt lat="45.867729833920976" lon="9.828821949504151"><ele>685.0</ele><time>2026-05-02T09:02:28Z</time></trkpt><trkpt lat="45.8677864929761" lon="9.82866415567631"><ele>692.2</ele><time>2026-05-02T09:02:30Z</time></trkpt><trkpt lat="45.86784228869535" lon="9.828505228472308"><ele>699.4</ele><time>2026-05-02T09:02:32Z</time></trkpt><trkpt lat="45.867887612036135" lon="9.828344569144978"><ele>706.5999999999999</ele><time>2026-05-02T09:02:34Z</time></trkpt><trkpt lat="45.86792634125187" lon="9.828180316289004"><ele>713.8</ele><time>2026-05-02T09:02:36Z</time></trkpt><trkpt lat="45.867942577199" lon="9.828092526643712"><ele>721.0</ele><time>2026-05-02T09:02:37Z</time></trkpt><trkpt lat="45.86796290796724" lon="9.827920292848743"><ele>721.0</ele><time>2026-05-02T09:02:39Z</time></trkpt><trkpt lat="45.867969819627966" lon="9.827739740746509"><ele>721.0</ele><time>2026-05-02T09:02:41Z</time></trkpt><trkpt lat="45.867984747897104" lon="9.827557088575396"><ele>721.0</ele><time>2026-05-02T09:02:43Z</time></trkpt><trkpt lat="45.86799705622017" lon="9.827467895969566"><ele>721.0</ele><time>2026-05-02T09:02:44Z</time></trkpt><trkpt lat="45.86803182719488" lon="9.827294207079596"><ele>721.0</ele><time>2026-05-02T09:02:46Z</time></trkpt><trkpt lat="45.86805698374885" lon="9.827210921611595"><ele>719.5714285714286</ele><time>2026-05-02T09:02:47Z</time></trkpt><trkpt lat="45.868109120327794" lon="9.827052428299375"><ele>718.1428571428571</ele><time>2026-05-02T09:02:49Z</time></trkpt><trkpt lat="45.86813549671473" lon="9.82696939908122"><ele>716.7142857142858</ele><time>2026-05-02T09:02:50Z</time></trkpt><trkpt lat="45.86816008208042" lon="9.82688580703312"><ele>715.2857142857142</ele><time>2026-05-02T09:02:51Z</time></trkpt><trkpt lat="45.86818882114182" lon="9.82680396700425"><ele>713.8571428571429</ele><time>2026-05-02T09:02:52Z</time></trkpt><trkpt lat="45.86821487869857" lon="9.826717691617878"><ele>712.4285714285714</ele><time>2026-05-02T09:02:53Z</time></trkpt><trkpt lat="45.86823968761916" lon="9.826629489056632"><ele>711.0</ele><time>2026-05-02T09:02:54Z</time></trkpt><trkpt lat="45.868262797967" lon="9.82654128514247"><ele>709.3333333333334</ele><time>2026-05-02T09:02:55Z</time></trkpt><trkpt lat="45.86828199702534" lon="9.82645126326383"><ele>707.6666666666666</ele><time>2026-05-02T09:02:56Z</time></trkpt><trkpt lat="45.86829755213919" lon="9.826360217343844"><ele>706.0</ele><time>2026-05-02T09:02:57Z</time></trkpt><trkpt lat="45.86830859351817" lon="9.826270960402686"><ele>704.3333333333333</ele><time>2026-05-02T09:02:58Z</time></trkpt><trkpt lat="45.86831704878545" lon="9.826179250921252"><ele>702.6666666666666</ele><time>2026-05-02T09:02:59Z</time></trkpt><trkpt lat="45.86833409973847" lon="9.826003261734613"><ele>701.0</ele><time>2026-05-02T09:03:01Z</time></trkpt><trkpt lat="45.868353382185084" lon="9.825829644562598"><ele>700.1666666666666</ele><time>2026-05-02T09:03:03Z</time></trkpt><trkpt lat="45.868369552351105" lon="9.825652854100564"><ele>699.3333333333333</ele><time>2026-05-02T09:03:05Z</time></trkpt><trkpt lat="45.8683739217552" lon="9.825562118390511"><ele>698.5</ele><time>2026-05-02T09:03:06Z</time></trkpt><trkpt lat="45.868378348928665" lon="9.825470049967327"><ele>697.6666666666666</ele><time>2026-05-02T09:03:07Z</time></trkpt><trkpt lat="45.86837052859526" lon="9.825290791203676"><ele>696.8333333333334</ele><time>2026-05-02T09:03:09Z</time></trkpt><trkpt lat="45.8683624349534" lon="9.825197179312191"><ele>696.0</ele><time>2026-05-02T09:03:10Z</time></trkpt><trkpt lat="45.86833082696632" lon="9.825024350802474"><ele>695.4</ele><time>2026-05-02T09:03:12Z</time></trkpt><trkpt lat="45.86831193648092" lon="9.824936114378627"><ele>694.8</ele><time>2026-05-02T09:03:13Z</time></trkpt><trkpt lat="45.86828247661872" lon="9.824765516466403"><ele>694.1999999999999</ele><time>2026-05-02T09:03:15Z</time></trkpt><trkpt lat="45.86825676614966" lon="9.824590427969776"><ele>693.5999999999999</ele><time>2026-05-02T09:03:17Z</time></trkpt><trkpt lat="45.868223428865754" lon="9.824427563472028"><ele>693.0</ele><time>2026-05-02T09:03:19Z</time></trkpt><trkpt lat="45.86819656530871" lon="9.824268186034935"><ele>693.0</ele><time>2026-05-02T09:03:21Z</time></trkpt><trkpt lat="45.86817572626046" lon="9.824117456878302"><ele>693.0</ele><time>2026-05-02T09:03:23Z</time></trkpt><trkpt lat="45.8681712405826" lon="9.823975210081027"><ele>693.0</ele><time>2026-05-02T09:03:25Z</time></trkpt><trkpt lat="45.86822009669802" lon="9.823840080833415"><ele>693.0</ele><time>2026-05-02T09:03:27Z</time></trkpt><trkpt lat="45.86828543951609" lon="9.82370323025"><ele>693.0</ele><time>2026-05-02T09:03:29Z</time></trkpt><trkpt lat="45.86835698521297" lon="9.82357393258827"><ele>692.5</ele><time>2026-05-02T09:03:31Z</time></trkpt><trkpt lat="45.86842460081891" lon="9.823444536787905"><ele>692.0</ele><time>2026-05-02T09:03:33Z</time></trkpt><trkpt lat="45.86849858156442" lon="9.823316104293609"><ele>691.5</ele><time>2026-05-02T09:03:35Z</time></trkpt><trkpt lat="45.86856999250409" lon="9.823178948734574"><ele>691.0</ele><time>2026-05-02T09:03:37Z</time></trkpt><trkpt lat="45.86864009681965" lon="9.823049349544593"><ele>697.5</ele><time>2026-05-02T09:03:39Z</time></trkpt><trkpt lat="45.86871911407772" lon="9.822928594165008"><ele>704.0</ele><time>2026-05-02T09:03:41Z</time></trkpt><trkpt lat="45.86881124565234" lon="9.822838462946205"><ele>710.5</ele><time>2026-05-02T09:03:43Z</time></trkpt><trkpt lat="45.86892614311334" lon="9.822781428893157"><ele>717.0</ele><time>2026-05-02T09:03:45Z</time></trkpt><trkpt lat="45.869038821261626" lon="9.822762025642394"><ele>717.0</ele><time>2026-05-02T09:03:47Z</time></trkpt><trkpt lat="45.869152076462434" lon="9.822779793544221"><ele>717.0</ele><time>2026-05-02T09:03:49Z</time></trkpt><trkpt lat="45.86926197919551" lon="9.822824793957542"><ele>717.0</ele><time>2026-05-02T09:03:51Z</time></trkpt><trkpt lat="45.86937835190396" lon="9.822871923937287"><ele>717.0</ele><time>2026-05-02T09:03:53Z</time></trkpt><trkpt lat="45.869500349183525" lon="9.822899567217325"><ele>719.4000000000001</ele><time>2026-05-02T09:03:55Z</time></trkpt><trkpt lat="45.86961506753048" lon="9.82292274465092"><ele>721.8000000000001</ele><time>2026-05-02T09:03:57Z</time></trkpt><trkpt lat="45.869723454443694" lon="9.822948556085159"><ele>724.2</ele><time>2026-05-02T09:03:59Z</time></trkpt><trkpt lat="45.869834473485426" lon="9.822959012364397"><ele>726.6</ele><time>2026-05-02T09:04:01Z</time></trkpt><trkpt lat="45.86993728854" lon="9.822896435498413"><ele>729.0</ele><time>2026-05-02T09:04:03Z</time></trkpt><trkpt lat="45.87003483718129" lon="9.82281320702586"><ele>733.0</ele><time>2026-05-02T09:04:05Z</time></trkpt><trkpt lat="45.870118854814955" lon="9.822704265254995"><ele>737.0</ele><time>2026-05-02T09:04:07Z</time></trkpt><trkpt lat="45.87009176156315" lon="9.822545502785541"><ele>741.0</ele><time>2026-05-02T09:04:09Z</time></trkpt><trkpt lat="45.87003667313035" lon="9.822406704437226"><ele>745.0</ele><time>2026-05-02T09:04:11Z</time></trkpt><trkpt lat="45.869985012296304" lon="9.822278825277815"><ele>749.0</ele><time>2026-05-02T09:04:13Z</time></trkpt><trkpt lat="45.86994711350093" lon="9.822146027179144"><ele>745.8000000000001</ele><time>2026-05-02T09:04:15Z</time></trkpt><trkpt lat="45.86993775031441" lon="9.822007031428523"><ele>742.6</ele><time>2026-05-02T09:04:17Z</time></trkpt><trkpt lat="45.869979731086055" lon="9.82187599099986"><ele>739.4</ele><time>2026-05-02T09:04:19Z</time></trkpt><trkpt lat="45.870073948907226" lon="9.821809654856274"><ele>736.2</ele><time>2026-05-02T09:04:21Z</time></trkpt><trkpt lat="45.87016667714684" lon="9.821741568685407"><ele>733.0</ele><time>2026-05-02T09:04:23Z</time></trkpt><trkpt lat="45.870248671518254" lon="9.821649101308518"><ele>733.0</ele><time>2026-05-02T09:04:25Z</time></trkpt><trkpt lat="45.870303567218855" lon="9.821520657754132"><ele>733.0</ele><time>2026-05-02T09:04:27Z</time></trkpt><trkpt lat="45.8703275820525" lon="9.821372007692128"><ele>733.0</ele><time>2026-05-02T09:04:29Z</time></trkpt><trkpt lat="45.87036658655101" lon="9.82123914477955"><ele>733.0</ele><time>2026-05-02T09:04:31Z</time></trkpt><trkpt lat="45.870436160090684" lon="9.821138639266614"><ele>733.0</ele><time>2026-05-02T09:04:33Z</time></trkpt><trkpt lat="45.87052046790729" lon="9.82104395669426"><ele>730.4</ele><time>2026-05-02T09:04:35Z</time></trkpt><trkpt lat="45.87060542091257" lon="9.82094364483905"><ele>727.8</ele><time>2026-05-02T09:04:37Z</time></trkpt><trkpt lat="45.87067608074124" lon="9.82082352188862"><ele>725.2</ele><time>2026-05-02T09:04:39Z</time></trkpt><trkpt lat="45.87072276279479" lon="9.820688985097677"><ele>722.6</ele><time>2026-05-02T09:04:41Z</time></trkpt><trkpt lat="45.870770489547525" lon="9.820556362066052"><ele>720.0</ele><time>2026-05-02T09:04:43Z</time></trkpt><trkpt lat="45.87082075817258" lon="9.82043163856695"><ele>720.0</ele><time>2026-05-02T09:04:45Z</time></trkpt><trkpt lat="45.87089131905551" lon="9.820326547603003"><ele>720.0</ele><time>2026-05-02T09:04:47Z</time></trkpt><trkpt lat="45.8709719375318" lon="9.820240149616556"><ele>720.0</ele><time>2026-05-02T09:04:49Z</time></trkpt><trkpt lat="45.87106176259497" lon="9.820173949631556"><ele>720.0</ele><time>2026-05-02T09:04:51Z</time></trkpt><trkpt lat="45.87115357879267" lon="9.820119517372246"><ele>720.0</ele><time>2026-05-02T09:04:53Z</time></trkpt><trkpt lat="45.871250161568625" lon="9.82006496425355"><ele>724.8</ele><time>2026-05-02T09:04:55Z</time></trkpt><trkpt lat="45.87131921944152" lon="9.819960655954434"><ele>729.6</ele><time>2026-05-02T09:04:57Z</time></trkpt><trkpt lat="45.87131900465703" lon="9.819811975806163"><ele>734.4000000000001</ele><time>2026-05-02T09:04:59Z</time></trkpt><trkpt lat="45.871270876324814" lon="9.819662129131707"><ele>739.2</ele><time>2026-05-02T09:05:01Z</time></trkpt><trkpt lat="45.87122625677597" lon="9.819522594429866"><ele>744.0</ele><time>2026-05-02T09:05:03Z</time></trkpt><trkpt lat="45.87118418744476" lon="9.819385958944233"><ele>743.6</ele><time>2026-05-02T09:05:05Z</time></trkpt><trkpt lat="45.87114556250628" lon="9.819250064785516"><ele>743.2</ele><time>2026-05-02T09:05:07Z</time></trkpt><trkpt lat="45.871122498082286" lon="9.819101656600745"><ele>742.8000000000001</ele><time>2026-05-02T09:05:09Z</time></trkpt><trkpt lat="45.8711392405993" lon="9.818958646952638"><ele>742.4000000000001</ele><time>2026-05-02T09:05:11Z</time></trkpt><trkpt lat="45.87118429895315" lon="9.818835209187801"><ele>742.0</ele><time>2026-05-02T09:05:13Z</time></trkpt><trkpt lat="45.87123607498303" lon="9.818717959521365"><ele>742.0</ele><time>2026-05-02T09:05:15Z</time></trkpt><trkpt lat="45.8712924344774" lon="9.818647512498922"><ele>742.0</ele><time>2026-05-02T09:05:17Z</time></trkpt><trkpt lat="45.871237762856275" lon="9.81871604955949"><ele>742.0</ele><time>2026-05-02T09:05:22Z</time></trkpt><trkpt lat="45.871221814067745" lon="9.818804864500745"><ele>742.0</ele><time>2026-05-02T09:05:24Z</time></trkpt><trkpt lat="45.87124729943782" lon="9.818664819177297"><ele>742.0</ele><time>2026-05-02T09:06:18Z</time></trkpt><trkpt lat="45.87130777968145" lon="9.818576905849321"><ele>742.0</ele><time>2026-05-02T09:06:20Z</time></trkpt><trkpt lat="45.87137180031778" lon="9.818472197233884"><ele>742.0</ele><time>2026-05-02T09:06:22Z</time></trkpt><trkpt lat="45.87143411707118" lon="9.818359672433608"><ele>742.0</ele><time>2026-05-02T09:06:24Z</time></trkpt><trkpt lat="45.87148685934978" lon="9.818233860586622"><ele>742.0</ele><time>2026-05-02T09:06:26Z</time></trkpt><trkpt lat="45.87153610062087" lon="9.818101675730704"><ele>742.0</ele><time>2026-05-02T09:06:28Z</time></trkpt><trkpt lat="45.87158170857776" lon="9.817965966542866"><ele>742.0</ele><time>2026-05-02T09:06:30Z</time></trkpt><trkpt lat="45.87161614847616" lon="9.817829134305716"><ele>742.0</ele><time>2026-05-02T09:06:32Z</time></trkpt><trkpt lat="45.871654726551014" lon="9.817690553501441"><ele>742.0</ele><time>2026-05-02T09:06:34Z</time></trkpt><trkpt lat="45.8716905526758" lon="9.817556416951273"><ele>742.0</ele><time>2026-05-02T09:06:36Z</time></trkpt><trkpt lat="45.87173407826915" lon="9.817427884382589"><ele>742.0</ele><time>2026-05-02T09:06:38Z</time></trkpt><trkpt lat="45.8717769229857" lon="9.817293446561873"><ele>742.0</ele><time>2026-05-02T09:06:40Z</time></trkpt><trkpt lat="45.871837408377175" lon="9.817169286618043"><ele>744.8</ele><time>2026-05-02T09:06:42Z</time></trkpt><trkpt lat="45.871906154867894" lon="9.817056007221408"><ele>747.6</ele><time>2026-05-02T09:06:44Z</time></trkpt><trkpt lat="45.87197106348527" lon="9.816941370436382"><ele>750.4</ele><time>2026-05-02T09:06:46Z</time></trkpt><trkpt lat="45.872031230941005" lon="9.816818695169145"><ele>753.1999999999999</ele><time>2026-05-02T09:06:48Z</time></trkpt><trkpt lat="45.87207831462115" lon="9.816665947904282"><ele>756.0</ele><time>2026-05-02T09:06:50Z</time></trkpt><trkpt lat="45.872108668665064" lon="9.816498862106846"><ele>756.0</ele><time>2026-05-02T09:06:52Z</time></trkpt><trkpt lat="45.87215493938519" lon="9.816338009147348"><ele>756.0</ele><time>2026-05-02T09:06:54Z</time></trkpt><trkpt lat="45.872222273681345" lon="9.816191732996035"><ele>756.0</ele><time>2026-05-02T09:06:56Z</time></trkpt><trkpt lat="45.872276726558646" lon="9.816142629968848"><ele>756.0</ele><time>2026-05-02T09:06:57Z</time></trkpt><trkpt lat="45.87238288535201" lon="9.81605885430099"><ele>756.0</ele><time>2026-05-02T09:06:59Z</time></trkpt><trkpt lat="45.87244095418587" lon="9.816022412484553"><ele>754.75</ele><time>2026-05-02T09:07:00Z</time></trkpt><trkpt lat="45.87254324149169" lon="9.815929076217811"><ele>753.5</ele><time>2026-05-02T09:07:02Z</time></trkpt><trkpt lat="45.87260332478385" lon="9.815788626979334"><ele>752.25</ele><time>2026-05-02T09:07:04Z</time></trkpt><trkpt lat="45.87259912229426" lon="9.815626020936817"><ele>751.0</ele><time>2026-05-02T09:07:06Z</time></trkpt><trkpt lat="45.87256017950651" lon="9.815470273250268"><ele>751.0</ele><time>2026-05-02T09:07:08Z</time></trkpt><trkpt lat="45.872540020288454" lon="9.815311496232235"><ele>751.0</ele><time>2026-05-02T09:07:10Z</time></trkpt><trkpt lat="45.872515108384796" lon="9.81517023305479"><ele>751.0</ele><time>2026-05-02T09:07:12Z</time></trkpt><trkpt lat="45.87248622626624" lon="9.815028581661577"><ele>751.0</ele><time>2026-05-02T09:07:14Z</time></trkpt><trkpt lat="45.87247053458357" lon="9.814882685882555"><ele>751.0</ele><time>2026-05-02T09:07:16Z</time></trkpt><trkpt lat="45.87251297449557" lon="9.814754173941989"><ele>750.0</ele><time>2026-05-02T09:07:18Z</time></trkpt><trkpt lat="45.872603918802724" lon="9.814679345868988"><ele>749.0</ele><time>2026-05-02T09:07:20Z</time></trkpt><trkpt lat="45.87271204207585" lon="9.81471264123751"><ele>748.0</ele><time>2026-05-02T09:07:22Z</time></trkpt><trkpt lat="45.872797211450276" lon="9.814814216140876"><ele>747.0</ele><time>2026-05-02T09:07:24Z</time></trkpt><trkpt lat="45.872907450935585" lon="9.814871218810701"><ele>746.0</ele><time>2026-05-02T09:07:26Z</time></trkpt><trkpt lat="45.87302876956274" lon="9.814856587124684"><ele>753.5</ele><time>2026-05-02T09:07:28Z</time></trkpt><trkpt lat="45.87314579707987" lon="9.814807923555195"><ele>761.0</ele><time>2026-05-02T09:07:30Z</time></trkpt><trkpt lat="45.87325570116618" lon="9.814767909830039"><ele>768.5</ele><time>2026-05-02T09:07:32Z</time></trkpt><trkpt lat="45.87336821794591" lon="9.814715731152912"><ele>776.0</ele><time>2026-05-02T09:07:34Z</time></trkpt><trkpt lat="45.873464521235505" lon="9.814631188595857"><ele>771.8</ele><time>2026-05-02T09:07:36Z</time></trkpt><trkpt lat="45.87354485977753" lon="9.814518913477496"><ele>767.5999999999999</ele><time>2026-05-02T09:07:38Z</time></trkpt><trkpt lat="45.87362728555305" lon="9.814423045920645"><ele>763.4</ele><time>2026-05-02T09:07:40Z</time></trkpt><trkpt lat="45.87370568034938" lon="9.814339625426307"><ele>759.2</ele><time>2026-05-02T09:07:42Z</time></trkpt><trkpt lat="45.87378580566135" lon="9.814256098606165"><ele>755.0</ele><time>2026-05-02T09:07:44Z</time></trkpt><trkpt lat="45.873869547187375" lon="9.814180073880715"><ele>755.0</ele><time>2026-05-02T09:07:46Z</time></trkpt><trkpt lat="45.87395218354949" lon="9.814111115940557"><ele>755.0</ele><time>2026-05-02T09:07:48Z</time></trkpt><trkpt lat="45.874038037530205" lon="9.814092098756284"><ele>755.0</ele><time>2026-05-02T09:07:50Z</time></trkpt><trkpt lat="45.87410971991583" lon="9.814063463035966"><ele>755.0</ele><time>2026-05-02T09:07:52Z</time></trkpt><trkpt lat="45.87417729817252" lon="9.814043471036344"><ele>755.0</ele><time>2026-05-02T09:07:54Z</time></trkpt><trkpt lat="45.874239558462584" lon="9.814017149410638"><ele>755.0</ele><time>2026-05-02T09:07:56Z</time></trkpt><trkpt lat="45.874314622757296" lon="9.813990492137398"><ele>760.6</ele><time>2026-05-02T09:07:58Z</time></trkpt><trkpt lat="45.874407415504756" lon="9.813959799826689"><ele>766.2</ele><time>2026-05-02T09:08:00Z</time></trkpt><trkpt lat="45.87451288427649" lon="9.813917992171667"><ele>771.8</ele><time>2026-05-02T09:08:02Z</time></trkpt><trkpt lat="45.87462540593424" lon="9.813879451523192"><ele>777.4</ele><time>2026-05-02T09:08:04Z</time></trkpt><trkpt lat="45.87473104048523" lon="9.813843796576672"><ele>783.0</ele><time>2026-05-02T09:08:06Z</time></trkpt><trkpt lat="45.87483343911813" lon="9.813809875584827"><ele>783.0</ele><time>2026-05-02T09:08:08Z</time></trkpt><trkpt lat="45.874931215673264" lon="9.813777311293668"><ele>783.0</ele><time>2026-05-02T09:08:10Z</time></trkpt><trkpt lat="45.87502790517401" lon="9.813745813888048"><ele>783.0</ele><time>2026-05-02T09:08:12Z</time></trkpt><trkpt lat="45.8751354030592" lon="9.8136996972873"><ele>783.0</ele><time>2026-05-02T09:08:14Z</time></trkpt><trkpt lat="45.87524003578332" lon="9.81363508168833"><ele>783.0</ele><time>2026-05-02T09:08:16Z</time></trkpt><trkpt lat="45.87533736368935" lon="9.813541209816929"><ele>779.0</ele><time>2026-05-02T09:08:18Z</time></trkpt><trkpt lat="45.87542877398596" lon="9.81343146177389"><ele>775.0</ele><time>2026-05-02T09:08:20Z</time></trkpt><trkpt lat="45.87551857201605" lon="9.813321041056096"><ele>771.0</ele><time>2026-05-02T09:08:22Z</time></trkpt><trkpt lat="45.875618375717615" lon="9.813225630294914"><ele>767.0</ele><time>2026-05-02T09:08:24Z</time></trkpt><trkpt lat="45.87572151141344" lon="9.813140410292846"><ele>767.0</ele><time>2026-05-02T09:08:26Z</time></trkpt><trkpt lat="45.875823180640445" lon="9.813052938954261"><ele>767.0</ele><time>2026-05-02T09:08:28Z</time></trkpt><trkpt lat="45.875925209532625" lon="9.812967964242466"><ele>767.0</ele><time>2026-05-02T09:08:30Z</time></trkpt><trkpt lat="45.87603024874181" lon="9.81288599599462"><ele>767.0</ele><time>2026-05-02T09:08:32Z</time></trkpt><trkpt lat="45.87613812538445" lon="9.812810692157727"><ele>773.25</ele><time>2026-05-02T09:08:34Z</time></trkpt><trkpt lat="45.87625354373858" lon="9.812775408200903"><ele>779.5</ele><time>2026-05-02T09:08:36Z</time></trkpt><trkpt lat="45.87637322509996" lon="9.812785313382355"><ele>785.75</ele><time>2026-05-02T09:08:38Z</time></trkpt><trkpt lat="45.87648963630858" lon="9.812843896391573"><ele>792.0</ele><time>2026-05-02T09:08:40Z</time></trkpt><trkpt lat="45.87659537796755" lon="9.812920230987539"><ele>792.0</ele><time>2026-05-02T09:08:42Z</time></trkpt><trkpt lat="45.87670073742826" lon="9.81299863313885"><ele>792.0</ele><time>2026-05-02T09:08:44Z</time></trkpt><trkpt lat="45.87680821701076" lon="9.813070380183635"><ele>792.0</ele><time>2026-05-02T09:08:46Z</time></trkpt><trkpt lat="45.87691451116083" lon="9.813132767304738"><ele>792.0</ele><time>2026-05-02T09:08:48Z</time></trkpt><trkpt lat="45.877028789722836" lon="9.813156981652325"><ele>789.75</ele><time>2026-05-02T09:08:50Z</time></trkpt><trkpt lat="45.87714691764368" lon="9.813154455611327"><ele>787.5</ele><time>2026-05-02T09:08:52Z</time></trkpt><trkpt lat="45.877258776159415" lon="9.813149149870599"><ele>785.25</ele><time>2026-05-02T09:08:54Z</time></trkpt><trkpt lat="45.87737162635765" lon="9.813157310348863"><ele>783.0</ele><time>2026-05-02T09:08:56Z</time></trkpt><trkpt lat="45.8774859215336" lon="9.813163652488482"><ele>783.0</ele><time>2026-05-02T09:08:58Z</time></trkpt><trkpt lat="45.8776006265087" lon="9.813164169873854"><ele>783.0</ele><time>2026-05-02T09:09:00Z</time></trkpt><trkpt lat="45.87771230605969" lon="9.813182632855963"><ele>783.0</ele><time>2026-05-02T09:09:02Z</time></trkpt><trkpt lat="45.877825644812646" lon="9.813186877482131"><ele>783.0</ele><time>2026-05-02T09:09:04Z</time></trkpt><trkpt lat="45.877936405700936" lon="9.813166111785439"><ele>784.8</ele><time>2026-05-02T09:09:06Z</time></trkpt><trkpt lat="45.878039928929184" lon="9.813101335395485"><ele>786.5999999999999</ele><time>2026-05-02T09:09:08Z</time></trkpt><trkpt lat="45.87813451784338" lon="9.81301773948547"><ele>788.4000000000001</ele><time>2026-05-02T09:09:10Z</time></trkpt><trkpt lat="45.87821980793616" lon="9.812916313882372"><ele>790.2</ele><time>2026-05-02T09:09:12Z</time></trkpt><trkpt lat="45.87830415128581" lon="9.812807667398241"><ele>792.0</ele><time>2026-05-02T09:09:14Z</time></trkpt><trkpt lat="45.87838343875887" lon="9.812697498857473"><ele>791.0</ele><time>2026-05-02T09:09:16Z</time></trkpt><trkpt lat="45.878473345697294" lon="9.812602731976273"><ele>790.0</ele><time>2026-05-02T09:09:18Z</time></trkpt><trkpt lat="45.878573384012455" lon="9.81253152418259"><ele>789.0</ele><time>2026-05-02T09:09:20Z</time></trkpt><trkpt lat="45.878683627760104" lon="9.812489731887677"><ele>788.0</ele><time>2026-05-02T09:09:22Z</time></trkpt><trkpt lat="45.87879123690839" lon="9.81243458633346"><ele>788.0</ele><time>2026-05-02T09:09:24Z</time></trkpt><trkpt lat="45.878898437603524" lon="9.81238775265453"><ele>788.0</ele><time>2026-05-02T09:09:26Z</time></trkpt><trkpt lat="45.87900482463832" lon="9.812337427199893"><ele>788.0</ele><time>2026-05-02T09:09:28Z</time></trkpt><trkpt lat="45.87910833402254" lon="9.812288166115474"><ele>788.0</ele><time>2026-05-02T09:09:30Z</time></trkpt><trkpt lat="45.879211018068844" lon="9.812230065504453"><ele>788.0</ele><time>2026-05-02T09:09:32Z</time></trkpt><trkpt lat="45.879310352340724" lon="9.812170583452591"><ele>787.4</ele><time>2026-05-02T09:09:34Z</time></trkpt><trkpt lat="45.87940960710145" lon="9.812112314585248"><ele>786.8</ele><time>2026-05-02T09:09:36Z</time></trkpt><trkpt lat="45.879510975020104" lon="9.812044401806691"><ele>786.2</ele><time>2026-05-02T09:09:38Z</time></trkpt><trkpt lat="45.87959001044051" lon="9.811992791771045"><ele>785.6</ele><time>2026-05-02T09:09:40Z</time></trkpt><trkpt lat="45.87965645132695" lon="9.811914676379093"><ele>785.0</ele><time>2026-05-02T09:09:42Z</time></trkpt><trkpt lat="45.87968125524344" lon="9.811766488554069"><ele>785.0</ele><time>2026-05-02T09:09:44Z</time></trkpt><trkpt lat="45.879655206969474" lon="9.81162704053728"><ele>785.0</ele><time>2026-05-02T09:09:46Z</time></trkpt><trkpt lat="45.87962114576834" lon="9.811502375594605"><ele>785.0</ele><time>2026-05-02T09:09:48Z</time></trkpt><trkpt lat="45.879592585411416" lon="9.81139238690973"><ele>785.0</ele><time>2026-05-02T09:09:50Z</time></trkpt><trkpt lat="45.87962131989591" lon="9.811282925899082"><ele>785.0</ele><time>2026-05-02T09:09:53Z</time></trkpt><trkpt lat="45.87970465577353" lon="9.811219807532504"><ele>785.0000000000001</ele><time>2026-05-02T09:09:56Z</time></trkpt><trkpt lat="45.87964392312719" lon="9.811252362151782"><ele>785.0</ele><time>2026-05-02T09:11:05Z</time></trkpt><trkpt lat="45.87958219265532" lon="9.811310891905299"><ele>785.0</ele><time>2026-05-02T09:11:08Z</time></trkpt><trkpt lat="45.87950899055403" lon="9.81123278774164"><ele>785.0</ele><time>2026-05-02T09:11:11Z</time></trkpt><trkpt lat="45.879461480492694" lon="9.811139379692628"><ele>785.0000000000001</ele><time>2026-05-02T09:11:13Z</time></trkpt><trkpt lat="45.87937282631753" lon="9.81108275090515"><ele>785.0</ele><time>2026-05-02T09:11:15Z</time></trkpt><trkpt lat="45.87927206457326" lon="9.811083397809378"><ele>781.8</ele><time>2026-05-02T09:11:17Z</time></trkpt><trkpt lat="45.879172968239736" lon="9.811109900617891"><ele>778.6</ele><time>2026-05-02T09:11:19Z</time></trkpt><trkpt lat="45.879090304569154" lon="9.811136740607662"><ele>775.4000000000001</ele><time>2026-05-02T09:11:21Z</time></trkpt><trkpt lat="45.87900188439724" lon="9.811165449917311"><ele>772.2</ele><time>2026-05-02T09:11:23Z</time></trkpt><trkpt lat="45.87890581075194" lon="9.811190592723316"><ele>769.0</ele><time>2026-05-02T09:11:25Z</time></trkpt><trkpt lat="45.87880692959201" lon="9.811203064358505"><ele>769.0</ele><time>2026-05-02T09:11:27Z</time></trkpt><trkpt lat="45.8787027008837" lon="9.811183197905057"><ele>769.0</ele><time>2026-05-02T09:11:29Z</time></trkpt><trkpt lat="45.87860594399676" lon="9.811140649171056"><ele>769.0</ele><time>2026-05-02T09:11:31Z</time></trkpt><trkpt lat="45.87851614759552" lon="9.811068712112522"><ele>769.0</ele><time>2026-05-02T09:11:33Z</time></trkpt><trkpt lat="45.87843116758844" lon="9.810984678694535"><ele>769.0</ele><time>2026-05-02T09:11:35Z</time></trkpt><trkpt lat="45.87835566106187" lon="9.810883679390296"><ele>772.8000000000001</ele><time>2026-05-02T09:11:37Z</time></trkpt><trkpt lat="45.878314921715095" lon="9.810743534916917"><ele>776.6</ele><time>2026-05-02T09:11:39Z</time></trkpt><trkpt lat="45.87828305714996" lon="9.8106007979776"><ele>780.4</ele><time>2026-05-02T09:11:41Z</time></trkpt><trkpt lat="45.87824812315024" lon="9.810453112072448"><ele>784.2</ele><time>2026-05-02T09:11:43Z</time></trkpt><trkpt lat="45.878227025341424" lon="9.81031588771182"><ele>788.0</ele><time>2026-05-02T09:11:45Z</time></trkpt><trkpt lat="45.87814628848861" lon="9.810208437500926"><ele>788.0</ele><time>2026-05-02T09:11:47Z</time></trkpt><trkpt lat="45.87802672076646" lon="9.810201097507496"><ele>788.0</ele><time>2026-05-02T09:11:49Z</time></trkpt><trkpt lat="45.87790983926965" lon="9.810200937965677"><ele>788.0</ele><time>2026-05-02T09:11:51Z</time></trkpt><trkpt lat="45.87779726295094" lon="9.810179297861252"><ele>788.0</ele><time>2026-05-02T09:11:53Z</time></trkpt><trkpt lat="45.877688048558426" lon="9.81017304044071"><ele>787.8</ele><time>2026-05-02T09:11:55Z</time></trkpt><trkpt lat="45.87757760228688" lon="9.810162853189762"><ele>787.5999999999999</ele><time>2026-05-02T09:11:57Z</time></trkpt><trkpt lat="45.87746949915143" lon="9.810153095170314"><ele>787.4000000000001</ele><time>2026-05-02T09:11:59Z</time></trkpt><trkpt lat="45.87735928342139" lon="9.810161985825825"><ele>787.2</ele><time>2026-05-02T09:12:01Z</time></trkpt><trkpt lat="45.87725608398399" lon="9.810192787491014"><ele>787.0</ele><time>2026-05-02T09:12:03Z</time></trkpt><trkpt lat="45.87715560708713" lon="9.810238048398347"><ele>787.0</ele><time>2026-05-02T09:12:05Z</time></trkpt><trkpt lat="45.87705175764432" lon="9.810278939136555"><ele>787.0</ele><time>2026-05-02T09:12:07Z</time></trkpt><trkpt lat="45.87694911757634" lon="9.810325734099608"><ele>787.0</ele><time>2026-05-02T09:12:09Z</time></trkpt><trkpt lat="45.87684547040727" lon="9.810368678659925"><ele>787.0</ele><time>2026-05-02T09:12:11Z</time></trkpt><trkpt lat="45.876735036204494" lon="9.810412763915998"><ele>787.0</ele><time>2026-05-02T09:12:13Z</time></trkpt><trkpt lat="45.876632113166814" lon="9.810456463540323"><ele>787.6</ele><time>2026-05-02T09:12:15Z</time></trkpt><trkpt lat="45.876531043834134" lon="9.810501866791014"><ele>788.2</ele><time>2026-05-02T09:12:17Z</time></trkpt><trkpt lat="45.876432564203164" lon="9.810559362312405"><ele>788.8</ele><time>2026-05-02T09:12:19Z</time></trkpt><trkpt lat="45.876329364602675" lon="9.810620728010198"><ele>789.4</ele><time>2026-05-02T09:12:21Z</time></trkpt><trkpt lat="45.87622705128192" lon="9.810669051655388"><ele>790.0</ele><time>2026-05-02T09:12:23Z</time></trkpt><trkpt lat="45.87612949267547" lon="9.810742234152922"><ele>790.0</ele><time>2026-05-02T09:12:25Z</time></trkpt><trkpt lat="45.8760361354612" lon="9.81081114966896"><ele>790.0</ele><time>2026-05-02T09:12:26.999Z</time></trkpt><trkpt lat="45.87594095976023" lon="9.810863987433635"><ele>790.0</ele><time>2026-05-02T09:12:28.999Z</time></trkpt><trkpt lat="45.87584038593895" lon="9.810895445272651"><ele>790.0</ele><time>2026-05-02T09:12:31Z</time></trkpt><trkpt lat="45.87573991992982" lon="9.810902659430473"><ele>790.0</ele><time>2026-05-02T09:12:33Z</time></trkpt><trkpt lat="45.87564180904347" lon="9.810881024971184"><ele>792.6</ele><time>2026-05-02T09:12:35Z</time></trkpt><trkpt lat="45.8755499602115" lon="9.810818990845597"><ele>795.2</ele><time>2026-05-02T09:12:37Z</time></trkpt><trkpt lat="45.875452429318486" lon="9.810766274548588"><ele>797.8</ele><time>2026-05-02T09:12:39Z</time></trkpt><trkpt lat="45.875362132966394" lon="9.810699017168275"><ele>800.4</ele><time>2026-05-02T09:12:41Z</time></trkpt><trkpt lat="45.87526638998753" lon="9.810639583414043"><ele>803.0</ele><time>2026-05-02T09:12:43Z</time></trkpt><trkpt lat="45.87517753921388" lon="9.810577906316466"><ele>802.5999999999999</ele><time>2026-05-02T09:12:45Z</time></trkpt><trkpt lat="45.8750900285934" lon="9.810512603024906"><ele>802.1999999999999</ele><time>2026-05-02T09:12:47Z</time></trkpt><trkpt lat="45.87500976460956" lon="9.81042894770251"><ele>801.8</ele><time>2026-05-02T09:12:49Z</time></trkpt><trkpt lat="45.87495454498462" lon="9.810311260709119"><ele>801.4</ele><time>2026-05-02T09:12:51Z</time></trkpt><trkpt lat="45.87491673371571" lon="9.810178331707286"><ele>801.0</ele><time>2026-05-02T09:12:53Z</time></trkpt><trkpt lat="45.87488777655093" lon="9.810031843922657"><ele>804.5999999999999</ele><time>2026-05-02T09:12:55Z</time></trkpt><trkpt lat="45.87485627138079" lon="9.809891377268574"><ele>808.2</ele><time>2026-05-02T09:12:57Z</time></trkpt><trkpt lat="45.87482211442987" lon="9.809749419695631"><ele>811.8</ele><time>2026-05-02T09:12:59Z</time></trkpt><trkpt lat="45.87478876621549" lon="9.80960801220801"><ele>815.4000000000001</ele><time>2026-05-02T09:13:01Z</time></trkpt><trkpt lat="45.87476496354544" lon="9.809468272280602"><ele>819.0</ele><time>2026-05-02T09:13:03Z</time></trkpt><trkpt lat="45.8747356590577" lon="9.809326065998903"><ele>823.8000000000001</ele><time>2026-05-02T09:13:05Z</time></trkpt><trkpt lat="45.87470794305541" lon="9.809190374068656"><ele>828.6</ele><time>2026-05-02T09:13:07Z</time></trkpt><trkpt lat="45.87467420430679" lon="9.809041699372342"><ele>833.4</ele><time>2026-05-02T09:13:09Z</time></trkpt><trkpt lat="45.87464829995154" lon="9.808893785170582"><ele>838.2</ele><time>2026-05-02T09:13:11Z</time></trkpt><trkpt lat="45.87458096560409" lon="9.808780866853876"><ele>843.0</ele><time>2026-05-02T09:13:13Z</time></trkpt><trkpt lat="45.8744770062497" lon="9.808729992670902"><ele>843.0</ele><time>2026-05-02T09:13:15Z</time></trkpt><trkpt lat="45.87437130335943" lon="9.80878899141359"><ele>843.0</ele><time>2026-05-02T09:13:17Z</time></trkpt><trkpt lat="45.87430258846239" lon="9.808911216386818"><ele>843.0</ele><time>2026-05-02T09:13:19Z</time></trkpt><trkpt lat="45.87424977770614" lon="9.809051131950376"><ele>843.0</ele><time>2026-05-02T09:13:21Z</time></trkpt><trkpt lat="45.87420090253518" lon="9.809196908984648"><ele>843.0</ele><time>2026-05-02T09:13:23Z</time></trkpt><trkpt lat="45.87414982706267" lon="9.809333776020075"><ele>839.0</ele><time>2026-05-02T09:13:25Z</time></trkpt><trkpt lat="45.87409871519652" lon="9.809464921507974"><ele>835.0</ele><time>2026-05-02T09:13:27Z</time></trkpt><trkpt lat="45.87405210002361" lon="9.809601725258146"><ele>831.0</ele><time>2026-05-02T09:13:29Z</time></trkpt><trkpt lat="45.873998308815786" lon="9.809732684305134"><ele>827.0</ele><time>2026-05-02T09:13:31Z</time></trkpt><trkpt lat="45.87394160683228" lon="9.809845538307037"><ele>823.0</ele><time>2026-05-02T09:13:33Z</time></trkpt><trkpt lat="45.87389655127032" lon="9.809911600592812"><ele>823.0</ele><time>2026-05-02T09:13:34Z</time></trkpt><trkpt lat="45.8738386719225" lon="9.810005665766406"><ele>823.0</ele><time>2026-05-02T09:13:36Z</time></trkpt><trkpt lat="45.873776144654286" lon="9.810113099794512"><ele>823.0</ele><time>2026-05-02T09:13:38Z</time></trkpt><trkpt lat="45.87371344596697" lon="9.810215705823769"><ele>823.0</ele><time>2026-05-02T09:13:40Z</time></trkpt><trkpt lat="45.87363602930283" lon="9.810327129784543"><ele>823.0</ele><time>2026-05-02T09:13:42Z</time></trkpt><trkpt lat="45.87357004639939" lon="9.81043364467554"><ele>821.4</ele><time>2026-05-02T09:13:44Z</time></trkpt><trkpt lat="45.873485296391486" lon="9.810503821269892"><ele>819.8</ele><time>2026-05-02T09:13:46Z</time></trkpt><trkpt lat="45.87338643088247" lon="9.810521076659144"><ele>818.2</ele><time>2026-05-02T09:13:48Z</time></trkpt><trkpt lat="45.87329166692292" lon="9.81047003056106"><ele>816.6</ele><time>2026-05-02T09:13:50Z</time></trkpt><trkpt lat="45.873217104974046" lon="9.810366112337292"><ele>815.0</ele><time>2026-05-02T09:13:52Z</time></trkpt><trkpt lat="45.87314310432395" lon="9.810250994225068"><ele>821.2</ele><time>2026-05-02T09:13:54Z</time></trkpt><trkpt lat="45.87307590310842" lon="9.810133726017794"><ele>827.4</ele><time>2026-05-02T09:13:56Z</time></trkpt><trkpt lat="45.873007003789084" lon="9.81001471465976"><ele>833.5999999999999</ele><time>2026-05-02T09:13:58Z</time></trkpt><trkpt lat="45.872932766188576" lon="9.809907227367235"><ele>839.8</ele><time>2026-05-02T09:14:00Z</time></trkpt><trkpt lat="45.872847903987" lon="9.809823744600441"><ele>846.0</ele><time>2026-05-02T09:14:02Z</time></trkpt><trkpt lat="45.87274607258149" lon="9.809776236881618"><ele>846.0</ele><time>2026-05-02T09:14:04Z</time></trkpt><trkpt lat="45.87263721060066" lon="9.809762112557742"><ele>846.0</ele><time>2026-05-02T09:14:06Z</time></trkpt><trkpt lat="45.8725327768397" lon="9.809782320676776"><ele>846.0</ele><time>2026-05-02T09:14:08Z</time></trkpt><trkpt lat="45.87243198877112" lon="9.809837639849675"><ele>846.0</ele><time>2026-05-02T09:14:10Z</time></trkpt><trkpt lat="45.87232886862969" lon="9.809913902943538"><ele>846.0</ele><time>2026-05-02T09:14:12Z</time></trkpt><trkpt lat="45.872218326218" lon="9.809939823008323"><ele>844.5999999999999</ele><time>2026-05-02T09:14:14Z</time></trkpt><trkpt lat="45.8721185334141" lon="9.809873460614257"><ele>843.2</ele><time>2026-05-02T09:14:16Z</time></trkpt><trkpt lat="45.87207635122612" lon="9.80980144679752"><ele>841.8</ele><time>2026-05-02T09:14:17Z</time></trkpt><trkpt lat="45.87205365423198" lon="9.80965959416957"><ele>840.4000000000001</ele><time>2026-05-02T09:14:19Z</time></trkpt><trkpt lat="45.87208934844358" lon="9.80951012751784"><ele>839.0</ele><time>2026-05-02T09:14:21Z</time></trkpt><trkpt lat="45.87216960119544" lon="9.809429388206667"><ele>839.0</ele><time>2026-05-02T09:14:23Z</time></trkpt><trkpt lat="45.87225710258358" lon="9.809411241181966"><ele>839.0</ele><time>2026-05-02T09:14:25Z</time></trkpt><trkpt lat="45.87220963427293" lon="9.809348624894435"><ele>839.0</ele><time>2026-05-02T09:14:30Z</time></trkpt><trkpt lat="45.87214124032988" lon="9.809379186526114"><ele>839.0</ele><time>2026-05-02T09:14:32Z</time></trkpt><trkpt lat="45.87207907497368" lon="9.809423859571057"><ele>839.0</ele><time>2026-05-02T09:14:34Z</time></trkpt><trkpt lat="45.87209054022864" lon="9.809514300045585"><ele>839.0</ele><time>2026-05-02T09:15:19Z</time></trkpt><trkpt lat="45.87215774092243" lon="9.80945247082981"><ele>839.0</ele><time>2026-05-02T09:15:21Z</time></trkpt><trkpt lat="45.87224084000497" lon="9.809417583118526"><ele>839.0</ele><time>2026-05-02T09:15:23Z</time></trkpt><trkpt lat="45.87234217255585" lon="9.809451191367282"><ele>839.0</ele><time>2026-05-02T09:15:25Z</time></trkpt><trkpt lat="45.87243657825517" lon="9.809514931712267"><ele>839.0</ele><time>2026-05-02T09:15:27Z</time></trkpt><trkpt lat="45.87253042879728" lon="9.809583621762988"><ele>839.0</ele><time>2026-05-02T09:15:29Z</time></trkpt><trkpt lat="45.87263021311317" lon="9.809635732335801"><ele>839.0</ele><time>2026-05-02T09:15:31Z</time></trkpt><trkpt lat="45.872738050479214" lon="9.809673047469202"><ele>840.4000000000001</ele><time>2026-05-02T09:15:33Z</time></trkpt><trkpt lat="45.87284583956684" lon="9.809713556701555"><ele>841.8</ele><time>2026-05-02T09:15:35Z</time></trkpt><trkpt lat="45.872952732142345" lon="9.8097590079723"><ele>843.2</ele><time>2026-05-02T09:15:37Z</time></trkpt><trkpt lat="45.8730458054861" lon="9.809836728021237"><ele>844.5999999999999</ele><time>2026-05-02T09:15:39Z</time></trkpt><trkpt lat="45.87313681522636" lon="9.809925432118408"><ele>846.0</ele><time>2026-05-02T09:15:41Z</time></trkpt><trkpt lat="45.873227395522036" lon="9.810016651510109"><ele>846.0</ele><time>2026-05-02T09:15:43Z</time></trkpt><trkpt lat="45.8733212408771" lon="9.81008414221012"><ele>846.0</ele><time>2026-05-02T09:15:45Z</time></trkpt><trkpt lat="45.87342669208047" lon="9.810083718617973"><ele>846.0</ele><time>2026-05-02T09:15:47Z</time></trkpt><trkpt lat="45.87351506556324" lon="9.80999854942374"><ele>846.0</ele><time>2026-05-02T09:15:49Z</time></trkpt><trkpt lat="45.873567645088215" lon="9.809849795857122"><ele>846.0</ele><time>2026-05-02T09:15:51Z</time></trkpt><trkpt lat="45.87361303288939" lon="9.809703224110553"><ele>846.1999999999999</ele><time>2026-05-02T09:15:53Z</time></trkpt><trkpt lat="45.873660456562796" lon="9.809563946492979"><ele>846.4</ele><time>2026-05-02T09:15:55Z</time></trkpt><trkpt lat="45.87369928331692" lon="9.809422623156133"><ele>846.6</ele><time>2026-05-02T09:15:57Z</time></trkpt><trkpt lat="45.873735988855344" lon="9.809280454286863"><ele>846.8</ele><time>2026-05-02T09:15:59Z</time></trkpt><trkpt lat="45.87378137600347" lon="9.809142402780145"><ele>847.0</ele><time>2026-05-02T09:16:01Z</time></trkpt><trkpt lat="45.87383336048889" lon="9.809002661666776"><ele>847.0</ele><time>2026-05-02T09:16:03Z</time></trkpt><trkpt lat="45.87388610548355" lon="9.808864819813166"><ele>847.0</ele><time>2026-05-02T09:16:05Z</time></trkpt><trkpt lat="45.873932920205256" lon="9.808726657016352"><ele>847.0</ele><time>2026-05-02T09:16:07Z</time></trkpt><trkpt lat="45.87397981169067" lon="9.80858999224812"><ele>847.0</ele><time>2026-05-02T09:16:09Z</time></trkpt><trkpt lat="45.87402633413059" lon="9.808455494186319"><ele>847.0</ele><time>2026-05-02T09:16:11Z</time></trkpt><trkpt lat="45.874076034326386" lon="9.80831967620959"><ele>851.2</ele><time>2026-05-02T09:16:13Z</time></trkpt><trkpt lat="45.87412071999335" lon="9.808185161444793"><ele>855.4000000000001</ele><time>2026-05-02T09:16:15Z</time></trkpt><trkpt lat="45.87417061886297" lon="9.808045743820772"><ele>859.5999999999999</ele><time>2026-05-02T09:16:17Z</time></trkpt><trkpt lat="45.87422259575593" lon="9.807906136352011"><ele>863.8</ele><time>2026-05-02T09:16:19Z</time></trkpt><trkpt lat="45.87427251596988" lon="9.807772545336823"><ele>868.0</ele><time>2026-05-02T09:16:21Z</time></trkpt><trkpt lat="45.87434428311815" lon="9.807654603734498"><ele>868.0</ele><time>2026-05-02T09:16:23Z</time></trkpt><trkpt lat="45.874433312588444" lon="9.807576153807917"><ele>868.0</ele><time>2026-05-02T09:16:25Z</time></trkpt><trkpt lat="45.87454152178898" lon="9.80753509315074"><ele>868.0</ele><time>2026-05-02T09:16:27Z</time></trkpt><trkpt lat="45.87465637263179" lon="9.807540886244421"><ele>868.0</ele><time>2026-05-02T09:16:29Z</time></trkpt><trkpt lat="45.87475960026611" lon="9.807581321544518"><ele>868.0</ele><time>2026-05-02T09:16:31Z</time></trkpt><trkpt lat="45.87485849619236" lon="9.807670649458371"><ele>868.0</ele><time>2026-05-02T09:16:33Z</time></trkpt><trkpt lat="45.87492859898067" lon="9.807798950233794"><ele>868.0</ele><time>2026-05-02T09:16:35Z</time></trkpt><trkpt lat="45.87497886186306" lon="9.807947554133616"><ele>868.0</ele><time>2026-05-02T09:16:37Z</time></trkpt><trkpt lat="45.87501176245683" lon="9.808106041007878"><ele>868.0</ele><time>2026-05-02T09:16:39Z</time></trkpt><trkpt lat="45.87507385569435" lon="9.808237299237065"><ele>872.5</ele><time>2026-05-02T09:16:41Z</time></trkpt><trkpt lat="45.87516596929896" lon="9.808341782222392"><ele>877.0</ele><time>2026-05-02T09:16:43Z</time></trkpt><trkpt lat="45.87526060091707" lon="9.808434099381579"><ele>881.5</ele><time>2026-05-02T09:16:45Z</time></trkpt><trkpt lat="45.87536298138638" lon="9.808492143676574"><ele>886.0</ele><time>2026-05-02T09:16:47Z</time></trkpt><trkpt lat="45.875476220735045" lon="9.80848194831755"><ele>882.1999999999999</ele><time>2026-05-02T09:16:49Z</time></trkpt><trkpt lat="45.875583247392754" lon="9.808506550973197"><ele>878.3999999999999</ele><time>2026-05-02T09:16:51Z</time></trkpt><trkpt lat="45.87565644275763" lon="9.808621126295968"><ele>874.6</ele><time>2026-05-02T09:16:53Z</time></trkpt><trkpt lat="45.87569295207073" lon="9.808763139075552"><ele>870.8</ele><time>2026-05-02T09:16:55Z</time></trkpt><trkpt lat="45.87575303762296" lon="9.808890774029337"><ele>867.0</ele><time>2026-05-02T09:16:57Z</time></trkpt><trkpt lat="45.87584554684655" lon="9.80896264856405"><ele>864.4000000000001</ele><time>2026-05-02T09:16:59Z</time></trkpt><trkpt lat="45.87594907615257" lon="9.808943468559809"><ele>861.8000000000001</ele><time>2026-05-02T09:17:01Z</time></trkpt><trkpt lat="45.876031142294686" lon="9.808828644023578"><ele>859.2</ele><time>2026-05-02T09:17:03Z</time></trkpt><trkpt lat="45.87610400866365" lon="9.808702708717231"><ele>856.6</ele><time>2026-05-02T09:17:05Z</time></trkpt><trkpt lat="45.87614935287976" lon="9.808554141610436"><ele>854.0</ele><time>2026-05-02T09:17:07Z</time></trkpt><trkpt lat="45.87618163163818" lon="9.808401031250465"><ele>854.0</ele><time>2026-05-02T09:17:09Z</time></trkpt><trkpt lat="45.87621078697764" lon="9.80824462476087"><ele>854.0</ele><time>2026-05-02T09:17:11Z</time></trkpt><trkpt lat="45.876241069633885" lon="9.808086261150981"><ele>854.0</ele><time>2026-05-02T09:17:13Z</time></trkpt><trkpt lat="45.87626099490574" lon="9.807920464815705"><ele>854.0</ele><time>2026-05-02T09:17:15Z</time></trkpt><trkpt lat="45.87627988071246" lon="9.807756111736229"><ele>857.0</ele><time>2026-05-02T09:17:17Z</time></trkpt><trkpt lat="45.87629891300577" lon="9.807589315821518"><ele>860.0000000000001</ele><time>2026-05-02T09:17:19Z</time></trkpt><trkpt lat="45.876307527423336" lon="9.807440707793473"><ele>863.0000000000001</ele><time>2026-05-02T09:17:21Z</time></trkpt><trkpt lat="45.876309143472504" lon="9.807317546686255"><ele>866.0</ele><time>2026-05-02T09:17:23Z</time></trkpt><trkpt lat="45.87631082119771" lon="9.807202018891493"><ele>869.0</ele><time>2026-05-02T09:17:25Z</time></trkpt><trkpt lat="45.87628866954191" lon="9.807089669650855"><ele>869.0000000000001</ele><time>2026-05-02T09:17:27Z</time></trkpt><trkpt lat="45.87620599715015" lon="9.807111453147707"><ele>869.0</ele><time>2026-05-02T09:17:29Z</time></trkpt><trkpt lat="45.876193561559646" lon="9.807249369395786"><ele>869.0</ele><time>2026-05-02T09:17:31Z</time></trkpt><trkpt lat="45.8762044652453" lon="9.80737252620436"><ele>869.0</ele><time>2026-05-02T09:17:33Z</time></trkpt><trkpt lat="45.87618080837968" lon="9.807494679363252"><ele>869.0000000000001</ele><time>2026-05-02T09:17:35Z</time></trkpt><trkpt lat="45.87616063482722" lon="9.80761565612859"><ele>869.0</ele><time>2026-05-02T09:17:37Z</time></trkpt><trkpt lat="45.87613534047662" lon="9.807740386969117"><ele>866.5000000000001</ele><time>2026-05-02T09:17:39Z</time></trkpt><trkpt lat="45.876114731643014" lon="9.807863774015635"><ele>864.0</ele><time>2026-05-02T09:17:41Z</time></trkpt><trkpt lat="45.87608074467143" lon="9.807964879124514"><ele>861.5</ele><time>2026-05-02T09:17:43Z</time></trkpt><trkpt lat="45.87601918783193" lon="9.808031478375803"><ele>859.0</ele><time>2026-05-02T09:17:45Z</time></trkpt><trkpt lat="45.875944684444775" lon="9.807954377943693"><ele>856.5000000000001</ele><time>2026-05-02T09:17:47Z</time></trkpt><trkpt lat="45.875910469316665" lon="9.807835935695234"><ele>854.0</ele><time>2026-05-02T09:17:49Z</time></trkpt><trkpt lat="45.87586141715291" lon="9.80773646629806"><ele>861.6666666666667</ele><time>2026-05-02T09:17:51Z</time></trkpt><trkpt lat="45.87579905870425" lon="9.807646800993965"><ele>869.3333333333334</ele><time>2026-05-02T09:17:53Z</time></trkpt><trkpt lat="45.87572722182064" lon="9.807582905792996"><ele>877.0</ele><time>2026-05-02T09:17:55Z</time></trkpt><trkpt lat="45.875653244740676" lon="9.807537780113464"><ele>884.6666666666667</ele><time>2026-05-02T09:17:57Z</time></trkpt><trkpt lat="45.87557850411405" lon="9.80750129101488"><ele>892.3333333333334</ele><time>2026-05-02T09:17:59Z</time></trkpt><trkpt lat="45.875505310084414" lon="9.807467128374102"><ele>900.0</ele><time>2026-05-02T09:18:01Z</time></trkpt><trkpt lat="45.87544050441828" lon="9.80739688063497"><ele>900.0</ele><time>2026-05-02T09:18:03Z</time></trkpt><trkpt lat="45.87535622168008" lon="9.80733892544775"><ele>900.0</ele><time>2026-05-02T09:18:05Z</time></trkpt><trkpt lat="45.87528013114035" lon="9.807254112792528"><ele>900.0</ele><time>2026-05-02T09:18:07Z</time></trkpt><trkpt lat="45.87522688431461" lon="9.807143898971503"><ele>900.0</ele><time>2026-05-02T09:18:09Z</time></trkpt><trkpt lat="45.87516697036768" lon="9.80705552892206"><ele>900.0</ele><time>2026-05-02T09:18:11Z</time></trkpt><trkpt lat="45.8750944636007" lon="9.806994921831668"><ele>898.0</ele><time>2026-05-02T09:18:13Z</time></trkpt><trkpt lat="45.875015016161015" lon="9.806937224832415"><ele>896.0</ele><time>2026-05-02T09:18:15Z</time></trkpt><trkpt lat="45.87493394191413" lon="9.806860197416615"><ele>894.0</ele><time>2026-05-02T09:18:17Z</time></trkpt><trkpt lat="45.87485605096743" lon="9.806763599322275"><ele>892.0</ele><time>2026-05-02T09:18:19Z</time></trkpt><trkpt lat="45.87477240969766" lon="9.806656621046532"><ele>890.0</ele><time>2026-05-02T09:18:21Z</time></trkpt><trkpt lat="45.87471121877879" lon="9.80662193637661"><ele>894.0000000000001</ele><time>2026-05-02T09:18:22Z</time></trkpt><trkpt lat="45.874638181561664" lon="9.806609285547848"><ele>898.0</ele><time>2026-05-02T09:18:23Z</time></trkpt><trkpt lat="45.87456185106772" lon="9.80662560850971"><ele>902.0</ele><time>2026-05-02T09:18:24Z</time></trkpt><trkpt lat="45.87447720866978" lon="9.806659941144504"><ele>906.0</ele><time>2026-05-02T09:18:25Z</time></trkpt><trkpt lat="45.87441126195926" lon="9.806713246446892"><ele>910.0000000000001</ele><time>2026-05-02T09:18:26Z</time></trkpt><trkpt lat="45.87435080612425" lon="9.806770730346756"><ele>914.0</ele><time>2026-05-02T09:18:27Z</time></trkpt><trkpt lat="45.874295757463116" lon="9.806820738291227"><ele>909.6</ele><time>2026-05-02T09:18:28Z</time></trkpt><trkpt lat="45.874239113743776" lon="9.80686981611241"><ele>905.2</ele><time>2026-05-02T09:18:29Z</time></trkpt><trkpt lat="45.874179530488625" lon="9.806917543995949"><ele>900.8000000000001</ele><time>2026-05-02T09:18:30Z</time></trkpt><trkpt lat="45.87409253279864" lon="9.807018689154777"><ele>896.4000000000001</ele><time>2026-05-02T09:18:32Z</time></trkpt><trkpt lat="45.87399302975556" lon="9.807055124576017"><ele>892.0</ele><time>2026-05-02T09:18:34Z</time></trkpt><trkpt lat="45.873912738183314" lon="9.806964382496519"><ele>895.6</ele><time>2026-05-02T09:18:36Z</time></trkpt><trkpt lat="45.873888205010935" lon="9.806821171206016"><ele>899.2</ele><time>2026-05-02T09:18:38Z</time></trkpt><trkpt lat="45.873901609472696" lon="9.806671592453618"><ele>902.8</ele><time>2026-05-02T09:18:40Z</time></trkpt><trkpt lat="45.873897909344414" lon="9.806515737190082"><ele>906.4</ele><time>2026-05-02T09:18:42Z</time></trkpt><trkpt lat="45.87387653551791" lon="9.806368142951397"><ele>910.0</ele><time>2026-05-02T09:18:44Z</time></trkpt><trkpt lat="45.87385193870304" lon="9.806229138424648"><ele>910.0</ele><time>2026-05-02T09:18:46Z</time></trkpt><trkpt lat="45.873862073776806" lon="9.80611178379661"><ele>910.0</ele><time>2026-05-02T09:18:48Z</time></trkpt><trkpt lat="45.87385329954734" lon="9.805981999495526"><ele>910.0</ele><time>2026-05-02T09:18:50Z</time></trkpt><trkpt lat="45.8738880984123" lon="9.805848693207974"><ele>910.0</ele><time>2026-05-02T09:18:52Z</time></trkpt><trkpt lat="45.8738652634677" lon="9.805686168316003"><ele>910.0</ele><time>2026-05-02T09:18:54Z</time></trkpt><trkpt lat="45.87384781529321" lon="9.805529455295648"><ele>914.6</ele><time>2026-05-02T09:18:56Z</time></trkpt><trkpt lat="45.873820370693984" lon="9.805383964341138"><ele>919.2</ele><time>2026-05-02T09:18:58Z</time></trkpt><trkpt lat="45.873740016600294" lon="9.805227699730066"><ele>923.8</ele><time>2026-05-02T09:19:00Z</time></trkpt><trkpt lat="45.873680577738305" lon="9.80514067810792"><ele>928.4</ele><time>2026-05-02T09:19:01Z</time></trkpt><trkpt lat="45.873736276871874" lon="9.805085923869859"><ele>933.0</ele><time>2026-05-02T09:19:02Z</time></trkpt><trkpt lat="45.87368584022643" lon="9.804938017269153"><ele>937.0</ele><time>2026-05-02T09:19:04Z</time></trkpt><trkpt lat="45.87363432703249" lon="9.80480269458894"><ele>941.0</ele><time>2026-05-02T09:19:06Z</time></trkpt><trkpt lat="45.87358843626104" lon="9.804654063396999"><ele>945.0</ele><time>2026-05-02T09:19:08Z</time></trkpt><trkpt lat="45.87354199969565" lon="9.804508543856079"><ele>949.0</ele><time>2026-05-02T09:19:10Z</time></trkpt><trkpt lat="45.87348831135544" lon="9.804359183300177"><ele>953.0</ele><time>2026-05-02T09:19:12Z</time></trkpt><trkpt lat="45.87344490416803" lon="9.804213945691274"><ele>947.2</ele><time>2026-05-02T09:19:14Z</time></trkpt><trkpt lat="45.873417913658905" lon="9.80407715125234"><ele>941.4</ele><time>2026-05-02T09:19:16Z</time></trkpt><trkpt lat="45.87338792181119" lon="9.803953030861793"><ele>935.6000000000001</ele><time>2026-05-02T09:19:18Z</time></trkpt><trkpt lat="45.8733458597346" lon="9.803841353021742"><ele>929.8000000000001</ele><time>2026-05-02T09:19:20Z</time></trkpt><trkpt lat="45.87330202069412" lon="9.80373319770734"><ele>924.0</ele><time>2026-05-02T09:19:22Z</time></trkpt><trkpt lat="45.873252561399674" lon="9.803624771300228"><ele>924.0</ele><time>2026-05-02T09:19:24Z</time></trkpt><trkpt lat="45.873219114379005" lon="9.80351099379667"><ele>924.0000000000001</ele><time>2026-05-02T09:19:26Z</time></trkpt><trkpt lat="45.873188939986576" lon="9.803389451821523"><ele>924.0000000000001</ele><time>2026-05-02T09:19:28Z</time></trkpt><trkpt lat="45.873172230486475" lon="9.803262671205953"><ele>924.0</ele><time>2026-05-02T09:19:30Z</time></trkpt><trkpt lat="45.87314975113827" lon="9.803130021871866"><ele>924.0</ele><time>2026-05-02T09:19:32Z</time></trkpt><trkpt lat="45.87309855067792" lon="9.803016808173998"><ele>928.3333333333334</ele><time>2026-05-02T09:19:34Z</time></trkpt><trkpt lat="45.87303773449271" lon="9.802935433611191"><ele>932.6666666666667</ele><time>2026-05-02T09:19:36Z</time></trkpt><trkpt lat="45.87297089390481" lon="9.802931282842323"><ele>937.0</ele><time>2026-05-02T09:19:38Z</time></trkpt><trkpt lat="45.872900264533264" lon="9.802996250427224"><ele>941.3333333333334</ele><time>2026-05-02T09:19:41Z</time></trkpt><trkpt lat="45.87282399918145" lon="9.803062841041415"><ele>945.6666666666667</ele><time>2026-05-02T09:19:44Z</time></trkpt><trkpt lat="45.87276968505764" lon="9.803113172746032"><ele>950.0</ele><time>2026-05-02T09:19:46Z</time></trkpt><trkpt lat="45.8726898155359" lon="9.803181388232721"><ele>950.0000000000001</ele><time>2026-05-02T09:19:49Z</time></trkpt><trkpt lat="45.87263413330295" lon="9.803231771304912"><ele>950.0</ele><time>2026-05-02T09:19:51Z</time></trkpt><trkpt lat="45.87260263146758" lon="9.803314177150389"><ele>950.0</ele><time>2026-05-02T09:19:53Z</time></trkpt><trkpt lat="45.872562244191826" lon="9.80341174176715"><ele>950.0</ele><time>2026-05-02T09:19:56Z</time></trkpt><trkpt lat="45.87250513749823" lon="9.803487357864897"><ele>950.0000000000001</ele><time>2026-05-02T09:19:58Z</time></trkpt><trkpt lat="45.87241650273739" lon="9.803537554082075"><ele>950.0</ele><time>2026-05-02T09:20:00Z</time></trkpt><trkpt lat="45.87235098187991" lon="9.803586196594205"><ele>944.0000000000001</ele><time>2026-05-02T09:20:02Z</time></trkpt><trkpt lat="45.87228296981397" lon="9.803640025099977"><ele>938.0</ele><time>2026-05-02T09:20:04Z</time></trkpt><trkpt lat="45.87221325193476" lon="9.803673046054456"><ele>932.0</ele><time>2026-05-02T09:20:06Z</time></trkpt><trkpt lat="45.87212310179363" lon="9.803711875531365"><ele>926.0</ele><time>2026-05-02T09:20:08Z</time></trkpt><trkpt lat="45.872059130868834" lon="9.803689348947126"><ele>920.0000000000001</ele><time>2026-05-02T09:20:10Z</time></trkpt><trkpt lat="45.871985036069766" lon="9.803667733418338"><ele>914.0</ele><time>2026-05-02T09:20:12Z</time></trkpt><trkpt lat="45.87192066599095" lon="9.803659458875986"><ele>914.0000000000001</ele><time>2026-05-02T09:20:14Z</time></trkpt><trkpt lat="45.87185621057111" lon="9.803660810101466"><ele>914.0</ele><time>2026-05-02T09:20:16Z</time></trkpt><trkpt lat="45.8717834101766" lon="9.803659153255637"><ele>914.0</ele><time>2026-05-02T09:20:18Z</time></trkpt><trkpt lat="45.871693094727426" lon="9.803638238883751"><ele>914.0</ele><time>2026-05-02T09:20:21Z</time></trkpt><trkpt lat="45.871624119265924" lon="9.803559697640784"><ele>914.0000000000001</ele><time>2026-05-02T09:20:24Z</time></trkpt><trkpt lat="45.871566875908904" lon="9.803495378383658"><ele>914.0</ele><time>2026-05-02T09:20:27Z</time></trkpt><trkpt lat="45.87149595950177" lon="9.803530058600002"><ele>918.1428571428573</ele><time>2026-05-02T09:20:30Z</time></trkpt><trkpt lat="45.871456575590855" lon="9.80360670292958"><ele>922.2857142857143</ele><time>2026-05-02T09:20:33Z</time></trkpt><trkpt lat="45.8714124676034" lon="9.803692471819138"><ele>926.4285714285716</ele><time>2026-05-02T09:20:36Z</time></trkpt><trkpt lat="45.87134172569839" lon="9.80373416058561"><ele>930.5714285714287</ele><time>2026-05-02T09:20:40Z</time></trkpt><trkpt lat="45.871424232047964" lon="9.803724772020434"><ele>934.7142857142858</ele><time>2026-05-02T09:20:45Z</time></trkpt><trkpt lat="45.87144985704877" lon="9.803635945314333"><ele>938.8571428571429</ele><time>2026-05-02T09:20:48Z</time></trkpt><trkpt lat="45.87137638770583" lon="9.803593334462716"><ele>943.0</ele><time>2026-05-02T09:20:50Z</time></trkpt><trkpt lat="45.87131226345807" lon="9.80358013038231"><ele>943.0</ele><time>2026-05-02T09:20:52Z</time></trkpt><trkpt lat="45.871237572521814" lon="9.803538029794646"><ele>943.0000000000001</ele><time>2026-05-02T09:20:55Z</time></trkpt><trkpt lat="45.87117103834314" lon="9.803544146068967"><ele>943.0</ele><time>2026-05-02T09:20:58Z</time></trkpt><trkpt lat="45.871108306067896" lon="9.803559561192648"><ele>943.0</ele><time>2026-05-02T09:21:01Z</time></trkpt><trkpt lat="45.871043715503674" lon="9.803579869508122"><ele>943.0000000000001</ele><time>2026-05-02T09:21:04Z</time></trkpt><trkpt lat="45.870962297676115" lon="9.803560183145471"><ele>943.0</ele><time>2026-05-02T09:21:07Z</time></trkpt><trkpt lat="45.87094534321241" lon="9.803652777712351"><ele>943.0</ele><time>2026-05-02T09:21:12Z</time></trkpt><trkpt lat="45.87097483439776" lon="9.80373723596999"><ele>943.0</ele><time>2026-05-02T09:21:14Z</time></trkpt><trkpt lat="45.87099827870288" lon="9.803841005442038"><ele>943.0000000000001</ele><time>2026-05-02T09:21:17Z</time></trkpt><trkpt lat="45.87101070057498" lon="9.803950678139103"><ele>943.0</ele><time>2026-05-02T09:21:20Z</time></trkpt><trkpt lat="45.87103228616196" lon="9.803864677316838"><ele>943.0</ele><time>2026-05-02T09:21:54Z</time></trkpt><trkpt lat="45.871076967214215" lon="9.803799367792585"><ele>943.0000000000001</ele><time>2026-05-02T09:22:01Z</time></trkpt><trkpt lat="45.87102798103066" lon="9.803728543851781"><ele>943.0</ele><time>2026-05-02T09:22:27Z</time></trkpt><trkpt lat="45.87100896302092" lon="9.803820543953975"><ele>943.0</ele><time>2026-05-02T09:23:47Z</time></trkpt><trkpt lat="45.87100378251649" lon="9.803915811865"><ele>943.0</ele><time>2026-05-02T09:24:13Z</time></trkpt><trkpt lat="45.871026072574594" lon="9.80400768489042"><ele>943.0000000000001</ele><time>2026-05-02T09:24:19Z</time></trkpt><trkpt lat="45.87105904008506" lon="9.80408814413839"><ele>943.0</ele><time>2026-05-02T09:24:25Z</time></trkpt><trkpt lat="45.871103310227184" lon="9.80416508855138"><ele>943.0</ele><time>2026-05-02T09:24:41Z</time></trkpt><trkpt lat="45.871074319261446" lon="9.804080356643382"><ele>943.0000000000001</ele><time>2026-05-02T09:25:00Z</time></trkpt><trkpt lat="45.87101877535496" lon="9.804014280057407"><ele>943.0</ele><time>2026-05-02T09:25:08Z</time></trkpt><trkpt lat="45.87106675647867" lon="9.80410647624302"><ele>943.0</ele><time>2026-05-02T09:27:15Z</time></trkpt><trkpt lat="45.87113916503973" lon="9.804154032591553"><ele>943.0</ele><time>2026-05-02T09:27:19Z</time></trkpt><trkpt lat="45.871228397212434" lon="9.80413302743993"><ele>943.0000000000001</ele><time>2026-05-02T09:27:23Z</time></trkpt><trkpt lat="45.87129687133784" lon="9.804111048799932"><ele>943.0</ele><time>2026-05-02T09:27:26Z</time></trkpt><trkpt lat="45.87135374674511" lon="9.804059486548162"><ele>943.0</ele><time>2026-05-02T09:27:29Z</time></trkpt><trkpt lat="45.87138308797099" lon="9.803971791098464"><ele>943.0000000000001</ele><time>2026-05-02T09:27:32Z</time></trkpt><trkpt lat="45.87140500081431" lon="9.80387636607495"><ele>943.0</ele><time>2026-05-02T09:27:36Z</time></trkpt><trkpt lat="45.871429269091145" lon="9.803773755132642"><ele>943.0</ele><time>2026-05-02T09:27:39Z</time></trkpt><trkpt lat="45.87147328989128" lon="9.803839407060554"><ele>942.9999999999999</ele><time>2026-05-02T09:29:23Z</time></trkpt><trkpt lat="45.87144495228647" lon="9.803709903917634"><ele>943.0</ele><time>2026-05-02T09:30:21Z</time></trkpt><trkpt lat="45.87147067138737" lon="9.803606968389802"><ele>943.0</ele><time>2026-05-02T09:30:25Z</time></trkpt><trkpt lat="45.87153674801096" lon="9.803536157196685"><ele>943.0</ele><time>2026-05-02T09:30:28Z</time></trkpt><trkpt lat="45.871625332381036" lon="9.803544330938875"><ele>942.9999999999999</ele><time>2026-05-02T09:30:31Z</time></trkpt><trkpt lat="45.87169646276319" lon="9.803590119766774"><ele>943.0</ele><time>2026-05-02T09:30:33Z</time></trkpt><trkpt lat="45.87176425456516" lon="9.803661839942103"><ele>938.1666666666666</ele><time>2026-05-02T09:30:35Z</time></trkpt><trkpt lat="45.87185815889942" lon="9.803666463880626"><ele>933.3333333333333</ele><time>2026-05-02T09:30:37Z</time></trkpt><trkpt lat="45.8719343948707" lon="9.803661150452927"><ele>928.5</ele><time>2026-05-02T09:30:39Z</time></trkpt><trkpt lat="45.87201624269575" lon="9.803641881141234"><ele>923.6666666666667</ele><time>2026-05-02T09:30:42Z</time></trkpt><trkpt lat="45.87209373615416" lon="9.803664833997388"><ele>918.8333333333334</ele><time>2026-05-02T09:30:44Z</time></trkpt><trkpt lat="45.87217617111734" lon="9.803673631797736"><ele>914.0</ele><time>2026-05-02T09:30:46Z</time></trkpt><trkpt lat="45.872264471075034" lon="9.80362430496766"><ele>914.0000000000001</ele><time>2026-05-02T09:30:48Z</time></trkpt><trkpt lat="45.87232923223662" lon="9.803566004676975"><ele>914.0</ele><time>2026-05-02T09:30:50Z</time></trkpt><trkpt lat="45.872408777364605" lon="9.803525395376374"><ele>914.0</ele><time>2026-05-02T09:30:52Z</time></trkpt><trkpt lat="45.8724881874385" lon="9.80348214516012"><ele>914.0</ele><time>2026-05-02T09:30:54Z</time></trkpt><trkpt lat="45.872528918481294" lon="9.803389451631743"><ele>914.0000000000001</ele><time>2026-05-02T09:30:56Z</time></trkpt><trkpt lat="45.8725495977942" lon="9.803291346599837"><ele>914.0</ele><time>2026-05-02T09:30:58Z</time></trkpt><trkpt lat="45.87258915555986" lon="9.803208102056159"><ele>920.0000000000001</ele><time>2026-05-02T09:31:01Z</time></trkpt><trkpt lat="45.87265513183722" lon="9.803181774967701"><ele>926.0</ele><time>2026-05-02T09:31:20Z</time></trkpt><trkpt lat="45.872726450515636" lon="9.803095877432058"><ele>932.0</ele><time>2026-05-02T09:31:23Z</time></trkpt><trkpt lat="45.87280693930221" lon="9.803044935331496"><ele>938.0</ele><time>2026-05-02T09:31:25Z</time></trkpt><trkpt lat="45.87288118437386" lon="9.802978878080717"><ele>944.0000000000001</ele><time>2026-05-02T09:31:27Z</time></trkpt><trkpt lat="45.872948889491546" lon="9.802936288004561"><ele>950.0</ele><time>2026-05-02T09:31:29Z</time></trkpt><trkpt lat="45.87301296199584" lon="9.802924751060553"><ele>950.0000000000001</ele><time>2026-05-02T09:31:32Z</time></trkpt><trkpt lat="45.87309408680958" lon="9.802979406577126"><ele>950.0</ele><time>2026-05-02T09:32:06Z</time></trkpt><trkpt lat="45.87312399849592" lon="9.803093012710208"><ele>950.0</ele><time>2026-05-02T09:32:08Z</time></trkpt><trkpt lat="45.8731415495864" lon="9.80320685379469"><ele>950.0</ele><time>2026-05-02T09:32:09Z</time></trkpt><trkpt lat="45.87314840446339" lon="9.803313701555048"><ele>950.0000000000001</ele><time>2026-05-02T09:32:10Z</time></trkpt><trkpt lat="45.8731484267644" lon="9.803413640342725"><ele>950.0</ele><time>2026-05-02T09:32:11Z</time></trkpt><trkpt lat="45.87315585742635" lon="9.803504022837403"><ele>944.8</ele><time>2026-05-02T09:32:12Z</time></trkpt><trkpt lat="45.87320450209611" lon="9.803649419494748"><ele>939.6</ele><time>2026-05-02T09:32:14Z</time></trkpt><trkpt lat="45.87326020566003" lon="9.803753117900177"><ele>934.4000000000001</ele><time>2026-05-02T09:32:16Z</time></trkpt><trkpt lat="45.87332761347709" lon="9.803841255998261"><ele>929.2</ele><time>2026-05-02T09:32:18Z</time></trkpt><trkpt lat="45.87337788040152" lon="9.80394030707172"><ele>924.0</ele><time>2026-05-02T09:32:20Z</time></trkpt><trkpt lat="45.873423806730806" lon="9.804053485950062"><ele>928.8333333333334</ele><time>2026-05-02T09:32:22Z</time></trkpt><trkpt lat="45.873446437317554" lon="9.80416378698867"><ele>933.6666666666667</ele><time>2026-05-02T09:32:24Z</time></trkpt><trkpt lat="45.873468287120794" lon="9.804270498603463"><ele>938.5</ele><time>2026-05-02T09:32:26Z</time></trkpt><trkpt lat="45.87351202917329" lon="9.804375417703051"><ele>943.3333333333334</ele><time>2026-05-02T09:32:28Z</time></trkpt><trkpt lat="45.87354847665125" lon="9.804514191105069"><ele>948.1666666666667</ele><time>2026-05-02T09:32:30Z</time></trkpt><trkpt lat="45.873598264887505" lon="9.804623365982238"><ele>953.0</ele><time>2026-05-02T09:32:32Z</time></trkpt><trkpt lat="45.873642083539124" lon="9.804740058989667"><ele>953.0000000000001</ele><time>2026-05-02T09:32:34Z</time></trkpt><trkpt lat="45.87369453745709" lon="9.804897177439496"><ele>953.0</ele><time>2026-05-02T09:32:36Z</time></trkpt><trkpt lat="45.8737259154136" lon="9.804980939700885"><ele>953.0</ele><time>2026-05-02T09:32:37Z</time></trkpt><trkpt lat="45.873755412184785" lon="9.805065353500634"><ele>953.0</ele><time>2026-05-02T09:32:38Z</time></trkpt><trkpt lat="45.8737830481627" lon="9.805165820871562"><ele>953.0000000000001</ele><time>2026-05-02T09:32:39Z</time></trkpt><trkpt lat="45.87381065322689" lon="9.805269589404961"><ele>953.0</ele><time>2026-05-02T09:32:40Z</time></trkpt><trkpt lat="45.87384045575374" lon="9.805363221811648"><ele>949.6666666666667</ele><time>2026-05-02T09:32:41Z</time></trkpt><trkpt lat="45.87386410955056" lon="9.805454116210173"><ele>946.3333333333334</ele><time>2026-05-02T09:32:42Z</time></trkpt><trkpt lat="45.873881040446214" lon="9.80555516674662"><ele>943.0</ele><time>2026-05-02T09:32:43Z</time></trkpt><trkpt lat="45.873889289302184" lon="9.805670433864023"><ele>939.6666666666667</ele><time>2026-05-02T09:32:44Z</time></trkpt><trkpt lat="45.87388947124976" lon="9.805788894710743"><ele>936.3333333333334</ele><time>2026-05-02T09:32:45Z</time></trkpt><trkpt lat="45.87388463063648" lon="9.80589581107561"><ele>933.0</ele><time>2026-05-02T09:32:46Z</time></trkpt><trkpt lat="45.8738779557285" lon="9.8060031272601"><ele>929.1666666666666</ele><time>2026-05-02T09:32:47Z</time></trkpt><trkpt lat="45.87386890548834" lon="9.806101319744796"><ele>925.3333333333333</ele><time>2026-05-02T09:32:48Z</time></trkpt><trkpt lat="45.873861196350425" lon="9.806281999649588"><ele>921.5</ele><time>2026-05-02T09:32:50Z</time></trkpt><trkpt lat="45.87388421172722" lon="9.806386887825624"><ele>917.6666666666666</ele><time>2026-05-02T09:32:51Z</time></trkpt><trkpt lat="45.87390818321506" lon="9.806503718021354"><ele>913.8333333333333</ele><time>2026-05-02T09:32:52Z</time></trkpt><trkpt lat="45.873921009806104" lon="9.806605692701273"><ele>910.0</ele><time>2026-05-02T09:32:53Z</time></trkpt><trkpt lat="45.87391736863628" lon="9.8067068099483"><ele>910.0</ele><time>2026-05-02T09:32:54Z</time></trkpt><trkpt lat="45.87390572279539" lon="9.806800690042344"><ele>910.0</ele><time>2026-05-02T09:32:55Z</time></trkpt><trkpt lat="45.87389681007745" lon="9.806891378239936"><ele>910.0</ele><time>2026-05-02T09:32:56Z</time></trkpt><trkpt lat="45.873930104734995" lon="9.807050063713897"><ele>910.0</ele><time>2026-05-02T09:32:58Z</time></trkpt><trkpt lat="45.87403389463723" lon="9.807092562874514"><ele>910.0</ele><time>2026-05-02T09:33:00Z</time></trkpt><trkpt lat="45.87412800856837" lon="9.807006405667657"><ele>910.8</ele><time>2026-05-02T09:33:02Z</time></trkpt><trkpt lat="45.87421876962794" lon="9.806905376897172"><ele>911.6</ele><time>2026-05-02T09:33:04Z</time></trkpt><trkpt lat="45.874309097307325" lon="9.80680519664722"><ele>912.4000000000001</ele><time>2026-05-02T09:33:06Z</time></trkpt><trkpt lat="45.874365709566575" lon="9.806762441662162"><ele>913.2</ele><time>2026-05-02T09:33:07Z</time></trkpt><trkpt lat="45.874427630606746" lon="9.806737817290388"><ele>914.0</ele><time>2026-05-02T09:33:08Z</time></trkpt><trkpt lat="45.87454475759288" lon="9.80666895268402"><ele>914.0</ele><time>2026-05-02T09:33:10Z</time></trkpt><trkpt lat="45.874660608404916" lon="9.806641391092027"><ele>914.0000000000001</ele><time>2026-05-02T09:33:12Z</time></trkpt><trkpt lat="45.8747622111695" lon="9.806675167346379"><ele>914.0000000000001</ele><time>2026-05-02T09:33:14Z</time></trkpt><trkpt lat="45.87484200095689" lon="9.806758935656571"><ele>914.0</ele><time>2026-05-02T09:33:16Z</time></trkpt><trkpt lat="45.874902893947706" lon="9.806849650682375"><ele>914.0</ele><time>2026-05-02T09:33:18Z</time></trkpt><trkpt lat="45.874986090395055" lon="9.806928842540442"><ele>911.6666666666667</ele><time>2026-05-02T09:33:20Z</time></trkpt><trkpt lat="45.875074962630094" lon="9.806983224920293"><ele>909.3333333333334</ele><time>2026-05-02T09:33:22Z</time></trkpt><trkpt lat="45.875168434342726" lon="9.807064699028938"><ele>907.0</ele><time>2026-05-02T09:33:24Z</time></trkpt><trkpt lat="45.875216132594986" lon="9.807127800378453"><ele>904.6666666666667</ele><time>2026-05-02T09:33:25Z</time></trkpt><trkpt lat="45.87526244458249" lon="9.807205661701259"><ele>902.3333333333334</ele><time>2026-05-02T09:33:26Z</time></trkpt><trkpt lat="45.875310947216" lon="9.807292065261617"><ele>900.0</ele><time>2026-05-02T09:33:27Z</time></trkpt><trkpt lat="45.87537033124522" lon="9.807374687476175"><ele>900.0</ele><time>2026-05-02T09:33:28Z</time></trkpt><trkpt lat="45.87544215695814" lon="9.807451779658322"><ele>900.0</ele><time>2026-05-02T09:33:29Z</time></trkpt><trkpt lat="45.87553216503677" lon="9.807507254676363"><ele>900.0</ele><time>2026-05-02T09:33:30Z</time></trkpt><trkpt lat="45.8756163236885" lon="9.807573121764044"><ele>900.0</ele><time>2026-05-02T09:33:31Z</time></trkpt><trkpt lat="45.87570279226258" lon="9.807609610645125"><ele>900.0</ele><time>2026-05-02T09:33:32Z</time></trkpt><trkpt lat="45.87577506751596" lon="9.807663473359455"><ele>897.6666666666666</ele><time>2026-05-02T09:33:33Z</time></trkpt><trkpt lat="45.8758381912882" lon="9.80772575599516"><ele>895.3333333333333</ele><time>2026-05-02T09:33:34Z</time></trkpt><trkpt lat="45.87589260781099" lon="9.807816451226028"><ele>893.0</ele><time>2026-05-02T09:33:35Z</time></trkpt><trkpt lat="45.875933045221046" lon="9.807915080659082"><ele>890.6666666666666</ele><time>2026-05-02T09:33:36Z</time></trkpt><trkpt lat="45.8759573369814" lon="9.808006527250477"><ele>888.3333333333333</ele><time>2026-05-02T09:33:37Z</time></trkpt><trkpt lat="45.87605726507533" lon="9.808073057073987"><ele>886.0</ele><time>2026-05-02T09:33:39Z</time></trkpt><trkpt lat="45.8761109839323" lon="9.808021178900207"><ele>883.1666666666666</ele><time>2026-05-02T09:33:40Z</time></trkpt><trkpt lat="45.8761360052992" lon="9.807924222714975"><ele>880.3333333333333</ele><time>2026-05-02T09:33:41Z</time></trkpt><trkpt lat="45.87614662061608" lon="9.807814552130193"><ele>877.5</ele><time>2026-05-02T09:33:42Z</time></trkpt><trkpt lat="45.87616371169996" lon="9.807708693419256"><ele>874.6666666666667</ele><time>2026-05-02T09:33:43Z</time></trkpt><trkpt lat="45.87617882752529" lon="9.807597003792077"><ele>871.8333333333334</ele><time>2026-05-02T09:33:44Z</time></trkpt><trkpt lat="45.87619893129968" lon="9.807483183962177"><ele>869.0</ele><time>2026-05-02T09:33:45Z</time></trkpt><trkpt lat="45.87621136977147" lon="9.807374055227886"><ele>869.0</ele><time>2026-05-02T09:33:46Z</time></trkpt><trkpt lat="45.87621649400428" lon="9.80726837635545"><ele>869.0000000000001</ele><time>2026-05-02T09:33:47Z</time></trkpt><trkpt lat="45.87622937233575" lon="9.807121529117152"><ele>869.0000000000001</ele><time>2026-05-02T09:33:49Z</time></trkpt><trkpt lat="45.876297820051605" lon="9.80699019268227"><ele>869.0</ele><time>2026-05-02T09:33:51Z</time></trkpt><trkpt lat="45.87638563547925" lon="9.806887152546441"><ele>869.0</ele><time>2026-05-02T09:33:53Z</time></trkpt><trkpt lat="45.876474220788154" lon="9.806765799941276"><ele>866.75</ele><time>2026-05-02T09:33:55Z</time></trkpt><trkpt lat="45.876557540872966" lon="9.806639012378435"><ele>864.5</ele><time>2026-05-02T09:33:57Z</time></trkpt><trkpt lat="45.87665388579167" lon="9.806547139712979"><ele>862.25</ele><time>2026-05-02T09:33:59Z</time></trkpt><trkpt lat="45.876754224182456" lon="9.806459924797108"><ele>860.0</ele><time>2026-05-02T09:34:01Z</time></trkpt><trkpt lat="45.87681442859498" lon="9.80631786636365"><ele>860.0</ele><time>2026-05-02T09:34:03Z</time></trkpt><trkpt lat="45.876813045620416" lon="9.806137624166817"><ele>860.0</ele><time>2026-05-02T09:34:05Z</time></trkpt><trkpt lat="45.876816907916535" lon="9.805964113872438"><ele>860.0</ele><time>2026-05-02T09:34:07Z</time></trkpt><trkpt lat="45.87682028302334" lon="9.805789004037672"><ele>860.0</ele><time>2026-05-02T09:34:09Z</time></trkpt><trkpt lat="45.87682475440791" lon="9.80561650239955"><ele>862.2</ele><time>2026-05-02T09:34:11Z</time></trkpt><trkpt lat="45.876865991515594" lon="9.805469509518947"><ele>864.4</ele><time>2026-05-02T09:34:13Z</time></trkpt><trkpt lat="45.87694220188127" lon="9.80536631255138"><ele>866.5999999999999</ele><time>2026-05-02T09:34:15Z</time></trkpt><trkpt lat="45.87703971821339" lon="9.805283429027792"><ele>868.8</ele><time>2026-05-02T09:34:17Z</time></trkpt><trkpt lat="45.87711898262368" lon="9.805176635009525"><ele>871.0</ele><time>2026-05-02T09:34:19Z</time></trkpt><trkpt lat="45.87718504044727" lon="9.805051764446057"><ele>874.0</ele><time>2026-05-02T09:34:21Z</time></trkpt><trkpt lat="45.87723565162607" lon="9.804907242394618"><ele>877.0</ele><time>2026-05-02T09:34:23Z</time></trkpt><trkpt lat="45.877288117341024" lon="9.804762526616255"><ele>880.0</ele><time>2026-05-02T09:34:25Z</time></trkpt><trkpt lat="45.87734015350878" lon="9.804614032891289"><ele>883.0</ele><time>2026-05-02T09:34:27Z</time></trkpt><trkpt lat="45.877391667973804" lon="9.804464621081067"><ele>886.0</ele><time>2026-05-02T09:34:29Z</time></trkpt><trkpt lat="45.877441260203774" lon="9.804324372455477"><ele>889.0</ele><time>2026-05-02T09:34:31Z</time></trkpt><trkpt lat="45.87748974365949" lon="9.804177094080664"><ele>892.0</ele><time>2026-05-02T09:34:33Z</time></trkpt><trkpt lat="45.87754292988847" lon="9.804038433128023"><ele>895.0</ele><time>2026-05-02T09:34:35Z</time></trkpt><trkpt lat="45.87760245946469" lon="9.8039008208018"><ele>898.0</ele><time>2026-05-02T09:34:37Z</time></trkpt><trkpt lat="45.87767066703097" lon="9.803775190918248"><ele>898.0</ele><time>2026-05-02T09:34:39Z</time></trkpt><trkpt lat="45.87774110734259" lon="9.803652937183594"><ele>898.0</ele><time>2026-05-02T09:34:41Z</time></trkpt><trkpt lat="45.87780917770216" lon="9.803534419682629"><ele>898.0</ele><time>2026-05-02T09:34:43Z</time></trkpt><trkpt lat="45.87788173628087" lon="9.80342727869475"><ele>898.0</ele><time>2026-05-02T09:34:45Z</time></trkpt><trkpt lat="45.87798508625844" lon="9.803391613957904"><ele>898.0</ele><time>2026-05-02T09:34:47Z</time></trkpt><trkpt lat="45.878086712399174" lon="9.80344530465001"><ele>898.0</ele><time>2026-05-02T09:34:49Z</time></trkpt><trkpt lat="45.878165229736524" lon="9.803554431124597"><ele>898.0</ele><time>2026-05-02T09:34:51Z</time></trkpt><trkpt lat="45.878222822189706" lon="9.803688586230166"><ele>898.0</ele><time>2026-05-02T09:34:53Z</time></trkpt><trkpt lat="45.878281803675605" lon="9.803815822037278"><ele>898.0</ele><time>2026-05-02T09:34:55Z</time></trkpt><trkpt lat="45.87836379177092" lon="9.803929081468011"><ele>898.0</ele><time>2026-05-02T09:34:57Z</time></trkpt><trkpt lat="45.878468927474124" lon="9.804000975745447"><ele>906.25</ele><time>2026-05-02T09:34:59Z</time></trkpt><trkpt lat="45.87858831720948" lon="9.804016110543753"><ele>914.5</ele><time>2026-05-02T09:35:01Z</time></trkpt><trkpt lat="45.878701937376945" lon="9.8040274169629"><ele>922.75</ele><time>2026-05-02T09:35:03Z</time></trkpt><trkpt lat="45.878815053743715" lon="9.804050237457158"><ele>931.0</ele><time>2026-05-02T09:35:05Z</time></trkpt><trkpt lat="45.878920247821455" lon="9.804117000700499"><ele>931.0</ele><time>2026-05-02T09:35:07Z</time></trkpt><trkpt lat="45.87898375729761" lon="9.804253341813448"><ele>930.9999999999999</ele><time>2026-05-02T09:35:09Z</time></trkpt><trkpt lat="45.879036048650114" lon="9.804395662861445"><ele>930.9999999999999</ele><time>2026-05-02T09:35:11Z</time></trkpt><trkpt lat="45.87910352392524" lon="9.804520199849287"><ele>931.0</ele><time>2026-05-02T09:35:13Z</time></trkpt><trkpt lat="45.879170120623485" lon="9.804645223622643"><ele>931.0</ele><time>2026-05-02T09:35:15Z</time></trkpt><trkpt lat="45.87923299683484" lon="9.804776944712296"><ele>932.5</ele><time>2026-05-02T09:35:17Z</time></trkpt><trkpt lat="45.87930375828384" lon="9.804901505220327"><ele>934.0</ele><time>2026-05-02T09:35:19Z</time></trkpt><trkpt lat="45.879370550609494" lon="9.805031596220404"><ele>935.5</ele><time>2026-05-02T09:35:21Z</time></trkpt><trkpt lat="45.87943495843959" lon="9.805168433952208"><ele>937.0</ele><time>2026-05-02T09:35:23Z</time></trkpt><trkpt lat="45.879490215725305" lon="9.805305910546322"><ele>937.0</ele><time>2026-05-02T09:35:25Z</time></trkpt><trkpt lat="45.879536435848514" lon="9.805454112063089"><ele>937.0</ele><time>2026-05-02T09:35:27Z</time></trkpt><trkpt lat="45.8795874784601" lon="9.805596763050808"><ele>937.0</ele><time>2026-05-02T09:35:29Z</time></trkpt><trkpt lat="45.87964068202129" lon="9.805734754542955"><ele>937.0</ele><time>2026-05-02T09:35:31Z</time></trkpt><trkpt lat="45.87968934868795" lon="9.805877130650298"><ele>937.0</ele><time>2026-05-02T09:35:33Z</time></trkpt><trkpt lat="45.879748746242846" lon="9.806013942754129"><ele>937.8</ele><time>2026-05-02T09:35:35Z</time></trkpt><trkpt lat="45.87982754909232" lon="9.80612981298129"><ele>938.6</ele><time>2026-05-02T09:35:37Z</time></trkpt><trkpt lat="45.87991319604257" lon="9.806233619715192"><ele>939.3999999999999</ele><time>2026-05-02T09:35:39Z</time></trkpt><trkpt lat="45.87999556549422" lon="9.806338949495892"><ele>940.1999999999999</ele><time>2026-05-02T09:35:41Z</time></trkpt><trkpt lat="45.8800825172988" lon="9.806439589343832"><ele>941.0</ele><time>2026-05-02T09:35:43Z</time></trkpt><trkpt lat="45.880169869323055" lon="9.806541466324616"><ele>941.0</ele><time>2026-05-02T09:35:45Z</time></trkpt><trkpt lat="45.88026409726475" lon="9.806629017383182"><ele>941.0</ele><time>2026-05-02T09:35:47Z</time></trkpt><trkpt lat="45.88036565911355" lon="9.806697693611385"><ele>941.0</ele><time>2026-05-02T09:35:49Z</time></trkpt><trkpt lat="45.88047431863253" lon="9.80674907767291"><ele>941.0</ele><time>2026-05-02T09:35:51Z</time></trkpt><trkpt lat="45.880587013044185" lon="9.806787802105413"><ele>941.0</ele><time>2026-05-02T09:35:53Z</time></trkpt><trkpt lat="45.88069920629995" lon="9.806824196622417"><ele>941.0</ele><time>2026-05-02T09:35:55Z</time></trkpt><trkpt lat="45.88081048122487" lon="9.80685284777025"><ele>941.0</ele><time>2026-05-02T09:35:57Z</time></trkpt><trkpt lat="45.88092351984594" lon="9.806882099653297"><ele>941.0</ele><time>2026-05-02T09:35:59Z</time></trkpt><trkpt lat="45.881035031600625" lon="9.806924948595212"><ele>937.0</ele><time>2026-05-02T09:36:01Z</time></trkpt><trkpt lat="45.88113804018736" lon="9.806994877431803"><ele>933.0</ele><time>2026-05-02T09:36:03Z</time></trkpt><trkpt lat="45.88123449739596" lon="9.807082407238381"><ele>929.0</ele><time>2026-05-02T09:36:05Z</time></trkpt><trkpt lat="45.88133450317597" lon="9.807160968299007"><ele>925.0</ele><time>2026-05-02T09:36:07Z</time></trkpt><trkpt lat="45.8814365862061" lon="9.807227697759368"><ele>925.0</ele><time>2026-05-02T09:36:09Z</time></trkpt><trkpt lat="45.88154651761445" lon="9.807265391824002"><ele>925.0</ele><time>2026-05-02T09:36:11Z</time></trkpt><trkpt lat="45.88165840612196" lon="9.807256438059566"><ele>925.0</ele><time>2026-05-02T09:36:13Z</time></trkpt><trkpt lat="45.881766300040475" lon="9.80719715539267"><ele>925.0</ele><time>2026-05-02T09:36:15Z</time></trkpt><trkpt lat="45.88186519854874" lon="9.80711352601089"><ele>923.25</ele><time>2026-05-02T09:36:17Z</time></trkpt><trkpt lat="45.88195893498856" lon="9.807020217524865"><ele>921.5</ele><time>2026-05-02T09:36:19Z</time></trkpt><trkpt lat="45.88205651734735" lon="9.806933935288084"><ele>919.75</ele><time>2026-05-02T09:36:21Z</time></trkpt><trkpt lat="45.882152318962646" lon="9.806845744532112"><ele>918.0</ele><time>2026-05-02T09:36:23Z</time></trkpt><trkpt lat="45.882244998466675" lon="9.80674837313833"><ele>923.0</ele><time>2026-05-02T09:36:25Z</time></trkpt><trkpt lat="45.88233286777638" lon="9.806651641541261"><ele>928.0</ele><time>2026-05-02T09:36:27Z</time></trkpt><trkpt lat="45.88241612272312" lon="9.806552493372061"><ele>933.0</ele><time>2026-05-02T09:36:29Z</time></trkpt><trkpt lat="45.88249540565744" lon="9.806445502328325"><ele>938.0</ele><time>2026-05-02T09:36:31Z</time></trkpt><trkpt lat="45.88255210815272" lon="9.806308201435014"><ele>943.0</ele><time>2026-05-02T09:36:33Z</time></trkpt><trkpt lat="45.882579122707455" lon="9.806146944055854"><ele>946.5999999999999</ele><time>2026-05-02T09:36:35Z</time></trkpt><trkpt lat="45.88259310590858" lon="9.80598787602228"><ele>950.1999999999999</ele><time>2026-05-02T09:36:37Z</time></trkpt><trkpt lat="45.8826065760812" lon="9.805830314494552"><ele>953.8</ele><time>2026-05-02T09:36:39Z</time></trkpt><trkpt lat="45.88262371359536" lon="9.805677320963836"><ele>957.4</ele><time>2026-05-02T09:36:41Z</time></trkpt><trkpt lat="45.88264687184681" lon="9.805518758117742"><ele>961.0</ele><time>2026-05-02T09:36:43Z</time></trkpt><trkpt lat="45.88272468852762" lon="9.805400465275788"><ele>961.0</ele><time>2026-05-02T09:36:45Z</time></trkpt><trkpt lat="45.88283957956864" lon="9.80539269994275"><ele>961.0</ele><time>2026-05-02T09:36:47Z</time></trkpt><trkpt lat="45.88293818697018" lon="9.805492926333915"><ele>961.0</ele><time>2026-05-02T09:36:49Z</time></trkpt><trkpt lat="45.88302525729561" lon="9.80559154584993"><ele>961.0</ele><time>2026-05-02T09:36:51Z</time></trkpt><trkpt lat="45.88312379049382" lon="9.805664229524844"><ele>961.0</ele><time>2026-05-02T09:36:53Z</time></trkpt><trkpt lat="45.88322267089574" lon="9.805710708363115"><ele>960.9999999999999</ele><time>2026-05-02T09:36:55Z</time></trkpt><trkpt lat="45.8833361311038" lon="9.80572322275367"><ele>960.9999999999999</ele><time>2026-05-02T09:36:57Z</time></trkpt><trkpt lat="45.883444907888446" lon="9.805732399644187"><ele>961.0</ele><time>2026-05-02T09:36:59Z</time></trkpt><trkpt lat="45.88353494824303" lon="9.805816240374234"><ele>961.0</ele><time>2026-05-02T09:37:01Z</time></trkpt><trkpt lat="45.88354595802055" lon="9.805989038723913"><ele>962.4</ele><time>2026-05-02T09:37:03Z</time></trkpt><trkpt lat="45.883553309081904" lon="9.80614331261302"><ele>963.8</ele><time>2026-05-02T09:37:05Z</time></trkpt><trkpt lat="45.88360607698452" lon="9.80628126858248"><ele>965.1999999999999</ele><time>2026-05-02T09:37:07Z</time></trkpt><trkpt lat="45.88369981372416" lon="9.806381475689074"><ele>966.5999999999999</ele><time>2026-05-02T09:37:09Z</time></trkpt><trkpt lat="45.88379474435431" lon="9.806462010223587"><ele>968.0</ele><time>2026-05-02T09:37:11Z</time></trkpt><trkpt lat="45.88389430261619" lon="9.806524535992775"><ele>968.0</ele><time>2026-05-02T09:37:13Z</time></trkpt><trkpt lat="45.884000758656725" lon="9.806563330862316"><ele>968.0</ele><time>2026-05-02T09:37:15Z</time></trkpt><trkpt lat="45.88410965089708" lon="9.80658521243202"><ele>968.0</ele><time>2026-05-02T09:37:17Z</time></trkpt><trkpt lat="45.884217683545366" lon="9.806578673131195"><ele>968.0</ele><time>2026-05-02T09:37:19Z</time></trkpt><trkpt lat="45.88432617087092" lon="9.806561291591557"><ele>968.0</ele><time>2026-05-02T09:37:21Z</time></trkpt><trkpt lat="45.88443552570169" lon="9.806536197807532"><ele>971.2</ele><time>2026-05-02T09:37:23Z</time></trkpt><trkpt lat="45.88454434394202" lon="9.806518873433713"><ele>974.4</ele><time>2026-05-02T09:37:25Z</time></trkpt><trkpt lat="45.884650443987674" lon="9.806515050364405"><ele>977.6000000000001</ele><time>2026-05-02T09:37:27Z</time></trkpt><trkpt lat="45.884754583708904" lon="9.806543643030462"><ele>980.8000000000001</ele><time>2026-05-02T09:37:29Z</time></trkpt><trkpt lat="45.88485420545134" lon="9.806595616799177"><ele>984.0</ele><time>2026-05-02T09:37:31Z</time></trkpt><trkpt lat="45.88494371989283" lon="9.806654752729365"><ele>984.0</ele><time>2026-05-02T09:37:33Z</time></trkpt><trkpt lat="45.88503855273895" lon="9.806703087111618"><ele>984.0000000000001</ele><time>2026-05-02T09:37:35Z</time></trkpt><trkpt lat="45.88513420917901" lon="9.806756132220192"><ele>984.0000000000001</ele><time>2026-05-02T09:37:37Z</time></trkpt><trkpt lat="45.88522690916117" lon="9.806822216231014"><ele>984.0</ele><time>2026-05-02T09:37:39Z</time></trkpt><trkpt lat="45.8852873953114" lon="9.806850317526242"><ele>984.0</ele><time>2026-05-02T09:37:40Z</time></trkpt><trkpt lat="45.885370716747964" lon="9.806930679313714"><ele>981.8000000000001</ele><time>2026-05-02T09:37:42Z</time></trkpt><trkpt lat="45.88545982908223" lon="9.807007667873492"><ele>979.6000000000001</ele><time>2026-05-02T09:37:44Z</time></trkpt><trkpt lat="45.88555019039262" lon="9.807079522362107"><ele>977.4</ele><time>2026-05-02T09:37:46Z</time></trkpt><trkpt lat="45.88564313047442" lon="9.807125795676143"><ele>975.2</ele><time>2026-05-02T09:37:48Z</time></trkpt><trkpt lat="45.88573807531559" lon="9.807124927971806"><ele>973.0</ele><time>2026-05-02T09:37:50Z</time></trkpt><trkpt lat="45.885788756133664" lon="9.807068486346171"><ele>973.0</ele><time>2026-05-02T09:37:51Z</time></trkpt><trkpt lat="45.88580850937797" lon="9.806910545818136"><ele>973.0</ele><time>2026-05-02T09:37:53Z</time></trkpt><trkpt lat="45.88574254548386" lon="9.80678598583545"><ele>973.0</ele><time>2026-05-02T09:37:55Z</time></trkpt><trkpt lat="45.88563436847235" lon="9.806733842905297"><ele>973.0</ele><time>2026-05-02T09:37:57Z</time></trkpt><trkpt lat="45.88553530977977" lon="9.806685627779107"><ele>973.0</ele><time>2026-05-02T09:37:59Z</time></trkpt><trkpt lat="45.88543580208966" lon="9.80662649852759"><ele>975.2</ele><time>2026-05-02T09:38:01Z</time></trkpt><trkpt lat="45.8853493832604" lon="9.806544136899834"><ele>977.4</ele><time>2026-05-02T09:38:03Z</time></trkpt><trkpt lat="45.88528554337306" lon="9.806426952209282"><ele>979.6000000000001</ele><time>2026-05-02T09:38:05Z</time></trkpt><trkpt lat="45.885221511252" lon="9.806305448713312"><ele>981.8000000000001</ele><time>2026-05-02T09:38:07Z</time></trkpt><trkpt lat="45.885154035519484" lon="9.806186031909066"><ele>984.0</ele><time>2026-05-02T09:38:09Z</time></trkpt><trkpt lat="45.885088060934436" lon="9.80606805187256"><ele>987.4000000000001</ele><time>2026-05-02T09:38:11Z</time></trkpt><trkpt lat="45.88501692895095" lon="9.805959685742387"><ele>990.8000000000001</ele><time>2026-05-02T09:38:13Z</time></trkpt><trkpt lat="45.8849525215349" lon="9.80585161037198"><ele>994.1999999999999</ele><time>2026-05-02T09:38:15Z</time></trkpt><trkpt lat="45.88488604025105" lon="9.805741029593698"><ele>997.5999999999999</ele><time>2026-05-02T09:38:17Z</time></trkpt><trkpt lat="45.88482067575028" lon="9.805617983474983"><ele>1001.0</ele><time>2026-05-02T09:38:19Z</time></trkpt><trkpt lat="45.88475652244114" lon="9.805501524515428"><ele>1001.0</ele><time>2026-05-02T09:38:21Z</time></trkpt><trkpt lat="45.88467983579351" lon="9.805403764253965"><ele>1000.9999999999999</ele><time>2026-05-02T09:38:23Z</time></trkpt><trkpt lat="45.88460334659142" lon="9.805306270397198"><ele>1000.9999999999999</ele><time>2026-05-02T09:38:25Z</time></trkpt><trkpt lat="45.884521034740466" lon="9.805221426482822"><ele>1001.0</ele><time>2026-05-02T09:38:27Z</time></trkpt><trkpt lat="45.88442688627421" lon="9.805169485661185"><ele>1001.0</ele><time>2026-05-02T09:38:29Z</time></trkpt><trkpt lat="45.88432764618715" lon="9.805116741815706"><ele>1002.1999999999999</ele><time>2026-05-02T09:38:31Z</time></trkpt><trkpt lat="45.88422988982575" lon="9.805063554907193"><ele>1003.3999999999999</ele><time>2026-05-02T09:38:33Z</time></trkpt><trkpt lat="45.884132510954146" lon="9.804996862060738"><ele>1004.6</ele><time>2026-05-02T09:38:35Z</time></trkpt><trkpt lat="45.88403143970651" lon="9.804949990638281"><ele>1005.8</ele><time>2026-05-02T09:38:37Z</time></trkpt><trkpt lat="45.88393532136854" lon="9.80489917872028"><ele>1007.0</ele><time>2026-05-02T09:38:39Z</time></trkpt><trkpt lat="45.88384237037645" lon="9.804850780697658"><ele>1007.0</ele><time>2026-05-02T09:38:41Z</time></trkpt><trkpt lat="45.88374996753124" lon="9.804797435069478"><ele>1007.0</ele><time>2026-05-02T09:38:43Z</time></trkpt><trkpt lat="45.88365996670905" lon="9.804736597573678"><ele>1007.0</ele><time>2026-05-02T09:38:45Z</time></trkpt><trkpt lat="45.883577220276564" lon="9.804676197872906"><ele>1007.0</ele><time>2026-05-02T09:38:47Z</time></trkpt><trkpt lat="45.8834962785942" lon="9.80459233407318"><ele>1007.0</ele><time>2026-05-02T09:38:49Z</time></trkpt><trkpt lat="45.88342411702892" lon="9.804501857764782"><ele>1009.2</ele><time>2026-05-02T09:38:51Z</time></trkpt><trkpt lat="45.883365605043345" lon="9.804385641207407"><ele>1011.4000000000001</ele><time>2026-05-02T09:38:53Z</time></trkpt><trkpt lat="45.88330701035207" lon="9.804281381733288"><ele>1013.5999999999999</ele><time>2026-05-02T09:38:55Z</time></trkpt><trkpt lat="45.88329405147379" lon="9.804141466020727"><ele>1015.8</ele><time>2026-05-02T09:38:57Z</time></trkpt><trkpt lat="45.88335859862925" lon="9.804024172215463"><ele>1018.0</ele><time>2026-05-02T09:38:59Z</time></trkpt><trkpt lat="45.88346804494102" lon="9.804038477033414"><ele>1019.5999999999999</ele><time>2026-05-02T09:39:01Z</time></trkpt><trkpt lat="45.88353193985281" lon="9.804173556273813"><ele>1021.1999999999999</ele><time>2026-05-02T09:39:03Z</time></trkpt><trkpt lat="45.88357895426968" lon="9.804294080919988"><ele>1022.8</ele><time>2026-05-02T09:39:05Z</time></trkpt><trkpt lat="45.88366014597257" lon="9.804382109640375"><ele>1024.3999999999999</ele><time>2026-05-02T09:39:07Z</time></trkpt><trkpt lat="45.88376418923085" lon="9.804418797027804"><ele>1026.0</ele><time>2026-05-02T09:39:09Z</time></trkpt><trkpt lat="45.88386633016298" lon="9.804431288185334"><ele>1026.0</ele><time>2026-05-02T09:39:11Z</time></trkpt><trkpt lat="45.88396554000412" lon="9.804406856875314"><ele>1026.0</ele><time>2026-05-02T09:39:13Z</time></trkpt><trkpt lat="45.88405602646928" lon="9.804352263345846"><ele>1026.0</ele><time>2026-05-02T09:39:15Z</time></trkpt><trkpt lat="45.88413693999322" lon="9.804266220214057"><ele>1026.0</ele><time>2026-05-02T09:39:17Z</time></trkpt><trkpt lat="45.8841984347016" lon="9.804156336322164"><ele>1026.0</ele><time>2026-05-02T09:39:19Z</time></trkpt><trkpt lat="45.88426041891839" lon="9.804041812530292"><ele>1026.6</ele><time>2026-05-02T09:39:21Z</time></trkpt><trkpt lat="45.8843303750239" lon="9.803932856985353"><ele>1027.1999999999998</ele><time>2026-05-02T09:39:23Z</time></trkpt><trkpt lat="45.88439950051527" lon="9.803838346955528"><ele>1027.8000000000002</ele><time>2026-05-02T09:39:25Z</time></trkpt><trkpt lat="45.88447922430446" lon="9.803749764268698"><ele>1028.4</ele><time>2026-05-02T09:39:27Z</time></trkpt><trkpt lat="45.884572203560936" lon="9.803699437804555"><ele>1029.0</ele><time>2026-05-02T09:39:29Z</time></trkpt><trkpt lat="45.88467318810215" lon="9.803697679307062"><ele>1029.0</ele><time>2026-05-02T09:39:31Z</time></trkpt><trkpt lat="45.88477319513006" lon="9.803719243288"><ele>1029.0</ele><time>2026-05-02T09:39:33Z</time></trkpt><trkpt lat="45.88487183854024" lon="9.803740506864248"><ele>1029.0</ele><time>2026-05-02T09:39:35Z</time></trkpt><trkpt lat="45.88496750085777" lon="9.803759277689123"><ele>1029.0</ele><time>2026-05-02T09:39:37Z</time></trkpt><trkpt lat="45.885060258840184" lon="9.803787959180228"><ele>1029.0</ele><time>2026-05-02T09:39:39Z</time></trkpt><trkpt lat="45.885155843708915" lon="9.803824783227425"><ele>1032.6000000000001</ele><time>2026-05-02T09:39:41Z</time></trkpt><trkpt lat="45.88523794681029" lon="9.803898047100736"><ele>1036.2</ele><time>2026-05-02T09:39:43Z</time></trkpt><trkpt lat="45.88531020429551" lon="9.803993531144638"><ele>1039.8000000000002</ele><time>2026-05-02T09:39:45Z</time></trkpt><trkpt lat="45.88536807730842" lon="9.804105788439237"><ele>1043.4</ele><time>2026-05-02T09:39:46.999Z</time></trkpt><trkpt lat="45.885424976397076" lon="9.80422170154302"><ele>1047.0</ele><time>2026-05-02T09:39:49Z</time></trkpt><trkpt lat="45.88547898089747" lon="9.804340726349047"><ele>1047.0</ele><time>2026-05-02T09:39:51Z</time></trkpt><trkpt lat="45.88553815526034" lon="9.804460373437426"><ele>1047.0</ele><time>2026-05-02T09:39:53Z</time></trkpt><trkpt lat="45.885597148457215" lon="9.804580508084129"><ele>1047.0</ele><time>2026-05-02T09:39:55Z</time></trkpt><trkpt lat="45.88566561665949" lon="9.804686154979292"><ele>1047.0</ele><time>2026-05-02T09:39:57Z</time></trkpt><trkpt lat="45.88572115573321" lon="9.804809926457416"><ele>1047.0</ele><time>2026-05-02T09:39:59Z</time></trkpt><trkpt lat="45.88578563943804" lon="9.804922957708929"><ele>1047.0</ele><time>2026-05-02T09:40:01Z</time></trkpt><trkpt lat="45.88585099867711" lon="9.805034929833473"><ele>1047.0</ele><time>2026-05-02T09:40:03Z</time></trkpt><trkpt lat="45.88592549778862" lon="9.805132598250964"><ele>1047.0</ele><time>2026-05-02T09:40:05Z</time></trkpt><trkpt lat="45.886010716677134" lon="9.805215922776444"><ele>1047.0</ele><time>2026-05-02T09:40:07Z</time></trkpt><trkpt lat="45.88609682107089" lon="9.805299443324321"><ele>1047.0</ele><time>2026-05-02T09:40:09Z</time></trkpt><trkpt lat="45.88619339826964" lon="9.80535350286876"><ele>1045.2</ele><time>2026-05-02T09:40:11Z</time></trkpt><trkpt lat="45.88629134607719" lon="9.805391382600444"><ele>1043.4</ele><time>2026-05-02T09:40:13Z</time></trkpt><trkpt lat="45.88638832492747" lon="9.805399640209709"><ele>1041.6</ele><time>2026-05-02T09:40:15Z</time></trkpt><trkpt lat="45.88648408469089" lon="9.80539690446202"><ele>1039.8</ele><time>2026-05-02T09:40:17Z</time></trkpt><trkpt lat="45.886578134976524" lon="9.805368413786"><ele>1038.0</ele><time>2026-05-02T09:40:19Z</time></trkpt><trkpt lat="45.88667299180492" lon="9.805312105572439"><ele>1038.0</ele><time>2026-05-02T09:40:21Z</time></trkpt><trkpt lat="45.886755904506444" lon="9.805238171014473"><ele>1038.0</ele><time>2026-05-02T09:40:23Z</time></trkpt><trkpt lat="45.88683657984152" lon="9.80515124298838"><ele>1038.0</ele><time>2026-05-02T09:40:25Z</time></trkpt><trkpt lat="45.88691862707708" lon="9.805068003250698"><ele>1038.0</ele><time>2026-05-02T09:40:27Z</time></trkpt><trkpt lat="45.886993015178774" lon="9.804981830528977"><ele>1038.0</ele><time>2026-05-02T09:40:29Z</time></trkpt><trkpt lat="45.88704685241825" lon="9.80487265993945"><ele>1042.4</ele><time>2026-05-02T09:40:31Z</time></trkpt><trkpt lat="45.887094718105345" lon="9.80475533434696"><ele>1046.8</ele><time>2026-05-02T09:40:33Z</time></trkpt><trkpt lat="45.88713359790016" lon="9.804622640809534"><ele>1051.2</ele><time>2026-05-02T09:40:35Z</time></trkpt><trkpt lat="45.887174827781735" lon="9.804499019265892"><ele>1055.6</ele><time>2026-05-02T09:40:37Z</time></trkpt><trkpt lat="45.88721988397836" lon="9.804379482063519"><ele>1060.0</ele><time>2026-05-02T09:40:39Z</time></trkpt><trkpt lat="45.887229331017224" lon="9.804245774983372"><ele>1064.0</ele><time>2026-05-02T09:40:41Z</time></trkpt><trkpt lat="45.88719059762496" lon="9.804116750075178"><ele>1068.0</ele><time>2026-05-02T09:40:43Z</time></trkpt><trkpt lat="45.88709517824769" lon="9.804047220247472"><ele>1072.0</ele><time>2026-05-02T09:40:45Z</time></trkpt><trkpt lat="45.88699395347795" lon="9.804084031843235"><ele>1076.0</ele><time>2026-05-02T09:40:47Z</time></trkpt><trkpt lat="45.88691512546315" lon="9.804186329243006"><ele>1080.0</ele><time>2026-05-02T09:40:49Z</time></trkpt><trkpt lat="45.88683891201897" lon="9.804289118645393"><ele>1078.6</ele><time>2026-05-02T09:40:51Z</time></trkpt><trkpt lat="45.886749655130195" lon="9.804359923539195"><ele>1077.2</ele><time>2026-05-02T09:40:53Z</time></trkpt><trkpt lat="45.886645049605114" lon="9.804369159468596"><ele>1075.8</ele><time>2026-05-02T09:40:55Z</time></trkpt><trkpt lat="45.8865442909979" lon="9.804341540600486"><ele>1074.4</ele><time>2026-05-02T09:40:57Z</time></trkpt><trkpt lat="45.886455171528475" lon="9.80426660412621"><ele>1073.0</ele><time>2026-05-02T09:40:59Z</time></trkpt><trkpt lat="45.886367989865256" lon="9.804193458466944"><ele>1073.0</ele><time>2026-05-02T09:41:01Z</time></trkpt><trkpt lat="45.88628001453301" lon="9.80412521666165"><ele>1073.0</ele><time>2026-05-02T09:41:03Z</time></trkpt><trkpt lat="45.886189693533595" lon="9.804053293580717"><ele>1073.0</ele><time>2026-05-02T09:41:05Z</time></trkpt><trkpt lat="45.88610464042673" lon="9.803967911264358"><ele>1073.0</ele><time>2026-05-02T09:41:07Z</time></trkpt><trkpt lat="45.886028314019704" lon="9.803869401444032"><ele>1073.0</ele><time>2026-05-02T09:41:09Z</time></trkpt><trkpt lat="45.88597810749038" lon="9.8037438119413"><ele>1073.0</ele><time>2026-05-02T09:41:11Z</time></trkpt><trkpt lat="45.885932712804006" lon="9.803618092949417"><ele>1073.0</ele><time>2026-05-02T09:41:13Z</time></trkpt><trkpt lat="45.885900907489166" lon="9.80348356667185"><ele>1073.0</ele><time>2026-05-02T09:41:15Z</time></trkpt><trkpt lat="45.88587240469856" lon="9.803339311390616"><ele>1073.0</ele><time>2026-05-02T09:41:17Z</time></trkpt><trkpt lat="45.88586739088415" lon="9.803248990472627"><ele>1073.0</ele><time>2026-05-02T09:41:18Z</time></trkpt><trkpt lat="45.88581658697681" lon="9.803141454151458"><ele>1075.0</ele><time>2026-05-02T09:41:20Z</time></trkpt><trkpt lat="45.885752673824605" lon="9.803026017942196"><ele>1077.0</ele><time>2026-05-02T09:41:22Z</time></trkpt><trkpt lat="45.88569006712561" lon="9.802919356352033"><ele>1079.0</ele><time>2026-05-02T09:41:24Z</time></trkpt><trkpt lat="45.88561927457634" lon="9.802822154509592"><ele>1081.0</ele><time>2026-05-02T09:41:26Z</time></trkpt><trkpt lat="45.88553893873005" lon="9.802735941769534"><ele>1083.0</ele><time>2026-05-02T09:41:28Z</time></trkpt><trkpt lat="45.88546469982662" lon="9.802646081187094"><ele>1084.6</ele><time>2026-05-02T09:41:30Z</time></trkpt><trkpt lat="45.885384034512505" lon="9.802561804134928"><ele>1086.1999999999998</ele><time>2026-05-02T09:41:32Z</time></trkpt><trkpt lat="45.88529801854615" lon="9.802478477138543"><ele>1087.8</ele><time>2026-05-02T09:41:34Z</time></trkpt><trkpt lat="45.88520835787841" lon="9.802396325595433"><ele>1089.3999999999999</ele><time>2026-05-02T09:41:36Z</time></trkpt><trkpt lat="45.885132410436704" lon="9.80229535293281"><ele>1091.0</ele><time>2026-05-02T09:41:38Z</time></trkpt><trkpt lat="45.885060993573084" lon="9.802200665878978"><ele>1091.0</ele><time>2026-05-02T09:41:40Z</time></trkpt><trkpt lat="45.88499147084857" lon="9.80208786808077"><ele>1091.0</ele><time>2026-05-02T09:41:42Z</time></trkpt><trkpt lat="45.88492442198654" lon="9.801978869916738"><ele>1091.0</ele><time>2026-05-02T09:41:44Z</time></trkpt><trkpt lat="45.884867823561514" lon="9.801862681025737"><ele>1091.0</ele><time>2026-05-02T09:41:46Z</time></trkpt><trkpt lat="45.88480375622493" lon="9.80175888116462"><ele>1091.0</ele><time>2026-05-02T09:41:48Z</time></trkpt><trkpt lat="45.8847280535104" lon="9.801664379905793"><ele>1097.3999999999999</ele><time>2026-05-02T09:41:50Z</time></trkpt><trkpt lat="45.884648665188415" lon="9.801575628166937"><ele>1103.8</ele><time>2026-05-02T09:41:52Z</time></trkpt><trkpt lat="45.88455531173266" lon="9.801519894421423"><ele>1110.1999999999998</ele><time>2026-05-02T09:41:54Z</time></trkpt><trkpt lat="45.88446044538946" lon="9.801477254737593"><ele>1116.6</ele><time>2026-05-02T09:41:56Z</time></trkpt><trkpt lat="45.88436802817088" lon="9.801437488222605"><ele>1123.0</ele><time>2026-05-02T09:41:58Z</time></trkpt><trkpt lat="45.884275770210266" lon="9.801389791687535"><ele>1118.8</ele><time>2026-05-02T09:42:00Z</time></trkpt><trkpt lat="45.88417949143942" lon="9.801376406900024"><ele>1114.6</ele><time>2026-05-02T09:42:02Z</time></trkpt><trkpt lat="45.88407937647445" lon="9.801373400096793"><ele>1110.4</ele><time>2026-05-02T09:42:04Z</time></trkpt><trkpt lat="45.88398544255968" lon="9.801388089577667"><ele>1106.2</ele><time>2026-05-02T09:42:06Z</time></trkpt><trkpt lat="45.883896689682736" lon="9.80142263707186"><ele>1102.0</ele><time>2026-05-02T09:42:08Z</time></trkpt><trkpt lat="45.88380660720307" lon="9.801463917001374"><ele>1102.0</ele><time>2026-05-02T09:42:10Z</time></trkpt><trkpt lat="45.88371663234732" lon="9.801508523438857"><ele>1102.0</ele><time>2026-05-02T09:42:12Z</time></trkpt><trkpt lat="45.88362853398312" lon="9.801558852345721"><ele>1102.0</ele><time>2026-05-02T09:42:14Z</time></trkpt><trkpt lat="45.88353851502054" lon="9.801587802025402"><ele>1102.0</ele><time>2026-05-02T09:42:16Z</time></trkpt><trkpt lat="45.88344177016839" lon="9.801622983444222"><ele>1102.0</ele><time>2026-05-02T09:42:18Z</time></trkpt><trkpt lat="45.8833439699596" lon="9.801611797211557"><ele>1103.6</ele><time>2026-05-02T09:42:20Z</time></trkpt><trkpt lat="45.883264839168035" lon="9.801525954432273"><ele>1105.2</ele><time>2026-05-02T09:42:22Z</time></trkpt><trkpt lat="45.88320942216371" lon="9.80140644350901"><ele>1106.8</ele><time>2026-05-02T09:42:24Z</time></trkpt><trkpt lat="45.883165369721546" lon="9.801279369626357"><ele>1108.4</ele><time>2026-05-02T09:42:26Z</time></trkpt><trkpt lat="45.883112979740325" lon="9.801171308504022"><ele>1110.0</ele><time>2026-05-02T09:42:28Z</time></trkpt><trkpt lat="45.883067232605285" lon="9.801054670433537"><ele>1115.6</ele><time>2026-05-02T09:42:30Z</time></trkpt><trkpt lat="45.88301376219925" lon="9.800936488842575"><ele>1121.2</ele><time>2026-05-02T09:42:32Z</time></trkpt><trkpt lat="45.88297944327154" lon="9.800814838687142"><ele>1126.8</ele><time>2026-05-02T09:42:34Z</time></trkpt><trkpt lat="45.88301240111367" lon="9.800684822805152"><ele>1132.4</ele><time>2026-05-02T09:42:36Z</time></trkpt><trkpt lat="45.8831200900685" lon="9.80064548026924"><ele>1138.0</ele><time>2026-05-02T09:42:38Z</time></trkpt><trkpt lat="45.88317353777138" lon="9.800695440515337"><ele>1138.0</ele><time>2026-05-02T09:42:39Z</time></trkpt><trkpt lat="45.88320309865167" lon="9.800782281408607"><ele>1138.0</ele><time>2026-05-02T09:42:40Z</time></trkpt><trkpt lat="45.88322688696733" lon="9.80086997632013"><ele>1138.0</ele><time>2026-05-02T09:42:41Z</time></trkpt><trkpt lat="45.88323345735907" lon="9.80101724720425"><ele>1138.0</ele><time>2026-05-02T09:42:43Z</time></trkpt><trkpt lat="45.88327903879038" lon="9.80113932643325"><ele>1138.0</ele><time>2026-05-02T09:42:45Z</time></trkpt><trkpt lat="45.88333424623281" lon="9.801250156881355"><ele>1138.0</ele><time>2026-05-02T09:42:47Z</time></trkpt><trkpt lat="45.883416261107385" lon="9.801339591972853"><ele>1138.2</ele><time>2026-05-02T09:42:49Z</time></trkpt><trkpt lat="45.88352040265132" lon="9.801339102139101"><ele>1138.4</ele><time>2026-05-02T09:42:51Z</time></trkpt><trkpt lat="45.88361174723268" lon="9.801242367500922"><ele>1138.6000000000001</ele><time>2026-05-02T09:42:53Z</time></trkpt><trkpt lat="45.8836927606103" lon="9.801155155379593"><ele>1138.8</ele><time>2026-05-02T09:42:55Z</time></trkpt><trkpt lat="45.88377230138548" lon="9.801060068890287"><ele>1139.0</ele><time>2026-05-02T09:42:57Z</time></trkpt><trkpt lat="45.883847872604235" lon="9.800956921953626"><ele>1139.0</ele><time>2026-05-02T09:42:59Z</time></trkpt><trkpt lat="45.88392313990466" lon="9.800854331996801"><ele>1139.0</ele><time>2026-05-02T09:43:01Z</time></trkpt><trkpt lat="45.8839990991773" lon="9.800760738458472"><ele>1139.0</ele><time>2026-05-02T09:43:03Z</time></trkpt><trkpt lat="45.884071979492575" lon="9.800672900795531"><ele>1139.0</ele><time>2026-05-02T09:43:05Z</time></trkpt><trkpt lat="45.88415502018069" lon="9.800601133892302"><ele>1139.0</ele><time>2026-05-02T09:43:07Z</time></trkpt><trkpt lat="45.884253031216645" lon="9.80058585138075"><ele>1141.8</ele><time>2026-05-02T09:43:09Z</time></trkpt><trkpt lat="45.884350329932076" lon="9.800608717772347"><ele>1144.6000000000001</ele><time>2026-05-02T09:43:11Z</time></trkpt><trkpt lat="45.884449753319" lon="9.80062985433611"><ele>1147.4</ele><time>2026-05-02T09:43:13Z</time></trkpt><trkpt lat="45.88455053453303" lon="9.80065835728276"><ele>1150.2</ele><time>2026-05-02T09:43:15Z</time></trkpt><trkpt lat="45.88464671828795" lon="9.80067581311707"><ele>1153.0</ele><time>2026-05-02T09:43:17Z</time></trkpt><trkpt lat="45.88475322916194" lon="9.800684030916207"><ele>1153.0</ele><time>2026-05-02T09:43:19Z</time></trkpt><trkpt lat="45.88485020349671" lon="9.800705249159464"><ele>1153.0</ele><time>2026-05-02T09:43:21Z</time></trkpt><trkpt lat="45.88494441068221" lon="9.800734562491755"><ele>1153.0</ele><time>2026-05-02T09:43:23Z</time></trkpt><trkpt lat="45.885032671822735" lon="9.800793824109238"><ele>1153.0</ele><time>2026-05-02T09:43:25Z</time></trkpt><trkpt lat="45.88511473552702" lon="9.8008832884026"><ele>1153.0</ele><time>2026-05-02T09:43:27Z</time></trkpt><trkpt lat="45.88516893920329" lon="9.80100459621574"><ele>1152.8</ele><time>2026-05-02T09:43:29Z</time></trkpt><trkpt lat="45.88521493743689" lon="9.801140230618701"><ele>1152.6</ele><time>2026-05-02T09:43:31Z</time></trkpt><trkpt lat="45.88526692879801" lon="9.801275539516359"><ele>1152.4</ele><time>2026-05-02T09:43:33Z</time></trkpt><trkpt lat="45.88531735812346" lon="9.801407636983567"><ele>1152.2</ele><time>2026-05-02T09:43:35Z</time></trkpt><trkpt lat="45.88536710315979" lon="9.80153823024556"><ele>1152.0</ele><time>2026-05-02T09:43:37Z</time></trkpt><trkpt lat="45.88542031429475" lon="9.801667504667222"><ele>1152.0</ele><time>2026-05-02T09:43:39Z</time></trkpt><trkpt lat="45.885484397059" lon="9.801780844693477"><ele>1152.0</ele><time>2026-05-02T09:43:41Z</time></trkpt><trkpt lat="45.885588708763805" lon="9.801813754873395"><ele>1152.0</ele><time>2026-05-02T09:43:43Z</time></trkpt><trkpt lat="45.88563785265908" lon="9.801665747364218"><ele>1152.0</ele><time>2026-05-02T09:43:45Z</time></trkpt><trkpt lat="45.885615130748285" lon="9.801577694353389"><ele>1152.0</ele><time>2026-05-02T09:43:46Z</time></trkpt><trkpt lat="45.885546510653036" lon="9.801436486675511"><ele>1152.0</ele><time>2026-05-02T09:43:48Z</time></trkpt><trkpt lat="45.88547620007922" lon="9.801310487991717"><ele>1152.0</ele><time>2026-05-02T09:43:50Z</time></trkpt><trkpt lat="45.885431877445335" lon="9.801166633431034"><ele>1152.0</ele><time>2026-05-02T09:43:52Z</time></trkpt><trkpt lat="45.885395388573905" lon="9.801020395636671"><ele>1152.0</ele><time>2026-05-02T09:43:54Z</time></trkpt><trkpt lat="45.885358182938205" lon="9.80087132099264"><ele>1152.0</ele><time>2026-05-02T09:43:56Z</time></trkpt><trkpt lat="45.885327570535836" lon="9.800722672764792"><ele>1152.2</ele><time>2026-05-02T09:43:57.999Z</time></trkpt><trkpt lat="45.88527008123427" lon="9.800588805368593"><ele>1152.4</ele><time>2026-05-02T09:43:59.999Z</time></trkpt><trkpt lat="45.885173940295005" lon="9.800495592806834"><ele>1152.6</ele><time>2026-05-02T09:44:02Z</time></trkpt><trkpt lat="45.88507260492015" lon="9.800431048389227"><ele>1152.8</ele><time>2026-05-02T09:44:04Z</time></trkpt><trkpt lat="45.88498276480884" lon="9.800342580778368"><ele>1153.0</ele><time>2026-05-02T09:44:06Z</time></trkpt><trkpt lat="45.88490265856867" lon="9.800234163950673"><ele>1160.6</ele><time>2026-05-02T09:44:08Z</time></trkpt><trkpt lat="45.88482189833698" lon="9.800128527915408"><ele>1168.1999999999998</ele><time>2026-05-02T09:44:10Z</time></trkpt><trkpt lat="45.88472929467272" lon="9.800044496483792"><ele>1175.8</ele><time>2026-05-02T09:44:12Z</time></trkpt><trkpt lat="45.88462213420653" lon="9.800005115983131"><ele>1183.3999999999999</ele><time>2026-05-02T09:44:14Z</time></trkpt><trkpt lat="45.88450781727398" lon="9.800017691488556"><ele>1191.0</ele><time>2026-05-02T09:44:16Z</time></trkpt><trkpt lat="45.88439632548721" lon="9.80006035721007"><ele>1191.0</ele><time>2026-05-02T09:44:18Z</time></trkpt><trkpt lat="45.88428524296927" lon="9.800086777071622"><ele>1191.0</ele><time>2026-05-02T09:44:20Z</time></trkpt><trkpt lat="45.88417332674582" lon="9.800098121097198"><ele>1191.0</ele><time>2026-05-02T09:44:22Z</time></trkpt><trkpt lat="45.88406326439885" lon="9.800113231086296"><ele>1191.0</ele><time>2026-05-02T09:44:24Z</time></trkpt><trkpt lat="45.88396086025368" lon="9.800073265629285"><ele>1191.0</ele><time>2026-05-02T09:44:26Z</time></trkpt><trkpt lat="45.88388604244579" lon="9.799961371269854"><ele>1187.3999999999999</ele><time>2026-05-02T09:44:28Z</time></trkpt><trkpt lat="45.883867698129315" lon="9.799799458153267"><ele>1183.8</ele><time>2026-05-02T09:44:30Z</time></trkpt><trkpt lat="45.88387684713979" lon="9.799641468997214"><ele>1180.1999999999998</ele><time>2026-05-02T09:44:32Z</time></trkpt><trkpt lat="45.8838445408818" lon="9.79948526934882"><ele>1176.6</ele><time>2026-05-02T09:44:34Z</time></trkpt><trkpt lat="45.88375545301849" lon="9.799389777438755"><ele>1173.0</ele><time>2026-05-02T09:44:36Z</time></trkpt><trkpt lat="45.88363811130888" lon="9.799383909268789"><ele>1173.0</ele><time>2026-05-02T09:44:38Z</time></trkpt><trkpt lat="45.88352617082415" lon="9.799405128245672"><ele>1173.0</ele><time>2026-05-02T09:44:40Z</time></trkpt><trkpt lat="45.883414336968926" lon="9.79940242846844"><ele>1173.0</ele><time>2026-05-02T09:44:42Z</time></trkpt><trkpt lat="45.883317594592015" lon="9.79932694645188"><ele>1173.0</ele><time>2026-05-02T09:44:44Z</time></trkpt><trkpt lat="45.883285738176944" lon="9.799165103029523"><ele>1173.5</ele><time>2026-05-02T09:44:46Z</time></trkpt><trkpt lat="45.88327965334748" lon="9.799002435980528"><ele>1174.0</ele><time>2026-05-02T09:44:48Z</time></trkpt><trkpt lat="45.88327050633183" lon="9.798829158020517"><ele>1174.5</ele><time>2026-05-02T09:44:50Z</time></trkpt><trkpt lat="45.88325251124623" lon="9.798680341732457"><ele>1175.0</ele><time>2026-05-02T09:44:52Z</time></trkpt><trkpt lat="45.88322649522122" lon="9.798516822488697"><ele>1177.8</ele><time>2026-05-02T09:44:54Z</time></trkpt><trkpt lat="45.8832002659632" lon="9.798361394406637"><ele>1180.6</ele><time>2026-05-02T09:44:56Z</time></trkpt><trkpt lat="45.883163534846005" lon="9.798207734424572"><ele>1183.4</ele><time>2026-05-02T09:44:58Z</time></trkpt><trkpt lat="45.88312190750562" lon="9.798062837972758"><ele>1186.2</ele><time>2026-05-02T09:45:00Z</time></trkpt><trkpt lat="45.883086569524274" lon="9.797921176600505"><ele>1189.0</ele><time>2026-05-02T09:45:02Z</time></trkpt><trkpt lat="45.883043396223215" lon="9.79777136921854"><ele>1192.8</ele><time>2026-05-02T09:45:04Z</time></trkpt><trkpt lat="45.88300220137066" lon="9.797624792034174"><ele>1196.6000000000001</ele><time>2026-05-02T09:45:06Z</time></trkpt><trkpt lat="45.88296912328154" lon="9.797476246767747"><ele>1200.4</ele><time>2026-05-02T09:45:08Z</time></trkpt><trkpt lat="45.882930614829384" lon="9.79732703807153"><ele>1204.2</ele><time>2026-05-02T09:45:10Z</time></trkpt><trkpt lat="45.88290152575861" lon="9.797180431052054"><ele>1208.0</ele><time>2026-05-02T09:45:12Z</time></trkpt><trkpt lat="45.88289410371582" lon="9.797026243222431"><ele>1208.0</ele><time>2026-05-02T09:45:14Z</time></trkpt><trkpt lat="45.88290238554738" lon="9.796871259639055"><ele>1208.0</ele><time>2026-05-02T09:45:16Z</time></trkpt><trkpt lat="45.88289577004449" lon="9.7967227000949"><ele>1208.0</ele><time>2026-05-02T09:45:18Z</time></trkpt><trkpt lat="45.88285270137891" lon="9.796583107810454"><ele>1208.0</ele><time>2026-05-02T09:45:20Z</time></trkpt><trkpt lat="45.882769680422484" lon="9.796487468308326"><ele>1208.0</ele><time>2026-05-02T09:45:22Z</time></trkpt><trkpt lat="45.882664114797436" lon="9.796432054465543"><ele>1204.0</ele><time>2026-05-02T09:45:24Z</time></trkpt><trkpt lat="45.8825586484164" lon="9.796390076855063"><ele>1200.0</ele><time>2026-05-02T09:45:26Z</time></trkpt><trkpt lat="45.882459296364495" lon="9.79632713466282"><ele>1196.0</ele><time>2026-05-02T09:45:28Z</time></trkpt><trkpt lat="45.88236208036568" lon="9.796259074930566"><ele>1192.0</ele><time>2026-05-02T09:45:30Z</time></trkpt><trkpt lat="45.88226432254126" lon="9.796196168388981"><ele>1188.0</ele><time>2026-05-02T09:45:32Z</time></trkpt><trkpt lat="45.88217164245684" lon="9.796124747327937"><ele>1188.0</ele><time>2026-05-02T09:45:34Z</time></trkpt><trkpt lat="45.8820715452263" lon="9.796064102520774"><ele>1188.0</ele><time>2026-05-02T09:45:36Z</time></trkpt><trkpt lat="45.881974957495764" lon="9.79600942790561"><ele>1188.0</ele><time>2026-05-02T09:45:38Z</time></trkpt><trkpt lat="45.88188068822359" lon="9.795948640658896"><ele>1188.0</ele><time>2026-05-02T09:45:40Z</time></trkpt><trkpt lat="45.88178601498954" lon="9.79590495407959"><ele>1188.0</ele><time>2026-05-02T09:45:42Z</time></trkpt><trkpt lat="45.88168699322117" lon="9.795886869634264"><ele>1190.4</ele><time>2026-05-02T09:45:44Z</time></trkpt><trkpt lat="45.8815882471517" lon="9.795855308666878"><ele>1192.8</ele><time>2026-05-02T09:45:46Z</time></trkpt><trkpt lat="45.881534550479856" lon="9.795724373299029"><ele>1195.2</ele><time>2026-05-02T09:45:48Z</time></trkpt><trkpt lat="45.88154146473035" lon="9.795570778455764"><ele>1197.6</ele><time>2026-05-02T09:45:50Z</time></trkpt><trkpt lat="45.881622138895494" lon="9.795461877133842"><ele>1200.0</ele><time>2026-05-02T09:45:52Z</time></trkpt><trkpt lat="45.8817249749665" lon="9.795439946355016"><ele>1202.2</ele><time>2026-05-02T09:45:54Z</time></trkpt><trkpt lat="45.8818208991091" lon="9.795514528238535"><ele>1204.4</ele><time>2026-05-02T09:45:56Z</time></trkpt><trkpt lat="45.88190148052016" lon="9.795622358023577"><ele>1206.6</ele><time>2026-05-02T09:45:58Z</time></trkpt><trkpt lat="45.88198879519004" lon="9.795725793312819"><ele>1208.8</ele><time>2026-05-02T09:46:00Z</time></trkpt><trkpt lat="45.88209292297296" lon="9.795793381272984"><ele>1211.0</ele><time>2026-05-02T09:46:02Z</time></trkpt><trkpt lat="45.882199988433946" lon="9.795846842393347"><ele>1211.0</ele><time>2026-05-02T09:46:04Z</time></trkpt><trkpt lat="45.88230756578033" lon="9.795897409604187"><ele>1211.0</ele><time>2026-05-02T09:46:06Z</time></trkpt><trkpt lat="45.88241624669601" lon="9.795942944339387"><ele>1211.0</ele><time>2026-05-02T09:46:08Z</time></trkpt><trkpt lat="45.88252352037101" lon="9.7959694078593"><ele>1211.0</ele><time>2026-05-02T09:46:10Z</time></trkpt><trkpt lat="45.88263398797318" lon="9.795958738743877"><ele>1211.0</ele><time>2026-05-02T09:46:12Z</time></trkpt><trkpt lat="45.88274385812591" lon="9.795924443266214"><ele>1212.0</ele><time>2026-05-02T09:46:14Z</time></trkpt><trkpt lat="45.88285110379061" lon="9.79588442570042"><ele>1213.0</ele><time>2026-05-02T09:46:16Z</time></trkpt><trkpt lat="45.88295698131907" lon="9.795851524535276"><ele>1214.0</ele><time>2026-05-02T09:46:18Z</time></trkpt><trkpt lat="45.8830643764431" lon="9.795872569350509"><ele>1215.0</ele><time>2026-05-02T09:46:20Z</time></trkpt><trkpt lat="45.88315851337048" lon="9.795948149919957"><ele>1216.0</ele><time>2026-05-02T09:46:22Z</time></trkpt><trkpt lat="45.88324066337181" lon="9.796054832765916"><ele>1216.0</ele><time>2026-05-02T09:46:24Z</time></trkpt><trkpt lat="45.883323471111936" lon="9.796166752988265"><ele>1216.0</ele><time>2026-05-02T09:46:26Z</time></trkpt><trkpt lat="45.883405935534725" lon="9.796273992904755"><ele>1216.0</ele><time>2026-05-02T09:46:28Z</time></trkpt><trkpt lat="45.88348779264002" lon="9.796388469014206"><ele>1216.0</ele><time>2026-05-02T09:46:30Z</time></trkpt><trkpt lat="45.88355843330462" lon="9.79650835516994"><ele>1216.0</ele><time>2026-05-02T09:46:32Z</time></trkpt><trkpt lat="45.88360756922153" lon="9.796649544029444"><ele>1220.8</ele><time>2026-05-02T09:46:34Z</time></trkpt><trkpt lat="45.883615090496605" lon="9.796803233209879"><ele>1225.6</ele><time>2026-05-02T09:46:36Z</time></trkpt><trkpt lat="45.883603414283485" lon="9.796957386126616"><ele>1230.4</ele><time>2026-05-02T09:46:38Z</time></trkpt><trkpt lat="45.88361398313203" lon="9.797113592249223"><ele>1235.2</ele><time>2026-05-02T09:46:40Z</time></trkpt><trkpt lat="45.88364518315106" lon="9.797264016390882"><ele>1240.0</ele><time>2026-05-02T09:46:42Z</time></trkpt><trkpt lat="45.88370237029393" lon="9.79740059293375"><ele>1240.0</ele><time>2026-05-02T09:46:44Z</time></trkpt><trkpt lat="45.88376278172613" lon="9.797529387849401"><ele>1240.0</ele><time>2026-05-02T09:46:46Z</time></trkpt><trkpt lat="45.88383685213868" lon="9.797648171565342"><ele>1240.0</ele><time>2026-05-02T09:46:48Z</time></trkpt><trkpt lat="45.883918206831225" lon="9.797753655937772"><ele>1240.0</ele><time>2026-05-02T09:46:50Z</time></trkpt><trkpt lat="45.884018704886955" lon="9.797827349232884"><ele>1240.0</ele><time>2026-05-02T09:46:52Z</time></trkpt><trkpt lat="45.884127864731646" lon="9.797844499133124"><ele>1239.75</ele><time>2026-05-02T09:46:54Z</time></trkpt><trkpt lat="45.884244043349206" lon="9.797821280866453"><ele>1239.5</ele><time>2026-05-02T09:46:56Z</time></trkpt><trkpt lat="45.88435933600601" lon="9.797800823586424"><ele>1239.25</ele><time>2026-05-02T09:46:58Z</time></trkpt><trkpt lat="45.884474502696364" lon="9.797782130650011"><ele>1239.0</ele><time>2026-05-02T09:47:00Z</time></trkpt><trkpt lat="45.884588487724024" lon="9.797758604363645"><ele>1239.0</ele><time>2026-05-02T09:47:02Z</time></trkpt><trkpt lat="45.88470625057235" lon="9.797724031725446"><ele>1239.0</ele><time>2026-05-02T09:47:04Z</time></trkpt><trkpt lat="45.88482426686516" lon="9.797707326485227"><ele>1239.0</ele><time>2026-05-02T09:47:06Z</time></trkpt><trkpt lat="45.884934724821235" lon="9.797754421320622"><ele>1239.0</ele><time>2026-05-02T09:47:08Z</time></trkpt><trkpt lat="45.88501624279754" lon="9.797867952116034"><ele>1239.0</ele><time>2026-05-02T09:47:10Z</time></trkpt><trkpt lat="45.88505760232398" lon="9.798023580920988"><ele>1239.0</ele><time>2026-05-02T09:47:12Z</time></trkpt><trkpt lat="45.88508730175731" lon="9.798186436511646"><ele>1239.0</ele><time>2026-05-02T09:47:14Z</time></trkpt><trkpt lat="45.88513412163106" lon="9.798337888885962"><ele>1239.0</ele><time>2026-05-02T09:47:16Z</time></trkpt><trkpt lat="45.885233132181554" lon="9.79842972284375"><ele>1240.75</ele><time>2026-05-02T09:47:18Z</time></trkpt><trkpt lat="45.88535579727316" lon="9.798426096560462"><ele>1242.5</ele><time>2026-05-02T09:47:20Z</time></trkpt><trkpt lat="45.88547395450464" lon="9.798388450232322"><ele>1244.25</ele><time>2026-05-02T09:47:22Z</time></trkpt><trkpt lat="45.885589172191004" lon="9.798364607109445"><ele>1246.0</ele><time>2026-05-02T09:47:24Z</time></trkpt><trkpt lat="45.88570289252663" lon="9.798323448298396"><ele>1246.0</ele><time>2026-05-02T09:47:26Z</time></trkpt><trkpt lat="45.885807691116646" lon="9.798288349132577"><ele>1246.0</ele><time>2026-05-02T09:47:28Z</time></trkpt><trkpt lat="45.885910325595326" lon="9.798263216779139"><ele>1246.0</ele><time>2026-05-02T09:47:30Z</time></trkpt><trkpt lat="45.88601001805215" lon="9.798227521838626"><ele>1246.0</ele><time>2026-05-02T09:47:32Z</time></trkpt><trkpt lat="45.88611017887219" lon="9.79819736619275"><ele>1246.0</ele><time>2026-05-02T09:47:34Z</time></trkpt><trkpt lat="45.886210691194854" lon="9.79817187468865"><ele>1247.6</ele><time>2026-05-02T09:47:36Z</time></trkpt><trkpt lat="45.88630976771904" lon="9.798138540713152"><ele>1249.1999999999998</ele><time>2026-05-02T09:47:38Z</time></trkpt><trkpt lat="45.88640693537397" lon="9.798108757809503"><ele>1250.8000000000002</ele><time>2026-05-02T09:47:40Z</time></trkpt><trkpt lat="45.8865037185752" lon="9.798075836779017"><ele>1252.4</ele><time>2026-05-02T09:47:42Z</time></trkpt><trkpt lat="45.88659916553935" lon="9.798051761073713"><ele>1254.0</ele><time>2026-05-02T09:47:44Z</time></trkpt><trkpt lat="45.88668666289593" lon="9.79801820421988"><ele>1256.0</ele><time>2026-05-02T09:47:46Z</time></trkpt><trkpt lat="45.886771117411065" lon="9.797993893578706"><ele>1258.0</ele><time>2026-05-02T09:47:48Z</time></trkpt><trkpt lat="45.88683649991634" lon="9.797973864019141"><ele>1260.0</ele><time>2026-05-02T09:47:50Z</time></trkpt><trkpt lat="45.88689578392179" lon="9.797940950592942"><ele>1262.0</ele><time>2026-05-02T09:47:52Z</time></trkpt><trkpt lat="45.88696095897697" lon="9.797916642732165"><ele>1264.0</ele><time>2026-05-02T09:47:54Z</time></trkpt><trkpt lat="45.887035805356504" lon="9.797862030399367"><ele>1266.0</ele><time>2026-05-02T09:47:57Z</time></trkpt><trkpt lat="45.88709056425791" lon="9.79779524369937"><ele>1268.0</ele><time>2026-05-02T09:48:01Z</time></trkpt><trkpt lat="45.88716785795597" lon="9.797817503280829"><ele>1268.0</ele><time>2026-05-02T09:48:05Z</time></trkpt><trkpt lat="45.88723478311884" lon="9.797873061546094"><ele>1268.0</ele><time>2026-05-02T09:48:08Z</time></trkpt><trkpt lat="45.88730605385821" lon="9.79783951195023"><ele>1268.0</ele><time>2026-05-02T09:48:12Z</time></trkpt><trkpt lat="45.88734634885363" lon="9.79775004034984"><ele>1268.0</ele><time>2026-05-02T09:48:15Z</time></trkpt><trkpt lat="45.887406588760385" lon="9.797715872253146"><ele>1268.0</ele><time>2026-05-02T09:48:19Z</time></trkpt><trkpt lat="45.887377505620854" lon="9.797798740605433"><ele>1268.0</ele><time>2026-05-02T09:48:22Z</time></trkpt><trkpt lat="45.88730659991868" lon="9.797773173627911"><ele>1268.0</ele><time>2026-05-02T09:48:25Z</time></trkpt><trkpt lat="45.88727639867806" lon="9.797855206896006"><ele>1268.0</ele><time>2026-05-02T09:48:27Z</time></trkpt><trkpt lat="45.88720803356091" lon="9.797858361336614"><ele>1268.0</ele><time>2026-05-02T09:48:30Z</time></trkpt><trkpt lat="45.887158222489674" lon="9.797784355378962"><ele>1268.0</ele><time>2026-05-02T09:48:34Z</time></trkpt><trkpt lat="45.887162323836634" lon="9.79769262599018"><ele>1268.0</ele><time>2026-05-02T09:48:39Z</time></trkpt><trkpt lat="45.887204931118276" lon="9.797619203432797"><ele>1268.0</ele><time>2026-05-02T09:48:43Z</time></trkpt><trkpt lat="45.88717022062329" lon="9.797525882628264"><ele>1268.0</ele><time>2026-05-02T09:49:05Z</time></trkpt><trkpt lat="45.88711889032506" lon="9.797613099334106"><ele>1268.0</ele><time>2026-05-02T09:49:07Z</time></trkpt><trkpt lat="45.88708978755236" lon="9.797717031811308"><ele>1268.0</ele><time>2026-05-02T09:49:10Z</time></trkpt><trkpt lat="45.88706429327188" lon="9.79780021965022"><ele>1268.0</ele><time>2026-05-02T09:49:13Z</time></trkpt><trkpt lat="45.887048234708814" lon="9.797888731873519"><ele>1268.0</ele><time>2026-05-02T09:49:17Z</time></trkpt><trkpt lat="45.88698412016633" lon="9.797902039361254"><ele>1268.0</ele><time>2026-05-02T09:49:37Z</time></trkpt><trkpt lat="45.88704957994163" lon="9.79787285915017"><ele>1268.0</ele><time>2026-05-02T09:50:18Z</time></trkpt><trkpt lat="45.88707659376155" lon="9.797791068431893"><ele>1268.0</ele><time>2026-05-02T09:50:21Z</time></trkpt><trkpt lat="45.88701931904803" lon="9.797727282692366"><ele>1268.0</ele><time>2026-05-02T09:50:24Z</time></trkpt><trkpt lat="45.88708698447587" lon="9.797687610764017"><ele>1266.6666666666667</ele><time>2026-05-02T09:50:38Z</time></trkpt><trkpt lat="45.88713101115756" lon="9.797588741268388"><ele>1265.3333333333335</ele><time>2026-05-02T09:50:42Z</time></trkpt><trkpt lat="45.88717308431705" lon="9.797483414755462"><ele>1264.0</ele><time>2026-05-02T09:50:45Z</time></trkpt><trkpt lat="45.88718824872122" lon="9.79737037697676"><ele>1262.6666666666667</ele><time>2026-05-02T09:50:47Z</time></trkpt><trkpt lat="45.887205853746" lon="9.797232766579492"><ele>1261.3333333333333</ele><time>2026-05-02T09:50:49Z</time></trkpt><trkpt lat="45.88721988083528" lon="9.797089526183727"><ele>1260.0</ele><time>2026-05-02T09:50:51Z</time></trkpt><trkpt lat="45.88723199636253" lon="9.79698520337077"><ele>1260.0</ele><time>2026-05-02T09:50:53Z</time></trkpt><trkpt lat="45.88721615872365" lon="9.796868740206685"><ele>1260.0</ele><time>2026-05-02T09:50:56Z</time></trkpt><trkpt lat="45.88717675160173" lon="9.796791046588181"><ele>1260.0</ele><time>2026-05-02T09:50:58Z</time></trkpt><trkpt lat="45.887132566929104" lon="9.796711250643034"><ele>1260.0</ele><time>2026-05-02T09:51:01Z</time></trkpt><trkpt lat="45.887069252873545" lon="9.796688607111152"><ele>1260.0</ele><time>2026-05-02T09:51:06Z</time></trkpt><trkpt lat="45.887096994454375" lon="9.796860478651551"><ele>1260.0</ele><time>2026-05-02T09:51:27.3Z</time></trkpt><trkpt lat="45.887174499965774" lon="9.796876508718997"><ele>1260.0</ele><time>2026-05-02T09:51:35Z</time></trkpt><trkpt lat="45.887259956312015" lon="9.796877405129793"><ele>1260.0</ele><time>2026-05-02T09:51:52Z</time></trkpt><trkpt lat="45.88723500559549" lon="9.796771703784778"><ele>1260.0</ele><time>2026-05-02T09:51:56Z</time></trkpt><trkpt lat="45.887200309054414" lon="9.79669289177894"><ele>1260.0</ele><time>2026-05-02T09:51:58Z</time></trkpt><trkpt lat="45.8873009649718" lon="9.796679593848623"><ele>1260.0</ele><time>2026-05-02T09:52:11Z</time></trkpt><trkpt lat="45.88726772430549" lon="9.796762938356984"><ele>1260.0</ele><time>2026-05-02T09:52:33Z</time></trkpt><trkpt lat="45.88728519403238" lon="9.796882886201768"><ele>1260.0</ele><time>2026-05-02T09:52:36Z</time></trkpt><trkpt lat="45.887273068701795" lon="9.796977199921514"><ele>1260.0</ele><time>2026-05-02T09:52:38Z</time></trkpt><trkpt lat="45.88724398159876" lon="9.797072639124464"><ele>1260.0</ele><time>2026-05-02T09:52:40Z</time></trkpt><trkpt lat="45.887236254346284" lon="9.797174492533529"><ele>1260.0</ele><time>2026-05-02T09:52:42Z</time></trkpt><trkpt lat="45.887229032507804" lon="9.797273242948032"><ele>1260.0</ele><time>2026-05-02T09:52:44Z</time></trkpt><trkpt lat="45.88721755275179" lon="9.797369702141493"><ele>1260.0</ele><time>2026-05-02T09:52:46Z</time></trkpt><trkpt lat="45.8871948615842" lon="9.79746614599067"><ele>1260.0</ele><time>2026-05-02T09:52:48Z</time></trkpt><trkpt lat="45.88717104191033" lon="9.797558535830577"><ele>1260.0</ele><time>2026-05-02T09:52:50Z</time></trkpt><trkpt lat="45.88713144511645" lon="9.797661288444178"><ele>1260.0</ele><time>2026-05-02T09:52:53Z</time></trkpt><trkpt lat="45.88703985400292" lon="9.797669498507506"><ele>1260.0</ele><time>2026-05-02T09:52:56Z</time></trkpt><trkpt lat="45.887003988025654" lon="9.79757639810331"><ele>1260.0</ele><time>2026-05-02T09:52:58Z</time></trkpt><trkpt lat="45.886965949895824" lon="9.797499661136381"><ele>1260.0</ele><time>2026-05-02T09:53:00Z</time></trkpt><trkpt lat="45.88690690722526" lon="9.79741052804181"><ele>1260.0</ele><time>2026-05-02T09:53:03Z</time></trkpt><trkpt lat="45.88684113582251" lon="9.79737118655355"><ele>1260.0</ele><time>2026-05-02T09:53:06Z</time></trkpt><trkpt lat="45.88677795259797" lon="9.79738972551344"><ele>1260.0</ele><time>2026-05-02T09:53:10Z</time></trkpt><trkpt lat="45.886736619677784" lon="9.797475990416958"><ele>1260.0</ele><time>2026-05-02T09:53:14Z</time></trkpt><trkpt lat="45.88671473783476" lon="9.797575431660455"><ele>1260.0</ele><time>2026-05-02T09:53:18Z</time></trkpt><trkpt lat="45.886699772448544" lon="9.797668730453333"><ele>1260.0</ele><time>2026-05-02T09:53:23Z</time></trkpt><trkpt lat="45.88676580669665" lon="9.79766142340196"><ele>1260.0</ele><time>2026-05-02T09:53:26Z</time></trkpt><trkpt lat="45.886805017339874" lon="9.797569632461318"><ele>1260.0</ele><time>2026-05-02T09:53:29Z</time></trkpt><trkpt lat="45.886815224120774" lon="9.797473408936337"><ele>1260.0</ele><time>2026-05-02T09:53:32Z</time></trkpt><trkpt lat="45.88681237147022" lon="9.797368579526232"><ele>1260.0</ele><time>2026-05-02T09:53:35Z</time></trkpt><trkpt lat="45.88679509539211" lon="9.797239245908814"><ele>1260.0</ele><time>2026-05-02T09:53:38Z</time></trkpt><trkpt lat="45.88674735718112" lon="9.797174368914051"><ele>1260.0</ele><time>2026-05-02T09:53:40Z</time></trkpt><trkpt lat="45.886692369356616" lon="9.79711635465231"><ele>1260.0</ele><time>2026-05-02T09:53:42Z</time></trkpt><trkpt lat="45.88661935905064" lon="9.79708110494127"><ele>1260.0</ele><time>2026-05-02T09:53:44Z</time></trkpt><trkpt lat="45.88653343059325" lon="9.797041682664121"><ele>1260.5714285714287</ele><time>2026-05-02T09:53:47Z</time></trkpt><trkpt lat="45.88645903179024" lon="9.797014193393155"><ele>1261.142857142857</ele><time>2026-05-02T09:53:49Z</time></trkpt><trkpt lat="45.88638664171726" lon="9.796985408180452"><ele>1261.7142857142858</ele><time>2026-05-02T09:53:51Z</time></trkpt><trkpt lat="45.88632367700906" lon="9.796946340178811"><ele>1262.2857142857142</ele><time>2026-05-02T09:53:53Z</time></trkpt><trkpt lat="45.886269109614155" lon="9.796901180261028"><ele>1262.857142857143</ele><time>2026-05-02T09:53:55Z</time></trkpt><trkpt lat="45.886198078776495" lon="9.796858472754492"><ele>1263.4285714285716</ele><time>2026-05-02T09:53:57Z</time></trkpt><trkpt lat="45.886132277536746" lon="9.796801445363634"><ele>1264.0</ele><time>2026-05-02T09:53:59Z</time></trkpt><trkpt lat="45.88605256380952" lon="9.796818423563701"><ele>1263.8333333333333</ele><time>2026-05-02T09:54:01Z</time></trkpt><trkpt lat="45.886003644512385" lon="9.796895935330497"><ele>1263.6666666666665</ele><time>2026-05-02T09:54:03Z</time></trkpt><trkpt lat="45.88595408787763" lon="9.797000239671632"><ele>1263.5</ele><time>2026-05-02T09:54:06Z</time></trkpt><trkpt lat="45.8859280565138" lon="9.797115967323045"><ele>1263.3333333333333</ele><time>2026-05-02T09:54:09Z</time></trkpt><trkpt lat="45.88587750488553" lon="9.797220039399818"><ele>1263.1666666666667</ele><time>2026-05-02T09:54:12Z</time></trkpt><trkpt lat="45.88582594372827" lon="9.797309971454405"><ele>1263.0</ele><time>2026-05-02T09:54:15Z</time></trkpt><trkpt lat="45.88577438566167" lon="9.797371208281858"><ele>1263.0</ele><time>2026-05-02T09:54:18Z</time></trkpt><trkpt lat="45.88575474659357" lon="9.797267014728577"><ele>1263.0</ele><time>2026-05-02T09:54:22Z</time></trkpt><trkpt lat="45.885754596526155" lon="9.797146496273987"><ele>1263.0</ele><time>2026-05-02T09:54:26Z</time></trkpt><trkpt lat="45.88577514191786" lon="9.797054754561334"><ele>1263.0</ele><time>2026-05-02T09:54:28Z</time></trkpt><trkpt lat="45.885809531985515" lon="9.796952330782863"><ele>1263.0</ele><time>2026-05-02T09:54:31Z</time></trkpt><trkpt lat="45.8858301154072" lon="9.796825272722533"><ele>1263.0</ele><time>2026-05-02T09:54:34Z</time></trkpt><trkpt lat="45.885848086817845" lon="9.796725799674576"><ele>1263.6666666666667</ele><time>2026-05-02T09:54:37Z</time></trkpt><trkpt lat="45.885885486021756" lon="9.796648781749866"><ele>1264.3333333333333</ele><time>2026-05-02T09:54:41Z</time></trkpt><trkpt lat="45.885801730532755" lon="9.796616435441367"><ele>1265.0</ele><time>2026-05-02T09:54:46Z</time></trkpt><trkpt lat="45.88573952846983" lon="9.79655237267491"><ele>1265.6666666666665</ele><time>2026-05-02T09:54:49Z</time></trkpt><trkpt lat="45.88568988925088" lon="9.796468172738956"><ele>1266.3333333333333</ele><time>2026-05-02T09:54:52Z</time></trkpt><trkpt lat="45.885607942660094" lon="9.796409841708472"><ele>1267.0</ele><time>2026-05-02T09:54:55Z</time></trkpt><trkpt lat="45.885539203991335" lon="9.796345385048022"><ele>1267.0</ele><time>2026-05-02T09:54:58Z</time></trkpt><trkpt lat="45.8854791013344" lon="9.796264655444878"><ele>1267.0</ele><time>2026-05-02T09:55:01Z</time></trkpt><trkpt lat="45.8854380000042" lon="9.796168341628107"><ele>1267.0</ele><time>2026-05-02T09:55:04Z</time></trkpt><trkpt lat="45.88538496674359" lon="9.796083245188278"><ele>1267.0</ele><time>2026-05-02T09:55:07Z</time></trkpt><trkpt lat="45.8853476274421" lon="9.796005125048714"><ele>1267.0</ele><time>2026-05-02T09:55:10Z</time></trkpt><trkpt lat="45.885290832690536" lon="9.795944511904004"><ele>1267.0</ele><time>2026-05-02T09:55:14Z</time></trkpt><trkpt lat="45.88528609311005" lon="9.795845501551565"><ele>1267.0</ele><time>2026-05-02T09:55:18Z</time></trkpt><trkpt lat="45.88523834935057" lon="9.795767583610045"><ele>1267.0</ele><time>2026-05-02T09:55:22Z</time></trkpt><trkpt lat="45.885179332808896" lon="9.79572011802922"><ele>1267.0</ele><time>2026-05-02T09:55:27Z</time></trkpt><trkpt lat="45.88512308635755" lon="9.795795110670959"><ele>1267.0</ele><time>2026-05-02T09:55:45Z</time></trkpt><trkpt lat="45.88511325383016" lon="9.795892113346241"><ele>1267.0</ele><time>2026-05-02T09:55:51Z</time></trkpt><trkpt lat="45.885048621796706" lon="9.795913291730944"><ele>1267.0</ele><time>2026-05-02T09:55:56Z</time></trkpt><trkpt lat="45.88509167452324" lon="9.795990171434507"><ele>1267.0</ele><time>2026-05-02T09:56:02Z</time></trkpt><trkpt lat="45.885139339590154" lon="9.796072899727042"><ele>1267.0</ele><time>2026-05-02T09:56:06Z</time></trkpt><trkpt lat="45.88505629054099" lon="9.796073247990613"><ele>1266.7142857142858</ele><time>2026-05-02T09:56:10Z</time></trkpt><trkpt lat="45.88499235304282" lon="9.796075157191625"><ele>1266.4285714285716</ele><time>2026-05-02T09:56:13Z</time></trkpt><trkpt lat="45.884924542209646" lon="9.796058614289485"><ele>1266.142857142857</ele><time>2026-05-02T09:56:16Z</time></trkpt><trkpt lat="45.88486026953629" lon="9.796077324370536"><ele>1265.857142857143</ele><time>2026-05-02T09:56:19Z</time></trkpt><trkpt lat="45.88478551609887" lon="9.79609151919971"><ele>1265.5714285714287</ele><time>2026-05-02T09:56:22Z</time></trkpt><trkpt lat="45.88472397001114" lon="9.796068315342618"><ele>1265.2857142857142</ele><time>2026-05-02T09:56:26Z</time></trkpt><trkpt lat="45.8847112218909" lon="9.795972175499537"><ele>1265.0</ele><time>2026-05-02T09:56:29Z</time></trkpt><trkpt lat="45.88472963539626" lon="9.795877277247778"><ele>1265.0</ele><time>2026-05-02T09:56:32Z</time></trkpt><trkpt lat="45.884791624187216" lon="9.795838977800578"><ele>1265.0</ele><time>2026-05-02T09:56:36Z</time></trkpt><trkpt lat="45.88486932277157" lon="9.795870350876665"><ele>1265.0</ele><time>2026-05-02T09:56:42Z</time></trkpt><trkpt lat="45.88493050322658" lon="9.79594861752536"><ele>1265.0</ele><time>2026-05-02T09:56:46Z</time></trkpt><trkpt lat="45.88495088392672" lon="9.796057428878912"><ele>1265.0</ele><time>2026-05-02T09:56:49Z</time></trkpt><trkpt lat="45.88501612253409" lon="9.796077722241428"><ele>1265.0</ele><time>2026-05-02T09:56:51Z</time></trkpt><trkpt lat="45.88508383519272" lon="9.796091857101327"><ele>1265.0</ele><time>2026-05-02T09:56:53Z</time></trkpt><trkpt lat="45.88514822562117" lon="9.796101156708666"><ele>1265.3333333333335</ele><time>2026-05-02T09:56:55Z</time></trkpt><trkpt lat="45.88522107117691" lon="9.796140858263207"><ele>1265.6666666666667</ele><time>2026-05-02T09:56:58Z</time></trkpt><trkpt lat="45.88527564043515" lon="9.79624083835289"><ele>1266.0</ele><time>2026-05-02T09:57:01Z</time></trkpt><trkpt lat="45.88529787055084" lon="9.796331375107382"><ele>1266.3333333333333</ele><time>2026-05-02T09:57:04Z</time></trkpt><trkpt lat="45.885364431882024" lon="9.796408979769748"><ele>1266.6666666666665</ele><time>2026-05-02T09:57:09Z</time></trkpt><trkpt lat="45.885383397827994" lon="9.796529487690405"><ele>1267.0</ele><time>2026-05-02T09:57:11Z</time></trkpt><trkpt lat="45.885428482750626" lon="9.796651811965408"><ele>1267.0</ele><time>2026-05-02T09:57:13Z</time></trkpt><trkpt lat="45.88546346551094" lon="9.796749993031543"><ele>1267.0</ele><time>2026-05-02T09:57:15Z</time></trkpt><trkpt lat="45.8855056933058" lon="9.796839160668316"><ele>1267.0</ele><time>2026-05-02T09:57:17Z</time></trkpt><trkpt lat="45.885552301019885" lon="9.79691754092558"><ele>1267.0</ele><time>2026-05-02T09:57:19Z</time></trkpt><trkpt lat="45.88559014134802" lon="9.796994303613882"><ele>1267.0</ele><time>2026-05-02T09:57:21Z</time></trkpt><trkpt lat="45.885626432458025" lon="9.79711214411232"><ele>1267.0</ele><time>2026-05-02T09:57:24Z</time></trkpt><trkpt lat="45.88566414206545" lon="9.79722637360108"><ele>1266.3333333333333</ele><time>2026-05-02T09:57:27Z</time></trkpt><trkpt lat="45.88569005759097" lon="9.797340235780112"><ele>1265.6666666666665</ele><time>2026-05-02T09:57:30Z</time></trkpt><trkpt lat="45.88560217817527" lon="9.797328805963701"><ele>1265.0</ele><time>2026-05-02T09:57:33Z</time></trkpt><trkpt lat="45.88557663583965" lon="9.797231281423915"><ele>1264.3333333333333</ele><time>2026-05-02T09:57:35Z</time></trkpt><trkpt lat="45.88554916368093" lon="9.797141080176603"><ele>1263.6666666666667</ele><time>2026-05-02T09:57:37Z</time></trkpt><trkpt lat="45.88551039926049" lon="9.797022166394454"><ele>1263.0</ele><time>2026-05-02T09:57:40Z</time></trkpt><trkpt lat="45.885471183482345" lon="9.79692993263463"><ele>1263.0</ele><time>2026-05-02T09:57:43Z</time></trkpt><trkpt lat="45.88544255632868" lon="9.79703033173353"><ele>1263.0</ele><time>2026-05-02T09:57:47Z</time></trkpt><trkpt lat="45.88547767250137" lon="9.797105884605811"><ele>1263.0</ele><time>2026-05-02T09:57:49Z</time></trkpt><trkpt lat="45.88552553721492" lon="9.797209179360129"><ele>1263.0</ele><time>2026-05-02T09:57:52Z</time></trkpt><trkpt lat="45.88552696252577" lon="9.797328587805099"><ele>1263.0</ele><time>2026-05-02T09:57:55Z</time></trkpt><trkpt lat="45.88552901156308" lon="9.797427429531163"><ele>1263.0</ele><time>2026-05-02T09:57:58Z</time></trkpt><trkpt lat="45.885526554544064" lon="9.797539568047148"><ele>1263.0</ele><time>2026-05-02T09:58:02Z</time></trkpt><trkpt lat="45.88553120025039" lon="9.797636953945354"><ele>1263.0</ele><time>2026-05-02T09:58:06Z</time></trkpt><trkpt lat="45.88553683393209" lon="9.797522572946598"><ele>1263.0</ele><time>2026-05-02T09:58:21Z</time></trkpt><trkpt lat="45.88553675357478" lon="9.797407572739953"><ele>1263.0</ele><time>2026-05-02T09:58:24Z</time></trkpt><trkpt lat="45.88553576055897" lon="9.797303730526133"><ele>1263.0</ele><time>2026-05-02T09:58:27Z</time></trkpt><trkpt lat="45.8855283014949" lon="9.797188922037723"><ele>1263.0</ele><time>2026-05-02T09:58:30Z</time></trkpt><trkpt lat="45.88548264199695" lon="9.797076248967333"><ele>1263.0</ele><time>2026-05-02T09:58:33Z</time></trkpt><trkpt lat="45.88546319129706" lon="9.796973640764264"><ele>1263.0</ele><time>2026-05-02T09:58:36Z</time></trkpt><trkpt lat="45.885533496641784" lon="9.797012701016037"><ele>1263.0</ele><time>2026-05-02T09:58:39Z</time></trkpt><trkpt lat="45.88556457657536" lon="9.797130859811206"><ele>1263.0</ele><time>2026-05-02T09:58:42Z</time></trkpt><trkpt lat="45.8855981741894" lon="9.797240063519277"><ele>1263.0</ele><time>2026-05-02T09:58:45Z</time></trkpt><trkpt lat="45.88563457078702" lon="9.797331847637906"><ele>1263.0</ele><time>2026-05-02T09:58:48Z</time></trkpt><trkpt lat="45.88568130632197" lon="9.797393834308824"><ele>1262.9999999999998</ele><time>2026-05-02T09:58:52Z</time></trkpt><trkpt lat="45.885741962892304" lon="9.797470289368858"><ele>1263.0</ele><time>2026-05-02T09:58:55Z</time></trkpt><trkpt lat="45.88581128746897" lon="9.797502293454519"><ele>1263.0</ele><time>2026-05-02T09:58:58Z</time></trkpt><trkpt lat="45.88589363980531" lon="9.797512480561524"><ele>1263.0</ele><time>2026-05-02T09:59:01Z</time></trkpt><trkpt lat="45.88595668050638" lon="9.797483452181055"><ele>1263.0</ele><time>2026-05-02T09:59:04Z</time></trkpt><trkpt lat="45.8860139397765" lon="9.797432480634573"><ele>1262.9999999999998</ele><time>2026-05-02T09:59:07Z</time></trkpt><trkpt lat="45.88607915444437" lon="9.797389186629669"><ele>1263.0</ele><time>2026-05-02T09:59:10Z</time></trkpt><trkpt lat="45.886155356837776" lon="9.797383372573947"><ele>1263.5714285714284</ele><time>2026-05-02T09:59:14Z</time></trkpt><trkpt lat="45.886219240652125" lon="9.79737772691982"><ele>1264.142857142857</ele><time>2026-05-02T09:59:17Z</time></trkpt><trkpt lat="45.88628261930032" lon="9.797390119245291"><ele>1264.7142857142858</ele><time>2026-05-02T09:59:20Z</time></trkpt><trkpt lat="45.88635812626028" lon="9.797404410676767"><ele>1265.2857142857142</ele><time>2026-05-02T09:59:24Z</time></trkpt><trkpt lat="45.88641286337196" lon="9.797333614987874"><ele>1265.857142857143</ele><time>2026-05-02T09:59:27Z</time></trkpt><trkpt lat="45.88646178741521" lon="9.797257312525796"><ele>1266.4285714285713</ele><time>2026-05-02T09:59:31Z</time></trkpt><trkpt lat="45.886523603302756" lon="9.797215269902507"><ele>1267.0</ele><time>2026-05-02T09:59:36Z</time></trkpt><trkpt lat="45.886608450734855" lon="9.797225987904179"><ele>1267.0</ele><time>2026-05-02T09:59:43Z</time></trkpt><trkpt lat="45.88669336819739" lon="9.797284640203678"><ele>1267.0</ele><time>2026-05-02T09:59:49Z</time></trkpt><trkpt lat="45.88662375705332" lon="9.797253211210995"><ele>1267.0</ele><time>2026-05-02T10:00:11Z</time></trkpt><trkpt lat="45.88653672626446" lon="9.797234607379044"><ele>1267.0</ele><time>2026-05-02T10:00:15Z</time></trkpt><trkpt lat="45.88647616954913" lon="9.797292445483825"><ele>1267.0</ele><time>2026-05-02T10:00:18Z</time></trkpt><trkpt lat="45.88641200478999" lon="9.79733680691142"><ele>1267.0</ele><time>2026-05-02T10:00:21Z</time></trkpt><trkpt lat="45.886364483280985" lon="9.797417001087132"><ele>1267.0</ele><time>2026-05-02T10:00:24Z</time></trkpt><trkpt lat="45.886370974249324" lon="9.797510821966526"><ele>1267.0</ele><time>2026-05-02T10:00:28Z</time></trkpt><trkpt lat="45.88642269643038" lon="9.797589121888798"><ele>1267.0</ele><time>2026-05-02T10:00:32Z</time></trkpt><trkpt lat="45.886483922470944" lon="9.797636859397054"><ele>1267.0</ele><time>2026-05-02T10:00:37Z</time></trkpt><trkpt lat="45.886410752479456" lon="9.797600346057688"><ele>1267.0</ele><time>2026-05-02T10:00:47Z</time></trkpt><trkpt lat="45.88639853290436" lon="9.797486655504908"><ele>1267.0</ele><time>2026-05-02T10:00:51Z</time></trkpt><trkpt lat="45.886398061409054" lon="9.79738569402169"><ele>1267.0</ele><time>2026-05-02T10:00:54Z</time></trkpt><trkpt lat="45.88640973986488" lon="9.797287861385897"><ele>1267.0</ele><time>2026-05-02T10:00:57Z</time></trkpt><trkpt lat="45.886418000311004" lon="9.797186005990078"><ele>1267.0</ele><time>2026-05-02T10:01:00Z</time></trkpt><trkpt lat="45.88636021969517" lon="9.797136663025542"><ele>1267.0</ele><time>2026-05-02T10:01:03Z</time></trkpt><trkpt lat="45.88629039952323" lon="9.797085677146109"><ele>1267.0</ele><time>2026-05-02T10:01:06Z</time></trkpt><trkpt lat="45.88621661514783" lon="9.79705753855979"><ele>1267.0</ele><time>2026-05-02T10:01:09Z</time></trkpt><trkpt lat="45.88614462781785" lon="9.79705964555388"><ele>1267.0</ele><time>2026-05-02T10:01:13Z</time></trkpt><trkpt lat="45.88610308518254" lon="9.79713141310017"><ele>1267.0</ele><time>2026-05-02T10:01:16Z</time></trkpt><trkpt lat="45.88607011684267" lon="9.797241745376551"><ele>1267.0</ele><time>2026-05-02T10:01:20Z</time></trkpt><trkpt lat="45.88603217506772" lon="9.797317860250137"><ele>1267.0</ele><time>2026-05-02T10:01:22Z</time></trkpt><trkpt lat="45.88598900552194" lon="9.797403099963898"><ele>1267.0</ele><time>2026-05-02T10:01:25Z</time></trkpt><trkpt lat="45.885950436733296" lon="9.797481494808835"><ele>1267.0</ele><time>2026-05-02T10:01:29Z</time></trkpt><trkpt lat="45.88589187548167" lon="9.79752840793189"><ele>1267.0</ele><time>2026-05-02T10:01:32Z</time></trkpt><trkpt lat="45.88582280468564" lon="9.797579254295178"><ele>1267.0</ele><time>2026-05-02T10:01:36Z</time></trkpt><trkpt lat="45.885882037281945" lon="9.79762714538819"><ele>1267.0</ele><time>2026-05-02T10:01:39Z</time></trkpt><trkpt lat="45.88597105886727" lon="9.797652657957368"><ele>1267.0</ele><time>2026-05-02T10:01:42Z</time></trkpt><trkpt lat="45.886049031575695" lon="9.797649303936886"><ele>1267.0</ele><time>2026-05-02T10:01:44Z</time></trkpt><trkpt lat="45.8861407129928" lon="9.797653001288449"><ele>1267.0</ele><time>2026-05-02T10:01:46Z</time></trkpt><trkpt lat="45.88622960919697" lon="9.797676636488957"><ele>1267.0</ele><time>2026-05-02T10:01:48Z</time></trkpt><trkpt lat="45.88631275741705" lon="9.79767478261301"><ele>1267.0</ele><time>2026-05-02T10:01:50Z</time></trkpt><trkpt lat="45.88638590493118" lon="9.797687164756875"><ele>1267.0</ele><time>2026-05-02T10:01:53Z</time></trkpt><trkpt lat="45.88647157209881" lon="9.797694811205336"><ele>1267.1666666666665</ele><time>2026-05-02T10:01:58Z</time></trkpt><trkpt lat="45.88653879764143" lon="9.797714959986251"><ele>1267.3333333333333</ele><time>2026-05-02T10:02:00Z</time></trkpt><trkpt lat="45.88661684636224" lon="9.79773518017422"><ele>1267.5</ele><time>2026-05-02T10:02:02Z</time></trkpt><trkpt lat="45.886703965645985" lon="9.797759670771448"><ele>1267.6666666666667</ele><time>2026-05-02T10:02:04Z</time></trkpt><trkpt lat="45.88679222139768" lon="9.797769676191313"><ele>1267.8333333333335</ele><time>2026-05-02T10:02:06Z</time></trkpt><trkpt lat="45.886862229401565" lon="9.797780946113143"><ele>1268.0</ele><time>2026-05-02T10:02:08Z</time></trkpt><trkpt lat="45.88692805704212" lon="9.797788005622586"><ele>1268.0</ele><time>2026-05-02T10:02:10Z</time></trkpt><trkpt lat="45.88699548295952" lon="9.797799882216392"><ele>1268.0</ele><time>2026-05-02T10:02:12Z</time></trkpt><trkpt lat="45.887066741557774" lon="9.797790442290323"><ele>1268.0</ele><time>2026-05-02T10:02:15Z</time></trkpt><trkpt lat="45.887133439794916" lon="9.797751482948502"><ele>1268.0</ele><time>2026-05-02T10:02:18Z</time></trkpt><trkpt lat="45.88719517681704" lon="9.797705404265532"><ele>1268.0</ele><time>2026-05-02T10:02:23Z</time></trkpt><trkpt lat="45.887257116353176" lon="9.797645754821396"><ele>1268.0</ele><time>2026-05-02T10:02:28Z</time></trkpt><trkpt lat="45.88732771572387" lon="9.797697586740465"><ele>1268.0</ele><time>2026-05-02T10:02:33Z</time></trkpt><trkpt lat="45.8873860693752" lon="9.797751827615516"><ele>1268.0</ele><time>2026-05-02T10:02:37Z</time></trkpt><trkpt lat="45.88732376473492" lon="9.797790754182847"><ele>1268.0</ele><time>2026-05-02T10:02:42Z</time></trkpt><trkpt lat="45.88726854692111" lon="9.797858018065789"><ele>1268.0</ele><time>2026-05-02T10:02:45Z</time></trkpt><trkpt lat="45.887220753428316" lon="9.797924780925745"><ele>1268.0</ele><time>2026-05-02T10:02:48Z</time></trkpt><trkpt lat="45.88718826694979" lon="9.798012886639635"><ele>1268.0</ele><time>2026-05-02T10:02:52Z</time></trkpt><trkpt lat="45.887209937875454" lon="9.797923932763172"><ele>1268.0</ele><time>2026-05-02T10:03:14Z</time></trkpt><trkpt lat="45.88717735461095" lon="9.797842476116843"><ele>1268.0</ele><time>2026-05-02T10:03:17Z</time></trkpt><trkpt lat="45.88714476906251" lon="9.797759277095908"><ele>1266.6666666666667</ele><time>2026-05-02T10:03:20Z</time></trkpt><trkpt lat="45.88716758421395" lon="9.797665284896379"><ele>1265.3333333333335</ele><time>2026-05-02T10:03:23Z</time></trkpt><trkpt lat="45.88720411649162" lon="9.797551957027698"><ele>1264.0</ele><time>2026-05-02T10:03:26Z</time></trkpt><trkpt lat="45.887227978448124" lon="9.797449606643102"><ele>1262.6666666666667</ele><time>2026-05-02T10:03:28Z</time></trkpt><trkpt lat="45.8872450220952" lon="9.797315471442637"><ele>1261.3333333333333</ele><time>2026-05-02T10:03:30Z</time></trkpt><trkpt lat="45.88725608422288" lon="9.79716424115125"><ele>1260.0</ele><time>2026-05-02T10:03:32Z</time></trkpt><trkpt lat="45.88726719843802" lon="9.797009166963797"><ele>1260.0</ele><time>2026-05-02T10:03:34Z</time></trkpt><trkpt lat="45.887269914766364" lon="9.79688183703401"><ele>1260.0</ele><time>2026-05-02T10:03:36Z</time></trkpt><trkpt lat="45.88726940444173" lon="9.796771902972097"><ele>1260.0</ele><time>2026-05-02T10:03:38Z</time></trkpt><trkpt lat="45.887280812391815" lon="9.79664932317278"><ele>1260.0</ele><time>2026-05-02T10:03:40Z</time></trkpt><trkpt lat="45.8872959151711" lon="9.796485499904028"><ele>1260.0</ele><time>2026-05-02T10:03:42Z</time></trkpt><trkpt lat="45.88729868815501" lon="9.796393298218604"><ele>1260.0</ele><time>2026-05-02T10:03:43Z</time></trkpt><trkpt lat="45.8873181197974" lon="9.796258979035361"><ele>1258.2</ele><time>2026-05-02T10:03:45Z</time></trkpt><trkpt lat="45.8873883239226" lon="9.796208286444267"><ele>1256.4</ele><time>2026-05-02T10:03:47Z</time></trkpt><trkpt lat="45.88746635703391" lon="9.796330982482365"><ele>1254.6</ele><time>2026-05-02T10:03:49Z</time></trkpt><trkpt lat="45.887492495786816" lon="9.796499564007881"><ele>1252.8</ele><time>2026-05-02T10:03:51Z</time></trkpt><trkpt lat="45.88750685514893" lon="9.796591935628319"><ele>1251.0</ele><time>2026-05-02T10:03:52Z</time></trkpt><trkpt lat="45.88752256682669" lon="9.796689334227803"><ele>1251.0</ele><time>2026-05-02T10:03:53Z</time></trkpt><trkpt lat="45.88754062788029" lon="9.796793088382671"><ele>1251.0</ele><time>2026-05-02T10:03:54Z</time></trkpt><trkpt lat="45.887563790827244" lon="9.796900743370948"><ele>1251.0</ele><time>2026-05-02T10:03:55Z</time></trkpt><trkpt lat="45.88759169062037" lon="9.797004784807541"><ele>1251.0</ele><time>2026-05-02T10:03:56Z</time></trkpt><trkpt lat="45.88765419159084" lon="9.797080063806545"><ele>1251.0</ele><time>2026-05-02T10:03:57Z</time></trkpt><trkpt lat="45.88773797030821" lon="9.797121287829672"><ele>1251.0</ele><time>2026-05-02T10:03:58Z</time></trkpt><trkpt lat="45.887826295480494" lon="9.79714094931933"><ele>1251.3999999999999</ele><time>2026-05-02T10:03:59Z</time></trkpt><trkpt lat="45.887916698516236" lon="9.797149859715974"><ele>1251.8</ele><time>2026-05-02T10:04:00Z</time></trkpt><trkpt lat="45.88800980326623" lon="9.797157162216724"><ele>1252.1999999999998</ele><time>2026-05-02T10:04:01Z</time></trkpt><trkpt lat="45.88810266568904" lon="9.797182720936044"><ele>1252.6</ele><time>2026-05-02T10:04:02Z</time></trkpt><trkpt lat="45.88818500581133" lon="9.797232693264423"><ele>1253.0</ele><time>2026-05-02T10:04:03Z</time></trkpt><trkpt lat="45.88826335826002" lon="9.797283112626111"><ele>1253.0</ele><time>2026-05-02T10:04:04Z</time></trkpt><trkpt lat="45.88834100115313" lon="9.797287866020902"><ele>1253.0</ele><time>2026-05-02T10:04:05Z</time></trkpt><trkpt lat="45.88842302244759" lon="9.797240131671959"><ele>1253.0</ele><time>2026-05-02T10:04:06Z</time></trkpt><trkpt lat="45.88849463915254" lon="9.797146491981687"><ele>1253.0</ele><time>2026-05-02T10:04:07Z</time></trkpt><trkpt lat="45.88855569512241" lon="9.797038663697977"><ele>1253.0</ele><time>2026-05-02T10:04:08Z</time></trkpt><trkpt lat="45.888615024885176" lon="9.796929508852958"><ele>1248.0</ele><time>2026-05-02T10:04:09Z</time></trkpt><trkpt lat="45.88867743187392" lon="9.79682730825412"><ele>1243.0</ele><time>2026-05-02T10:04:10Z</time></trkpt><trkpt lat="45.888742536331236" lon="9.796744298626871"><ele>1238.0</ele><time>2026-05-02T10:04:11Z</time></trkpt><trkpt lat="45.8888148850313" lon="9.796693090492155"><ele>1233.0</ele><time>2026-05-02T10:04:12Z</time></trkpt><trkpt lat="45.888896361875226" lon="9.796673984222558"><ele>1228.0</ele><time>2026-05-02T10:04:13Z</time></trkpt><trkpt lat="45.88897995393728" lon="9.796698992067542"><ele>1223.0</ele><time>2026-05-02T10:04:14Z</time></trkpt><trkpt lat="45.88906286450745" lon="9.79675216626257"><ele>1221.8</ele><time>2026-05-02T10:04:15Z</time></trkpt><trkpt lat="45.88913360117313" lon="9.79684291338474"><ele>1220.6</ele><time>2026-05-02T10:04:16Z</time></trkpt><trkpt lat="45.88918751567088" lon="9.79695918690278"><ele>1219.4</ele><time>2026-05-02T10:04:17Z</time></trkpt><trkpt lat="45.889237286062006" lon="9.797075988589677"><ele>1218.2</ele><time>2026-05-02T10:04:18Z</time></trkpt><trkpt lat="45.88928920763172" lon="9.797195183925638"><ele>1217.0</ele><time>2026-05-02T10:04:19Z</time></trkpt><trkpt lat="45.88934452004767" lon="9.797313744053502"><ele>1217.0</ele><time>2026-05-02T10:04:20Z</time></trkpt><trkpt lat="45.88940096314526" lon="9.797433377026262"><ele>1217.0</ele><time>2026-05-02T10:04:21Z</time></trkpt><trkpt lat="45.88945922859165" lon="9.797549815083393"><ele>1217.0</ele><time>2026-05-02T10:04:22Z</time></trkpt><trkpt lat="45.88951553647252" lon="9.79766711811658"><ele>1217.0</ele><time>2026-05-02T10:04:23Z</time></trkpt><trkpt lat="45.88957945721646" lon="9.797777614585199"><ele>1217.0</ele><time>2026-05-02T10:04:24Z</time></trkpt><trkpt lat="45.88965601206504" lon="9.797868516297521"><ele>1220.4</ele><time>2026-05-02T10:04:25Z</time></trkpt><trkpt lat="45.88974258918624" lon="9.797938175998167"><ele>1223.8000000000002</ele><time>2026-05-02T10:04:26Z</time></trkpt><trkpt lat="45.88983587062647" lon="9.797989653318275"><ele>1227.2</ele><time>2026-05-02T10:04:27Z</time></trkpt><trkpt lat="45.88992958299827" lon="9.798042091432176"><ele>1230.6000000000001</ele><time>2026-05-02T10:04:28Z</time></trkpt><trkpt lat="45.8900226791517" lon="9.798094684133124"><ele>1234.0</ele><time>2026-05-02T10:04:29Z</time></trkpt><trkpt lat="45.890119955005346" lon="9.798140213380703"><ele>1235.1666666666665</ele><time>2026-05-02T10:04:30Z</time></trkpt><trkpt lat="45.890218248193165" lon="9.798171454847811"><ele>1236.3333333333333</ele><time>2026-05-02T10:04:31Z</time></trkpt><trkpt lat="45.89030383827691" lon="9.798167037476155"><ele>1237.5</ele><time>2026-05-02T10:04:32Z</time></trkpt><trkpt lat="45.890365440662414" lon="9.798140324760888"><ele>1238.6666666666667</ele><time>2026-05-02T10:04:33Z</time></trkpt><trkpt lat="45.890459355592775" lon="9.798077169320676"><ele>1239.8333333333335</ele><time>2026-05-02T10:04:35Z</time></trkpt><trkpt lat="45.890539823482904" lon="9.798008220512347"><ele>1241.0</ele><time>2026-05-02T10:04:37Z</time></trkpt><trkpt lat="45.89063449055518" lon="9.79793214741355"><ele>1241.0</ele><time>2026-05-02T10:04:39Z</time></trkpt><trkpt lat="45.89073709731212" lon="9.797846193613925"><ele>1241.0</ele><time>2026-05-02T10:04:41Z</time></trkpt><trkpt lat="45.89079368603939" lon="9.797803067098618"><ele>1241.0</ele><time>2026-05-02T10:04:42Z</time></trkpt><trkpt lat="45.89085117593811" lon="9.797754682560395"><ele>1241.0</ele><time>2026-05-02T10:04:43Z</time></trkpt><trkpt lat="45.89090984269932" lon="9.79770396827564"><ele>1241.0</ele><time>2026-05-02T10:04:44Z</time></trkpt><trkpt lat="45.89096936453784" lon="9.797649556550567"><ele>1241.0</ele><time>2026-05-02T10:04:45Z</time></trkpt><trkpt lat="45.891030996065844" lon="9.79759422876793"><ele>1238.8333333333335</ele><time>2026-05-02T10:04:46Z</time></trkpt><trkpt lat="45.89109762368534" lon="9.797538300695482"><ele>1236.6666666666667</ele><time>2026-05-02T10:04:47Z</time></trkpt><trkpt lat="45.89116578178024" lon="9.79748284998014"><ele>1234.5</ele><time>2026-05-02T10:04:48Z</time></trkpt><trkpt lat="45.89123556154625" lon="9.797427619414563"><ele>1232.3333333333333</ele><time>2026-05-02T10:04:49Z</time></trkpt><trkpt lat="45.89130713968473" lon="9.797371480027318"><ele>1230.1666666666665</ele><time>2026-05-02T10:04:50Z</time></trkpt><trkpt lat="45.89138011339378" lon="9.797315627360648"><ele>1228.0</ele><time>2026-05-02T10:04:51Z</time></trkpt><trkpt lat="45.89145400648188" lon="9.797255006202219"><ele>1228.0</ele><time>2026-05-02T10:04:52Z</time></trkpt><trkpt lat="45.891529149816684" lon="9.797194519142318"><ele>1228.0</ele><time>2026-05-02T10:04:53Z</time></trkpt><trkpt lat="45.891604271227905" lon="9.79713174759388"><ele>1228.0</ele><time>2026-05-02T10:04:54Z</time></trkpt><trkpt lat="45.89167951028294" lon="9.79706820510169"><ele>1228.0</ele><time>2026-05-02T10:04:55Z</time></trkpt><trkpt lat="45.89174964524403" lon="9.796987250027913"><ele>1228.0</ele><time>2026-05-02T10:04:56Z</time></trkpt><trkpt lat="45.891809208941574" lon="9.79689163703568"><ele>1228.0</ele><time>2026-05-02T10:04:57Z</time></trkpt><trkpt lat="45.891854734630016" lon="9.796774398143082"><ele>1227.0</ele><time>2026-05-02T10:04:58Z</time></trkpt><trkpt lat="45.89188074808142" lon="9.79664479483572"><ele>1226.0</ele><time>2026-05-02T10:04:59Z</time></trkpt><trkpt lat="45.891894544771425" lon="9.79651706753824"><ele>1225.0</ele><time>2026-05-02T10:05:00Z</time></trkpt><trkpt lat="45.891914080242884" lon="9.796386318378795"><ele>1224.0</ele><time>2026-05-02T10:05:01Z</time></trkpt><trkpt lat="45.891939056757515" lon="9.796255975322431"><ele>1223.0</ele><time>2026-05-02T10:05:02Z</time></trkpt><trkpt lat="45.891970260916366" lon="9.79613136054368"><ele>1223.0</ele><time>2026-05-02T10:05:03Z</time></trkpt><trkpt lat="45.8920046880366" lon="9.796013376554798"><ele>1223.0</ele><time>2026-05-02T10:05:04Z</time></trkpt><trkpt lat="45.89205030977798" lon="9.795898012066308"><ele>1223.0</ele><time>2026-05-02T10:05:05Z</time></trkpt><trkpt lat="45.89211085691138" lon="9.79579166808878"><ele>1223.0</ele><time>2026-05-02T10:05:06Z</time></trkpt><trkpt lat="45.8921794858517" lon="9.795703005223972"><ele>1223.0</ele><time>2026-05-02T10:05:07Z</time></trkpt><trkpt lat="45.89226410054802" lon="9.795628025074302"><ele>1220.8</ele><time>2026-05-02T10:05:08Z</time></trkpt><trkpt lat="45.89235503716119" lon="9.795562553558923"><ele>1218.6</ele><time>2026-05-02T10:05:09Z</time></trkpt><trkpt lat="45.89244840844035" lon="9.795503634723053"><ele>1216.4</ele><time>2026-05-02T10:05:10Z</time></trkpt><trkpt lat="45.89253507888251" lon="9.795456420164738"><ele>1214.2</ele><time>2026-05-02T10:05:11Z</time></trkpt><trkpt lat="45.89262110350573" lon="9.79541158786978"><ele>1212.0</ele><time>2026-05-02T10:05:12Z</time></trkpt><trkpt lat="45.89270156250627" lon="9.795362224039307"><ele>1211.8</ele><time>2026-05-02T10:05:13Z</time></trkpt><trkpt lat="45.89276902417102" lon="9.795319722457416"><ele>1211.6</ele><time>2026-05-02T10:05:14Z</time></trkpt><trkpt lat="45.89282884638735" lon="9.795281206632406"><ele>1211.3999999999999</ele><time>2026-05-02T10:05:15Z</time></trkpt><trkpt lat="45.892944343883244" lon="9.795218205440772"><ele>1211.2</ele><time>2026-05-02T10:05:17Z</time></trkpt><trkpt lat="45.8930060875427" lon="9.795196495213482"><ele>1211.0</ele><time>2026-05-02T10:05:18Z</time></trkpt><trkpt lat="45.89313417719344" lon="9.795171136468747"><ele>1211.0</ele><time>2026-05-02T10:05:20Z</time></trkpt><trkpt lat="45.893204037984354" lon="9.795168885443701"><ele>1211.0</ele><time>2026-05-02T10:05:21Z</time></trkpt><trkpt lat="45.89327849698187" lon="9.795181193269588"><ele>1211.0</ele><time>2026-05-02T10:05:22Z</time></trkpt><trkpt lat="45.89335454570005" lon="9.795201102576648"><ele>1211.0</ele><time>2026-05-02T10:05:23Z</time></trkpt><trkpt lat="45.89343370253951" lon="9.795207854713846"><ele>1211.0</ele><time>2026-05-02T10:05:24Z</time></trkpt><trkpt lat="45.89350527047669" lon="9.795170173024706"><ele>1211.0</ele><time>2026-05-02T10:05:25Z</time></trkpt><trkpt lat="45.893551153405454" lon="9.795092956388702"><ele>1211.0</ele><time>2026-05-02T10:05:26Z</time></trkpt><trkpt lat="45.89356416027455" lon="9.794988601892133"><ele>1208.3333333333335</ele><time>2026-05-02T10:05:27Z</time></trkpt><trkpt lat="45.89353701648442" lon="9.794880527776815"><ele>1205.6666666666667</ele><time>2026-05-02T10:05:28Z</time></trkpt><trkpt lat="45.893475874516405" lon="9.794801232863433"><ele>1203.0</ele><time>2026-05-02T10:05:29Z</time></trkpt><trkpt lat="45.8934007574656" lon="9.794766227964585"><ele>1200.3333333333333</ele><time>2026-05-02T10:05:30Z</time></trkpt><trkpt lat="45.89329932578788" lon="9.794760270305638"><ele>1197.6666666666665</ele><time>2026-05-02T10:05:32Z</time></trkpt><trkpt lat="45.89322520500311" lon="9.794831194817073"><ele>1195.0</ele><time>2026-05-02T10:05:34Z</time></trkpt><trkpt lat="45.893137301599346" lon="9.794846385641954"><ele>1195.0</ele><time>2026-05-02T10:05:37Z</time></trkpt><trkpt lat="45.893070452565716" lon="9.794833608014827"><ele>1195.0</ele><time>2026-05-02T10:05:42Z</time></trkpt><trkpt lat="45.89310597723454" lon="9.794732210906313"><ele>1195.0</ele><time>2026-05-02T10:05:53Z</time></trkpt><trkpt lat="45.89303713555419" lon="9.794727808034702"><ele>1195.0</ele><time>2026-05-02T10:05:56Z</time></trkpt><trkpt lat="45.89296688286011" lon="9.794775880056742"><ele>1195.0</ele><time>2026-05-02T10:06:00Z</time></trkpt><trkpt lat="45.893044965328535" lon="9.794753615968398"><ele>1195.0</ele><time>2026-05-02T10:06:15Z</time></trkpt><trkpt lat="45.893113129625675" lon="9.794772895526362"><ele>1195.0</ele><time>2026-05-02T10:06:18Z</time></trkpt><trkpt lat="45.89318976864232" lon="9.794815506144838"><ele>1195.0</ele><time>2026-05-02T10:06:21Z</time></trkpt><trkpt lat="45.89326491989878" lon="9.794789132001517"><ele>1195.0</ele><time>2026-05-02T10:06:24Z</time></trkpt><trkpt lat="45.89322760847493" lon="9.794698559295579"><ele>1195.0</ele><time>2026-05-02T10:06:27Z</time></trkpt><trkpt lat="45.89313921431854" lon="9.794668031380414"><ele>1195.0</ele><time>2026-05-02T10:06:29Z</time></trkpt><trkpt lat="45.89303817683057" lon="9.794627144141058"><ele>1195.0</ele><time>2026-05-02T10:06:31Z</time></trkpt><trkpt lat="45.89292457035664" lon="9.794593859847426"><ele>1195.0</ele><time>2026-05-02T10:06:33Z</time></trkpt><trkpt lat="45.892802685143515" lon="9.794573164385879"><ele>1195.0</ele><time>2026-05-02T10:06:35Z</time></trkpt><trkpt lat="45.892739283307314" lon="9.794567611084814"><ele>1195.0</ele><time>2026-05-02T10:06:36Z</time></trkpt><trkpt lat="45.89262496027375" lon="9.794565443430807"><ele>1195.0</ele><time>2026-05-02T10:06:38Z</time></trkpt><trkpt lat="45.89252670546235" lon="9.79455409302449"><ele>1195.0</ele><time>2026-05-02T10:06:40Z</time></trkpt><trkpt lat="45.892415938182076" lon="9.794535914204149"><ele>1195.1666666666665</ele><time>2026-05-02T10:06:42Z</time></trkpt><trkpt lat="45.89230469482637" lon="9.79453231200426"><ele>1195.3333333333333</ele><time>2026-05-02T10:06:44Z</time></trkpt><trkpt lat="45.892181542679594" lon="9.794534466725178"><ele>1195.5</ele><time>2026-05-02T10:06:46Z</time></trkpt><trkpt lat="45.89211721133626" lon="9.794545971347521"><ele>1195.6666666666667</ele><time>2026-05-02T10:06:47Z</time></trkpt><trkpt lat="45.89205100186849" lon="9.794571821085816"><ele>1195.8333333333335</ele><time>2026-05-02T10:06:48Z</time></trkpt><trkpt lat="45.891983561531845" lon="9.794609213872103"><ele>1196.0</ele><time>2026-05-02T10:06:49Z</time></trkpt><trkpt lat="45.89191320346764" lon="9.794650745169028"><ele>1196.0</ele><time>2026-05-02T10:06:50Z</time></trkpt><trkpt lat="45.89184196906909" lon="9.794691740112487"><ele>1196.0</ele><time>2026-05-02T10:06:51Z</time></trkpt><trkpt lat="45.891739003733626" lon="9.794747282104714"><ele>1196.0</ele><time>2026-05-02T10:06:53Z</time></trkpt><trkpt lat="45.891628591353935" lon="9.794844931880295"><ele>1196.0</ele><time>2026-05-02T10:06:55Z</time></trkpt><trkpt lat="45.89156803134351" lon="9.794903054426596"><ele>1196.0</ele><time>2026-05-02T10:06:56Z</time></trkpt><trkpt lat="45.891504139554016" lon="9.79496406051402"><ele>1196.5</ele><time>2026-05-02T10:06:57Z</time></trkpt><trkpt lat="45.891447953576325" lon="9.795041803628102"><ele>1197.0</ele><time>2026-05-02T10:06:58Z</time></trkpt><trkpt lat="45.891402667695814" lon="9.795108091005485"><ele>1197.5</ele><time>2026-05-02T10:06:59Z</time></trkpt><trkpt lat="45.891358378193296" lon="9.795214673269912"><ele>1198.0</ele><time>2026-05-02T10:07:01Z</time></trkpt><trkpt lat="45.8913240249887" lon="9.795349293120426"><ele>1198.5</ele><time>2026-05-02T10:07:03Z</time></trkpt><trkpt lat="45.89129281221027" lon="9.795463676407971"><ele>1199.0</ele><time>2026-05-02T10:07:05Z</time></trkpt><trkpt lat="45.89125524908153" lon="9.795608044247878"><ele>1199.0</ele><time>2026-05-02T10:07:07Z</time></trkpt><trkpt lat="45.891224844576676" lon="9.79568988141209"><ele>1199.0</ele><time>2026-05-02T10:07:08Z</time></trkpt><trkpt lat="45.89118476584357" lon="9.79577168984639"><ele>1199.0</ele><time>2026-05-02T10:07:09Z</time></trkpt><trkpt lat="45.89113203342345" lon="9.795838793540034"><ele>1199.0</ele><time>2026-05-02T10:07:10Z</time></trkpt><trkpt lat="45.891065892160185" lon="9.795881422548405"><ele>1199.0</ele><time>2026-05-02T10:07:11Z</time></trkpt><trkpt lat="45.89099534100784" lon="9.795896430782516"><ele>1199.0</ele><time>2026-05-02T10:07:12Z</time></trkpt><trkpt lat="45.890921707329944" lon="9.795875426632987"><ele>1199.0</ele><time>2026-05-02T10:07:13Z</time></trkpt><trkpt lat="45.890851652227646" lon="9.795831936230192"><ele>1195.6666666666667</ele><time>2026-05-02T10:07:14Z</time></trkpt><trkpt lat="45.890779834112465" lon="9.795799105280617"><ele>1192.3333333333335</ele><time>2026-05-02T10:07:15Z</time></trkpt><trkpt lat="45.89070292211053" lon="9.795802999708506"><ele>1189.0</ele><time>2026-05-02T10:07:16Z</time></trkpt><trkpt lat="45.89062481049798" lon="9.795834601016615"><ele>1185.6666666666667</ele><time>2026-05-02T10:07:17Z</time></trkpt><trkpt lat="45.890553282011794" lon="9.79587518260241"><ele>1182.3333333333333</ele><time>2026-05-02T10:07:18Z</time></trkpt><trkpt lat="45.89043733695393" lon="9.795876248779837"><ele>1179.0</ele><time>2026-05-02T10:07:20Z</time></trkpt><trkpt lat="45.890388695609055" lon="9.79579098359979"><ele>1179.0</ele><time>2026-05-02T10:07:21Z</time></trkpt><trkpt lat="45.89036796897558" lon="9.795674012196596"><ele>1179.0</ele><time>2026-05-02T10:07:22Z</time></trkpt><trkpt lat="45.890366212089916" lon="9.795557706554844"><ele>1179.0</ele><time>2026-05-02T10:07:23Z</time></trkpt><trkpt lat="45.89035585920685" lon="9.795447160282999"><ele>1179.0</ele><time>2026-05-02T10:07:24Z</time></trkpt><trkpt lat="45.89034040702791" lon="9.795333312744898"><ele>1179.0</ele><time>2026-05-02T10:07:25Z</time></trkpt><trkpt lat="45.89031849040564" lon="9.795224173638267"><ele>1179.0</ele><time>2026-05-02T10:07:26Z</time></trkpt><trkpt lat="45.890303679284564" lon="9.79510619761994"><ele>1176.5</ele><time>2026-05-02T10:07:27Z</time></trkpt><trkpt lat="45.8902968870127" lon="9.794989635443747"><ele>1174.0</ele><time>2026-05-02T10:07:28Z</time></trkpt><trkpt lat="45.89028762057222" lon="9.79486670342476"><ele>1171.5</ele><time>2026-05-02T10:07:29Z</time></trkpt><trkpt lat="45.89028351258813" lon="9.794741705527693"><ele>1169.0</ele><time>2026-05-02T10:07:30Z</time></trkpt><trkpt lat="45.89030070876213" lon="9.794624076444174"><ele>1166.5</ele><time>2026-05-02T10:07:31Z</time></trkpt><trkpt lat="45.89033801114624" lon="9.794518517891145"><ele>1164.0</ele><time>2026-05-02T10:07:32Z</time></trkpt><trkpt lat="45.8903827466547" lon="9.794433493901426"><ele>1164.0</ele><time>2026-05-02T10:07:33Z</time></trkpt><trkpt lat="45.89042461220216" lon="9.794339368342987"><ele>1164.0</ele><time>2026-05-02T10:07:34Z</time></trkpt><trkpt lat="45.89046094337861" lon="9.79423248109228"><ele>1164.0</ele><time>2026-05-02T10:07:35Z</time></trkpt><trkpt lat="45.89049395500799" lon="9.794119753621102"><ele>1164.0</ele><time>2026-05-02T10:07:36Z</time></trkpt><trkpt lat="45.89050625519049" lon="9.794000488182503"><ele>1164.0</ele><time>2026-05-02T10:07:37Z</time></trkpt><trkpt lat="45.89048330530067" lon="9.793876618845182"><ele>1164.0</ele><time>2026-05-02T10:07:38Z</time></trkpt><trkpt lat="45.89043565807261" lon="9.79375938450846"><ele>1165.5</ele><time>2026-05-02T10:07:39Z</time></trkpt><trkpt lat="45.89037757958676" lon="9.793663642407415"><ele>1167.0</ele><time>2026-05-02T10:07:40Z</time></trkpt><trkpt lat="45.890310858592166" lon="9.793589980083663"><ele>1168.5</ele><time>2026-05-02T10:07:41Z</time></trkpt><trkpt lat="45.890232570655634" lon="9.793546686020404"><ele>1170.0</ele><time>2026-05-02T10:07:42Z</time></trkpt><trkpt lat="45.89014167071553" lon="9.793539518862415"><ele>1171.5</ele><time>2026-05-02T10:07:43Z</time></trkpt><trkpt lat="45.890048017070725" lon="9.793581053627676"><ele>1173.0</ele><time>2026-05-02T10:07:44Z</time></trkpt><trkpt lat="45.88995904023739" lon="9.79362837718603"><ele>1173.0</ele><time>2026-05-02T10:07:45Z</time></trkpt><trkpt lat="45.88986847225396" lon="9.793674832395375"><ele>1173.0</ele><time>2026-05-02T10:07:46Z</time></trkpt><trkpt lat="45.88977593977209" lon="9.793725846454954"><ele>1173.0</ele><time>2026-05-02T10:07:47Z</time></trkpt><trkpt lat="45.88968589957837" lon="9.793783504083882"><ele>1173.0</ele><time>2026-05-02T10:07:48Z</time></trkpt><trkpt lat="45.88960813328625" lon="9.793835968098241"><ele>1173.0</ele><time>2026-05-02T10:07:49Z</time></trkpt><trkpt lat="45.889541764954956" lon="9.793879992834201"><ele>1173.0</ele><time>2026-05-02T10:07:50Z</time></trkpt><trkpt lat="45.88941714300474" lon="9.793783297677018"><ele>1173.0</ele><time>2026-05-02T10:07:52Z</time></trkpt><trkpt lat="45.88936921839819" lon="9.793667397717076"><ele>1173.0</ele><time>2026-05-02T10:07:53Z</time></trkpt><trkpt lat="45.889344282423046" lon="9.793547850967796"><ele>1173.0</ele><time>2026-05-02T10:07:54Z</time></trkpt><trkpt lat="45.88935056648776" lon="9.79343276586625"><ele>1173.0</ele><time>2026-05-02T10:07:55Z</time></trkpt><trkpt lat="45.88939635821093" lon="9.79333810590194"><ele>1169.2</ele><time>2026-05-02T10:07:56Z</time></trkpt><trkpt lat="45.88947590222999" lon="9.793277008937032"><ele>1165.4</ele><time>2026-05-02T10:07:57Z</time></trkpt><trkpt lat="45.88956583357681" lon="9.793245405309884"><ele>1161.6000000000001</ele><time>2026-05-02T10:07:58Z</time></trkpt><trkpt lat="45.88964094580353" lon="9.793191125229347"><ele>1157.8</ele><time>2026-05-02T10:07:59Z</time></trkpt><trkpt lat="45.88970078305376" lon="9.79309086402408"><ele>1154.0</ele><time>2026-05-02T10:08:00Z</time></trkpt><trkpt lat="45.88973922423993" lon="9.792968982900385"><ele>1154.0</ele><time>2026-05-02T10:08:01Z</time></trkpt><trkpt lat="45.889770299191476" lon="9.792844667681411"><ele>1154.0</ele><time>2026-05-02T10:08:02Z</time></trkpt><trkpt lat="45.88981763517432" lon="9.792730719747025"><ele>1154.0</ele><time>2026-05-02T10:08:03Z</time></trkpt><trkpt lat="45.88989975329138" lon="9.792646378487195"><ele>1154.0</ele><time>2026-05-02T10:08:04Z</time></trkpt><trkpt lat="45.889994948836026" lon="9.792586589052412"><ele>1154.0</ele><time>2026-05-02T10:08:05Z</time></trkpt><trkpt lat="45.89007840004692" lon="9.792508774193509"><ele>1149.0</ele><time>2026-05-02T10:08:06Z</time></trkpt><trkpt lat="45.89016531253285" lon="9.79243142474877"><ele>1144.0</ele><time>2026-05-02T10:08:07Z</time></trkpt><trkpt lat="45.8902542411846" lon="9.79236075212379"><ele>1139.0</ele><time>2026-05-02T10:08:08Z</time></trkpt><trkpt lat="45.89034523896988" lon="9.792291220494645"><ele>1134.0</ele><time>2026-05-02T10:08:09Z</time></trkpt><trkpt lat="45.89043659165266" lon="9.792221785496919"><ele>1129.0</ele><time>2026-05-02T10:08:10Z</time></trkpt><trkpt lat="45.89052633180655" lon="9.792140969804034"><ele>1129.0</ele><time>2026-05-02T10:08:11Z</time></trkpt><trkpt lat="45.89061595703001" lon="9.792054703273116"><ele>1129.0</ele><time>2026-05-02T10:08:12Z</time></trkpt><trkpt lat="45.89070927463071" lon="9.79197594431953"><ele>1129.0</ele><time>2026-05-02T10:08:13Z</time></trkpt><trkpt lat="45.890802770744564" lon="9.791895350366396"><ele>1129.0</ele><time>2026-05-02T10:08:14Z</time></trkpt><trkpt lat="45.89089140022274" lon="9.791810547000113"><ele>1129.0</ele><time>2026-05-02T10:08:15Z</time></trkpt><trkpt lat="45.89098139724466" lon="9.791731549902092"><ele>1124.0</ele><time>2026-05-02T10:08:16Z</time></trkpt><trkpt lat="45.89107488716068" lon="9.791648733826861"><ele>1119.0</ele><time>2026-05-02T10:08:17Z</time></trkpt><trkpt lat="45.89116920269021" lon="9.79155595602434"><ele>1114.0</ele><time>2026-05-02T10:08:18Z</time></trkpt><trkpt lat="45.89126107976596" lon="9.7914543337752"><ele>1109.0</ele><time>2026-05-02T10:08:19Z</time></trkpt><trkpt lat="45.891354318360676" lon="9.791353224617545"><ele>1109.0</ele><time>2026-05-02T10:08:20Z</time></trkpt><trkpt lat="45.891442008638336" lon="9.79124986715508"><ele>1109.0</ele><time>2026-05-02T10:08:21Z</time></trkpt><trkpt lat="45.89152860118767" lon="9.791144611688177"><ele>1109.0</ele><time>2026-05-02T10:08:22Z</time></trkpt><trkpt lat="45.89162126940627" lon="9.791045340214378"><ele>1109.0</ele><time>2026-05-02T10:08:23Z</time></trkpt><trkpt lat="45.89171539289947" lon="9.790942932018039"><ele>1105.8</ele><time>2026-05-02T10:08:24Z</time></trkpt><trkpt lat="45.891807202882205" lon="9.790834394188215"><ele>1102.6000000000001</ele><time>2026-05-02T10:08:25Z</time></trkpt><trkpt lat="45.891897835098895" lon="9.790729458680675"><ele>1099.4</ele><time>2026-05-02T10:08:26Z</time></trkpt><trkpt lat="45.89198249751632" lon="9.790631209902557"><ele>1096.2</ele><time>2026-05-02T10:08:27Z</time></trkpt><trkpt lat="45.892058106950095" lon="9.790543206580045"><ele>1093.0</ele><time>2026-05-02T10:08:28Z</time></trkpt><trkpt lat="45.89212420964948" lon="9.790465811583104"><ele>1093.0</ele><time>2026-05-02T10:08:29Z</time></trkpt><trkpt lat="45.89217830850368" lon="9.79039326021919"><ele>1093.0</ele><time>2026-05-02T10:08:30Z</time></trkpt><trkpt lat="45.89220763829315" lon="9.790228330004988"><ele>1093.0</ele><time>2026-05-02T10:08:32Z</time></trkpt><trkpt lat="45.892168231122156" lon="9.790138415712308"><ele>1093.0</ele><time>2026-05-02T10:08:33Z</time></trkpt><trkpt lat="45.89209961265301" lon="9.790076495609476"><ele>1093.0</ele><time>2026-05-02T10:08:34Z</time></trkpt><trkpt lat="45.892014104809085" lon="9.790035880840845"><ele>1093.0</ele><time>2026-05-02T10:08:35Z</time></trkpt><trkpt lat="45.89192112229573" lon="9.79001080968627"><ele>1093.8333333333333</ele><time>2026-05-02T10:08:36Z</time></trkpt><trkpt lat="45.89184457540111" lon="9.790028310440944"><ele>1094.6666666666665</ele><time>2026-05-02T10:08:37Z</time></trkpt><trkpt lat="45.89176039634985" lon="9.790020617874767"><ele>1095.5</ele><time>2026-05-02T10:08:38Z</time></trkpt><trkpt lat="45.89169215289103" lon="9.78999937379732"><ele>1096.3333333333333</ele><time>2026-05-02T10:08:39Z</time></trkpt><trkpt lat="45.89164580931452" lon="9.789937587395974"><ele>1097.1666666666667</ele><time>2026-05-02T10:08:40Z</time></trkpt><trkpt lat="45.89163519264136" lon="9.789830597334664"><ele>1098.0</ele><time>2026-05-02T10:08:41Z</time></trkpt><trkpt lat="45.891670379100184" lon="9.789727509530119"><ele>1098.0</ele><time>2026-05-02T10:08:42Z</time></trkpt><trkpt lat="45.89173016635784" lon="9.78965182359495"><ele>1098.0</ele><time>2026-05-02T10:08:43Z</time></trkpt><trkpt lat="45.89179644464872" lon="9.789593026462796"><ele>1098.0</ele><time>2026-05-02T10:08:44Z</time></trkpt><trkpt lat="45.891867799276824" lon="9.789528426759135"><ele>1098.0</ele><time>2026-05-02T10:08:45Z</time></trkpt><trkpt lat="45.89194111001679" lon="9.789455973378544"><ele>1098.0</ele><time>2026-05-02T10:08:46Z</time></trkpt><trkpt lat="45.89201597849737" lon="9.789378373344606"><ele>1098.0</ele><time>2026-05-02T10:08:47Z</time></trkpt><trkpt lat="45.89208901514722" lon="9.789294987707777"><ele>1096.8</ele><time>2026-05-02T10:08:48Z</time></trkpt><trkpt lat="45.8921599086339" lon="9.789198277487767"><ele>1095.6</ele><time>2026-05-02T10:08:49Z</time></trkpt><trkpt lat="45.8922231179531" lon="9.789096781992164"><ele>1094.4</ele><time>2026-05-02T10:08:50Z</time></trkpt><trkpt lat="45.892282082664416" lon="9.788982857249998"><ele>1093.2</ele><time>2026-05-02T10:08:51Z</time></trkpt><trkpt lat="45.89233415359648" lon="9.788880514587557"><ele>1092.0</ele><time>2026-05-02T10:08:52Z</time></trkpt><trkpt lat="45.89238213274766" lon="9.788793176637103"><ele>1092.0</ele><time>2026-05-02T10:08:53Z</time></trkpt><trkpt lat="45.89242526010733" lon="9.788719155137027"><ele>1092.0</ele><time>2026-05-02T10:08:54Z</time></trkpt><trkpt lat="45.89250199662161" lon="9.788567782838873"><ele>1092.0</ele><time>2026-05-02T10:08:56Z</time></trkpt><trkpt lat="45.89253885174999" lon="9.788472319613199"><ele>1092.0</ele><time>2026-05-02T10:08:57Z</time></trkpt><trkpt lat="45.892561102496074" lon="9.788356985672026"><ele>1092.0</ele><time>2026-05-02T10:08:58Z</time></trkpt><trkpt lat="45.89256249192079" lon="9.788226001288876"><ele>1092.0</ele><time>2026-05-02T10:08:59Z</time></trkpt><trkpt lat="45.89256468584947" lon="9.78809735630737"><ele>1091.5</ele><time>2026-05-02T10:09:00Z</time></trkpt><trkpt lat="45.892573898915" lon="9.787991645506379"><ele>1091.0</ele><time>2026-05-02T10:09:01Z</time></trkpt><trkpt lat="45.89262307520653" lon="9.78782188749703"><ele>1090.5</ele><time>2026-05-02T10:09:03Z</time></trkpt><trkpt lat="45.89266642287453" lon="9.787734761796525"><ele>1090.0</ele><time>2026-05-02T10:09:04Z</time></trkpt><trkpt lat="45.89270808861564" lon="9.787643933168766"><ele>1089.5</ele><time>2026-05-02T10:09:05Z</time></trkpt><trkpt lat="45.89273727795317" lon="9.787547565710478"><ele>1089.0</ele><time>2026-05-02T10:09:06Z</time></trkpt><trkpt lat="45.892761436496386" lon="9.787436728564247"><ele>1088.5</ele><time>2026-05-02T10:09:07Z</time></trkpt><trkpt lat="45.89277339006453" lon="9.787317772911143"><ele>1088.0</ele><time>2026-05-02T10:09:08Z</time></trkpt><trkpt lat="45.89277088521052" lon="9.787201599649398"><ele>1087.5</ele><time>2026-05-02T10:09:09Z</time></trkpt><trkpt lat="45.8927496003105" lon="9.78709396220076"><ele>1087.0</ele><time>2026-05-02T10:09:10Z</time></trkpt><trkpt lat="45.89270923160736" lon="9.787003947274279"><ele>1086.5</ele><time>2026-05-02T10:09:11Z</time></trkpt><trkpt lat="45.892645705094644" lon="9.78694577135431"><ele>1086.0</ele><time>2026-05-02T10:09:12Z</time></trkpt><trkpt lat="45.8925689078486" lon="9.786932132041986"><ele>1086.0</ele><time>2026-05-02T10:09:13Z</time></trkpt><trkpt lat="45.89249807934784" lon="9.786957065992306"><ele>1086.0</ele><time>2026-05-02T10:09:14Z</time></trkpt><trkpt lat="45.892431118004176" lon="9.786989180655052"><ele>1086.0</ele><time>2026-05-02T10:09:15Z</time></trkpt><trkpt lat="45.8923651393406" lon="9.787008410130412"><ele>1086.0</ele><time>2026-05-02T10:09:16Z</time></trkpt><trkpt lat="45.89229854831508" lon="9.787033096665125"><ele>1086.0</ele><time>2026-05-02T10:09:17Z</time></trkpt><trkpt lat="45.89223304592593" lon="9.78706300802495"><ele>1086.0</ele><time>2026-05-02T10:09:18Z</time></trkpt><trkpt lat="45.892168001137385" lon="9.787094589730016"><ele>1086.0</ele><time>2026-05-02T10:09:19Z</time></trkpt><trkpt lat="45.89210232969496" lon="9.787119235808099"><ele>1086.0</ele><time>2026-05-02T10:09:20Z</time></trkpt><trkpt lat="45.89203323892941" lon="9.787105112930337"><ele>1086.0</ele><time>2026-05-02T10:09:21Z</time></trkpt><trkpt lat="45.89197557709803" lon="9.787046499105903"><ele>1086.0</ele><time>2026-05-02T10:09:22Z</time></trkpt><trkpt lat="45.89193371985258" lon="9.786963044383437"><ele>1086.0</ele><time>2026-05-02T10:09:23Z</time></trkpt><trkpt lat="45.89190342852706" lon="9.786876370027974"><ele>1086.0</ele><time>2026-05-02T10:09:24Z</time></trkpt><trkpt lat="45.89186792276187" lon="9.786795383938133"><ele>1086.0</ele><time>2026-05-02T10:09:25Z</time></trkpt><trkpt lat="45.891830538278086" lon="9.786717611004882"><ele>1086.0</ele><time>2026-05-02T10:09:26Z</time></trkpt><trkpt lat="45.8917905265693" lon="9.786645592037031"><ele>1084.2857142857142</ele><time>2026-05-02T10:09:27Z</time></trkpt><trkpt lat="45.89173949043567" lon="9.786587570533818"><ele>1082.5714285714284</ele><time>2026-05-02T10:09:28Z</time></trkpt><trkpt lat="45.891672496916684" lon="9.786566988950716"><ele>1080.8571428571427</ele><time>2026-05-02T10:09:29Z</time></trkpt><trkpt lat="45.89160508825398" lon="9.78656264146052"><ele>1079.142857142857</ele><time>2026-05-02T10:09:30Z</time></trkpt><trkpt lat="45.89153436495124" lon="9.786559311911486"><ele>1077.4285714285713</ele><time>2026-05-02T10:09:31Z</time></trkpt><trkpt lat="45.891462487610006" lon="9.786564551038234"><ele>1075.7142857142856</ele><time>2026-05-02T10:09:32Z</time></trkpt><trkpt lat="45.89138986238367" lon="9.786570785680471"><ele>1074.0</ele><time>2026-05-02T10:09:33Z</time></trkpt><trkpt lat="45.89131727685214" lon="9.78657562597915"><ele>1073.9999999999998</ele><time>2026-05-02T10:09:34Z</time></trkpt><trkpt lat="45.89124411618374" lon="9.78657493518872"><ele>1074.0</ele><time>2026-05-02T10:09:35Z</time></trkpt><trkpt lat="45.89117159129945" lon="9.786572674448387"><ele>1074.0</ele><time>2026-05-02T10:09:36Z</time></trkpt><trkpt lat="45.89109951845488" lon="9.786564337308365"><ele>1074.0</ele><time>2026-05-02T10:09:37Z</time></trkpt><trkpt lat="45.89102973296989" lon="9.786547079518884"><ele>1074.0</ele><time>2026-05-02T10:09:38Z</time></trkpt><trkpt lat="45.89096172755624" lon="9.786524095230387"><ele>1073.9999999999998</ele><time>2026-05-02T10:09:39Z</time></trkpt><trkpt lat="45.89089499484151" lon="9.786507703708777"><ele>1074.0</ele><time>2026-05-02T10:09:40Z</time></trkpt><trkpt lat="45.89082652339172" lon="9.786507804970928"><ele>1074.4285714285713</ele><time>2026-05-02T10:09:41Z</time></trkpt><trkpt lat="45.890761509680345" lon="9.786532865096495"><ele>1074.857142857143</ele><time>2026-05-02T10:09:42Z</time></trkpt><trkpt lat="45.89070146582322" lon="9.78657606941602"><ele>1075.2857142857142</ele><time>2026-05-02T10:09:43Z</time></trkpt><trkpt lat="45.89064788083943" lon="9.786638427539128"><ele>1075.7142857142858</ele><time>2026-05-02T10:09:44Z</time></trkpt><trkpt lat="45.89059310463849" lon="9.786698754167608"><ele>1076.142857142857</ele><time>2026-05-02T10:09:45Z</time></trkpt><trkpt lat="45.89053749615445" lon="9.78675836975983"><ele>1076.5714285714284</ele><time>2026-05-02T10:09:46Z</time></trkpt><trkpt lat="45.89047879281013" lon="9.78681713051481"><ele>1077.0</ele><time>2026-05-02T10:09:47Z</time></trkpt><trkpt lat="45.89041822668665" lon="9.786872999811209"><ele>1080.0</ele><time>2026-05-02T10:09:48Z</time></trkpt><trkpt lat="45.890355766498544" lon="9.786925672509573"><ele>1083.0</ele><time>2026-05-02T10:09:49Z</time></trkpt><trkpt lat="45.89029369072802" lon="9.78697918301855"><ele>1086.0</ele><time>2026-05-02T10:09:50Z</time></trkpt><trkpt lat="45.89023321017923" lon="9.78703416015088"><ele>1089.0</ele><time>2026-05-02T10:09:51Z</time></trkpt><trkpt lat="45.89017245598524" lon="9.787091504510858"><ele>1092.0</ele><time>2026-05-02T10:09:52Z</time></trkpt><trkpt lat="45.8901090088057" lon="9.787144493216006"><ele>1095.0</ele><time>2026-05-02T10:09:53Z</time></trkpt><trkpt lat="45.890043990232435" lon="9.78719524961168"><ele>1098.0</ele><time>2026-05-02T10:09:54Z</time></trkpt><trkpt lat="45.88998008968573" lon="9.787247208026002"><ele>1098.0</ele><time>2026-05-02T10:09:55Z</time></trkpt><trkpt lat="45.889916886321615" lon="9.787302852675921"><ele>1098.0</ele><time>2026-05-02T10:09:56Z</time></trkpt><trkpt lat="45.88985185789397" lon="9.787353377155338"><ele>1098.0</ele><time>2026-05-02T10:09:57Z</time></trkpt><trkpt lat="45.88978342052424" lon="9.787395874946167"><ele>1098.0</ele><time>2026-05-02T10:09:58Z</time></trkpt><trkpt lat="45.88971205995271" lon="9.787424060387382"><ele>1098.0</ele><time>2026-05-02T10:09:59Z</time></trkpt><trkpt lat="45.889638734037845" lon="9.7874394959547"><ele>1098.0</ele><time>2026-05-02T10:10:00Z</time></trkpt><trkpt lat="45.88956417790049" lon="9.787449198668607"><ele>1098.0</ele><time>2026-05-02T10:10:01Z</time></trkpt><trkpt lat="45.88948633369076" lon="9.7874332655715"><ele>1098.0</ele><time>2026-05-02T10:10:02Z</time></trkpt><trkpt lat="45.8894180847577" lon="9.787382478932269"><ele>1098.0</ele><time>2026-05-02T10:10:03Z</time></trkpt><trkpt lat="45.88936177036942" lon="9.787289731371493"><ele>1098.0</ele><time>2026-05-02T10:10:04Z</time></trkpt><trkpt lat="45.88933357067516" lon="9.787176994261436"><ele>1098.0</ele><time>2026-05-02T10:10:05Z</time></trkpt><trkpt lat="45.88933695400631" lon="9.787043816779333"><ele>1098.0</ele><time>2026-05-02T10:10:06Z</time></trkpt><trkpt lat="45.88937283494428" lon="9.786926238877012"><ele>1098.0</ele><time>2026-05-02T10:10:07Z</time></trkpt><trkpt lat="45.889405524827716" lon="9.786815066870233"><ele>1092.1666666666667</ele><time>2026-05-02T10:10:08Z</time></trkpt><trkpt lat="45.889432733352905" lon="9.786693007286633"><ele>1086.3333333333333</ele><time>2026-05-02T10:10:09Z</time></trkpt><trkpt lat="45.8894470712567" lon="9.78656637702115"><ele>1080.5</ele><time>2026-05-02T10:10:10Z</time></trkpt><trkpt lat="45.88946598611563" lon="9.786440927667838"><ele>1074.6666666666665</ele><time>2026-05-02T10:10:11Z</time></trkpt><trkpt lat="45.889482850663" lon="9.786315545327039"><ele>1068.8333333333333</ele><time>2026-05-02T10:10:12Z</time></trkpt><trkpt lat="45.8894996579307" lon="9.78619319799794"><ele>1063.0</ele><time>2026-05-02T10:10:13Z</time></trkpt><trkpt lat="45.88950891666914" lon="9.786080988489946"><ele>1063.857142857143</ele><time>2026-05-02T10:10:14Z</time></trkpt><trkpt lat="45.889498450289985" lon="9.785975071574992"><ele>1064.7142857142858</ele><time>2026-05-02T10:10:15Z</time></trkpt><trkpt lat="45.88946322850528" lon="9.78588235895804"><ele>1065.5714285714287</ele><time>2026-05-02T10:10:16Z</time></trkpt><trkpt lat="45.889402520923866" lon="9.785816486127057"><ele>1066.4285714285716</ele><time>2026-05-02T10:10:17Z</time></trkpt><trkpt lat="45.889331339587656" lon="9.78578244949707"><ele>1067.2857142857144</ele><time>2026-05-02T10:10:18Z</time></trkpt><trkpt lat="45.889262929210936" lon="9.78576089749411"><ele>1068.142857142857</ele><time>2026-05-02T10:10:19Z</time></trkpt><trkpt lat="45.88919454597129" lon="9.785737070665874"><ele>1069.0</ele><time>2026-05-02T10:10:20Z</time></trkpt><trkpt lat="45.88912610753457" lon="9.78571549796767"><ele>1069.0</ele><time>2026-05-02T10:10:21Z</time></trkpt><trkpt lat="45.88905773889447" lon="9.785694756784808"><ele>1069.0</ele><time>2026-05-02T10:10:22Z</time></trkpt><trkpt lat="45.88898882499972" lon="9.785676195835288"><ele>1069.0</ele><time>2026-05-02T10:10:23Z</time></trkpt><trkpt lat="45.88892095661038" lon="9.785648088141212"><ele>1069.0</ele><time>2026-05-02T10:10:24Z</time></trkpt><trkpt lat="45.888854586555034" lon="9.785619304431233"><ele>1069.0</ele><time>2026-05-02T10:10:25Z</time></trkpt><trkpt lat="45.88878682977671" lon="9.785595778669132"><ele>1069.0</ele><time>2026-05-02T10:10:26Z</time></trkpt><trkpt lat="45.88872225217787" lon="9.78557691149979"><ele>1069.0</ele><time>2026-05-02T10:10:27Z</time></trkpt><trkpt lat="45.888656581850604" lon="9.785545754967174"><ele>1069.0</ele><time>2026-05-02T10:10:29Z</time></trkpt><trkpt lat="45.88857855444117" lon="9.785548728660727"><ele>1069.0</ele><time>2026-05-02T10:11:06Z</time></trkpt><trkpt lat="45.88849003007184" lon="9.7855171914155"><ele>1069.0</ele><time>2026-05-02T10:11:09Z</time></trkpt><trkpt lat="45.888405355524554" lon="9.785483341874627"><ele>1069.0</ele><time>2026-05-02T10:11:11Z</time></trkpt><trkpt lat="45.888296241481534" lon="9.785472410726348"><ele>1069.0</ele><time>2026-05-02T10:11:13Z</time></trkpt><trkpt lat="45.88823349208264" lon="9.78548516362513"><ele>1069.0</ele><time>2026-05-02T10:11:14Z</time></trkpt><trkpt lat="45.88810880108421" lon="9.785511181422946"><ele>1070.2857142857142</ele><time>2026-05-02T10:11:16Z</time></trkpt><trkpt lat="45.88804544303474" lon="9.785523160088339"><ele>1071.5714285714287</ele><time>2026-05-02T10:11:17Z</time></trkpt><trkpt lat="45.88798270994129" lon="9.785534797606651"><ele>1072.857142857143</ele><time>2026-05-02T10:11:18Z</time></trkpt><trkpt lat="45.88791651009195" lon="9.785549668908967"><ele>1074.142857142857</ele><time>2026-05-02T10:11:19Z</time></trkpt><trkpt lat="45.88784984725266" lon="9.785558165872466"><ele>1075.4285714285716</ele><time>2026-05-02T10:11:20Z</time></trkpt><trkpt lat="45.88778031813735" lon="9.785571340334938"><ele>1076.7142857142858</ele><time>2026-05-02T10:11:21Z</time></trkpt><trkpt lat="45.887708619955156" lon="9.785578082945772"><ele>1078.0</ele><time>2026-05-02T10:11:22Z</time></trkpt><trkpt lat="45.88763381612741" lon="9.785574769879577"><ele>1078.2857142857142</ele><time>2026-05-02T10:11:23Z</time></trkpt><trkpt lat="45.88756134106221" lon="9.785571226006072"><ele>1078.5714285714284</ele><time>2026-05-02T10:11:24Z</time></trkpt><trkpt lat="45.88748306256398" lon="9.785574232756684"><ele>1078.857142857143</ele><time>2026-05-02T10:11:25Z</time></trkpt><trkpt lat="45.887418968020626" lon="9.785583120902075"><ele>1079.142857142857</ele><time>2026-05-02T10:11:26Z</time></trkpt><trkpt lat="45.88735341224964" lon="9.785607719808757"><ele>1079.4285714285713</ele><time>2026-05-02T10:11:27Z</time></trkpt><trkpt lat="45.887294015537655" lon="9.785659417777108"><ele>1079.7142857142858</ele><time>2026-05-02T10:11:28Z</time></trkpt><trkpt lat="45.887242079214026" lon="9.785729702031682"><ele>1080.0</ele><time>2026-05-02T10:11:29Z</time></trkpt><trkpt lat="45.88720053882277" lon="9.785818232185965"><ele>1080.0</ele><time>2026-05-02T10:11:30Z</time></trkpt><trkpt lat="45.88714877586847" lon="9.785888983599015"><ele>1080.0</ele><time>2026-05-02T10:11:31Z</time></trkpt><trkpt lat="45.887082497515124" lon="9.785938427513434"><ele>1080.0</ele><time>2026-05-02T10:11:32Z</time></trkpt><trkpt lat="45.887011270734604" lon="9.785969326149997"><ele>1080.0</ele><time>2026-05-02T10:11:33Z</time></trkpt><trkpt lat="45.88693678888177" lon="9.785962536704487"><ele>1080.0</ele><time>2026-05-02T10:11:34Z</time></trkpt><trkpt lat="45.88686313531235" lon="9.785923943100155"><ele>1080.0</ele><time>2026-05-02T10:11:35Z</time></trkpt><trkpt lat="45.88682400610575" lon="9.785837776313295"><ele>1080.0</ele><time>2026-05-02T10:11:36Z</time></trkpt><trkpt lat="45.88680059737056" lon="9.785730124327808"><ele>1080.0</ele><time>2026-05-02T10:11:37Z</time></trkpt><trkpt lat="45.88678203101071" lon="9.785635118587326"><ele>1080.0</ele><time>2026-05-02T10:11:38Z</time></trkpt><trkpt lat="45.88675392411097" lon="9.785546495534971"><ele>1080.0</ele><time>2026-05-02T10:11:39Z</time></trkpt><trkpt lat="45.88672070286812" lon="9.785459149376626"><ele>1080.0</ele><time>2026-05-02T10:11:40Z</time></trkpt><trkpt lat="45.88668415409813" lon="9.785374871257279"><ele>1080.0</ele><time>2026-05-02T10:11:41Z</time></trkpt><trkpt lat="45.88665027578317" lon="9.785281449809187"><ele>1080.0</ele><time>2026-05-02T10:11:42Z</time></trkpt><trkpt lat="45.88665215790799" lon="9.785172818110944"><ele>1080.0</ele><time>2026-05-02T10:11:43Z</time></trkpt><trkpt lat="45.886682040672355" lon="9.785071734725983"><ele>1080.4285714285713</ele><time>2026-05-02T10:11:44Z</time></trkpt><trkpt lat="45.88673602709826" lon="9.78499158261129"><ele>1080.8571428571427</ele><time>2026-05-02T10:11:45Z</time></trkpt><trkpt lat="45.88680390935792" lon="9.784937643594507"><ele>1081.2857142857142</ele><time>2026-05-02T10:11:46Z</time></trkpt><trkpt lat="45.88686010292375" lon="9.784876276276922"><ele>1081.7142857142858</ele><time>2026-05-02T10:11:47Z</time></trkpt><trkpt lat="45.88691746718658" lon="9.784816814427206"><ele>1082.1428571428573</ele><time>2026-05-02T10:11:48Z</time></trkpt><trkpt lat="45.88697885018371" lon="9.784750980357776"><ele>1082.5714285714287</ele><time>2026-05-02T10:11:49Z</time></trkpt><trkpt lat="45.88702650518689" lon="9.784684932017187"><ele>1083.0</ele><time>2026-05-02T10:11:50Z</time></trkpt><trkpt lat="45.88707567819668" lon="9.78461002231713"><ele>1079.2857142857142</ele><time>2026-05-02T10:11:51Z</time></trkpt><trkpt lat="45.8871198942647" lon="9.784519144511412"><ele>1075.5714285714287</ele><time>2026-05-02T10:11:52Z</time></trkpt><trkpt lat="45.887150462831656" lon="9.784430944956462"><ele>1071.857142857143</ele><time>2026-05-02T10:11:53Z</time></trkpt><trkpt lat="45.887166968605136" lon="9.784327302039843"><ele>1068.142857142857</ele><time>2026-05-02T10:11:54Z</time></trkpt><trkpt lat="45.88716205981113" lon="9.78422475960352"><ele>1064.4285714285716</ele><time>2026-05-02T10:11:55Z</time></trkpt><trkpt lat="45.88712494225887" lon="9.784130527115847"><ele>1060.7142857142858</ele><time>2026-05-02T10:11:56Z</time></trkpt><trkpt lat="45.88707224200734" lon="9.784054866423675"><ele>1057.0</ele><time>2026-05-02T10:11:57Z</time></trkpt><trkpt lat="45.88702518814946" lon="9.783979011183245"><ele>1056.857142857143</ele><time>2026-05-02T10:11:58Z</time></trkpt><trkpt lat="45.886978209634876" lon="9.783905225893744"><ele>1056.7142857142858</ele><time>2026-05-02T10:11:59Z</time></trkpt><trkpt lat="45.88692932300406" lon="9.783836950152116"><ele>1056.5714285714284</ele><time>2026-05-02T10:12:00Z</time></trkpt><trkpt lat="45.88688930245119" lon="9.783758482545347"><ele>1056.4285714285716</ele><time>2026-05-02T10:12:01Z</time></trkpt><trkpt lat="45.886887087864544" lon="9.783663021121468"><ele>1056.2857142857142</ele><time>2026-05-02T10:12:02Z</time></trkpt><trkpt lat="45.88692645240826" lon="9.783574488860923"><ele>1056.142857142857</ele><time>2026-05-02T10:12:03Z</time></trkpt><trkpt lat="45.886990830007285" lon="9.783534935423772"><ele>1056.0</ele><time>2026-05-02T10:12:04Z</time></trkpt><trkpt lat="45.88707473590808" lon="9.783541358455995"><ele>1056.0</ele><time>2026-05-02T10:12:05Z</time></trkpt><trkpt lat="45.8871426765399" lon="9.78354757174658"><ele>1056.0</ele><time>2026-05-02T10:12:06Z</time></trkpt><trkpt lat="45.88721078352881" lon="9.783543912399951"><ele>1056.0</ele><time>2026-05-02T10:12:07Z</time></trkpt><trkpt lat="45.88727713787608" lon="9.78353444890046"><ele>1056.0</ele><time>2026-05-02T10:12:08Z</time></trkpt><trkpt lat="45.88734327304395" lon="9.783524977006918"><ele>1056.0</ele><time>2026-05-02T10:12:09Z</time></trkpt><trkpt lat="45.88741096291017" lon="9.7835122765725"><ele>1056.0</ele><time>2026-05-02T10:12:10Z</time></trkpt><trkpt lat="45.88747980151591" lon="9.78350346720191"><ele>1056.0</ele><time>2026-05-02T10:12:11Z</time></trkpt><trkpt lat="45.88754919954173" lon="9.783493861832897"><ele>1054.8333333333333</ele><time>2026-05-02T10:12:12Z</time></trkpt><trkpt lat="45.88761372229715" lon="9.783484178915655"><ele>1053.6666666666667</ele><time>2026-05-02T10:12:13Z</time></trkpt><trkpt lat="45.88767884587085" lon="9.783480132321177"><ele>1052.5</ele><time>2026-05-02T10:12:14Z</time></trkpt><trkpt lat="45.88774611049948" lon="9.783480242612377"><ele>1051.3333333333335</ele><time>2026-05-02T10:12:15Z</time></trkpt><trkpt lat="45.88786824443789" lon="9.783486272162868"><ele>1050.1666666666667</ele><time>2026-05-02T10:12:17Z</time></trkpt><trkpt lat="45.88798779017097" lon="9.783480491352833"><ele>1049.0</ele><time>2026-05-02T10:12:19Z</time></trkpt><trkpt lat="45.888103167762814" lon="9.783458184619448"><ele>1049.0</ele><time>2026-05-02T10:12:21Z</time></trkpt><trkpt lat="45.888198747156125" lon="9.783376278239283"><ele>1049.0</ele><time>2026-05-02T10:12:23Z</time></trkpt><trkpt lat="45.88825493598308" lon="9.783235134424606"><ele>1049.0</ele><time>2026-05-02T10:12:25Z</time></trkpt><trkpt lat="45.88827325105635" lon="9.783054843265264"><ele>1049.0</ele><time>2026-05-02T10:12:27Z</time></trkpt><trkpt lat="45.888272636602736" lon="9.782961180992347"><ele>1049.0</ele><time>2026-05-02T10:12:28Z</time></trkpt><trkpt lat="45.88827337654886" lon="9.782866886380114"><ele>1049.0</ele><time>2026-05-02T10:12:29Z</time></trkpt><trkpt lat="45.888276362388105" lon="9.782774471272615"><ele>1049.0</ele><time>2026-05-02T10:12:30Z</time></trkpt><trkpt lat="45.88828034082273" lon="9.782682822857511"><ele>1049.0</ele><time>2026-05-02T10:12:31Z</time></trkpt><trkpt lat="45.88829021541462" lon="9.782505306512595"><ele>1049.0</ele><time>2026-05-02T10:12:33Z</time></trkpt><trkpt lat="45.88830745723007" lon="9.782336726205394"><ele>1049.0</ele><time>2026-05-02T10:12:35Z</time></trkpt><trkpt lat="45.88838365120325" lon="9.782215035293572"><ele>1047.8</ele><time>2026-05-02T10:12:37Z</time></trkpt><trkpt lat="45.88851057440747" lon="9.78223878057046"><ele>1046.6000000000001</ele><time>2026-05-02T10:12:39Z</time></trkpt><trkpt lat="45.88856845063647" lon="9.782297846992495"><ele>1045.4</ele><time>2026-05-02T10:12:40Z</time></trkpt><trkpt lat="45.88862144396911" lon="9.782351525267236"><ele>1044.2</ele><time>2026-05-02T10:12:41Z</time></trkpt><trkpt lat="45.8887371494751" lon="9.782413813908857"><ele>1043.0</ele><time>2026-05-02T10:12:43Z</time></trkpt><trkpt lat="45.88880083934417" lon="9.782412337151232"><ele>1043.0</ele><time>2026-05-02T10:12:44Z</time></trkpt><trkpt lat="45.88886616367781" lon="9.782387758524395"><ele>1043.0</ele><time>2026-05-02T10:12:45Z</time></trkpt><trkpt lat="45.88892188443157" lon="9.782333732959662"><ele>1043.0</ele><time>2026-05-02T10:12:46Z</time></trkpt><trkpt lat="45.88896391506151" lon="9.782255589872234"><ele>1043.0</ele><time>2026-05-02T10:12:47Z</time></trkpt><trkpt lat="45.888992959491304" lon="9.782167270972632"><ele>1043.0</ele><time>2026-05-02T10:12:48Z</time></trkpt><trkpt lat="45.889021228458326" lon="9.782082625366012"><ele>1043.0</ele><time>2026-05-02T10:12:49Z</time></trkpt><trkpt lat="45.889049947193755" lon="9.781996830313451"><ele>1043.0</ele><time>2026-05-02T10:12:50Z</time></trkpt><trkpt lat="45.88908245991747" lon="9.781915995368161"><ele>1045.5</ele><time>2026-05-02T10:12:51Z</time></trkpt><trkpt lat="45.88911475392233" lon="9.781835013823533"><ele>1048.0</ele><time>2026-05-02T10:12:52Z</time></trkpt><trkpt lat="45.88914729986938" lon="9.781753660887707"><ele>1050.5</ele><time>2026-05-02T10:12:53Z</time></trkpt><trkpt lat="45.88919364794431" lon="9.781587701467481"><ele>1053.0</ele><time>2026-05-02T10:12:55Z</time></trkpt><trkpt lat="45.88920231293561" lon="9.781496736083596"><ele>1055.5</ele><time>2026-05-02T10:12:56Z</time></trkpt><trkpt lat="45.889197191000726" lon="9.78139987440958"><ele>1058.0</ele><time>2026-05-02T10:12:57Z</time></trkpt><trkpt lat="45.889185401094295" lon="9.781307166967386"><ele>1058.0</ele><time>2026-05-02T10:12:58Z</time></trkpt><trkpt lat="45.889163261410346" lon="9.781220665223382"><ele>1058.0</ele><time>2026-05-02T10:12:59Z</time></trkpt><trkpt lat="45.889143137895786" lon="9.781129970162107"><ele>1058.0</ele><time>2026-05-02T10:13:00Z</time></trkpt><trkpt lat="45.889105311574504" lon="9.781055088629097"><ele>1058.0</ele><time>2026-05-02T10:13:01Z</time></trkpt><trkpt lat="45.889057885862336" lon="9.780957986342417"><ele>1058.0</ele><time>2026-05-02T10:13:02Z</time></trkpt><trkpt lat="45.889035789492034" lon="9.780783364949254"><ele>1058.0</ele><time>2026-05-02T10:13:04Z</time></trkpt><trkpt lat="45.88901300502968" lon="9.780693727102703"><ele>1058.0</ele><time>2026-05-02T10:13:05Z</time></trkpt><trkpt lat="45.888985977214226" lon="9.780604602662748"><ele>1058.0</ele><time>2026-05-02T10:13:06Z</time></trkpt><trkpt lat="45.8889523765117" lon="9.780525538269005"><ele>1058.0</ele><time>2026-05-02T10:13:07Z</time></trkpt><trkpt lat="45.888909267162234" lon="9.780451686971784"><ele>1058.0</ele><time>2026-05-02T10:13:08Z</time></trkpt><trkpt lat="45.888858253425624" lon="9.780398005402139"><ele>1058.0</ele><time>2026-05-02T10:13:09Z</time></trkpt><trkpt lat="45.88880030383091" lon="9.780354281921868"><ele>1058.0</ele><time>2026-05-02T10:13:10Z</time></trkpt><trkpt lat="45.888744635313955" lon="9.780311943581939"><ele>1058.0</ele><time>2026-05-02T10:13:11Z</time></trkpt><trkpt lat="45.8886305019416" lon="9.780245306913235"><ele>1057.4</ele><time>2026-05-02T10:13:13Z</time></trkpt><trkpt lat="45.888526263448966" lon="9.780173861727812"><ele>1056.8</ele><time>2026-05-02T10:13:15Z</time></trkpt><trkpt lat="45.88846028158407" lon="9.780045563403833"><ele>1056.2</ele><time>2026-05-02T10:13:17Z</time></trkpt><trkpt lat="45.88849729409426" lon="9.77989171683959"><ele>1055.6</ele><time>2026-05-02T10:13:19Z</time></trkpt><trkpt lat="45.88855442355617" lon="9.779843046263188"><ele>1055.0</ele><time>2026-05-02T10:13:20Z</time></trkpt><trkpt lat="45.8886182749097" lon="9.779802391873291"><ele>1055.0</ele><time>2026-05-02T10:13:21Z</time></trkpt><trkpt lat="45.88868110694932" lon="9.779772176076818"><ele>1055.0</ele><time>2026-05-02T10:13:22Z</time></trkpt><trkpt lat="45.88874765446359" lon="9.779745701213038"><ele>1055.0</ele><time>2026-05-02T10:13:23Z</time></trkpt><trkpt lat="45.888810311803795" lon="9.77971432789044"><ele>1055.0</ele><time>2026-05-02T10:13:24Z</time></trkpt><trkpt lat="45.88887242074439" lon="9.77968007654467"><ele>1055.0</ele><time>2026-05-02T10:13:25Z</time></trkpt><trkpt lat="45.888938128992" lon="9.7796482629043"><ele>1055.0</ele><time>2026-05-02T10:13:26Z</time></trkpt><trkpt lat="45.88900766671221" lon="9.779619828693182"><ele>1055.0</ele><time>2026-05-02T10:13:27Z</time></trkpt><trkpt lat="45.88907470535668" lon="9.77961114571474"><ele>1055.0</ele><time>2026-05-02T10:13:28Z</time></trkpt><trkpt lat="45.88914293996114" lon="9.77960163321805"><ele>1055.0</ele><time>2026-05-02T10:13:29Z</time></trkpt><trkpt lat="45.88921075340098" lon="9.7795926554024"><ele>1055.0</ele><time>2026-05-02T10:13:30Z</time></trkpt><trkpt lat="45.889275563241085" lon="9.779590844993981"><ele>1055.0</ele><time>2026-05-02T10:13:31Z</time></trkpt><trkpt lat="45.88934280874506" lon="9.779591765981603"><ele>1055.0</ele><time>2026-05-02T10:13:32Z</time></trkpt><trkpt lat="45.88940832473266" lon="9.779596971990344"><ele>1055.0</ele><time>2026-05-02T10:13:33Z</time></trkpt><trkpt lat="45.88947089281165" lon="9.779609883975931"><ele>1055.0</ele><time>2026-05-02T10:13:34Z</time></trkpt><trkpt lat="45.889594648838504" lon="9.779630442631456"><ele>1052.6</ele><time>2026-05-02T10:13:36Z</time></trkpt><trkpt lat="45.88971525713537" lon="9.779639342729757"><ele>1050.2</ele><time>2026-05-02T10:13:38Z</time></trkpt><trkpt lat="45.88982975199462" lon="9.7796524292335"><ele>1047.8</ele><time>2026-05-02T10:13:40Z</time></trkpt><trkpt lat="45.88992750905234" lon="9.77967568423806"><ele>1045.4</ele><time>2026-05-02T10:13:42Z</time></trkpt><trkpt lat="45.88999959351917" lon="9.779690653620493"><ele>1043.0</ele><time>2026-05-02T10:13:44Z</time></trkpt><trkpt lat="45.890062820144486" lon="9.779698503273906"><ele>1041.0</ele><time>2026-05-02T10:13:47Z</time></trkpt><trkpt lat="45.890155326378164" lon="9.779705366865896"><ele>1039.0</ele><time>2026-05-02T10:13:50Z</time></trkpt><trkpt lat="45.89024365493114" lon="9.779722233618545"><ele>1037.0</ele><time>2026-05-02T10:13:52Z</time></trkpt><trkpt lat="45.8903268208155" lon="9.779743843562368"><ele>1035.0</ele><time>2026-05-02T10:13:54Z</time></trkpt><trkpt lat="45.89040718466984" lon="9.77976077036703"><ele>1033.0</ele><time>2026-05-02T10:13:56Z</time></trkpt><trkpt lat="45.89048481773181" lon="9.779771438929311"><ele>1031.0</ele><time>2026-05-02T10:13:58Z</time></trkpt><trkpt lat="45.890568950533876" lon="9.779772940287634"><ele>1031.0</ele><time>2026-05-02T10:14:00Z</time></trkpt><trkpt lat="45.89065546753676" lon="9.779756919978324"><ele>1031.0</ele><time>2026-05-02T10:14:02Z</time></trkpt><trkpt lat="45.89074751366944" lon="9.779733479381918"><ele>1031.0</ele><time>2026-05-02T10:14:04Z</time></trkpt><trkpt lat="45.89084472979795" lon="9.77971012851537"><ele>1031.0</ele><time>2026-05-02T10:14:06Z</time></trkpt><trkpt lat="45.890947168940464" lon="9.779672823547893"><ele>1031.0</ele><time>2026-05-02T10:14:08Z</time></trkpt><trkpt lat="45.89106483710825" lon="9.779630583183598"><ele>1029.6666666666667</ele><time>2026-05-02T10:14:10Z</time></trkpt><trkpt lat="45.89118906041123" lon="9.779599709397909"><ele>1028.3333333333335</ele><time>2026-05-02T10:14:12Z</time></trkpt><trkpt lat="45.89125335152201" lon="9.779586417930771"><ele>1027.0</ele><time>2026-05-02T10:14:13Z</time></trkpt><trkpt lat="45.89131901233368" lon="9.779575080649622"><ele>1025.6666666666667</ele><time>2026-05-02T10:14:14Z</time></trkpt><trkpt lat="45.89138418292978" lon="9.779558451823593"><ele>1024.3333333333333</ele><time>2026-05-02T10:14:15Z</time></trkpt><trkpt lat="45.89145051482151" lon="9.779545033966794"><ele>1023.0</ele><time>2026-05-02T10:14:16Z</time></trkpt><trkpt lat="45.891516227082356" lon="9.779527118888634"><ele>1023.0</ele><time>2026-05-02T10:14:17Z</time></trkpt><trkpt lat="45.89157899213716" lon="9.779492767709156"><ele>1023.0</ele><time>2026-05-02T10:14:18Z</time></trkpt><trkpt lat="45.891640113714885" lon="9.779450140084162"><ele>1023.0</ele><time>2026-05-02T10:14:19Z</time></trkpt><trkpt lat="45.89170038101287" lon="9.77940066791305"><ele>1023.0</ele><time>2026-05-02T10:14:20Z</time></trkpt><trkpt lat="45.89175675011913" lon="9.779345402050225"><ele>1023.0</ele><time>2026-05-02T10:14:21Z</time></trkpt><trkpt lat="45.89181273816628" lon="9.779289181104456"><ele>1023.0</ele><time>2026-05-02T10:14:22Z</time></trkpt><trkpt lat="45.891871022929564" lon="9.779237408692687"><ele>1023.0</ele><time>2026-05-02T10:14:23Z</time></trkpt><trkpt lat="45.89192692094294" lon="9.779185936458068"><ele>1022.8571428571429</ele><time>2026-05-02T10:14:24Z</time></trkpt><trkpt lat="45.89197693944779" lon="9.779125854297407"><ele>1022.7142857142857</ele><time>2026-05-02T10:14:25Z</time></trkpt><trkpt lat="45.89201459136479" lon="9.779050763556098"><ele>1022.5714285714286</ele><time>2026-05-02T10:14:26Z</time></trkpt><trkpt lat="45.89202892744722" lon="9.77896266270791"><ele>1022.4285714285714</ele><time>2026-05-02T10:14:27Z</time></trkpt><trkpt lat="45.892000758871845" lon="9.778788306019052"><ele>1022.2857142857142</ele><time>2026-05-02T10:14:29Z</time></trkpt><trkpt lat="45.89196440135925" lon="9.778713509065378"><ele>1022.1428571428571</ele><time>2026-05-02T10:14:30Z</time></trkpt><trkpt lat="45.891924979651705" lon="9.778642188613789"><ele>1022.0</ele><time>2026-05-02T10:14:31Z</time></trkpt><trkpt lat="45.89185665525175" lon="9.778522311262325"><ele>1019.6</ele><time>2026-05-02T10:14:33Z</time></trkpt><trkpt lat="45.89179457677638" lon="9.778434279083914"><ele>1017.2</ele><time>2026-05-02T10:14:35Z</time></trkpt><trkpt lat="45.89172888750681" lon="9.778335295424467"><ele>1014.8</ele><time>2026-05-02T10:14:37Z</time></trkpt><trkpt lat="45.89166276226044" lon="9.77822023655728"><ele>1012.4</ele><time>2026-05-02T10:14:39Z</time></trkpt><trkpt lat="45.89158797252818" lon="9.778109874570431"><ele>1010.0</ele><time>2026-05-02T10:14:41Z</time></trkpt><trkpt lat="45.8914938575969" lon="9.778035827552115"><ele>1015.8</ele><time>2026-05-02T10:14:43Z</time></trkpt><trkpt lat="45.89138613075772" lon="9.777978267785336"><ele>1021.6</ele><time>2026-05-02T10:14:45Z</time></trkpt><trkpt lat="45.89127404647246" lon="9.777910500919713"><ele>1027.4</ele><time>2026-05-02T10:14:47Z</time></trkpt><trkpt lat="45.89115585947488" lon="9.7778416222593"><ele>1033.2</ele><time>2026-05-02T10:14:49Z</time></trkpt><trkpt lat="45.89109433925517" lon="9.777806520977524"><ele>1039.0</ele><time>2026-05-02T10:14:50Z</time></trkpt><trkpt lat="45.891032245056415" lon="9.777773360198298"><ele>1039.0</ele><time>2026-05-02T10:14:51Z</time></trkpt><trkpt lat="45.89097040806374" lon="9.777737427087494"><ele>1039.0</ele><time>2026-05-02T10:14:52Z</time></trkpt><trkpt lat="45.89091729075402" lon="9.777682282670566"><ele>1039.0</ele><time>2026-05-02T10:14:53Z</time></trkpt><trkpt lat="45.89087876072981" lon="9.777610054770166"><ele>1039.0</ele><time>2026-05-02T10:14:54Z</time></trkpt><trkpt lat="45.89087060571909" lon="9.777435255316403"><ele>1039.0</ele><time>2026-05-02T10:14:56Z</time></trkpt><trkpt lat="45.890873127550215" lon="9.777262445246077"><ele>1039.0</ele><time>2026-05-02T10:14:58Z</time></trkpt><trkpt lat="45.89086016037989" lon="9.777171614166722"><ele>1037.75</ele><time>2026-05-02T10:14:59Z</time></trkpt><trkpt lat="45.890820071561194" lon="9.777002523389488"><ele>1036.5</ele><time>2026-05-02T10:15:01Z</time></trkpt><trkpt lat="45.89076950997929" lon="9.776836516828423"><ele>1035.25</ele><time>2026-05-02T10:15:03Z</time></trkpt><trkpt lat="45.890726224665656" lon="9.776681645489413"><ele>1034.0</ele><time>2026-05-02T10:15:05Z</time></trkpt><trkpt lat="45.89068582635847" lon="9.776527316923712"><ele>1034.0</ele><time>2026-05-02T10:15:07Z</time></trkpt><trkpt lat="45.890636863808076" lon="9.77637218217404"><ele>1034.0</ele><time>2026-05-02T10:15:09Z</time></trkpt><trkpt lat="45.89056050039913" lon="9.776246654531114"><ele>1034.0</ele><time>2026-05-02T10:15:11Z</time></trkpt><trkpt lat="45.89046174169498" lon="9.776157181831458"><ele>1034.0</ele><time>2026-05-02T10:15:13Z</time></trkpt><trkpt lat="45.890360283472155" lon="9.776061408296217"><ele>1036.5</ele><time>2026-05-02T10:15:15Z</time></trkpt><trkpt lat="45.89026011089787" lon="9.775961279302928"><ele>1039.0</ele><time>2026-05-02T10:15:17Z</time></trkpt><trkpt lat="45.89017438165974" lon="9.775838178521225"><ele>1041.5</ele><time>2026-05-02T10:15:19Z</time></trkpt><trkpt lat="45.89012135517919" lon="9.775678838574905"><ele>1044.0</ele><time>2026-05-02T10:15:21Z</time></trkpt><trkpt lat="45.89008438955056" lon="9.775515722461332"><ele>1044.0</ele><time>2026-05-02T10:15:23Z</time></trkpt><trkpt lat="45.89002391277093" lon="9.775374457733284"><ele>1044.0</ele><time>2026-05-02T10:15:25Z</time></trkpt><trkpt lat="45.889934923563054" lon="9.775260226150145"><ele>1044.0</ele><time>2026-05-02T10:15:27Z</time></trkpt><trkpt lat="45.88983172563287" lon="9.775160141552782"><ele>1044.0</ele><time>2026-05-02T10:15:29Z</time></trkpt><trkpt lat="45.88973085226515" lon="9.77506088170834"><ele>1040.4</ele><time>2026-05-02T10:15:31Z</time></trkpt><trkpt lat="45.88966656277541" lon="9.774931828377609"><ele>1036.8000000000002</ele><time>2026-05-02T10:15:33Z</time></trkpt><trkpt lat="45.889643190669986" lon="9.774798103161194"><ele>1033.1999999999998</ele><time>2026-05-02T10:15:35Z</time></trkpt><trkpt lat="45.8896563504557" lon="9.774668658596717"><ele>1029.6</ele><time>2026-05-02T10:15:37Z</time></trkpt><trkpt lat="45.889671774021025" lon="9.774543313622925"><ele>1026.0</ele><time>2026-05-02T10:15:39Z</time></trkpt><trkpt lat="45.889683686677024" lon="9.774417468198013"><ele>1026.5</ele><time>2026-05-02T10:15:41Z</time></trkpt><trkpt lat="45.88969779666071" lon="9.774314041389948"><ele>1027.0</ele><time>2026-05-02T10:15:43Z</time></trkpt><trkpt lat="45.88971266115478" lon="9.774222747368661"><ele>1027.5</ele><time>2026-05-02T10:15:45Z</time></trkpt><trkpt lat="45.88974803881733" lon="9.774126903441411"><ele>1028.0</ele><time>2026-05-02T10:15:47Z</time></trkpt><trkpt lat="45.88983109170866" lon="9.774029040955561"><ele>1028.5</ele><time>2026-05-02T10:15:49Z</time></trkpt><trkpt lat="45.88994662804132" lon="9.773991057888738"><ele>1029.0</ele><time>2026-05-02T10:15:51Z</time></trkpt><trkpt lat="45.890064371057086" lon="9.7739788687563"><ele>1026.4</ele><time>2026-05-02T10:15:53Z</time></trkpt><trkpt lat="45.89017089066337" lon="9.773946423654216"><ele>1023.8000000000001</ele><time>2026-05-02T10:15:55Z</time></trkpt><trkpt lat="45.89027234514105" lon="9.773918608978109"><ele>1021.1999999999999</ele><time>2026-05-02T10:15:57Z</time></trkpt><trkpt lat="45.89035386614476" lon="9.773842820470529"><ele>1018.5999999999999</ele><time>2026-05-02T10:15:59Z</time></trkpt><trkpt lat="45.89037030568048" lon="9.773702135420095"><ele>1016.0</ele><time>2026-05-02T10:16:01Z</time></trkpt><trkpt lat="45.89030103364195" lon="9.77358423543614"><ele>1015.5999999999999</ele><time>2026-05-02T10:16:03Z</time></trkpt><trkpt lat="45.89021504628844" lon="9.773494527547125"><ele>1015.1999999999999</ele><time>2026-05-02T10:16:05Z</time></trkpt><trkpt lat="45.890125707077694" lon="9.77340177418617"><ele>1014.8000000000001</ele><time>2026-05-02T10:16:07Z</time></trkpt><trkpt lat="45.89005454844659" lon="9.773328485916858"><ele>1014.4000000000001</ele><time>2026-05-02T10:16:09Z</time></trkpt><trkpt lat="45.88999997386822" lon="9.773282564708428"><ele>1014.0</ele><time>2026-05-02T10:16:11Z</time></trkpt><trkpt lat="45.889922717346586" lon="9.773206528997711"><ele>1016.4285714285713</ele><time>2026-05-02T10:16:14Z</time></trkpt><trkpt lat="45.88987405478805" lon="9.773146608666941"><ele>1018.8571428571429</ele><time>2026-05-02T10:16:17Z</time></trkpt><trkpt lat="45.889798760803586" lon="9.773099578625857"><ele>1021.2857142857142</ele><time>2026-05-02T10:16:22Z</time></trkpt><trkpt lat="45.88975268857311" lon="9.773168174295579"><ele>1023.7142857142857</ele><time>2026-05-02T10:16:24Z</time></trkpt><trkpt lat="45.8897532815415" lon="9.773271367852171"><ele>1026.142857142857</ele><time>2026-05-02T10:16:27Z</time></trkpt><trkpt lat="45.88980411757221" lon="9.773324872422183"><ele>1028.5714285714284</ele><time>2026-05-02T10:16:29Z</time></trkpt><trkpt lat="45.88987988062796" lon="9.773358434627818"><ele>1031.0</ele><time>2026-05-02T10:16:32Z</time></trkpt><trkpt lat="45.889944875816504" lon="9.773388506181352"><ele>1031.0</ele><time>2026-05-02T10:16:35Z</time></trkpt><trkpt lat="45.89000860614343" lon="9.773382692543084"><ele>1031.0</ele><time>2026-05-02T10:16:40Z</time></trkpt><trkpt lat="45.8900078894385" lon="9.773285801172495"><ele>1031.0</ele><time>2026-05-02T10:16:43Z</time></trkpt><trkpt lat="45.88996020341128" lon="9.773216058217077"><ele>1031.0</ele><time>2026-05-02T10:16:45Z</time></trkpt><trkpt lat="45.88989455560787" lon="9.773151463688292"><ele>1031.0</ele><time>2026-05-02T10:16:47Z</time></trkpt><trkpt lat="45.88984669094027" lon="9.77305834759038"><ele>1031.0</ele><time>2026-05-02T10:16:49Z</time></trkpt><trkpt lat="45.88981260796853" lon="9.772951530257085"><ele>1031.0</ele><time>2026-05-02T10:16:51Z</time></trkpt><trkpt lat="45.889808449424514" lon="9.772827128612128"><ele>1031.0</ele><time>2026-05-02T10:16:54Z</time></trkpt><trkpt lat="45.889858365172806" lon="9.772751756286363"><ele>1031.0</ele><time>2026-05-02T10:16:57Z</time></trkpt><trkpt lat="45.889794627375366" lon="9.772739377188932"><ele>1031.0</ele><time>2026-05-02T10:17:14Z</time></trkpt><trkpt lat="45.8897405712618" lon="9.77265669923045"><ele>1031.0</ele><time>2026-05-02T10:17:28Z</time></trkpt><trkpt lat="45.889722440095795" lon="9.772533906116196"><ele>1031.0</ele><time>2026-05-02T10:17:30Z</time></trkpt><trkpt lat="45.88973214604488" lon="9.772425277090056"><ele>1031.0</ele><time>2026-05-02T10:17:32Z</time></trkpt><trkpt lat="45.88975267386132" lon="9.772307868902171"><ele>1029.8</ele><time>2026-05-02T10:17:34Z</time></trkpt><trkpt lat="45.88977809690622" lon="9.772172127936669"><ele>1028.6</ele><time>2026-05-02T10:17:36Z</time></trkpt><trkpt lat="45.88980524927809" lon="9.772037037695167"><ele>1027.4</ele><time>2026-05-02T10:17:38Z</time></trkpt><trkpt lat="45.88982701834855" lon="9.771904418377122"><ele>1026.2</ele><time>2026-05-02T10:17:40Z</time></trkpt><trkpt lat="45.88985086231557" lon="9.771779397238216"><ele>1025.0</ele><time>2026-05-02T10:17:42Z</time></trkpt><trkpt lat="45.889870392560475" lon="9.771662223106723"><ele>1024.9999999999998</ele><time>2026-05-02T10:17:44Z</time></trkpt><trkpt lat="45.889895169825124" lon="9.771546632709672"><ele>1025.0</ele><time>2026-05-02T10:17:46Z</time></trkpt><trkpt lat="45.88990968350671" lon="9.771433796629319"><ele>1025.0</ele><time>2026-05-02T10:17:48Z</time></trkpt><trkpt lat="45.88992916409197" lon="9.77133302406475"><ele>1025.0</ele><time>2026-05-02T10:17:50Z</time></trkpt><trkpt lat="45.889951401498564" lon="9.771240128419715"><ele>1025.0</ele><time>2026-05-02T10:17:52Z</time></trkpt><trkpt lat="45.88996771291528" lon="9.771142421532712"><ele>1024.9999999999998</ele><time>2026-05-02T10:17:54Z</time></trkpt><trkpt lat="45.88998228923988" lon="9.771049807198109"><ele>1025.0</ele><time>2026-05-02T10:17:56Z</time></trkpt><trkpt lat="45.88996050234757" lon="9.770934939397424"><ele>1026.3333333333335</ele><time>2026-05-02T10:17:59Z</time></trkpt><trkpt lat="45.889897295115304" lon="9.770915827175145"><ele>1027.6666666666667</ele><time>2026-05-02T10:18:03Z</time></trkpt><trkpt lat="45.88997800448343" lon="9.770883105811125"><ele>1029.0</ele><time>2026-05-02T10:18:09Z</time></trkpt><trkpt lat="45.890043624128644" lon="9.77081906054616"><ele>1030.3333333333333</ele><time>2026-05-02T10:18:12Z</time></trkpt><trkpt lat="45.89012316659318" lon="9.770762421569124"><ele>1031.6666666666665</ele><time>2026-05-02T10:18:15Z</time></trkpt><trkpt lat="45.89019292938612" lon="9.770733669142444"><ele>1033.0</ele><time>2026-05-02T10:18:18Z</time></trkpt><trkpt lat="45.89025832656389" lon="9.7707093918616"><ele>1029.5</ele><time>2026-05-02T10:18:21Z</time></trkpt><trkpt lat="45.89033649168571" lon="9.770708261786238"><ele>1026.0</ele><time>2026-05-02T10:18:24Z</time></trkpt><trkpt lat="45.89041552307927" lon="9.770686969571035"><ele>1022.5</ele><time>2026-05-02T10:18:26Z</time></trkpt><trkpt lat="45.890510126313025" lon="9.770655009093296"><ele>1019.0</ele><time>2026-05-02T10:18:28Z</time></trkpt><trkpt lat="45.890607570013024" lon="9.770622398266239"><ele>1015.4999999999999</ele><time>2026-05-02T10:18:30Z</time></trkpt><trkpt lat="45.89069561069779" lon="9.770585485036023"><ele>1012.0</ele><time>2026-05-02T10:18:32Z</time></trkpt><trkpt lat="45.89077445573937" lon="9.770538746669734"><ele>1011.9999999999999</ele><time>2026-05-02T10:18:34Z</time></trkpt><trkpt lat="45.89082543771708" lon="9.770448077503469"><ele>1012.0</ele><time>2026-05-02T10:18:36Z</time></trkpt><trkpt lat="45.89085042321829" lon="9.770342066771702"><ele>1012.0</ele><time>2026-05-02T10:18:38Z</time></trkpt><trkpt lat="45.89086102449027" lon="9.77020424038934"><ele>1012.0</ele><time>2026-05-02T10:18:40Z</time></trkpt><trkpt lat="45.89083788993678" lon="9.770091574682144"><ele>1011.9999999999999</ele><time>2026-05-02T10:18:42Z</time></trkpt><trkpt lat="45.890787702149076" lon="9.76999190653832"><ele>1012.0</ele><time>2026-05-02T10:18:44Z</time></trkpt><trkpt lat="45.8907282994504" lon="9.769901774294064"><ele>1013.3333333333333</ele><time>2026-05-02T10:18:46Z</time></trkpt><trkpt lat="45.89068215095344" lon="9.76980495019441"><ele>1014.6666666666666</ele><time>2026-05-02T10:18:48Z</time></trkpt><trkpt lat="45.89064207139582" lon="9.76971162211283"><ele>1016.0</ele><time>2026-05-02T10:18:50Z</time></trkpt><trkpt lat="45.890608293340826" lon="9.769614929710354"><ele>1017.3333333333333</ele><time>2026-05-02T10:18:52Z</time></trkpt><trkpt lat="45.890579483306" lon="9.769519711747174"><ele>1018.6666666666666</ele><time>2026-05-02T10:18:54Z</time></trkpt><trkpt lat="45.890555130168835" lon="9.7694223963033"><ele>1020.0</ele><time>2026-05-02T10:18:56Z</time></trkpt><trkpt lat="45.89052766205356" lon="9.769323144109968"><ele>1020.1666666666666</ele><time>2026-05-02T10:18:58Z</time></trkpt><trkpt lat="45.890521741299466" lon="9.769215640537366"><ele>1020.3333333333333</ele><time>2026-05-02T10:19:00Z</time></trkpt><trkpt lat="45.890559830909176" lon="9.769113916017643"><ele>1020.5</ele><time>2026-05-02T10:19:02Z</time></trkpt><trkpt lat="45.89062503469224" lon="9.769055086283167"><ele>1020.6666666666666</ele><time>2026-05-02T10:19:04Z</time></trkpt><trkpt lat="45.8907119725087" lon="9.769033651814961"><ele>1020.8333333333333</ele><time>2026-05-02T10:19:06Z</time></trkpt><trkpt lat="45.89080336869329" lon="9.76901714230202"><ele>1021.0</ele><time>2026-05-02T10:19:08Z</time></trkpt><trkpt lat="45.89088333470988" lon="9.76900322527035"><ele>1018.8333333333333</ele><time>2026-05-02T10:19:10Z</time></trkpt><trkpt lat="45.89095489573096" lon="9.768981627871918"><ele>1016.6666666666666</ele><time>2026-05-02T10:19:12Z</time></trkpt><trkpt lat="45.89103591700013" lon="9.768974503488309"><ele>1014.5</ele><time>2026-05-02T10:19:15Z</time></trkpt><trkpt lat="45.89110557924968" lon="9.768944443402987"><ele>1012.3333333333333</ele><time>2026-05-02T10:19:18Z</time></trkpt><trkpt lat="45.891178797895954" lon="9.768887524143928"><ele>1010.1666666666666</ele><time>2026-05-02T10:19:22Z</time></trkpt><trkpt lat="45.89122173748295" lon="9.768809465628186"><ele>1008.0</ele><time>2026-05-02T10:19:25Z</time></trkpt><trkpt lat="45.891251286426346" lon="9.768703534891191"><ele>1008.0</ele><time>2026-05-02T10:19:28Z</time></trkpt><trkpt lat="45.89127570210476" lon="9.768578379557052"><ele>1008.0</ele><time>2026-05-02T10:19:31Z</time></trkpt><trkpt lat="45.89128313205539" lon="9.768477060180647"><ele>1008.0</ele><time>2026-05-02T10:19:33Z</time></trkpt><trkpt lat="45.89126792601038" lon="9.768375933468029"><ele>1008.0</ele><time>2026-05-02T10:19:35Z</time></trkpt><trkpt lat="45.89123441879589" lon="9.768297696677548"><ele>1008.0</ele><time>2026-05-02T10:19:37Z</time></trkpt><trkpt lat="45.89118472071755" lon="9.768239523592193"><ele>1008.0</ele><time>2026-05-02T10:19:39Z</time></trkpt><trkpt lat="45.89113503111591" lon="9.768177389489257"><ele>1008.0</ele><time>2026-05-02T10:19:41Z</time></trkpt><trkpt lat="45.89107211697397" lon="9.768085607481629"><ele>1008.8333333333334</ele><time>2026-05-02T10:19:44Z</time></trkpt><trkpt lat="45.891042985002684" lon="9.767987604521869"><ele>1009.6666666666667</ele><time>2026-05-02T10:19:48Z</time></trkpt><trkpt lat="45.89108696333442" lon="9.76789468449578"><ele>1010.5</ele><time>2026-05-02T10:19:53Z</time></trkpt><trkpt lat="45.89115384692106" lon="9.767900540024279"><ele>1011.3333333333334</ele><time>2026-05-02T10:19:57Z</time></trkpt><trkpt lat="45.891220674339536" lon="9.767983455765142"><ele>1012.1666666666667</ele><time>2026-05-02T10:20:00Z</time></trkpt><trkpt lat="45.89126909937037" lon="9.768043623749536"><ele>1013.0</ele><time>2026-05-02T10:20:02Z</time></trkpt><trkpt lat="45.89133983700229" lon="9.768125025168526"><ele>1013.0</ele><time>2026-05-02T10:20:05Z</time></trkpt><trkpt lat="45.89139153075417" lon="9.76820550293169"><ele>1013.0000000000001</ele><time>2026-05-02T10:20:08Z</time></trkpt><trkpt lat="45.89141247024428" lon="9.768300261563954"><ele>1013.0</ele><time>2026-05-02T10:20:12Z</time></trkpt><trkpt lat="45.89137208756417" lon="9.768382682737458"><ele>1013.0</ele><time>2026-05-02T10:20:15Z</time></trkpt><trkpt lat="45.89143781485176" lon="9.768404249201524"><ele>1013.0000000000001</ele><time>2026-05-02T10:21:09Z</time></trkpt><trkpt lat="45.891503541185386" lon="9.768379956941809"><ele>1013.0</ele><time>2026-05-02T10:21:14Z</time></trkpt><trkpt lat="45.89155415375194" lon="9.768458137630818"><ele>1013.0</ele><time>2026-05-02T10:21:17Z</time></trkpt><trkpt lat="45.89161984727246" lon="9.768457877335106"><ele>1013.0</ele><time>2026-05-02T10:21:20Z</time></trkpt><trkpt lat="45.8916011806563" lon="9.768353709774674"><ele>1013.0000000000001</ele><time>2026-05-02T10:21:23Z</time></trkpt><trkpt lat="45.89154067492292" lon="9.768314492639748"><ele>1013.0</ele><time>2026-05-02T10:21:25Z</time></trkpt><trkpt lat="45.89148969322726" lon="9.768251390627116"><ele>1013.0</ele><time>2026-05-02T10:21:27Z</time></trkpt><trkpt lat="45.891441269733" lon="9.768180708904145"><ele>1013.0000000000001</ele><time>2026-05-02T10:21:29Z</time></trkpt><trkpt lat="45.89139843180644" lon="9.768098465880838"><ele>1013.0</ele><time>2026-05-02T10:21:31Z</time></trkpt><trkpt lat="45.891347515789136" lon="9.768009147042031"><ele>1013.0</ele><time>2026-05-02T10:21:33Z</time></trkpt><trkpt lat="45.89131669502137" lon="9.767914540769738"><ele>1013.0000000000001</ele><time>2026-05-02T10:21:35Z</time></trkpt><trkpt lat="45.89130593256724" lon="9.767795741970373"><ele>1013.0</ele><time>2026-05-02T10:21:38Z</time></trkpt><trkpt lat="45.891304018390095" lon="9.767679502082055"><ele>1013.0</ele><time>2026-05-02T10:21:41Z</time></trkpt><trkpt lat="45.89134085307468" lon="9.767569422072933"><ele>1013.0</ele><time>2026-05-02T10:21:43Z</time></trkpt><trkpt lat="45.89142532218753" lon="9.767520430158253"><ele>1013.0000000000001</ele><time>2026-05-02T10:21:45Z</time></trkpt><trkpt lat="45.89151085467936" lon="9.767494292957219"><ele>1013.0</ele><time>2026-05-02T10:21:47Z</time></trkpt><trkpt lat="45.89159310128567" lon="9.76746467850872"><ele>1013.3333333333334</ele><time>2026-05-02T10:21:50Z</time></trkpt><trkpt lat="45.891675599567314" lon="9.767412506471464"><ele>1013.6666666666667</ele><time>2026-05-02T10:21:53Z</time></trkpt><trkpt lat="45.89176956999307" lon="9.767405160849288"><ele>1014.0</ele><time>2026-05-02T10:21:56Z</time></trkpt><trkpt lat="45.89183938833107" lon="9.76741246214012"><ele>1014.3333333333333</ele><time>2026-05-02T10:21:58Z</time></trkpt><trkpt lat="45.89191972221257" lon="9.767392975799522"><ele>1014.6666666666666</ele><time>2026-05-02T10:22:00Z</time></trkpt><trkpt lat="45.89200164776955" lon="9.767375686675031"><ele>1015.0</ele><time>2026-05-02T10:22:02Z</time></trkpt><trkpt lat="45.89207906091386" lon="9.767374135017276"><ele>1015.4999999999999</ele><time>2026-05-02T10:22:04Z</time></trkpt><trkpt lat="45.89215243188059" lon="9.76743122037498"><ele>1016.0</ele><time>2026-05-02T10:22:06Z</time></trkpt><trkpt lat="45.892204140412694" lon="9.76752223447473"><ele>1016.5</ele><time>2026-05-02T10:22:08Z</time></trkpt><trkpt lat="45.892258535475094" lon="9.767614689856511"><ele>1017.0</ele><time>2026-05-02T10:22:10Z</time></trkpt><trkpt lat="45.892336736528975" lon="9.767670647836226"><ele>1017.4999999999999</ele><time>2026-05-02T10:22:12Z</time></trkpt><trkpt lat="45.892424845782735" lon="9.76770141621323"><ele>1018.0</ele><time>2026-05-02T10:22:14Z</time></trkpt><trkpt lat="45.89251115177391" lon="9.76771561342629"><ele>1017.9999999999999</ele><time>2026-05-02T10:22:16Z</time></trkpt><trkpt lat="45.89259143343654" lon="9.767733669478302"><ele>1018.0</ele><time>2026-05-02T10:22:18Z</time></trkpt><trkpt lat="45.89266234645211" lon="9.767788928284165"><ele>1018.0</ele><time>2026-05-02T10:22:20Z</time></trkpt><trkpt lat="45.89271951337692" lon="9.767869790006209"><ele>1018.0</ele><time>2026-05-02T10:22:22Z</time></trkpt><trkpt lat="45.89277423230828" lon="9.767954728151459"><ele>1017.9999999999999</ele><time>2026-05-02T10:22:24Z</time></trkpt><trkpt lat="45.89283325919451" lon="9.768044727262627"><ele>1018.0</ele><time>2026-05-02T10:22:26Z</time></trkpt><trkpt lat="45.89289684562985" lon="9.768131090138503"><ele>1017.9999999999999</ele><time>2026-05-02T10:22:28Z</time></trkpt><trkpt lat="45.8929563980818" lon="9.768220924248912"><ele>1018.0</ele><time>2026-05-02T10:22:30Z</time></trkpt><trkpt lat="45.89301426274732" lon="9.768315396311683"><ele>1018.0</ele><time>2026-05-02T10:22:32Z</time></trkpt><trkpt lat="45.89305516067656" lon="9.768431288678311"><ele>1018.0</ele><time>2026-05-02T10:22:34Z</time></trkpt><trkpt lat="45.89309484887505" lon="9.768543986970341"><ele>1017.9999999999999</ele><time>2026-05-02T10:22:36Z</time></trkpt><trkpt lat="45.89315273747158" lon="9.768625892011785"><ele>1018.0</ele><time>2026-05-02T10:22:38Z</time></trkpt><trkpt lat="45.8932146220786" lon="9.768685377496197"><ele>1015.142857142857</ele><time>2026-05-02T10:22:40Z</time></trkpt><trkpt lat="45.8932817294384" lon="9.76869745965454"><ele>1012.2857142857142</ele><time>2026-05-02T10:22:42Z</time></trkpt><trkpt lat="45.8933527294368" lon="9.768710647259526"><ele>1009.4285714285714</ele><time>2026-05-02T10:22:45Z</time></trkpt><trkpt lat="45.893423701061366" lon="9.76867385518947"><ele>1006.5714285714286</ele><time>2026-05-02T10:22:48Z</time></trkpt><trkpt lat="45.893426002455335" lon="9.768576317102985"><ele>1003.7142857142858</ele><time>2026-05-02T10:22:52Z</time></trkpt><trkpt lat="45.89339236759364" lon="9.768671991634939"><ele>1000.857142857143</ele><time>2026-05-02T10:23:03Z</time></trkpt><trkpt lat="45.89334004371516" lon="9.768731931562566"><ele>998.0000000000001</ele><time>2026-05-02T10:34:41Z</time></trkpt><trkpt lat="45.893379214365545" lon="9.768659803235469"><ele>998.0000000000001</ele><time>2026-05-02T10:35:38Z</time></trkpt><trkpt lat="45.89341985213591" lon="9.768729313594008"><ele>998.0</ele><time>2026-05-02T10:38:37Z</time></trkpt><trkpt lat="45.89335856693348" lon="9.768692902032525"><ele>998.0</ele><time>2026-05-02T10:58:51Z</time></trkpt><trkpt lat="45.893279187871116" lon="9.768661135166967"><ele>998.0</ele><time>2026-05-02T11:05:57Z</time></trkpt><trkpt lat="45.89319369706028" lon="9.768625865609982"><ele>998.0000000000001</ele><time>2026-05-02T11:06:00Z</time></trkpt><trkpt lat="45.89312304034476" lon="9.768575075374438"><ele>998.0</ele><time>2026-05-02T11:06:03Z</time></trkpt><trkpt lat="45.89306973429581" lon="9.768485780033691"><ele>1001.3333333333334</ele><time>2026-05-02T11:06:07Z</time></trkpt><trkpt lat="45.89305062511359" lon="9.768392007601141"><ele>1004.6666666666667</ele><time>2026-05-02T11:06:10Z</time></trkpt><trkpt lat="45.89301360960235" lon="9.768278829080517"><ele>1008.0</ele><time>2026-05-02T11:06:13Z</time></trkpt><trkpt lat="45.89296895695329" lon="9.768204328498387"><ele>1011.3333333333333</ele><time>2026-05-02T11:06:15Z</time></trkpt><trkpt lat="45.892917664381216" lon="9.76811976375697"><ele>1014.6666666666666</ele><time>2026-05-02T11:06:17Z</time></trkpt><trkpt lat="45.89286086824895" lon="9.76803451288726"><ele>1018.0</ele><time>2026-05-02T11:06:19Z</time></trkpt><trkpt lat="45.89279645961091" lon="9.767948874507693"><ele>1018.0</ele><time>2026-05-02T11:06:21Z</time></trkpt><trkpt lat="45.89272849854037" lon="9.767862057642786"><ele>1018.0</ele><time>2026-05-02T11:06:23Z</time></trkpt><trkpt lat="45.892657418907866" lon="9.767771103299884"><ele>1018.0</ele><time>2026-05-02T11:06:25Z</time></trkpt><trkpt lat="45.89256788910256" lon="9.767707282774499"><ele>1018.0</ele><time>2026-05-02T11:06:27Z</time></trkpt><trkpt lat="45.892466980601846" lon="9.767690133514124"><ele>1018.0</ele><time>2026-05-02T11:06:29Z</time></trkpt><trkpt lat="45.892371253245095" lon="9.767673281752606"><ele>1018.0</ele><time>2026-05-02T11:06:31Z</time></trkpt><trkpt lat="45.89228481304851" lon="9.767623775140535"><ele>1018.0</ele><time>2026-05-02T11:06:33Z</time></trkpt><trkpt lat="45.89221259971482" lon="9.767545555045343"><ele>1018.0</ele><time>2026-05-02T11:06:35Z</time></trkpt><trkpt lat="45.89215923233295" lon="9.767444125680976"><ele>1018.0</ele><time>2026-05-02T11:06:37Z</time></trkpt><trkpt lat="45.892077606545826" lon="9.767371298623072"><ele>1018.0</ele><time>2026-05-02T11:06:39Z</time></trkpt><trkpt lat="45.89197502566853" lon="9.767370905396412"><ele>1018.0</ele><time>2026-05-02T11:06:41Z</time></trkpt><trkpt lat="45.89187639325856" lon="9.767388836112605"><ele>1018.0</ele><time>2026-05-02T11:06:43Z</time></trkpt><trkpt lat="45.89178635856657" lon="9.767413981100914"><ele>1018.0</ele><time>2026-05-02T11:06:45Z</time></trkpt><trkpt lat="45.8917077142564" lon="9.767370485925365"><ele>1018.0</ele><time>2026-05-02T11:06:47Z</time></trkpt><trkpt lat="45.89166193439381" lon="9.767270615820753"><ele>1018.0</ele><time>2026-05-02T11:06:49Z</time></trkpt><trkpt lat="45.891614825078165" lon="9.767154864706484"><ele>1017.4999999999999</ele><time>2026-05-02T11:06:51Z</time></trkpt><trkpt lat="45.89153732877903" lon="9.767046597882338"><ele>1017.0</ele><time>2026-05-02T11:06:53Z</time></trkpt><trkpt lat="45.8914285155933" lon="9.766966729329182"><ele>1016.5</ele><time>2026-05-02T11:06:55Z</time></trkpt><trkpt lat="45.89136851403205" lon="9.766936358926422"><ele>1016.0</ele><time>2026-05-02T11:06:56Z</time></trkpt><trkpt lat="45.89130629291784" lon="9.766903027908162"><ele>1015.4999999999999</ele><time>2026-05-02T11:06:57Z</time></trkpt><trkpt lat="45.891244115070066" lon="9.766863975691361"><ele>1015.0</ele><time>2026-05-02T11:06:58Z</time></trkpt><trkpt lat="45.891180528957676" lon="9.766823528210198"><ele>1014.9999999999999</ele><time>2026-05-02T11:06:59Z</time></trkpt><trkpt lat="45.89111440077067" lon="9.766784559689883"><ele>1015.0</ele><time>2026-05-02T11:07:00Z</time></trkpt><trkpt lat="45.8910462957613" lon="9.766731228505472"><ele>1015.0</ele><time>2026-05-02T11:07:01Z</time></trkpt><trkpt lat="45.89100562134843" lon="9.76663299922057"><ele>1015.0</ele><time>2026-05-02T11:07:02Z</time></trkpt><trkpt lat="45.891001854184054" lon="9.766511533415763"><ele>1014.9999999999999</ele><time>2026-05-02T11:07:03Z</time></trkpt><trkpt lat="45.89102559252679" lon="9.766400042959235"><ele>1015.0</ele><time>2026-05-02T11:07:04Z</time></trkpt><trkpt lat="45.89107213504707" lon="9.766316340102668"><ele>1015.0</ele><time>2026-05-02T11:07:05Z</time></trkpt><trkpt lat="45.89112636605308" lon="9.766255893562363"><ele>1015.0</ele><time>2026-05-02T11:07:06Z</time></trkpt><trkpt lat="45.89121439786665" lon="9.766138787276589"><ele>1015.0</ele><time>2026-05-02T11:07:08Z</time></trkpt><trkpt lat="45.89128501809219" lon="9.765992058940572"><ele>1015.0</ele><time>2026-05-02T11:07:10Z</time></trkpt><trkpt lat="45.89134038942187" lon="9.765835493738132"><ele>1015.0</ele><time>2026-05-02T11:07:12Z</time></trkpt><trkpt lat="45.891362685931426" lon="9.765682846109874"><ele>1014.2</ele><time>2026-05-02T11:07:14Z</time></trkpt><trkpt lat="45.89135861184538" lon="9.765502621733228"><ele>1013.4</ele><time>2026-05-02T11:07:16Z</time></trkpt><trkpt lat="45.891354716330184" lon="9.765409007572694"><ele>1012.5999999999999</ele><time>2026-05-02T11:07:17Z</time></trkpt><trkpt lat="45.891336292083366" lon="9.76523467041564"><ele>1011.8</ele><time>2026-05-02T11:07:19Z</time></trkpt><trkpt lat="45.89131360268705" lon="9.765062127662217"><ele>1011.0</ele><time>2026-05-02T11:07:21Z</time></trkpt><trkpt lat="45.89131390860183" lon="9.764882893473697"><ele>1009.25</ele><time>2026-05-02T11:07:23Z</time></trkpt><trkpt lat="45.89129979068345" lon="9.764708797821049"><ele>1007.5</ele><time>2026-05-02T11:07:25Z</time></trkpt><trkpt lat="45.891286404195306" lon="9.764538291930641"><ele>1005.75</ele><time>2026-05-02T11:07:27Z</time></trkpt><trkpt lat="45.891273189128555" lon="9.764366255631142"><ele>1004.0</ele><time>2026-05-02T11:07:29Z</time></trkpt><trkpt lat="45.89126241219537" lon="9.764195131193185"><ele>1002.25</ele><time>2026-05-02T11:07:31Z</time></trkpt><trkpt lat="45.891248273913114" lon="9.764025969182704"><ele>1000.5</ele><time>2026-05-02T11:07:33Z</time></trkpt><trkpt lat="45.891230416905145" lon="9.763859080533846"><ele>998.75</ele><time>2026-05-02T11:07:35Z</time></trkpt><trkpt lat="45.89119555836363" lon="9.76369807380605"><ele>997.0</ele><time>2026-05-02T11:07:37Z</time></trkpt><trkpt lat="45.89115219571392" lon="9.763546328520313"><ele>996.5</ele><time>2026-05-02T11:07:39Z</time></trkpt><trkpt lat="45.89110018486095" lon="9.763393829528514"><ele>996.0</ele><time>2026-05-02T11:07:41Z</time></trkpt><trkpt lat="45.89103119088338" lon="9.763254447611414"><ele>995.5</ele><time>2026-05-02T11:07:43Z</time></trkpt><trkpt lat="45.89096440582091" lon="9.763113942784951"><ele>995.0</ele><time>2026-05-02T11:07:45Z</time></trkpt><trkpt lat="45.890902637864805" lon="9.762964258667754"><ele>1003.0</ele><time>2026-05-02T11:07:47Z</time></trkpt><trkpt lat="45.890861979956256" lon="9.76280229572298"><ele>1011.0</ele><time>2026-05-02T11:07:49Z</time></trkpt><trkpt lat="45.89082692935497" lon="9.762641361070886"><ele>1019.0</ele><time>2026-05-02T11:07:51Z</time></trkpt><trkpt lat="45.890785565141805" lon="9.762484381246539"><ele>1027.0</ele><time>2026-05-02T11:07:53Z</time></trkpt><trkpt lat="45.89072959901935" lon="9.762335800720754"><ele>1027.0</ele><time>2026-05-02T11:07:55Z</time></trkpt><trkpt lat="45.89067094860551" lon="9.762192528395538"><ele>1027.0</ele><time>2026-05-02T11:07:57Z</time></trkpt><trkpt lat="45.89061194777615" lon="9.762050469691834"><ele>1027.0</ele><time>2026-05-02T11:07:59Z</time></trkpt><trkpt lat="45.89054182793739" lon="9.761921727274089"><ele>1027.0</ele><time>2026-05-02T11:08:01Z</time></trkpt><trkpt lat="45.89046436505502" lon="9.761791178214636"><ele>1023.25</ele><time>2026-05-02T11:08:03Z</time></trkpt><trkpt lat="45.89037944280342" lon="9.761676797547304"><ele>1019.5</ele><time>2026-05-02T11:08:05Z</time></trkpt><trkpt lat="45.89029372537709" lon="9.76155816233705"><ele>1015.75</ele><time>2026-05-02T11:08:07Z</time></trkpt><trkpt lat="45.89020232135599" lon="9.761449323883769"><ele>1012.0</ele><time>2026-05-02T11:08:09Z</time></trkpt><trkpt lat="45.890104968152585" lon="9.76134131869848"><ele>1013.75</ele><time>2026-05-02T11:08:11Z</time></trkpt><trkpt lat="45.89000104281288" lon="9.7612462224975"><ele>1015.5</ele><time>2026-05-02T11:08:13Z</time></trkpt><trkpt lat="45.88989951152818" lon="9.761146987004103"><ele>1017.25</ele><time>2026-05-02T11:08:15Z</time></trkpt><trkpt lat="45.8898088744317" lon="9.761052526056886"><ele>1019.0</ele><time>2026-05-02T11:08:17Z</time></trkpt><trkpt lat="45.88971665842028" lon="9.760954705494447"><ele>1019.0</ele><time>2026-05-02T11:08:19Z</time></trkpt><trkpt lat="45.88961934919046" lon="9.760849018642915"><ele>1019.0000000000001</ele><time>2026-05-02T11:08:21Z</time></trkpt><trkpt lat="45.88953117290749" lon="9.760719773653959"><ele>1019.0000000000001</ele><time>2026-05-02T11:08:23Z</time></trkpt><trkpt lat="45.889498251574615" lon="9.760641330127923"><ele>1019.0</ele><time>2026-05-02T11:08:24Z</time></trkpt><trkpt lat="45.8894688176412" lon="9.760473913005251"><ele>1019.0</ele><time>2026-05-02T11:08:26Z</time></trkpt><trkpt lat="45.889480977297865" lon="9.760306184284488"><ele>1017.8000000000001</ele><time>2026-05-02T11:08:28Z</time></trkpt><trkpt lat="45.88950719234203" lon="9.760145974886688"><ele>1016.6000000000001</ele><time>2026-05-02T11:08:30Z</time></trkpt><trkpt lat="45.88952690257953" lon="9.759974904778945"><ele>1015.4</ele><time>2026-05-02T11:08:32Z</time></trkpt><trkpt lat="45.88955173912556" lon="9.759888727361577"><ele>1014.2</ele><time>2026-05-02T11:08:33Z</time></trkpt><trkpt lat="45.889612804372916" lon="9.7597355356827"><ele>1013.0</ele><time>2026-05-02T11:08:35Z</time></trkpt><trkpt lat="45.88967964458305" lon="9.75960082103224"><ele>1013.0</ele><time>2026-05-02T11:08:37Z</time></trkpt><trkpt lat="45.88974876221082" lon="9.759457619329288"><ele>1013.0</ele><time>2026-05-02T11:08:39Z</time></trkpt><trkpt lat="45.88976906291805" lon="9.759285650502218"><ele>1013.0</ele><time>2026-05-02T11:08:41Z</time></trkpt><trkpt lat="45.8897488408841" lon="9.759121716847222"><ele>1013.0</ele><time>2026-05-02T11:08:43Z</time></trkpt><trkpt lat="45.88971135283941" lon="9.759048203217045"><ele>1013.0</ele><time>2026-05-02T11:08:44Z</time></trkpt><trkpt lat="45.889616259560604" lon="9.75894306774833"><ele>1012.4</ele><time>2026-05-02T11:08:46Z</time></trkpt><trkpt lat="45.88949593327576" lon="9.75891265515863"><ele>1011.8</ele><time>2026-05-02T11:08:48Z</time></trkpt><trkpt lat="45.889375129279195" lon="9.758949188031638"><ele>1011.2</ele><time>2026-05-02T11:08:50Z</time></trkpt><trkpt lat="45.88925689071632" lon="9.758989681342463"><ele>1010.6</ele><time>2026-05-02T11:08:52Z</time></trkpt><trkpt lat="45.889194503566074" lon="9.759009147571213"><ele>1010.0</ele><time>2026-05-02T11:08:53Z</time></trkpt><trkpt lat="45.88907165647765" lon="9.7590154024947"><ele>1017.25</ele><time>2026-05-02T11:08:55Z</time></trkpt><trkpt lat="45.88894983730447" lon="9.758974369157738"><ele>1024.5</ele><time>2026-05-02T11:08:57Z</time></trkpt><trkpt lat="45.888850401032414" lon="9.758884738722365"><ele>1031.75</ele><time>2026-05-02T11:08:59Z</time></trkpt><trkpt lat="45.88876318374802" lon="9.758763748928772"><ele>1039.0</ele><time>2026-05-02T11:09:01Z</time></trkpt><trkpt lat="45.88867910935093" lon="9.758634490802972"><ele>1039.5</ele><time>2026-05-02T11:09:03Z</time></trkpt><trkpt lat="45.88859333760686" lon="9.758503212194785"><ele>1040.0</ele><time>2026-05-02T11:09:05Z</time></trkpt><trkpt lat="45.88850716522929" lon="9.758378959824"><ele>1040.5</ele><time>2026-05-02T11:09:07Z</time></trkpt><trkpt lat="45.888414513510355" lon="9.758274590284062"><ele>1041.0</ele><time>2026-05-02T11:09:09Z</time></trkpt><trkpt lat="45.88829827952268" lon="9.758231174290232"><ele>1041.0</ele><time>2026-05-02T11:09:11Z</time></trkpt><trkpt lat="45.888233819165194" lon="9.758214103160217"><ele>1041.0</ele><time>2026-05-02T11:09:12Z</time></trkpt><trkpt lat="45.88817049157552" lon="9.758194816692995"><ele>1041.0</ele><time>2026-05-02T11:09:13Z</time></trkpt><trkpt lat="45.888054392735796" lon="9.758125712227027"><ele>1041.0</ele><time>2026-05-02T11:09:15Z</time></trkpt><trkpt lat="45.887950828355486" lon="9.758029436885309"><ele>1041.0</ele><time>2026-05-02T11:09:17Z</time></trkpt><trkpt lat="45.88784778138363" lon="9.75793662528209"><ele>1041.0</ele><time>2026-05-02T11:09:19Z</time></trkpt><trkpt lat="45.88774594042626" lon="9.757838901854214"><ele>1041.0</ele><time>2026-05-02T11:09:21Z</time></trkpt><trkpt lat="45.887662524175255" lon="9.757728049269524"><ele>1041.0</ele><time>2026-05-02T11:09:23Z</time></trkpt><trkpt lat="45.887612448673494" lon="9.75760258882359"><ele>1041.0</ele><time>2026-05-02T11:09:25Z</time></trkpt><trkpt lat="45.8875705736773" lon="9.757452914542194"><ele>1041.0</ele><time>2026-05-02T11:09:27Z</time></trkpt><trkpt lat="45.88753768400528" lon="9.757285652223748"><ele>1041.0</ele><time>2026-05-02T11:09:29Z</time></trkpt><trkpt lat="45.88750163126602" lon="9.75712236787353"><ele>1041.0</ele><time>2026-05-02T11:09:31Z</time></trkpt><trkpt lat="45.88747894251878" lon="9.756956068682069"><ele>1041.0</ele><time>2026-05-02T11:09:33Z</time></trkpt><trkpt lat="45.887475167928685" lon="9.75678963630237"><ele>1041.0</ele><time>2026-05-02T11:09:35Z</time></trkpt><trkpt lat="45.88748431147385" lon="9.756626570120055"><ele>1039.8</ele><time>2026-05-02T11:09:37Z</time></trkpt><trkpt lat="45.88749519396773" lon="9.756463492368129"><ele>1038.6</ele><time>2026-05-02T11:09:39Z</time></trkpt><trkpt lat="45.887482646824765" lon="9.756300330324278"><ele>1037.4</ele><time>2026-05-02T11:09:41Z</time></trkpt><trkpt lat="45.88742154329014" lon="9.75616618153647"><ele>1036.2</ele><time>2026-05-02T11:09:43Z</time></trkpt><trkpt lat="45.887325483950335" lon="9.756105133716929"><ele>1035.0</ele><time>2026-05-02T11:09:45Z</time></trkpt><trkpt lat="45.88720793238281" lon="9.756087913740801"><ele>1035.0</ele><time>2026-05-02T11:09:47Z</time></trkpt><trkpt lat="45.887145059381595" lon="9.756107460842014"><ele>1035.0</ele><time>2026-05-02T11:09:48Z</time></trkpt><trkpt lat="45.88708442544597" lon="9.756133306225703"><ele>1035.0</ele><time>2026-05-02T11:09:49Z</time></trkpt><trkpt lat="45.887021305562115" lon="9.756160838652782"><ele>1035.0</ele><time>2026-05-02T11:09:50Z</time></trkpt><trkpt lat="45.88695568655332" lon="9.756189257547993"><ele>1035.0</ele><time>2026-05-02T11:09:51Z</time></trkpt><trkpt lat="45.88688939768056" lon="9.756214615015596"><ele>1035.0</ele><time>2026-05-02T11:09:52Z</time></trkpt><trkpt lat="45.88682041279983" lon="9.756237060810909"><ele>1035.0</ele><time>2026-05-02T11:09:53Z</time></trkpt><trkpt lat="45.886749955501806" lon="9.756259909411542"><ele>1036.2857142857142</ele><time>2026-05-02T11:09:54Z</time></trkpt><trkpt lat="45.8866884431911" lon="9.756284073988942"><ele>1037.5714285714287</ele><time>2026-05-02T11:09:55Z</time></trkpt><trkpt lat="45.886617013841665" lon="9.75631356917369"><ele>1038.857142857143</ele><time>2026-05-02T11:09:56Z</time></trkpt><trkpt lat="45.886555971634095" lon="9.756341270852776"><ele>1040.142857142857</ele><time>2026-05-02T11:09:57Z</time></trkpt><trkpt lat="45.88649183381988" lon="9.756367446836231"><ele>1041.4285714285713</ele><time>2026-05-02T11:09:58Z</time></trkpt><trkpt lat="45.88642931878391" lon="9.756392618314608"><ele>1042.7142857142858</ele><time>2026-05-02T11:09:59Z</time></trkpt><trkpt lat="45.886366605132714" lon="9.756417431882785"><ele>1044.0</ele><time>2026-05-02T11:10:00Z</time></trkpt><trkpt lat="45.88624732085769" lon="9.756472384036543"><ele>1044.0</ele><time>2026-05-02T11:10:02Z</time></trkpt><trkpt lat="45.886130782936206" lon="9.75654137846799"><ele>1044.0</ele><time>2026-05-02T11:10:04Z</time></trkpt><trkpt lat="45.886007069446464" lon="9.756608880856803"><ele>1044.0</ele><time>2026-05-02T11:10:06Z</time></trkpt><trkpt lat="45.885881965369485" lon="9.756671117051903"><ele>1044.0</ele><time>2026-05-02T11:10:08Z</time></trkpt><trkpt lat="45.88581502077965" lon="9.75668284115692"><ele>1044.2857142857142</ele><time>2026-05-02T11:10:09Z</time></trkpt><trkpt lat="45.88574453303833" lon="9.756675855520097"><ele>1044.5714285714284</ele><time>2026-05-02T11:10:10Z</time></trkpt><trkpt lat="45.88568452316358" lon="9.756624133086326"><ele>1044.8571428571427</ele><time>2026-05-02T11:10:11Z</time></trkpt><trkpt lat="45.88566491896712" lon="9.75651757725537"><ele>1045.142857142857</ele><time>2026-05-02T11:10:12Z</time></trkpt><trkpt lat="45.885682436463675" lon="9.756414214013862"><ele>1045.4285714285713</ele><time>2026-05-02T11:10:13Z</time></trkpt><trkpt lat="45.88572696749944" lon="9.75633015604474"><ele>1045.7142857142856</ele><time>2026-05-02T11:10:14Z</time></trkpt><trkpt lat="45.88576597719324" lon="9.756255945366494"><ele>1046.0</ele><time>2026-05-02T11:10:15Z</time></trkpt><trkpt lat="45.8858291630531" lon="9.75610326394553"><ele>1045.1666666666667</ele><time>2026-05-02T11:10:17Z</time></trkpt><trkpt lat="45.885875991660235" lon="9.755927596744106"><ele>1044.3333333333335</ele><time>2026-05-02T11:10:19Z</time></trkpt><trkpt lat="45.88589184921523" lon="9.75583752042054"><ele>1043.5</ele><time>2026-05-02T11:10:20Z</time></trkpt><trkpt lat="45.88589516518475" lon="9.755744318320057"><ele>1042.6666666666667</ele><time>2026-05-02T11:10:21Z</time></trkpt><trkpt lat="45.8859048030393" lon="9.75565270519246"><ele>1041.8333333333333</ele><time>2026-05-02T11:10:22Z</time></trkpt><trkpt lat="45.88590344507012" lon="9.755476234455143"><ele>1041.0</ele><time>2026-05-02T11:10:24Z</time></trkpt><trkpt lat="45.88588990488137" lon="9.75538432748289"><ele>1041.0</ele><time>2026-05-02T11:10:25Z</time></trkpt><trkpt lat="45.88585577642914" lon="9.755304615442684"><ele>1041.0</ele><time>2026-05-02T11:10:26Z</time></trkpt><trkpt lat="45.88581506045705" lon="9.755227871269547"><ele>1041.0</ele><time>2026-05-02T11:10:27Z</time></trkpt><trkpt lat="45.88570642406429" lon="9.755149123726305"><ele>1041.0</ele><time>2026-05-02T11:10:29Z</time></trkpt><trkpt lat="45.8856387652013" lon="9.75512314431228"><ele>1041.0</ele><time>2026-05-02T11:10:30Z</time></trkpt><trkpt lat="45.885576327694054" lon="9.755095797317175"><ele>1041.0</ele><time>2026-05-02T11:10:31Z</time></trkpt><trkpt lat="45.88551606156903" lon="9.755051111160308"><ele>1039.1666666666667</ele><time>2026-05-02T11:10:32Z</time></trkpt><trkpt lat="45.885459430767014" lon="9.755000326167794"><ele>1037.3333333333333</ele><time>2026-05-02T11:10:33Z</time></trkpt><trkpt lat="45.885407207556185" lon="9.75494388026901"><ele>1035.5</ele><time>2026-05-02T11:10:34Z</time></trkpt><trkpt lat="45.8853149219001" lon="9.754824685963612"><ele>1033.6666666666665</ele><time>2026-05-02T11:10:36Z</time></trkpt><trkpt lat="45.88522743688216" lon="9.754713329446883"><ele>1031.8333333333333</ele><time>2026-05-02T11:10:38Z</time></trkpt><trkpt lat="45.885167035556044" lon="9.754674723528614"><ele>1030.0</ele><time>2026-05-02T11:10:39Z</time></trkpt><trkpt lat="45.885104327139224" lon="9.754639663410291"><ele>1030.6666666666665</ele><time>2026-05-02T11:10:40Z</time></trkpt><trkpt lat="45.88504239464427" lon="9.75461143922767"><ele>1031.3333333333333</ele><time>2026-05-02T11:10:41Z</time></trkpt><trkpt lat="45.88492115774523" lon="9.754557486763833"><ele>1032.0</ele><time>2026-05-02T11:10:43Z</time></trkpt><trkpt lat="45.884804987583706" lon="9.754505193295978"><ele>1032.6666666666667</ele><time>2026-05-02T11:10:45Z</time></trkpt><trkpt lat="45.88474474254643" lon="9.754478673493557"><ele>1033.3333333333335</ele><time>2026-05-02T11:10:46Z</time></trkpt><trkpt lat="45.884682615526515" lon="9.754449671469144"><ele>1034.0</ele><time>2026-05-02T11:10:47Z</time></trkpt><trkpt lat="45.884573448573995" lon="9.754366627295669"><ele>1034.0</ele><time>2026-05-02T11:10:49Z</time></trkpt><trkpt lat="45.88453264673889" lon="9.754193759145751"><ele>1034.0</ele><time>2026-05-02T11:10:51Z</time></trkpt><trkpt lat="45.88449026570838" lon="9.754021804499784"><ele>1034.0</ele><time>2026-05-02T11:10:53Z</time></trkpt><trkpt lat="45.884458265324405" lon="9.75384771188627"><ele>1034.0</ele><time>2026-05-02T11:10:55Z</time></trkpt><trkpt lat="45.88443395316606" lon="9.75376388632536"><ele>1034.0</ele><time>2026-05-02T11:10:56Z</time></trkpt><trkpt lat="45.88440273250511" lon="9.753682386113441"><ele>1034.0</ele><time>2026-05-02T11:10:57Z</time></trkpt><trkpt lat="45.88437110435085" lon="9.753603381631308"><ele>1034.0</ele><time>2026-05-02T11:10:58Z</time></trkpt><trkpt lat="45.884331791379985" lon="9.75352850394686"><ele>1034.0</ele><time>2026-05-02T11:10:59Z</time></trkpt><trkpt lat="45.88428982460098" lon="9.753458138878479"><ele>1034.0</ele><time>2026-05-02T11:11:00Z</time></trkpt><trkpt lat="45.88420515329876" lon="9.753312997177806"><ele>1034.0</ele><time>2026-05-02T11:11:02Z</time></trkpt><trkpt lat="45.88411738729065" lon="9.753189388962014"><ele>1034.0</ele><time>2026-05-02T11:11:04Z</time></trkpt><trkpt lat="45.88406633300126" lon="9.753129297714922"><ele>1035.8</ele><time>2026-05-02T11:11:05Z</time></trkpt><trkpt lat="45.88401229255572" lon="9.753072017116967"><ele>1037.6000000000001</ele><time>2026-05-02T11:11:06Z</time></trkpt><trkpt lat="45.88391259757827" lon="9.752953969434804"><ele>1039.4</ele><time>2026-05-02T11:11:08Z</time></trkpt><trkpt lat="45.883807048520445" lon="9.752853081161932"><ele>1041.2</ele><time>2026-05-02T11:11:10Z</time></trkpt><trkpt lat="45.88375882473896" lon="9.752789159508163"><ele>1043.0</ele><time>2026-05-02T11:11:11Z</time></trkpt><trkpt lat="45.883729795918875" lon="9.75270650044766"><ele>1041.5</ele><time>2026-05-02T11:11:12Z</time></trkpt><trkpt lat="45.88372756887748" lon="9.752613391250868"><ele>1040.0</ele><time>2026-05-02T11:11:13Z</time></trkpt><trkpt lat="45.883744923257154" lon="9.752522981517432"><ele>1038.5</ele><time>2026-05-02T11:11:14Z</time></trkpt><trkpt lat="45.88377130636104" lon="9.752434200591294"><ele>1037.0</ele><time>2026-05-02T11:11:15Z</time></trkpt><trkpt lat="45.88381330460104" lon="9.75227845326487"><ele>1035.5</ele><time>2026-05-02T11:11:17Z</time></trkpt><trkpt lat="45.88384946776975" lon="9.752185211307918"><ele>1034.0</ele><time>2026-05-02T11:11:18Z</time></trkpt><trkpt lat="45.88390779878695" lon="9.752027877581792"><ele>1034.0</ele><time>2026-05-02T11:11:20Z</time></trkpt><trkpt lat="45.88392553106934" lon="9.751927767538444"><ele>1034.0</ele><time>2026-05-02T11:11:21Z</time></trkpt><trkpt lat="45.88397560982436" lon="9.751781810790359"><ele>1034.0</ele><time>2026-05-02T11:11:23Z</time></trkpt><trkpt lat="45.88400247183249" lon="9.75168780070337"><ele>1034.0</ele><time>2026-05-02T11:11:24Z</time></trkpt><trkpt lat="45.88401939487489" lon="9.751524870432124"><ele>1034.0</ele><time>2026-05-02T11:11:26Z</time></trkpt><trkpt lat="45.88393072104651" lon="9.751396684205366"><ele>1033.5</ele><time>2026-05-02T11:11:28Z</time></trkpt><trkpt lat="45.88386111549327" lon="9.751364082866656"><ele>1033.0</ele><time>2026-05-02T11:11:29Z</time></trkpt><trkpt lat="45.8837864109637" lon="9.751342486188689"><ele>1032.5</ele><time>2026-05-02T11:11:30Z</time></trkpt><trkpt lat="45.883721307027756" lon="9.751306020281834"><ele>1032.0</ele><time>2026-05-02T11:11:31Z</time></trkpt><trkpt lat="45.88361894670666" lon="9.751234459214025"><ele>1031.5</ele><time>2026-05-02T11:11:33Z</time></trkpt><trkpt lat="45.88354973550464" lon="9.751212202217342"><ele>1031.0</ele><time>2026-05-02T11:11:34Z</time></trkpt><trkpt lat="45.883488606741494" lon="9.75118128298825"><ele>1031.8333333333335</ele><time>2026-05-02T11:11:35Z</time></trkpt><trkpt lat="45.88342941480677" lon="9.751142736965821"><ele>1032.6666666666667</ele><time>2026-05-02T11:11:36Z</time></trkpt><trkpt lat="45.88336934188228" lon="9.751110558552806"><ele>1033.5</ele><time>2026-05-02T11:11:37Z</time></trkpt><trkpt lat="45.88330610614968" lon="9.751079417434763"><ele>1034.3333333333333</ele><time>2026-05-02T11:11:38Z</time></trkpt><trkpt lat="45.883189895465016" lon="9.751012608301965"><ele>1035.1666666666665</ele><time>2026-05-02T11:11:40Z</time></trkpt><trkpt lat="45.88313000682026" lon="9.750977235717034"><ele>1036.0</ele><time>2026-05-02T11:11:41Z</time></trkpt><trkpt lat="45.88307063940554" lon="9.750942218604617"><ele>1036.0</ele><time>2026-05-02T11:11:42Z</time></trkpt><trkpt lat="45.88300858366406" lon="9.75091004124165"><ele>1036.0</ele><time>2026-05-02T11:11:43Z</time></trkpt><trkpt lat="45.8828894304339" lon="9.750840676159676"><ele>1036.0</ele><time>2026-05-02T11:11:45Z</time></trkpt><trkpt lat="45.882836928115836" lon="9.750775569505768"><ele>1036.0</ele><time>2026-05-02T11:11:46Z</time></trkpt><trkpt lat="45.88280209006192" lon="9.750696435634563"><ele>1036.0</ele><time>2026-05-02T11:11:47Z</time></trkpt><trkpt lat="45.882777867615594" lon="9.750611545648045"><ele>1036.0</ele><time>2026-05-02T11:11:48Z</time></trkpt><trkpt lat="45.88274579384824" lon="9.750434530275934"><ele>1036.0</ele><time>2026-05-02T11:11:50Z</time></trkpt><trkpt lat="45.88272541544197" lon="9.750344498749385"><ele>1036.0</ele><time>2026-05-02T11:11:51Z</time></trkpt><trkpt lat="45.88270282379632" lon="9.750255245178105"><ele>1036.0</ele><time>2026-05-02T11:11:52Z</time></trkpt><trkpt lat="45.882681220504864" lon="9.750165728777882"><ele>1036.0</ele><time>2026-05-02T11:11:53Z</time></trkpt><trkpt lat="45.88266155691654" lon="9.750079759270424"><ele>1036.0</ele><time>2026-05-02T11:11:54Z</time></trkpt><trkpt lat="45.882638110257425" lon="9.749990649533242"><ele>1036.0</ele><time>2026-05-02T11:11:55Z</time></trkpt><trkpt lat="45.88261652397636" lon="9.74990352311851"><ele>1036.0</ele><time>2026-05-02T11:11:56Z</time></trkpt><trkpt lat="45.88259253459686" lon="9.74981386772792"><ele>1037.1666666666665</ele><time>2026-05-02T11:11:57Z</time></trkpt><trkpt lat="45.88257133496805" lon="9.749725750458841"><ele>1038.3333333333333</ele><time>2026-05-02T11:11:58Z</time></trkpt><trkpt lat="45.88254979459472" lon="9.749637681263394"><ele>1039.5</ele><time>2026-05-02T11:11:59Z</time></trkpt><trkpt lat="45.88252945043691" lon="9.749550512955215"><ele>1040.6666666666667</ele><time>2026-05-02T11:12:00Z</time></trkpt><trkpt lat="45.88253165238162" lon="9.749368066149362"><ele>1041.8333333333335</ele><time>2026-05-02T11:12:02Z</time></trkpt><trkpt lat="45.882570622029704" lon="9.749285252714513"><ele>1043.0</ele><time>2026-05-02T11:12:03Z</time></trkpt><trkpt lat="45.8826216333234" lon="9.749220973238794"><ele>1037.8</ele><time>2026-05-02T11:12:04Z</time></trkpt><trkpt lat="45.88267175167192" lon="9.749161243396244"><ele>1032.6</ele><time>2026-05-02T11:12:05Z</time></trkpt><trkpt lat="45.882715990803625" lon="9.74909540779752"><ele>1027.4</ele><time>2026-05-02T11:12:06Z</time></trkpt><trkpt lat="45.882795752006885" lon="9.748958235474543"><ele>1022.2</ele><time>2026-05-02T11:12:08Z</time></trkpt><trkpt lat="45.88287046287214" lon="9.748816285619386"><ele>1017.0</ele><time>2026-05-02T11:12:10Z</time></trkpt><trkpt lat="45.882928268960804" lon="9.748659146206734"><ele>1017.0</ele><time>2026-05-02T11:12:12Z</time></trkpt><trkpt lat="45.88295636877558" lon="9.748577069176733"><ele>1016.9999999999999</ele><time>2026-05-02T11:12:13Z</time></trkpt><trkpt lat="45.882984257522885" lon="9.748490865921976"><ele>1017.0</ele><time>2026-05-02T11:12:14Z</time></trkpt><trkpt lat="45.88300758144157" lon="9.748400953493011"><ele>1017.0</ele><time>2026-05-02T11:12:15Z</time></trkpt><trkpt lat="45.88302732104378" lon="9.748313383411059"><ele>1016.9999999999999</ele><time>2026-05-02T11:12:16Z</time></trkpt><trkpt lat="45.883047269362244" lon="9.74822449675082"><ele>1017.0</ele><time>2026-05-02T11:12:17Z</time></trkpt><trkpt lat="45.88306520215595" lon="9.748135133375424"><ele>1017.0</ele><time>2026-05-02T11:12:18Z</time></trkpt><trkpt lat="45.883078424635045" lon="9.748043184893719"><ele>1017.7142857142857</ele><time>2026-05-02T11:12:19Z</time></trkpt><trkpt lat="45.88309045764079" lon="9.747949462227945"><ele>1018.4285714285713</ele><time>2026-05-02T11:12:20Z</time></trkpt><trkpt lat="45.88310851222761" lon="9.74785960978378"><ele>1019.1428571428571</ele><time>2026-05-02T11:12:21Z</time></trkpt><trkpt lat="45.883130968252985" lon="9.747771146854264"><ele>1019.8571428571429</ele><time>2026-05-02T11:12:22Z</time></trkpt><trkpt lat="45.8831570543043" lon="9.747683933340381"><ele>1020.5714285714286</ele><time>2026-05-02T11:12:23Z</time></trkpt><trkpt lat="45.883194929105386" lon="9.747609044229412"><ele>1021.2857142857142</ele><time>2026-05-02T11:12:24Z</time></trkpt><trkpt lat="45.88324290317151" lon="9.747546314543621"><ele>1022.0</ele><time>2026-05-02T11:12:25Z</time></trkpt><trkpt lat="45.88332540850532" lon="9.747418224735013"><ele>1024.0</ele><time>2026-05-02T11:12:27Z</time></trkpt><trkpt lat="45.883389410718166" lon="9.7472668752264"><ele>1026.0</ele><time>2026-05-02T11:12:29Z</time></trkpt><trkpt lat="45.883441164343125" lon="9.74709967107885"><ele>1028.0</ele><time>2026-05-02T11:12:31Z</time></trkpt><trkpt lat="45.88345845578178" lon="9.747005705069993"><ele>1030.0</ele><time>2026-05-02T11:12:32Z</time></trkpt><trkpt lat="45.88347344212638" lon="9.746909609225828"><ele>1032.0</ele><time>2026-05-02T11:12:33Z</time></trkpt><trkpt lat="45.883487979112736" lon="9.746807520090584"><ele>1033.5</ele><time>2026-05-02T11:12:34Z</time></trkpt><trkpt lat="45.88350611130128" lon="9.746701793280778"><ele>1035.0</ele><time>2026-05-02T11:12:35Z</time></trkpt><trkpt lat="45.88353829170113" lon="9.746595096015055"><ele>1036.5</ele><time>2026-05-02T11:12:36Z</time></trkpt><trkpt lat="45.883589839414476" lon="9.74650014141164"><ele>1038.0</ele><time>2026-05-02T11:12:37Z</time></trkpt><trkpt lat="45.8836584850315" lon="9.746427645475109"><ele>1039.5</ele><time>2026-05-02T11:12:38Z</time></trkpt><trkpt lat="45.883728695196865" lon="9.746354676061012"><ele>1041.0</ele><time>2026-05-02T11:12:39Z</time></trkpt><trkpt lat="45.88380214741357" lon="9.746283533501408"><ele>1041.0</ele><time>2026-05-02T11:12:40Z</time></trkpt><trkpt lat="45.88387421100138" lon="9.746215494613631"><ele>1041.0</ele><time>2026-05-02T11:12:41Z</time></trkpt><trkpt lat="45.883948097853526" lon="9.746131393599669"><ele>1041.0</ele><time>2026-05-02T11:12:42Z</time></trkpt><trkpt lat="45.88401894769322" lon="9.74604933311322"><ele>1041.0</ele><time>2026-05-02T11:12:43Z</time></trkpt><trkpt lat="45.88408558297421" lon="9.745952732047522"><ele>1041.0</ele><time>2026-05-02T11:12:44Z</time></trkpt><trkpt lat="45.88413731691768" lon="9.74583830459703"><ele>1040.0</ele><time>2026-05-02T11:12:45Z</time></trkpt><trkpt lat="45.884173004916846" lon="9.745704122909462"><ele>1039.0</ele><time>2026-05-02T11:12:46Z</time></trkpt><trkpt lat="45.88420077482192" lon="9.745571206670547"><ele>1038.0</ele><time>2026-05-02T11:12:47Z</time></trkpt><trkpt lat="45.884230363773796" lon="9.74543889721381"><ele>1037.0</ele><time>2026-05-02T11:12:48Z</time></trkpt><trkpt lat="45.884260177456916" lon="9.745305083533719"><ele>1036.0</ele><time>2026-05-02T11:12:49Z</time></trkpt><trkpt lat="45.88427255748093" lon="9.74516457468841"><ele>1035.2</ele><time>2026-05-02T11:12:50Z</time></trkpt><trkpt lat="45.88426266552853" lon="9.745020433249485"><ele>1034.3999999999999</ele><time>2026-05-02T11:12:51Z</time></trkpt><trkpt lat="45.884241611783864" lon="9.744876260563899"><ele>1033.6</ele><time>2026-05-02T11:12:52Z</time></trkpt><trkpt lat="45.88422113220556" lon="9.744733756048273"><ele>1032.8</ele><time>2026-05-02T11:12:53Z</time></trkpt><trkpt lat="45.88420390513051" lon="9.744589416350756"><ele>1032.0</ele><time>2026-05-02T11:12:54Z</time></trkpt><trkpt lat="45.88418902184538" lon="9.744444542388823"><ele>1031.4</ele><time>2026-05-02T11:12:55Z</time></trkpt><trkpt lat="45.88417144725987" lon="9.744299059366861"><ele>1030.8000000000002</ele><time>2026-05-02T11:12:56Z</time></trkpt><trkpt lat="45.88415258638277" lon="9.744152363824522"><ele>1030.2</ele><time>2026-05-02T11:12:57Z</time></trkpt><trkpt lat="45.88413590021366" lon="9.744006306441708"><ele>1029.6000000000001</ele><time>2026-05-02T11:12:58Z</time></trkpt><trkpt lat="45.884118619341415" lon="9.743857726598891"><ele>1029.0</ele><time>2026-05-02T11:12:59Z</time></trkpt><trkpt lat="45.88410144911423" lon="9.74370703458648"><ele>1029.0</ele><time>2026-05-02T11:13:00Z</time></trkpt><trkpt lat="45.884088089094085" lon="9.743553506666998"><ele>1029.0</ele><time>2026-05-02T11:13:01Z</time></trkpt><trkpt lat="45.884079215031605" lon="9.743396839675505"><ele>1029.0</ele><time>2026-05-02T11:13:02Z</time></trkpt><trkpt lat="45.884081076076356" lon="9.743238081112882"><ele>1029.0</ele><time>2026-05-02T11:13:03Z</time></trkpt><trkpt lat="45.88409414713801" lon="9.743081984449027"><ele>1029.0</ele><time>2026-05-02T11:13:04Z</time></trkpt><trkpt lat="45.884126235503466" lon="9.742931017236986"><ele>1027.8</ele><time>2026-05-02T11:13:05Z</time></trkpt><trkpt lat="45.88417747019126" lon="9.742790177088882"><ele>1026.6000000000001</ele><time>2026-05-02T11:13:06Z</time></trkpt><trkpt lat="45.88424212747986" lon="9.742664890409317"><ele>1025.4</ele><time>2026-05-02T11:13:07Z</time></trkpt><trkpt lat="45.88430539454795" lon="9.742545250012741"><ele>1024.2</ele><time>2026-05-02T11:13:08Z</time></trkpt><trkpt lat="45.88436659165797" lon="9.742424255322739"><ele>1023.0</ele><time>2026-05-02T11:13:09Z</time></trkpt><trkpt lat="45.88443120476169" lon="9.742308902097221"><ele>1022.4</ele><time>2026-05-02T11:13:10Z</time></trkpt><trkpt lat="45.8844961289455" lon="9.742191404406919"><ele>1021.8</ele><time>2026-05-02T11:13:11Z</time></trkpt><trkpt lat="45.88455066327678" lon="9.742072912195152"><ele>1021.2</ele><time>2026-05-02T11:13:12Z</time></trkpt><trkpt lat="45.88457727128683" lon="9.741938847411088"><ele>1020.6</ele><time>2026-05-02T11:13:13Z</time></trkpt><trkpt lat="45.88456762675891" lon="9.741797821616288"><ele>1020.0</ele><time>2026-05-02T11:13:14Z</time></trkpt><trkpt lat="45.88453320827095" lon="9.74166710015282"><ele>1020.0</ele><time>2026-05-02T11:13:15Z</time></trkpt><trkpt lat="45.88448373032749" lon="9.741548108058272"><ele>1020.0</ele><time>2026-05-02T11:13:16Z</time></trkpt><trkpt lat="45.88441845863599" lon="9.741447570141515"><ele>1020.0</ele><time>2026-05-02T11:13:17Z</time></trkpt><trkpt lat="45.88434223402555" lon="9.741362768587951"><ele>1020.0</ele><time>2026-05-02T11:13:18Z</time></trkpt><trkpt lat="45.884262228620294" lon="9.741284147005548"><ele>1020.0</ele><time>2026-05-02T11:13:19Z</time></trkpt><trkpt lat="45.88417903693309" lon="9.741209896571894"><ele>1018.8</ele><time>2026-05-02T11:13:20Z</time></trkpt><trkpt lat="45.8841020554543" lon="9.741121968583036"><ele>1017.6</ele><time>2026-05-02T11:13:21Z</time></trkpt><trkpt lat="45.88402112070414" lon="9.74103716884393"><ele>1016.4000000000001</ele><time>2026-05-02T11:13:22Z</time></trkpt><trkpt lat="45.88393951201008" lon="9.740953426565731"><ele>1015.2</ele><time>2026-05-02T11:13:23Z</time></trkpt><trkpt lat="45.88386229790313" lon="9.740858990220657"><ele>1014.0</ele><time>2026-05-02T11:13:24Z</time></trkpt><trkpt lat="45.88379001132347" lon="9.74075285260732"><ele>1014.0</ele><time>2026-05-02T11:13:25Z</time></trkpt><trkpt lat="45.883725838978094" lon="9.740632611466275"><ele>1014.0000000000001</ele><time>2026-05-02T11:13:26Z</time></trkpt><trkpt lat="45.88366829847562" lon="9.740504165322829"><ele>1014.0000000000001</ele><time>2026-05-02T11:13:27Z</time></trkpt><trkpt lat="45.883620295808" lon="9.740365385325612"><ele>1014.0</ele><time>2026-05-02T11:13:28Z</time></trkpt><trkpt lat="45.88357266818678" lon="9.740224765013954"><ele>1014.0</ele><time>2026-05-02T11:13:29Z</time></trkpt><trkpt lat="45.88352620511184" lon="9.740081234338245"><ele>1015.25</ele><time>2026-05-02T11:13:30Z</time></trkpt><trkpt lat="45.88347441891512" lon="9.739934683598925"><ele>1016.5</ele><time>2026-05-02T11:13:31Z</time></trkpt><trkpt lat="45.88342523387809" lon="9.739786832363105"><ele>1017.75</ele><time>2026-05-02T11:13:32Z</time></trkpt><trkpt lat="45.88337685432712" lon="9.739634497056647"><ele>1019.0</ele><time>2026-05-02T11:13:33Z</time></trkpt><trkpt lat="45.88332366291823" lon="9.739483654285069"><ele>1014.75</ele><time>2026-05-02T11:13:34Z</time></trkpt><trkpt lat="45.883252697428986" lon="9.739343368988223"><ele>1010.5</ele><time>2026-05-02T11:13:35Z</time></trkpt><trkpt lat="45.883161935939505" lon="9.739229149736063"><ele>1006.25</ele><time>2026-05-02T11:13:36Z</time></trkpt><trkpt lat="45.88305719987407" lon="9.739138172987126"><ele>1002.0</ele><time>2026-05-02T11:13:37Z</time></trkpt><trkpt lat="45.88295171179439" lon="9.739053705857124"><ele>1002.0</ele><time>2026-05-02T11:13:38Z</time></trkpt><trkpt lat="45.88284471703694" lon="9.73897123531551"><ele>1002.0</ele><time>2026-05-02T11:13:39Z</time></trkpt><trkpt lat="45.8827384457153" lon="9.738876986961913"><ele>1002.0</ele><time>2026-05-02T11:13:40Z</time></trkpt><trkpt lat="45.882636530509686" lon="9.738783967938364"><ele>1002.0</ele><time>2026-05-02T11:13:41Z</time></trkpt><trkpt lat="45.88252403964166" lon="9.738704440139815"><ele>1004.75</ele><time>2026-05-02T11:13:42Z</time></trkpt><trkpt lat="45.88240561826722" lon="9.73862733232667"><ele>1007.5</ele><time>2026-05-02T11:13:43Z</time></trkpt><trkpt lat="45.88227982235779" lon="9.738564265008925"><ele>1010.25</ele><time>2026-05-02T11:13:44Z</time></trkpt><trkpt lat="45.882153402502105" lon="9.738512569659777"><ele>1013.0</ele><time>2026-05-02T11:13:45Z</time></trkpt><trkpt lat="45.8820311269931" lon="9.738459124904832"><ele>1013.0</ele><time>2026-05-02T11:13:46Z</time></trkpt><trkpt lat="45.88190314071118" lon="9.738409137680515"><ele>1013.0</ele><time>2026-05-02T11:13:47Z</time></trkpt><trkpt lat="45.8817819625352" lon="9.73834343155228"><ele>1013.0</ele><time>2026-05-02T11:13:48Z</time></trkpt><trkpt lat="45.8816620652878" lon="9.73827196414209"><ele>1013.0</ele><time>2026-05-02T11:13:49Z</time></trkpt><trkpt lat="45.881538506348285" lon="9.738209041040005"><ele>1007.5</ele><time>2026-05-02T11:13:50Z</time></trkpt><trkpt lat="45.881417766026495" lon="9.738136712415336"><ele>1002.0</ele><time>2026-05-02T11:13:51Z</time></trkpt><trkpt lat="45.88130018260584" lon="9.738057966268764"><ele>996.5</ele><time>2026-05-02T11:13:52Z</time></trkpt><trkpt lat="45.88118569484436" lon="9.737974310407237"><ele>991.0</ele><time>2026-05-02T11:13:53Z</time></trkpt><trkpt lat="45.88106826014401" lon="9.73788722692219"><ele>991.0</ele><time>2026-05-02T11:13:54Z</time></trkpt><trkpt lat="45.88096327114445" lon="9.737785888324687"><ele>991.0</ele><time>2026-05-02T11:13:55Z</time></trkpt><trkpt lat="45.8808651901686" lon="9.737680874166518"><ele>991.0</ele><time>2026-05-02T11:13:56Z</time></trkpt><trkpt lat="45.88076695502309" lon="9.737583487565804"><ele>991.0</ele><time>2026-05-02T11:13:57Z</time></trkpt><trkpt lat="45.88067668591643" lon="9.737487022044457"><ele>991.1999999999999</ele><time>2026-05-02T11:13:58Z</time></trkpt><trkpt lat="45.880605703906646" lon="9.737388157178584"><ele>991.3999999999999</ele><time>2026-05-02T11:13:59Z</time></trkpt><trkpt lat="45.8805501452699" lon="9.737280406528143"><ele>991.6</ele><time>2026-05-02T11:14:00Z</time></trkpt><trkpt lat="45.88052381035696" lon="9.737145350844061"><ele>991.8</ele><time>2026-05-02T11:14:01Z</time></trkpt><trkpt lat="45.880514325311694" lon="9.737001650861481"><ele>992.0</ele><time>2026-05-02T11:14:02Z</time></trkpt><trkpt lat="45.88047736580866" lon="9.736867254818847"><ele>992.0</ele><time>2026-05-02T11:14:03Z</time></trkpt><trkpt lat="45.88043007717438" lon="9.736734323202297"><ele>992.0</ele><time>2026-05-02T11:14:04Z</time></trkpt><trkpt lat="45.880396574020885" lon="9.736603599347859"><ele>992.0</ele><time>2026-05-02T11:14:05Z</time></trkpt><trkpt lat="45.880391714070896" lon="9.73647821872718"><ele>992.0</ele><time>2026-05-02T11:14:06Z</time></trkpt><trkpt lat="45.880409421158795" lon="9.736341489532867"><ele>992.0</ele><time>2026-05-02T11:14:07Z</time></trkpt><trkpt lat="45.88045534833076" lon="9.736210954218127"><ele>992.0</ele><time>2026-05-02T11:14:08Z</time></trkpt><trkpt lat="45.88051529942543" lon="9.736092195609304"><ele>992.0</ele><time>2026-05-02T11:14:09Z</time></trkpt><trkpt lat="45.88059644883518" lon="9.735996794487582"><ele>992.0</ele><time>2026-05-02T11:14:10Z</time></trkpt><trkpt lat="45.880687858954005" lon="9.73591667971022"><ele>992.0</ele><time>2026-05-02T11:14:11Z</time></trkpt><trkpt lat="45.88077210485661" lon="9.735815868535097"><ele>992.0</ele><time>2026-05-02T11:14:12Z</time></trkpt><trkpt lat="45.880840943459894" lon="9.735685791163554"><ele>991.75</ele><time>2026-05-02T11:14:13Z</time></trkpt><trkpt lat="45.88089162956953" lon="9.735538107117112"><ele>991.5</ele><time>2026-05-02T11:14:14Z</time></trkpt><trkpt lat="45.88093210924464" lon="9.735385123871382"><ele>991.25</ele><time>2026-05-02T11:14:15Z</time></trkpt><trkpt lat="45.88096343414643" lon="9.735222859756725"><ele>991.0</ele><time>2026-05-02T11:14:16Z</time></trkpt><trkpt lat="45.88099122814805" lon="9.735059718052163"><ele>991.0</ele><time>2026-05-02T11:14:17Z</time></trkpt><trkpt lat="45.88101113220355" lon="9.734890693456768"><ele>991.0</ele><time>2026-05-02T11:14:18Z</time></trkpt><trkpt lat="45.88102654569335" lon="9.734717160057786"><ele>991.0</ele><time>2026-05-02T11:14:19Z</time></trkpt><trkpt lat="45.88104023133446" lon="9.734543491935082"><ele>991.0</ele><time>2026-05-02T11:14:20Z</time></trkpt><trkpt lat="45.88105569870301" lon="9.734368743557175"><ele>989.5</ele><time>2026-05-02T11:14:21Z</time></trkpt><trkpt lat="45.88107024862275" lon="9.734195387478968"><ele>988.0</ele><time>2026-05-02T11:14:22Z</time></trkpt><trkpt lat="45.881081155303775" lon="9.73402120625633"><ele>986.5</ele><time>2026-05-02T11:14:23Z</time></trkpt><trkpt lat="45.88109294595884" lon="9.733846070923116"><ele>985.0</ele><time>2026-05-02T11:14:24Z</time></trkpt><trkpt lat="45.88110688813986" lon="9.73366990224945"><ele>982.5</ele><time>2026-05-02T11:14:25Z</time></trkpt><trkpt lat="45.88111922293" lon="9.733494065791685"><ele>980.0</ele><time>2026-05-02T11:14:26Z</time></trkpt><trkpt lat="45.881139986340486" lon="9.733318112574583"><ele>977.5</ele><time>2026-05-02T11:14:27Z</time></trkpt><trkpt lat="45.88115818540769" lon="9.733140002033723"><ele>975.0</ele><time>2026-05-02T11:14:28Z</time></trkpt><trkpt lat="45.88116863998178" lon="9.732960033636745"><ele>975.0</ele><time>2026-05-02T11:14:29Z</time></trkpt><trkpt lat="45.88117851261114" lon="9.732779544800621"><ele>975.0</ele><time>2026-05-02T11:14:30Z</time></trkpt><trkpt lat="45.88119166464233" lon="9.732596962913812"><ele>975.0</ele><time>2026-05-02T11:14:31Z</time></trkpt><trkpt lat="45.88120649207734" lon="9.732414164075271"><ele>975.0</ele><time>2026-05-02T11:14:32Z</time></trkpt><trkpt lat="45.881214774610555" lon="9.73223380294185"><ele>970.75</ele><time>2026-05-02T11:14:33Z</time></trkpt><trkpt lat="45.88120825387219" lon="9.732052850867149"><ele>966.5</ele><time>2026-05-02T11:14:34Z</time></trkpt><trkpt lat="45.881188474796346" lon="9.731870896077474"><ele>962.25</ele><time>2026-05-02T11:14:35Z</time></trkpt><trkpt lat="45.881161308404565" lon="9.731692380685427"><ele>958.0</ele><time>2026-05-02T11:14:36Z</time></trkpt><trkpt lat="45.88114132194954" lon="9.731534820627495"><ele>956.2</ele><time>2026-05-02T11:14:37Z</time></trkpt><trkpt lat="45.88113658479802" lon="9.731397767756715"><ele>954.4</ele><time>2026-05-02T11:14:38Z</time></trkpt><trkpt lat="45.88115198629619" lon="9.731268007856247"><ele>952.6000000000001</ele><time>2026-05-02T11:14:39Z</time></trkpt><trkpt lat="45.88119491585312" lon="9.731134382619048"><ele>950.8000000000001</ele><time>2026-05-02T11:14:40Z</time></trkpt><trkpt lat="45.88126363710858" lon="9.73102005155845"><ele>949.0</ele><time>2026-05-02T11:14:41Z</time></trkpt><trkpt lat="45.881346111825614" lon="9.730920309381439"><ele>946.4000000000001</ele><time>2026-05-02T11:14:42Z</time></trkpt><trkpt lat="45.88142937352385" lon="9.730819132074181"><ele>943.8000000000001</ele><time>2026-05-02T11:14:43Z</time></trkpt><trkpt lat="45.881510741340364" lon="9.73071093176866"><ele>941.1999999999999</ele><time>2026-05-02T11:14:44Z</time></trkpt><trkpt lat="45.88159542092764" lon="9.730612894504489"><ele>938.5999999999999</ele><time>2026-05-02T11:14:45Z</time></trkpt><trkpt lat="45.8816775760623" lon="9.73053594008582"><ele>936.0</ele><time>2026-05-02T11:14:46Z</time></trkpt><trkpt lat="45.881743975427405" lon="9.730477124919455"><ele>936.0</ele><time>2026-05-02T11:14:47Z</time></trkpt><trkpt lat="45.881770512203275" lon="9.730392715794899"><ele>936.0000000000001</ele><time>2026-05-02T11:14:48Z</time></trkpt><trkpt lat="45.881753135540905" lon="9.730298201676105"><ele>936.0</ele><time>2026-05-02T11:14:49Z</time></trkpt><trkpt lat="45.88169432646141" lon="9.73023947421988"><ele>936.0</ele><time>2026-05-02T11:14:50Z</time></trkpt><trkpt lat="45.88161681860164" lon="9.73024237210777"><ele>936.0000000000001</ele><time>2026-05-02T11:14:51Z</time></trkpt><trkpt lat="45.88155560525818" lon="9.730308956479105"><ele>936.0</ele><time>2026-05-02T11:14:52Z</time></trkpt><trkpt lat="45.881507670332184" lon="9.73039359906959"><ele>936.0</ele><time>2026-05-02T11:14:53Z</time></trkpt><trkpt lat="45.88145686113275" lon="9.73048054302476"><ele>936.0</ele><time>2026-05-02T11:14:54Z</time></trkpt><trkpt lat="45.88139701519836" lon="9.73055961600826"><ele>936.0</ele><time>2026-05-02T11:14:55Z</time></trkpt><trkpt lat="45.88133044481183" lon="9.730634498899855"><ele>936.0</ele><time>2026-05-02T11:14:56Z</time></trkpt><trkpt lat="45.88126342052583" lon="9.730707787599234"><ele>936.0</ele><time>2026-05-02T11:14:57Z</time></trkpt><trkpt lat="45.881193579207775" lon="9.730784510086897"><ele>936.0</ele><time>2026-05-02T11:14:58Z</time></trkpt><trkpt lat="45.88112210282032" lon="9.73086053739362"><ele>936.0</ele><time>2026-05-02T11:14:59Z</time></trkpt><trkpt lat="45.88105331547826" lon="9.73094448889825"><ele>936.0</ele><time>2026-05-02T11:15:00Z</time></trkpt><trkpt lat="45.88098913802525" lon="9.731038529011919"><ele>935.9999999999999</ele><time>2026-05-02T11:15:01Z</time></trkpt><trkpt lat="45.880927598999264" lon="9.731142477562324"><ele>935.9999999999999</ele><time>2026-05-02T11:15:02Z</time></trkpt><trkpt lat="45.880868270281404" lon="9.731257970411407"><ele>936.0</ele><time>2026-05-02T11:15:03Z</time></trkpt><trkpt lat="45.88081230924874" lon="9.731384887169744"><ele>936.0</ele><time>2026-05-02T11:15:04Z</time></trkpt><trkpt lat="45.880756902049704" lon="9.731513234117314"><ele>933.1999999999999</ele><time>2026-05-02T11:15:05Z</time></trkpt><trkpt lat="45.88069588572656" lon="9.731629709298607"><ele>930.3999999999999</ele><time>2026-05-02T11:15:06Z</time></trkpt><trkpt lat="45.88064554484163" lon="9.731740208283943"><ele>927.6</ele><time>2026-05-02T11:15:07Z</time></trkpt><trkpt lat="45.880617318432" lon="9.731858424668726"><ele>924.8</ele><time>2026-05-02T11:15:08Z</time></trkpt><trkpt lat="45.88061285194419" lon="9.731998101409083"><ele>922.0</ele><time>2026-05-02T11:15:09Z</time></trkpt><trkpt lat="45.880622488880505" lon="9.732143906500738"><ele>921.8</ele><time>2026-05-02T11:15:10Z</time></trkpt><trkpt lat="45.88063095042571" lon="9.732293094980045"><ele>921.6</ele><time>2026-05-02T11:15:11Z</time></trkpt><trkpt lat="45.880637412419716" lon="9.732446416930065"><ele>921.3999999999999</ele><time>2026-05-02T11:15:12Z</time></trkpt><trkpt lat="45.880631907261346" lon="9.732602012466577"><ele>921.1999999999999</ele><time>2026-05-02T11:15:13Z</time></trkpt><trkpt lat="45.88060654389022" lon="9.732759602699026"><ele>921.0</ele><time>2026-05-02T11:15:14Z</time></trkpt><trkpt lat="45.88056608877426" lon="9.7329147896939"><ele>923.0</ele><time>2026-05-02T11:15:15Z</time></trkpt><trkpt lat="45.88051516390956" lon="9.73306447640054"><ele>924.9999999999999</ele><time>2026-05-02T11:15:16Z</time></trkpt><trkpt lat="45.88046812684154" lon="9.73318627514116"><ele>926.9999999999999</ele><time>2026-05-02T11:15:17Z</time></trkpt><trkpt lat="45.88043197194323" lon="9.73328227953193"><ele>929.0</ele><time>2026-05-02T11:15:18Z</time></trkpt><trkpt lat="45.880396089507585" lon="9.733387009953814"><ele>931.0</ele><time>2026-05-02T11:15:19Z</time></trkpt><trkpt lat="45.880337772442545" lon="9.733473137358583"><ele>931.0</ele><time>2026-05-02T11:15:20Z</time></trkpt><trkpt lat="45.88026085049138" lon="9.733536310161334"><ele>930.9999999999999</ele><time>2026-05-02T11:15:21Z</time></trkpt><trkpt lat="45.88017628049879" lon="9.733580605727818"><ele>930.9999999999999</ele><time>2026-05-02T11:15:22Z</time></trkpt><trkpt lat="45.88009543407635" lon="9.733636833347344"><ele>931.0</ele><time>2026-05-02T11:15:23Z</time></trkpt><trkpt lat="45.880016733253946" lon="9.733705617636835"><ele>931.0</ele><time>2026-05-02T11:15:24Z</time></trkpt><trkpt lat="45.87994741060159" lon="9.733801712523379"><ele>926.5999999999999</ele><time>2026-05-02T11:15:25Z</time></trkpt><trkpt lat="45.87990401452396" lon="9.73392333289715"><ele>922.1999999999999</ele><time>2026-05-02T11:15:26Z</time></trkpt><trkpt lat="45.8798918285078" lon="9.734065417190163"><ele>917.8000000000001</ele><time>2026-05-02T11:15:27Z</time></trkpt><trkpt lat="45.87990939016879" lon="9.734205049096602"><ele>913.4000000000001</ele><time>2026-05-02T11:15:28Z</time></trkpt><trkpt lat="45.87994582715076" lon="9.734337203506092"><ele>909.0</ele><time>2026-05-02T11:15:29Z</time></trkpt><trkpt lat="45.879972174687246" lon="9.734474745301545"><ele>909.0</ele><time>2026-05-02T11:15:30Z</time></trkpt><trkpt lat="45.87998604048158" lon="9.734617517999515"><ele>909.0000000000001</ele><time>2026-05-02T11:15:31Z</time></trkpt><trkpt lat="45.87997030673495" lon="9.734759505576069"><ele>909.0000000000001</ele><time>2026-05-02T11:15:32Z</time></trkpt><trkpt lat="45.879917467863706" lon="9.734887358759725"><ele>909.0</ele><time>2026-05-02T11:15:33Z</time></trkpt><trkpt lat="45.879842175286015" lon="9.734994458053373"><ele>909.0</ele><time>2026-05-02T11:15:34Z</time></trkpt><trkpt lat="45.8797649271466" lon="9.735097348913204"><ele>909.0</ele><time>2026-05-02T11:15:35Z</time></trkpt><trkpt lat="45.879679943363264" lon="9.735191642927429"><ele>909.0000000000001</ele><time>2026-05-02T11:15:36Z</time></trkpt><trkpt lat="45.87958560259939" lon="9.735267262413755"><ele>909.0000000000001</ele><time>2026-05-02T11:15:37Z</time></trkpt><trkpt lat="45.87948204715618" lon="9.735313973209506"><ele>909.0</ele><time>2026-05-02T11:15:38Z</time></trkpt><trkpt lat="45.87937818142259" lon="9.735343030965593"><ele>909.0</ele><time>2026-05-02T11:15:39Z</time></trkpt><trkpt lat="45.87927626301229" lon="9.735377900631661"><ele>906.8333333333334</ele><time>2026-05-02T11:15:40Z</time></trkpt><trkpt lat="45.87917540284148" lon="9.73542130278717"><ele>904.6666666666667</ele><time>2026-05-02T11:15:41Z</time></trkpt><trkpt lat="45.87908366243536" lon="9.735459515480546"><ele>902.5</ele><time>2026-05-02T11:15:42Z</time></trkpt><trkpt lat="45.87900452224926" lon="9.735489932506928"><ele>900.3333333333334</ele><time>2026-05-02T11:15:43Z</time></trkpt><trkpt lat="45.878931328476305" lon="9.735499892188212"><ele>898.1666666666667</ele><time>2026-05-02T11:15:44Z</time></trkpt><trkpt lat="45.87885067653295" lon="9.73547917463203"><ele>896.0</ele><time>2026-05-02T11:15:45Z</time></trkpt><trkpt lat="45.87876999156251" lon="9.735439761251483"><ele>896.0000000000001</ele><time>2026-05-02T11:15:46Z</time></trkpt><trkpt lat="45.878687837009984" lon="9.735394101306312"><ele>896.0</ele><time>2026-05-02T11:15:47Z</time></trkpt><trkpt lat="45.87860382615702" lon="9.73535418190138"><ele>896.0</ele><time>2026-05-02T11:15:48Z</time></trkpt><trkpt lat="45.87853209602896" lon="9.735299772861532"><ele>896.0</ele><time>2026-05-02T11:15:49Z</time></trkpt><trkpt lat="45.87848133860841" lon="9.735218237529558"><ele>896.0000000000001</ele><time>2026-05-02T11:15:50Z</time></trkpt><trkpt lat="45.87844155007841" lon="9.735112048587222"><ele>896.0</ele><time>2026-05-02T11:15:51Z</time></trkpt><trkpt lat="45.87842424382092" lon="9.734983666784384"><ele>895.1999999999999</ele><time>2026-05-02T11:15:52Z</time></trkpt><trkpt lat="45.87842427827577" lon="9.734849953744861"><ele>894.3999999999999</ele><time>2026-05-02T11:15:53Z</time></trkpt><trkpt lat="45.878437338942625" lon="9.734711687795466"><ele>893.6</ele><time>2026-05-02T11:15:54Z</time></trkpt><trkpt lat="45.87847664878693" lon="9.734576543952027"><ele>892.8</ele><time>2026-05-02T11:15:55Z</time></trkpt><trkpt lat="45.87853199745856" lon="9.734446921399678"><ele>892.0</ele><time>2026-05-02T11:15:56Z</time></trkpt><trkpt lat="45.878589783692675" lon="9.734318100640658"><ele>888.75</ele><time>2026-05-02T11:15:57Z</time></trkpt><trkpt lat="45.878653183981015" lon="9.734190476196485"><ele>885.5</ele><time>2026-05-02T11:15:58Z</time></trkpt><trkpt lat="45.878728335108136" lon="9.734068820085124"><ele>882.25</ele><time>2026-05-02T11:15:59Z</time></trkpt><trkpt lat="45.87881465655349" lon="9.733956345202948"><ele>879.0</ele><time>2026-05-02T11:16:00Z</time></trkpt><trkpt lat="45.878904197873716" lon="9.733842747673313"><ele>879.0</ele><time>2026-05-02T11:16:01Z</time></trkpt><trkpt lat="45.87898440225373" lon="9.73373763201482"><ele>879.0</ele><time>2026-05-02T11:16:02Z</time></trkpt><trkpt lat="45.87905019268557" lon="9.733640873356851"><ele>879.0</ele><time>2026-05-02T11:16:03Z</time></trkpt><trkpt lat="45.87908739102014" lon="9.73354428932782"><ele>879.0</ele><time>2026-05-02T11:16:04Z</time></trkpt><trkpt lat="45.87909142354612" lon="9.733432662488022"><ele>879.0</ele><time>2026-05-02T11:16:05Z</time></trkpt><trkpt lat="45.879056027216784" lon="9.733327922577802"><ele>879.0</ele><time>2026-05-02T11:16:06Z</time></trkpt><trkpt lat="45.87898704220518" lon="9.733267443516338"><ele>879.0</ele><time>2026-05-02T11:16:07Z</time></trkpt><trkpt lat="45.87890021730658" lon="9.733270114094534"><ele>879.0</ele><time>2026-05-02T11:16:08Z</time></trkpt><trkpt lat="45.87882061387274" lon="9.73333536304647"><ele>879.0</ele><time>2026-05-02T11:16:09Z</time></trkpt><trkpt lat="45.878759486689304" lon="9.733405840231413"><ele>879.0</ele><time>2026-05-02T11:16:10Z</time></trkpt><trkpt lat="45.87868798067221" lon="9.733462745313187"><ele>879.0</ele><time>2026-05-02T11:16:11Z</time></trkpt><trkpt lat="45.878614873074476" lon="9.733523986395411"><ele>879.0</ele><time>2026-05-02T11:16:12Z</time></trkpt><trkpt lat="45.878540444325026" lon="9.733595473520024"><ele>879.0</ele><time>2026-05-02T11:16:13Z</time></trkpt><trkpt lat="45.87846351655641" lon="9.733669776694537"><ele>879.0000000000001</ele><time>2026-05-02T11:16:14Z</time></trkpt><trkpt lat="45.878388621597225" lon="9.73375396053353"><ele>879.0000000000001</ele><time>2026-05-02T11:16:15Z</time></trkpt><trkpt lat="45.878314049792756" lon="9.733847073360621"><ele>879.0</ele><time>2026-05-02T11:16:16Z</time></trkpt><trkpt lat="45.878232508250804" lon="9.733938149403148"><ele>879.0</ele><time>2026-05-02T11:16:17Z</time></trkpt><trkpt lat="45.87815107984968" lon="9.734034833470371"><ele>876.4000000000001</ele><time>2026-05-02T11:16:18Z</time></trkpt><trkpt lat="45.87806660708132" lon="9.734136028173198"><ele>873.8000000000001</ele><time>2026-05-02T11:16:19Z</time></trkpt><trkpt lat="45.877977851799535" lon="9.734220126674899"><ele>871.1999999999999</ele><time>2026-05-02T11:16:20Z</time></trkpt><trkpt lat="45.877877516928756" lon="9.734261525455132"><ele>868.5999999999999</ele><time>2026-05-02T11:16:21Z</time></trkpt><trkpt lat="45.87776880170011" lon="9.734257513710238"><ele>866.0</ele><time>2026-05-02T11:16:22Z</time></trkpt><trkpt lat="45.87767165325235" lon="9.734235672521464"><ele>865.0000000000001</ele><time>2026-05-02T11:16:23Z</time></trkpt><trkpt lat="45.8775879139428" lon="9.734187467716794"><ele>864.0</ele><time>2026-05-02T11:16:24Z</time></trkpt><trkpt lat="45.87752199532285" lon="9.73409625547633"><ele>863.0</ele><time>2026-05-02T11:16:25Z</time></trkpt><trkpt lat="45.87749181233674" lon="9.733975676812886"><ele>862.0</ele><time>2026-05-02T11:16:26Z</time></trkpt><trkpt lat="45.877450722596286" lon="9.733862220398752"><ele>861.0000000000001</ele><time>2026-05-02T11:16:27Z</time></trkpt><trkpt lat="45.87743145240362" lon="9.733742706196411"><ele>860.0</ele><time>2026-05-02T11:16:28Z</time></trkpt><trkpt lat="45.877406475527145" lon="9.733622502501769"><ele>859.0</ele><time>2026-05-02T11:16:29Z</time></trkpt><trkpt lat="45.87737900832103" lon="9.73349739656629"><ele>858.0</ele><time>2026-05-02T11:16:30Z</time></trkpt><trkpt lat="45.877350806029526" lon="9.733370950575694"><ele>857.0</ele><time>2026-05-02T11:16:31Z</time></trkpt><trkpt lat="45.877321484166934" lon="9.733238383696847"><ele>856.0</ele><time>2026-05-02T11:16:32Z</time></trkpt><trkpt lat="45.87729279068426" lon="9.73310479809399"><ele>855.0</ele><time>2026-05-02T11:16:33Z</time></trkpt><trkpt lat="45.87725670036842" lon="9.732968916871933"><ele>855.0</ele><time>2026-05-02T11:16:34Z</time></trkpt><trkpt lat="45.877222636922546" lon="9.732827269164424"><ele>855.0</ele><time>2026-05-02T11:16:35Z</time></trkpt><trkpt lat="45.87719292701105" lon="9.73267968475729"><ele>855.0</ele><time>2026-05-02T11:16:36Z</time></trkpt><trkpt lat="45.87716235326973" lon="9.73252482075496"><ele>855.0</ele><time>2026-05-02T11:16:37Z</time></trkpt><trkpt lat="45.877128112182156" lon="9.732369920648388"><ele>855.0</ele><time>2026-05-02T11:16:38Z</time></trkpt><trkpt lat="45.8770963933187" lon="9.73221456767946"><ele>853.0</ele><time>2026-05-02T11:16:39Z</time></trkpt><trkpt lat="45.87707339945546" lon="9.732047442886756"><ele>851.0</ele><time>2026-05-02T11:16:40Z</time></trkpt><trkpt lat="45.87706043846598" lon="9.731881162193437"><ele>849.0</ele><time>2026-05-02T11:16:41Z</time></trkpt><trkpt lat="45.8770430703883" lon="9.731711121718318"><ele>847.0</ele><time>2026-05-02T11:16:42Z</time></trkpt><trkpt lat="45.87702353095445" lon="9.731541589549353"><ele>845.0</ele><time>2026-05-02T11:16:43Z</time></trkpt><trkpt lat="45.877000694719825" lon="9.731372121218865"><ele>843.0</ele><time>2026-05-02T11:16:44Z</time></trkpt><trkpt lat="45.87697286326601" lon="9.731200109552143"><ele>841.0</ele><time>2026-05-02T11:16:45Z</time></trkpt><trkpt lat="45.876938064617725" lon="9.731040458992368"><ele>839.0</ele><time>2026-05-02T11:16:46Z</time></trkpt><trkpt lat="45.876894534683174" lon="9.73089399905534"><ele>838.25</ele><time>2026-05-02T11:16:47Z</time></trkpt><trkpt lat="45.8768508287241" lon="9.7307544560187"><ele>837.5</ele><time>2026-05-02T11:16:48Z</time></trkpt><trkpt lat="45.87678344873114" lon="9.730629113250892"><ele>836.75</ele><time>2026-05-02T11:16:49Z</time></trkpt><trkpt lat="45.87669005244873" lon="9.730519961700095"><ele>836.0</ele><time>2026-05-02T11:16:50Z</time></trkpt><trkpt lat="45.87660796231352" lon="9.730395500381299"><ele>836.0</ele><time>2026-05-02T11:16:51Z</time></trkpt><trkpt lat="45.87652365965309" lon="9.730277261149048"><ele>836.0</ele><time>2026-05-02T11:16:52Z</time></trkpt><trkpt lat="45.87644076224437" lon="9.730172919032896"><ele>836.0</ele><time>2026-05-02T11:16:53Z</time></trkpt><trkpt lat="45.876360363509804" lon="9.730088612100884"><ele>836.0</ele><time>2026-05-02T11:16:54Z</time></trkpt><trkpt lat="45.87626904703177" lon="9.73002584355768"><ele>836.0</ele><time>2026-05-02T11:16:55Z</time></trkpt><trkpt lat="45.8761628071206" lon="9.730014855977414"><ele>834.1999999999999</ele><time>2026-05-02T11:16:56Z</time></trkpt><trkpt lat="45.87605775543901" lon="9.730024047494211"><ele>832.4</ele><time>2026-05-02T11:16:57Z</time></trkpt><trkpt lat="45.87595313186818" lon="9.730046001402748"><ele>830.6</ele><time>2026-05-02T11:16:58Z</time></trkpt><trkpt lat="45.875853035342935" lon="9.73006584868674"><ele>828.8</ele><time>2026-05-02T11:16:59Z</time></trkpt><trkpt lat="45.8757539533503" lon="9.730084287986088"><ele>827.0</ele><time>2026-05-02T11:17:00Z</time></trkpt><trkpt lat="45.87566080517894" lon="9.730107221611238"><ele>827.0000000000001</ele><time>2026-05-02T11:17:01Z</time></trkpt><trkpt lat="45.875572372864035" lon="9.730132102984896"><ele>827.0</ele><time>2026-05-02T11:17:02Z</time></trkpt><trkpt lat="45.875484692719034" lon="9.730154132573144"><ele>827.0</ele><time>2026-05-02T11:17:03Z</time></trkpt><trkpt lat="45.875401560976854" lon="9.730175499593228"><ele>827.0</ele><time>2026-05-02T11:17:04Z</time></trkpt><trkpt lat="45.87532355776751" lon="9.73019664903103"><ele>827.0000000000001</ele><time>2026-05-02T11:17:05Z</time></trkpt><trkpt lat="45.87524907027233" lon="9.730219525162013"><ele>827.0</ele><time>2026-05-02T11:17:06Z</time></trkpt><trkpt lat="45.87517772124762" lon="9.730241160586388"><ele>828.3333333333334</ele><time>2026-05-02T11:17:07Z</time></trkpt><trkpt lat="45.87510947499184" lon="9.730262873483008"><ele>829.6666666666667</ele><time>2026-05-02T11:17:08Z</time></trkpt><trkpt lat="45.87504449871723" lon="9.730285030301788"><ele>831.0</ele><time>2026-05-02T11:17:09Z</time></trkpt><trkpt lat="45.87498056328999" lon="9.730307786197724"><ele>832.3333333333333</ele><time>2026-05-02T11:17:10Z</time></trkpt><trkpt lat="45.87491807058817" lon="9.730329805692508"><ele>833.6666666666666</ele><time>2026-05-02T11:17:11Z</time></trkpt><trkpt lat="45.8747966407574" lon="9.73036671210648"><ele>835.0</ele><time>2026-05-02T11:17:13Z</time></trkpt><trkpt lat="45.87467267913298" lon="9.730397798582105"><ele>835.0</ele><time>2026-05-02T11:17:15Z</time></trkpt><trkpt lat="45.87455214137795" lon="9.730437799475743"><ele>835.0</ele><time>2026-05-02T11:17:17Z</time></trkpt><trkpt lat="45.87442767216306" lon="9.730470283133863"><ele>835.0</ele><time>2026-05-02T11:17:19Z</time></trkpt><trkpt lat="45.87430670521586" lon="9.730512495183333"><ele>835.0</ele><time>2026-05-02T11:17:21Z</time></trkpt><trkpt lat="45.87424379635249" lon="9.730533997675503"><ele>835.0</ele><time>2026-05-02T11:17:22Z</time></trkpt><trkpt lat="45.87412149856526" lon="9.73057067583681"><ele>834.6</ele><time>2026-05-02T11:17:24Z</time></trkpt><trkpt lat="45.87400064817139" lon="9.730613982725927"><ele>834.2</ele><time>2026-05-02T11:17:26Z</time></trkpt><trkpt lat="45.87387865686931" lon="9.730649335651389"><ele>833.8</ele><time>2026-05-02T11:17:28Z</time></trkpt><trkpt lat="45.87375727653329" lon="9.730679827246506"><ele>833.4</ele><time>2026-05-02T11:17:30Z</time></trkpt><trkpt lat="45.87369573499172" lon="9.730700419090937"><ele>833.0</ele><time>2026-05-02T11:17:31Z</time></trkpt><trkpt lat="45.87357435037136" lon="9.730739915904778"><ele>833.0</ele><time>2026-05-02T11:17:33Z</time></trkpt><trkpt lat="45.873512666325176" lon="9.730758323622723"><ele>833.0</ele><time>2026-05-02T11:17:34Z</time></trkpt><trkpt lat="45.87340378777627" lon="9.730793147276831"><ele>833.0</ele><time>2026-05-02T11:17:36Z</time></trkpt><trkpt lat="45.87330219539168" lon="9.730824334884304"><ele>833.0</ele><time>2026-05-02T11:17:38Z</time></trkpt><trkpt lat="45.87318550981386" lon="9.730857494314073"><ele>833.0</ele><time>2026-05-02T11:17:40Z</time></trkpt><trkpt lat="45.87306670419457" lon="9.73089233629732"><ele>832.3333333333334</ele><time>2026-05-02T11:17:42Z</time></trkpt><trkpt lat="45.872944116226144" lon="9.730930310584576"><ele>831.6666666666667</ele><time>2026-05-02T11:17:44Z</time></trkpt><trkpt lat="45.87281900458341" lon="9.730955421545271"><ele>831.0</ele><time>2026-05-02T11:17:46Z</time></trkpt><trkpt lat="45.87275530748824" lon="9.730956830733083"><ele>830.3333333333333</ele><time>2026-05-02T11:17:47Z</time></trkpt><trkpt lat="45.872688448983894" lon="9.730960634078931"><ele>829.6666666666666</ele><time>2026-05-02T11:17:48Z</time></trkpt><trkpt lat="45.872622679682564" lon="9.730968939684235"><ele>829.0</ele><time>2026-05-02T11:17:49Z</time></trkpt><trkpt lat="45.87255179125334" lon="9.730969258683682"><ele>829.0</ele><time>2026-05-02T11:17:50Z</time></trkpt><trkpt lat="45.8724832150382" lon="9.730969927508108"><ele>829.0</ele><time>2026-05-02T11:17:51Z</time></trkpt><trkpt lat="45.87241554916111" lon="9.730963607868132"><ele>829.0</ele><time>2026-05-02T11:17:52Z</time></trkpt><trkpt lat="45.872345811475654" lon="9.730951547116153"><ele>829.0</ele><time>2026-05-02T11:17:53Z</time></trkpt><trkpt lat="45.87227766502465" lon="9.730921844949608"><ele>829.0</ele><time>2026-05-02T11:17:54Z</time></trkpt><trkpt lat="45.87221598509249" lon="9.730867162026978"><ele>829.0</ele><time>2026-05-02T11:17:55Z</time></trkpt><trkpt lat="45.872153054300476" lon="9.730809997604899"><ele>829.0</ele><time>2026-05-02T11:17:56Z</time></trkpt><trkpt lat="45.87208448633239" lon="9.73076410060027"><ele>828.9999999999999</ele><time>2026-05-02T11:17:57Z</time></trkpt><trkpt lat="45.872008711451386" lon="9.730727889012991"><ele>829.0</ele><time>2026-05-02T11:17:58Z</time></trkpt><trkpt lat="45.8719313024514" lon="9.730712629805684"><ele>829.0</ele><time>2026-05-02T11:17:59Z</time></trkpt><trkpt lat="45.87184485567507" lon="9.730704624639905"><ele>829.0</ele><time>2026-05-02T11:18:00Z</time></trkpt><trkpt lat="45.87176048641269" lon="9.730725675335608"><ele>828.9999999999999</ele><time>2026-05-02T11:18:01Z</time></trkpt><trkpt lat="45.871674877535455" lon="9.730766162045168"><ele>829.0</ele><time>2026-05-02T11:18:02Z</time></trkpt><trkpt lat="45.87159166925493" lon="9.73080176658338"><ele>827.3333333333333</ele><time>2026-05-02T11:18:03Z</time></trkpt><trkpt lat="45.87150626638661" lon="9.7308413765318"><ele>825.6666666666666</ele><time>2026-05-02T11:18:04Z</time></trkpt><trkpt lat="45.87142341409808" lon="9.73087756888067"><ele>824.0</ele><time>2026-05-02T11:18:05Z</time></trkpt><trkpt lat="45.87134246266124" lon="9.730918918772785"><ele>822.3333333333333</ele><time>2026-05-02T11:18:06Z</time></trkpt><trkpt lat="45.871258992" lon="9.7309522487721"><ele>820.6666666666666</ele><time>2026-05-02T11:18:07Z</time></trkpt><trkpt lat="45.87117922105567" lon="9.73098419865664"><ele>819.0</ele><time>2026-05-02T11:18:08Z</time></trkpt><trkpt lat="45.87109555446378" lon="9.73100646431519"><ele>819.0</ele><time>2026-05-02T11:18:09Z</time></trkpt><trkpt lat="45.8710123278692" lon="9.731024473298001"><ele>819.0</ele><time>2026-05-02T11:18:10Z</time></trkpt><trkpt lat="45.87091944100591" lon="9.731046146563108"><ele>819.0</ele><time>2026-05-02T11:18:11Z</time></trkpt><trkpt lat="45.87082751521193" lon="9.731071757915222"><ele>819.0</ele><time>2026-05-02T11:18:12Z</time></trkpt><trkpt lat="45.870733380058375" lon="9.731100013155986"><ele>819.0</ele><time>2026-05-02T11:18:13Z</time></trkpt><trkpt lat="45.87064164208513" lon="9.731142055671228"><ele>819.6</ele><time>2026-05-02T11:18:14Z</time></trkpt><trkpt lat="45.870549675495646" lon="9.731201660146953"><ele>820.2</ele><time>2026-05-02T11:18:15Z</time></trkpt><trkpt lat="45.87045707858608" lon="9.73126667778417"><ele>820.8000000000001</ele><time>2026-05-02T11:18:16Z</time></trkpt><trkpt lat="45.8703634671491" lon="9.73133231953789"><ele>821.4000000000001</ele><time>2026-05-02T11:18:17Z</time></trkpt><trkpt lat="45.87026966961175" lon="9.731401470973088"><ele>822.0</ele><time>2026-05-02T11:18:18Z</time></trkpt><trkpt lat="45.870170874199886" lon="9.73146444157405"><ele>820.6</ele><time>2026-05-02T11:18:19Z</time></trkpt><trkpt lat="45.87006326965607" lon="9.731495354345887"><ele>819.2</ele><time>2026-05-02T11:18:20Z</time></trkpt><trkpt lat="45.869955599067985" lon="9.731479133516384"><ele>817.8</ele><time>2026-05-02T11:18:21Z</time></trkpt><trkpt lat="45.86984990072725" lon="9.73142678868833"><ele>816.4</ele><time>2026-05-02T11:18:22Z</time></trkpt><trkpt lat="45.86975055996966" lon="9.731352934066448"><ele>815.0</ele><time>2026-05-02T11:18:23Z</time></trkpt><trkpt lat="45.86965173649969" lon="9.731275765375806"><ele>815.0</ele><time>2026-05-02T11:18:24Z</time></trkpt><trkpt lat="45.86955021028769" lon="9.731208682013765"><ele>815.0</ele><time>2026-05-02T11:18:25Z</time></trkpt><trkpt lat="45.86944586657554" lon="9.73114155791207"><ele>815.0</ele><time>2026-05-02T11:18:26Z</time></trkpt><trkpt lat="45.8693397765969" lon="9.731071711053875"><ele>815.0</ele><time>2026-05-02T11:18:27Z</time></trkpt><trkpt lat="45.86923227659236" lon="9.731001844078602"><ele>812.0</ele><time>2026-05-02T11:18:28Z</time></trkpt><trkpt lat="45.86912178547745" lon="9.730928246500472"><ele>809.0</ele><time>2026-05-02T11:18:29Z</time></trkpt><trkpt lat="45.86901049108838" lon="9.730857291842055"><ele>806.0</ele><time>2026-05-02T11:18:30Z</time></trkpt><trkpt lat="45.868896748478214" lon="9.730787893251396"><ele>803.0</ele><time>2026-05-02T11:18:31Z</time></trkpt><trkpt lat="45.868781020818275" lon="9.730720217964116"><ele>803.0</ele><time>2026-05-02T11:18:32Z</time></trkpt><trkpt lat="45.86866522737875" lon="9.730648965315845"><ele>803.0</ele><time>2026-05-02T11:18:33Z</time></trkpt><trkpt lat="45.86855310053393" lon="9.730581168219597"><ele>803.0</ele><time>2026-05-02T11:18:34Z</time></trkpt><trkpt lat="45.8684399526516" lon="9.73052320304529"><ele>803.0</ele><time>2026-05-02T11:18:35Z</time></trkpt><trkpt lat="45.86832826440923" lon="9.730471880009816"><ele>802.75</ele><time>2026-05-02T11:18:36Z</time></trkpt><trkpt lat="45.868212828004786" lon="9.730445074997174"><ele>802.5</ele><time>2026-05-02T11:18:37Z</time></trkpt><trkpt lat="45.868093799175554" lon="9.730450046231768"><ele>802.25</ele><time>2026-05-02T11:18:38Z</time></trkpt><trkpt lat="45.86797637238682" lon="9.730458467725862"><ele>802.0</ele><time>2026-05-02T11:18:39Z</time></trkpt><trkpt lat="45.86785651220605" lon="9.730481775704693"><ele>802.0</ele><time>2026-05-02T11:18:40Z</time></trkpt><trkpt lat="45.86773887539617" lon="9.730492307172524"><ele>802.0</ele><time>2026-05-02T11:18:41Z</time></trkpt><trkpt lat="45.86762526824745" lon="9.730488202833266"><ele>802.0</ele><time>2026-05-02T11:18:42Z</time></trkpt><trkpt lat="45.867515297853615" lon="9.730468848882486"><ele>802.0</ele><time>2026-05-02T11:18:43Z</time></trkpt><trkpt lat="45.867409383231454" lon="9.730424351319883"><ele>802.0</ele><time>2026-05-02T11:18:44Z</time></trkpt><trkpt lat="45.86731051395061" lon="9.730344462637872"><ele>802.0</ele><time>2026-05-02T11:18:45Z</time></trkpt><trkpt lat="45.86721666688974" lon="9.730256050025226"><ele>802.0</ele><time>2026-05-02T11:18:46Z</time></trkpt><trkpt lat="45.86712565700482" lon="9.730162132157183"><ele>802.0</ele><time>2026-05-02T11:18:47Z</time></trkpt><trkpt lat="45.867029392714976" lon="9.730079306177362"><ele>798.8</ele><time>2026-05-02T11:18:48Z</time></trkpt><trkpt lat="45.86693413110549" lon="9.729999315169644"><ele>795.6</ele><time>2026-05-02T11:18:49Z</time></trkpt><trkpt lat="45.86683318102335" lon="9.729955568027"><ele>792.4</ele><time>2026-05-02T11:18:50Z</time></trkpt><trkpt lat="45.86673462395459" lon="9.72994911433288"><ele>789.1999999999999</ele><time>2026-05-02T11:18:51Z</time></trkpt><trkpt lat="45.86664578184388" lon="9.729959280250217"><ele>786.0</ele><time>2026-05-02T11:18:52Z</time></trkpt><trkpt lat="45.86656734260085" lon="9.729986308040129"><ele>786.0</ele><time>2026-05-02T11:18:53Z</time></trkpt><trkpt lat="45.866500926284175" lon="9.730026196064196"><ele>786.0</ele><time>2026-05-02T11:18:54Z</time></trkpt><trkpt lat="45.866444276170775" lon="9.730066780031631"><ele>786.0</ele><time>2026-05-02T11:18:55Z</time></trkpt><trkpt lat="45.866354941585804" lon="9.730176841613378"><ele>786.0</ele><time>2026-05-02T11:18:57Z</time></trkpt><trkpt lat="45.86626912893137" lon="9.730292251372795"><ele>786.0</ele><time>2026-05-02T11:18:59Z</time></trkpt><trkpt lat="45.866196587311364" lon="9.730409270939571"><ele>789.0</ele><time>2026-05-02T11:19:01Z</time></trkpt><trkpt lat="45.86612330836306" lon="9.730521793523891"><ele>792.0</ele><time>2026-05-02T11:19:03Z</time></trkpt><trkpt lat="45.86602606978137" lon="9.730606542847802"><ele>795.0</ele><time>2026-05-02T11:19:05Z</time></trkpt><trkpt lat="45.86592077765836" lon="9.730670941028222"><ele>798.0</ele><time>2026-05-02T11:19:07Z</time></trkpt><trkpt lat="45.86581489290285" lon="9.730732734658144"><ele>798.0</ele><time>2026-05-02T11:19:09Z</time></trkpt><trkpt lat="45.86570822868061" lon="9.730785932765363"><ele>798.0</ele><time>2026-05-02T11:19:11Z</time></trkpt><trkpt lat="45.86560206190986" lon="9.730839353622935"><ele>798.0</ele><time>2026-05-02T11:19:13Z</time></trkpt><trkpt lat="45.865495884579595" lon="9.73089482602944"><ele>798.0</ele><time>2026-05-02T11:19:15Z</time></trkpt><trkpt lat="45.86538855573537" lon="9.730952350846401"><ele>798.0</ele><time>2026-05-02T11:19:17Z</time></trkpt><trkpt lat="45.865276905333594" lon="9.731008141727969"><ele>798.0</ele><time>2026-05-02T11:19:19Z</time></trkpt><trkpt lat="45.865170614748685" lon="9.731054737384095"><ele>798.0</ele><time>2026-05-02T11:19:21Z</time></trkpt><trkpt lat="45.86507344115486" lon="9.73113439933012"><ele>798.0</ele><time>2026-05-02T11:19:23Z</time></trkpt><trkpt lat="45.86498298315552" lon="9.731217392236685"><ele>798.0</ele><time>2026-05-02T11:19:25Z</time></trkpt><trkpt lat="45.8648948552857" lon="9.73130958682885"><ele>802.2</ele><time>2026-05-02T11:19:27Z</time></trkpt><trkpt lat="45.864807288616575" lon="9.731400189703573"><ele>806.4</ele><time>2026-05-02T11:19:29Z</time></trkpt><trkpt lat="45.86471055643727" lon="9.731459830546118"><ele>810.6</ele><time>2026-05-02T11:19:31Z</time></trkpt><trkpt lat="45.86460752043553" lon="9.731497840965922"><ele>814.8000000000001</ele><time>2026-05-02T11:19:33Z</time></trkpt><trkpt lat="45.86450502061251" lon="9.731522167911235"><ele>819.0</ele><time>2026-05-02T11:19:35Z</time></trkpt><trkpt lat="45.86439779016173" lon="9.731537900398834"><ele>819.0</ele><time>2026-05-02T11:19:37Z</time></trkpt><trkpt lat="45.864287175235894" lon="9.731566459360407"><ele>819.0</ele><time>2026-05-02T11:19:39Z</time></trkpt><trkpt lat="45.86417706010682" lon="9.731593227191308"><ele>819.0</ele><time>2026-05-02T11:19:41Z</time></trkpt><trkpt lat="45.86406957635841" lon="9.73162005996908"><ele>819.0</ele><time>2026-05-02T11:19:43Z</time></trkpt><trkpt lat="45.863962441939194" lon="9.731646442276498"><ele>819.0</ele><time>2026-05-02T11:19:45Z</time></trkpt><trkpt lat="45.86385117999041" lon="9.731687689468078"><ele>817.25</ele><time>2026-05-02T11:19:47Z</time></trkpt><trkpt lat="45.86374340427829" lon="9.731746908565558"><ele>815.5</ele><time>2026-05-02T11:19:49Z</time></trkpt><trkpt lat="45.86364255680261" lon="9.73182743441054"><ele>813.75</ele><time>2026-05-02T11:19:51Z</time></trkpt><trkpt lat="45.86355005076376" lon="9.731922054993605"><ele>812.0</ele><time>2026-05-02T11:19:53Z</time></trkpt><trkpt lat="45.8634541185242" lon="9.732010495842694"><ele>816.4000000000001</ele><time>2026-05-02T11:19:55Z</time></trkpt><trkpt lat="45.863364296276174" lon="9.732104066262188"><ele>820.8000000000001</ele><time>2026-05-02T11:19:57Z</time></trkpt><trkpt lat="45.86327469674972" lon="9.73219127463368"><ele>825.2</ele><time>2026-05-02T11:19:59Z</time></trkpt><trkpt lat="45.86318717590804" lon="9.732275167477486"><ele>829.6</ele><time>2026-05-02T11:20:01Z</time></trkpt><trkpt lat="45.863097701285916" lon="9.732358140093227"><ele>834.0</ele><time>2026-05-02T11:20:03Z</time></trkpt><trkpt lat="45.86300022892775" lon="9.73242711377931"><ele>834.0</ele><time>2026-05-02T11:20:05Z</time></trkpt><trkpt lat="45.862895622118906" lon="9.732475711828382"><ele>834.0</ele><time>2026-05-02T11:20:07Z</time></trkpt><trkpt lat="45.862785667164" lon="9.732502467722053"><ele>834.0</ele><time>2026-05-02T11:20:09Z</time></trkpt><trkpt lat="45.862681162677625" lon="9.73254771683813"><ele>834.0</ele><time>2026-05-02T11:20:11Z</time></trkpt><trkpt lat="45.86258318146335" lon="9.732621039987615"><ele>834.0</ele><time>2026-05-02T11:20:13Z</time></trkpt><trkpt lat="45.862492740181914" lon="9.732706969138807"><ele>836.0</ele><time>2026-05-02T11:20:15Z</time></trkpt><trkpt lat="45.86240698425873" lon="9.732799117893318"><ele>838.0</ele><time>2026-05-02T11:20:17Z</time></trkpt><trkpt lat="45.86232454767749" lon="9.732890129023465"><ele>840.0</ele><time>2026-05-02T11:20:19Z</time></trkpt><trkpt lat="45.8622390409623" lon="9.732977776400997"><ele>842.0</ele><time>2026-05-02T11:20:21Z</time></trkpt><trkpt lat="45.86214800646066" lon="9.733062453047046"><ele>844.0</ele><time>2026-05-02T11:20:23Z</time></trkpt><trkpt lat="45.86205011249762" lon="9.733139160582745"><ele>844.0</ele><time>2026-05-02T11:20:25Z</time></trkpt><trkpt lat="45.861951488452284" lon="9.733202174660699"><ele>844.0</ele><time>2026-05-02T11:20:27Z</time></trkpt><trkpt lat="45.861846353109875" lon="9.733230030733651"><ele>844.0</ele><time>2026-05-02T11:20:29Z</time></trkpt><trkpt lat="45.86173525963287" lon="9.733264623104079"><ele>844.0</ele><time>2026-05-02T11:20:31Z</time></trkpt><trkpt lat="45.86163280933622" lon="9.73333301551465"><ele>844.0</ele><time>2026-05-02T11:20:33Z</time></trkpt><trkpt lat="45.86152927615477" lon="9.73342063851209"><ele>841.4000000000001</ele><time>2026-05-02T11:20:35Z</time></trkpt><trkpt lat="45.86142749850447" lon="9.733504892156665"><ele>838.8</ele><time>2026-05-02T11:20:37Z</time></trkpt><trkpt lat="45.86133656166863" lon="9.733603903485838"><ele>836.2</ele><time>2026-05-02T11:20:39Z</time></trkpt><trkpt lat="45.86125420955945" lon="9.733686587784376"><ele>833.5999999999999</ele><time>2026-05-02T11:20:41Z</time></trkpt><trkpt lat="45.86116535377166" lon="9.73377069438189"><ele>831.0</ele><time>2026-05-02T11:20:43Z</time></trkpt><trkpt lat="45.86106150274845" lon="9.73386076123892"><ele>832.5999999999999</ele><time>2026-05-02T11:20:45Z</time></trkpt><trkpt lat="45.86100633898615" lon="9.733905999566163"><ele>834.2</ele><time>2026-05-02T11:20:46Z</time></trkpt><trkpt lat="45.860894611545824" lon="9.733975454767599"><ele>835.8</ele><time>2026-05-02T11:20:48Z</time></trkpt><trkpt lat="45.86077282205194" lon="9.734021339609804"><ele>837.4000000000001</ele><time>2026-05-02T11:20:50Z</time></trkpt><trkpt lat="45.86065029011682" lon="9.734056216994448"><ele>839.0</ele><time>2026-05-02T11:20:52Z</time></trkpt><trkpt lat="45.860527606823936" lon="9.734085444103743"><ele>839.0</ele><time>2026-05-02T11:20:54Z</time></trkpt><trkpt lat="45.86040579412331" lon="9.734113376562727"><ele>839.0</ele><time>2026-05-02T11:20:56Z</time></trkpt><trkpt lat="45.86028284511767" lon="9.734149332252654"><ele>839.0</ele><time>2026-05-02T11:20:58Z</time></trkpt><trkpt lat="45.860167254956494" lon="9.734197271871587"><ele>839.0</ele><time>2026-05-02T11:21:00Z</time></trkpt><trkpt lat="45.86005135693007" lon="9.73425555571998"><ele>837.2</ele><time>2026-05-02T11:21:02Z</time></trkpt><trkpt lat="45.859939982515044" lon="9.734319184166427"><ele>835.4000000000001</ele><time>2026-05-02T11:21:04Z</time></trkpt><trkpt lat="45.85983349529037" lon="9.734372053459337"><ele>833.6</ele><time>2026-05-02T11:21:06Z</time></trkpt><trkpt lat="45.85977317630484" lon="9.734410228988544"><ele>831.8</ele><time>2026-05-02T11:21:07Z</time></trkpt><trkpt lat="45.85965960185519" lon="9.734465880573234"><ele>830.0</ele><time>2026-05-02T11:21:09Z</time></trkpt><trkpt lat="45.85954455048531" lon="9.734519469622139"><ele>834.0</ele><time>2026-05-02T11:21:11Z</time></trkpt><trkpt lat="45.85942768124956" lon="9.734568002622051"><ele>838.0</ele><time>2026-05-02T11:21:13Z</time></trkpt><trkpt lat="45.85931549478152" lon="9.734625936566452"><ele>842.0</ele><time>2026-05-02T11:21:15Z</time></trkpt><trkpt lat="45.85920237493678" lon="9.734687398044212"><ele>846.0</ele><time>2026-05-02T11:21:17Z</time></trkpt><trkpt lat="45.85909273046985" lon="9.734764438483845"><ele>846.0</ele><time>2026-05-02T11:21:19Z</time></trkpt><trkpt lat="45.85898470407725" lon="9.734843445580672"><ele>846.0</ele><time>2026-05-02T11:21:21Z</time></trkpt><trkpt lat="45.858878023438926" lon="9.734928509850043"><ele>846.0</ele><time>2026-05-02T11:21:23Z</time></trkpt><trkpt lat="45.858775978059136" lon="9.735022163907146"><ele>846.0</ele><time>2026-05-02T11:21:25Z</time></trkpt><trkpt lat="45.85868505825569" lon="9.7351392829349"><ele>845.75</ele><time>2026-05-02T11:21:27Z</time></trkpt><trkpt lat="45.85860168279059" lon="9.735268834503103"><ele>845.5</ele><time>2026-05-02T11:21:29Z</time></trkpt><trkpt lat="45.85852500659316" lon="9.735404981850959"><ele>845.25</ele><time>2026-05-02T11:21:31Z</time></trkpt><trkpt lat="45.85844482066482" lon="9.73554222153483"><ele>845.0</ele><time>2026-05-02T11:21:33Z</time></trkpt><trkpt lat="45.85835208891582" lon="9.73566484821525"><ele>845.0</ele><time>2026-05-02T11:21:35Z</time></trkpt><trkpt lat="45.85825026594625" lon="9.735767188388255"><ele>845.0</ele><time>2026-05-02T11:21:37Z</time></trkpt><trkpt lat="45.85813988105468" lon="9.735854280768464"><ele>845.0</ele><time>2026-05-02T11:21:39Z</time></trkpt><trkpt lat="45.85802723488487" lon="9.735930866003514"><ele>845.0</ele><time>2026-05-02T11:21:41Z</time></trkpt><trkpt lat="45.85790918859937" lon="9.73600231467464"><ele>846.2</ele><time>2026-05-02T11:21:43Z</time></trkpt><trkpt lat="45.857804014570995" lon="9.736088004847344"><ele>847.4</ele><time>2026-05-02T11:21:45Z</time></trkpt><trkpt lat="45.85774439576756" lon="9.736129415890467"><ele>848.5999999999999</ele><time>2026-05-02T11:21:46Z</time></trkpt><trkpt lat="45.85763138723591" lon="9.73620639523274"><ele>849.8</ele><time>2026-05-02T11:21:48Z</time></trkpt><trkpt lat="45.857521433604546" lon="9.736287684660105"><ele>851.0</ele><time>2026-05-02T11:21:50Z</time></trkpt><trkpt lat="45.85741277651052" lon="9.736376038782748"><ele>851.0</ele><time>2026-05-02T11:21:52Z</time></trkpt><trkpt lat="45.85731429590054" lon="9.736481830338453"><ele>851.0</ele><time>2026-05-02T11:21:54Z</time></trkpt><trkpt lat="45.85721915843228" lon="9.736598803910663"><ele>851.0</ele><time>2026-05-02T11:21:56Z</time></trkpt><trkpt lat="45.857128027667486" lon="9.736716080787494"><ele>851.0</ele><time>2026-05-02T11:21:58Z</time></trkpt><trkpt lat="45.85704285361638" lon="9.736832861268809"><ele>849.5999999999999</ele><time>2026-05-02T11:22:00Z</time></trkpt><trkpt lat="45.85695491793615" lon="9.736971679141849"><ele>848.2</ele><time>2026-05-02T11:22:02Z</time></trkpt><trkpt lat="45.856907788016244" lon="9.73703609542212"><ele>846.8</ele><time>2026-05-02T11:22:03Z</time></trkpt><trkpt lat="45.85686018452275" lon="9.737100183383308"><ele>845.4000000000001</ele><time>2026-05-02T11:22:04Z</time></trkpt><trkpt lat="45.856788315332096" lon="9.737235726910463"><ele>844.0</ele><time>2026-05-02T11:22:06Z</time></trkpt><trkpt lat="45.85670685662378" lon="9.73736458972395"><ele>844.0</ele><time>2026-05-02T11:22:08Z</time></trkpt><trkpt lat="45.856626351526124" lon="9.737494917094319"><ele>844.0</ele><time>2026-05-02T11:22:10Z</time></trkpt><trkpt lat="45.85655229138589" lon="9.737629490462542"><ele>844.0</ele><time>2026-05-02T11:22:12Z</time></trkpt><trkpt lat="45.856479312473894" lon="9.737758021698161"><ele>844.0</ele><time>2026-05-02T11:22:14Z</time></trkpt><trkpt lat="45.85640103929569" lon="9.737883922458225"><ele>852.5</ele><time>2026-05-02T11:22:16Z</time></trkpt><trkpt lat="45.85632896550587" lon="9.738013982225857"><ele>861.0</ele><time>2026-05-02T11:22:18Z</time></trkpt><trkpt lat="45.85625566956171" lon="9.738140577109482"><ele>869.5</ele><time>2026-05-02T11:22:20Z</time></trkpt><trkpt lat="45.856180521837274" lon="9.738263006593263"><ele>878.0</ele><time>2026-05-02T11:22:22Z</time></trkpt><trkpt lat="45.85610903134278" lon="9.738384952276471"><ele>878.0</ele><time>2026-05-02T11:22:24Z</time></trkpt><trkpt lat="45.85603858179845" lon="9.738507730373895"><ele>878.0</ele><time>2026-05-02T11:22:26Z</time></trkpt><trkpt lat="45.85597327665925" lon="9.738634820972875"><ele>878.0</ele><time>2026-05-02T11:22:28Z</time></trkpt><trkpt lat="45.85589734230505" lon="9.738749021050632"><ele>878.0</ele><time>2026-05-02T11:22:30Z</time></trkpt><trkpt lat="45.855817477230154" lon="9.738852706531933"><ele>878.0</ele><time>2026-05-02T11:22:32Z</time></trkpt><trkpt lat="45.855728918975075" lon="9.738944820617016"><ele>876.4</ele><time>2026-05-02T11:22:34Z</time></trkpt><trkpt lat="45.85562766051713" lon="9.73901075230637"><ele>874.8</ele><time>2026-05-02T11:22:36Z</time></trkpt><trkpt lat="45.855515869250894" lon="9.739039965997272"><ele>873.2</ele><time>2026-05-02T11:22:38Z</time></trkpt><trkpt lat="45.85541009348284" lon="9.739036770072264"><ele>871.6</ele><time>2026-05-02T11:22:40Z</time></trkpt><trkpt lat="45.85530054688712" lon="9.739009143343061"><ele>870.0</ele><time>2026-05-02T11:22:42Z</time></trkpt><trkpt lat="45.855195633438115" lon="9.738963429641457"><ele>867.6</ele><time>2026-05-02T11:22:44Z</time></trkpt><trkpt lat="45.85509037971255" lon="9.738925371716213"><ele>865.2</ele><time>2026-05-02T11:22:46Z</time></trkpt><trkpt lat="45.854983618802905" lon="9.738903726737016"><ele>862.8</ele><time>2026-05-02T11:22:48Z</time></trkpt><trkpt lat="45.85487262912008" lon="9.738926262200708"><ele>860.4</ele><time>2026-05-02T11:22:50Z</time></trkpt><trkpt lat="45.85476968493053" lon="9.73899042783366"><ele>858.0</ele><time>2026-05-02T11:22:52Z</time></trkpt><trkpt lat="45.85468401017871" lon="9.739093579753003"><ele>858.0</ele><time>2026-05-02T11:22:54Z</time></trkpt><trkpt lat="45.85461268442912" lon="9.73922006835986"><ele>858.0</ele><time>2026-05-02T11:22:56Z</time></trkpt><trkpt lat="45.85454603979676" lon="9.739353839623103"><ele>858.0</ele><time>2026-05-02T11:22:58Z</time></trkpt><trkpt lat="45.85447591631444" lon="9.73948492284067"><ele>858.0</ele><time>2026-05-02T11:23:00Z</time></trkpt><trkpt lat="45.85440191617048" lon="9.7396144360536"><ele>857.0</ele><time>2026-05-02T11:23:02Z</time></trkpt><trkpt lat="45.85433178527077" lon="9.739748356711798"><ele>856.0</ele><time>2026-05-02T11:23:04Z</time></trkpt><trkpt lat="45.854263629857684" lon="9.739888580282535"><ele>855.0</ele><time>2026-05-02T11:23:06Z</time></trkpt><trkpt lat="45.854196190741874" lon="9.740026158669856"><ele>854.0</ele><time>2026-05-02T11:23:08Z</time></trkpt><trkpt lat="45.854132542460874" lon="9.740164758980045"><ele>859.5</ele><time>2026-05-02T11:23:10Z</time></trkpt><trkpt lat="45.854067319486504" lon="9.74030099374125"><ele>865.0</ele><time>2026-05-02T11:23:12Z</time></trkpt><trkpt lat="45.85399698684746" lon="9.740433460018387"><ele>870.5</ele><time>2026-05-02T11:23:14Z</time></trkpt><trkpt lat="45.85393231080352" lon="9.740568485313789"><ele>876.0</ele><time>2026-05-02T11:23:16Z</time></trkpt><trkpt lat="45.853867647303424" lon="9.740697919236633"><ele>876.0</ele><time>2026-05-02T11:23:18Z</time></trkpt><trkpt lat="45.85378592345841" lon="9.740793939682456"><ele>875.9999999999999</ele><time>2026-05-02T11:23:20Z</time></trkpt><trkpt lat="45.85367591134368" lon="9.740819247937939"><ele>875.9999999999999</ele><time>2026-05-02T11:23:22Z</time></trkpt><trkpt lat="45.85356537861503" lon="9.74080576648406"><ele>876.0</ele><time>2026-05-02T11:23:24Z</time></trkpt><trkpt lat="45.85345455425631" lon="9.740805340209471"><ele>876.0</ele><time>2026-05-02T11:23:26Z</time></trkpt><trkpt lat="45.8533447499089" lon="9.740820355859643"><ele>873.8</ele><time>2026-05-02T11:23:28Z</time></trkpt><trkpt lat="45.8532376462433" lon="9.740869344838195"><ele>871.5999999999999</ele><time>2026-05-02T11:23:30Z</time></trkpt><trkpt lat="45.85314207048244" lon="9.740947583974204"><ele>869.4</ele><time>2026-05-02T11:23:32Z</time></trkpt><trkpt lat="45.85305609377269" lon="9.741037140419035"><ele>867.2</ele><time>2026-05-02T11:23:34Z</time></trkpt><trkpt lat="45.852976521175684" lon="9.741125202842905"><ele>865.0</ele><time>2026-05-02T11:23:36Z</time></trkpt><trkpt lat="45.85289781789401" lon="9.741213491939886"><ele>867.4</ele><time>2026-05-02T11:23:38Z</time></trkpt><trkpt lat="45.85282479244117" lon="9.741305128373787"><ele>869.8</ele><time>2026-05-02T11:23:40Z</time></trkpt><trkpt lat="45.85275545405972" lon="9.741403211246576"><ele>872.2</ele><time>2026-05-02T11:23:42Z</time></trkpt><trkpt lat="45.85268698016713" lon="9.741488897682503"><ele>874.6</ele><time>2026-05-02T11:23:44Z</time></trkpt><trkpt lat="45.85262275152914" lon="9.741573985684711"><ele>877.0</ele><time>2026-05-02T11:23:46Z</time></trkpt><trkpt lat="45.85256576411445" lon="9.741665804616671"><ele>877.0</ele><time>2026-05-02T11:23:48Z</time></trkpt><trkpt lat="45.85250568612571" lon="9.741741337304623"><ele>877.0</ele><time>2026-05-02T11:23:50Z</time></trkpt><trkpt lat="45.85243922806537" lon="9.741818068807234"><ele>877.0</ele><time>2026-05-02T11:23:52Z</time></trkpt><trkpt lat="45.852367702112225" lon="9.741907492349897"><ele>877.0</ele><time>2026-05-02T11:23:54Z</time></trkpt><trkpt lat="45.852278280376474" lon="9.742025289088724"><ele>877.0</ele><time>2026-05-02T11:23:56Z</time></trkpt><trkpt lat="45.852221471053184" lon="9.742088278231568"><ele>878.4999999999999</ele><time>2026-05-02T11:23:57Z</time></trkpt><trkpt lat="45.85216354775839" lon="9.742153251827173"><ele>880.0</ele><time>2026-05-02T11:23:58Z</time></trkpt><trkpt lat="45.85210299197892" lon="9.742212419016742"><ele>881.5</ele><time>2026-05-02T11:23:59Z</time></trkpt><trkpt lat="45.85203908602022" lon="9.74227385225398"><ele>883.0</ele><time>2026-05-02T11:24:00Z</time></trkpt><trkpt lat="45.851976288419934" lon="9.742337707554396"><ele>884.4999999999999</ele><time>2026-05-02T11:24:01Z</time></trkpt><trkpt lat="45.85191122182564" lon="9.74239492116295"><ele>886.0</ele><time>2026-05-02T11:24:02Z</time></trkpt><trkpt lat="45.85184576977163" lon="9.742454251427635"><ele>885.4999999999999</ele><time>2026-05-02T11:24:03Z</time></trkpt><trkpt lat="45.851779025696906" lon="9.742523044269447"><ele>885.0</ele><time>2026-05-02T11:24:04Z</time></trkpt><trkpt lat="45.85171544773888" lon="9.742589089446877"><ele>884.5</ele><time>2026-05-02T11:24:05Z</time></trkpt><trkpt lat="45.85164927838827" lon="9.742661118625149"><ele>884.0</ele><time>2026-05-02T11:24:06Z</time></trkpt><trkpt lat="45.85158019445722" lon="9.742722622572042"><ele>883.4999999999999</ele><time>2026-05-02T11:24:07Z</time></trkpt><trkpt lat="45.85151310817949" lon="9.74278518425793"><ele>883.0</ele><time>2026-05-02T11:24:08Z</time></trkpt><trkpt lat="45.85144472053134" lon="9.742848211828143"><ele>882.9999999999999</ele><time>2026-05-02T11:24:09Z</time></trkpt><trkpt lat="45.8513800716382" lon="9.742911811909211"><ele>883.0</ele><time>2026-05-02T11:24:10Z</time></trkpt><trkpt lat="45.85131611110664" lon="9.742978002356491"><ele>883.0</ele><time>2026-05-02T11:24:11Z</time></trkpt><trkpt lat="45.85125234265476" lon="9.743042187176986"><ele>883.0</ele><time>2026-05-02T11:24:12Z</time></trkpt><trkpt lat="45.85118625927811" lon="9.743107427494946"><ele>882.9999999999999</ele><time>2026-05-02T11:24:13Z</time></trkpt><trkpt lat="45.851119029386325" lon="9.74317048724318"><ele>883.0</ele><time>2026-05-02T11:24:14Z</time></trkpt><trkpt lat="45.85104921966823" lon="9.743229900144565"><ele>882.9999999999999</ele><time>2026-05-02T11:24:15Z</time></trkpt><trkpt lat="45.85098191551343" lon="9.743294556162292"><ele>883.0</ele><time>2026-05-02T11:24:16Z</time></trkpt><trkpt lat="45.85091745237676" lon="9.743372108005534"><ele>883.0</ele><time>2026-05-02T11:24:17Z</time></trkpt><trkpt lat="45.850862617877006" lon="9.743465165169756"><ele>883.0</ele><time>2026-05-02T11:24:18Z</time></trkpt><trkpt lat="45.85081605038545" lon="9.743571372977339"><ele>882.9999999999999</ele><time>2026-05-02T11:24:19Z</time></trkpt><trkpt lat="45.850770878889534" lon="9.743680990581415"><ele>883.0</ele><time>2026-05-02T11:24:20Z</time></trkpt><trkpt lat="45.850730486929315" lon="9.743797379815677"><ele>879.8</ele><time>2026-05-02T11:24:21Z</time></trkpt><trkpt lat="45.85068951134093" lon="9.743917168766778"><ele>876.5999999999999</ele><time>2026-05-02T11:24:22Z</time></trkpt><trkpt lat="45.85064960863869" lon="9.744039552866916"><ele>873.4000000000001</ele><time>2026-05-02T11:24:23Z</time></trkpt><trkpt lat="45.85060447646159" lon="9.744161647361768"><ele>870.2</ele><time>2026-05-02T11:24:24Z</time></trkpt><trkpt lat="45.850556591395" lon="9.744281723563978"><ele>867.0</ele><time>2026-05-02T11:24:25Z</time></trkpt><trkpt lat="45.85051225125817" lon="9.744402030809336"><ele>866.8333333333334</ele><time>2026-05-02T11:24:26Z</time></trkpt><trkpt lat="45.850470302231955" lon="9.744524445338183"><ele>866.6666666666667</ele><time>2026-05-02T11:24:27Z</time></trkpt><trkpt lat="45.850438379551896" lon="9.744642731160058"><ele>866.5</ele><time>2026-05-02T11:24:28Z</time></trkpt><trkpt lat="45.850426288553926" lon="9.744751508025265"><ele>866.3333333333334</ele><time>2026-05-02T11:24:29Z</time></trkpt><trkpt lat="45.85046922500681" lon="9.744904329812725"><ele>866.1666666666667</ele><time>2026-05-02T11:24:31Z</time></trkpt><trkpt lat="45.85051575628049" lon="9.744966848306522"><ele>866.0</ele><time>2026-05-02T11:24:32Z</time></trkpt><trkpt lat="45.85056043320508" lon="9.745030791030821"><ele>865.9999999999999</ele><time>2026-05-02T11:24:33Z</time></trkpt><trkpt lat="45.85059729335204" lon="9.745114251979627"><ele>866.0</ele><time>2026-05-02T11:24:34Z</time></trkpt><trkpt lat="45.850622139934984" lon="9.745206683783316"><ele>866.0</ele><time>2026-05-02T11:24:35Z</time></trkpt><trkpt lat="45.85064268864194" lon="9.745310353670922"><ele>866.0</ele><time>2026-05-02T11:24:36Z</time></trkpt><trkpt lat="45.850639460325816" lon="9.745417411635204"><ele>866.0</ele><time>2026-05-02T11:24:37Z</time></trkpt><trkpt lat="45.85060490129049" lon="9.745523173502486"><ele>865.9999999999999</ele><time>2026-05-02T11:24:38Z</time></trkpt><trkpt lat="45.85055949303677" lon="9.74561541659303"><ele>866.0</ele><time>2026-05-02T11:24:39Z</time></trkpt><trkpt lat="45.850511988961436" lon="9.745681529001732"><ele>866.4285714285713</ele><time>2026-05-02T11:24:40Z</time></trkpt><trkpt lat="45.85046349064235" lon="9.745739324923761"><ele>866.8571428571429</ele><time>2026-05-02T11:24:41Z</time></trkpt><trkpt lat="45.85040665826673" lon="9.745780066663825"><ele>867.2857142857142</ele><time>2026-05-02T11:24:42Z</time></trkpt><trkpt lat="45.850335814233155" lon="9.745793520460266"><ele>867.7142857142857</ele><time>2026-05-02T11:24:43Z</time></trkpt><trkpt lat="45.85026352264216" lon="9.745769514650434"><ele>868.1428571428571</ele><time>2026-05-02T11:24:44Z</time></trkpt><trkpt lat="45.850187407832244" lon="9.745751401387254"><ele>868.5714285714286</ele><time>2026-05-02T11:24:45Z</time></trkpt><trkpt lat="45.850107199246665" lon="9.745733424201447"><ele>869.0</ele><time>2026-05-02T11:24:46Z</time></trkpt><trkpt lat="45.85002082627233" lon="9.745729682864374"><ele>865.4000000000001</ele><time>2026-05-02T11:24:47Z</time></trkpt><trkpt lat="45.849929395018584" lon="9.745728438210627"><ele>861.8000000000001</ele><time>2026-05-02T11:24:48Z</time></trkpt><trkpt lat="45.84983288771333" lon="9.74574056260555"><ele>858.2</ele><time>2026-05-02T11:24:49Z</time></trkpt><trkpt lat="45.84972988593167" lon="9.745765033239172"><ele>854.5999999999999</ele><time>2026-05-02T11:24:50Z</time></trkpt><trkpt lat="45.84962491672877" lon="9.745795373841785"><ele>851.0</ele><time>2026-05-02T11:24:51Z</time></trkpt><trkpt lat="45.84951875215571" lon="9.745831042877569"><ele>851.0</ele><time>2026-05-02T11:24:52Z</time></trkpt><trkpt lat="45.84941587992132" lon="9.745871619052771"><ele>851.0</ele><time>2026-05-02T11:24:53Z</time></trkpt><trkpt lat="45.84933554535729" lon="9.745934468732056"><ele>851.0</ele><time>2026-05-02T11:24:54Z</time></trkpt><trkpt lat="45.849276282406265" lon="9.746021387975091"><ele>851.0</ele><time>2026-05-02T11:24:55Z</time></trkpt><trkpt lat="45.8492363233846" lon="9.746140394180792"><ele>851.0</ele><time>2026-05-02T11:24:56Z</time></trkpt><trkpt lat="45.84921862593436" lon="9.746270335340826"><ele>851.1999999999999</ele><time>2026-05-02T11:24:57Z</time></trkpt><trkpt lat="45.84918633112688" lon="9.746396169207214"><ele>851.4</ele><time>2026-05-02T11:24:58Z</time></trkpt><trkpt lat="45.849149259702244" lon="9.746525956514146"><ele>851.6</ele><time>2026-05-02T11:24:59Z</time></trkpt><trkpt lat="45.849110011999365" lon="9.746655727022803"><ele>851.8</ele><time>2026-05-02T11:25:00Z</time></trkpt><trkpt lat="45.849070499374726" lon="9.746791470503968"><ele>852.0</ele><time>2026-05-02T11:25:01Z</time></trkpt><trkpt lat="45.84902849539785" lon="9.74692710013611"><ele>852.0</ele><time>2026-05-02T11:25:02Z</time></trkpt><trkpt lat="45.8489684075258" lon="9.747035278279894"><ele>852.0</ele><time>2026-05-02T11:25:03Z</time></trkpt><trkpt lat="45.84888711604824" lon="9.747126103755063"><ele>852.0</ele><time>2026-05-02T11:25:04Z</time></trkpt><trkpt lat="45.84879865975795" lon="9.747194738108504"><ele>852.0</ele><time>2026-05-02T11:25:05Z</time></trkpt><trkpt lat="45.848708993401274" lon="9.74725724223693"><ele>852.0</ele><time>2026-05-02T11:25:06Z</time></trkpt><trkpt lat="45.848620938914365" lon="9.747319436279563"><ele>852.0</ele><time>2026-05-02T11:25:07Z</time></trkpt><trkpt lat="45.84853283884528" lon="9.747384320022253"><ele>852.0</ele><time>2026-05-02T11:25:08Z</time></trkpt><trkpt lat="45.848443270436015" lon="9.747455232778487"><ele>852.0</ele><time>2026-05-02T11:25:09Z</time></trkpt><trkpt lat="45.84835420694247" lon="9.747532524785154"><ele>852.0</ele><time>2026-05-02T11:25:10Z</time></trkpt><trkpt lat="45.84826772716623" lon="9.747625911921025"><ele>852.0</ele><time>2026-05-02T11:25:11Z</time></trkpt><trkpt lat="45.84818965522535" lon="9.747740587598631"><ele>848.75</ele><time>2026-05-02T11:25:12Z</time></trkpt><trkpt lat="45.84811331479678" lon="9.747868510192804"><ele>845.5</ele><time>2026-05-02T11:25:13Z</time></trkpt><trkpt lat="45.84803795665742" lon="9.74800107860896"><ele>842.25</ele><time>2026-05-02T11:25:14Z</time></trkpt><trkpt lat="45.847956953401784" lon="9.748132951945566"><ele>839.0</ele><time>2026-05-02T11:25:15Z</time></trkpt><trkpt lat="45.84787003644865" lon="9.74825357992441"><ele>839.0</ele><time>2026-05-02T11:25:16Z</time></trkpt><trkpt lat="45.84777925702304" lon="9.748352214310183"><ele>839.0</ele><time>2026-05-02T11:25:17Z</time></trkpt><trkpt lat="45.84769131526494" lon="9.748426744120229"><ele>839.0</ele><time>2026-05-02T11:25:18Z</time></trkpt><trkpt lat="45.84761679182847" lon="9.748497893107388"><ele>839.0</ele><time>2026-05-02T11:25:19Z</time></trkpt><trkpt lat="45.847564172312794" lon="9.748579151971109"><ele>839.0</ele><time>2026-05-02T11:25:20Z</time></trkpt><trkpt lat="45.84753679014512" lon="9.748696537014792"><ele>841.0</ele><time>2026-05-02T11:25:21Z</time></trkpt><trkpt lat="45.847550706352436" lon="9.748829427117602"><ele>843.0</ele><time>2026-05-02T11:25:22Z</time></trkpt><trkpt lat="45.84757126555847" lon="9.748964933818534"><ele>845.0</ele><time>2026-05-02T11:25:23Z</time></trkpt><trkpt lat="45.84760377808839" lon="9.74910136542459"><ele>847.0</ele><time>2026-05-02T11:25:24Z</time></trkpt><trkpt lat="45.84763028738801" lon="9.749247344306516"><ele>849.0</ele><time>2026-05-02T11:25:25Z</time></trkpt><trkpt lat="45.84765181490789" lon="9.749401051020097"><ele>850.6</ele><time>2026-05-02T11:25:26Z</time></trkpt><trkpt lat="45.84767331948041" lon="9.74955225146672"><ele>852.2</ele><time>2026-05-02T11:25:27Z</time></trkpt><trkpt lat="45.84767589004554" lon="9.749689014020705"><ele>853.8000000000001</ele><time>2026-05-02T11:25:28Z</time></trkpt><trkpt lat="45.84766741332344" lon="9.749816240763076"><ele>855.4000000000001</ele><time>2026-05-02T11:25:29Z</time></trkpt><trkpt lat="45.84762631880369" lon="9.74993412596062"><ele>857.0</ele><time>2026-05-02T11:25:30Z</time></trkpt><trkpt lat="45.84755315251055" lon="9.75002886345757"><ele>849.2</ele><time>2026-05-02T11:25:31Z</time></trkpt><trkpt lat="45.84746274941382" lon="9.75008567991228"><ele>841.4000000000001</ele><time>2026-05-02T11:25:32Z</time></trkpt><trkpt lat="45.84736223246438" lon="9.750111668421019"><ele>833.5999999999999</ele><time>2026-05-02T11:25:33Z</time></trkpt><trkpt lat="45.84726662559602" lon="9.750125831032227"><ele>825.8</ele><time>2026-05-02T11:25:34Z</time></trkpt><trkpt lat="45.847182849415745" lon="9.750102270237699"><ele>818.0</ele><time>2026-05-02T11:25:35Z</time></trkpt><trkpt lat="45.84709694359445" lon="9.750028473855725"><ele>818.0000000000001</ele><time>2026-05-02T11:25:36Z</time></trkpt><trkpt lat="45.84702066965592" lon="9.749928542900788"><ele>818.0</ele><time>2026-05-02T11:25:37Z</time></trkpt><trkpt lat="45.846955460736595" lon="9.74983410633356"><ele>818.0</ele><time>2026-05-02T11:25:38Z</time></trkpt><trkpt lat="45.846927226504384" lon="9.749726590713172"><ele>818.0</ele><time>2026-05-02T11:25:39Z</time></trkpt><trkpt lat="45.84693415919215" lon="9.749618264060018"><ele>818.0000000000001</ele><time>2026-05-02T11:25:40Z</time></trkpt><trkpt lat="45.84697469337449" lon="9.7495225360292"><ele>818.0</ele><time>2026-05-02T11:25:41Z</time></trkpt><trkpt lat="45.84702990463046" lon="9.749440632936071"><ele>818.1666666666667</ele><time>2026-05-02T11:25:42Z</time></trkpt><trkpt lat="45.8471005991239" lon="9.749369744139385"><ele>818.3333333333334</ele><time>2026-05-02T11:25:43Z</time></trkpt><trkpt lat="45.84717207355605" lon="9.74929426637068"><ele>818.5</ele><time>2026-05-02T11:25:44Z</time></trkpt><trkpt lat="45.84722627043608" lon="9.749192257157635"><ele>818.6666666666667</ele><time>2026-05-02T11:25:45Z</time></trkpt><trkpt lat="45.84723953564842" lon="9.749078066815938"><ele>818.8333333333334</ele><time>2026-05-02T11:25:46Z</time></trkpt><trkpt lat="45.8472127257954" lon="9.748957696207649"><ele>819.0</ele><time>2026-05-02T11:25:47Z</time></trkpt><trkpt lat="45.847153735592414" lon="9.748864542406396"><ele>819.0</ele><time>2026-05-02T11:25:48Z</time></trkpt><trkpt lat="45.84708792709071" lon="9.748787045853971"><ele>819.0</ele><time>2026-05-02T11:25:49Z</time></trkpt><trkpt lat="45.84701959821575" lon="9.748706632171217"><ele>819.0</ele><time>2026-05-02T11:25:50Z</time></trkpt><trkpt lat="45.84694819117228" lon="9.748621240688635"><ele>819.0</ele><time>2026-05-02T11:25:51Z</time></trkpt><trkpt lat="45.84687635652615" lon="9.748530104047473"><ele>819.0</ele><time>2026-05-02T11:25:52Z</time></trkpt><trkpt lat="45.8468031700641" lon="9.74843209959577"><ele>813.6</ele><time>2026-05-02T11:25:53Z</time></trkpt><trkpt lat="45.84672720176395" lon="9.748338772656233"><ele>808.2</ele><time>2026-05-02T11:25:54Z</time></trkpt><trkpt lat="45.84665508056765" lon="9.748246197416854"><ele>802.8000000000001</ele><time>2026-05-02T11:25:55Z</time></trkpt><trkpt lat="45.84659226865727" lon="9.748157440681416"><ele>797.4000000000001</ele><time>2026-05-02T11:25:56Z</time></trkpt><trkpt lat="45.84652303614701" lon="9.748075316721241"><ele>792.0</ele><time>2026-05-02T11:25:57Z</time></trkpt><trkpt lat="45.84645624237686" lon="9.748010948377768"><ele>792.0</ele><time>2026-05-02T11:25:58Z</time></trkpt><trkpt lat="45.846391556276" lon="9.747978234449116"><ele>792.0</ele><time>2026-05-02T11:25:59Z</time></trkpt><trkpt lat="45.84632702978225" lon="9.748010754072782"><ele>792.0</ele><time>2026-05-02T11:26:00Z</time></trkpt><trkpt lat="45.846280928291264" lon="9.748091199334965"><ele>792.0</ele><time>2026-05-02T11:26:01Z</time></trkpt><trkpt lat="45.84626936874761" lon="9.748198020106805"><ele>792.0</ele><time>2026-05-02T11:26:02Z</time></trkpt><trkpt lat="45.84629554971949" lon="9.748304058073723"><ele>792.0</ele><time>2026-05-02T11:26:03Z</time></trkpt><trkpt lat="45.846337101768725" lon="9.74839971721221"><ele>792.0</ele><time>2026-05-02T11:26:04Z</time></trkpt><trkpt lat="45.846374139033564" lon="9.748496876455057"><ele>792.1666666666666</ele><time>2026-05-02T11:26:05Z</time></trkpt><trkpt lat="45.84640493491909" lon="9.748600531489751"><ele>792.3333333333333</ele><time>2026-05-02T11:26:06Z</time></trkpt><trkpt lat="45.84642789325845" lon="9.748712387517235"><ele>792.5</ele><time>2026-05-02T11:26:07Z</time></trkpt><trkpt lat="45.84644178156615" lon="9.748828168051505"><ele>792.6666666666666</ele><time>2026-05-02T11:26:08Z</time></trkpt><trkpt lat="45.8464479664619" lon="9.74894790754598"><ele>792.8333333333333</ele><time>2026-05-02T11:26:09Z</time></trkpt><trkpt lat="45.84645203580421" lon="9.74906932491402"><ele>793.0</ele><time>2026-05-02T11:26:10Z</time></trkpt><trkpt lat="45.846430719186856" lon="9.74918707542673"><ele>793.0000000000001</ele><time>2026-05-02T11:26:11Z</time></trkpt><trkpt lat="45.84639608240388" lon="9.749298389053575"><ele>793.0</ele><time>2026-05-02T11:26:12Z</time></trkpt><trkpt lat="45.84635176691987" lon="9.749388372760635"><ele>793.0</ele><time>2026-05-02T11:26:13Z</time></trkpt><trkpt lat="45.84630376260481" lon="9.749466407083002"><ele>793.0</ele><time>2026-05-02T11:26:14Z</time></trkpt><trkpt lat="45.84626175801693" lon="9.749541643258459"><ele>793.0</ele><time>2026-05-02T11:26:15Z</time></trkpt><trkpt lat="45.84621586719169" lon="9.749613541821455"><ele>793.0000000000001</ele><time>2026-05-02T11:26:16Z</time></trkpt><trkpt lat="45.84616407268224" lon="9.74967150844523"><ele>793.0</ele><time>2026-05-02T11:26:17Z</time></trkpt><trkpt lat="45.84610719991921" lon="9.749717095165115"><ele>794.4285714285714</ele><time>2026-05-02T11:26:18Z</time></trkpt><trkpt lat="45.84604835188271" lon="9.74975340140184"><ele>795.8571428571429</ele><time>2026-05-02T11:26:19Z</time></trkpt><trkpt lat="45.845976368763694" lon="9.749758767713448"><ele>797.2857142857142</ele><time>2026-05-02T11:26:20Z</time></trkpt><trkpt lat="45.845909601041804" lon="9.749728634097897"><ele>798.7142857142858</ele><time>2026-05-02T11:26:21Z</time></trkpt><trkpt lat="45.845846686207956" lon="9.749694705886046"><ele>800.1428571428571</ele><time>2026-05-02T11:26:22Z</time></trkpt><trkpt lat="45.84578226548006" lon="9.749665709565095"><ele>801.5714285714286</ele><time>2026-05-02T11:26:23Z</time></trkpt><trkpt lat="45.84571745728734" lon="9.74963424406666"><ele>803.0</ele><time>2026-05-02T11:26:24Z</time></trkpt><trkpt lat="45.84565110672032" lon="9.749608566002959"><ele>803.2857142857142</ele><time>2026-05-02T11:26:25Z</time></trkpt><trkpt lat="45.84558478861398" lon="9.7495853239586"><ele>803.5714285714286</ele><time>2026-05-02T11:26:26Z</time></trkpt><trkpt lat="45.84552034894374" lon="9.749554904258094"><ele>803.8571428571429</ele><time>2026-05-02T11:26:27Z</time></trkpt><trkpt lat="45.845454706360265" lon="9.749519094983158"><ele>804.1428571428571</ele><time>2026-05-02T11:26:28Z</time></trkpt><trkpt lat="45.84539090243912" lon="9.74948886603635"><ele>804.4285714285714</ele><time>2026-05-02T11:26:29Z</time></trkpt><trkpt lat="45.84532582116633" lon="9.74946739183051"><ele>804.7142857142857</ele><time>2026-05-02T11:26:30Z</time></trkpt><trkpt lat="45.845262708949505" lon="9.749446664164136"><ele>805.0</ele><time>2026-05-02T11:26:31Z</time></trkpt><trkpt lat="45.84519627044676" lon="9.749433401735724"><ele>805.0</ele><time>2026-05-02T11:26:32Z</time></trkpt><trkpt lat="45.845130833986744" lon="9.749426194791987"><ele>805.0</ele><time>2026-05-02T11:26:33Z</time></trkpt><trkpt lat="45.8450648739486" lon="9.749434176362412"><ele>805.0</ele><time>2026-05-02T11:26:34Z</time></trkpt><trkpt lat="45.84494912032079" lon="9.749405263416975"><ele>805.0</ele><time>2026-05-02T11:26:36Z</time></trkpt><trkpt lat="45.84483547658958" lon="9.7493501406514"><ele>805.0</ele><time>2026-05-02T11:26:38Z</time></trkpt><trkpt lat="45.844737420379914" lon="9.749268111234898"><ele>805.6</ele><time>2026-05-02T11:26:40Z</time></trkpt><trkpt lat="45.84464126912973" lon="9.749196743684454"><ele>806.2</ele><time>2026-05-02T11:26:42Z</time></trkpt><trkpt lat="45.8445524127095" lon="9.749123770540871"><ele>806.8</ele><time>2026-05-02T11:26:44Z</time></trkpt><trkpt lat="45.844456295430476" lon="9.749059619102429"><ele>807.4</ele><time>2026-05-02T11:26:46Z</time></trkpt><trkpt lat="45.84436458956972" lon="9.748985906918888"><ele>808.0</ele><time>2026-05-02T11:26:48Z</time></trkpt><trkpt lat="45.84426407466369" lon="9.748932523894268"><ele>808.0</ele><time>2026-05-02T11:26:50Z</time></trkpt><trkpt lat="45.84416872869685" lon="9.748891457670455"><ele>808.0</ele><time>2026-05-02T11:26:52Z</time></trkpt><trkpt lat="45.84407962878244" lon="9.748826091773067"><ele>808.0</ele><time>2026-05-02T11:26:54Z</time></trkpt><trkpt lat="45.84398355644185" lon="9.748780172017177"><ele>808.0</ele><time>2026-05-02T11:26:56Z</time></trkpt><trkpt lat="45.84389073360621" lon="9.748741316586838"><ele>808.0</ele><time>2026-05-02T11:26:58Z</time></trkpt><trkpt lat="45.843800484921005" lon="9.748735003719608"><ele>808.0</ele><time>2026-05-02T11:27:00Z</time></trkpt><trkpt lat="45.84371318401601" lon="9.748786100790303"><ele>808.0</ele><time>2026-05-02T11:27:02Z</time></trkpt><trkpt lat="45.843650043839354" lon="9.748898998884115"><ele>808.0</ele><time>2026-05-02T11:27:04Z</time></trkpt><trkpt lat="45.84360355346858" lon="9.749017462914697"><ele>808.0</ele><time>2026-05-02T11:27:06Z</time></trkpt><trkpt lat="45.84354718027495" lon="9.749125407612114"><ele>808.0</ele><time>2026-05-02T11:27:08Z</time></trkpt><trkpt lat="45.84349263500905" lon="9.749249735027874"><ele>810.0</ele><time>2026-05-02T11:27:10Z</time></trkpt><trkpt lat="45.843442668549514" lon="9.749379081330279"><ele>812.0</ele><time>2026-05-02T11:27:12Z</time></trkpt><trkpt lat="45.84338764622142" lon="9.749497088791236"><ele>814.0</ele><time>2026-05-02T11:27:14Z</time></trkpt><trkpt lat="45.84335095405351" lon="9.749615689846063"><ele>816.0</ele><time>2026-05-02T11:27:16Z</time></trkpt><trkpt lat="45.84329386012984" lon="9.749747055118737"><ele>818.0</ele><time>2026-05-02T11:27:18Z</time></trkpt><trkpt lat="45.843223988499815" lon="9.749853066006047"><ele>818.0</ele><time>2026-05-02T11:27:20Z</time></trkpt><trkpt lat="45.843135692056954" lon="9.749911487267026"><ele>818.0</ele><time>2026-05-02T11:27:22Z</time></trkpt><trkpt lat="45.84303668062512" lon="9.749901688616474"><ele>818.0</ele><time>2026-05-02T11:27:24Z</time></trkpt><trkpt lat="45.84294281025471" lon="9.749855080945787"><ele>818.0</ele><time>2026-05-02T11:27:26Z</time></trkpt><trkpt lat="45.84285024379098" lon="9.749801328517204"><ele>818.0</ele><time>2026-05-02T11:27:28Z</time></trkpt><trkpt lat="45.842757992785835" lon="9.749752377623594"><ele>818.0</ele><time>2026-05-02T11:27:30Z</time></trkpt><trkpt lat="45.84265581274169" lon="9.749755252952115"><ele>818.0</ele><time>2026-05-02T11:27:32Z</time></trkpt><trkpt lat="45.84254500933209" lon="9.749807208884723"><ele>818.0</ele><time>2026-05-02T11:27:34Z</time></trkpt><trkpt lat="45.84244989514967" lon="9.749856347782876"><ele>818.0</ele><time>2026-05-02T11:27:36Z</time></trkpt><trkpt lat="45.84233566216504" lon="9.749913521562924"><ele>818.0</ele><time>2026-05-02T11:27:38Z</time></trkpt><trkpt lat="45.84222221025578" lon="9.749965158974067"><ele>818.0</ele><time>2026-05-02T11:27:40Z</time></trkpt><trkpt lat="45.84209880781746" lon="9.750007296732178"><ele>818.0</ele><time>2026-05-02T11:27:42Z</time></trkpt><trkpt lat="45.84197737829646" lon="9.75004972170352"><ele>818.0</ele><time>2026-05-02T11:27:44Z</time></trkpt><trkpt lat="45.84191575751025" lon="9.750080304362191"><ele>818.0</ele><time>2026-05-02T11:27:45Z</time></trkpt><trkpt lat="45.84179054071318" lon="9.750100032073302"><ele>818.0</ele><time>2026-05-02T11:27:47Z</time></trkpt><trkpt lat="45.84167104822567" lon="9.750126181396691"><ele>817.2</ele><time>2026-05-02T11:27:49Z</time></trkpt><trkpt lat="45.84160482050286" lon="9.750141309415902"><ele>816.4</ele><time>2026-05-02T11:27:50Z</time></trkpt><trkpt lat="45.84148802552633" lon="9.750163491029326"><ele>815.6</ele><time>2026-05-02T11:27:52Z</time></trkpt><trkpt lat="45.84137050179082" lon="9.750191294588719"><ele>814.8000000000001</ele><time>2026-05-02T11:27:54Z</time></trkpt><trkpt lat="45.84124720848907" lon="9.750214421658114"><ele>814.0</ele><time>2026-05-02T11:27:56Z</time></trkpt><trkpt lat="45.84112663834313" lon="9.750231717727415"><ele>817.6</ele><time>2026-05-02T11:27:58Z</time></trkpt><trkpt lat="45.84100524633787" lon="9.750265699477284"><ele>821.2</ele><time>2026-05-02T11:28:00Z</time></trkpt><trkpt lat="45.840940732570935" lon="9.750295573988854"><ele>824.8000000000001</ele><time>2026-05-02T11:28:01Z</time></trkpt><trkpt lat="45.84083326389858" lon="9.750370739559333"><ele>828.4000000000001</ele><time>2026-05-02T11:28:03Z</time></trkpt><trkpt lat="45.84072052073735" lon="9.750455466559957"><ele>832.0</ele><time>2026-05-02T11:28:05Z</time></trkpt><trkpt lat="45.84059377657116" lon="9.75050718387584"><ele>831.9999999999999</ele><time>2026-05-02T11:28:07Z</time></trkpt><trkpt lat="45.840462159870015" lon="9.750495828673396"><ele>832.0</ele><time>2026-05-02T11:28:09Z</time></trkpt><trkpt lat="45.84039223728548" lon="9.750501160373862"><ele>832.0</ele><time>2026-05-02T11:28:10Z</time></trkpt><trkpt lat="45.840328638221806" lon="9.75048325700278"><ele>832.0</ele><time>2026-05-02T11:28:11Z</time></trkpt><trkpt lat="45.84024741413992" lon="9.750477248049872"><ele>831.9999999999999</ele><time>2026-05-02T11:28:12Z</time></trkpt><trkpt lat="45.840154086124336" lon="9.750479422224121"><ele>832.0</ele><time>2026-05-02T11:28:13Z</time></trkpt><trkpt lat="45.840082251397746" lon="9.750472733895707"><ele>828.3333333333333</ele><time>2026-05-02T11:28:14Z</time></trkpt><trkpt lat="45.83999907395864" lon="9.750468550756626"><ele>824.6666666666666</ele><time>2026-05-02T11:28:15Z</time></trkpt><trkpt lat="45.83991393331876" lon="9.75047590689052"><ele>821.0</ele><time>2026-05-02T11:28:16Z</time></trkpt><trkpt lat="45.839827682614576" lon="9.750479056624021"><ele>817.3333333333333</ele><time>2026-05-02T11:28:17Z</time></trkpt><trkpt lat="45.839749341728236" lon="9.75050128254522"><ele>813.6666666666666</ele><time>2026-05-02T11:28:18Z</time></trkpt><trkpt lat="45.83967578662388" lon="9.750548029106591"><ele>810.0</ele><time>2026-05-02T11:28:19Z</time></trkpt><trkpt lat="45.83961099961838" lon="9.750619165062389"><ele>810.0</ele><time>2026-05-02T11:28:20Z</time></trkpt><trkpt lat="45.83956675188466" lon="9.750710728856829"><ele>810.0</ele><time>2026-05-02T11:28:21Z</time></trkpt><trkpt lat="45.83954130207458" lon="9.750814696448936"><ele>810.0</ele><time>2026-05-02T11:28:22Z</time></trkpt><trkpt lat="45.83953833893334" lon="9.750921298547274"><ele>810.0</ele><time>2026-05-02T11:28:23Z</time></trkpt><trkpt lat="45.83953801358561" lon="9.751026912198787"><ele>810.0</ele><time>2026-05-02T11:28:24Z</time></trkpt><trkpt lat="45.83953280675759" lon="9.75113893848501"><ele>810.0</ele><time>2026-05-02T11:28:25Z</time></trkpt><trkpt lat="45.83953403911547" lon="9.751253458866788"><ele>813.6666666666666</ele><time>2026-05-02T11:28:26Z</time></trkpt><trkpt lat="45.83952630040946" lon="9.751372270987662"><ele>817.3333333333333</ele><time>2026-05-02T11:28:27Z</time></trkpt><trkpt lat="45.83951589408427" lon="9.751480274123"><ele>821.0</ele><time>2026-05-02T11:28:28Z</time></trkpt><trkpt lat="45.839500059744246" lon="9.75159829056815"><ele>824.6666666666666</ele><time>2026-05-02T11:28:29Z</time></trkpt><trkpt lat="45.83945705771493" lon="9.751706404494106"><ele>828.3333333333333</ele><time>2026-05-02T11:28:30Z</time></trkpt><trkpt lat="45.839404518054145" lon="9.751790014079795"><ele>832.0</ele><time>2026-05-02T11:28:31Z</time></trkpt><trkpt lat="45.839342103965144" lon="9.751845046407373"><ele>829.8</ele><time>2026-05-02T11:28:32Z</time></trkpt><trkpt lat="45.83926633644238" lon="9.751865056842046"><ele>827.6</ele><time>2026-05-02T11:28:33Z</time></trkpt><trkpt lat="45.83915616158324" lon="9.751881284086275"><ele>825.4</ele><time>2026-05-02T11:28:35Z</time></trkpt><trkpt lat="45.83905231697377" lon="9.751877426739233"><ele>823.1999999999999</ele><time>2026-05-02T11:28:37Z</time></trkpt><trkpt lat="45.838945385662164" lon="9.751861664318648"><ele>821.0</ele><time>2026-05-02T11:28:39Z</time></trkpt><trkpt lat="45.838883134426844" lon="9.75184766170387"><ele>818.4</ele><time>2026-05-02T11:28:40Z</time></trkpt><trkpt lat="45.838782215163626" lon="9.751806861035467"><ele>815.8</ele><time>2026-05-02T11:28:42Z</time></trkpt><trkpt lat="45.838676188711965" lon="9.75176355886644"><ele>813.1999999999999</ele><time>2026-05-02T11:28:44Z</time></trkpt><trkpt lat="45.83856742263282" lon="9.751731074565525"><ele>810.5999999999999</ele><time>2026-05-02T11:28:46Z</time></trkpt><trkpt lat="45.838462296316855" lon="9.751702361410189"><ele>808.0</ele><time>2026-05-02T11:28:48Z</time></trkpt><trkpt lat="45.83835743590293" lon="9.751672265808532"><ele>807.8</ele><time>2026-05-02T11:28:50Z</time></trkpt><trkpt lat="45.838249635853366" lon="9.751645689249857"><ele>807.5999999999999</ele><time>2026-05-02T11:28:52Z</time></trkpt><trkpt lat="45.838142001340486" lon="9.751613282978598"><ele>807.4000000000001</ele><time>2026-05-02T11:28:54Z</time></trkpt><trkpt lat="45.83803052970876" lon="9.751604106613184"><ele>807.2</ele><time>2026-05-02T11:28:56Z</time></trkpt><trkpt lat="45.83791582813243" lon="9.751612849802571"><ele>807.0</ele><time>2026-05-02T11:28:58Z</time></trkpt><trkpt lat="45.83780165527834" lon="9.751631304677439"><ele>807.0</ele><time>2026-05-02T11:29:00Z</time></trkpt><trkpt lat="45.83768924616074" lon="9.75166158784018"><ele>807.0</ele><time>2026-05-02T11:29:02Z</time></trkpt><trkpt lat="45.83757477300158" lon="9.751687472264788"><ele>807.0</ele><time>2026-05-02T11:29:04Z</time></trkpt><trkpt lat="45.83746340207661" lon="9.751676586945038"><ele>807.0</ele><time>2026-05-02T11:29:06Z</time></trkpt><trkpt lat="45.83735038695605" lon="9.751651774038116"><ele>808.5</ele><time>2026-05-02T11:29:08Z</time></trkpt><trkpt lat="45.837238814828616" lon="9.751628983278302"><ele>810.0</ele><time>2026-05-02T11:29:10Z</time></trkpt><trkpt lat="45.837127319247635" lon="9.75161248593195"><ele>811.5</ele><time>2026-05-02T11:29:12Z</time></trkpt><trkpt lat="45.83701363252282" lon="9.751614735903214"><ele>813.0</ele><time>2026-05-02T11:29:14Z</time></trkpt><trkpt lat="45.83690297129908" lon="9.751642618402487"><ele>815.75</ele><time>2026-05-02T11:29:16Z</time></trkpt><trkpt lat="45.83679172073497" lon="9.751687004693101"><ele>818.5</ele><time>2026-05-02T11:29:18Z</time></trkpt><trkpt lat="45.836678219501785" lon="9.751713801604739"><ele>821.25</ele><time>2026-05-02T11:29:20Z</time></trkpt><trkpt lat="45.836567894314115" lon="9.75171675272923"><ele>824.0</ele><time>2026-05-02T11:29:22Z</time></trkpt><trkpt lat="45.83645806465059" lon="9.751686928307475"><ele>824.0</ele><time>2026-05-02T11:29:24Z</time></trkpt><trkpt lat="45.836349358556056" lon="9.751654558806914"><ele>824.0</ele><time>2026-05-02T11:29:26Z</time></trkpt><trkpt lat="45.83623727672904" lon="9.751654249350146"><ele>824.0</ele><time>2026-05-02T11:29:28Z</time></trkpt><trkpt lat="45.836130845672244" lon="9.75169245837442"><ele>824.0</ele><time>2026-05-02T11:29:30Z</time></trkpt><trkpt lat="45.836027389025915" lon="9.751729897377396"><ele>824.0</ele><time>2026-05-02T11:29:32Z</time></trkpt><trkpt lat="45.83592349649653" lon="9.751751782795036"><ele>826.4000000000001</ele><time>2026-05-02T11:29:34Z</time></trkpt><trkpt lat="45.8358176717267" lon="9.751744056852568"><ele>828.8</ele><time>2026-05-02T11:29:36Z</time></trkpt><trkpt lat="45.83571111128609" lon="9.751705768683967"><ele>831.2</ele><time>2026-05-02T11:29:38Z</time></trkpt><trkpt lat="45.8356118938627" lon="9.751649076623158"><ele>833.5999999999999</ele><time>2026-05-02T11:29:40Z</time></trkpt><trkpt lat="45.83552107553388" lon="9.751575255429898"><ele>836.0</ele><time>2026-05-02T11:29:42Z</time></trkpt><trkpt lat="45.83543147896334" lon="9.751494300337331"><ele>836.0</ele><time>2026-05-02T11:29:44Z</time></trkpt><trkpt lat="45.835342646774926" lon="9.751405373220003"><ele>836.0</ele><time>2026-05-02T11:29:46Z</time></trkpt><trkpt lat="45.83525541327366" lon="9.751325538803378"><ele>836.0</ele><time>2026-05-02T11:29:48Z</time></trkpt><trkpt lat="45.835158533831105" lon="9.751279727591903"><ele>836.0</ele><time>2026-05-02T11:29:50Z</time></trkpt><trkpt lat="45.835054243907074" lon="9.751281614544077"><ele>836.0</ele><time>2026-05-02T11:29:52Z</time></trkpt><trkpt lat="45.83495184043312" lon="9.751300686854114"><ele>839.0</ele><time>2026-05-02T11:29:54Z</time></trkpt><trkpt lat="45.83483969193178" lon="9.751311632718725"><ele>842.0</ele><time>2026-05-02T11:29:56Z</time></trkpt><trkpt lat="45.83473765031915" lon="9.751329809319786"><ele>845.0</ele><time>2026-05-02T11:29:58Z</time></trkpt><trkpt lat="45.83463589861876" lon="9.751328167768486"><ele>848.0</ele><time>2026-05-02T11:30:00Z</time></trkpt><trkpt lat="45.834535233035524" lon="9.751318529376892"><ele>851.0</ele><time>2026-05-02T11:30:02Z</time></trkpt><trkpt lat="45.83443562224439" lon="9.751328483741517"><ele>851.0</ele><time>2026-05-02T11:30:04Z</time></trkpt><trkpt lat="45.83433461948114" lon="9.751367337569611"><ele>851.0</ele><time>2026-05-02T11:30:06Z</time></trkpt><trkpt lat="45.834232696018354" lon="9.751418983019907"><ele>851.0</ele><time>2026-05-02T11:30:08Z</time></trkpt><trkpt lat="45.834132486435735" lon="9.751473605658864"><ele>851.0</ele><time>2026-05-02T11:30:10Z</time></trkpt><trkpt lat="45.83403366077131" lon="9.75152696024135"><ele>851.0</ele><time>2026-05-02T11:30:12Z</time></trkpt><trkpt lat="45.83393295496194" lon="9.751580427062237"><ele>851.5999999999999</ele><time>2026-05-02T11:30:14Z</time></trkpt><trkpt lat="45.83383854114553" lon="9.751626234168642"><ele>852.2</ele><time>2026-05-02T11:30:16Z</time></trkpt><trkpt lat="45.833744391239655" lon="9.751665724001345"><ele>852.8000000000001</ele><time>2026-05-02T11:30:18Z</time></trkpt><trkpt lat="45.83364679448975" lon="9.751701123405857"><ele>853.4000000000001</ele><time>2026-05-02T11:30:20Z</time></trkpt><trkpt lat="45.83355370332149" lon="9.75174362715618"><ele>854.0</ele><time>2026-05-02T11:30:22Z</time></trkpt><trkpt lat="45.83345733166928" lon="9.751781234805419"><ele>854.0</ele><time>2026-05-02T11:30:24Z</time></trkpt><trkpt lat="45.833359599426046" lon="9.751824976930171"><ele>854.0000000000001</ele><time>2026-05-02T11:30:26Z</time></trkpt><trkpt lat="45.8332677486534" lon="9.751863846403284"><ele>854.0000000000001</ele><time>2026-05-02T11:30:28Z</time></trkpt><trkpt lat="45.83317404964308" lon="9.751892344769253"><ele>854.0</ele><time>2026-05-02T11:30:30Z</time></trkpt><trkpt lat="45.83308030447884" lon="9.751920879862446"><ele>854.0</ele><time>2026-05-02T11:30:32Z</time></trkpt><trkpt lat="45.83298693677531" lon="9.751932118994606"><ele>854.0</ele><time>2026-05-02T11:30:34Z</time></trkpt><trkpt lat="45.832880929924485" lon="9.751924736345295"><ele>854.0000000000001</ele><time>2026-05-02T11:30:36Z</time></trkpt><trkpt lat="45.83278198891969" lon="9.751903471615389"><ele>854.0000000000001</ele><time>2026-05-02T11:30:38Z</time></trkpt><trkpt lat="45.832693443138375" lon="9.751846214725735"><ele>854.0</ele><time>2026-05-02T11:30:40Z</time></trkpt><trkpt lat="45.832584116237115" lon="9.751809689323709"><ele>854.0</ele><time>2026-05-02T11:30:42Z</time></trkpt><trkpt lat="45.832483095184756" lon="9.751770956857136"><ele>856.2</ele><time>2026-05-02T11:30:44Z</time></trkpt><trkpt lat="45.83237810142759" lon="9.751743440459656"><ele>858.4000000000001</ele><time>2026-05-02T11:30:46Z</time></trkpt><trkpt lat="45.83228345968745" lon="9.751725602153368"><ele>860.6</ele><time>2026-05-02T11:30:48Z</time></trkpt><trkpt lat="45.83217904820992" lon="9.751687324821201"><ele>862.8</ele><time>2026-05-02T11:30:50Z</time></trkpt><trkpt lat="45.83208349358924" lon="9.75163591163892"><ele>865.0</ele><time>2026-05-02T11:30:52Z</time></trkpt><trkpt lat="45.83197963577492" lon="9.751601192635986"><ele>865.0</ele><time>2026-05-02T11:30:54Z</time></trkpt><trkpt lat="45.83187895192576" lon="9.751619755796497"><ele>865.0</ele><time>2026-05-02T11:30:56Z</time></trkpt><trkpt lat="45.83178042428043" lon="9.751669929650623"><ele>865.0</ele><time>2026-05-02T11:30:58Z</time></trkpt><trkpt lat="45.83168213190613" lon="9.751712778708624"><ele>865.0</ele><time>2026-05-02T11:31:00Z</time></trkpt><trkpt lat="45.83158756817247" lon="9.751755828825512"><ele>865.0</ele><time>2026-05-02T11:31:02Z</time></trkpt><trkpt lat="45.83148738321576" lon="9.751793889452442"><ele>866.0</ele><time>2026-05-02T11:31:04Z</time></trkpt><trkpt lat="45.831387257639385" lon="9.751841902443097"><ele>867.0</ele><time>2026-05-02T11:31:06Z</time></trkpt><trkpt lat="45.83127621145143" lon="9.751879207099536"><ele>868.0</ele><time>2026-05-02T11:31:08Z</time></trkpt><trkpt lat="45.83117403996464" lon="9.751908029726078"><ele>869.0</ele><time>2026-05-02T11:31:10Z</time></trkpt><trkpt lat="45.83107015378328" lon="9.751909668442027"><ele>870.0</ele><time>2026-05-02T11:31:12Z</time></trkpt><trkpt lat="45.8309634850871" lon="9.751905493997691"><ele>879.0</ele><time>2026-05-02T11:31:14Z</time></trkpt><trkpt lat="45.830860180185155" lon="9.751927056858284"><ele>888.0</ele><time>2026-05-02T11:31:16Z</time></trkpt><trkpt lat="45.830752255872206" lon="9.751939872839598"><ele>897.0</ele><time>2026-05-02T11:31:18Z</time></trkpt><trkpt lat="45.830651314921965" lon="9.751959933200522"><ele>906.0</ele><time>2026-05-02T11:31:20Z</time></trkpt><trkpt lat="45.83055750142467" lon="9.751969942961997"><ele>915.0</ele><time>2026-05-02T11:31:22Z</time></trkpt><trkpt lat="45.83045800900704" lon="9.751939367884123"><ele>911.8</ele><time>2026-05-02T11:31:24Z</time></trkpt><trkpt lat="45.830384672933" lon="9.75182657397643"><ele>908.6</ele><time>2026-05-02T11:31:26Z</time></trkpt><trkpt lat="45.8303287147032" lon="9.75171029724994"><ele>905.4000000000001</ele><time>2026-05-02T11:31:28Z</time></trkpt><trkpt lat="45.83026535382444" lon="9.751596993163334"><ele>902.2</ele><time>2026-05-02T11:31:30Z</time></trkpt><trkpt lat="45.830205642537315" lon="9.751476701627531"><ele>899.0</ele><time>2026-05-02T11:31:32Z</time></trkpt><trkpt lat="45.83013778033916" lon="9.75136838536694"><ele>899.0</ele><time>2026-05-02T11:31:34Z</time></trkpt><trkpt lat="45.83006460222705" lon="9.751277850387671"><ele>899.0000000000001</ele><time>2026-05-02T11:31:36Z</time></trkpt><trkpt lat="45.829984797635525" lon="9.751189191112264"><ele>899.0000000000001</ele><time>2026-05-02T11:31:38Z</time></trkpt><trkpt lat="45.82990798668585" lon="9.751107206888742"><ele>899.0</ele><time>2026-05-02T11:31:40Z</time></trkpt><trkpt lat="45.82982745646388" lon="9.751028877912088"><ele>899.0</ele><time>2026-05-02T11:31:42Z</time></trkpt><trkpt lat="45.82975297683359" lon="9.750945255179618"><ele>899.6666666666667</ele><time>2026-05-02T11:31:44Z</time></trkpt><trkpt lat="45.8296722655587" lon="9.750880943832469"><ele>900.3333333333334</ele><time>2026-05-02T11:31:46Z</time></trkpt><trkpt lat="45.82959254244262" lon="9.750828780964648"><ele>901.0</ele><time>2026-05-02T11:31:48Z</time></trkpt><trkpt lat="45.82951233821593" lon="9.750768874230229"><ele>901.6666666666667</ele><time>2026-05-02T11:31:50Z</time></trkpt><trkpt lat="45.82943601205784" lon="9.750696528800454"><ele>902.3333333333334</ele><time>2026-05-02T11:31:52Z</time></trkpt><trkpt lat="45.829368447481464" lon="9.75062246214053"><ele>903.0</ele><time>2026-05-02T11:31:54Z</time></trkpt><trkpt lat="45.8292944727195" lon="9.750555672640704"><ele>903.0</ele><time>2026-05-02T11:31:56Z</time></trkpt><trkpt lat="45.8292213003199" lon="9.750496041247626"><ele>903.0</ele><time>2026-05-02T11:31:58Z</time></trkpt><trkpt lat="45.82912880576761" lon="9.75045508298289"><ele>903.0</ele><time>2026-05-02T11:32:00Z</time></trkpt><trkpt lat="45.82902805524005" lon="9.750443558224923"><ele>903.0</ele><time>2026-05-02T11:32:02Z</time></trkpt><trkpt lat="45.82892631151388" lon="9.750458001799856"><ele>903.0</ele><time>2026-05-02T11:32:04Z</time></trkpt><trkpt lat="45.82882951128146" lon="9.750504388742126"><ele>903.0</ele><time>2026-05-02T11:32:06Z</time></trkpt><trkpt lat="45.828750552506506" lon="9.750582705473176"><ele>903.0</ele><time>2026-05-02T11:32:08Z</time></trkpt><trkpt lat="45.828683493909075" lon="9.750673986134508"><ele>903.0</ele><time>2026-05-02T11:32:10Z</time></trkpt><trkpt lat="45.82861556023108" lon="9.750771865875848"><ele>903.0</ele><time>2026-05-02T11:32:12Z</time></trkpt><trkpt lat="45.82854337626962" lon="9.750853092983066"><ele>903.0</ele><time>2026-05-02T11:32:14Z</time></trkpt><trkpt lat="45.828463685622516" lon="9.750923260225777"><ele>902.5999999999999</ele><time>2026-05-02T11:32:16Z</time></trkpt><trkpt lat="45.82838107771521" lon="9.750974327840915"><ele>902.1999999999999</ele><time>2026-05-02T11:32:18Z</time></trkpt><trkpt lat="45.82829648866701" lon="9.751030401845803"><ele>901.8</ele><time>2026-05-02T11:32:20Z</time></trkpt><trkpt lat="45.82821683891951" lon="9.75108854028038"><ele>901.4</ele><time>2026-05-02T11:32:22Z</time></trkpt><trkpt lat="45.82814065080337" lon="9.751163349479729"><ele>901.0</ele><time>2026-05-02T11:32:24Z</time></trkpt><trkpt lat="45.828074190772604" lon="9.751246362288384"><ele>907.1999999999999</ele><time>2026-05-02T11:32:26Z</time></trkpt><trkpt lat="45.82799153053807" lon="9.751299311981748"><ele>913.3999999999999</ele><time>2026-05-02T11:32:28Z</time></trkpt><trkpt lat="45.82789837427207" lon="9.75130989140985"><ele>919.6</ele><time>2026-05-02T11:32:30Z</time></trkpt><trkpt lat="45.82780230522203" lon="9.751317993139084"><ele>925.8</ele><time>2026-05-02T11:32:32Z</time></trkpt><trkpt lat="45.82770640933279" lon="9.751337094181265"><ele>932.0</ele><time>2026-05-02T11:32:34Z</time></trkpt><trkpt lat="45.827607067174064" lon="9.751355557637883"><ele>932.0</ele><time>2026-05-02T11:32:36Z</time></trkpt><trkpt lat="45.82750759384026" lon="9.751358759223455"><ele>932.0</ele><time>2026-05-02T11:32:38Z</time></trkpt><trkpt lat="45.82741877599231" lon="9.75136088210704"><ele>932.0</ele><time>2026-05-02T11:32:40Z</time></trkpt><trkpt lat="45.82732157335395" lon="9.751355515956144"><ele>932.0</ele><time>2026-05-02T11:32:42Z</time></trkpt><trkpt lat="45.82722638639745" lon="9.751366116969404"><ele>932.0</ele><time>2026-05-02T11:32:44Z</time></trkpt><trkpt lat="45.827131926864425" lon="9.751394133651335"><ele>932.0</ele><time>2026-05-02T11:32:46Z</time></trkpt><trkpt lat="45.827040341344954" lon="9.751429953921646"><ele>932.0</ele><time>2026-05-02T11:32:48Z</time></trkpt><trkpt lat="45.82693979385724" lon="9.751470479961732"><ele>932.0</ele><time>2026-05-02T11:32:50Z</time></trkpt><trkpt lat="45.82684386377027" lon="9.751517935632242"><ele>932.0</ele><time>2026-05-02T11:32:52Z</time></trkpt><trkpt lat="45.82675310552316" lon="9.751574275109926"><ele>932.0</ele><time>2026-05-02T11:32:54Z</time></trkpt><trkpt lat="45.82665314239985" lon="9.75161577037808"><ele>929.4000000000001</ele><time>2026-05-02T11:32:56Z</time></trkpt><trkpt lat="45.82655825274565" lon="9.751671947917842"><ele>926.8000000000001</ele><time>2026-05-02T11:32:58Z</time></trkpt><trkpt lat="45.826454712973195" lon="9.751708167544942"><ele>924.2</ele><time>2026-05-02T11:33:00Z</time></trkpt><trkpt lat="45.8263463880797" lon="9.751733109265535"><ele>921.6</ele><time>2026-05-02T11:33:02Z</time></trkpt><trkpt lat="45.82623905562833" lon="9.751773302373685"><ele>919.0</ele><time>2026-05-02T11:33:04Z</time></trkpt><trkpt lat="45.82612654252308" lon="9.751810526101714"><ele>919.0</ele><time>2026-05-02T11:33:06Z</time></trkpt><trkpt lat="45.82601225719151" lon="9.751843758964188"><ele>919.0</ele><time>2026-05-02T11:33:08Z</time></trkpt><trkpt lat="45.82591109194911" lon="9.751877024364491"><ele>919.0</ele><time>2026-05-02T11:33:10Z</time></trkpt><trkpt lat="45.825799380163865" lon="9.751916468162362"><ele>919.0</ele><time>2026-05-02T11:33:12Z</time></trkpt><trkpt lat="45.82568277867128" lon="9.751945753607307"><ele>925.25</ele><time>2026-05-02T11:33:14Z</time></trkpt><trkpt lat="45.82557112932742" lon="9.751979869617264"><ele>931.5</ele><time>2026-05-02T11:33:16Z</time></trkpt><trkpt lat="45.8254561343485" lon="9.752006361459054"><ele>937.75</ele><time>2026-05-02T11:33:18Z</time></trkpt><trkpt lat="45.82534024926561" lon="9.752043168560716"><ele>944.0</ele><time>2026-05-02T11:33:20Z</time></trkpt><trkpt lat="45.82522761208516" lon="9.752109766196682"><ele>944.0000000000001</ele><time>2026-05-02T11:33:22Z</time></trkpt><trkpt lat="45.82516948508871" lon="9.752148585508555"><ele>944.0</ele><time>2026-05-02T11:33:23Z</time></trkpt><trkpt lat="45.82505745411789" lon="9.75222722275564"><ele>944.0</ele><time>2026-05-02T11:33:25Z</time></trkpt><trkpt lat="45.824997808984634" lon="9.75226672875375"><ele>944.0</ele><time>2026-05-02T11:33:26Z</time></trkpt><trkpt lat="45.82493742703737" lon="9.752301094347791"><ele>944.0000000000001</ele><time>2026-05-02T11:33:27Z</time></trkpt><trkpt lat="45.82487371102588" lon="9.75233418970905"><ele>944.0</ele><time>2026-05-02T11:33:28Z</time></trkpt><trkpt lat="45.8248107663403" lon="9.752363262081778"><ele>941.1428571428571</ele><time>2026-05-02T11:33:29Z</time></trkpt><trkpt lat="45.82474396925821" lon="9.75239457823784"><ele>938.2857142857143</ele><time>2026-05-02T11:33:30Z</time></trkpt><trkpt lat="45.82467765032162" lon="9.75242149487244"><ele>935.4285714285714</ele><time>2026-05-02T11:33:31Z</time></trkpt><trkpt lat="45.824611164223064" lon="9.75244803953333"><ele>932.5714285714286</ele><time>2026-05-02T11:33:32Z</time></trkpt><trkpt lat="45.824545022416565" lon="9.75247347175964"><ele>929.7142857142858</ele><time>2026-05-02T11:33:33Z</time></trkpt><trkpt lat="45.824479519460596" lon="9.752498993861831"><ele>926.8571428571429</ele><time>2026-05-02T11:33:34Z</time></trkpt><trkpt lat="45.82441271644257" lon="9.75252299625658"><ele>924.0</ele><time>2026-05-02T11:33:35Z</time></trkpt><trkpt lat="45.82434688169365" lon="9.752551369846325"><ele>925.1666666666666</ele><time>2026-05-02T11:33:36Z</time></trkpt><trkpt lat="45.82428109181661" lon="9.752586994204707"><ele>926.3333333333333</ele><time>2026-05-02T11:33:37Z</time></trkpt><trkpt lat="45.82421693688647" lon="9.752619468438988"><ele>927.5</ele><time>2026-05-02T11:33:38Z</time></trkpt><trkpt lat="45.8241502934912" lon="9.752651083699"><ele>928.6666666666666</ele><time>2026-05-02T11:33:39Z</time></trkpt><trkpt lat="45.82402618354582" lon="9.752702049009889"><ele>929.8333333333333</ele><time>2026-05-02T11:33:41Z</time></trkpt><trkpt lat="45.82396572812814" lon="9.752733035521404"><ele>931.0</ele><time>2026-05-02T11:33:42Z</time></trkpt><trkpt lat="45.82390422744774" lon="9.752763660834878"><ele>931.0</ele><time>2026-05-02T11:33:43Z</time></trkpt><trkpt lat="45.82384247506312" lon="9.752793028266243"><ele>931.0</ele><time>2026-05-02T11:33:44Z</time></trkpt><trkpt lat="45.82377468225845" lon="9.752819682229957"><ele>931.0</ele><time>2026-05-02T11:33:45Z</time></trkpt><trkpt lat="45.82371484878736" lon="9.752857234199796"><ele>931.0</ele><time>2026-05-02T11:33:46Z</time></trkpt><trkpt lat="45.823648633825556" lon="9.75289437073079"><ele>931.0</ele><time>2026-05-02T11:33:47Z</time></trkpt><trkpt lat="45.823593709323674" lon="9.752951010513934"><ele>931.0</ele><time>2026-05-02T11:33:48Z</time></trkpt><trkpt lat="45.823544887220635" lon="9.753022530791027"><ele>931.0</ele><time>2026-05-02T11:33:49Z</time></trkpt><trkpt lat="45.82350932347735" lon="9.75311475050924"><ele>931.0</ele><time>2026-05-02T11:33:50Z</time></trkpt><trkpt lat="45.82349709170794" lon="9.753215658064365"><ele>931.0</ele><time>2026-05-02T11:33:51Z</time></trkpt><trkpt lat="45.823498965353366" lon="9.753322805581082"><ele>931.0</ele><time>2026-05-02T11:33:52Z</time></trkpt><trkpt lat="45.8235045752278" lon="9.753424895762567"><ele>931.0</ele><time>2026-05-02T11:33:53Z</time></trkpt><trkpt lat="45.823511024696515" lon="9.753528252077391"><ele>931.0</ele><time>2026-05-02T11:33:54Z</time></trkpt><trkpt lat="45.82352049099374" lon="9.753633378284007"><ele>931.0</ele><time>2026-05-02T11:33:55Z</time></trkpt><trkpt lat="45.8235310070647" lon="9.753741315222015"><ele>931.0</ele><time>2026-05-02T11:33:56Z</time></trkpt><trkpt lat="45.823533667518845" lon="9.753848984245561"><ele>932.8571428571429</ele><time>2026-05-02T11:33:57Z</time></trkpt><trkpt lat="45.82353510327498" lon="9.753957473503064"><ele>934.7142857142858</ele><time>2026-05-02T11:33:58Z</time></trkpt><trkpt lat="45.82353467350167" lon="9.754062882146227"><ele>936.5714285714286</ele><time>2026-05-02T11:33:59Z</time></trkpt><trkpt lat="45.82353382121081" lon="9.754170518623745"><ele>938.4285714285714</ele><time>2026-05-02T11:34:00Z</time></trkpt><trkpt lat="45.82352914112088" lon="9.754277663852625"><ele>940.2857142857143</ele><time>2026-05-02T11:34:01Z</time></trkpt><trkpt lat="45.82352629419457" lon="9.754382557293326"><ele>942.1428571428571</ele><time>2026-05-02T11:34:02Z</time></trkpt><trkpt lat="45.82352634102444" lon="9.754492595398224"><ele>944.0</ele><time>2026-05-02T11:34:03Z</time></trkpt><trkpt lat="45.823523911677086" lon="9.754599973578083"><ele>944.8333333333334</ele><time>2026-05-02T11:34:04Z</time></trkpt><trkpt lat="45.82352376599703" lon="9.754709076805232"><ele>945.6666666666667</ele><time>2026-05-02T11:34:05Z</time></trkpt><trkpt lat="45.82352539152621" lon="9.75481468168851"><ele>946.5</ele><time>2026-05-02T11:34:06Z</time></trkpt><trkpt lat="45.82353504360763" lon="9.754921091203382"><ele>947.3333333333333</ele><time>2026-05-02T11:34:07Z</time></trkpt><trkpt lat="45.823549452248194" lon="9.755027027640905"><ele>948.1666666666666</ele><time>2026-05-02T11:34:08Z</time></trkpt><trkpt lat="45.823552846651694" lon="9.75513925326614"><ele>949.0</ele><time>2026-05-02T11:34:09Z</time></trkpt><trkpt lat="45.823546643150046" lon="9.755253110039304"><ele>949.6666666666666</ele><time>2026-05-02T11:34:10Z</time></trkpt><trkpt lat="45.823533820059815" lon="9.755370767308033"><ele>950.3333333333333</ele><time>2026-05-02T11:34:11Z</time></trkpt><trkpt lat="45.82352294621894" lon="9.755487948355244"><ele>951.0</ele><time>2026-05-02T11:34:12Z</time></trkpt><trkpt lat="45.8235135191674" lon="9.755607284986716"><ele>951.6666666666667</ele><time>2026-05-02T11:34:13Z</time></trkpt><trkpt lat="45.82350495097581" lon="9.755728296419887"><ele>952.3333333333334</ele><time>2026-05-02T11:34:14Z</time></trkpt><trkpt lat="45.823502936092815" lon="9.755852732370602"><ele>953.0</ele><time>2026-05-02T11:34:15Z</time></trkpt><trkpt lat="45.823489989749746" lon="9.75597508507599"><ele>944.5000000000001</ele><time>2026-05-02T11:34:16Z</time></trkpt><trkpt lat="45.82347132483358" lon="9.756095028024596"><ele>936.0</ele><time>2026-05-02T11:34:17Z</time></trkpt><trkpt lat="45.82345129205798" lon="9.756212088143004"><ele>927.5</ele><time>2026-05-02T11:34:18Z</time></trkpt><trkpt lat="45.823430691997274" lon="9.756329365145616"><ele>919.0</ele><time>2026-05-02T11:34:19Z</time></trkpt><trkpt lat="45.823408693538774" lon="9.756445970398664"><ele>910.5000000000001</ele><time>2026-05-02T11:34:20Z</time></trkpt><trkpt lat="45.82338148468855" lon="9.756558645689013"><ele>902.0</ele><time>2026-05-02T11:34:21Z</time></trkpt><trkpt lat="45.823354784083534" lon="9.756673314683129"><ele>902.0000000000001</ele><time>2026-05-02T11:34:22Z</time></trkpt><trkpt lat="45.82333781775074" lon="9.756790112165204"><ele>902.0</ele><time>2026-05-02T11:34:23Z</time></trkpt><trkpt lat="45.823335692299224" lon="9.756907618323956"><ele>902.0</ele><time>2026-05-02T11:34:24Z</time></trkpt><trkpt lat="45.82334395628476" lon="9.75702275636919"><ele>902.0</ele><time>2026-05-02T11:34:25Z</time></trkpt><trkpt lat="45.823351964646655" lon="9.757135499058105"><ele>902.0000000000001</ele><time>2026-05-02T11:34:26Z</time></trkpt><trkpt lat="45.82335609514657" lon="9.757245899368263"><ele>902.0</ele><time>2026-05-02T11:34:27Z</time></trkpt><trkpt lat="45.82335565739964" lon="9.757355520265556"><ele>903.2857142857142</ele><time>2026-05-02T11:34:28Z</time></trkpt><trkpt lat="45.82335226710754" lon="9.757462630471295"><ele>904.5714285714287</ele><time>2026-05-02T11:34:29Z</time></trkpt><trkpt lat="45.82335192076275" lon="9.757566785933973"><ele>905.8571428571429</ele><time>2026-05-02T11:34:30Z</time></trkpt><trkpt lat="45.823348676609214" lon="9.757669238494312"><ele>907.1428571428571</ele><time>2026-05-02T11:34:31Z</time></trkpt><trkpt lat="45.82334254607483" lon="9.757771434451136"><ele>908.4285714285713</ele><time>2026-05-02T11:34:32Z</time></trkpt><trkpt lat="45.82333857793271" lon="9.757873382047684"><ele>909.7142857142858</ele><time>2026-05-02T11:34:33Z</time></trkpt><trkpt lat="45.82331930094343" lon="9.757974983144596"><ele>911.0</ele><time>2026-05-02T11:34:34Z</time></trkpt><trkpt lat="45.823291757640916" lon="9.758064774197008"><ele>914.0000000000001</ele><time>2026-05-02T11:34:35Z</time></trkpt><trkpt lat="45.823249085392966" lon="9.758143852966821"><ele>917.0</ele><time>2026-05-02T11:34:36Z</time></trkpt><trkpt lat="45.82318970811526" lon="9.758196280611719"><ele>920.0</ele><time>2026-05-02T11:34:37Z</time></trkpt><trkpt lat="45.82312294883412" lon="9.758220738449321"><ele>923.0</ele><time>2026-05-02T11:34:38Z</time></trkpt><trkpt lat="45.82305524006794" lon="9.758223429193828"><ele>926.0000000000001</ele><time>2026-05-02T11:34:39Z</time></trkpt><trkpt lat="45.822994305790026" lon="9.758195962040025"><ele>929.0</ele><time>2026-05-02T11:34:40Z</time></trkpt><trkpt lat="45.822924548245545" lon="9.758061558395442"><ele>929.0</ele><time>2026-05-02T11:34:42Z</time></trkpt><trkpt lat="45.82287449857768" lon="9.75792097116405"><ele>929.0</ele><time>2026-05-02T11:34:44Z</time></trkpt><trkpt lat="45.82280515224194" lon="9.757794706843626"><ele>929.0</ele><time>2026-05-02T11:34:46Z</time></trkpt><trkpt lat="45.82272460646431" lon="9.757681392711222"><ele>929.0</ele><time>2026-05-02T11:34:48Z</time></trkpt><trkpt lat="45.82263394257422" lon="9.757570031022745"><ele>925.25</ele><time>2026-05-02T11:34:50Z</time></trkpt><trkpt lat="45.82253630427163" lon="9.757467588240344"><ele>921.5</ele><time>2026-05-02T11:34:52Z</time></trkpt><trkpt lat="45.822441693024096" lon="9.757368481169529"><ele>917.75</ele><time>2026-05-02T11:34:54Z</time></trkpt><trkpt lat="45.822343264771746" lon="9.75728187744807"><ele>914.0</ele><time>2026-05-02T11:34:56Z</time></trkpt><trkpt lat="45.82223945293709" lon="9.757212344055366"><ele>914.0</ele><time>2026-05-02T11:34:58Z</time></trkpt><trkpt lat="45.82213836414641" lon="9.757122112202092"><ele>914.0000000000001</ele><time>2026-05-02T11:35:00Z</time></trkpt><trkpt lat="45.82203109385794" lon="9.75702598985619"><ele>914.0000000000001</ele><time>2026-05-02T11:35:02Z</time></trkpt><trkpt lat="45.82196441479803" lon="9.756971141840712"><ele>914.0</ele><time>2026-05-02T11:35:03Z</time></trkpt><trkpt lat="45.82190384924846" lon="9.756928681304984"><ele>914.0</ele><time>2026-05-02T11:35:04Z</time></trkpt><trkpt lat="45.82183893265801" lon="9.756885963106662"><ele>910.0000000000001</ele><time>2026-05-02T11:35:05Z</time></trkpt><trkpt lat="45.821762394580546" lon="9.756850965351987"><ele>906.0</ele><time>2026-05-02T11:35:06Z</time></trkpt><trkpt lat="45.821679890088234" lon="9.756811969334345"><ele>902.0</ele><time>2026-05-02T11:35:07Z</time></trkpt><trkpt lat="45.82160412509552" lon="9.756776099793404"><ele>898.0</ele><time>2026-05-02T11:35:08Z</time></trkpt><trkpt lat="45.821523778162174" lon="9.756731939721892"><ele>894.0000000000001</ele><time>2026-05-02T11:35:09Z</time></trkpt><trkpt lat="45.82143865999746" lon="9.756693889147485"><ele>890.0</ele><time>2026-05-02T11:35:10Z</time></trkpt><trkpt lat="45.82134709460831" lon="9.756651126150713"><ele>890.0</ele><time>2026-05-02T11:35:11Z</time></trkpt><trkpt lat="45.8212606214601" lon="9.756597877742296"><ele>890.0</ele><time>2026-05-02T11:35:12Z</time></trkpt><trkpt lat="45.82117231910429" lon="9.756534155427973"><ele>890.0</ele><time>2026-05-02T11:35:13Z</time></trkpt><trkpt lat="45.82108828386025" lon="9.756452419127967"><ele>890.0</ele><time>2026-05-02T11:35:14Z</time></trkpt><trkpt lat="45.8210088333292" lon="9.756365509590722"><ele>890.0</ele><time>2026-05-02T11:35:15Z</time></trkpt><trkpt lat="45.82092162632052" lon="9.756288569171621"><ele>892.2</ele><time>2026-05-02T11:35:16Z</time></trkpt><trkpt lat="45.8208249811221" lon="9.756244449146735"><ele>894.4</ele><time>2026-05-02T11:35:17Z</time></trkpt><trkpt lat="45.82072539391303" lon="9.75622297014424"><ele>896.5999999999999</ele><time>2026-05-02T11:35:18Z</time></trkpt><trkpt lat="45.82061816932887" lon="9.756229646030341"><ele>898.8</ele><time>2026-05-02T11:35:19Z</time></trkpt><trkpt lat="45.820510894918954" lon="9.756249262149387"><ele>901.0</ele><time>2026-05-02T11:35:20Z</time></trkpt><trkpt lat="45.82039970825471" lon="9.756262372393254"><ele>901.0</ele><time>2026-05-02T11:35:21Z</time></trkpt><trkpt lat="45.82028839731154" lon="9.756272984966095"><ele>900.9999999999999</ele><time>2026-05-02T11:35:22Z</time></trkpt><trkpt lat="45.82018003363257" lon="9.756298017204513"><ele>900.9999999999999</ele><time>2026-05-02T11:35:23Z</time></trkpt><trkpt lat="45.82006739193173" lon="9.756337664876114"><ele>901.0</ele><time>2026-05-02T11:35:24Z</time></trkpt><trkpt lat="45.81995840130226" lon="9.75637195019509"><ele>901.0</ele><time>2026-05-02T11:35:25Z</time></trkpt><trkpt lat="45.81984243563692" lon="9.756403421906386"><ele>898.8</ele><time>2026-05-02T11:35:26Z</time></trkpt><trkpt lat="45.81972904185634" lon="9.75643264007151"><ele>896.5999999999999</ele><time>2026-05-02T11:35:27Z</time></trkpt><trkpt lat="45.81961828290047" lon="9.7564673424691"><ele>894.4</ele><time>2026-05-02T11:35:28Z</time></trkpt><trkpt lat="45.819509199783056" lon="9.756500897171938"><ele>892.2</ele><time>2026-05-02T11:35:29Z</time></trkpt><trkpt lat="45.81940379693937" lon="9.756539573588713"><ele>890.0</ele><time>2026-05-02T11:35:30Z</time></trkpt><trkpt lat="45.81930044314422" lon="9.756588585962078"><ele>892.0</ele><time>2026-05-02T11:35:31Z</time></trkpt><trkpt lat="45.819197810376835" lon="9.75664816922769"><ele>894.0</ele><time>2026-05-02T11:35:32Z</time></trkpt><trkpt lat="45.819100511363374" lon="9.756719780563891"><ele>896.0</ele><time>2026-05-02T11:35:33Z</time></trkpt><trkpt lat="45.818999345618245" lon="9.756802702175467"><ele>898.0</ele><time>2026-05-02T11:35:34Z</time></trkpt><trkpt lat="45.818902668542464" lon="9.756873220616882"><ele>900.0</ele><time>2026-05-02T11:35:35Z</time></trkpt><trkpt lat="45.81881526158465" lon="9.756936230382385"><ele>900.0</ele><time>2026-05-02T11:35:36Z</time></trkpt><trkpt lat="45.81872883138096" lon="9.757006490307225"><ele>900.0</ele><time>2026-05-02T11:35:37Z</time></trkpt><trkpt lat="45.81864170228009" lon="9.75707441515044"><ele>900.0</ele><time>2026-05-02T11:35:38Z</time></trkpt><trkpt lat="45.81855688153748" lon="9.757134517213078"><ele>900.0</ele><time>2026-05-02T11:35:39Z</time></trkpt><trkpt lat="45.81847784020311" lon="9.757193833242376"><ele>900.0</ele><time>2026-05-02T11:35:40Z</time></trkpt><trkpt lat="45.81840259580634" lon="9.757243786425931"><ele>898.3333333333334</ele><time>2026-05-02T11:35:41Z</time></trkpt><trkpt lat="45.818332288713755" lon="9.757285451971546"><ele>896.6666666666667</ele><time>2026-05-02T11:35:42Z</time></trkpt><trkpt lat="45.81827180222309" lon="9.75732813767983"><ele>895.0</ele><time>2026-05-02T11:35:43Z</time></trkpt><trkpt lat="45.81821210655597" lon="9.757366997036517"><ele>893.3333333333334</ele><time>2026-05-02T11:35:44Z</time></trkpt><trkpt lat="45.81814743904952" lon="9.75745713808285"><ele>891.6666666666667</ele><time>2026-05-02T11:35:46Z</time></trkpt><trkpt lat="45.818132563364905" lon="9.75759536398117"><ele>890.0</ele><time>2026-05-02T11:35:48Z</time></trkpt><trkpt lat="45.818156083077795" lon="9.757738020168066"><ele>890.0</ele><time>2026-05-02T11:35:50Z</time></trkpt><trkpt lat="45.8181973256345" lon="9.757908980841837"><ele>890.0</ele><time>2026-05-02T11:35:52Z</time></trkpt><trkpt lat="45.81821045516514" lon="9.75801284289516"><ele>890.0</ele><time>2026-05-02T11:35:53Z</time></trkpt><trkpt lat="45.818201293275045" lon="9.758129270789054"><ele>890.0</ele><time>2026-05-02T11:35:54Z</time></trkpt><trkpt lat="45.81817107248628" lon="9.758240360198439"><ele>890.0</ele><time>2026-05-02T11:35:55Z</time></trkpt><trkpt lat="45.818135199420716" lon="9.75835614040265"><ele>890.0</ele><time>2026-05-02T11:35:56Z</time></trkpt><trkpt lat="45.81810719629967" lon="9.75847803348201"><ele>890.0</ele><time>2026-05-02T11:35:57Z</time></trkpt><trkpt lat="45.818060119625386" lon="9.758588721555354"><ele>890.0</ele><time>2026-05-02T11:35:58Z</time></trkpt><trkpt lat="45.817994423470516" lon="9.75868513839909"><ele>890.0</ele><time>2026-05-02T11:35:59Z</time></trkpt><trkpt lat="45.8179357854955" lon="9.758788109195189"><ele>890.0</ele><time>2026-05-02T11:36:00Z</time></trkpt><trkpt lat="45.81788959587925" lon="9.758906058507783"><ele>892.6</ele><time>2026-05-02T11:36:01Z</time></trkpt><trkpt lat="45.8178550320304" lon="9.759033541892018"><ele>895.2</ele><time>2026-05-02T11:36:02Z</time></trkpt><trkpt lat="45.81782945387877" lon="9.75916542480875"><ele>897.8</ele><time>2026-05-02T11:36:03Z</time></trkpt><trkpt lat="45.81780742334331" lon="9.759295842442265"><ele>900.4</ele><time>2026-05-02T11:36:04Z</time></trkpt><trkpt lat="45.81777525656219" lon="9.759416524347273"><ele>903.0</ele><time>2026-05-02T11:36:05Z</time></trkpt><trkpt lat="45.81775968551807" lon="9.75953608948944"><ele>903.0</ele><time>2026-05-02T11:36:06Z</time></trkpt><trkpt lat="45.81775701558763" lon="9.759635545439881"><ele>903.0</ele><time>2026-05-02T11:36:07Z</time></trkpt><trkpt lat="45.817766893938156" lon="9.75974375657224"><ele>903.0</ele><time>2026-05-02T11:36:09Z</time></trkpt><trkpt lat="45.817787271626045" lon="9.759625206119644"><ele>903.0</ele><time>2026-05-02T11:36:16Z</time></trkpt><trkpt lat="45.817800862152865" lon="9.759535860093099"><ele>903.0</ele><time>2026-05-02T11:36:19Z</time></trkpt><trkpt lat="45.817736544735645" lon="9.759562949604915"><ele>903.0</ele><time>2026-05-02T11:38:05Z</time></trkpt><trkpt lat="45.81772674758036" lon="9.759664552285205"><ele>903.0</ele><time>2026-05-02T11:38:07Z</time></trkpt><trkpt lat="45.817747069675875" lon="9.75976279151303"><ele>903.0</ele><time>2026-05-02T11:38:09Z</time></trkpt><trkpt lat="45.81778654258178" lon="9.759854728987337"><ele>903.0</ele><time>2026-05-02T11:38:11Z</time></trkpt><trkpt lat="45.817823068622644" lon="9.759981427230114"><ele>903.0</ele><time>2026-05-02T11:38:13Z</time></trkpt><trkpt lat="45.817877016893924" lon="9.760118206042101"><ele>903.0</ele><time>2026-05-02T11:38:15Z</time></trkpt><trkpt lat="45.81791140024961" lon="9.76027904253437"><ele>903.0</ele><time>2026-05-02T11:38:17Z</time></trkpt><trkpt lat="45.81787179965911" lon="9.760428517547895"><ele>905.2</ele><time>2026-05-02T11:38:19Z</time></trkpt><trkpt lat="45.81778849459721" lon="9.760533439311132"><ele>907.4</ele><time>2026-05-02T11:38:21Z</time></trkpt><trkpt lat="45.81769180356331" lon="9.760606122034435"><ele>909.6000000000001</ele><time>2026-05-02T11:38:23Z</time></trkpt><trkpt lat="45.81759999839821" lon="9.760677757847143"><ele>911.8000000000001</ele><time>2026-05-02T11:38:25Z</time></trkpt><trkpt lat="45.81752057208855" lon="9.760771613759736"><ele>914.0</ele><time>2026-05-02T11:38:27Z</time></trkpt><trkpt lat="45.817483344242895" lon="9.760912346175763"><ele>908.0000000000001</ele><time>2026-05-02T11:38:29Z</time></trkpt><trkpt lat="45.81746502711244" lon="9.761039628842001"><ele>902.0</ele><time>2026-05-02T11:38:31Z</time></trkpt><trkpt lat="45.81744796374826" lon="9.761151670407399"><ele>896.0</ele><time>2026-05-02T11:38:33Z</time></trkpt><trkpt lat="45.81742938801186" lon="9.761255686211518"><ele>890.0</ele><time>2026-05-02T11:38:35Z</time></trkpt><trkpt lat="45.81740256904246" lon="9.761376135683168"><ele>884.0000000000001</ele><time>2026-05-02T11:38:37Z</time></trkpt><trkpt lat="45.817375450625136" lon="9.761512117115048"><ele>878.0</ele><time>2026-05-02T11:38:39Z</time></trkpt><trkpt lat="45.81736253838712" lon="9.761666441200113"><ele>878.0</ele><time>2026-05-02T11:38:41Z</time></trkpt><trkpt lat="45.81738756040607" lon="9.761817804250258"><ele>878.0</ele><time>2026-05-02T11:38:43Z</time></trkpt><trkpt lat="45.817410762562275" lon="9.761965783233952"><ele>878.0</ele><time>2026-05-02T11:38:45Z</time></trkpt><trkpt lat="45.817396412895945" lon="9.762121930915667"><ele>878.0</ele><time>2026-05-02T11:38:47Z</time></trkpt><trkpt lat="45.81735358062062" lon="9.76226750236542"><ele>878.0</ele><time>2026-05-02T11:38:49Z</time></trkpt><trkpt lat="45.81730226942965" lon="9.762399988766393"><ele>881.4</ele><time>2026-05-02T11:38:51Z</time></trkpt><trkpt lat="45.81725355381413" lon="9.762546237697132"><ele>884.8</ele><time>2026-05-02T11:38:53Z</time></trkpt><trkpt lat="45.81716118920384" lon="9.762660575737147"><ele>888.2</ele><time>2026-05-02T11:38:55Z</time></trkpt><trkpt lat="45.81709752029355" lon="9.762685902724499"><ele>891.6</ele><time>2026-05-02T11:38:56Z</time></trkpt><trkpt lat="45.81703439590394" lon="9.762681567974973"><ele>895.0</ele><time>2026-05-02T11:38:57Z</time></trkpt><trkpt lat="45.81694595691098" lon="9.762586259758365"><ele>895.0</ele><time>2026-05-02T11:38:59Z</time></trkpt><trkpt lat="45.816887221437966" lon="9.762456408389317"><ele>895.0</ele><time>2026-05-02T11:39:01Z</time></trkpt><trkpt lat="45.81683307482496" lon="9.762324477120123"><ele>895.0</ele><time>2026-05-02T11:39:03Z</time></trkpt><trkpt lat="45.81677128780446" lon="9.762200542161013"><ele>895.0</ele><time>2026-05-02T11:39:05Z</time></trkpt><trkpt lat="45.8167039728848" lon="9.762092051232264"><ele>895.0</ele><time>2026-05-02T11:39:07Z</time></trkpt><trkpt lat="45.81662439001228" lon="9.761979945441864"><ele>894.4</ele><time>2026-05-02T11:39:09Z</time></trkpt><trkpt lat="45.816537469638355" lon="9.761885097592824"><ele>893.8</ele><time>2026-05-02T11:39:11Z</time></trkpt><trkpt lat="45.81646030092198" lon="9.761782412179144"><ele>893.2</ele><time>2026-05-02T11:39:13Z</time></trkpt><trkpt lat="45.81638584309143" lon="9.761668686689749"><ele>892.6</ele><time>2026-05-02T11:39:15Z</time></trkpt><trkpt lat="45.8163165242508" lon="9.761564468839353"><ele>892.0</ele><time>2026-05-02T11:39:17Z</time></trkpt><trkpt lat="45.816229586811694" lon="9.76148141216227"><ele>891.8</ele><time>2026-05-02T11:39:19Z</time></trkpt><trkpt lat="45.81613644721954" lon="9.76141222199185"><ele>891.6</ele><time>2026-05-02T11:39:21Z</time></trkpt><trkpt lat="45.81604662969442" lon="9.76134202534657"><ele>891.3999999999999</ele><time>2026-05-02T11:39:23Z</time></trkpt><trkpt lat="45.81595253434694" lon="9.761297539291025"><ele>891.1999999999999</ele><time>2026-05-02T11:39:25Z</time></trkpt><trkpt lat="45.81585685440598" lon="9.76126208878321"><ele>891.0</ele><time>2026-05-02T11:39:27Z</time></trkpt><trkpt lat="45.81576590302923" lon="9.761231937401813"><ele>891.0</ele><time>2026-05-02T11:39:29Z</time></trkpt><trkpt lat="45.81567034673587" lon="9.761202375724299"><ele>890.9999999999999</ele><time>2026-05-02T11:39:31Z</time></trkpt><trkpt lat="45.81557709900082" lon="9.761166471658594"><ele>890.9999999999999</ele><time>2026-05-02T11:39:33Z</time></trkpt><trkpt lat="45.81548291490897" lon="9.76114027246256"><ele>891.0</ele><time>2026-05-02T11:39:35Z</time></trkpt><trkpt lat="45.81538787635265" lon="9.761122908795382"><ele>891.0</ele><time>2026-05-02T11:39:37Z</time></trkpt><trkpt lat="45.81529594801269" lon="9.761131159596628"><ele>891.0</ele><time>2026-05-02T11:39:39Z</time></trkpt><trkpt lat="45.815204879327226" lon="9.761166387538651"><ele>890.9999999999999</ele><time>2026-05-02T11:39:41Z</time></trkpt><trkpt lat="45.8151135387794" lon="9.761212254621954"><ele>890.9999999999999</ele><time>2026-05-02T11:39:43Z</time></trkpt><trkpt lat="45.81503432649963" lon="9.761272099680216"><ele>891.0</ele><time>2026-05-02T11:39:45Z</time></trkpt><trkpt lat="45.81494867054962" lon="9.761315780998402"><ele>891.0</ele><time>2026-05-02T11:39:47Z</time></trkpt><trkpt lat="45.81486385154495" lon="9.76136036898814"><ele>891.8</ele><time>2026-05-02T11:39:49Z</time></trkpt><trkpt lat="45.81478114536442" lon="9.76140515295069"><ele>892.5999999999999</ele><time>2026-05-02T11:39:51Z</time></trkpt><trkpt lat="45.814699342505676" lon="9.761456774179985"><ele>893.4</ele><time>2026-05-02T11:39:53Z</time></trkpt><trkpt lat="45.814617843798494" lon="9.76151995584"><ele>894.2</ele><time>2026-05-02T11:39:55Z</time></trkpt><trkpt lat="45.81454612424428" lon="9.761606610567734"><ele>895.0</ele><time>2026-05-02T11:39:57Z</time></trkpt><trkpt lat="45.814475056277004" lon="9.761699306565575"><ele>895.0</ele><time>2026-05-02T11:39:59Z</time></trkpt><trkpt lat="45.81440067164153" lon="9.761791841230915"><ele>895.0</ele><time>2026-05-02T11:40:01Z</time></trkpt><trkpt lat="45.814324860493855" lon="9.761889966276364"><ele>895.0</ele><time>2026-05-02T11:40:03Z</time></trkpt><trkpt lat="45.81425016236342" lon="9.761994883263172"><ele>895.0</ele><time>2026-05-02T11:40:05Z</time></trkpt><trkpt lat="45.81416909481038" lon="9.762099130702365"><ele>895.0</ele><time>2026-05-02T11:40:07Z</time></trkpt><trkpt lat="45.814090528015115" lon="9.762213735829702"><ele>896.0</ele><time>2026-05-02T11:40:09Z</time></trkpt><trkpt lat="45.81400275435657" lon="9.762314785513132"><ele>897.0</ele><time>2026-05-02T11:40:11Z</time></trkpt><trkpt lat="45.81391070125668" lon="9.762407663925954"><ele>898.0</ele><time>2026-05-02T11:40:13Z</time></trkpt><trkpt lat="45.81381844683045" lon="9.762501393654752"><ele>899.0</ele><time>2026-05-02T11:40:15Z</time></trkpt><trkpt lat="45.813739827770185" lon="9.762604754576858"><ele>900.0</ele><time>2026-05-02T11:40:17Z</time></trkpt><trkpt lat="45.813683510773856" lon="9.762728774377083"><ele>901.3333333333334</ele><time>2026-05-02T11:40:19Z</time></trkpt><trkpt lat="45.81362912119788" lon="9.762846154276648"><ele>902.6666666666667</ele><time>2026-05-02T11:40:21Z</time></trkpt><trkpt lat="45.81357212418012" lon="9.762959887445502"><ele>904.0</ele><time>2026-05-02T11:40:23Z</time></trkpt><trkpt lat="45.8135211166027" lon="9.763073704998968"><ele>905.3333333333334</ele><time>2026-05-02T11:40:25Z</time></trkpt><trkpt lat="45.813468005382774" lon="9.763158219592574"><ele>906.6666666666667</ele><time>2026-05-02T11:40:27Z</time></trkpt><trkpt lat="45.813405966230064" lon="9.763226696465564"><ele>908.0</ele><time>2026-05-02T11:40:29Z</time></trkpt><trkpt lat="45.81348384032799" lon="9.76316669624268"><ele>906.6666666666667</ele><time>2026-05-02T11:40:38Z</time></trkpt><trkpt lat="45.81352193923454" lon="9.763073552291784"><ele>905.3333333333334</ele><time>2026-05-02T11:40:40Z</time></trkpt><trkpt lat="45.8135577386639" lon="9.762990923438217"><ele>904.0</ele><time>2026-05-02T11:40:42Z</time></trkpt><trkpt lat="45.8136091534617" lon="9.76287491009228"><ele>902.6666666666667</ele><time>2026-05-02T11:40:45Z</time></trkpt><trkpt lat="45.81365673281547" lon="9.762783988695574"><ele>901.3333333333334</ele><time>2026-05-02T11:40:47Z</time></trkpt><trkpt lat="45.813704691130994" lon="9.76268354001608"><ele>900.0</ele><time>2026-05-02T11:40:49Z</time></trkpt><trkpt lat="45.81375504917449" lon="9.762604123323117"><ele>900.0</ele><time>2026-05-02T11:40:51Z</time></trkpt><trkpt lat="45.81375025779223" lon="9.762498966576658"><ele>900.0</ele><time>2026-05-02T11:40:54Z</time></trkpt><trkpt lat="45.81370237696171" lon="9.762558024040068"><ele>900.0</ele><time>2026-05-02T11:40:56Z</time></trkpt><trkpt lat="45.81363959084803" lon="9.762684826860115"><ele>900.0</ele><time>2026-05-02T11:40:58Z</time></trkpt><trkpt lat="45.813551246952066" lon="9.7627640669096"><ele>900.0</ele><time>2026-05-02T11:41:00Z</time></trkpt><trkpt lat="45.813490519319714" lon="9.762799598339512"><ele>900.0</ele><time>2026-05-02T11:41:02Z</time></trkpt><trkpt lat="45.81342259718936" lon="9.7628249979493"><ele>900.0</ele><time>2026-05-02T11:41:13Z</time></trkpt><trkpt lat="45.813387991433636" lon="9.762913825237556"><ele>900.0</ele><time>2026-05-02T11:41:18Z</time></trkpt><trkpt lat="45.81345805467342" lon="9.762907670750856"><ele>900.0</ele><time>2026-05-02T11:41:21Z</time></trkpt><trkpt lat="45.81350329555933" lon="9.762844811547552"><ele>900.0</ele><time>2026-05-02T11:41:23Z</time></trkpt><trkpt lat="45.81357764123278" lon="9.762744663702934"><ele>900.0</ele><time>2026-05-02T11:41:26Z</time></trkpt><trkpt lat="45.81366290712963" lon="9.762656284714048"><ele>900.0</ele><time>2026-05-02T11:41:28Z</time></trkpt><trkpt lat="45.813740871895014" lon="9.762542820834858"><ele>900.0</ele><time>2026-05-02T11:41:30Z</time></trkpt><trkpt lat="45.81379002348971" lon="9.762600291628067"><ele>900.0</ele><time>2026-05-02T11:41:34Z</time></trkpt><trkpt lat="45.813744592094494" lon="9.762692192572754"><ele>900.0</ele><time>2026-05-02T11:41:36Z</time></trkpt><trkpt lat="45.813684647626715" lon="9.76279518418094"><ele>900.0</ele><time>2026-05-02T11:41:38Z</time></trkpt><trkpt lat="45.81361888927417" lon="9.76291050815953"><ele>900.0</ele><time>2026-05-02T11:41:40Z</time></trkpt><trkpt lat="45.81355632175996" lon="9.76302248099806"><ele>900.0</ele><time>2026-05-02T11:41:42Z</time></trkpt><trkpt lat="45.81349626813608" lon="9.763130472657474"><ele>901.6</ele><time>2026-05-02T11:41:44Z</time></trkpt><trkpt lat="45.81342932874152" lon="9.763232193661343"><ele>903.2</ele><time>2026-05-02T11:41:46Z</time></trkpt><trkpt lat="45.81334368115906" lon="9.76333086380471"><ele>904.8</ele><time>2026-05-02T11:41:48Z</time></trkpt><trkpt lat="45.81323403122617" lon="9.763400109288948"><ele>906.4</ele><time>2026-05-02T11:41:50Z</time></trkpt><trkpt lat="45.81313045121733" lon="9.763449342107608"><ele>908.0</ele><time>2026-05-02T11:41:52Z</time></trkpt><trkpt lat="45.813020707084306" lon="9.76350413717482"><ele>912.2</ele><time>2026-05-02T11:41:54Z</time></trkpt><trkpt lat="45.81291647060815" lon="9.763567150923045"><ele>916.4</ele><time>2026-05-02T11:41:56Z</time></trkpt><trkpt lat="45.81281149584071" lon="9.763628255745331"><ele>920.6000000000001</ele><time>2026-05-02T11:41:58Z</time></trkpt><trkpt lat="45.81270870877686" lon="9.763689308494232"><ele>924.8000000000001</ele><time>2026-05-02T11:42:00Z</time></trkpt><trkpt lat="45.81260277079022" lon="9.763722252049066"><ele>929.0</ele><time>2026-05-02T11:42:02Z</time></trkpt><trkpt lat="45.81249362561191" lon="9.763705199591948"><ele>929.0</ele><time>2026-05-02T11:42:04Z</time></trkpt><trkpt lat="45.812402209016675" lon="9.763626069157551"><ele>929.0000000000001</ele><time>2026-05-02T11:42:06Z</time></trkpt><trkpt lat="45.812355424429775" lon="9.763486439612446"><ele>929.0000000000001</ele><time>2026-05-02T11:42:08Z</time></trkpt><trkpt lat="45.812345005333675" lon="9.763334865162081"><ele>929.0</ele><time>2026-05-02T11:42:10Z</time></trkpt><trkpt lat="45.812328366623824" lon="9.763189955640074"><ele>929.0</ele><time>2026-05-02T11:42:12Z</time></trkpt><trkpt lat="45.81227444281012" lon="9.763061917236788"><ele>924.8000000000001</ele><time>2026-05-02T11:42:14Z</time></trkpt><trkpt lat="45.812208549264774" lon="9.76293399136795"><ele>920.6000000000001</ele><time>2026-05-02T11:42:16Z</time></trkpt><trkpt lat="45.81214269787633" lon="9.762807073275258"><ele>916.4</ele><time>2026-05-02T11:42:18Z</time></trkpt><trkpt lat="45.812059206285156" lon="9.762698001325044"><ele>912.2</ele><time>2026-05-02T11:42:20Z</time></trkpt><trkpt lat="45.811953303099166" lon="9.762636334023494"><ele>908.0</ele><time>2026-05-02T11:42:22Z</time></trkpt><trkpt lat="45.81184699474513" lon="9.76258331251411"><ele>913.5</ele><time>2026-05-02T11:42:24Z</time></trkpt><trkpt lat="45.811745780842706" lon="9.762520590431501"><ele>919.0</ele><time>2026-05-02T11:42:26Z</time></trkpt><trkpt lat="45.81165573363622" lon="9.76241921237173"><ele>924.5</ele><time>2026-05-02T11:42:28Z</time></trkpt><trkpt lat="45.81162322419174" lon="9.762261626204014"><ele>930.0</ele><time>2026-05-02T11:42:30Z</time></trkpt><trkpt lat="45.811619788470395" lon="9.762097028917973"><ele>930.0</ele><time>2026-05-02T11:42:32Z</time></trkpt><trkpt lat="45.81159621627104" lon="9.761934593500124"><ele>930.0</ele><time>2026-05-02T11:42:34Z</time></trkpt><trkpt lat="45.81157141155086" lon="9.761777479735173"><ele>930.0</ele><time>2026-05-02T11:42:36Z</time></trkpt><trkpt lat="45.81154883914335" lon="9.761620250050012"><ele>930.0</ele><time>2026-05-02T11:42:38Z</time></trkpt><trkpt lat="45.81152801570333" lon="9.761462550569158"><ele>925.5</ele><time>2026-05-02T11:42:40Z</time></trkpt><trkpt lat="45.811519869383176" lon="9.76130160377383"><ele>921.0</ele><time>2026-05-02T11:42:42Z</time></trkpt><trkpt lat="45.81151549787109" lon="9.761144522292781"><ele>916.5</ele><time>2026-05-02T11:42:44Z</time></trkpt><trkpt lat="45.811509245253475" lon="9.760979383849028"><ele>912.0</ele><time>2026-05-02T11:42:46Z</time></trkpt><trkpt lat="45.811469728260235" lon="9.760823901154351"><ele>911.0</ele><time>2026-05-02T11:42:48Z</time></trkpt><trkpt lat="45.81142482067453" lon="9.760687443862476"><ele>910.0</ele><time>2026-05-02T11:42:50Z</time></trkpt><trkpt lat="45.81136776800635" lon="9.760550256459108"><ele>909.0</ele><time>2026-05-02T11:42:52Z</time></trkpt><trkpt lat="45.811319650939176" lon="9.76039868859734"><ele>908.0</ele><time>2026-05-02T11:42:54Z</time></trkpt><trkpt lat="45.811281760023284" lon="9.76025377731093"><ele>907.0</ele><time>2026-05-02T11:42:56Z</time></trkpt><trkpt lat="45.81124790045607" lon="9.760104913753167"><ele>903.4000000000001</ele><time>2026-05-02T11:42:58Z</time></trkpt><trkpt lat="45.81118870519764" lon="9.759959180294192"><ele>899.8000000000001</ele><time>2026-05-02T11:43:00Z</time></trkpt><trkpt lat="45.8111775427596" lon="9.759833296146947"><ele>896.2</ele><time>2026-05-02T11:43:02Z</time></trkpt><trkpt lat="45.81115793660431" lon="9.759726942901844"><ele>892.6</ele><time>2026-05-02T11:43:03Z</time></trkpt><trkpt lat="45.8111633246995" lon="9.759567163877362"><ele>889.0</ele><time>2026-05-02T11:43:05Z</time></trkpt><trkpt lat="45.81115116298327" lon="9.759406627951696"><ele>886.2</ele><time>2026-05-02T11:43:07Z</time></trkpt><trkpt lat="45.811118364089054" lon="9.759253085193118"><ele>883.4000000000001</ele><time>2026-05-02T11:43:09Z</time></trkpt><trkpt lat="45.81104726797879" lon="9.75913033372134"><ele>880.6</ele><time>2026-05-02T11:43:11Z</time></trkpt><trkpt lat="45.81096425008215" lon="9.759033030646204"><ele>877.8</ele><time>2026-05-02T11:43:13Z</time></trkpt><trkpt lat="45.81087458028672" lon="9.7589236048229"><ele>875.0</ele><time>2026-05-02T11:43:15Z</time></trkpt><trkpt lat="45.810789849291766" lon="9.758816856559404"><ele>888.0</ele><time>2026-05-02T11:43:17Z</time></trkpt><trkpt lat="45.81068721296563" lon="9.758756106248397"><ele>901.0</ele><time>2026-05-02T11:43:19Z</time></trkpt><trkpt lat="45.81058332723568" lon="9.758812211517423"><ele>914.0</ele><time>2026-05-02T11:43:21Z</time></trkpt><trkpt lat="45.81050821335142" lon="9.758947803602293"><ele>927.0</ele><time>2026-05-02T11:43:23Z</time></trkpt><trkpt lat="45.81044375816598" lon="9.75909285458511"><ele>927.0</ele><time>2026-05-02T11:43:25Z</time></trkpt><trkpt lat="45.81036715246613" lon="9.759226169966022"><ele>927.0</ele><time>2026-05-02T11:43:27Z</time></trkpt><trkpt lat="45.81029412281374" lon="9.75935160264844"><ele>927.0</ele><time>2026-05-02T11:43:29Z</time></trkpt><trkpt lat="45.81022383784252" lon="9.759484755906545"><ele>927.0</ele><time>2026-05-02T11:43:31Z</time></trkpt><trkpt lat="45.81015411907969" lon="9.759617263344778"><ele>928.0</ele><time>2026-05-02T11:43:33Z</time></trkpt><trkpt lat="45.810082311691176" lon="9.759745605894556"><ele>929.0</ele><time>2026-05-02T11:43:35Z</time></trkpt><trkpt lat="45.81001403311387" lon="9.759872713880817"><ele>930.0</ele><time>2026-05-02T11:43:37Z</time></trkpt><trkpt lat="45.809943198123015" lon="9.760003474370563"><ele>931.0</ele><time>2026-05-02T11:43:39Z</time></trkpt><trkpt lat="45.80989063893901" lon="9.76015220258395"><ele>938.0</ele><time>2026-05-02T11:43:41Z</time></trkpt><trkpt lat="45.80984460237717" lon="9.760305928104296"><ele>945.0</ele><time>2026-05-02T11:43:43Z</time></trkpt><trkpt lat="45.80977777430886" lon="9.76044545379294"><ele>952.0</ele><time>2026-05-02T11:43:45Z</time></trkpt><trkpt lat="45.80969165856937" lon="9.760554536464793"><ele>959.0</ele><time>2026-05-02T11:43:47Z</time></trkpt><trkpt lat="45.809598488902346" lon="9.760654038877279"><ele>959.0</ele><time>2026-05-02T11:43:49Z</time></trkpt><trkpt lat="45.80950767061226" lon="9.760761854686105"><ele>959.0</ele><time>2026-05-02T11:43:51Z</time></trkpt><trkpt lat="45.80942195278767" lon="9.760878081986851"><ele>959.0</ele><time>2026-05-02T11:43:53Z</time></trkpt><trkpt lat="45.80933397845599" lon="9.760983355265465"><ele>959.0</ele><time>2026-05-02T11:43:55Z</time></trkpt><trkpt lat="45.809241549373105" lon="9.761069066700887"><ele>960.75</ele><time>2026-05-02T11:43:57Z</time></trkpt><trkpt lat="45.80914103980873" lon="9.761159222379652"><ele>962.5</ele><time>2026-05-02T11:43:59Z</time></trkpt><trkpt lat="45.809038423493746" lon="9.761233094168357"><ele>964.25</ele><time>2026-05-02T11:44:01Z</time></trkpt><trkpt lat="45.8089217802275" lon="9.761270148295132"><ele>966.0</ele><time>2026-05-02T11:44:03Z</time></trkpt><trkpt lat="45.808804866946616" lon="9.761255756458262"><ele>966.0</ele><time>2026-05-02T11:44:05Z</time></trkpt><trkpt lat="45.80869763395188" lon="9.76119450543994"><ele>965.9999999999999</ele><time>2026-05-02T11:44:07Z</time></trkpt><trkpt lat="45.80863852978501" lon="9.761163129626258"><ele>965.9999999999999</ele><time>2026-05-02T11:44:08Z</time></trkpt><trkpt lat="45.808531929979765" lon="9.761099020456559"><ele>966.0</ele><time>2026-05-02T11:44:10Z</time></trkpt><trkpt lat="45.8084231529451" lon="9.761044164387194"><ele>966.0</ele><time>2026-05-02T11:44:12Z</time></trkpt><trkpt lat="45.80831754688683" lon="9.760966573155848"><ele>960.0</ele><time>2026-05-02T11:44:14Z</time></trkpt><trkpt lat="45.808237532031136" lon="9.760847692298931"><ele>954.0</ele><time>2026-05-02T11:44:16Z</time></trkpt><trkpt lat="45.80817251219287" lon="9.76071407541602"><ele>948.0</ele><time>2026-05-02T11:44:18Z</time></trkpt><trkpt lat="45.80812183579611" lon="9.760562996031128"><ele>942.0</ele><time>2026-05-02T11:44:20Z</time></trkpt><trkpt lat="45.80808247991097" lon="9.760409150437482"><ele>942.0</ele><time>2026-05-02T11:44:22Z</time></trkpt><trkpt lat="45.808025275186246" lon="9.760270366864512"><ele>942.0</ele><time>2026-05-02T11:44:24Z</time></trkpt><trkpt lat="45.80797159672118" lon="9.76021317650191"><ele>942.0</ele><time>2026-05-02T11:44:25Z</time></trkpt><trkpt lat="45.80790155529824" lon="9.760090077417475"><ele>942.0</ele><time>2026-05-02T11:44:27Z</time></trkpt><trkpt lat="45.80781158421301" lon="9.759987726615606"><ele>942.0</ele><time>2026-05-02T11:44:29Z</time></trkpt><trkpt lat="45.80771315755528" lon="9.759901829666124"><ele>943.6</ele><time>2026-05-02T11:44:31Z</time></trkpt><trkpt lat="45.80765548217969" lon="9.759855263134344"><ele>945.2</ele><time>2026-05-02T11:44:32Z</time></trkpt><trkpt lat="45.80756085091231" lon="9.759770194608025"><ele>946.8</ele><time>2026-05-02T11:44:34Z</time></trkpt><trkpt lat="45.80746216101854" lon="9.75968558082802"><ele>948.4</ele><time>2026-05-02T11:44:36Z</time></trkpt><trkpt lat="45.80739377812521" lon="9.759662487092095"><ele>950.0</ele><time>2026-05-02T11:44:37Z</time></trkpt><trkpt lat="45.80729449816502" lon="9.75960643062948"><ele>950.0</ele><time>2026-05-02T11:44:39Z</time></trkpt><trkpt lat="45.80718622045665" lon="9.759638044197832"><ele>950.0</ele><time>2026-05-02T11:44:41Z</time></trkpt><trkpt lat="45.80708068710175" lon="9.759700505972596"><ele>950.0</ele><time>2026-05-02T11:44:43Z</time></trkpt><trkpt lat="45.80697700525736" lon="9.759737815128302"><ele>950.0</ele><time>2026-05-02T11:44:45Z</time></trkpt><trkpt lat="45.806867470667534" lon="9.759694441543665"><ele>950.0</ele><time>2026-05-02T11:44:47Z</time></trkpt><trkpt lat="45.80677769350381" lon="9.75962010902697"><ele>948.4</ele><time>2026-05-02T11:44:49Z</time></trkpt><trkpt lat="45.80668727089174" lon="9.759535959292638"><ele>946.8</ele><time>2026-05-02T11:44:51Z</time></trkpt><trkpt lat="45.80660999212681" lon="9.759442582173987"><ele>945.2</ele><time>2026-05-02T11:44:53Z</time></trkpt><trkpt lat="45.806517044231946" lon="9.759353839452261"><ele>943.6</ele><time>2026-05-02T11:44:55Z</time></trkpt><trkpt lat="45.80642777360326" lon="9.759268933489473"><ele>942.0</ele><time>2026-05-02T11:44:57Z</time></trkpt><trkpt lat="45.80631962345015" lon="9.75921683023817"><ele>942.0</ele><time>2026-05-02T11:44:59Z</time></trkpt><trkpt lat="45.80620533076265" lon="9.75918745888224"><ele>942.0</ele><time>2026-05-02T11:45:01Z</time></trkpt><trkpt lat="45.806088057778425" lon="9.759181035990924"><ele>942.0</ele><time>2026-05-02T11:45:03Z</time></trkpt><trkpt lat="45.80597006858479" lon="9.759185945110882"><ele>942.0</ele><time>2026-05-02T11:45:05Z</time></trkpt><trkpt lat="45.80585487488744" lon="9.759204316064196"><ele>942.6</ele><time>2026-05-02T11:45:07Z</time></trkpt><trkpt lat="45.80574364389122" lon="9.759245407493676"><ele>943.2</ele><time>2026-05-02T11:45:09Z</time></trkpt><trkpt lat="45.80568441113241" lon="9.759279457310521"><ele>943.8</ele><time>2026-05-02T11:45:10Z</time></trkpt><trkpt lat="45.80558311757288" lon="9.759357101763609"><ele>944.4</ele><time>2026-05-02T11:45:12Z</time></trkpt><trkpt lat="45.80548499507105" lon="9.759440184167971"><ele>945.0</ele><time>2026-05-02T11:45:14Z</time></trkpt><trkpt lat="45.80539298001977" lon="9.759535161079016"><ele>945.5</ele><time>2026-05-02T11:45:16Z</time></trkpt><trkpt lat="45.805313068331884" lon="9.759650028677799"><ele>946.0</ele><time>2026-05-02T11:45:18Z</time></trkpt><trkpt lat="45.805236187235565" lon="9.75977145371655"><ele>946.5</ele><time>2026-05-02T11:45:20Z</time></trkpt><trkpt lat="45.805161386535076" lon="9.759894065851874"><ele>947.0</ele><time>2026-05-02T11:45:22Z</time></trkpt><trkpt lat="45.805087274277476" lon="9.760017268435888"><ele>947.0</ele><time>2026-05-02T11:45:24Z</time></trkpt><trkpt lat="45.80502532814233" lon="9.760153600245873"><ele>947.0</ele><time>2026-05-02T11:45:26Z</time></trkpt><trkpt lat="45.80496327967426" lon="9.760283484728923"><ele>947.0</ele><time>2026-05-02T11:45:28Z</time></trkpt><trkpt lat="45.80489305708462" lon="9.760405255252705"><ele>947.0</ele><time>2026-05-02T11:45:30Z</time></trkpt><trkpt lat="45.80481511669362" lon="9.760517823669366"><ele>947.0</ele><time>2026-05-02T11:45:32Z</time></trkpt><trkpt lat="45.80473113984404" lon="9.760618154341643"><ele>953.4000000000001</ele><time>2026-05-02T11:45:34Z</time></trkpt><trkpt lat="45.804640338266914" lon="9.760711807575367"><ele>959.8000000000001</ele><time>2026-05-02T11:45:36Z</time></trkpt><trkpt lat="45.80456829005617" lon="9.760830870898866"><ele>966.2</ele><time>2026-05-02T11:45:38Z</time></trkpt><trkpt lat="45.80449239586041" lon="9.760949548845138"><ele>972.6</ele><time>2026-05-02T11:45:40Z</time></trkpt><trkpt lat="45.8044196529179" lon="9.76107683205841"><ele>979.0</ele><time>2026-05-02T11:45:42Z</time></trkpt><trkpt lat="45.8043484097775" lon="9.761206804108804"><ele>977.4000000000001</ele><time>2026-05-02T11:45:44Z</time></trkpt><trkpt lat="45.80428856921988" lon="9.761337987467787"><ele>975.8000000000001</ele><time>2026-05-02T11:45:46Z</time></trkpt><trkpt lat="45.804229737025125" lon="9.76137757087222"><ele>974.1999999999999</ele><time>2026-05-02T11:45:47Z</time></trkpt><trkpt lat="45.80416772838759" lon="9.761503956199522"><ele>972.5999999999999</ele><time>2026-05-02T11:45:49Z</time></trkpt><trkpt lat="45.80409791407963" lon="9.761620563880877"><ele>971.0</ele><time>2026-05-02T11:45:51Z</time></trkpt><trkpt lat="45.80402866697261" lon="9.761738007518636"><ele>971.0</ele><time>2026-05-02T11:45:53Z</time></trkpt><trkpt lat="45.803950733764545" lon="9.761846366024606"><ele>970.9999999999999</ele><time>2026-05-02T11:45:55Z</time></trkpt><trkpt lat="45.803885245794596" lon="9.761969799489634"><ele>970.9999999999999</ele><time>2026-05-02T11:45:57Z</time></trkpt><trkpt lat="45.803835028767764" lon="9.762107809124434"><ele>971.0</ele><time>2026-05-02T11:45:59Z</time></trkpt><trkpt lat="45.80381091368684" lon="9.762254609744076"><ele>971.0</ele><time>2026-05-02T11:46:01Z</time></trkpt><trkpt lat="45.80379946025508" lon="9.762405431027153"><ele>972.4</ele><time>2026-05-02T11:46:03Z</time></trkpt><trkpt lat="45.80376401962129" lon="9.76254846387423"><ele>973.8</ele><time>2026-05-02T11:46:05Z</time></trkpt><trkpt lat="45.80369332590831" lon="9.762655951238134"><ele>975.1999999999999</ele><time>2026-05-02T11:46:07Z</time></trkpt><trkpt lat="45.803606641517206" lon="9.76272956061344"><ele>976.5999999999999</ele><time>2026-05-02T11:46:09Z</time></trkpt><trkpt lat="45.803515481922965" lon="9.762775642056"><ele>978.0</ele><time>2026-05-02T11:46:11Z</time></trkpt><trkpt lat="45.80343631461638" lon="9.76283601166919"><ele>978.0</ele><time>2026-05-02T11:46:13Z</time></trkpt><trkpt lat="45.803374258552736" lon="9.76291426143387"><ele>978.0</ele><time>2026-05-02T11:46:15Z</time></trkpt><trkpt lat="45.80332746981976" lon="9.76300872986511"><ele>978.0</ele><time>2026-05-02T11:46:17Z</time></trkpt><trkpt lat="45.80328867373271" lon="9.76310414625354"><ele>978.0</ele><time>2026-05-02T11:46:19Z</time></trkpt><trkpt lat="45.80326508228296" lon="9.763210342000827"><ele>978.0</ele><time>2026-05-02T11:46:21Z</time></trkpt><trkpt lat="45.80325121376725" lon="9.763319636536204"><ele>978.0</ele><time>2026-05-02T11:46:23Z</time></trkpt><trkpt lat="45.803251520147576" lon="9.763427782643353"><ele>978.0</ele><time>2026-05-02T11:46:25Z</time></trkpt><trkpt lat="45.803263176394374" lon="9.76352757783143"><ele>978.0000000000001</ele><time>2026-05-02T11:46:27Z</time></trkpt><trkpt lat="45.80327626438211" lon="9.763623153080049"><ele>978.0</ele><time>2026-05-02T11:46:29Z</time></trkpt><trkpt lat="45.80330055300886" lon="9.763717788662623"><ele>978.0</ele><time>2026-05-02T11:46:31Z</time></trkpt><trkpt lat="45.80330637989471" lon="9.763807790267796"><ele>978.0000000000001</ele><time>2026-05-02T11:46:33Z</time></trkpt><trkpt lat="45.80328841508058" lon="9.763903476232985"><ele>978.0</ele><time>2026-05-02T11:46:35Z</time></trkpt><trkpt lat="45.80325298121028" lon="9.764021238860138"><ele>978.0</ele><time>2026-05-02T11:46:38Z</time></trkpt><trkpt lat="45.80319365390359" lon="9.764125852355468"><ele>980.4285714285714</ele><time>2026-05-02T11:46:41Z</time></trkpt><trkpt lat="45.803168006335966" lon="9.76421210336317"><ele>982.8571428571429</ele><time>2026-05-02T11:46:43Z</time></trkpt><trkpt lat="45.803162058132074" lon="9.764306028701023"><ele>985.2857142857143</ele><time>2026-05-02T11:46:45Z</time></trkpt><trkpt lat="45.80315904855405" lon="9.764402437921758"><ele>987.7142857142858</ele><time>2026-05-02T11:46:47Z</time></trkpt><trkpt lat="45.8031503807375" lon="9.764499213551275"><ele>990.1428571428571</ele><time>2026-05-02T11:46:49Z</time></trkpt><trkpt lat="45.803141135671346" lon="9.764596525843558"><ele>992.5714285714287</ele><time>2026-05-02T11:46:51Z</time></trkpt><trkpt lat="45.80313573389" lon="9.764693679770383"><ele>995.0</ele><time>2026-05-02T11:46:53Z</time></trkpt><trkpt lat="45.80311778241793" lon="9.764788080282576"><ele>998.2857142857143</ele><time>2026-05-02T11:46:55Z</time></trkpt><trkpt lat="45.80309089141061" lon="9.764881386098308"><ele>1001.5714285714284</ele><time>2026-05-02T11:46:57Z</time></trkpt><trkpt lat="45.80305751528754" lon="9.764970049055824"><ele>1004.8571428571428</ele><time>2026-05-02T11:46:59Z</time></trkpt><trkpt lat="45.80300637828192" lon="9.765035346251278"><ele>1008.1428571428571</ele><time>2026-05-02T11:47:01Z</time></trkpt><trkpt lat="45.80294188074021" lon="9.765077374686593"><ele>1011.4285714285713</ele><time>2026-05-02T11:47:03Z</time></trkpt><trkpt lat="45.80287429653094" lon="9.765112780424282"><ele>1014.7142857142856</ele><time>2026-05-02T11:47:05Z</time></trkpt><trkpt lat="45.80280882307444" lon="9.765146968358087"><ele>1017.9999999999999</ele><time>2026-05-02T11:47:07Z</time></trkpt><trkpt lat="45.80274585794544" lon="9.765192101286292"><ele>1014.4285714285713</ele><time>2026-05-02T11:47:09Z</time></trkpt><trkpt lat="45.8026936278141" lon="9.765258932604258"><ele>1010.8571428571429</ele><time>2026-05-02T11:47:11Z</time></trkpt><trkpt lat="45.8026452065327" lon="9.765335900476884"><ele>1007.2857142857142</ele><time>2026-05-02T11:47:13Z</time></trkpt><trkpt lat="45.80260889327153" lon="9.765419494578863"><ele>1003.7142857142857</ele><time>2026-05-02T11:47:15Z</time></trkpt><trkpt lat="45.80258939616808" lon="9.765516014115173"><ele>1000.1428571428571</ele><time>2026-05-02T11:47:17Z</time></trkpt><trkpt lat="45.802578733440484" lon="9.765610546678774"><ele>996.5714285714286</ele><time>2026-05-02T11:47:19Z</time></trkpt><trkpt lat="45.802576341459776" lon="9.765705951291922"><ele>993.0</ele><time>2026-05-02T11:47:21Z</time></trkpt><trkpt lat="45.80257535853796" lon="9.765803714643233"><ele>993.0</ele><time>2026-05-02T11:47:23Z</time></trkpt><trkpt lat="45.80257722981293" lon="9.765896730097564"><ele>993.0</ele><time>2026-05-02T11:47:25Z</time></trkpt><trkpt lat="45.80258742756232" lon="9.765992443071818"><ele>993.0</ele><time>2026-05-02T11:47:27Z</time></trkpt><trkpt lat="45.80260305074929" lon="9.766086435770296"><ele>993.0</ele><time>2026-05-02T11:47:29Z</time></trkpt><trkpt lat="45.80260309777898" lon="9.76618159509882"><ele>993.0</ele><time>2026-05-02T11:47:31Z</time></trkpt><trkpt lat="45.80258504165339" lon="9.766271291585422"><ele>993.0</ele><time>2026-05-02T11:47:33Z</time></trkpt><trkpt lat="45.80256022942929" lon="9.766358247974964"><ele>993.0</ele><time>2026-05-02T11:47:35Z</time></trkpt><trkpt lat="45.802523062387415" lon="9.76643421663943"><ele>995.5714285714286</ele><time>2026-05-02T11:47:37Z</time></trkpt><trkpt lat="45.80247918817795" lon="9.766552267854363"><ele>998.1428571428571</ele><time>2026-05-02T11:47:40Z</time></trkpt><trkpt lat="45.80245747208828" lon="9.766638932411306"><ele>1000.7142857142857</ele><time>2026-05-02T11:47:42Z</time></trkpt><trkpt lat="45.8024286238935" lon="9.766721607357011"><ele>1003.2857142857142</ele><time>2026-05-02T11:47:44Z</time></trkpt><trkpt lat="45.802392454137774" lon="9.76684419715614"><ele>1005.8571428571429</ele><time>2026-05-02T11:47:47Z</time></trkpt><trkpt lat="45.802371786650966" lon="9.766930450771037"><ele>1008.4285714285713</ele><time>2026-05-02T11:47:49Z</time></trkpt><trkpt lat="45.80234611507935" lon="9.76702173330428"><ele>1010.9999999999999</ele><time>2026-05-02T11:47:51Z</time></trkpt><trkpt lat="45.8023185031332" lon="9.767106870321113"><ele>1013.8571428571427</ele><time>2026-05-02T11:47:53Z</time></trkpt><trkpt lat="45.80229225203647" lon="9.767195762576188"><ele>1016.7142857142857</ele><time>2026-05-02T11:47:55Z</time></trkpt><trkpt lat="45.80227013184992" lon="9.76728749827208"><ele>1019.5714285714284</ele><time>2026-05-02T11:47:57Z</time></trkpt><trkpt lat="45.802248528409386" lon="9.767380798986892"><ele>1022.4285714285713</ele><time>2026-05-02T11:47:59Z</time></trkpt><trkpt lat="45.80223198163563" lon="9.767474021537064"><ele>1025.2857142857142</ele><time>2026-05-02T11:48:01Z</time></trkpt><trkpt lat="45.80221468341928" lon="9.7675656894521"><ele>1028.142857142857</ele><time>2026-05-02T11:48:03Z</time></trkpt><trkpt lat="45.802194740288485" lon="9.767655997611003"><ele>1031.0</ele><time>2026-05-02T11:48:05Z</time></trkpt><trkpt lat="45.802171836992954" lon="9.767783389927603"><ele>1034.0</ele><time>2026-05-02T11:48:08Z</time></trkpt><trkpt lat="45.80215095252637" lon="9.76790574457492"><ele>1037.0</ele><time>2026-05-02T11:48:11Z</time></trkpt><trkpt lat="45.80211359581316" lon="9.76802585237144"><ele>1040.0</ele><time>2026-05-02T11:48:14Z</time></trkpt><trkpt lat="45.802070849619845" lon="9.768092236095766"><ele>1043.0</ele><time>2026-05-02T11:48:16Z</time></trkpt><trkpt lat="45.80201002605409" lon="9.768128730325405"><ele>1046.0</ele><time>2026-05-02T11:48:18Z</time></trkpt><trkpt lat="45.801938443333846" lon="9.7681323581128"><ele>1049.0</ele><time>2026-05-02T11:48:20Z</time></trkpt><trkpt lat="45.80186554598082" lon="9.768116931352708"><ele>1045.4285714285713</ele><time>2026-05-02T11:48:22Z</time></trkpt><trkpt lat="45.801804308387275" lon="9.768089808210433"><ele>1041.857142857143</ele><time>2026-05-02T11:48:24Z</time></trkpt><trkpt lat="45.8017412728301" lon="9.768079201434496"><ele>1038.2857142857142</ele><time>2026-05-02T11:48:26Z</time></trkpt><trkpt lat="45.801652669854754" lon="9.768072204447355"><ele>1034.7142857142858</ele><time>2026-05-02T11:48:29Z</time></trkpt><trkpt lat="45.80158886033989" lon="9.768085824646292"><ele>1031.142857142857</ele><time>2026-05-02T11:48:31Z</time></trkpt><trkpt lat="45.80152502203412" lon="9.768114493148774"><ele>1027.5714285714284</ele><time>2026-05-02T11:48:33Z</time></trkpt><trkpt lat="45.80144920942087" lon="9.768185452419564"><ele>1024.0</ele><time>2026-05-02T11:48:36Z</time></trkpt><trkpt lat="45.80140841909701" lon="9.768277522732442"><ele>1023.9999999999999</ele><time>2026-05-02T11:48:38Z</time></trkpt><trkpt lat="45.801399672164905" lon="9.768412038562316"><ele>1024.0</ele><time>2026-05-02T11:48:40Z</time></trkpt><trkpt lat="45.801439237106614" lon="9.768548151267314"><ele>1024.0</ele><time>2026-05-02T11:48:42Z</time></trkpt><trkpt lat="45.801483867175094" lon="9.768684782092464"><ele>1024.0</ele><time>2026-05-02T11:48:44Z</time></trkpt><trkpt lat="45.801491350463735" lon="9.76878762195434"><ele>1023.9999999999999</ele><time>2026-05-02T11:48:46Z</time></trkpt><trkpt lat="45.80150043636791" lon="9.768893358349398"><ele>1024.0</ele><time>2026-05-02T11:48:49Z</time></trkpt><trkpt lat="45.80150570510709" lon="9.768987168981305"><ele>1024.4</ele><time>2026-05-02T11:48:51Z</time></trkpt><trkpt lat="45.80148044749613" lon="9.769107058464966"><ele>1024.8000000000002</ele><time>2026-05-02T11:48:53Z</time></trkpt><trkpt lat="45.80143760833058" lon="9.769235324762182"><ele>1025.1999999999998</ele><time>2026-05-02T11:48:55Z</time></trkpt><trkpt lat="45.801389815717066" lon="9.769375240164356"><ele>1025.6</ele><time>2026-05-02T11:48:57Z</time></trkpt><trkpt lat="45.80134983316527" lon="9.769529926757123"><ele>1026.0</ele><time>2026-05-02T11:48:59Z</time></trkpt><trkpt lat="45.8013018525232" lon="9.769682275352254"><ele>1027.3333333333333</ele><time>2026-05-02T11:49:01Z</time></trkpt><trkpt lat="45.80127345703231" lon="9.769820937205374"><ele>1028.6666666666667</ele><time>2026-05-02T11:49:03Z</time></trkpt><trkpt lat="45.80124336767195" lon="9.7699362557606"><ele>1030.0</ele><time>2026-05-02T11:49:05Z</time></trkpt><trkpt lat="45.80122005748401" lon="9.770037647967241"><ele>1031.3333333333335</ele><time>2026-05-02T11:49:07Z</time></trkpt><trkpt lat="45.80120191253133" lon="9.770133400420882"><ele>1032.6666666666667</ele><time>2026-05-02T11:49:09Z</time></trkpt><trkpt lat="45.801160845192676" lon="9.770215897217065"><ele>1034.0</ele><time>2026-05-02T11:49:11Z</time></trkpt><trkpt lat="45.801115293457485" lon="9.77029901499841"><ele>1035.8</ele><time>2026-05-02T11:49:13Z</time></trkpt><trkpt lat="45.8010713363315" lon="9.770395077537028"><ele>1037.6000000000001</ele><time>2026-05-02T11:49:15Z</time></trkpt><trkpt lat="45.801017852492585" lon="9.770476726359579"><ele>1039.4</ele><time>2026-05-02T11:49:17Z</time></trkpt><trkpt lat="45.80092156207013" lon="9.770523058931929"><ele>1041.2</ele><time>2026-05-02T11:49:19Z</time></trkpt><trkpt lat="45.800811599877086" lon="9.770571502302658"><ele>1043.0</ele><time>2026-05-02T11:49:21Z</time></trkpt><trkpt lat="45.80073395950439" lon="9.77064876657821"><ele>1041.0</ele><time>2026-05-02T11:49:23Z</time></trkpt><trkpt lat="45.800694258258275" lon="9.770745243955577"><ele>1039.0</ele><time>2026-05-02T11:49:25Z</time></trkpt><trkpt lat="45.80072113469994" lon="9.770840368222181"><ele>1037.0</ele><time>2026-05-02T11:49:28Z</time></trkpt><trkpt lat="45.800656820302045" lon="9.770922770369884"><ele>1035.0</ele><time>2026-05-02T11:49:32Z</time></trkpt><trkpt lat="45.80059466101505" lon="9.770993002760216"><ele>1033.0</ele><time>2026-05-02T11:49:34Z</time></trkpt><trkpt lat="45.800537490838494" lon="9.771063255678548"><ele>1031.0</ele><time>2026-05-02T11:49:36Z</time></trkpt><trkpt lat="45.800483465714066" lon="9.77113018941589"><ele>1031.0</ele><time>2026-05-02T11:49:38Z</time></trkpt><trkpt lat="45.80041782444722" lon="9.771168411999684"><ele>1031.0</ele><time>2026-05-02T11:49:40Z</time></trkpt><trkpt lat="45.800345995503996" lon="9.771236306993778"><ele>1031.0</ele><time>2026-05-02T11:49:42Z</time></trkpt><trkpt lat="45.80027504638857" lon="9.771341251259145"><ele>1031.0</ele><time>2026-05-02T11:49:44Z</time></trkpt><trkpt lat="45.800185171684426" lon="9.771448638198287"><ele>1031.0</ele><time>2026-05-02T11:49:46Z</time></trkpt><trkpt lat="45.80010226248408" lon="9.771553738104961"><ele>1032.1666666666667</ele><time>2026-05-02T11:49:48Z</time></trkpt><trkpt lat="45.800022407387516" lon="9.771638184952506"><ele>1033.3333333333335</ele><time>2026-05-02T11:49:50Z</time></trkpt><trkpt lat="45.79996217625783" lon="9.771671739164393"><ele>1034.5</ele><time>2026-05-02T11:49:52Z</time></trkpt><trkpt lat="45.7999030285735" lon="9.771709757337874"><ele>1035.6666666666667</ele><time>2026-05-02T11:49:54Z</time></trkpt><trkpt lat="45.799821626036035" lon="9.77174355028741"><ele>1036.8333333333333</ele><time>2026-05-02T11:49:56Z</time></trkpt><trkpt lat="45.79972860424307" lon="9.771806235125998"><ele>1038.0</ele><time>2026-05-02T11:49:58Z</time></trkpt><trkpt lat="45.79961173752551" lon="9.77187852477812"><ele>1038.0</ele><time>2026-05-02T11:50:00Z</time></trkpt><trkpt lat="45.79954874076028" lon="9.771920114066795"><ele>1038.0</ele><time>2026-05-02T11:50:01Z</time></trkpt><trkpt lat="45.79948107765877" lon="9.771964612845705"><ele>1038.0</ele><time>2026-05-02T11:50:02Z</time></trkpt><trkpt lat="45.79941507373574" lon="9.77201614285617"><ele>1038.0</ele><time>2026-05-02T11:50:03Z</time></trkpt><trkpt lat="45.79935726512812" lon="9.772083012617522"><ele>1038.0</ele><time>2026-05-02T11:50:05Z</time></trkpt><trkpt lat="45.79925683122805" lon="9.772127629551392"><ele>1038.0</ele><time>2026-05-02T11:50:09Z</time></trkpt><trkpt lat="45.79915282302379" lon="9.772158803113783"><ele>1034.8333333333333</ele><time>2026-05-02T11:50:11Z</time></trkpt><trkpt lat="45.79903176944148" lon="9.772195754585209"><ele>1031.6666666666667</ele><time>2026-05-02T11:50:13Z</time></trkpt><trkpt lat="45.79896975011312" lon="9.772217838504663"><ele>1028.5</ele><time>2026-05-02T11:50:14Z</time></trkpt><trkpt lat="45.798906094345995" lon="9.77223829497161"><ele>1025.3333333333335</ele><time>2026-05-02T11:50:15Z</time></trkpt><trkpt lat="45.79884222932295" lon="9.772264738734002"><ele>1022.1666666666667</ele><time>2026-05-02T11:50:16Z</time></trkpt><trkpt lat="45.798777521658444" lon="9.772293933417085"><ele>1019.0</ele><time>2026-05-02T11:50:17Z</time></trkpt><trkpt lat="45.798712088298565" lon="9.772325014407901"><ele>1019.0000000000001</ele><time>2026-05-02T11:50:18Z</time></trkpt><trkpt lat="45.79864557100718" lon="9.772356808271214"><ele>1019.0</ele><time>2026-05-02T11:50:19Z</time></trkpt><trkpt lat="45.79857955008584" lon="9.772392840190895"><ele>1019.0</ele><time>2026-05-02T11:50:20Z</time></trkpt><trkpt lat="45.79851751355459" lon="9.772439724844839"><ele>1019.0</ele><time>2026-05-02T11:50:21Z</time></trkpt><trkpt lat="45.798410599493266" lon="9.772521796400564"><ele>1019.0000000000001</ele><time>2026-05-02T11:50:23Z</time></trkpt><trkpt lat="45.79834910054759" lon="9.77255286999483"><ele>1019.0</ele><time>2026-05-02T11:50:24Z</time></trkpt><trkpt lat="45.798282248836394" lon="9.772581330751745"><ele>1016.4285714285716</ele><time>2026-05-02T11:50:25Z</time></trkpt><trkpt lat="45.79821096829885" lon="9.77260847985888"><ele>1013.8571428571429</ele><time>2026-05-02T11:50:26Z</time></trkpt><trkpt lat="45.79813868675394" lon="9.772629259898004"><ele>1011.2857142857143</ele><time>2026-05-02T11:50:27Z</time></trkpt><trkpt lat="45.79806483916045" lon="9.772642401481228"><ele>1008.7142857142858</ele><time>2026-05-02T11:50:28Z</time></trkpt><trkpt lat="45.797991415960276" lon="9.772654830305907"><ele>1006.1428571428571</ele><time>2026-05-02T11:50:29Z</time></trkpt><trkpt lat="45.7979188174073" lon="9.772666757599453"><ele>1003.5714285714286</ele><time>2026-05-02T11:50:30Z</time></trkpt><trkpt lat="45.79784744627191" lon="9.772685345321168"><ele>1001.0</ele><time>2026-05-02T11:50:31Z</time></trkpt><trkpt lat="45.79777670211164" lon="9.772697293012238"><ele>1001.1666666666667</ele><time>2026-05-02T11:50:32Z</time></trkpt><trkpt lat="45.79770525161031" lon="9.772697962380795"><ele>1001.3333333333334</ele><time>2026-05-02T11:50:33Z</time></trkpt><trkpt lat="45.797637545164285" lon="9.772693413053986"><ele>1001.5</ele><time>2026-05-02T11:50:34Z</time></trkpt><trkpt lat="45.79757171470827" lon="9.77268944250474"><ele>1001.6666666666667</ele><time>2026-05-02T11:50:35Z</time></trkpt><trkpt lat="45.79745181569188" lon="9.772670167126698"><ele>1001.8333333333334</ele><time>2026-05-02T11:50:37Z</time></trkpt><trkpt lat="45.79733914084039" lon="9.772646580502446"><ele>1002.0</ele><time>2026-05-02T11:50:39Z</time></trkpt><trkpt lat="45.79723215960915" lon="9.772618729307975"><ele>1002.0</ele><time>2026-05-02T11:50:41Z</time></trkpt><trkpt lat="45.79712994350756" lon="9.772572851864632"><ele>1002.0</ele><time>2026-05-02T11:50:43Z</time></trkpt><trkpt lat="45.797031191818945" lon="9.772527224997871"><ele>1002.0</ele><time>2026-05-02T11:50:45Z</time></trkpt><trkpt lat="45.79693711150536" lon="9.772479544159486"><ele>1002.0</ele><time>2026-05-02T11:50:47Z</time></trkpt><trkpt lat="45.79685149373686" lon="9.772416840290152"><ele>1002.0</ele><time>2026-05-02T11:50:49Z</time></trkpt><trkpt lat="45.79677092551152" lon="9.77234545668293"><ele>1004.4000000000001</ele><time>2026-05-02T11:50:51Z</time></trkpt><trkpt lat="45.79669008781601" lon="9.772279743052644"><ele>1006.8000000000001</ele><time>2026-05-02T11:50:53Z</time></trkpt><trkpt lat="45.79661065380492" lon="9.772210846678918"><ele>1009.2</ele><time>2026-05-02T11:50:55Z</time></trkpt><trkpt lat="45.796527753839484" lon="9.772145714306825"><ele>1011.6</ele><time>2026-05-02T11:50:57Z</time></trkpt><trkpt lat="45.796449200056024" lon="9.772078841222289"><ele>1014.0</ele><time>2026-05-02T11:50:59Z</time></trkpt><trkpt lat="45.79637138782975" lon="9.772019993526843"><ele>1014.0</ele><time>2026-05-02T11:51:01Z</time></trkpt><trkpt lat="45.796292305605675" lon="9.771969994102522"><ele>1014.0</ele><time>2026-05-02T11:51:03Z</time></trkpt><trkpt lat="45.796207020041635" lon="9.771965063644464"><ele>1014.0</ele><time>2026-05-02T11:51:05Z</time></trkpt><trkpt lat="45.79613029810844" lon="9.77198438816998"><ele>1014.0</ele><time>2026-05-02T11:51:07Z</time></trkpt><trkpt lat="45.796062398252765" lon="9.771974908796977"><ele>1014.0</ele><time>2026-05-02T11:51:10Z</time></trkpt><trkpt lat="45.795988169311784" lon="9.771970453599605"><ele>1014.0</ele><time>2026-05-02T11:51:14Z</time></trkpt><trkpt lat="45.79593949332015" lon="9.771884836875051"><ele>1014.0</ele><time>2026-05-02T11:51:17Z</time></trkpt><trkpt lat="45.79589876736297" lon="9.771783917759917"><ele>1014.0</ele><time>2026-05-02T11:51:21Z</time></trkpt><trkpt lat="45.795921034330476" lon="9.77188846325331"><ele>1014.0</ele><time>2026-05-02T11:51:27Z</time></trkpt><trkpt lat="45.795966967243466" lon="9.771957493737322"><ele>1014.0</ele><time>2026-05-02T11:51:29Z</time></trkpt><trkpt lat="45.79602846571909" lon="9.772016954109542"><ele>1014.0</ele><time>2026-05-02T11:51:32Z</time></trkpt><trkpt lat="45.796122551865245" lon="9.77202837918601"><ele>1014.0</ele><time>2026-05-02T11:51:35Z</time></trkpt><trkpt lat="45.79617958481121" lon="9.77198234939078"><ele>1013.8333333333334</ele><time>2026-05-02T11:51:37Z</time></trkpt><trkpt lat="45.79616030643736" lon="9.771844372693783"><ele>1013.6666666666667</ele><time>2026-05-02T11:51:40Z</time></trkpt><trkpt lat="45.79608405981262" lon="9.771779128294193"><ele>1013.5</ele><time>2026-05-02T11:51:42Z</time></trkpt><trkpt lat="45.7960105636476" lon="9.771724268895797"><ele>1013.3333333333334</ele><time>2026-05-02T11:51:44Z</time></trkpt><trkpt lat="45.79594722491836" lon="9.771645434857552"><ele>1013.1666666666667</ele><time>2026-05-02T11:51:46Z</time></trkpt><trkpt lat="45.795881013393014" lon="9.771568023069799"><ele>1013.0</ele><time>2026-05-02T11:51:48Z</time></trkpt><trkpt lat="45.79582059638511" lon="9.771490285187122"><ele>1013.0000000000001</ele><time>2026-05-02T11:51:50Z</time></trkpt><trkpt lat="45.79575619268821" lon="9.77141516101685"><ele>1013.0</ele><time>2026-05-02T11:51:52Z</time></trkpt><trkpt lat="45.79569447218365" lon="9.771338515021728"><ele>1013.0</ele><time>2026-05-02T11:51:54Z</time></trkpt><trkpt lat="45.79563470907737" lon="9.771268730036086"><ele>1013.0</ele><time>2026-05-02T11:51:56Z</time></trkpt><trkpt lat="45.795581791064286" lon="9.771204291265294"><ele>1013.0000000000001</ele><time>2026-05-02T11:51:58Z</time></trkpt><trkpt lat="45.79552775540223" lon="9.771141652453824"><ele>1013.0</ele><time>2026-05-02T11:52:00Z</time></trkpt><trkpt lat="45.795465277986615" lon="9.771047666297873"><ele>1010.6666666666667</ele><time>2026-05-02T11:52:03Z</time></trkpt><trkpt lat="45.79541172997326" lon="9.770988467186559"><ele>1008.3333333333334</ele><time>2026-05-02T11:52:05Z</time></trkpt><trkpt lat="45.79533751563403" lon="9.770918652353325"><ele>1006.0</ele><time>2026-05-02T11:52:08Z</time></trkpt><trkpt lat="45.79527275512641" lon="9.770948172135096"><ele>1003.6666666666667</ele><time>2026-05-02T11:52:11Z</time></trkpt><trkpt lat="45.79535037432217" lon="9.770985488255844"><ele>1001.3333333333334</ele><time>2026-05-02T11:52:25Z</time></trkpt><trkpt lat="45.795331423507115" lon="9.770880421911059"><ele>999.0</ele><time>2026-05-02T11:52:30Z</time></trkpt><trkpt lat="45.79527106305314" lon="9.770829853461668"><ele>999.0</ele><time>2026-05-02T11:52:32Z</time></trkpt><trkpt lat="45.7952125770541" lon="9.770769165030188"><ele>999.0</ele><time>2026-05-02T11:52:34Z</time></trkpt><trkpt lat="45.795162660660885" lon="9.770705826185543"><ele>999.0</ele><time>2026-05-02T11:52:36Z</time></trkpt><trkpt lat="45.7951128179676" lon="9.770637917494422"><ele>999.0</ele><time>2026-05-02T11:52:38Z</time></trkpt><trkpt lat="45.795053706150426" lon="9.77054368652036"><ele>999.0</ele><time>2026-05-02T11:52:41Z</time></trkpt><trkpt lat="45.79499545979855" lon="9.7704665313161"><ele>999.0</ele><time>2026-05-02T11:52:44Z</time></trkpt><trkpt lat="45.7949034172204" lon="9.770433403583521"><ele>1000.8333333333334</ele><time>2026-05-02T11:52:47Z</time></trkpt><trkpt lat="45.79481987510589" lon="9.770396371046267"><ele>1002.6666666666667</ele><time>2026-05-02T11:52:50Z</time></trkpt><trkpt lat="45.79472998878246" lon="9.77035766127573"><ele>1004.5</ele><time>2026-05-02T11:52:53Z</time></trkpt><trkpt lat="45.794647411166984" lon="9.770321523605222"><ele>1006.3333333333334</ele><time>2026-05-02T11:52:56Z</time></trkpt><trkpt lat="45.79458628077076" lon="9.7702841728775"><ele>1008.1666666666667</ele><time>2026-05-02T11:52:59Z</time></trkpt><trkpt lat="45.79451128646814" lon="9.770187431637144"><ele>1010.0</ele><time>2026-05-02T11:53:02Z</time></trkpt><trkpt lat="45.79445832796285" lon="9.77009626686285"><ele>1010.0000000000001</ele><time>2026-05-02T11:53:04Z</time></trkpt><trkpt lat="45.79441059189566" lon="9.77003390259586"><ele>1010.0</ele><time>2026-05-02T11:53:06Z</time></trkpt><trkpt lat="45.79436811420492" lon="9.769948520282163"><ele>1010.0</ele><time>2026-05-02T11:53:09Z</time></trkpt><trkpt lat="45.794328625524614" lon="9.769875990495581"><ele>1010.0</ele><time>2026-05-02T11:53:11Z</time></trkpt><trkpt lat="45.794286335238155" lon="9.769777209574505"><ele>1010.0000000000001</ele><time>2026-05-02T11:53:14Z</time></trkpt><trkpt lat="45.79424526513929" lon="9.769679729163954"><ele>1010.0</ele><time>2026-05-02T11:53:17Z</time></trkpt><trkpt lat="45.79421448575181" lon="9.769558855913367"><ele>1010.6666666666667</ele><time>2026-05-02T11:53:20Z</time></trkpt><trkpt lat="45.79416755306975" lon="9.76946049067787"><ele>1011.3333333333334</ele><time>2026-05-02T11:53:22Z</time></trkpt><trkpt lat="45.79411642101498" lon="9.769359458781523"><ele>1012.0</ele><time>2026-05-02T11:53:24Z</time></trkpt><trkpt lat="45.79406206261407" lon="9.769260417673053"><ele>1012.6666666666667</ele><time>2026-05-02T11:53:26Z</time></trkpt><trkpt lat="45.79399445708837" lon="9.76917800816504"><ele>1013.3333333333334</ele><time>2026-05-02T11:53:28Z</time></trkpt><trkpt lat="45.79392856653269" lon="9.76907905050235"><ele>1014.0</ele><time>2026-05-02T11:53:30Z</time></trkpt><trkpt lat="45.79385614299703" lon="9.768965980924333"><ele>1014.0</ele><time>2026-05-02T11:53:32Z</time></trkpt><trkpt lat="45.793772404143866" lon="9.768844847288866"><ele>1014.0000000000001</ele><time>2026-05-02T11:53:34Z</time></trkpt><trkpt lat="45.7936916253192" lon="9.768699403415539"><ele>1014.0000000000001</ele><time>2026-05-02T11:53:36Z</time></trkpt><trkpt lat="45.79364862208572" lon="9.768620953631006"><ele>1014.0</ele><time>2026-05-02T11:53:37Z</time></trkpt><trkpt lat="45.79360428089526" lon="9.76853328410964"><ele>1014.0</ele><time>2026-05-02T11:53:38Z</time></trkpt><trkpt lat="45.79355863774008" lon="9.768444862515375"><ele>1013.8333333333334</ele><time>2026-05-02T11:53:39Z</time></trkpt><trkpt lat="45.793509485250304" lon="9.768354883931885"><ele>1013.6666666666667</ele><time>2026-05-02T11:53:40Z</time></trkpt><trkpt lat="45.793460309399464" lon="9.76826254047113"><ele>1013.5</ele><time>2026-05-02T11:53:41Z</time></trkpt><trkpt lat="45.793416986730335" lon="9.768170350455598"><ele>1013.3333333333334</ele><time>2026-05-02T11:53:42Z</time></trkpt><trkpt lat="45.79337153889587" lon="9.768091929005982"><ele>1013.1666666666667</ele><time>2026-05-02T11:53:43Z</time></trkpt><trkpt lat="45.7933302090561" lon="9.768009920251"><ele>1013.0</ele><time>2026-05-02T11:53:44Z</time></trkpt><trkpt lat="45.793288282678596" lon="9.767928970802126"><ele>1013.0000000000001</ele><time>2026-05-02T11:53:45Z</time></trkpt><trkpt lat="45.79324617435044" lon="9.76783901867744"><ele>1013.0</ele><time>2026-05-02T11:53:46Z</time></trkpt><trkpt lat="45.79320501651402" lon="9.76775024038246"><ele>1013.0</ele><time>2026-05-02T11:53:47Z</time></trkpt><trkpt lat="45.793163174124196" lon="9.76765892327212"><ele>1013.0</ele><time>2026-05-02T11:53:48Z</time></trkpt><trkpt lat="45.79311599026903" lon="9.767571500511211"><ele>1013.0000000000001</ele><time>2026-05-02T11:53:49Z</time></trkpt><trkpt lat="45.79306657483851" lon="9.767488108460112"><ele>1013.0</ele><time>2026-05-02T11:53:50Z</time></trkpt><trkpt lat="45.793013240821324" lon="9.76740668932644"><ele>1013.1428571428572</ele><time>2026-05-02T11:53:51Z</time></trkpt><trkpt lat="45.792956040806914" lon="9.767337053017675"><ele>1013.2857142857144</ele><time>2026-05-02T11:53:52Z</time></trkpt><trkpt lat="45.79290210820348" lon="9.767267992964113"><ele>1013.4285714285714</ele><time>2026-05-02T11:53:53Z</time></trkpt><trkpt lat="45.792848508441914" lon="9.767199647669651"><ele>1013.5714285714287</ele><time>2026-05-02T11:53:54Z</time></trkpt><trkpt lat="45.792796945302086" lon="9.76713718123999"><ele>1013.7142857142858</ele><time>2026-05-02T11:53:55Z</time></trkpt><trkpt lat="45.79274737501299" lon="9.767077475792188"><ele>1013.8571428571429</ele><time>2026-05-02T11:53:56Z</time></trkpt><trkpt lat="45.792696169147185" lon="9.76701893346949"><ele>1014.0</ele><time>2026-05-02T11:53:57Z</time></trkpt><trkpt lat="45.792608219603665" lon="9.76690994489869"><ele>1013.8000000000001</ele><time>2026-05-02T11:53:59Z</time></trkpt><trkpt lat="45.7925377405783" lon="9.766790505678067"><ele>1013.6000000000001</ele><time>2026-05-02T11:54:01Z</time></trkpt><trkpt lat="45.79246746833688" lon="9.766674845083896"><ele>1013.4</ele><time>2026-05-02T11:54:03Z</time></trkpt><trkpt lat="45.79240481958391" lon="9.766556239633351"><ele>1013.2</ele><time>2026-05-02T11:54:05Z</time></trkpt><trkpt lat="45.79234842897474" lon="9.766430878667327"><ele>1013.0</ele><time>2026-05-02T11:54:07Z</time></trkpt><trkpt lat="45.79229717891814" lon="9.766296815989186"><ele>1013.0</ele><time>2026-05-02T11:54:09Z</time></trkpt><trkpt lat="45.79224525430711" lon="9.76614995212985"><ele>1013.0</ele><time>2026-05-02T11:54:11Z</time></trkpt><trkpt lat="45.792188049165134" lon="9.766000205784847"><ele>1013.0</ele><time>2026-05-02T11:54:13Z</time></trkpt><trkpt lat="45.79211394542706" lon="9.765861976497195"><ele>1013.0</ele><time>2026-05-02T11:54:15Z</time></trkpt><trkpt lat="45.79203272354181" lon="9.76573493296855"><ele>1013.2</ele><time>2026-05-02T11:54:17Z</time></trkpt><trkpt lat="45.791989177657214" lon="9.765665887095714"><ele>1013.4</ele><time>2026-05-02T11:54:18Z</time></trkpt><trkpt lat="45.791901403374204" lon="9.76553832889506"><ele>1013.6000000000001</ele><time>2026-05-02T11:54:20Z</time></trkpt><trkpt lat="45.79180953847597" lon="9.765419030223402"><ele>1013.8000000000001</ele><time>2026-05-02T11:54:22Z</time></trkpt><trkpt lat="45.79172168217898" lon="9.765292494139043"><ele>1014.0</ele><time>2026-05-02T11:54:24Z</time></trkpt><trkpt lat="45.791627090465866" lon="9.765180796568671"><ele>1014.25</ele><time>2026-05-02T11:54:26Z</time></trkpt><trkpt lat="45.79153713186064" lon="9.765071248729857"><ele>1014.5</ele><time>2026-05-02T11:54:28Z</time></trkpt><trkpt lat="45.79145066771392" lon="9.764973277356695"><ele>1014.75</ele><time>2026-05-02T11:54:30Z</time></trkpt><trkpt lat="45.791363286947444" lon="9.764866285201762"><ele>1015.0</ele><time>2026-05-02T11:54:32Z</time></trkpt><trkpt lat="45.79127599729301" lon="9.76475870570735"><ele>1015.0</ele><time>2026-05-02T11:54:34Z</time></trkpt><trkpt lat="45.791186823079016" lon="9.76464701995433"><ele>1015.0</ele><time>2026-05-02T11:54:36Z</time></trkpt><trkpt lat="45.79109942590767" lon="9.764541544438062"><ele>1015.0</ele><time>2026-05-02T11:54:38Z</time></trkpt><trkpt lat="45.79101647438041" lon="9.764436782486836"><ele>1015.0</ele><time>2026-05-02T11:54:40Z</time></trkpt><trkpt lat="45.79093168741901" lon="9.764339615457946"><ele>1015.2</ele><time>2026-05-02T11:54:42Z</time></trkpt><trkpt lat="45.79085279983541" lon="9.764244986640014"><ele>1015.4</ele><time>2026-05-02T11:54:44Z</time></trkpt><trkpt lat="45.790774625934006" lon="9.76414411862952"><ele>1015.5999999999999</ele><time>2026-05-02T11:54:46Z</time></trkpt><trkpt lat="45.79069119325617" lon="9.764047936657423"><ele>1015.8</ele><time>2026-05-02T11:54:48Z</time></trkpt><trkpt lat="45.7906021880459" lon="9.763956668527214"><ele>1016.0</ele><time>2026-05-02T11:54:50Z</time></trkpt><trkpt lat="45.79051907275123" lon="9.763840634105726"><ele>1016.0</ele><time>2026-05-02T11:54:52Z</time></trkpt><trkpt lat="45.79043367411757" lon="9.763716102730948"><ele>1016.0</ele><time>2026-05-02T11:54:54Z</time></trkpt><trkpt lat="45.79034998254261" lon="9.763582404282364"><ele>1016.0</ele><time>2026-05-02T11:54:56Z</time></trkpt><trkpt lat="45.79028116983063" lon="9.763435047263938"><ele>1016.0</ele><time>2026-05-02T11:54:58Z</time></trkpt><trkpt lat="45.79022545773942" lon="9.763283393647365"><ele>1015.4</ele><time>2026-05-02T11:55:00Z</time></trkpt><trkpt lat="45.790173567711996" lon="9.763136858952365"><ele>1014.8</ele><time>2026-05-02T11:55:02Z</time></trkpt><trkpt lat="45.790123132952544" lon="9.762995152869832"><ele>1014.1999999999999</ele><time>2026-05-02T11:55:04Z</time></trkpt><trkpt lat="45.7900743213441" lon="9.762858836508055"><ele>1013.5999999999999</ele><time>2026-05-02T11:55:06Z</time></trkpt><trkpt lat="45.79002003503016" lon="9.762740602725524"><ele>1013.0</ele><time>2026-05-02T11:55:08Z</time></trkpt><trkpt lat="45.78995823825875" lon="9.762637178746239"><ele>1013.0</ele><time>2026-05-02T11:55:10Z</time></trkpt><trkpt lat="45.789886879288176" lon="9.762528381887336"><ele>1013.0</ele><time>2026-05-02T11:55:12Z</time></trkpt><trkpt lat="45.78981486113536" lon="9.76241671035259"><ele>1013.0</ele><time>2026-05-02T11:55:14Z</time></trkpt><trkpt lat="45.789718977757474" lon="9.762288709702347"><ele>1013.0</ele><time>2026-05-02T11:55:16Z</time></trkpt><trkpt lat="45.7896671999083" lon="9.762219973028778"><ele>1013.0</ele><time>2026-05-02T11:55:17Z</time></trkpt><trkpt lat="45.78961235309832" lon="9.762163438470054"><ele>1013.0</ele><time>2026-05-02T11:55:18Z</time></trkpt><trkpt lat="45.78955342282804" lon="9.762114320340585"><ele>1013.0000000000001</ele><time>2026-05-02T11:55:19Z</time></trkpt><trkpt lat="45.78948764996311" lon="9.762078753644301"><ele>1013.0</ele><time>2026-05-02T11:55:20Z</time></trkpt><trkpt lat="45.789422046665" lon="9.762041370331298"><ele>1013.0</ele><time>2026-05-02T11:55:21Z</time></trkpt><trkpt lat="45.789355679208434" lon="9.762001416130119"><ele>1013.0000000000001</ele><time>2026-05-02T11:55:22Z</time></trkpt><trkpt lat="45.789288848866" lon="9.76195583472621"><ele>1013.0</ele><time>2026-05-02T11:55:23Z</time></trkpt><trkpt lat="45.789223778299586" lon="9.761897534128309"><ele>1013.0</ele><time>2026-05-02T11:55:24Z</time></trkpt><trkpt lat="45.78916280399217" lon="9.761821619505827"><ele>1011.5999999999999</ele><time>2026-05-02T11:55:25Z</time></trkpt><trkpt lat="45.789105706210655" lon="9.761725456546333"><ele>1010.1999999999999</ele><time>2026-05-02T11:55:26Z</time></trkpt><trkpt lat="45.78906475907232" lon="9.761604274242464"><ele>1008.8</ele><time>2026-05-02T11:55:27Z</time></trkpt><trkpt lat="45.78902695525063" lon="9.761477611458549"><ele>1007.4</ele><time>2026-05-02T11:55:28Z</time></trkpt><trkpt lat="45.7889753486563" lon="9.761361413319197"><ele>1006.0</ele><time>2026-05-02T11:55:29Z</time></trkpt><trkpt lat="45.78890908293686" lon="9.761250895624187"><ele>1006.0</ele><time>2026-05-02T11:55:30Z</time></trkpt><trkpt lat="45.78884369792926" lon="9.761136604493258"><ele>1005.9999999999999</ele><time>2026-05-02T11:55:31Z</time></trkpt><trkpt lat="45.78877379244129" lon="9.76102623978628"><ele>1005.9999999999999</ele><time>2026-05-02T11:55:32Z</time></trkpt><trkpt lat="45.788689566066935" lon="9.7609301565388"><ele>1006.0</ele><time>2026-05-02T11:55:33Z</time></trkpt><trkpt lat="45.78859140649109" lon="9.76084601834272"><ele>1006.0</ele><time>2026-05-02T11:55:34Z</time></trkpt><trkpt lat="45.78848192097003" lon="9.760771430714486"><ele>1000.5</ele><time>2026-05-02T11:55:35Z</time></trkpt><trkpt lat="45.78836598686027" lon="9.760698577458601"><ele>995.0</ele><time>2026-05-02T11:55:36Z</time></trkpt><trkpt lat="45.788245151907255" lon="9.760624249496777"><ele>989.5</ele><time>2026-05-02T11:55:37Z</time></trkpt><trkpt lat="45.78812096525022" lon="9.760545232705724"><ele>984.0</ele><time>2026-05-02T11:55:38Z</time></trkpt><trkpt lat="45.78799428173439" lon="9.760460930760694"><ele>984.0</ele><time>2026-05-02T11:55:39Z</time></trkpt><trkpt lat="45.78787294233051" lon="9.760378965488476"><ele>984.0</ele><time>2026-05-02T11:55:40Z</time></trkpt><trkpt lat="45.787768832259744" lon="9.760292171200838"><ele>984.0</ele><time>2026-05-02T11:55:41Z</time></trkpt><trkpt lat="45.78767618380694" lon="9.760203859438898"><ele>984.0</ele><time>2026-05-02T11:55:42Z</time></trkpt><trkpt lat="45.787595360555514" lon="9.760093496870105"><ele>980.5</ele><time>2026-05-02T11:55:43Z</time></trkpt><trkpt lat="45.787525089942704" lon="9.759987800945025"><ele>977.0</ele><time>2026-05-02T11:55:44Z</time></trkpt><trkpt lat="45.78746093231681" lon="9.759850877405967"><ele>973.5</ele><time>2026-05-02T11:55:45Z</time></trkpt><trkpt lat="45.787402881050305" lon="9.759702284278488"><ele>970.0</ele><time>2026-05-02T11:55:46Z</time></trkpt><trkpt lat="45.787357054553574" lon="9.759543023337924"><ele>969.9999999999999</ele><time>2026-05-02T11:55:47Z</time></trkpt><trkpt lat="45.787322603375245" lon="9.75940483974571"><ele>970.0</ele><time>2026-05-02T11:55:48Z</time></trkpt><trkpt lat="45.78729544705385" lon="9.759294812218451"><ele>970.0</ele><time>2026-05-02T11:55:49Z</time></trkpt><trkpt lat="45.787264547430965" lon="9.759201501975951"><ele>970.0</ele><time>2026-05-02T11:55:50Z</time></trkpt><trkpt lat="45.78721598408792" lon="9.759103996111024"><ele>969.9999999999999</ele><time>2026-05-02T11:55:51Z</time></trkpt><trkpt lat="45.78715794402154" lon="9.759002289089407"><ele>970.0</ele><time>2026-05-02T11:55:52Z</time></trkpt><trkpt lat="45.7870983562081" lon="9.758891439816663"><ele>971.4</ele><time>2026-05-02T11:55:53Z</time></trkpt><trkpt lat="45.78703700661814" lon="9.758769076219457"><ele>972.8</ele><time>2026-05-02T11:55:54Z</time></trkpt><trkpt lat="45.78697365986345" lon="9.758644025389227"><ele>974.2</ele><time>2026-05-02T11:55:55Z</time></trkpt><trkpt lat="45.78690863167319" lon="9.758523798508607"><ele>975.6</ele><time>2026-05-02T11:55:56Z</time></trkpt><trkpt lat="45.78684334903221" lon="9.758414421562636"><ele>977.0</ele><time>2026-05-02T11:55:57Z</time></trkpt><trkpt lat="45.786786716445725" lon="9.758313769395548"><ele>973.0000000000001</ele><time>2026-05-02T11:55:58Z</time></trkpt><trkpt lat="45.78673734293029" lon="9.758223093469175"><ele>969.0</ele><time>2026-05-02T11:55:59Z</time></trkpt><trkpt lat="45.78669049145393" lon="9.758144557863258"><ele>965.0</ele><time>2026-05-02T11:56:00Z</time></trkpt><trkpt lat="45.78664803209469" lon="9.758077098821218"><ele>961.0</ele><time>2026-05-02T11:56:01Z</time></trkpt><trkpt lat="45.786571567421625" lon="9.757952102607385"><ele>957.0000000000001</ele><time>2026-05-02T11:56:03Z</time></trkpt><trkpt lat="45.78651054524564" lon="9.757853703109767"><ele>953.0</ele><time>2026-05-02T11:56:05Z</time></trkpt><trkpt lat="45.78646397382916" lon="9.757766023920642"><ele>953.0</ele><time>2026-05-02T11:56:07Z</time></trkpt><trkpt lat="45.78640070324158" lon="9.757737630393274"><ele>953.0</ele><time>2026-05-02T11:56:10Z</time></trkpt><trkpt lat="45.786375228577825" lon="9.757821140549066"><ele>953.0</ele><time>2026-05-02T11:56:12Z</time></trkpt><trkpt lat="45.78633792625036" lon="9.75792815130824"><ele>953.0</ele><time>2026-05-02T11:56:15Z</time></trkpt><trkpt lat="45.78630608274857" lon="9.758033345155699"><ele>953.0</ele><time>2026-05-02T11:56:18Z</time></trkpt><trkpt lat="45.7862401827339" lon="9.75804121549562"><ele>953.0</ele><time>2026-05-02T11:56:21Z</time></trkpt><trkpt lat="45.786258660763885" lon="9.757954599159863"><ele>953.0</ele><time>2026-05-02T11:56:24Z</time></trkpt><trkpt lat="45.786338474459946" lon="9.757975983496177"><ele>953.0</ele><time>2026-05-02T11:56:27Z</time></trkpt><trkpt lat="45.78639373923899" lon="9.75805984805761"><ele>953.0</ele><time>2026-05-02T11:56:31Z</time></trkpt><trkpt lat="45.78644213552383" lon="9.758125550590101"><ele>953.0</ele><time>2026-05-02T11:56:34Z</time></trkpt><trkpt lat="45.786497861220035" lon="9.75819470524147"><ele>953.0</ele><time>2026-05-02T11:56:38Z</time></trkpt><trkpt lat="45.786505910268545" lon="9.75807992534213"><ele>953.0</ele><time>2026-05-02T11:56:41Z</time></trkpt><trkpt lat="45.78646577324326" lon="9.757993484941034"><ele>953.0</ele><time>2026-05-02T11:56:43Z</time></trkpt><trkpt lat="45.78644500202578" lon="9.75789622806477"><ele>953.0</ele><time>2026-05-02T11:56:45Z</time></trkpt><trkpt lat="45.78642525288259" lon="9.75778673363228"><ele>953.0000000000001</ele><time>2026-05-02T11:56:48Z</time></trkpt><trkpt lat="45.78638398682746" lon="9.757716662223467"><ele>953.0</ele><time>2026-05-02T11:56:50Z</time></trkpt><trkpt lat="45.78633363635639" lon="9.757638618615351"><ele>953.0</ele><time>2026-05-02T11:56:52Z</time></trkpt><trkpt lat="45.786279932479175" lon="9.757551600573496"><ele>953.0</ele><time>2026-05-02T11:56:54Z</time></trkpt><trkpt lat="45.786239038616884" lon="9.757469786290567"><ele>953.0000000000001</ele><time>2026-05-02T11:56:56Z</time></trkpt><trkpt lat="45.78617961385889" lon="9.757392697781983"><ele>953.0</ele><time>2026-05-02T11:56:58Z</time></trkpt><trkpt lat="45.786106969899976" lon="9.757312298387138"><ele>953.3333333333334</ele><time>2026-05-02T11:57:00Z</time></trkpt><trkpt lat="45.78603416460272" lon="9.757209438365194"><ele>953.6666666666667</ele><time>2026-05-02T11:57:02Z</time></trkpt><trkpt lat="45.785964619734" lon="9.757123770048493"><ele>954.0</ele><time>2026-05-02T11:57:04Z</time></trkpt><trkpt lat="45.785916121181835" lon="9.757057876115223"><ele>954.3333333333333</ele><time>2026-05-02T11:57:06Z</time></trkpt><trkpt lat="45.78586118268951" lon="9.756956655238083"><ele>954.6666666666666</ele><time>2026-05-02T11:57:08Z</time></trkpt><trkpt lat="45.78579817934605" lon="9.756851073031266"><ele>955.0</ele><time>2026-05-02T11:57:10Z</time></trkpt><trkpt lat="45.78571551439538" lon="9.756721600753789"><ele>953.6666666666666</ele><time>2026-05-02T11:57:12Z</time></trkpt><trkpt lat="45.78567081476098" lon="9.756655188813777"><ele>952.3333333333333</ele><time>2026-05-02T11:57:13Z</time></trkpt><trkpt lat="45.785591514873886" lon="9.756567229106563"><ele>951.0</ele><time>2026-05-02T11:57:15Z</time></trkpt><trkpt lat="45.785520547255125" lon="9.75650211206915"><ele>949.6666666666667</ele><time>2026-05-02T11:57:17Z</time></trkpt><trkpt lat="45.785443084842484" lon="9.756440025214028"><ele>948.3333333333334</ele><time>2026-05-02T11:57:19Z</time></trkpt><trkpt lat="45.78535359117285" lon="9.756370634616644"><ele>947.0</ele><time>2026-05-02T11:57:21Z</time></trkpt><trkpt lat="45.78525375239886" lon="9.756328859149914"><ele>946.4000000000001</ele><time>2026-05-02T11:57:23Z</time></trkpt><trkpt lat="45.78515305808254" lon="9.756302351724312"><ele>945.8000000000001</ele><time>2026-05-02T11:57:25Z</time></trkpt><trkpt lat="45.78505212915123" lon="9.75629918669531"><ele>945.2</ele><time>2026-05-02T11:57:27Z</time></trkpt><trkpt lat="45.78494648911924" lon="9.756271178276945"><ele>944.6</ele><time>2026-05-02T11:57:29Z</time></trkpt><trkpt lat="45.784839638222834" lon="9.756256475868488"><ele>944.0</ele><time>2026-05-02T11:57:31Z</time></trkpt><trkpt lat="45.784733846209086" lon="9.756268389593355"><ele>944.0</ele><time>2026-05-02T11:57:33Z</time></trkpt><trkpt lat="45.78463761814964" lon="9.756330703848217"><ele>944.0000000000001</ele><time>2026-05-02T11:57:35Z</time></trkpt><trkpt lat="45.78454332191941" lon="9.756382915735818"><ele>944.0000000000001</ele><time>2026-05-02T11:57:37Z</time></trkpt><trkpt lat="45.78444449401789" lon="9.756406072325289"><ele>944.0</ele><time>2026-05-02T11:57:39Z</time></trkpt><trkpt lat="45.784350264621914" lon="9.75643003011034"><ele>944.0</ele><time>2026-05-02T11:57:41Z</time></trkpt><trkpt lat="45.784258682335135" lon="9.756452405585025"><ele>944.2</ele><time>2026-05-02T11:57:43Z</time></trkpt><trkpt lat="45.78416468310291" lon="9.75647570400572"><ele>944.4000000000001</ele><time>2026-05-02T11:57:45Z</time></trkpt><trkpt lat="45.78407308486659" lon="9.756509983128206"><ele>944.6</ele><time>2026-05-02T11:57:47Z</time></trkpt><trkpt lat="45.7839814012545" lon="9.756549964632999"><ele>944.8</ele><time>2026-05-02T11:57:49Z</time></trkpt><trkpt lat="45.78388944586584" lon="9.756593239088959"><ele>945.0</ele><time>2026-05-02T11:57:51Z</time></trkpt><trkpt lat="45.78380171322906" lon="9.756640205928315"><ele>945.0</ele><time>2026-05-02T11:57:53Z</time></trkpt><trkpt lat="45.783710518266304" lon="9.756680240918563"><ele>945.0</ele><time>2026-05-02T11:57:55Z</time></trkpt><trkpt lat="45.783621184447355" lon="9.756730276831856"><ele>945.0</ele><time>2026-05-02T11:57:57Z</time></trkpt><trkpt lat="45.783535330173486" lon="9.756796884716188"><ele>945.0</ele><time>2026-05-02T11:57:59Z</time></trkpt><trkpt lat="45.78344328835853" lon="9.756849818193897"><ele>945.0</ele><time>2026-05-02T11:58:01Z</time></trkpt><trkpt lat="45.783348616988555" lon="9.756904216947808"><ele>943.6</ele><time>2026-05-02T11:58:03Z</time></trkpt><trkpt lat="45.783254928351504" lon="9.756963684397883"><ele>942.2</ele><time>2026-05-02T11:58:05Z</time></trkpt><trkpt lat="45.78316297422135" lon="9.757002908405049"><ele>940.8</ele><time>2026-05-02T11:58:07Z</time></trkpt><trkpt lat="45.783076627294115" lon="9.757036360186216"><ele>939.4</ele><time>2026-05-02T11:58:09Z</time></trkpt><trkpt lat="45.78299051921145" lon="9.757095391568875"><ele>938.0</ele><time>2026-05-02T11:58:11Z</time></trkpt><trkpt lat="45.78289244485877" lon="9.75713127173551"><ele>938.0</ele><time>2026-05-02T11:58:13Z</time></trkpt><trkpt lat="45.78278687530071" lon="9.757137028970485"><ele>938.0</ele><time>2026-05-02T11:58:15Z</time></trkpt><trkpt lat="45.782688692302365" lon="9.757126368244977"><ele>938.0</ele><time>2026-05-02T11:58:17Z</time></trkpt><trkpt lat="45.782594141993535" lon="9.75709964358029"><ele>938.0</ele><time>2026-05-02T11:58:19Z</time></trkpt><trkpt lat="45.78250648432801" lon="9.757055891517295"><ele>938.0</ele><time>2026-05-02T11:58:21Z</time></trkpt><trkpt lat="45.78244560102187" lon="9.757014878906974"><ele>939.8333333333334</ele><time>2026-05-02T11:58:23Z</time></trkpt><trkpt lat="45.782395073568196" lon="9.756942120337321"><ele>941.6666666666667</ele><time>2026-05-02T11:58:26Z</time></trkpt><trkpt lat="45.78236849097673" lon="9.756820453761865"><ele>943.5</ele><time>2026-05-02T11:58:29Z</time></trkpt><trkpt lat="45.78236303810887" lon="9.756723408709457"><ele>945.3333333333333</ele><time>2026-05-02T11:58:31Z</time></trkpt><trkpt lat="45.78238676161958" lon="9.756607803136438"><ele>947.1666666666666</ele><time>2026-05-02T11:58:33Z</time></trkpt><trkpt lat="45.78242076611093" lon="9.756484299521317"><ele>949.0</ele><time>2026-05-02T11:58:35Z</time></trkpt><trkpt lat="45.78245103216107" lon="9.75635061030628"><ele>949.6</ele><time>2026-05-02T11:58:37Z</time></trkpt><trkpt lat="45.78247279557826" lon="9.756205447337363"><ele>950.2</ele><time>2026-05-02T11:58:39Z</time></trkpt><trkpt lat="45.782466706083" lon="9.75605263567102"><ele>950.8000000000001</ele><time>2026-05-02T11:58:41Z</time></trkpt><trkpt lat="45.78243684693114" lon="9.755910737249783"><ele>951.4000000000001</ele><time>2026-05-02T11:58:43Z</time></trkpt><trkpt lat="45.78238259481257" lon="9.75579275274849"><ele>952.0</ele><time>2026-05-02T11:58:45Z</time></trkpt><trkpt lat="45.78232187821216" lon="9.755692170736522"><ele>952.4999999999999</ele><time>2026-05-02T11:58:47Z</time></trkpt><trkpt lat="45.782257456367795" lon="9.755606403330079"><ele>953.0</ele><time>2026-05-02T11:58:49Z</time></trkpt><trkpt lat="45.782202751867025" lon="9.755519936896912"><ele>953.5</ele><time>2026-05-02T11:58:51Z</time></trkpt><trkpt lat="45.78214273367143" lon="9.755453570008656"><ele>954.0</ele><time>2026-05-02T11:58:53Z</time></trkpt><trkpt lat="45.78208719071681" lon="9.755387901727145"><ele>954.4999999999999</ele><time>2026-05-02T11:58:55Z</time></trkpt><trkpt lat="45.78203541471979" lon="9.755319256221838"><ele>955.0</ele><time>2026-05-02T11:58:57Z</time></trkpt><trkpt lat="45.78198076173499" lon="9.755244496934363"><ele>954.6666666666666</ele><time>2026-05-02T11:58:59Z</time></trkpt><trkpt lat="45.7819128204434" lon="9.755161402953874"><ele>954.3333333333333</ele><time>2026-05-02T11:59:01Z</time></trkpt><trkpt lat="45.78184510962803" lon="9.755073370692562"><ele>954.0</ele><time>2026-05-02T11:59:03Z</time></trkpt><trkpt lat="45.78178461991361" lon="9.754984577918624"><ele>953.6666666666667</ele><time>2026-05-02T11:59:05Z</time></trkpt><trkpt lat="45.78173003630152" lon="9.754901527835365"><ele>953.3333333333334</ele><time>2026-05-02T11:59:07Z</time></trkpt><trkpt lat="45.781688527674035" lon="9.754815242245387"><ele>953.0</ele><time>2026-05-02T11:59:09Z</time></trkpt><trkpt lat="45.78165495137902" lon="9.75471720086246"><ele>953.0</ele><time>2026-05-02T11:59:11Z</time></trkpt><trkpt lat="45.78163748593993" lon="9.754584494447387"><ele>953.0</ele><time>2026-05-02T11:59:13Z</time></trkpt><trkpt lat="45.78162775924246" lon="9.754449349403984"><ele>953.0</ele><time>2026-05-02T11:59:15Z</time></trkpt><trkpt lat="45.7816246384639" lon="9.754307123977057"><ele>953.0</ele><time>2026-05-02T11:59:17Z</time></trkpt><trkpt lat="45.78162964240345" lon="9.754159547292764"><ele>953.0</ele><time>2026-05-02T11:59:19Z</time></trkpt><trkpt lat="45.78162460718249" lon="9.754004499226454"><ele>953.25</ele><time>2026-05-02T11:59:21Z</time></trkpt><trkpt lat="45.78162540540397" lon="9.753845475008132"><ele>953.5</ele><time>2026-05-02T11:59:23Z</time></trkpt><trkpt lat="45.78162323189981" lon="9.753684062207356"><ele>953.75</ele><time>2026-05-02T11:59:25Z</time></trkpt><trkpt lat="45.78162597093514" lon="9.75351750346732"><ele>954.0</ele><time>2026-05-02T11:59:27Z</time></trkpt><trkpt lat="45.78163015149552" lon="9.75334109127781"><ele>953.2857142857142</ele><time>2026-05-02T11:59:29Z</time></trkpt><trkpt lat="45.78163180511816" lon="9.753249613278957"><ele>952.5714285714284</ele><time>2026-05-02T11:59:30Z</time></trkpt><trkpt lat="45.78163308502368" lon="9.75315699931571"><ele>951.8571428571429</ele><time>2026-05-02T11:59:31Z</time></trkpt><trkpt lat="45.7816344419707" lon="9.75305880695766"><ele>951.1428571428571</ele><time>2026-05-02T11:59:32Z</time></trkpt><trkpt lat="45.78163755930819" lon="9.752966556716261"><ele>950.4285714285714</ele><time>2026-05-02T11:59:33Z</time></trkpt><trkpt lat="45.78164032072138" lon="9.752869805591953"><ele>949.7142857142858</ele><time>2026-05-02T11:59:34Z</time></trkpt><trkpt lat="45.781641389137626" lon="9.752772700331207"><ele>949.0000000000001</ele><time>2026-05-02T11:59:35Z</time></trkpt><trkpt lat="45.78163254556028" lon="9.752676811136032"><ele>948.6</ele><time>2026-05-02T11:59:36Z</time></trkpt><trkpt lat="45.78162035517211" lon="9.75258401302926"><ele>948.2</ele><time>2026-05-02T11:59:37Z</time></trkpt><trkpt lat="45.78158998707603" lon="9.752423531329573"><ele>947.8000000000001</ele><time>2026-05-02T11:59:39Z</time></trkpt><trkpt lat="45.7815449264606" lon="9.752264393258098"><ele>947.4000000000001</ele><time>2026-05-02T11:59:41Z</time></trkpt><trkpt lat="45.78148865267396" lon="9.752138188130301"><ele>947.0</ele><time>2026-05-02T11:59:43Z</time></trkpt><trkpt lat="45.78143751409502" lon="9.752045747647378"><ele>947.0</ele><time>2026-05-02T11:59:45Z</time></trkpt><trkpt lat="45.78139356840837" lon="9.75196172876252"><ele>946.9999999999999</ele><time>2026-05-02T11:59:48Z</time></trkpt><trkpt lat="45.78135723118197" lon="9.751874415739604"><ele>947.0</ele><time>2026-05-02T11:59:51Z</time></trkpt><trkpt lat="45.78128715854294" lon="9.751876191639301"><ele>947.0</ele><time>2026-05-02T11:59:54Z</time></trkpt><trkpt lat="45.78121688144833" lon="9.75192360170239"><ele>946.9999999999999</ele><time>2026-05-02T11:59:57Z</time></trkpt><trkpt lat="45.78116521861685" lon="9.752002529774893"><ele>947.0</ele><time>2026-05-02T12:00:00Z</time></trkpt><trkpt lat="45.78111362500487" lon="9.75207349287175"><ele>947.0</ele><time>2026-05-02T12:00:03Z</time></trkpt><trkpt lat="45.78106625232152" lon="9.752134493530251"><ele>947.0000000000001</ele><time>2026-05-02T12:00:06Z</time></trkpt><trkpt lat="45.78107256996932" lon="9.752225778852218"><ele>947.0</ele><time>2026-05-02T12:00:10Z</time></trkpt><trkpt lat="45.78112424865825" lon="9.752146503869039"><ele>947.0</ele><time>2026-05-02T12:00:18Z</time></trkpt><trkpt lat="45.78109103757817" lon="9.752062539008465"><ele>947.0</ele><time>2026-05-02T12:00:26Z</time></trkpt><trkpt lat="45.78102720072866" lon="9.75211848519986"><ele>947.0000000000001</ele><time>2026-05-02T12:00:30Z</time></trkpt><trkpt lat="45.78094807043524" lon="9.752122920036156"><ele>947.0</ele><time>2026-05-02T12:00:33Z</time></trkpt><trkpt lat="45.780868891704515" lon="9.752190629195026"><ele>946.2857142857142</ele><time>2026-05-02T12:00:36Z</time></trkpt><trkpt lat="45.78082589395073" lon="9.752281338139"><ele>945.5714285714284</ele><time>2026-05-02T12:00:38Z</time></trkpt><trkpt lat="45.78077155932502" lon="9.752348120892664"><ele>944.8571428571429</ele><time>2026-05-02T12:00:40Z</time></trkpt><trkpt lat="45.78075080776837" lon="9.752444288810967"><ele>944.1428571428571</ele><time>2026-05-02T12:00:42Z</time></trkpt><trkpt lat="45.78074230951411" lon="9.75253712768578"><ele>943.4285714285714</ele><time>2026-05-02T12:00:44Z</time></trkpt><trkpt lat="45.78074426124288" lon="9.752673199885017"><ele>942.7142857142858</ele><time>2026-05-02T12:00:47Z</time></trkpt><trkpt lat="45.78073270427867" lon="9.752767217038505"><ele>942.0000000000001</ele><time>2026-05-02T12:00:49Z</time></trkpt><trkpt lat="45.78072960536191" lon="9.752884734380128"><ele>942.0</ele><time>2026-05-02T12:00:52Z</time></trkpt><trkpt lat="45.780707986517385" lon="9.752983614621417"><ele>942.0</ele><time>2026-05-02T12:00:55Z</time></trkpt><trkpt lat="45.78066586349973" lon="9.753094203374472"><ele>942.0</ele><time>2026-05-02T12:00:58Z</time></trkpt><trkpt lat="45.78063672313293" lon="9.753194096237234"><ele>942.0</ele><time>2026-05-02T12:01:01Z</time></trkpt><trkpt lat="45.78061442233444" lon="9.753290138455956"><ele>942.0</ele><time>2026-05-02T12:01:04Z</time></trkpt><trkpt lat="45.78060183266054" lon="9.753407863594667"><ele>942.0</ele><time>2026-05-02T12:01:07Z</time></trkpt><trkpt lat="45.780596431265565" lon="9.753530253651244"><ele>942.0000000000001</ele><time>2026-05-02T12:01:10Z</time></trkpt><trkpt lat="45.78059285442865" lon="9.753625751960362"><ele>942.0</ele><time>2026-05-02T12:01:12Z</time></trkpt><trkpt lat="45.78059019022456" lon="9.753754882931926"><ele>942.0000000000001</ele><time>2026-05-02T12:01:15Z</time></trkpt><trkpt lat="45.780606828539554" lon="9.753854769520068"><ele>942.0000000000001</ele><time>2026-05-02T12:01:17Z</time></trkpt><trkpt lat="45.78062658099352" lon="9.753960351964786"><ele>942.0</ele><time>2026-05-02T12:01:19Z</time></trkpt><trkpt lat="45.78065224492531" lon="9.754054215431983"><ele>942.0000000000001</ele><time>2026-05-02T12:01:21Z</time></trkpt><trkpt lat="45.780680608859484" lon="9.754137072613776"><ele>942.0000000000001</ele><time>2026-05-02T12:01:23Z</time></trkpt><trkpt lat="45.780729292498734" lon="9.754252770005131"><ele>942.0000000000001</ele><time>2026-05-02T12:01:26Z</time></trkpt><trkpt lat="45.780762569339075" lon="9.754330431448013"><ele>942.0</ele><time>2026-05-02T12:01:28Z</time></trkpt><trkpt lat="45.78080119148687" lon="9.754435183742604"><ele>942.0000000000001</ele><time>2026-05-02T12:01:31Z</time></trkpt><trkpt lat="45.780846535256366" lon="9.754546740807992"><ele>942.0000000000001</ele><time>2026-05-02T12:01:34Z</time></trkpt><trkpt lat="45.78086314650027" lon="9.75463827584804"><ele>942.0</ele><time>2026-05-02T12:01:37Z</time></trkpt><trkpt lat="45.780870311960676" lon="9.754730524521895"><ele>942.0000000000001</ele><time>2026-05-02T12:01:40Z</time></trkpt><trkpt lat="45.78082290104605" lon="9.754795761769161"><ele>942.0000000000001</ele><time>2026-05-02T12:01:43Z</time></trkpt><trkpt lat="45.78076322915647" lon="9.754712691754316"><ele>942.0</ele><time>2026-05-02T12:01:45Z</time></trkpt><trkpt lat="45.78073929052515" lon="9.754593640616655"><ele>942.0</ele><time>2026-05-02T12:01:47Z</time></trkpt><trkpt lat="45.78071093294032" lon="9.754485303662145"><ele>942.0</ele><time>2026-05-02T12:01:49Z</time></trkpt><trkpt lat="45.78067801932619" lon="9.754378580255503"><ele>942.0</ele><time>2026-05-02T12:01:51Z</time></trkpt><trkpt lat="45.780638171977365" lon="9.754275008007081"><ele>942.0</ele><time>2026-05-02T12:01:53Z</time></trkpt><trkpt lat="45.78059850236127" lon="9.754168229142552"><ele>942.0</ele><time>2026-05-02T12:01:55Z</time></trkpt><trkpt lat="45.78056276326677" lon="9.754059518724983"><ele>942.0</ele><time>2026-05-02T12:01:57Z</time></trkpt><trkpt lat="45.780536060916944" lon="9.753947494542123"><ele>942.0</ele><time>2026-05-02T12:01:59Z</time></trkpt><trkpt lat="45.78051488515614" lon="9.753836297131082"><ele>942.0</ele><time>2026-05-02T12:02:01Z</time></trkpt><trkpt lat="45.78050094763104" lon="9.75373143485489"><ele>942.0</ele><time>2026-05-02T12:02:03Z</time></trkpt><trkpt lat="45.780504104202585" lon="9.753614098275262"><ele>942.0</ele><time>2026-05-02T12:02:05Z</time></trkpt><trkpt lat="45.78051779449024" lon="9.753482835257396"><ele>942.0</ele><time>2026-05-02T12:02:07Z</time></trkpt><trkpt lat="45.78053292534549" lon="9.753361172803379"><ele>942.0</ele><time>2026-05-02T12:02:09Z</time></trkpt><trkpt lat="45.780556976539074" lon="9.753249254849962"><ele>942.0</ele><time>2026-05-02T12:02:11Z</time></trkpt><trkpt lat="45.78058313966366" lon="9.753143074181136"><ele>942.0</ele><time>2026-05-02T12:02:13Z</time></trkpt><trkpt lat="45.78061237276386" lon="9.75304423034056"><ele>942.0</ele><time>2026-05-02T12:02:15Z</time></trkpt><trkpt lat="45.78065174528401" lon="9.752934406766867"><ele>942.0</ele><time>2026-05-02T12:02:17Z</time></trkpt><trkpt lat="45.78069489178467" lon="9.752820706287942"><ele>942.0</ele><time>2026-05-02T12:02:19Z</time></trkpt><trkpt lat="45.78072035956745" lon="9.752732648127736"><ele>942.0</ele><time>2026-05-02T12:02:21Z</time></trkpt><trkpt lat="45.78075701652243" lon="9.752639868833386"><ele>942.0</ele><time>2026-05-02T12:02:23Z</time></trkpt><trkpt lat="45.78079477217831" lon="9.752543077345283"><ele>942.0</ele><time>2026-05-02T12:02:25Z</time></trkpt><trkpt lat="45.78082988369471" lon="9.752431875505268"><ele>942.0</ele><time>2026-05-02T12:02:29Z</time></trkpt><trkpt lat="45.78086823187409" lon="9.75234704398611"><ele>942.0</ele><time>2026-05-02T12:02:31Z</time></trkpt><trkpt lat="45.780925864479904" lon="9.752262523327536"><ele>942.0</ele><time>2026-05-02T12:02:33Z</time></trkpt><trkpt lat="45.78098707389368" lon="9.752185315833055"><ele>942.5714285714287</ele><time>2026-05-02T12:02:35Z</time></trkpt><trkpt lat="45.78103673979234" lon="9.752104016107946"><ele>943.1428571428571</ele><time>2026-05-02T12:02:37Z</time></trkpt><trkpt lat="45.78109073010134" lon="9.752038576261741"><ele>943.7142857142858</ele><time>2026-05-02T12:02:39Z</time></trkpt><trkpt lat="45.781157547353324" lon="9.751971616438144"><ele>944.2857142857143</ele><time>2026-05-02T12:02:42Z</time></trkpt><trkpt lat="45.7811744209374" lon="9.751884302847674"><ele>944.8571428571429</ele><time>2026-05-02T12:02:45Z</time></trkpt><trkpt lat="45.78120791759413" lon="9.751781372076886"><ele>945.4285714285714</ele><time>2026-05-02T12:02:48Z</time></trkpt><trkpt lat="45.78120306634563" lon="9.75167327435967"><ele>946.0</ele><time>2026-05-02T12:02:50Z</time></trkpt><trkpt lat="45.78116179425436" lon="9.751563793440223"><ele>946.0</ele><time>2026-05-02T12:02:52Z</time></trkpt><trkpt lat="45.781106120372314" lon="9.751460309438224"><ele>945.9999999999999</ele><time>2026-05-02T12:02:54Z</time></trkpt><trkpt lat="45.78105060990009" lon="9.751347207669383"><ele>945.9999999999999</ele><time>2026-05-02T12:02:56Z</time></trkpt><trkpt lat="45.781009515560406" lon="9.751223177562219"><ele>946.0</ele><time>2026-05-02T12:02:58Z</time></trkpt><trkpt lat="45.78096681908701" lon="9.751110929111306"><ele>946.0</ele><time>2026-05-02T12:03:00Z</time></trkpt><trkpt lat="45.780926426295736" lon="9.750994236027658"><ele>945.4999999999999</ele><time>2026-05-02T12:03:02Z</time></trkpt><trkpt lat="45.780887209141184" lon="9.750865010317556"><ele>945.0</ele><time>2026-05-02T12:03:04Z</time></trkpt><trkpt lat="45.780872423707976" lon="9.750772091092232"><ele>944.5</ele><time>2026-05-02T12:03:06Z</time></trkpt><trkpt lat="45.78095963329595" lon="9.750729481026156"><ele>944.0</ele><time>2026-05-02T12:03:09Z</time></trkpt><trkpt lat="45.78102112166153" lon="9.7506996459572"><ele>943.4999999999999</ele><time>2026-05-02T12:03:11Z</time></trkpt><trkpt lat="45.781061055902896" lon="9.750616443627397"><ele>943.0</ele><time>2026-05-02T12:03:14Z</time></trkpt><trkpt lat="45.7811130146254" lon="9.750551054295773"><ele>943.0</ele><time>2026-05-02T12:03:18Z</time></trkpt><trkpt lat="45.78110721728818" lon="9.750653643291612"><ele>943.0000000000001</ele><time>2026-05-02T12:03:21Z</time></trkpt><trkpt lat="45.78103970459293" lon="9.750674828781234"><ele>943.0</ele><time>2026-05-02T12:03:23Z</time></trkpt><trkpt lat="45.78097722488955" lon="9.750711715582678"><ele>943.0</ele><time>2026-05-02T12:03:25Z</time></trkpt><trkpt lat="45.78091937924376" lon="9.750754435980303"><ele>943.0000000000001</ele><time>2026-05-02T12:03:27Z</time></trkpt><trkpt lat="45.78085727347346" lon="9.75071962741607"><ele>943.0</ele><time>2026-05-02T12:03:29Z</time></trkpt><trkpt lat="45.78080080803874" lon="9.750621305611828"><ele>943.0</ele><time>2026-05-02T12:03:31Z</time></trkpt><trkpt lat="45.78074355749813" lon="9.750518025619634"><ele>942.8</ele><time>2026-05-02T12:03:33Z</time></trkpt><trkpt lat="45.78067799213155" lon="9.750412803186919"><ele>942.5999999999999</ele><time>2026-05-02T12:03:35Z</time></trkpt><trkpt lat="45.78062341412863" lon="9.750306934441559"><ele>942.4000000000001</ele><time>2026-05-02T12:03:37Z</time></trkpt><trkpt lat="45.780571797065704" lon="9.750209849922811"><ele>942.2</ele><time>2026-05-02T12:03:39Z</time></trkpt><trkpt lat="45.78051551511043" lon="9.750108890452978"><ele>942.0</ele><time>2026-05-02T12:03:41Z</time></trkpt><trkpt lat="45.7804553096827" lon="9.750019639311887"><ele>942.3333333333334</ele><time>2026-05-02T12:03:43Z</time></trkpt><trkpt lat="45.780404671648675" lon="9.74993267708299"><ele>942.6666666666667</ele><time>2026-05-02T12:03:45Z</time></trkpt><trkpt lat="45.78035443496409" lon="9.749831783682648"><ele>943.0</ele><time>2026-05-02T12:03:47Z</time></trkpt><trkpt lat="45.78029719054163" lon="9.749730161466351"><ele>943.3333333333334</ele><time>2026-05-02T12:03:49Z</time></trkpt><trkpt lat="45.78023805629231" lon="9.749625798100817"><ele>943.6666666666667</ele><time>2026-05-02T12:03:51Z</time></trkpt><trkpt lat="45.78019396696283" lon="9.74956028603668"><ele>944.0</ele><time>2026-05-02T12:03:53Z</time></trkpt><trkpt lat="45.78018677035295" lon="9.749650408410494"><ele>944.0000000000001</ele><time>2026-05-02T12:03:58Z</time></trkpt><trkpt lat="45.78026305980432" lon="9.749626205159991"><ele>944.0</ele><time>2026-05-02T12:04:00Z</time></trkpt><trkpt lat="45.780316899032094" lon="9.749546205096031"><ele>944.0</ele><time>2026-05-02T12:04:02Z</time></trkpt><trkpt lat="45.78037162571661" lon="9.749484330373022"><ele>944.0</ele><time>2026-05-02T12:04:04Z</time></trkpt><trkpt lat="45.78043409530735" lon="9.749414016174033"><ele>944.0000000000001</ele><time>2026-05-02T12:04:07Z</time></trkpt><trkpt lat="45.78048676931404" lon="9.749345509809174"><ele>944.0</ele><time>2026-05-02T12:04:10Z</time></trkpt><trkpt lat="45.78046589683099" lon="9.7492360776734"><ele>944.7142857142857</ele><time>2026-05-02T12:04:14Z</time></trkpt><trkpt lat="45.780413424389955" lon="9.749158039093752"><ele>945.4285714285716</ele><time>2026-05-02T12:04:18Z</time></trkpt><trkpt lat="45.78037379536403" lon="9.749082514621737"><ele>946.1428571428572</ele><time>2026-05-02T12:04:22Z</time></trkpt><trkpt lat="45.78029925486449" lon="9.749049757317849"><ele>946.8571428571429</ele><time>2026-05-02T12:04:25Z</time></trkpt><trkpt lat="45.780364319966374" lon="9.749042251215444"><ele>947.5714285714287</ele><time>2026-05-02T12:04:30Z</time></trkpt><trkpt lat="45.780384619348915" lon="9.74913954075471"><ele>948.2857142857144</ele><time>2026-05-02T12:04:32Z</time></trkpt><trkpt lat="45.780422382452535" lon="9.749231806797948"><ele>949.0000000000001</ele><time>2026-05-02T12:04:34Z</time></trkpt><trkpt lat="45.78047801914729" lon="9.749309489077346"><ele>948.1666666666666</ele><time>2026-05-02T12:04:36Z</time></trkpt><trkpt lat="45.780444115016124" lon="9.749427554438316"><ele>947.3333333333333</ele><time>2026-05-02T12:04:39Z</time></trkpt><trkpt lat="45.78038053993619" lon="9.7494678449206"><ele>946.5</ele><time>2026-05-02T12:04:41Z</time></trkpt><trkpt lat="45.780316415184956" lon="9.749517916481507"><ele>945.6666666666667</ele><time>2026-05-02T12:04:43Z</time></trkpt><trkpt lat="45.780246174419645" lon="9.749570433751616"><ele>944.8333333333334</ele><time>2026-05-02T12:04:45Z</time></trkpt><trkpt lat="45.78016335697025" lon="9.749540496072004"><ele>944.0</ele><time>2026-05-02T12:04:47Z</time></trkpt><trkpt lat="45.78011460467281" lon="9.749436332385903"><ele>943.4000000000001</ele><time>2026-05-02T12:04:49Z</time></trkpt><trkpt lat="45.78005966169802" lon="9.749351680760885"><ele>942.8000000000001</ele><time>2026-05-02T12:04:51Z</time></trkpt><trkpt lat="45.7800046532829" lon="9.749258485330857"><ele>942.1999999999999</ele><time>2026-05-02T12:04:53Z</time></trkpt><trkpt lat="45.77994183740047" lon="9.7491659181481"><ele>941.5999999999999</ele><time>2026-05-02T12:04:55Z</time></trkpt><trkpt lat="45.77987389431877" lon="9.749061660776762"><ele>941.0</ele><time>2026-05-02T12:04:57Z</time></trkpt><trkpt lat="45.779794271268024" lon="9.74894395327215"><ele>940.9999999999999</ele><time>2026-05-02T12:04:59Z</time></trkpt><trkpt lat="45.77975211452893" lon="9.74887675453273"><ele>941.0</ele><time>2026-05-02T12:05:00Z</time></trkpt><trkpt lat="45.77971121278665" lon="9.748803265363792"><ele>940.9999999999999</ele><time>2026-05-02T12:05:01Z</time></trkpt><trkpt lat="45.77966410741295" lon="9.748732041068285"><ele>940.9999999999999</ele><time>2026-05-02T12:05:02Z</time></trkpt><trkpt lat="45.77961842177284" lon="9.748655382485063"><ele>941.0</ele><time>2026-05-02T12:05:03Z</time></trkpt><trkpt lat="45.77957584470974" lon="9.748570370848539"><ele>940.9999999999999</ele><time>2026-05-02T12:05:04Z</time></trkpt><trkpt lat="45.779550563153144" lon="9.748483801246861"><ele>940.9999999999999</ele><time>2026-05-02T12:05:05Z</time></trkpt><trkpt lat="45.77953939126544" lon="9.748379430128958"><ele>941.5000000000001</ele><time>2026-05-02T12:05:06Z</time></trkpt><trkpt lat="45.779544787842035" lon="9.748271374676342"><ele>942.0</ele><time>2026-05-02T12:05:07Z</time></trkpt><trkpt lat="45.7795644194392" lon="9.74816420918941"><ele>942.5</ele><time>2026-05-02T12:05:08Z</time></trkpt><trkpt lat="45.779593296411484" lon="9.748058861721415"><ele>943.0</ele><time>2026-05-02T12:05:09Z</time></trkpt><trkpt lat="45.77963154301586" lon="9.747960906929931"><ele>943.5000000000001</ele><time>2026-05-02T12:05:10Z</time></trkpt><trkpt lat="45.779670760960016" lon="9.74786646413432"><ele>944.0</ele><time>2026-05-02T12:05:11Z</time></trkpt><trkpt lat="45.77970402777454" lon="9.747764848402927"><ele>943.5000000000001</ele><time>2026-05-02T12:05:12Z</time></trkpt><trkpt lat="45.779723920438705" lon="9.747651552933991"><ele>943.0</ele><time>2026-05-02T12:05:13Z</time></trkpt><trkpt lat="45.77972132298202" lon="9.747530655239169"><ele>942.5</ele><time>2026-05-02T12:05:14Z</time></trkpt><trkpt lat="45.77969995136311" lon="9.747410093151561"><ele>942.0</ele><time>2026-05-02T12:05:15Z</time></trkpt><trkpt lat="45.77966796177924" lon="9.747294969755282"><ele>941.5000000000001</ele><time>2026-05-02T12:05:16Z</time></trkpt><trkpt lat="45.779634482087864" lon="9.747195274831476"><ele>941.0</ele><time>2026-05-02T12:05:17Z</time></trkpt><trkpt lat="45.779601243070616" lon="9.747117459921524"><ele>940.9999999999999</ele><time>2026-05-02T12:05:18Z</time></trkpt><trkpt lat="45.77956324847618" lon="9.747033257000838"><ele>941.0</ele><time>2026-05-02T12:05:19Z</time></trkpt><trkpt lat="45.779522795914325" lon="9.746942913970738"><ele>940.9999999999999</ele><time>2026-05-02T12:05:20Z</time></trkpt><trkpt lat="45.7794848624002" lon="9.7468573624444"><ele>940.9999999999999</ele><time>2026-05-02T12:05:21Z</time></trkpt><trkpt lat="45.77945008317601" lon="9.74677151131102"><ele>941.0</ele><time>2026-05-02T12:05:22Z</time></trkpt><trkpt lat="45.77942624954438" lon="9.746679267946467"><ele>940.9999999999999</ele><time>2026-05-02T12:05:23Z</time></trkpt><trkpt lat="45.77940817443673" lon="9.746573916774663"><ele>940.9999999999999</ele><time>2026-05-02T12:05:24Z</time></trkpt><trkpt lat="45.779406156436806" lon="9.746466324693918"><ele>940.5000000000001</ele><time>2026-05-02T12:05:25Z</time></trkpt><trkpt lat="45.779413104028684" lon="9.74635868497601"><ele>940.0</ele><time>2026-05-02T12:05:26Z</time></trkpt><trkpt lat="45.77942221142017" lon="9.746245766146803"><ele>939.5</ele><time>2026-05-02T12:05:27Z</time></trkpt><trkpt lat="45.779429620026015" lon="9.746129192155363"><ele>939.0</ele><time>2026-05-02T12:05:28Z</time></trkpt><trkpt lat="45.77943287934795" lon="9.746010267282138"><ele>938.5000000000001</ele><time>2026-05-02T12:05:29Z</time></trkpt><trkpt lat="45.77942734812564" lon="9.745894291408757"><ele>938.0</ele><time>2026-05-02T12:05:30Z</time></trkpt><trkpt lat="45.77941918882554" lon="9.745781157549125"><ele>936.5000000000001</ele><time>2026-05-02T12:05:31Z</time></trkpt><trkpt lat="45.77940680480934" lon="9.745682227157928"><ele>935.0</ele><time>2026-05-02T12:05:32Z</time></trkpt><trkpt lat="45.779382312627185" lon="9.745533816887187"><ele>933.5</ele><time>2026-05-02T12:05:34Z</time></trkpt><trkpt lat="45.77936589828382" lon="9.745394877781075"><ele>932.0</ele><time>2026-05-02T12:05:36Z</time></trkpt><trkpt lat="45.77934616567756" lon="9.745259339139864"><ele>930.5000000000001</ele><time>2026-05-02T12:05:38Z</time></trkpt><trkpt lat="45.779329567509016" lon="9.745159892065395"><ele>929.0</ele><time>2026-05-02T12:05:40Z</time></trkpt><trkpt lat="45.77932471103971" lon="9.745044700945684"><ele>928.0</ele><time>2026-05-02T12:05:43Z</time></trkpt><trkpt lat="45.77930503288698" lon="9.744953428242672"><ele>927.0000000000001</ele><time>2026-05-02T12:05:45Z</time></trkpt><trkpt lat="45.77927304230749" lon="9.744862887945976"><ele>926.0</ele><time>2026-05-02T12:05:47Z</time></trkpt><trkpt lat="45.779242846704726" lon="9.744772570480665"><ele>925.0</ele><time>2026-05-02T12:05:49Z</time></trkpt><trkpt lat="45.77920331229696" lon="9.744680167972172"><ele>924.0000000000001</ele><time>2026-05-02T12:05:51Z</time></trkpt><trkpt lat="45.77915238686799" lon="9.744587962813615"><ele>923.0</ele><time>2026-05-02T12:05:53Z</time></trkpt><trkpt lat="45.77910246291383" lon="9.744509715553452"><ele>922.0</ele><time>2026-05-02T12:05:55Z</time></trkpt><trkpt lat="45.77906475922124" lon="9.744424702070917"><ele>921.9999999999999</ele><time>2026-05-02T12:05:57Z</time></trkpt><trkpt lat="45.779038951739885" lon="9.744329828804092"><ele>922.0</ele><time>2026-05-02T12:05:59Z</time></trkpt><trkpt lat="45.77903695694309" lon="9.74422215353857"><ele>922.0</ele><time>2026-05-02T12:06:01Z</time></trkpt><trkpt lat="45.77907191042258" lon="9.744131487248882"><ele>922.0</ele><time>2026-05-02T12:06:03Z</time></trkpt><trkpt lat="45.77903748725649" lon="9.744013868878222"><ele>921.9999999999999</ele><time>2026-05-02T12:06:06Z</time></trkpt><trkpt lat="45.778962670559295" lon="9.74397429260096"><ele>922.0</ele><time>2026-05-02T12:06:08Z</time></trkpt><trkpt lat="45.77889804264342" lon="9.743907155329367"><ele>921.9999999999999</ele><time>2026-05-02T12:06:10Z</time></trkpt><trkpt lat="45.77883927293746" lon="9.74380966132651"><ele>922.0</ele><time>2026-05-02T12:06:12Z</time></trkpt><trkpt lat="45.77878862052028" lon="9.743732349176804"><ele>922.0</ele><time>2026-05-02T12:06:14Z</time></trkpt><trkpt lat="45.77872900455215" lon="9.743680300800193"><ele>922.0</ele><time>2026-05-02T12:06:16Z</time></trkpt><trkpt lat="45.778667286039415" lon="9.743630725952926"><ele>921.9999999999999</ele><time>2026-05-02T12:06:19Z</time></trkpt><trkpt lat="45.77859523031937" lon="9.743640948938353"><ele>922.0</ele><time>2026-05-02T12:06:21Z</time></trkpt><trkpt lat="45.77849981982672" lon="9.743650760515598"><ele>920.6666666666666</ele><time>2026-05-02T12:06:23Z</time></trkpt><trkpt lat="45.77838778353371" lon="9.743659866066205"><ele>919.3333333333333</ele><time>2026-05-02T12:06:25Z</time></trkpt><trkpt lat="45.778265986294045" lon="9.743654236002673"><ele>918.0</ele><time>2026-05-02T12:06:27Z</time></trkpt><trkpt lat="45.778202560789374" lon="9.743656023564064"><ele>916.6666666666667</ele><time>2026-05-02T12:06:28Z</time></trkpt><trkpt lat="45.77813726045501" lon="9.743657622016185"><ele>915.3333333333334</ele><time>2026-05-02T12:06:29Z</time></trkpt><trkpt lat="45.77806931605522" lon="9.743661033484546"><ele>914.0</ele><time>2026-05-02T12:06:30Z</time></trkpt><trkpt lat="45.778000024841745" lon="9.74365733510522"><ele>914.0</ele><time>2026-05-02T12:06:31Z</time></trkpt><trkpt lat="45.77789463702853" lon="9.743641167772033"><ele>914.0000000000001</ele><time>2026-05-02T12:06:33Z</time></trkpt><trkpt lat="45.77781951777464" lon="9.743614708562383"><ele>914.0000000000001</ele><time>2026-05-02T12:06:36Z</time></trkpt><trkpt lat="45.777752558029164" lon="9.7435925522535"><ele>914.0</ele><time>2026-05-02T12:06:38Z</time></trkpt><trkpt lat="45.777662947350656" lon="9.743538533024918"><ele>914.0</ele><time>2026-05-02T12:06:40Z</time></trkpt><trkpt lat="45.77756170408493" lon="9.743475796983889"><ele>912.8333333333334</ele><time>2026-05-02T12:06:42Z</time></trkpt><trkpt lat="45.77745014163962" lon="9.743392794420089"><ele>911.6666666666667</ele><time>2026-05-02T12:06:44Z</time></trkpt><trkpt lat="45.777389740765685" lon="9.743352272429622"><ele>910.5</ele><time>2026-05-02T12:06:45Z</time></trkpt><trkpt lat="45.7773234908119" lon="9.743301940576812"><ele>909.3333333333333</ele><time>2026-05-02T12:06:46Z</time></trkpt><trkpt lat="45.77726178103153" lon="9.743240859628248"><ele>908.1666666666666</ele><time>2026-05-02T12:06:47Z</time></trkpt><trkpt lat="45.7772166742195" lon="9.743149041754673"><ele>907.0</ele><time>2026-05-02T12:06:48Z</time></trkpt><trkpt lat="45.77720843646332" lon="9.743021530981565"><ele>906.9999999999999</ele><time>2026-05-02T12:06:49Z</time></trkpt><trkpt lat="45.77722305608322" lon="9.742893775547179"><ele>907.0</ele><time>2026-05-02T12:06:50Z</time></trkpt><trkpt lat="45.77724681824186" lon="9.742776834952375"><ele>907.0</ele><time>2026-05-02T12:06:51Z</time></trkpt><trkpt lat="45.777264195956306" lon="9.742656140540408"><ele>907.0</ele><time>2026-05-02T12:06:52Z</time></trkpt><trkpt lat="45.77727190006753" lon="9.742534107376995"><ele>906.9999999999999</ele><time>2026-05-02T12:06:53Z</time></trkpt><trkpt lat="45.77726389773432" lon="9.742412695148532"><ele>907.0</ele><time>2026-05-02T12:06:54Z</time></trkpt><trkpt lat="45.777246355207964" lon="9.742284162502138"><ele>909.4000000000001</ele><time>2026-05-02T12:06:55Z</time></trkpt><trkpt lat="45.77721933064943" lon="9.742162039987818"><ele>911.8000000000001</ele><time>2026-05-02T12:06:56Z</time></trkpt><trkpt lat="45.77717950399037" lon="9.742045427971403"><ele>914.2</ele><time>2026-05-02T12:06:57Z</time></trkpt><trkpt lat="45.77713577112414" lon="9.7419303747523"><ele>916.6</ele><time>2026-05-02T12:06:58Z</time></trkpt><trkpt lat="45.777086444888035" lon="9.74181402481281"><ele>919.0</ele><time>2026-05-02T12:06:59Z</time></trkpt><trkpt lat="45.77704765659809" lon="9.74168882546901"><ele>919.6</ele><time>2026-05-02T12:07:00Z</time></trkpt><trkpt lat="45.777031907455964" lon="9.741555561360796"><ele>920.2</ele><time>2026-05-02T12:07:01Z</time></trkpt><trkpt lat="45.7770253133815" lon="9.741417934448204"><ele>920.8000000000001</ele><time>2026-05-02T12:07:02Z</time></trkpt><trkpt lat="45.77702263584336" lon="9.741280023570557"><ele>921.4000000000001</ele><time>2026-05-02T12:07:03Z</time></trkpt><trkpt lat="45.777029532806296" lon="9.741141121364127"><ele>922.0</ele><time>2026-05-02T12:07:04Z</time></trkpt><trkpt lat="45.777045169308245" lon="9.741003790027262"><ele>923.0</ele><time>2026-05-02T12:07:05Z</time></trkpt><trkpt lat="45.77705770441664" lon="9.740864968615822"><ele>924.0</ele><time>2026-05-02T12:07:06Z</time></trkpt><trkpt lat="45.7770693001376" lon="9.740727100554807"><ele>925.0</ele><time>2026-05-02T12:07:07Z</time></trkpt><trkpt lat="45.777090218097655" lon="9.740594045705325"><ele>926.0</ele><time>2026-05-02T12:07:08Z</time></trkpt><trkpt lat="45.777112226792084" lon="9.740463180356077"><ele>927.0</ele><time>2026-05-02T12:07:09Z</time></trkpt><trkpt lat="45.77713708104434" lon="9.740335512437381"><ele>927.0</ele><time>2026-05-02T12:07:10Z</time></trkpt><trkpt lat="45.777162731755276" lon="9.740212155429127"><ele>927.0</ele><time>2026-05-02T12:07:11Z</time></trkpt><trkpt lat="45.777174316103576" lon="9.74008757907237"><ele>927.0</ele><time>2026-05-02T12:07:12Z</time></trkpt><trkpt lat="45.77717077606252" lon="9.739961418985441"><ele>927.0</ele><time>2026-05-02T12:07:13Z</time></trkpt><trkpt lat="45.77714424324222" lon="9.739837382778623"><ele>927.0</ele><time>2026-05-02T12:07:14Z</time></trkpt><trkpt lat="45.77708117874912" lon="9.739735607408413"><ele>927.0</ele><time>2026-05-02T12:07:15Z</time></trkpt><trkpt lat="45.7769988179211" lon="9.739669471071618"><ele>927.0</ele><time>2026-05-02T12:07:16Z</time></trkpt><trkpt lat="45.776906169357744" lon="9.739641472650884"><ele>927.0</ele><time>2026-05-02T12:07:17Z</time></trkpt><trkpt lat="45.77681655149354" lon="9.739624482982636"><ele>927.0</ele><time>2026-05-02T12:07:18Z</time></trkpt><trkpt lat="45.7767232337594" lon="9.739604362404995"><ele>927.0</ele><time>2026-05-02T12:07:19Z</time></trkpt><trkpt lat="45.77663318618052" lon="9.739583958409694"><ele>921.8</ele><time>2026-05-02T12:07:20Z</time></trkpt><trkpt lat="45.776536608661374" lon="9.73957526722901"><ele>916.6</ele><time>2026-05-02T12:07:21Z</time></trkpt><trkpt lat="45.77644073299851" lon="9.739608779008067"><ele>911.3999999999999</ele><time>2026-05-02T12:07:22Z</time></trkpt><trkpt lat="45.776354354459095" lon="9.739670646671541"><ele>906.1999999999999</ele><time>2026-05-02T12:07:23Z</time></trkpt><trkpt lat="45.77627858577772" lon="9.739767389805097"><ele>901.0</ele><time>2026-05-02T12:07:24Z</time></trkpt><trkpt lat="45.77620556376142" lon="9.739866485199482"><ele>901.0</ele><time>2026-05-02T12:07:25Z</time></trkpt><trkpt lat="45.77612834505324" lon="9.73996055245463"><ele>900.9999999999999</ele><time>2026-05-02T12:07:26Z</time></trkpt><trkpt lat="45.77604409207658" lon="9.740047004733604"><ele>900.9999999999999</ele><time>2026-05-02T12:07:27Z</time></trkpt><trkpt lat="45.77594958987406" lon="9.740114250815333"><ele>901.0</ele><time>2026-05-02T12:07:28Z</time></trkpt><trkpt lat="45.77584686515059" lon="9.740160672107232"><ele>901.0</ele><time>2026-05-02T12:07:29Z</time></trkpt><trkpt lat="45.775740632884144" lon="9.74019595670679"><ele>895.1999999999999</ele><time>2026-05-02T12:07:30Z</time></trkpt><trkpt lat="45.7756381902414" lon="9.740233486409474"><ele>889.3999999999999</ele><time>2026-05-02T12:07:31Z</time></trkpt><trkpt lat="45.77553775276941" lon="9.740297807485112"><ele>883.6</ele><time>2026-05-02T12:07:32Z</time></trkpt><trkpt lat="45.77545163360903" lon="9.74039669968755"><ele>877.8</ele><time>2026-05-02T12:07:33Z</time></trkpt><trkpt lat="45.77537819095096" lon="9.74051317826958"><ele>872.0</ele><time>2026-05-02T12:07:34Z</time></trkpt><trkpt lat="45.77531628791872" lon="9.74064633843023"><ele>872.0</ele><time>2026-05-02T12:07:35Z</time></trkpt><trkpt lat="45.775252283145434" lon="9.740773401162624"><ele>872.0</ele><time>2026-05-02T12:07:36Z</time></trkpt><trkpt lat="45.775186378841774" lon="9.740901279987124"><ele>872.0</ele><time>2026-05-02T12:07:37Z</time></trkpt><trkpt lat="45.77511886185306" lon="9.741028171246006"><ele>872.0</ele><time>2026-05-02T12:07:38Z</time></trkpt><trkpt lat="45.77504805762178" lon="9.741143670145052"><ele>872.0</ele><time>2026-05-02T12:07:39Z</time></trkpt><trkpt lat="45.77497075080278" lon="9.741235404324106"><ele>870.6</ele><time>2026-05-02T12:07:40Z</time></trkpt><trkpt lat="45.77487853150127" lon="9.741300074998545"><ele>869.2</ele><time>2026-05-02T12:07:41Z</time></trkpt><trkpt lat="45.77477328345078" lon="9.741325012675539"><ele>867.8</ele><time>2026-05-02T12:07:42Z</time></trkpt><trkpt lat="45.77466454462474" lon="9.741309205155282"><ele>866.4</ele><time>2026-05-02T12:07:43Z</time></trkpt><trkpt lat="45.77455778836177" lon="9.741284624607864"><ele>865.0</ele><time>2026-05-02T12:07:44Z</time></trkpt><trkpt lat="45.774459263085014" lon="9.74132787904241"><ele>865.0</ele><time>2026-05-02T12:07:45Z</time></trkpt><trkpt lat="45.77437008757659" lon="9.741412004594114"><ele>865.0</ele><time>2026-05-02T12:07:46Z</time></trkpt><trkpt lat="45.77429243506021" lon="9.74152092244737"><ele>865.0</ele><time>2026-05-02T12:07:47Z</time></trkpt><trkpt lat="45.774219972615725" lon="9.741635631892937"><ele>865.0</ele><time>2026-05-02T12:07:48Z</time></trkpt><trkpt lat="45.774146773202396" lon="9.741752126405002"><ele>865.0</ele><time>2026-05-02T12:07:49Z</time></trkpt><trkpt lat="45.77406550353918" lon="9.741861120299236"><ele>861.8</ele><time>2026-05-02T12:07:50Z</time></trkpt><trkpt lat="45.77397349540477" lon="9.7419488821481"><ele>858.6</ele><time>2026-05-02T12:07:51Z</time></trkpt><trkpt lat="45.77388086581738" lon="9.74201029701772"><ele>855.4000000000001</ele><time>2026-05-02T12:07:52Z</time></trkpt><trkpt lat="45.773776250204534" lon="9.742042844538746"><ele>852.2</ele><time>2026-05-02T12:07:53Z</time></trkpt><trkpt lat="45.77366453006188" lon="9.742036164447606"><ele>849.0</ele><time>2026-05-02T12:07:54Z</time></trkpt><trkpt lat="45.773558665392535" lon="9.742004493357026"><ele>850.25</ele><time>2026-05-02T12:07:55Z</time></trkpt><trkpt lat="45.77345011754402" lon="9.741987095059475"><ele>851.5</ele><time>2026-05-02T12:07:56Z</time></trkpt><trkpt lat="45.773336801441005" lon="9.742010732978834"><ele>852.75</ele><time>2026-05-02T12:07:57Z</time></trkpt><trkpt lat="45.773226171884325" lon="9.74205154097912"><ele>854.0</ele><time>2026-05-02T12:07:58Z</time></trkpt><trkpt lat="45.77311423082007" lon="9.74209101028366"><ele>854.0</ele><time>2026-05-02T12:07:59Z</time></trkpt><trkpt lat="45.7730017232394" lon="9.742123619648886"><ele>854.0</ele><time>2026-05-02T12:08:00Z</time></trkpt><trkpt lat="45.77288621475063" lon="9.742145578474108"><ele>854.0</ele><time>2026-05-02T12:08:01Z</time></trkpt><trkpt lat="45.77276855771376" lon="9.742149067416351"><ele>854.0</ele><time>2026-05-02T12:08:02Z</time></trkpt><trkpt lat="45.772652153835736" lon="9.742126401475694"><ele>852.5</ele><time>2026-05-02T12:08:03Z</time></trkpt><trkpt lat="45.77253763278619" lon="9.742099223161686"><ele>851.0</ele><time>2026-05-02T12:08:04Z</time></trkpt><trkpt lat="45.77241773688345" lon="9.742101332523525"><ele>849.5</ele><time>2026-05-02T12:08:05Z</time></trkpt><trkpt lat="45.772299144050194" lon="9.742138929816116"><ele>848.0</ele><time>2026-05-02T12:08:06Z</time></trkpt><trkpt lat="45.772181359156626" lon="9.742186961872232"><ele>848.0</ele><time>2026-05-02T12:08:07Z</time></trkpt><trkpt lat="45.77206366693367" lon="9.742230555452466"><ele>848.0</ele><time>2026-05-02T12:08:08Z</time></trkpt><trkpt lat="45.77194546145613" lon="9.742283441501932"><ele>848.0</ele><time>2026-05-02T12:08:09Z</time></trkpt><trkpt lat="45.77183078107817" lon="9.742352278103347"><ele>848.0</ele><time>2026-05-02T12:08:10Z</time></trkpt><trkpt lat="45.77171633680802" lon="9.742421566319857"><ele>847.5999999999999</ele><time>2026-05-02T12:08:11Z</time></trkpt><trkpt lat="45.7716011045193" lon="9.742489771542482"><ele>847.1999999999999</ele><time>2026-05-02T12:08:12Z</time></trkpt><trkpt lat="45.77148766342466" lon="9.742537801853949"><ele>846.8</ele><time>2026-05-02T12:08:13Z</time></trkpt><trkpt lat="45.771383449778696" lon="9.742568784945272"><ele>846.4</ele><time>2026-05-02T12:08:14Z</time></trkpt><trkpt lat="45.77129458045459" lon="9.742577668098301"><ele>846.0</ele><time>2026-05-02T12:08:15Z</time></trkpt><trkpt lat="45.7712274224844" lon="9.742578668123357"><ele>846.0</ele><time>2026-05-02T12:08:16Z</time></trkpt><trkpt lat="45.771119768412305" lon="9.742488631304301"><ele>846.0</ele><time>2026-05-02T12:08:18Z</time></trkpt><trkpt lat="45.7710870722055" lon="9.742384664910402"><ele>846.0</ele><time>2026-05-02T12:08:19Z</time></trkpt><trkpt lat="45.77107613848859" lon="9.742271941062265"><ele>846.0</ele><time>2026-05-02T12:08:20Z</time></trkpt><trkpt lat="45.77106953169447" lon="9.7421595223219"><ele>846.0</ele><time>2026-05-02T12:08:21Z</time></trkpt><trkpt lat="45.771061456844734" lon="9.742044192219513"><ele>846.0</ele><time>2026-05-02T12:08:22Z</time></trkpt><trkpt lat="45.77105532534945" lon="9.741922274258346"><ele>850.1666666666666</ele><time>2026-05-02T12:08:23Z</time></trkpt><trkpt lat="45.771048321072925" lon="9.74179774946109"><ele>854.3333333333333</ele><time>2026-05-02T12:08:24Z</time></trkpt><trkpt lat="45.77104373968208" lon="9.741668461421796"><ele>858.5</ele><time>2026-05-02T12:08:25Z</time></trkpt><trkpt lat="45.771051689509136" lon="9.741543639497701"><ele>862.6666666666666</ele><time>2026-05-02T12:08:26Z</time></trkpt><trkpt lat="45.77107948439487" lon="9.741420357235732"><ele>866.8333333333333</ele><time>2026-05-02T12:08:27Z</time></trkpt><trkpt lat="45.77112065921021" lon="9.741299063107675"><ele>871.0</ele><time>2026-05-02T12:08:28Z</time></trkpt><trkpt lat="45.77116644527307" lon="9.741180064899652"><ele>870.9999999999999</ele><time>2026-05-02T12:08:29Z</time></trkpt><trkpt lat="45.77121952015087" lon="9.741069161104507"><ele>871.0</ele><time>2026-05-02T12:08:30Z</time></trkpt><trkpt lat="45.77127140470264" lon="9.740950469906444"><ele>871.0</ele><time>2026-05-02T12:08:31Z</time></trkpt><trkpt lat="45.7713213982124" lon="9.740838174049825"><ele>871.0</ele><time>2026-05-02T12:08:32Z</time></trkpt><trkpt lat="45.77138048692724" lon="9.740753914802346"><ele>870.9999999999999</ele><time>2026-05-02T12:08:33Z</time></trkpt><trkpt lat="45.77144601960777" lon="9.740706393417172"><ele>871.0</ele><time>2026-05-02T12:08:34Z</time></trkpt><trkpt lat="45.77152283670139" lon="9.740598298131877"><ele>868.5714285714286</ele><time>2026-05-02T12:08:36Z</time></trkpt><trkpt lat="45.77149533128814" lon="9.740516634334293"><ele>866.1428571428571</ele><time>2026-05-02T12:08:37Z</time></trkpt><trkpt lat="45.77142290683718" lon="9.740487865386724"><ele>863.7142857142858</ele><time>2026-05-02T12:08:38Z</time></trkpt><trkpt lat="45.771358862498566" lon="9.740542451238907"><ele>861.2857142857142</ele><time>2026-05-02T12:08:39Z</time></trkpt><trkpt lat="45.77130806225098" lon="9.740603844177027"><ele>858.8571428571429</ele><time>2026-05-02T12:08:40Z</time></trkpt><trkpt lat="45.771252109885666" lon="9.740670428122367"><ele>856.4285714285714</ele><time>2026-05-02T12:08:41Z</time></trkpt><trkpt lat="45.77121024544796" lon="9.740753465517328"><ele>854.0</ele><time>2026-05-02T12:08:42Z</time></trkpt><trkpt lat="45.77117467258067" lon="9.7408495953432"><ele>854.0000000000001</ele><time>2026-05-02T12:08:43Z</time></trkpt><trkpt lat="45.771130821829715" lon="9.740945329244562"><ele>854.0</ele><time>2026-05-02T12:08:44Z</time></trkpt><trkpt lat="45.77107163188512" lon="9.741032940753831"><ele>854.0</ele><time>2026-05-02T12:08:45Z</time></trkpt><trkpt lat="45.77101401976824" lon="9.741116358640124"><ele>854.0</ele><time>2026-05-02T12:08:46Z</time></trkpt><trkpt lat="45.77096312482748" lon="9.741209573772336"><ele>854.0000000000001</ele><time>2026-05-02T12:08:47Z</time></trkpt><trkpt lat="45.770918502705555" lon="9.741308888443431"><ele>854.0</ele><time>2026-05-02T12:08:48Z</time></trkpt><trkpt lat="45.770878916199216" lon="9.741414609755166"><ele>851.3333333333334</ele><time>2026-05-02T12:08:49Z</time></trkpt><trkpt lat="45.770852812018965" lon="9.741530252196299"><ele>848.6666666666667</ele><time>2026-05-02T12:08:50Z</time></trkpt><trkpt lat="45.77083927590862" lon="9.741652422424155"><ele>846.0</ele><time>2026-05-02T12:08:51Z</time></trkpt><trkpt lat="45.77082693492586" lon="9.74177488407872"><ele>843.3333333333333</ele><time>2026-05-02T12:08:52Z</time></trkpt><trkpt lat="45.77081515632952" lon="9.74189988170503"><ele>840.6666666666666</ele><time>2026-05-02T12:08:53Z</time></trkpt><trkpt lat="45.770796695657204" lon="9.742027091209094"><ele>838.0</ele><time>2026-05-02T12:08:54Z</time></trkpt><trkpt lat="45.77076637087982" lon="9.742155187221533"><ele>838.0</ele><time>2026-05-02T12:08:55Z</time></trkpt><trkpt lat="45.770714825050604" lon="9.742275742329939"><ele>838.0</ele><time>2026-05-02T12:08:56Z</time></trkpt><trkpt lat="45.77064735659449" lon="9.74237688929479"><ele>838.0</ele><time>2026-05-02T12:08:57Z</time></trkpt><trkpt lat="45.77056547997911" lon="9.742455032930167"><ele>838.0</ele><time>2026-05-02T12:08:58Z</time></trkpt><trkpt lat="45.77047344735873" lon="9.742511971639436"><ele>838.0</ele><time>2026-05-02T12:08:59Z</time></trkpt><trkpt lat="45.770383783316994" lon="9.742541409838442"><ele>837.9999999999999</ele><time>2026-05-02T12:09:00Z</time></trkpt><trkpt lat="45.77031311054949" lon="9.742583957595581"><ele>838.0</ele><time>2026-05-02T12:09:01Z</time></trkpt><trkpt lat="45.77026338290414" lon="9.742669164581669"><ele>838.0</ele><time>2026-05-02T12:09:02Z</time></trkpt><trkpt lat="45.77025519748175" lon="9.742780551919285"><ele>838.0</ele><time>2026-05-02T12:09:03Z</time></trkpt><trkpt lat="45.770294381107874" lon="9.742894881325183"><ele>837.9999999999999</ele><time>2026-05-02T12:09:04Z</time></trkpt><trkpt lat="45.77035289401963" lon="9.742977410087256"><ele>838.0</ele><time>2026-05-02T12:09:05Z</time></trkpt><trkpt lat="45.77040308861864" lon="9.743069266107582"><ele>835.3333333333333</ele><time>2026-05-02T12:09:06Z</time></trkpt><trkpt lat="45.77045482272088" lon="9.743161786026128"><ele>832.6666666666666</ele><time>2026-05-02T12:09:07Z</time></trkpt><trkpt lat="45.770507099956774" lon="9.743254928091503"><ele>830.0</ele><time>2026-05-02T12:09:08Z</time></trkpt><trkpt lat="45.77055196701821" lon="9.743340007621343"><ele>827.3333333333333</ele><time>2026-05-02T12:09:09Z</time></trkpt><trkpt lat="45.7705989668328" lon="9.743416522770385"><ele>824.6666666666666</ele><time>2026-05-02T12:09:10Z</time></trkpt><trkpt lat="45.770649504216436" lon="9.743473664213791"><ele>822.0</ele><time>2026-05-02T12:09:11Z</time></trkpt><trkpt lat="45.7706485876917" lon="9.743588559371096"><ele>822.0</ele><time>2026-05-02T12:09:13Z</time></trkpt><trkpt lat="45.77055195070049" lon="9.743558568087417"><ele>822.0</ele><time>2026-05-02T12:09:15Z</time></trkpt><trkpt lat="45.77052061434562" lon="9.743477422814166"><ele>822.0</ele><time>2026-05-02T12:09:16Z</time></trkpt><trkpt lat="45.77044512775834" lon="9.743339816740546"><ele>822.0</ele><time>2026-05-02T12:09:18Z</time></trkpt><trkpt lat="45.77039552007501" lon="9.743271051085944"><ele>822.0</ele><time>2026-05-02T12:09:19Z</time></trkpt><trkpt lat="45.7703444711002" lon="9.743198904208214"><ele>822.0</ele><time>2026-05-02T12:09:20Z</time></trkpt><trkpt lat="45.77028887230755" lon="9.743121765019204"><ele>822.0</ele><time>2026-05-02T12:09:21Z</time></trkpt><trkpt lat="45.77023486913014" lon="9.743050699042694"><ele>822.0</ele><time>2026-05-02T12:09:22Z</time></trkpt><trkpt lat="45.77017526189945" lon="9.742976307276447"><ele>822.0</ele><time>2026-05-02T12:09:23Z</time></trkpt><trkpt lat="45.77011325176638" lon="9.742898091787858"><ele>822.0</ele><time>2026-05-02T12:09:24Z</time></trkpt><trkpt lat="45.77005224904527" lon="9.742812471464358"><ele>822.0</ele><time>2026-05-02T12:09:25Z</time></trkpt><trkpt lat="45.7700108474642" lon="9.742700908324327"><ele>822.0</ele><time>2026-05-02T12:09:26Z</time></trkpt><trkpt lat="45.77000036331221" lon="9.742574323848467"><ele>825.2</ele><time>2026-05-02T12:09:27Z</time></trkpt><trkpt lat="45.77002402011706" lon="9.742445593697196"><ele>828.4000000000001</ele><time>2026-05-02T12:09:28Z</time></trkpt><trkpt lat="45.77007241386438" lon="9.742343456118078"><ele>831.5999999999999</ele><time>2026-05-02T12:09:29Z</time></trkpt><trkpt lat="45.77014909385633" lon="9.742271057420828"><ele>834.8</ele><time>2026-05-02T12:09:30Z</time></trkpt><trkpt lat="45.77022985052189" lon="9.742214580183154"><ele>838.0</ele><time>2026-05-02T12:09:31Z</time></trkpt><trkpt lat="45.770312480101545" lon="9.74216249496276"><ele>838.0</ele><time>2026-05-02T12:09:32Z</time></trkpt><trkpt lat="45.77038740559759" lon="9.742086219685515"><ele>838.0</ele><time>2026-05-02T12:09:33Z</time></trkpt><trkpt lat="45.77044374257502" lon="9.7419756657802"><ele>838.0</ele><time>2026-05-02T12:09:34Z</time></trkpt><trkpt lat="45.77047809771145" lon="9.741838350071134"><ele>838.0</ele><time>2026-05-02T12:09:35Z</time></trkpt><trkpt lat="45.77049673393885" lon="9.741701343248954"><ele>838.0</ele><time>2026-05-02T12:09:36Z</time></trkpt><trkpt lat="45.77051459963424" lon="9.741562919475099"><ele>836.5999999999999</ele><time>2026-05-02T12:09:37Z</time></trkpt><trkpt lat="45.77054585712039" lon="9.741427522193872"><ele>835.1999999999999</ele><time>2026-05-02T12:09:38Z</time></trkpt><trkpt lat="45.77060329611299" lon="9.741304676233884"><ele>833.8</ele><time>2026-05-02T12:09:39Z</time></trkpt><trkpt lat="45.77066223232961" lon="9.74118321860808"><ele>832.4</ele><time>2026-05-02T12:09:40Z</time></trkpt><trkpt lat="45.77070822530663" lon="9.741046108440512"><ele>831.0</ele><time>2026-05-02T12:09:41Z</time></trkpt><trkpt lat="45.77074779822015" lon="9.740901379088116"><ele>827.6666666666666</ele><time>2026-05-02T12:09:42Z</time></trkpt><trkpt lat="45.77078527573583" lon="9.740754829612133"><ele>824.3333333333333</ele><time>2026-05-02T12:09:43Z</time></trkpt><trkpt lat="45.770824378587264" lon="9.740617422641817"><ele>821.0</ele><time>2026-05-02T12:09:44Z</time></trkpt><trkpt lat="45.770864515704275" lon="9.740501448919991"><ele>817.6666666666666</ele><time>2026-05-02T12:09:45Z</time></trkpt><trkpt lat="45.770904824597935" lon="9.740410199280005"><ele>814.3333333333333</ele><time>2026-05-02T12:09:46Z</time></trkpt><trkpt lat="45.77094585221283" lon="9.740331460556625"><ele>811.0</ele><time>2026-05-02T12:09:47Z</time></trkpt><trkpt lat="45.77096906736021" lon="9.7401822727219"><ele>811.0</ele><time>2026-05-02T12:09:49Z</time></trkpt><trkpt lat="45.770875038881364" lon="9.740130095607334"><ele>811.0</ele><time>2026-05-02T12:09:51Z</time></trkpt><trkpt lat="45.77081198876503" lon="9.740247615136042"><ele>811.0</ele><time>2026-05-02T12:09:53Z</time></trkpt><trkpt lat="45.77076980619729" lon="9.740414937078361"><ele>811.0</ele><time>2026-05-02T12:09:55Z</time></trkpt><trkpt lat="45.77073659402155" lon="9.74050053925344"><ele>811.0</ele><time>2026-05-02T12:09:56Z</time></trkpt><trkpt lat="45.77070215785014" lon="9.740593935413969"><ele>810.9999999999999</ele><time>2026-05-02T12:09:57Z</time></trkpt><trkpt lat="45.770667649857586" lon="9.74068936742222"><ele>811.0</ele><time>2026-05-02T12:09:58Z</time></trkpt><trkpt lat="45.77063089009079" lon="9.740787272841075"><ele>811.0</ele><time>2026-05-02T12:09:59Z</time></trkpt><trkpt lat="45.77059283316524" lon="9.740889515373851"><ele>811.0</ele><time>2026-05-02T12:10:00Z</time></trkpt><trkpt lat="45.77054802781659" lon="9.740991533748895"><ele>810.9999999999999</ele><time>2026-05-02T12:10:01Z</time></trkpt><trkpt lat="45.77049720824859" lon="9.741088892018356"><ele>811.0</ele><time>2026-05-02T12:10:02Z</time></trkpt><trkpt lat="45.77043326737822" lon="9.74117653976511"><ele>815.0</ele><time>2026-05-02T12:10:03Z</time></trkpt><trkpt lat="45.77036814184297" lon="9.741257694866693"><ele>819.0</ele><time>2026-05-02T12:10:04Z</time></trkpt><trkpt lat="45.77031176181785" lon="9.741359016039072"><ele>823.0</ele><time>2026-05-02T12:10:05Z</time></trkpt><trkpt lat="45.770276684387674" lon="9.741481765475058"><ele>827.0</ele><time>2026-05-02T12:10:06Z</time></trkpt><trkpt lat="45.770253273962275" lon="9.741614412310202"><ele>831.0</ele><time>2026-05-02T12:10:07Z</time></trkpt><trkpt lat="45.77022064209378" lon="9.74173347523549"><ele>824.5999999999999</ele><time>2026-05-02T12:10:08Z</time></trkpt><trkpt lat="45.770142694993666" lon="9.741821698648932"><ele>818.2</ele><time>2026-05-02T12:10:09Z</time></trkpt><trkpt lat="45.77004554392084" lon="9.7418643844088"><ele>811.8</ele><time>2026-05-02T12:10:10Z</time></trkpt><trkpt lat="45.7699520099817" lon="9.74190620447942"><ele>805.4000000000001</ele><time>2026-05-02T12:10:11Z</time></trkpt><trkpt lat="45.76986461918143" lon="9.741972812287626"><ele>799.0</ele><time>2026-05-02T12:10:12Z</time></trkpt><trkpt lat="45.769785549999675" lon="9.742063253733855"><ele>799.0</ele><time>2026-05-02T12:10:13Z</time></trkpt><trkpt lat="45.769708814087465" lon="9.742160106412271"><ele>799.0</ele><time>2026-05-02T12:10:14Z</time></trkpt><trkpt lat="45.76963589852132" lon="9.742267331534075"><ele>799.0</ele><time>2026-05-02T12:10:15Z</time></trkpt><trkpt lat="45.76956354302943" lon="9.74237764386589"><ele>799.0</ele><time>2026-05-02T12:10:16Z</time></trkpt><trkpt lat="45.7695075949523" lon="9.742507348780574"><ele>799.0</ele><time>2026-05-02T12:10:17Z</time></trkpt><trkpt lat="45.76946379843785" lon="9.74264889870853"><ele>798.0</ele><time>2026-05-02T12:10:18Z</time></trkpt><trkpt lat="45.76943703316893" lon="9.742794474356232"><ele>797.0</ele><time>2026-05-02T12:10:19Z</time></trkpt><trkpt lat="45.769437117083704" lon="9.742944763994707"><ele>796.0</ele><time>2026-05-02T12:10:20Z</time></trkpt><trkpt lat="45.769461189410855" lon="9.743083611157568"><ele>795.0</ele><time>2026-05-02T12:10:21Z</time></trkpt><trkpt lat="45.76951089499323" lon="9.743207634062108"><ele>794.0</ele><time>2026-05-02T12:10:22Z</time></trkpt><trkpt lat="45.769579588684685" lon="9.74331638033225"><ele>794.0</ele><time>2026-05-02T12:10:23Z</time></trkpt><trkpt lat="45.76965313420727" lon="9.743420083068461"><ele>794.0</ele><time>2026-05-02T12:10:24Z</time></trkpt><trkpt lat="45.76972869980447" lon="9.743523883209066"><ele>794.0</ele><time>2026-05-02T12:10:25Z</time></trkpt><trkpt lat="45.769805995539194" lon="9.743626506795737"><ele>794.0</ele><time>2026-05-02T12:10:26Z</time></trkpt><trkpt lat="45.76988500562269" lon="9.743732277095216"><ele>794.0</ele><time>2026-05-02T12:10:27Z</time></trkpt><trkpt lat="45.769963338958796" lon="9.743832067012928"><ele>789.8000000000001</ele><time>2026-05-02T12:10:28Z</time></trkpt><trkpt lat="45.77002570760175" lon="9.743937358527536"><ele>785.6</ele><time>2026-05-02T12:10:29Z</time></trkpt><trkpt lat="45.77005987151336" lon="9.744070211832792"><ele>781.4</ele><time>2026-05-02T12:10:30Z</time></trkpt><trkpt lat="45.77005722665318" lon="9.74422141032653"><ele>777.2</ele><time>2026-05-02T12:10:31Z</time></trkpt><trkpt lat="45.77005431092331" lon="9.74436260100629"><ele>773.0</ele><time>2026-05-02T12:10:32Z</time></trkpt><trkpt lat="45.7700887128295" lon="9.744505453993412"><ele>773.5999999999999</ele><time>2026-05-02T12:10:33Z</time></trkpt><trkpt lat="45.77014871122897" lon="9.744632661066307"><ele>774.1999999999999</ele><time>2026-05-02T12:10:34Z</time></trkpt><trkpt lat="45.77021711094502" lon="9.744748925651278"><ele>774.8</ele><time>2026-05-02T12:10:35Z</time></trkpt><trkpt lat="45.77026793263653" lon="9.744867471061488"><ele>775.4</ele><time>2026-05-02T12:10:36Z</time></trkpt><trkpt lat="45.77029697151881" lon="9.745008160851468"><ele>776.0</ele><time>2026-05-02T12:10:37Z</time></trkpt><trkpt lat="45.77029095018431" lon="9.745160767921044"><ele>771.4</ele><time>2026-05-02T12:10:38Z</time></trkpt><trkpt lat="45.77025748017935" lon="9.745307652541099"><ele>766.8</ele><time>2026-05-02T12:10:39Z</time></trkpt><trkpt lat="45.770211461333346" lon="9.745448731217605"><ele>762.1999999999999</ele><time>2026-05-02T12:10:40Z</time></trkpt><trkpt lat="45.770167271829074" lon="9.745593110618952"><ele>757.5999999999999</ele><time>2026-05-02T12:10:41Z</time></trkpt><trkpt lat="45.770119830914794" lon="9.745738295963701"><ele>753.0</ele><time>2026-05-02T12:10:42Z</time></trkpt><trkpt lat="45.77006388528248" lon="9.745884391076688"><ele>753.0</ele><time>2026-05-02T12:10:43Z</time></trkpt><trkpt lat="45.76998546947756" lon="9.746002311483837"><ele>753.0</ele><time>2026-05-02T12:10:44Z</time></trkpt><trkpt lat="45.76989555543089" lon="9.746102756105351"><ele>753.0</ele><time>2026-05-02T12:10:45Z</time></trkpt><trkpt lat="45.76980060021041" lon="9.746192909711713"><ele>753.0</ele><time>2026-05-02T12:10:46Z</time></trkpt><trkpt lat="45.769709500256816" lon="9.746277392490356"><ele>751.3333333333334</ele><time>2026-05-02T12:10:47Z</time></trkpt><trkpt lat="45.769624077311576" lon="9.746351502961954"><ele>749.6666666666666</ele><time>2026-05-02T12:10:48Z</time></trkpt><trkpt lat="45.7695458649176" lon="9.746425922335868"><ele>748.0</ele><time>2026-05-02T12:10:49Z</time></trkpt><trkpt lat="45.76947259243956" lon="9.746494314521277"><ele>746.3333333333333</ele><time>2026-05-02T12:10:50Z</time></trkpt><trkpt lat="45.76940314432164" lon="9.746559043943801"><ele>744.6666666666666</ele><time>2026-05-02T12:10:51Z</time></trkpt><trkpt lat="45.76934786950139" lon="9.746603298227036"><ele>743.0</ele><time>2026-05-02T12:10:52Z</time></trkpt><trkpt lat="45.769248179424196" lon="9.746580960825334"><ele>743.0</ele><time>2026-05-02T12:10:54Z</time></trkpt><trkpt lat="45.76926215667937" lon="9.746451777823511"><ele>743.0</ele><time>2026-05-02T12:10:56Z</time></trkpt><trkpt lat="45.76932475439904" lon="9.746420464743133"><ele>743.0</ele><time>2026-05-02T12:10:57Z</time></trkpt><trkpt lat="45.76938683902391" lon="9.746404299092504"><ele>743.0</ele><time>2026-05-02T12:10:58Z</time></trkpt><trkpt lat="45.76944626949371" lon="9.746373949344274"><ele>743.0</ele><time>2026-05-02T12:10:59Z</time></trkpt><trkpt lat="45.769508795589466" lon="9.746331269869415"><ele>743.0</ele><time>2026-05-02T12:11:00Z</time></trkpt><trkpt lat="45.769571094316014" lon="9.746278313678877"><ele>743.0</ele><time>2026-05-02T12:11:01Z</time></trkpt><trkpt lat="45.76962903170552" lon="9.746210234604758"><ele>742.3333333333333</ele><time>2026-05-02T12:11:02Z</time></trkpt><trkpt lat="45.769680428204644" lon="9.746129396555375"><ele>741.6666666666666</ele><time>2026-05-02T12:11:03Z</time></trkpt><trkpt lat="45.76972904432327" lon="9.746042767460718"><ele>741.0</ele><time>2026-05-02T12:11:04Z</time></trkpt><trkpt lat="45.76978138874469" lon="9.745955643989838"><ele>740.3333333333334</ele><time>2026-05-02T12:11:05Z</time></trkpt><trkpt lat="45.76983316608174" lon="9.745864267002764"><ele>739.6666666666667</ele><time>2026-05-02T12:11:06Z</time></trkpt><trkpt lat="45.76988073055113" lon="9.74575864001429"><ele>739.0</ele><time>2026-05-02T12:11:07Z</time></trkpt><trkpt lat="45.769916011834944" lon="9.745643467195768"><ele>741.8000000000001</ele><time>2026-05-02T12:11:08Z</time></trkpt><trkpt lat="45.769944613346205" lon="9.745522898270716"><ele>744.6</ele><time>2026-05-02T12:11:09Z</time></trkpt><trkpt lat="45.76996680887612" lon="9.745394953803155"><ele>747.4</ele><time>2026-05-02T12:11:10Z</time></trkpt><trkpt lat="45.76997206806625" lon="9.745262699482689"><ele>750.2</ele><time>2026-05-02T12:11:11Z</time></trkpt><trkpt lat="45.76993484339132" lon="9.745128591728143"><ele>753.0</ele><time>2026-05-02T12:11:12Z</time></trkpt><trkpt lat="45.7698663333" lon="9.745027626157103"><ele>754.2</ele><time>2026-05-02T12:11:13Z</time></trkpt><trkpt lat="45.7697911575352" lon="9.74493954757766"><ele>755.4</ele><time>2026-05-02T12:11:14Z</time></trkpt><trkpt lat="45.76971722983544" lon="9.744849236289614"><ele>756.6</ele><time>2026-05-02T12:11:15Z</time></trkpt><trkpt lat="45.76965665391394" lon="9.744734117131399"><ele>757.8000000000001</ele><time>2026-05-02T12:11:16Z</time></trkpt><trkpt lat="45.76961833908116" lon="9.744598941942451"><ele>759.0</ele><time>2026-05-02T12:11:17Z</time></trkpt><trkpt lat="45.769586100259694" lon="9.744457521477164"><ele>761.8000000000001</ele><time>2026-05-02T12:11:18Z</time></trkpt><trkpt lat="45.769556436135446" lon="9.744318558847997"><ele>764.6</ele><time>2026-05-02T12:11:19Z</time></trkpt><trkpt lat="45.769512474573105" lon="9.744187115897068"><ele>767.4</ele><time>2026-05-02T12:11:20Z</time></trkpt><trkpt lat="45.769433917607536" lon="9.744085771460073"><ele>770.2</ele><time>2026-05-02T12:11:21Z</time></trkpt><trkpt lat="45.76934749037267" lon="9.743992957891134"><ele>773.0</ele><time>2026-05-02T12:11:22Z</time></trkpt><trkpt lat="45.7692583044832" lon="9.743908925843938"><ele>769.2</ele><time>2026-05-02T12:11:23Z</time></trkpt><trkpt lat="45.76916671383265" lon="9.743835810526814"><ele>765.4</ele><time>2026-05-02T12:11:24Z</time></trkpt><trkpt lat="45.76907522454485" lon="9.743758008436556"><ele>761.6</ele><time>2026-05-02T12:11:25Z</time></trkpt><trkpt lat="45.768990029975825" lon="9.743669605132633"><ele>757.8000000000001</ele><time>2026-05-02T12:11:26Z</time></trkpt><trkpt lat="45.768915177952394" lon="9.743560170513689"><ele>754.0</ele><time>2026-05-02T12:11:27Z</time></trkpt><trkpt lat="45.7688564557622" lon="9.743438866653525"><ele>754.0</ele><time>2026-05-02T12:11:28Z</time></trkpt><trkpt lat="45.768815868302895" lon="9.743323910040138"><ele>754.0</ele><time>2026-05-02T12:11:29Z</time></trkpt><trkpt lat="45.76879088514715" lon="9.74320960893738"><ele>754.0</ele><time>2026-05-02T12:11:30Z</time></trkpt><trkpt lat="45.76878970453169" lon="9.743083136069863"><ele>754.0</ele><time>2026-05-02T12:11:31Z</time></trkpt><trkpt lat="45.76880770852532" lon="9.742983337311253"><ele>754.0</ele><time>2026-05-02T12:11:32Z</time></trkpt><trkpt lat="45.76872894887766" lon="9.742864675134278"><ele>754.0</ele><time>2026-05-02T12:11:34Z</time></trkpt><trkpt lat="45.76866127357642" lon="9.742902202964144"><ele>753.9999999999999</ele><time>2026-05-02T12:11:35Z</time></trkpt><trkpt lat="45.768635391200945" lon="9.742997408322486"><ele>754.0</ele><time>2026-05-02T12:11:36Z</time></trkpt><trkpt lat="45.768648531983196" lon="9.743091887778359"><ele>754.0</ele><time>2026-05-02T12:11:37Z</time></trkpt><trkpt lat="45.76867066744035" lon="9.743182587225682"><ele>754.0</ele><time>2026-05-02T12:11:38Z</time></trkpt><trkpt lat="45.7686863964131" lon="9.743279687988123"><ele>754.0</ele><time>2026-05-02T12:11:39Z</time></trkpt><trkpt lat="45.76869785982458" lon="9.743388911551401"><ele>753.9999999999999</ele><time>2026-05-02T12:11:40Z</time></trkpt><trkpt lat="45.76871517657113" lon="9.743491080737579"><ele>754.0</ele><time>2026-05-02T12:11:41Z</time></trkpt><trkpt lat="45.768745046007055" lon="9.743594279367688"><ele>750.8333333333334</ele><time>2026-05-02T12:11:42Z</time></trkpt><trkpt lat="45.76878546945191" lon="9.743694145207842"><ele>747.6666666666667</ele><time>2026-05-02T12:11:43Z</time></trkpt><trkpt lat="45.76883588276703" lon="9.743788276659362"><ele>744.5</ele><time>2026-05-02T12:11:44Z</time></trkpt><trkpt lat="45.76889458549594" lon="9.743873417611612"><ele>741.3333333333334</ele><time>2026-05-02T12:11:45Z</time></trkpt><trkpt lat="45.76895943174099" lon="9.743957761335334"><ele>738.1666666666666</ele><time>2026-05-02T12:11:46Z</time></trkpt><trkpt lat="45.76902061635268" lon="9.744049589732644"><ele>735.0</ele><time>2026-05-02T12:11:47Z</time></trkpt><trkpt lat="45.76908496004299" lon="9.744140453074195"><ele>735.0</ele><time>2026-05-02T12:11:48Z</time></trkpt><trkpt lat="45.769149981646855" lon="9.744232013619031"><ele>735.0</ele><time>2026-05-02T12:11:49Z</time></trkpt><trkpt lat="45.76921187334768" lon="9.744333358053554"><ele>735.0</ele><time>2026-05-02T12:11:50Z</time></trkpt><trkpt lat="45.76925650399676" lon="9.744459773515482"><ele>735.0</ele><time>2026-05-02T12:11:51Z</time></trkpt><trkpt lat="45.769272115116806" lon="9.74459837050132"><ele>735.0</ele><time>2026-05-02T12:11:52Z</time></trkpt><trkpt lat="45.769279953538735" lon="9.744738724454754"><ele>732.0</ele><time>2026-05-02T12:11:53Z</time></trkpt><trkpt lat="45.76929901513035" lon="9.744883895614038"><ele>729.0</ele><time>2026-05-02T12:11:54Z</time></trkpt><trkpt lat="45.769322906354624" lon="9.7450231609489"><ele>726.0</ele><time>2026-05-02T12:11:55Z</time></trkpt><trkpt lat="45.76935750090346" lon="9.745159558015887"><ele>723.0</ele><time>2026-05-02T12:11:56Z</time></trkpt><trkpt lat="45.76938718990105" lon="9.745282767449341"><ele>720.0</ele><time>2026-05-02T12:11:57Z</time></trkpt><trkpt lat="45.769386138860035" lon="9.745402737028948"><ele>721.8</ele><time>2026-05-02T12:11:58Z</time></trkpt><trkpt lat="45.76934246811441" lon="9.745524676046784"><ele>723.6</ele><time>2026-05-02T12:11:59Z</time></trkpt><trkpt lat="45.76926512294577" lon="9.745605608194309"><ele>725.4000000000001</ele><time>2026-05-02T12:12:00Z</time></trkpt><trkpt lat="45.769181446277045" lon="9.74566688824019"><ele>727.2</ele><time>2026-05-02T12:12:01Z</time></trkpt><trkpt lat="45.76909812570389" lon="9.745731357950426"><ele>729.0</ele><time>2026-05-02T12:12:02Z</time></trkpt><trkpt lat="45.76901460977941" lon="9.745788545265116"><ele>729.0</ele><time>2026-05-02T12:12:03Z</time></trkpt><trkpt lat="45.768922169335056" lon="9.745849073536613"><ele>729.0</ele><time>2026-05-02T12:12:04Z</time></trkpt><trkpt lat="45.768829715387746" lon="9.745902617789168"><ele>729.0</ele><time>2026-05-02T12:12:05Z</time></trkpt><trkpt lat="45.76873316114686" lon="9.74594623293717"><ele>729.0</ele><time>2026-05-02T12:12:06Z</time></trkpt><trkpt lat="45.768632604811934" lon="9.745992006110063"><ele>729.0</ele><time>2026-05-02T12:12:07Z</time></trkpt><trkpt lat="45.768535595698474" lon="9.74604767615926"><ele>726.4000000000001</ele><time>2026-05-02T12:12:08Z</time></trkpt><trkpt lat="45.76844238689913" lon="9.74611180311139"><ele>723.8</ele><time>2026-05-02T12:12:09Z</time></trkpt><trkpt lat="45.76834991461514" lon="9.746196341895706"><ele>721.2</ele><time>2026-05-02T12:12:10Z</time></trkpt><trkpt lat="45.76827977530636" lon="9.746316099052722"><ele>718.5999999999999</ele><time>2026-05-02T12:12:11Z</time></trkpt><trkpt lat="45.76823792196744" lon="9.746457579716058"><ele>716.0</ele><time>2026-05-02T12:12:12Z</time></trkpt><trkpt lat="45.76820121391883" lon="9.746600834729865"><ele>716.0</ele><time>2026-05-02T12:12:13Z</time></trkpt><trkpt lat="45.76817454278842" lon="9.746747376526036"><ele>716.0</ele><time>2026-05-02T12:12:14Z</time></trkpt><trkpt lat="45.768149588437495" lon="9.746893696086453"><ele>716.0</ele><time>2026-05-02T12:12:15Z</time></trkpt><trkpt lat="45.76811918228649" lon="9.747040161479337"><ele>716.0</ele><time>2026-05-02T12:12:16Z</time></trkpt><trkpt lat="45.768091240574016" lon="9.747185139439237"><ele>716.0</ele><time>2026-05-02T12:12:17Z</time></trkpt><trkpt lat="45.76806040028058" lon="9.747326902730352"><ele>715.1999999999999</ele><time>2026-05-02T12:12:18Z</time></trkpt><trkpt lat="45.76802177319077" lon="9.747461397573582"><ele>714.4</ele><time>2026-05-02T12:12:19Z</time></trkpt><trkpt lat="45.76798907355696" lon="9.74759275028721"><ele>713.6</ele><time>2026-05-02T12:12:20Z</time></trkpt><trkpt lat="45.767973586071165" lon="9.747723022922743"><ele>712.8</ele><time>2026-05-02T12:12:21Z</time></trkpt><trkpt lat="45.76796798264428" lon="9.74782987548176"><ele>712.0</ele><time>2026-05-02T12:12:22Z</time></trkpt><trkpt lat="45.76790869766686" lon="9.747948368394956"><ele>712.0</ele><time>2026-05-02T12:12:24Z</time></trkpt><trkpt lat="45.76784074085653" lon="9.747864950788001"><ele>712.0</ele><time>2026-05-02T12:12:26Z</time></trkpt><trkpt lat="45.767855215980894" lon="9.74777066758611"><ele>712.0</ele><time>2026-05-02T12:12:27Z</time></trkpt><trkpt lat="45.76789479402495" lon="9.747694176089203"><ele>712.0</ele><time>2026-05-02T12:12:28Z</time></trkpt><trkpt lat="45.767950299458924" lon="9.747539138718812"><ele>712.0</ele><time>2026-05-02T12:12:30Z</time></trkpt><trkpt lat="45.767966565743976" lon="9.747450325940441"><ele>712.0</ele><time>2026-05-02T12:12:31Z</time></trkpt><trkpt lat="45.76799071209381" lon="9.747352712512264"><ele>712.6666666666667</ele><time>2026-05-02T12:12:32Z</time></trkpt><trkpt lat="45.7680075967192" lon="9.747261168582193"><ele>713.3333333333334</ele><time>2026-05-02T12:12:33Z</time></trkpt><trkpt lat="45.7680178989368" lon="9.74715891731978"><ele>714.0</ele><time>2026-05-02T12:12:34Z</time></trkpt><trkpt lat="45.76801910483555" lon="9.747049013638534"><ele>714.6666666666666</ele><time>2026-05-02T12:12:35Z</time></trkpt><trkpt lat="45.76802051208888" lon="9.746936626822771"><ele>715.3333333333333</ele><time>2026-05-02T12:12:36Z</time></trkpt><trkpt lat="45.768026432250686" lon="9.746823312176465"><ele>716.0</ele><time>2026-05-02T12:12:37Z</time></trkpt><trkpt lat="45.7680330235185" lon="9.74670317825474"><ele>716.0</ele><time>2026-05-02T12:12:38Z</time></trkpt><trkpt lat="45.76804402320789" lon="9.746575660324503"><ele>716.0</ele><time>2026-05-02T12:12:39Z</time></trkpt><trkpt lat="45.76805685104444" lon="9.746444474738906"><ele>716.0</ele><time>2026-05-02T12:12:40Z</time></trkpt><trkpt lat="45.76807441837071" lon="9.746310893473392"><ele>716.0</ele><time>2026-05-02T12:12:41Z</time></trkpt><trkpt lat="45.7681023727824" lon="9.746174949799265"><ele>716.0</ele><time>2026-05-02T12:12:42Z</time></trkpt><trkpt lat="45.76814365716686" lon="9.746041477985502"><ele>718.5999999999999</ele><time>2026-05-02T12:12:43Z</time></trkpt><trkpt lat="45.76819327388352" lon="9.745915146480316"><ele>721.2</ele><time>2026-05-02T12:12:44Z</time></trkpt><trkpt lat="45.768264696598465" lon="9.745804663131961"><ele>723.8</ele><time>2026-05-02T12:12:45Z</time></trkpt><trkpt lat="45.76834810113835" lon="9.745708460219031"><ele>726.4000000000001</ele><time>2026-05-02T12:12:46Z</time></trkpt><trkpt lat="45.768439657382444" lon="9.745612633284553"><ele>729.0</ele><time>2026-05-02T12:12:47Z</time></trkpt><trkpt lat="45.76853797590709" lon="9.745523736698372"><ele>729.0</ele><time>2026-05-02T12:12:48Z</time></trkpt><trkpt lat="45.768623271692476" lon="9.745442932712999"><ele>729.0</ele><time>2026-05-02T12:12:49Z</time></trkpt><trkpt lat="45.768702644002275" lon="9.74537988595921"><ele>729.0</ele><time>2026-05-02T12:12:50Z</time></trkpt><trkpt lat="45.76875804859595" lon="9.745306969865752"><ele>729.0</ele><time>2026-05-02T12:12:51Z</time></trkpt><trkpt lat="45.76877055790455" lon="9.74520157405922"><ele>729.0</ele><time>2026-05-02T12:12:52Z</time></trkpt><trkpt lat="45.7687376696238" lon="9.745098432653304"><ele>729.0</ele><time>2026-05-02T12:12:53Z</time></trkpt><trkpt lat="45.768695483557586" lon="9.745005621834345"><ele>727.5</ele><time>2026-05-02T12:12:54Z</time></trkpt><trkpt lat="45.768653215680324" lon="9.744911747756454"><ele>726.0</ele><time>2026-05-02T12:12:55Z</time></trkpt><trkpt lat="45.768600782922945" lon="9.744824086099907"><ele>724.5</ele><time>2026-05-02T12:12:56Z</time></trkpt><trkpt lat="45.76853967497079" lon="9.744744926558266"><ele>723.0</ele><time>2026-05-02T12:12:57Z</time></trkpt><trkpt lat="45.76847283317813" lon="9.744671145937438"><ele>721.5</ele><time>2026-05-02T12:12:58Z</time></trkpt><trkpt lat="45.768407694625125" lon="9.744597283334993"><ele>720.0</ele><time>2026-05-02T12:12:59Z</time></trkpt><trkpt lat="45.76834316179833" lon="9.744513113673957"><ele>715.4</ele><time>2026-05-02T12:13:00Z</time></trkpt><trkpt lat="45.768275854781955" lon="9.744427833176688"><ele>710.8</ele><time>2026-05-02T12:13:01Z</time></trkpt><trkpt lat="45.76820977741983" lon="9.744339163301195"><ele>706.2</ele><time>2026-05-02T12:13:02Z</time></trkpt><trkpt lat="45.76813697781807" lon="9.744251603468163"><ele>701.6</ele><time>2026-05-02T12:13:03Z</time></trkpt><trkpt lat="45.768064352644494" lon="9.744160180206544"><ele>697.0</ele><time>2026-05-02T12:13:04Z</time></trkpt><trkpt lat="45.767996956962406" lon="9.744066987774485"><ele>697.0</ele><time>2026-05-02T12:13:05Z</time></trkpt><trkpt lat="45.767941916425144" lon="9.743973005682252"><ele>697.0</ele><time>2026-05-02T12:13:06Z</time></trkpt><trkpt lat="45.767895058644555" lon="9.74387858239572"><ele>697.0</ele><time>2026-05-02T12:13:07Z</time></trkpt><trkpt lat="45.76787112703925" lon="9.743771627490474"><ele>697.0</ele><time>2026-05-02T12:13:08Z</time></trkpt><trkpt lat="45.76787493984885" lon="9.743662279263436"><ele>697.0</ele><time>2026-05-02T12:13:09Z</time></trkpt><trkpt lat="45.76789374588042" lon="9.743572954719218"><ele>697.0</ele><time>2026-05-02T12:13:10Z</time></trkpt><trkpt lat="45.76779621797546" lon="9.743488652239972"><ele>697.0</ele><time>2026-05-02T12:13:12Z</time></trkpt><trkpt lat="45.76774358366224" lon="9.743539754442342"><ele>697.0</ele><time>2026-05-02T12:13:13Z</time></trkpt><trkpt lat="45.76772495339916" lon="9.743638864258033"><ele>697.0</ele><time>2026-05-02T12:13:14Z</time></trkpt><trkpt lat="45.767735274363474" lon="9.743739182695206"><ele>697.0</ele><time>2026-05-02T12:13:15Z</time></trkpt><trkpt lat="45.76775582094215" lon="9.74383835801559"><ele>697.0</ele><time>2026-05-02T12:13:16Z</time></trkpt><trkpt lat="45.76778212163939" lon="9.743932713877877"><ele>697.0</ele><time>2026-05-02T12:13:17Z</time></trkpt><trkpt lat="45.76781346025933" lon="9.744031980222866"><ele>697.0</ele><time>2026-05-02T12:13:18Z</time></trkpt><trkpt lat="45.76784953271821" lon="9.744129122919578"><ele>697.0</ele><time>2026-05-02T12:13:19Z</time></trkpt><trkpt lat="45.76788846945186" lon="9.744228546167493"><ele>697.0</ele><time>2026-05-02T12:13:20Z</time></trkpt><trkpt lat="45.767929994139585" lon="9.744330736201578"><ele>697.0</ele><time>2026-05-02T12:13:21Z</time></trkpt><trkpt lat="45.76797389565241" lon="9.7444338228668"><ele>697.0</ele><time>2026-05-02T12:13:22Z</time></trkpt><trkpt lat="45.76802575607291" lon="9.744537483052767"><ele>697.0</ele><time>2026-05-02T12:13:23Z</time></trkpt><trkpt lat="45.76807992538747" lon="9.74463843814673"><ele>697.0</ele><time>2026-05-02T12:13:24Z</time></trkpt><trkpt lat="45.768131754407726" lon="9.74474590270775"><ele>697.8333333333334</ele><time>2026-05-02T12:13:25Z</time></trkpt><trkpt lat="45.76819213512938" lon="9.744838140780534"><ele>698.6666666666667</ele><time>2026-05-02T12:13:26Z</time></trkpt><trkpt lat="45.7682441546866" lon="9.744921854375097"><ele>699.5</ele><time>2026-05-02T12:13:27Z</time></trkpt><trkpt lat="45.76828429626092" lon="9.745002527342542"><ele>700.3333333333334</ele><time>2026-05-02T12:13:28Z</time></trkpt><trkpt lat="45.76828440066172" lon="9.745098132601035"><ele>701.1666666666666</ele><time>2026-05-02T12:13:29Z</time></trkpt><trkpt lat="45.7682398906362" lon="9.745187798641775"><ele>702.0</ele><time>2026-05-02T12:13:30Z</time></trkpt><trkpt lat="45.76817110248194" lon="9.745236123162478"><ele>702.0</ele><time>2026-05-02T12:13:31Z</time></trkpt><trkpt lat="45.768096200358485" lon="9.745276878517341"><ele>702.0</ele><time>2026-05-02T12:13:32Z</time></trkpt><trkpt lat="45.76803793645053" lon="9.745327620263748"><ele>702.0</ele><time>2026-05-02T12:13:33Z</time></trkpt><trkpt lat="45.767964345456654" lon="9.745380217208464"><ele>702.0</ele><time>2026-05-02T12:13:34Z</time></trkpt><trkpt lat="45.767904383015384" lon="9.74545657593724"><ele>702.0</ele><time>2026-05-02T12:13:35Z</time></trkpt><trkpt lat="45.767855174493576" lon="9.745543132200218"><ele>702.0</ele><time>2026-05-02T12:13:36Z</time></trkpt><trkpt lat="45.76780816497328" lon="9.74564715880167"><ele>702.0</ele><time>2026-05-02T12:13:37Z</time></trkpt><trkpt lat="45.76775972508756" lon="9.745755265218458"><ele>702.0</ele><time>2026-05-02T12:13:38Z</time></trkpt><trkpt lat="45.767712967372226" lon="9.745861695886019"><ele>702.0</ele><time>2026-05-02T12:13:39Z</time></trkpt><trkpt lat="45.7676612064525" lon="9.74596438908519"><ele>702.0</ele><time>2026-05-02T12:13:40Z</time></trkpt><trkpt lat="45.767610174583126" lon="9.746074421281099"><ele>702.0</ele><time>2026-05-02T12:13:41Z</time></trkpt><trkpt lat="45.767569782283495" lon="9.746195001575733"><ele>695.8</ele><time>2026-05-02T12:13:42Z</time></trkpt><trkpt lat="45.76754168563829" lon="9.746322639543978"><ele>689.6</ele><time>2026-05-02T12:13:43Z</time></trkpt><trkpt lat="45.76751940434744" lon="9.746457754204357"><ele>683.4</ele><time>2026-05-02T12:13:44Z</time></trkpt><trkpt lat="45.767504625829275" lon="9.74659302300304"><ele>677.1999999999999</ele><time>2026-05-02T12:13:45Z</time></trkpt><trkpt lat="45.76748805397263" lon="9.74672552851201"><ele>671.0</ele><time>2026-05-02T12:13:46Z</time></trkpt><trkpt lat="45.76746887080627" lon="9.746862102068508"><ele>672.8</ele><time>2026-05-02T12:13:47Z</time></trkpt><trkpt lat="45.76743821143323" lon="9.74699530162293"><ele>674.5999999999999</ele><time>2026-05-02T12:13:48Z</time></trkpt><trkpt lat="45.76739478327363" lon="9.7471213897187"><ele>676.4</ele><time>2026-05-02T12:13:49Z</time></trkpt><trkpt lat="45.76734033734156" lon="9.747242993659412"><ele>678.2</ele><time>2026-05-02T12:13:50Z</time></trkpt><trkpt lat="45.76728701073675" lon="9.747365595388088"><ele>680.0</ele><time>2026-05-02T12:13:51Z</time></trkpt><trkpt lat="45.76723088043137" lon="9.747487502823725"><ele>680.0</ele><time>2026-05-02T12:13:52Z</time></trkpt><trkpt lat="45.76717756628214" lon="9.74760788612769"><ele>680.0</ele><time>2026-05-02T12:13:53Z</time></trkpt><trkpt lat="45.767134131762404" lon="9.747738062598941"><ele>680.0</ele><time>2026-05-02T12:13:54Z</time></trkpt><trkpt lat="45.767098946186884" lon="9.747874570746282"><ele>680.0</ele><time>2026-05-02T12:13:55Z</time></trkpt><trkpt lat="45.7670844269227" lon="9.748015117504119"><ele>680.0</ele><time>2026-05-02T12:13:56Z</time></trkpt><trkpt lat="45.767091768793065" lon="9.748147749545884"><ele>679.2</ele><time>2026-05-02T12:13:57Z</time></trkpt><trkpt lat="45.76711840795249" lon="9.748265041582599"><ele>678.4</ele><time>2026-05-02T12:13:58Z</time></trkpt><trkpt lat="45.767126570508324" lon="9.748370017402506"><ele>677.5999999999999</ele><time>2026-05-02T12:13:59Z</time></trkpt><trkpt lat="45.76706053157749" lon="9.74850992409625"><ele>676.8</ele><time>2026-05-02T12:14:01Z</time></trkpt><trkpt lat="45.76695451750771" lon="9.748434003169374"><ele>676.0</ele><time>2026-05-02T12:14:03Z</time></trkpt><trkpt lat="45.76694533052644" lon="9.74833284189016"><ele>676.0</ele><time>2026-05-02T12:14:04Z</time></trkpt><trkpt lat="45.76696156340407" lon="9.748232567852227"><ele>676.0</ele><time>2026-05-02T12:14:05Z</time></trkpt><trkpt lat="45.7669794014181" lon="9.748136869870587"><ele>676.0</ele><time>2026-05-02T12:14:06Z</time></trkpt><trkpt lat="45.76699631011022" lon="9.74804015440913"><ele>676.0</ele><time>2026-05-02T12:14:07Z</time></trkpt><trkpt lat="45.767012351193145" lon="9.747936239436058"><ele>676.0</ele><time>2026-05-02T12:14:08Z</time></trkpt><trkpt lat="45.7670382186295" lon="9.747828951790115"><ele>676.0</ele><time>2026-05-02T12:14:09Z</time></trkpt><trkpt lat="45.767053083869975" lon="9.747713323727053"><ele>676.0</ele><time>2026-05-02T12:14:10Z</time></trkpt><trkpt lat="45.7670762951243" lon="9.747598243256695"><ele>676.8</ele><time>2026-05-02T12:14:11Z</time></trkpt><trkpt lat="45.767106395912435" lon="9.74748115233027"><ele>677.5999999999999</ele><time>2026-05-02T12:14:12Z</time></trkpt><trkpt lat="45.767136260066216" lon="9.7473619206762"><ele>678.4</ele><time>2026-05-02T12:14:13Z</time></trkpt><trkpt lat="45.76717588285609" lon="9.747241996888336"><ele>679.2</ele><time>2026-05-02T12:14:14Z</time></trkpt><trkpt lat="45.767208750234786" lon="9.74711498334323"><ele>680.0</ele><time>2026-05-02T12:14:15Z</time></trkpt><trkpt lat="45.76723874657074" lon="9.746982660456402"><ele>678.2</ele><time>2026-05-02T12:14:16Z</time></trkpt><trkpt lat="45.7672623342068" lon="9.746846233873608"><ele>676.4</ele><time>2026-05-02T12:14:17Z</time></trkpt><trkpt lat="45.76727310714905" lon="9.74670117370186"><ele>674.5999999999999</ele><time>2026-05-02T12:14:18Z</time></trkpt><trkpt lat="45.76727293102466" lon="9.746555861268256"><ele>672.8</ele><time>2026-05-02T12:14:19Z</time></trkpt><trkpt lat="45.767266450396804" lon="9.746407859819064"><ele>671.0</ele><time>2026-05-02T12:14:20Z</time></trkpt><trkpt lat="45.767257314201494" lon="9.746259060949777"><ele>671.0</ele><time>2026-05-02T12:14:21Z</time></trkpt><trkpt lat="45.767241541292044" lon="9.746104669289037"><ele>671.0</ele><time>2026-05-02T12:14:22Z</time></trkpt><trkpt lat="45.76722451354917" lon="9.745951473013811"><ele>671.0</ele><time>2026-05-02T12:14:23Z</time></trkpt><trkpt lat="45.76721139495246" lon="9.745796168089141"><ele>671.0</ele><time>2026-05-02T12:14:24Z</time></trkpt><trkpt lat="45.76720009666847" lon="9.745635624400693"><ele>671.0</ele><time>2026-05-02T12:14:25Z</time></trkpt><trkpt lat="45.767188523111756" lon="9.745477935781182"><ele>669.5999999999999</ele><time>2026-05-02T12:14:26Z</time></trkpt><trkpt lat="45.76716913330172" lon="9.745327174130177"><ele>668.2</ele><time>2026-05-02T12:14:27Z</time></trkpt><trkpt lat="45.76714042807379" lon="9.745186363133655"><ele>666.8</ele><time>2026-05-02T12:14:28Z</time></trkpt><trkpt lat="45.76710261152754" lon="9.745055041236478"><ele>665.4000000000001</ele><time>2026-05-02T12:14:29Z</time></trkpt><trkpt lat="45.767062277241195" lon="9.744934243299259"><ele>664.0</ele><time>2026-05-02T12:14:30Z</time></trkpt><trkpt lat="45.76702917853908" lon="9.744806903134046"><ele>663.6</ele><time>2026-05-02T12:14:31Z</time></trkpt><trkpt lat="45.767023904780984" lon="9.744661411631885"><ele>663.2</ele><time>2026-05-02T12:14:32Z</time></trkpt><trkpt lat="45.76703242083869" lon="9.744519458405767"><ele>662.8000000000001</ele><time>2026-05-02T12:14:33Z</time></trkpt><trkpt lat="45.7670478149843" lon="9.744381623098645"><ele>662.4000000000001</ele><time>2026-05-02T12:14:34Z</time></trkpt><trkpt lat="45.76706155311215" lon="9.74425803959507"><ele>662.0</ele><time>2026-05-02T12:14:35Z</time></trkpt><trkpt lat="45.767067863975186" lon="9.744154166021401"><ele>662.0</ele><time>2026-05-02T12:14:36Z</time></trkpt><trkpt lat="45.766989667268454" lon="9.744043764440294"><ele>662.0</ele><time>2026-05-02T12:14:38Z</time></trkpt><trkpt lat="45.76692053023181" lon="9.744086199664723"><ele>662.0</ele><time>2026-05-02T12:14:39Z</time></trkpt><trkpt lat="45.76688500898972" lon="9.744180579488932"><ele>662.0</ele><time>2026-05-02T12:14:40Z</time></trkpt><trkpt lat="45.76689281091355" lon="9.74429578760726"><ele>662.0</ele><time>2026-05-02T12:14:41Z</time></trkpt><trkpt lat="45.766904763725805" lon="9.744397196198328"><ele>662.0</ele><time>2026-05-02T12:14:42Z</time></trkpt><trkpt lat="45.76690520461305" lon="9.7444983002602"><ele>661.1666666666666</ele><time>2026-05-02T12:14:43Z</time></trkpt><trkpt lat="45.76689329267705" lon="9.744595097710896"><ele>660.3333333333333</ele><time>2026-05-02T12:14:44Z</time></trkpt><trkpt lat="45.766908854631914" lon="9.744711834386525"><ele>659.5</ele><time>2026-05-02T12:14:45Z</time></trkpt><trkpt lat="45.766951216874034" lon="9.744833153424365"><ele>658.6666666666666</ele><time>2026-05-02T12:14:46Z</time></trkpt><trkpt lat="45.76693124633063" lon="9.744950989046945"><ele>657.8333333333334</ele><time>2026-05-02T12:14:47Z</time></trkpt><trkpt lat="45.76694329670032" lon="9.745070072487422"><ele>657.0</ele><time>2026-05-02T12:14:48Z</time></trkpt><trkpt lat="45.766963006355596" lon="9.745189438127372"><ele>658.4000000000001</ele><time>2026-05-02T12:14:49Z</time></trkpt><trkpt lat="45.7669653720148" lon="9.745313552129481"><ele>659.8000000000001</ele><time>2026-05-02T12:14:50Z</time></trkpt><trkpt lat="45.76692818280635" lon="9.74544443097859"><ele>661.2</ele><time>2026-05-02T12:14:51Z</time></trkpt><trkpt lat="45.766873274181116" lon="9.74555849572334"><ele>662.6</ele><time>2026-05-02T12:14:52Z</time></trkpt><trkpt lat="45.76683689974739" lon="9.745677049163984"><ele>664.0</ele><time>2026-05-02T12:14:53Z</time></trkpt><trkpt lat="45.766825990294414" lon="9.745805995819026"><ele>665.4000000000001</ele><time>2026-05-02T12:14:54Z</time></trkpt><trkpt lat="45.766838962456724" lon="9.745932541045176"><ele>666.8</ele><time>2026-05-02T12:14:55Z</time></trkpt><trkpt lat="45.766856522682474" lon="9.74606883376667"><ele>668.2</ele><time>2026-05-02T12:14:56Z</time></trkpt><trkpt lat="45.766867156377586" lon="9.746214297835646"><ele>669.5999999999999</ele><time>2026-05-02T12:14:57Z</time></trkpt><trkpt lat="45.76686300857747" lon="9.746367403689685"><ele>671.0</ele><time>2026-05-02T12:14:58Z</time></trkpt><trkpt lat="45.76684186913138" lon="9.746518568580576"><ele>661.8</ele><time>2026-05-02T12:14:59Z</time></trkpt><trkpt lat="45.766810571233904" lon="9.746666894431197"><ele>652.5999999999999</ele><time>2026-05-02T12:15:00Z</time></trkpt><trkpt lat="45.766783163552205" lon="9.746810726027766"><ele>643.4</ele><time>2026-05-02T12:15:01Z</time></trkpt><trkpt lat="45.76675206504113" lon="9.74694589395251"><ele>634.2</ele><time>2026-05-02T12:15:02Z</time></trkpt><trkpt lat="45.76671530504421" lon="9.747079299359557"><ele>625.0</ele><time>2026-05-02T12:15:03Z</time></trkpt><trkpt lat="45.76668588318724" lon="9.747214433944045"><ele>625.0</ele><time>2026-05-02T12:15:04Z</time></trkpt><trkpt lat="45.76665858499679" lon="9.747348898504493"><ele>625.0</ele><time>2026-05-02T12:15:05Z</time></trkpt><trkpt lat="45.76662587855113" lon="9.747476382705965"><ele>625.0</ele><time>2026-05-02T12:15:06Z</time></trkpt><trkpt lat="45.76660089821642" lon="9.747608970656417"><ele>625.0</ele><time>2026-05-02T12:15:07Z</time></trkpt><trkpt lat="45.766583077443954" lon="9.747744854749005"><ele>625.0</ele><time>2026-05-02T12:15:08Z</time></trkpt><trkpt lat="45.766576547297596" lon="9.747882448000396"><ele>626.0</ele><time>2026-05-02T12:15:09Z</time></trkpt><trkpt lat="45.76657884737466" lon="9.748016208639656"><ele>627.0</ele><time>2026-05-02T12:15:10Z</time></trkpt><trkpt lat="45.76657256359911" lon="9.748157415571322"><ele>628.0</ele><time>2026-05-02T12:15:11Z</time></trkpt><trkpt lat="45.7665555669798" lon="9.748291649871586"><ele>629.0</ele><time>2026-05-02T12:15:12Z</time></trkpt><trkpt lat="45.76653412930655" lon="9.748421776654745"><ele>630.0</ele><time>2026-05-02T12:15:13Z</time></trkpt><trkpt lat="45.76652315887504" lon="9.748539166771007"><ele>627.0</ele><time>2026-05-02T12:15:14Z</time></trkpt><trkpt lat="45.76652512430772" lon="9.748650866110856"><ele>624.0</ele><time>2026-05-02T12:15:15Z</time></trkpt><trkpt lat="45.76653424438272" lon="9.748748691431938"><ele>621.0</ele><time>2026-05-02T12:15:16Z</time></trkpt><trkpt lat="45.76649281989271" lon="9.748870498604019"><ele>618.0</ele><time>2026-05-02T12:15:18Z</time></trkpt><trkpt lat="45.7663975939308" lon="9.748818803044509"><ele>615.0</ele><time>2026-05-02T12:15:20Z</time></trkpt><trkpt lat="45.76639422341781" lon="9.748723762486074"><ele>612.0</ele><time>2026-05-02T12:15:21Z</time></trkpt><trkpt lat="45.76643288399229" lon="9.74856222147382"><ele>615.0</ele><time>2026-05-02T12:15:23Z</time></trkpt><trkpt lat="45.76647211242867" lon="9.74839203122526"><ele>618.0</ele><time>2026-05-02T12:15:25Z</time></trkpt><trkpt lat="45.76649373999373" lon="9.748299677742104"><ele>621.0</ele><time>2026-05-02T12:15:26Z</time></trkpt><trkpt lat="45.76650684560217" lon="9.748201626811433"><ele>624.0</ele><time>2026-05-02T12:15:27Z</time></trkpt><trkpt lat="45.76651904754374" lon="9.74810037235792"><ele>627.0</ele><time>2026-05-02T12:15:28Z</time></trkpt><trkpt lat="45.766521203510585" lon="9.747997234951267"><ele>630.0</ele><time>2026-05-02T12:15:29Z</time></trkpt><trkpt lat="45.76652024656524" lon="9.74788598402382"><ele>630.0</ele><time>2026-05-02T12:15:30Z</time></trkpt><trkpt lat="45.76651047506151" lon="9.747778011477534"><ele>630.0</ele><time>2026-05-02T12:15:31Z</time></trkpt><trkpt lat="45.76649789394529" lon="9.747660838757524"><ele>630.0</ele><time>2026-05-02T12:15:32Z</time></trkpt><trkpt lat="45.76648805618625" lon="9.747536611616285"><ele>630.0</ele><time>2026-05-02T12:15:33Z</time></trkpt><trkpt lat="45.76648932274452" lon="9.74741045240734"><ele>630.0</ele><time>2026-05-02T12:15:34Z</time></trkpt><trkpt lat="45.766491090986165" lon="9.747279484373014"><ele>630.0</ele><time>2026-05-02T12:15:35Z</time></trkpt><trkpt lat="45.766496049862795" lon="9.747139975935237"><ele>629.0</ele><time>2026-05-02T12:15:36Z</time></trkpt><trkpt lat="45.76651316831524" lon="9.747000432762068"><ele>628.0</ele><time>2026-05-02T12:15:37Z</time></trkpt><trkpt lat="45.76653533742084" lon="9.746858295054949"><ele>627.0</ele><time>2026-05-02T12:15:38Z</time></trkpt><trkpt lat="45.766572392369206" lon="9.746727682394535"><ele>626.0</ele><time>2026-05-02T12:15:39Z</time></trkpt><trkpt lat="45.766614980385256" lon="9.746585034914292"><ele>625.0</ele><time>2026-05-02T12:15:40Z</time></trkpt><trkpt lat="45.76661973708713" lon="9.746439425582421"><ele>624.2</ele><time>2026-05-02T12:15:41Z</time></trkpt><trkpt lat="45.766591852721554" lon="9.74629011539358"><ele>623.4</ele><time>2026-05-02T12:15:42Z</time></trkpt><trkpt lat="45.76655196446914" lon="9.746162509797836"><ele>622.6</ele><time>2026-05-02T12:15:43Z</time></trkpt><trkpt lat="45.766521809821775" lon="9.746012201085847"><ele>621.8</ele><time>2026-05-02T12:15:44Z</time></trkpt><trkpt lat="45.76649325600144" lon="9.745870946205045"><ele>621.0</ele><time>2026-05-02T12:15:45Z</time></trkpt><trkpt lat="45.76646883753323" lon="9.74573527777131"><ele>620.6</ele><time>2026-05-02T12:15:46Z</time></trkpt><trkpt lat="45.76645361536085" lon="9.745605557420705"><ele>620.2</ele><time>2026-05-02T12:15:47Z</time></trkpt><trkpt lat="45.76646479439286" lon="9.745458603314535"><ele>619.8</ele><time>2026-05-02T12:15:48Z</time></trkpt><trkpt lat="45.76649107270541" lon="9.745308100384923"><ele>619.4</ele><time>2026-05-02T12:15:49Z</time></trkpt><trkpt lat="45.7664960515117" lon="9.745156119774222"><ele>619.0</ele><time>2026-05-02T12:15:50Z</time></trkpt><trkpt lat="45.76646214790762" lon="9.745008870939358"><ele>618.8</ele><time>2026-05-02T12:15:51Z</time></trkpt><trkpt lat="45.76642176699871" lon="9.744872667143404"><ele>618.5999999999999</ele><time>2026-05-02T12:15:52Z</time></trkpt><trkpt lat="45.7663868788387" lon="9.744754065614575"><ele>618.4</ele><time>2026-05-02T12:15:53Z</time></trkpt><trkpt lat="45.76635482923548" lon="9.74466553041546"><ele>618.1999999999999</ele><time>2026-05-02T12:15:54Z</time></trkpt><trkpt lat="45.76638456335871" lon="9.744459679090529"><ele>618.0</ele><time>2026-05-02T12:15:56Z</time></trkpt><trkpt lat="45.76634005451464" lon="9.744387563923308"><ele>618.0</ele><time>2026-05-02T12:15:57Z</time></trkpt><trkpt lat="45.766266407219206" lon="9.744385723715656"><ele>618.0</ele><time>2026-05-02T12:15:58Z</time></trkpt><trkpt lat="45.766214952012916" lon="9.744468058865223"><ele>618.0</ele><time>2026-05-02T12:15:59Z</time></trkpt><trkpt lat="45.76619296812575" lon="9.744582558077635"><ele>618.0</ele><time>2026-05-02T12:16:00Z</time></trkpt><trkpt lat="45.766211981132564" lon="9.744692275074991"><ele>618.0</ele><time>2026-05-02T12:16:01Z</time></trkpt><trkpt lat="45.76623337901647" lon="9.744796990413915"><ele>618.0</ele><time>2026-05-02T12:16:02Z</time></trkpt><trkpt lat="45.76626524483132" lon="9.74489812220858"><ele>618.0</ele><time>2026-05-02T12:16:03Z</time></trkpt><trkpt lat="45.76630532117069" lon="9.745030997020004"><ele>618.0</ele><time>2026-05-02T12:16:04Z</time></trkpt><trkpt lat="45.7663417323402" lon="9.745121235287714"><ele>618.0</ele><time>2026-05-02T12:16:05Z</time></trkpt><trkpt lat="45.76635798323856" lon="9.74523739339714"><ele>618.0</ele><time>2026-05-02T12:16:06Z</time></trkpt><trkpt lat="45.76633353328631" lon="9.745364154963523"><ele>618.0</ele><time>2026-05-02T12:16:07Z</time></trkpt><trkpt lat="45.76629840354705" lon="9.745490835353996"><ele>618.0</ele><time>2026-05-02T12:16:08Z</time></trkpt><trkpt lat="45.766270187806214" lon="9.745602712599712"><ele>618.1666666666666</ele><time>2026-05-02T12:16:09Z</time></trkpt><trkpt lat="45.76625849776171" lon="9.745726032918682"><ele>618.3333333333334</ele><time>2026-05-02T12:16:10Z</time></trkpt><trkpt lat="45.766264049764445" lon="9.745854783734822"><ele>618.5</ele><time>2026-05-02T12:16:11Z</time></trkpt><trkpt lat="45.76626098876535" lon="9.745980520419845"><ele>618.6666666666667</ele><time>2026-05-02T12:16:12Z</time></trkpt><trkpt lat="45.766260852153174" lon="9.746104660660865"><ele>618.8333333333334</ele><time>2026-05-02T12:16:13Z</time></trkpt><trkpt lat="45.766265414603374" lon="9.746232248309537"><ele>619.0</ele><time>2026-05-02T12:16:14Z</time></trkpt><trkpt lat="45.7662635752836" lon="9.746369421103074"><ele>619.4</ele><time>2026-05-02T12:16:15Z</time></trkpt><trkpt lat="45.7662537565301" lon="9.746504201854695"><ele>619.8</ele><time>2026-05-02T12:16:16Z</time></trkpt><trkpt lat="45.76621030650294" lon="9.746636899592762"><ele>620.2</ele><time>2026-05-02T12:16:17Z</time></trkpt><trkpt lat="45.76614460285231" lon="9.746754895060015"><ele>620.6</ele><time>2026-05-02T12:16:18Z</time></trkpt><trkpt lat="45.766095670395195" lon="9.746885823927565"><ele>621.0</ele><time>2026-05-02T12:16:19Z</time></trkpt><trkpt lat="45.7660623271218" lon="9.74702392751101"><ele>621.8</ele><time>2026-05-02T12:16:20Z</time></trkpt><trkpt lat="45.76603219267696" lon="9.747168745810589"><ele>622.6</ele><time>2026-05-02T12:16:21Z</time></trkpt><trkpt lat="45.76600973128539" lon="9.747315339142004"><ele>623.4</ele><time>2026-05-02T12:16:22Z</time></trkpt><trkpt lat="45.76600387857166" lon="9.747466406906161"><ele>624.2</ele><time>2026-05-02T12:16:23Z</time></trkpt><trkpt lat="45.76600764655927" lon="9.747616169429003"><ele>625.0</ele><time>2026-05-02T12:16:24Z</time></trkpt><trkpt lat="45.766026122713924" lon="9.747767174828882"><ele>626.0</ele><time>2026-05-02T12:16:25Z</time></trkpt><trkpt lat="45.76604795134388" lon="9.747919011128047"><ele>627.0</ele><time>2026-05-02T12:16:26Z</time></trkpt><trkpt lat="45.76604428915521" lon="9.74806761337898"><ele>628.0</ele><time>2026-05-02T12:16:27Z</time></trkpt><trkpt lat="45.766013940176855" lon="9.748231315766683"><ele>629.0</ele><time>2026-05-02T12:16:28Z</time></trkpt><trkpt lat="45.76597827152762" lon="9.74837157984255"><ele>630.0</ele><time>2026-05-02T12:16:29Z</time></trkpt><trkpt lat="45.765953506701564" lon="9.748520862975854"><ele>617.4</ele><time>2026-05-02T12:16:30Z</time></trkpt><trkpt lat="45.7659401032355" lon="9.748660460786583"><ele>604.8</ele><time>2026-05-02T12:16:31Z</time></trkpt><trkpt lat="45.76591307791275" lon="9.74879545658712"><ele>592.2</ele><time>2026-05-02T12:16:32Z</time></trkpt><trkpt lat="45.76591072722741" lon="9.748920630316972"><ele>579.6</ele><time>2026-05-02T12:16:33Z</time></trkpt><trkpt lat="45.76593592959427" lon="9.749053531243426"><ele>567.0</ele><time>2026-05-02T12:16:34Z</time></trkpt><trkpt lat="45.7659567735986" lon="9.74916910333386"><ele>567.0</ele><time>2026-05-02T12:16:35Z</time></trkpt><trkpt lat="45.765994549270616" lon="9.749267160261583"><ele>567.0</ele><time>2026-05-02T12:16:36Z</time></trkpt><trkpt lat="45.76604293333876" lon="9.749348537910889"><ele>567.0</ele><time>2026-05-02T12:16:37Z</time></trkpt><trkpt lat="45.76602734024006" lon="9.749442541066527"><ele>567.0</ele><time>2026-05-02T12:16:39Z</time></trkpt><trkpt lat="45.76592437746066" lon="9.749371229937477"><ele>567.0</ele><time>2026-05-02T12:16:41Z</time></trkpt><trkpt lat="45.76588700107963" lon="9.749203356435812"><ele>567.0</ele><time>2026-05-02T12:16:43Z</time></trkpt><trkpt lat="45.765874727352376" lon="9.749103342370454"><ele>567.0</ele><time>2026-05-02T12:16:44Z</time></trkpt><trkpt lat="45.76586936457019" lon="9.748998553799666"><ele>567.0</ele><time>2026-05-02T12:16:45Z</time></trkpt><trkpt lat="45.7658584841938" lon="9.7488990945392"><ele>567.0</ele><time>2026-05-02T12:16:46Z</time></trkpt><trkpt lat="45.7658509395269" lon="9.748780940577763"><ele>567.0</ele><time>2026-05-02T12:16:47Z</time></trkpt><trkpt lat="45.76584791700829" lon="9.748667940177056"><ele>567.0</ele><time>2026-05-02T12:16:48Z</time></trkpt><trkpt lat="45.765838605483594" lon="9.748540415026953"><ele>568.2</ele><time>2026-05-02T12:16:49Z</time></trkpt><trkpt lat="45.765835905414995" lon="9.748413614465743"><ele>569.4000000000001</ele><time>2026-05-02T12:16:50Z</time></trkpt><trkpt lat="45.7658379276182" lon="9.748285887903032"><ele>570.5999999999999</ele><time>2026-05-02T12:16:51Z</time></trkpt><trkpt lat="45.76585137212799" lon="9.748160232250516"><ele>571.8</ele><time>2026-05-02T12:16:52Z</time></trkpt><trkpt lat="45.76586992006761" lon="9.748022053586794"><ele>573.0</ele><time>2026-05-02T12:16:53Z</time></trkpt><trkpt lat="45.765867916721774" lon="9.747882844507318"><ele>573.0</ele><time>2026-05-02T12:16:54Z</time></trkpt><trkpt lat="45.76584320309698" lon="9.747742540066751"><ele>573.0</ele><time>2026-05-02T12:16:55Z</time></trkpt><trkpt lat="45.7658199901655" lon="9.747613759019984"><ele>573.0</ele><time>2026-05-02T12:16:56Z</time></trkpt><trkpt lat="45.76577339706517" lon="9.747470390931086"><ele>573.0</ele><time>2026-05-02T12:16:57Z</time></trkpt><trkpt lat="45.765746308657164" lon="9.747336313331326"><ele>573.0</ele><time>2026-05-02T12:16:58Z</time></trkpt><trkpt lat="45.765727375991446" lon="9.747187586744747"><ele>572.75</ele><time>2026-05-02T12:16:59Z</time></trkpt><trkpt lat="45.765722926198976" lon="9.747024769281637"><ele>572.5</ele><time>2026-05-02T12:17:00Z</time></trkpt><trkpt lat="45.76573972206687" lon="9.746858985053473"><ele>572.25</ele><time>2026-05-02T12:17:01Z</time></trkpt><trkpt lat="45.76576053063539" lon="9.746700601419183"><ele>572.0</ele><time>2026-05-02T12:17:02Z</time></trkpt><trkpt lat="45.76577049193503" lon="9.746538112746109"><ele>572.0</ele><time>2026-05-02T12:17:03Z</time></trkpt><trkpt lat="45.76576416556268" lon="9.746376279406217"><ele>572.0</ele><time>2026-05-02T12:17:04Z</time></trkpt><trkpt lat="45.765742148064575" lon="9.74621559767261"><ele>572.0</ele><time>2026-05-02T12:17:05Z</time></trkpt><trkpt lat="45.76571272526407" lon="9.746056658378226"><ele>572.0</ele><time>2026-05-02T12:17:06Z</time></trkpt><trkpt lat="45.765683425417926" lon="9.745894942469244"><ele>572.0</ele><time>2026-05-02T12:17:07Z</time></trkpt><trkpt lat="45.76564142939066" lon="9.745726415916254"><ele>572.0</ele><time>2026-05-02T12:17:08Z</time></trkpt><trkpt lat="45.76562542606404" lon="9.745562169434454"><ele>572.0</ele><time>2026-05-02T12:17:09Z</time></trkpt><trkpt lat="45.7656017247458" lon="9.74539548922851"><ele>572.0</ele><time>2026-05-02T12:17:10Z</time></trkpt><trkpt lat="45.76557462706023" lon="9.745235975163686"><ele>573.2</ele><time>2026-05-02T12:17:11Z</time></trkpt><trkpt lat="45.76552903348936" lon="9.74509015326328"><ele>574.4000000000001</ele><time>2026-05-02T12:17:12Z</time></trkpt><trkpt lat="45.765463550265146" lon="9.744974429096986"><ele>575.5999999999999</ele><time>2026-05-02T12:17:13Z</time></trkpt><trkpt lat="45.76537617440893" lon="9.744902504034295"><ele>576.8</ele><time>2026-05-02T12:17:14Z</time></trkpt><trkpt lat="45.76527487116403" lon="9.744870061808033"><ele>578.0</ele><time>2026-05-02T12:17:15Z</time></trkpt><trkpt lat="45.765170616115924" lon="9.74488090501427"><ele>574.0</ele><time>2026-05-02T12:17:16Z</time></trkpt><trkpt lat="45.76507069682911" lon="9.744923330570835"><ele>570.0</ele><time>2026-05-02T12:17:17Z</time></trkpt><trkpt lat="45.76497046039859" lon="9.744965389337219"><ele>566.0</ele><time>2026-05-02T12:17:18Z</time></trkpt><trkpt lat="45.76487926312986" lon="9.745024458518293"><ele>562.0</ele><time>2026-05-02T12:17:19Z</time></trkpt><trkpt lat="45.76479043647113" lon="9.745115236027829"><ele>558.0</ele><time>2026-05-02T12:17:20Z</time></trkpt><trkpt lat="45.76473308993479" lon="9.745262849821838"><ele>555.6</ele><time>2026-05-02T12:17:21Z</time></trkpt><trkpt lat="45.76469853062608" lon="9.74542152648832"><ele>553.1999999999999</ele><time>2026-05-02T12:17:22Z</time></trkpt><trkpt lat="45.76466567635355" lon="9.745575627978802"><ele>550.8</ele><time>2026-05-02T12:17:23Z</time></trkpt><trkpt lat="45.76462543769851" lon="9.74572594009778"><ele>548.4</ele><time>2026-05-02T12:17:24Z</time></trkpt><trkpt lat="45.764585853962245" lon="9.745868355130742"><ele>546.0</ele><time>2026-05-02T12:17:25Z</time></trkpt><trkpt lat="45.76452448974832" lon="9.745996778941212"><ele>544.25</ele><time>2026-05-02T12:17:26Z</time></trkpt><trkpt lat="45.764434797104904" lon="9.746099112378738"><ele>542.5</ele><time>2026-05-02T12:17:27Z</time></trkpt><trkpt lat="45.764332903138865" lon="9.74617790067504"><ele>540.75</ele><time>2026-05-02T12:17:28Z</time></trkpt><trkpt lat="45.764229513281954" lon="9.746248002053765"><ele>539.0</ele><time>2026-05-02T12:17:29Z</time></trkpt><trkpt lat="45.76412965094183" lon="9.746317115636286"><ele>539.0</ele><time>2026-05-02T12:17:30Z</time></trkpt><trkpt lat="45.76402452209271" lon="9.746367105181038"><ele>539.0</ele><time>2026-05-02T12:17:31Z</time></trkpt><trkpt lat="45.763915624033096" lon="9.74639034397567"><ele>539.0</ele><time>2026-05-02T12:17:32Z</time></trkpt><trkpt lat="45.76380315145649" lon="9.746387220697962"><ele>539.0</ele><time>2026-05-02T12:17:33Z</time></trkpt><trkpt lat="45.76369025409071" lon="9.746371081617928"><ele>539.0</ele><time>2026-05-02T12:17:34Z</time></trkpt><trkpt lat="45.763575051697" lon="9.746363695132263"><ele>538.2</ele><time>2026-05-02T12:17:35Z</time></trkpt><trkpt lat="45.76345978718849" lon="9.746356375205629"><ele>537.4</ele><time>2026-05-02T12:17:36Z</time></trkpt><trkpt lat="45.76335175095706" lon="9.74636829448093"><ele>536.6</ele><time>2026-05-02T12:17:37Z</time></trkpt><trkpt lat="45.76324956829742" lon="9.746397189267109"><ele>535.8</ele><time>2026-05-02T12:17:38Z</time></trkpt><trkpt lat="45.763161958920584" lon="9.746423828991857"><ele>535.0</ele><time>2026-05-02T12:17:39Z</time></trkpt><trkpt lat="45.76308619927734" lon="9.746468235858728"><ele>535.0</ele><time>2026-05-02T12:17:40Z</time></trkpt><trkpt lat="45.76302488363646" lon="9.746556158849213"><ele>535.0</ele><time>2026-05-02T12:17:41Z</time></trkpt><trkpt lat="45.762992717533116" lon="9.746677357130967"><ele>535.0</ele><time>2026-05-02T12:17:42Z</time></trkpt><trkpt lat="45.762968853430735" lon="9.746806578738699"><ele>535.0</ele><time>2026-05-02T12:17:43Z</time></trkpt><trkpt lat="45.76293339190673" lon="9.746924747241822"><ele>535.0</ele><time>2026-05-02T12:17:44Z</time></trkpt><trkpt lat="45.76287374940249" lon="9.747034129429101"><ele>534.0</ele><time>2026-05-02T12:17:45Z</time></trkpt><trkpt lat="45.76279678372985" lon="9.74712426158587"><ele>533.0</ele><time>2026-05-02T12:17:46Z</time></trkpt><trkpt lat="45.762713246763255" lon="9.747201166514216"><ele>532.0</ele><time>2026-05-02T12:17:47Z</time></trkpt><trkpt lat="45.762639398438914" lon="9.747290144979722"><ele>531.0</ele><time>2026-05-02T12:17:48Z</time></trkpt><trkpt lat="45.76256358416626" lon="9.747386495659176"><ele>530.0</ele><time>2026-05-02T12:17:49Z</time></trkpt><trkpt lat="45.762487700354775" lon="9.747479148121426"><ele>530.0</ele><time>2026-05-02T12:17:50Z</time></trkpt><trkpt lat="45.76240954511431" lon="9.747568060890938"><ele>530.0</ele><time>2026-05-02T12:17:51Z</time></trkpt><trkpt lat="45.76233664292131" lon="9.747661410682142"><ele>530.0</ele><time>2026-05-02T12:17:52Z</time></trkpt><trkpt lat="45.762261225711136" lon="9.747756205849953"><ele>530.0</ele><time>2026-05-02T12:17:53Z</time></trkpt><trkpt lat="45.762193140766456" lon="9.747861707287472"><ele>530.0</ele><time>2026-05-02T12:17:54Z</time></trkpt><trkpt lat="45.76212621935013" lon="9.747973397495706"><ele>531.0</ele><time>2026-05-02T12:17:55Z</time></trkpt><trkpt lat="45.76206071729073" lon="9.748080508385076"><ele>532.0</ele><time>2026-05-02T12:17:56Z</time></trkpt><trkpt lat="45.761995645447485" lon="9.74817517193598"><ele>533.0</ele><time>2026-05-02T12:17:57Z</time></trkpt><trkpt lat="45.76192514680966" lon="9.74826561239214"><ele>534.0</ele><time>2026-05-02T12:17:58Z</time></trkpt><trkpt lat="45.76185762597855" lon="9.74835871147986"><ele>535.0</ele><time>2026-05-02T12:17:59Z</time></trkpt><trkpt lat="45.761784322621345" lon="9.748446615165847"><ele>535.0</ele><time>2026-05-02T12:18:00Z</time></trkpt><trkpt lat="45.76171259098796" lon="9.748537143928283"><ele>535.0</ele><time>2026-05-02T12:18:01Z</time></trkpt><trkpt lat="45.761642152875844" lon="9.748632370825897"><ele>535.0</ele><time>2026-05-02T12:18:02Z</time></trkpt><trkpt lat="45.761564261025704" lon="9.748722556941418"><ele>535.0</ele><time>2026-05-02T12:18:03Z</time></trkpt><trkpt lat="45.76148793073046" lon="9.748814473868585"><ele>535.0</ele><time>2026-05-02T12:18:04Z</time></trkpt><trkpt lat="45.76141519788631" lon="9.748914477903885"><ele>531.0</ele><time>2026-05-02T12:18:05Z</time></trkpt><trkpt lat="45.76135080829467" lon="9.749025472614754"><ele>527.0</ele><time>2026-05-02T12:18:06Z</time></trkpt><trkpt lat="45.76129154402511" lon="9.749145706973232"><ele>523.0</ele><time>2026-05-02T12:18:07Z</time></trkpt><trkpt lat="45.76123580431493" lon="9.749271199295325"><ele>519.0</ele><time>2026-05-02T12:18:08Z</time></trkpt><trkpt lat="45.7611796266902" lon="9.749402952282503"><ele>515.0</ele><time>2026-05-02T12:18:09Z</time></trkpt><trkpt lat="45.76112393536714" lon="9.74953708738618"><ele>516.0</ele><time>2026-05-02T12:18:10Z</time></trkpt><trkpt lat="45.761071613215194" lon="9.749676266303947"><ele>517.0</ele><time>2026-05-02T12:18:11Z</time></trkpt><trkpt lat="45.76101152812646" lon="9.74981045459984"><ele>518.0</ele><time>2026-05-02T12:18:12Z</time></trkpt><trkpt lat="45.76094566873809" lon="9.749942849213753"><ele>519.0</ele><time>2026-05-02T12:18:13Z</time></trkpt><trkpt lat="45.76087429509205" lon="9.750071050338859"><ele>520.0</ele><time>2026-05-02T12:18:14Z</time></trkpt><trkpt lat="45.76080655507346" lon="9.750201540533338"><ele>515.2</ele><time>2026-05-02T12:18:15Z</time></trkpt><trkpt lat="45.76073192274196" lon="9.7503328581933"><ele>510.4</ele><time>2026-05-02T12:18:16Z</time></trkpt><trkpt lat="45.760665711301776" lon="9.750466119616188"><ele>505.6</ele><time>2026-05-02T12:18:17Z</time></trkpt><trkpt lat="45.760603617618166" lon="9.750594718522404"><ele>500.8</ele><time>2026-05-02T12:18:18Z</time></trkpt><trkpt lat="45.76053847625489" lon="9.750716443573275"><ele>496.0</ele><time>2026-05-02T12:18:19Z</time></trkpt><trkpt lat="45.760474525639516" lon="9.750842386000471"><ele>496.0</ele><time>2026-05-02T12:18:20Z</time></trkpt><trkpt lat="45.76041299283778" lon="9.750963358020583"><ele>496.0</ele><time>2026-05-02T12:18:21Z</time></trkpt><trkpt lat="45.76036265879697" lon="9.751079920249378"><ele>496.0</ele><time>2026-05-02T12:18:22Z</time></trkpt><trkpt lat="45.76031098582887" lon="9.751183571945058"><ele>496.0</ele><time>2026-05-02T12:18:23Z</time></trkpt><trkpt lat="45.7602516861249" lon="9.751268924882638"><ele>496.0</ele><time>2026-05-02T12:18:24Z</time></trkpt><trkpt lat="45.760184267331105" lon="9.751324658990885"><ele>496.50000000000006</ele><time>2026-05-02T12:18:25Z</time></trkpt><trkpt lat="45.760109664619144" lon="9.751355804873112"><ele>497.0</ele><time>2026-05-02T12:18:26Z</time></trkpt><trkpt lat="45.7600259280384" lon="9.7513792653514"><ele>497.5</ele><time>2026-05-02T12:18:27Z</time></trkpt><trkpt lat="45.75994547365089" lon="9.751413671887994"><ele>498.0</ele><time>2026-05-02T12:18:28Z</time></trkpt><trkpt lat="45.7598677403572" lon="9.751469655798115"><ele>498.50000000000006</ele><time>2026-05-02T12:18:29Z</time></trkpt><trkpt lat="45.75979177498638" lon="9.751537647816788"><ele>499.0</ele><time>2026-05-02T12:18:30Z</time></trkpt><trkpt lat="45.759723116511346" lon="9.751617257214866"><ele>499.00000000000006</ele><time>2026-05-02T12:18:31Z</time></trkpt><trkpt lat="45.75965124087733" lon="9.751702991474518"><ele>499.0</ele><time>2026-05-02T12:18:32Z</time></trkpt><trkpt lat="45.75956891883678" lon="9.751778449748729"><ele>499.0</ele><time>2026-05-02T12:18:33Z</time></trkpt><trkpt lat="45.75948845048284" lon="9.751820743928976"><ele>499.0</ele><time>2026-05-02T12:18:34Z</time></trkpt><trkpt lat="45.75942400039214" lon="9.751865633316529"><ele>499.00000000000006</ele><time>2026-05-02T12:18:35Z</time></trkpt><trkpt lat="45.75939899682967" lon="9.751951191272918"><ele>499.0</ele><time>2026-05-02T12:18:36Z</time></trkpt><trkpt lat="45.7594220348106" lon="9.752044391739194"><ele>499.00000000000006</ele><time>2026-05-02T12:18:37Z</time></trkpt><trkpt lat="45.759488659808184" lon="9.75208280425719"><ele>499.0</ele><time>2026-05-02T12:18:38Z</time></trkpt><trkpt lat="45.7595588902829" lon="9.752047836920418"><ele>499.00000000000006</ele><time>2026-05-02T12:18:39Z</time></trkpt><trkpt lat="45.759610772534685" lon="9.751986066659066"><ele>499.00000000000006</ele><time>2026-05-02T12:18:40Z</time></trkpt><trkpt lat="45.75966607989976" lon="9.751924228855058"><ele>499.0</ele><time>2026-05-02T12:18:41Z</time></trkpt><trkpt lat="45.75972221023295" lon="9.751866637352705"><ele>499.00000000000006</ele><time>2026-05-02T12:18:42Z</time></trkpt><trkpt lat="45.7597821195739" lon="9.751806043351023"><ele>499.00000000000006</ele><time>2026-05-02T12:18:43Z</time></trkpt><trkpt lat="45.75984035801363" lon="9.75173945523855"><ele>499.00000000000006</ele><time>2026-05-02T12:18:44Z</time></trkpt><trkpt lat="45.759891371257616" lon="9.751665201367642"><ele>499.0</ele><time>2026-05-02T12:18:45Z</time></trkpt><trkpt lat="45.759995530424895" lon="9.751581053979235"><ele>499.0</ele><time>2026-05-02T12:18:47Z</time></trkpt><trkpt lat="45.760052240928374" lon="9.751686918955379"><ele>499.0</ele><time>2026-05-02T12:18:49Z</time></trkpt><trkpt lat="45.760025017222596" lon="9.751771226602218"><ele>499.00000000000006</ele><time>2026-05-02T12:18:50Z</time></trkpt><trkpt lat="45.75996405624992" lon="9.75182441675451"><ele>499.0</ele><time>2026-05-02T12:18:51Z</time></trkpt><trkpt lat="45.75990323661329" lon="9.751857016370813"><ele>493.33333333333337</ele><time>2026-05-02T12:18:52Z</time></trkpt><trkpt lat="45.75983992083841" lon="9.751899976949689"><ele>487.6666666666667</ele><time>2026-05-02T12:18:53Z</time></trkpt><trkpt lat="45.75977121849843" lon="9.751940098848575"><ele>482.0</ele><time>2026-05-02T12:18:54Z</time></trkpt><trkpt lat="45.759703335355226" lon="9.751990490551945"><ele>476.33333333333337</ele><time>2026-05-02T12:18:55Z</time></trkpt><trkpt lat="45.75963412486122" lon="9.752044946353237"><ele>470.6666666666667</ele><time>2026-05-02T12:18:56Z</time></trkpt><trkpt lat="45.75956346068329" lon="9.752102152731455"><ele>465.0</ele><time>2026-05-02T12:18:57Z</time></trkpt><trkpt lat="45.759493544709294" lon="9.752165589351362"><ele>465.0</ele><time>2026-05-02T12:18:58Z</time></trkpt><trkpt lat="45.75941837512695" lon="9.752220035016098"><ele>465.0</ele><time>2026-05-02T12:18:59Z</time></trkpt><trkpt lat="45.759338219175724" lon="9.752267666961915"><ele>465.0</ele><time>2026-05-02T12:19:00Z</time></trkpt><trkpt lat="45.7592573744635" lon="9.752314347494998"><ele>465.0</ele><time>2026-05-02T12:19:01Z</time></trkpt><trkpt lat="45.75917457307911" lon="9.752362822261807"><ele>465.0</ele><time>2026-05-02T12:19:02Z</time></trkpt><trkpt lat="45.75908925268105" lon="9.75240605909903"><ele>465.0</ele><time>2026-05-02T12:19:03Z</time></trkpt><trkpt lat="45.7590004905306" lon="9.752419883097646"><ele>468.1666666666667</ele><time>2026-05-02T12:19:04Z</time></trkpt><trkpt lat="45.75891143683041" lon="9.752395328133694"><ele>471.33333333333337</ele><time>2026-05-02T12:19:05Z</time></trkpt><trkpt lat="45.75882412349751" lon="9.752362940849398"><ele>474.5</ele><time>2026-05-02T12:19:06Z</time></trkpt><trkpt lat="45.75873903606636" lon="9.752336254234484"><ele>477.6666666666667</ele><time>2026-05-02T12:19:07Z</time></trkpt><trkpt lat="45.758653694822925" lon="9.752344155670745"><ele>480.83333333333337</ele><time>2026-05-02T12:19:08Z</time></trkpt><trkpt lat="45.758577001601715" lon="9.752415838857019"><ele>484.0</ele><time>2026-05-02T12:19:09Z</time></trkpt><trkpt lat="45.7585191159743" lon="9.75252403932349"><ele>483.50000000000006</ele><time>2026-05-02T12:19:10Z</time></trkpt><trkpt lat="45.75846963274484" lon="9.752640948541703"><ele>483.0</ele><time>2026-05-02T12:19:11Z</time></trkpt><trkpt lat="45.758416459452164" lon="9.752753696758559"><ele>482.5</ele><time>2026-05-02T12:19:12Z</time></trkpt><trkpt lat="45.75834649195519" lon="9.752838887820294"><ele>482.0</ele><time>2026-05-02T12:19:13Z</time></trkpt><trkpt lat="45.75828733473423" lon="9.752913193707265"><ele>481.50000000000006</ele><time>2026-05-02T12:19:14Z</time></trkpt><trkpt lat="45.758262149622524" lon="9.753001804257563"><ele>481.0</ele><time>2026-05-02T12:19:15Z</time></trkpt><trkpt lat="45.75828730107869" lon="9.753089117428356"><ele>480.99999999999994</ele><time>2026-05-02T12:19:16Z</time></trkpt><trkpt lat="45.75835234299813" lon="9.753115024948203"><ele>481.0</ele><time>2026-05-02T12:19:17Z</time></trkpt><trkpt lat="45.758410802930605" lon="9.75306162070702"><ele>480.99999999999994</ele><time>2026-05-02T12:19:18Z</time></trkpt><trkpt lat="45.75844404396583" lon="9.752971157877875"><ele>480.99999999999994</ele><time>2026-05-02T12:19:19Z</time></trkpt><trkpt lat="45.75847359482795" lon="9.752887360037745"><ele>481.0</ele><time>2026-05-02T12:19:20Z</time></trkpt><trkpt lat="45.75850745329492" lon="9.752800959717064"><ele>480.99999999999994</ele><time>2026-05-02T12:19:21Z</time></trkpt><trkpt lat="45.758544304169426" lon="9.75271567678269"><ele>480.99999999999994</ele><time>2026-05-02T12:19:22Z</time></trkpt><trkpt lat="45.75857758363313" lon="9.752626554892826"><ele>481.00000000000006</ele><time>2026-05-02T12:19:23Z</time></trkpt><trkpt lat="45.75866100396702" lon="9.752549082608507"><ele>481.0</ele><time>2026-05-02T12:19:25Z</time></trkpt><trkpt lat="45.758705635387756" lon="9.752694837667988"><ele>481.0</ele><time>2026-05-02T12:19:27Z</time></trkpt><trkpt lat="45.75866300644683" lon="9.7527726146931"><ele>481.0</ele><time>2026-05-02T12:19:28Z</time></trkpt><trkpt lat="45.75860865158184" lon="9.752826811241324"><ele>481.00000000000006</ele><time>2026-05-02T12:19:29Z</time></trkpt><trkpt lat="45.758556985407374" lon="9.75288830343308"><ele>481.0</ele><time>2026-05-02T12:19:30Z</time></trkpt><trkpt lat="45.75851623653461" lon="9.752962455341024"><ele>480.99999999999994</ele><time>2026-05-02T12:19:31Z</time></trkpt><trkpt lat="45.7584741516249" lon="9.753036910533849"><ele>481.0</ele><time>2026-05-02T12:19:32Z</time></trkpt><trkpt lat="45.75842997214607" lon="9.75310772884059"><ele>480.99999999999994</ele><time>2026-05-02T12:19:33Z</time></trkpt><trkpt lat="45.758382791416516" lon="9.753175181701865"><ele>480.99999999999994</ele><time>2026-05-02T12:19:34Z</time></trkpt><trkpt lat="45.758334560126464" lon="9.75324487160714"><ele>481.0</ele><time>2026-05-02T12:19:35Z</time></trkpt><trkpt lat="45.75828761139565" lon="9.75332188217599"><ele>480.99999999999994</ele><time>2026-05-02T12:19:36Z</time></trkpt><trkpt lat="45.75824051935821" lon="9.753400317020297"><ele>480.99999999999994</ele><time>2026-05-02T12:19:37Z</time></trkpt><trkpt lat="45.758193018264734" lon="9.753482493541458"><ele>477.1666666666667</ele><time>2026-05-02T12:19:38Z</time></trkpt><trkpt lat="45.7581436113048" lon="9.75356349660342"><ele>473.33333333333337</ele><time>2026-05-02T12:19:39Z</time></trkpt><trkpt lat="45.758093252418846" lon="9.753646191836273"><ele>469.5</ele><time>2026-05-02T12:19:40Z</time></trkpt><trkpt lat="45.758042622346565" lon="9.753732902184412"><ele>465.66666666666663</ele><time>2026-05-02T12:19:41Z</time></trkpt><trkpt lat="45.757992447023" lon="9.753828733511295"><ele>461.8333333333333</ele><time>2026-05-02T12:19:42Z</time></trkpt><trkpt lat="45.7579474419867" lon="9.753929285210848"><ele>458.0</ele><time>2026-05-02T12:19:43Z</time></trkpt><trkpt lat="45.75790248463844" lon="9.754035222570032"><ele>457.99999999999994</ele><time>2026-05-02T12:19:44Z</time></trkpt><trkpt lat="45.75785369447628" lon="9.754138453358662"><ele>458.0</ele><time>2026-05-02T12:19:45Z</time></trkpt><trkpt lat="45.757799168360755" lon="9.754238166806418"><ele>458.0</ele><time>2026-05-02T12:19:46Z</time></trkpt><trkpt lat="45.757739607188014" lon="9.754336945115277"><ele>458.0</ele><time>2026-05-02T12:19:47Z</time></trkpt><trkpt lat="45.7576713211069" lon="9.754422845528923"><ele>457.99999999999994</ele><time>2026-05-02T12:19:48Z</time></trkpt><trkpt lat="45.75760150138731" lon="9.75450378631584"><ele>458.0</ele><time>2026-05-02T12:19:49Z</time></trkpt><trkpt lat="45.75753495771263" lon="9.75457935554466"><ele>459.2</ele><time>2026-05-02T12:19:50Z</time></trkpt><trkpt lat="45.757459745994225" lon="9.754625576425985"><ele>460.4</ele><time>2026-05-02T12:19:51Z</time></trkpt><trkpt lat="45.75738333754894" lon="9.754664820937396"><ele>461.59999999999997</ele><time>2026-05-02T12:19:52Z</time></trkpt><trkpt lat="45.7573202365791" lon="9.754706860613295"><ele>462.79999999999995</ele><time>2026-05-02T12:19:53Z</time></trkpt><trkpt lat="45.757255965584314" lon="9.754845820152315"><ele>464.0</ele><time>2026-05-02T12:19:55Z</time></trkpt><trkpt lat="45.75735034634396" lon="9.754938244352756"><ele>464.00000000000006</ele><time>2026-05-02T12:19:57Z</time></trkpt><trkpt lat="45.757415047052255" lon="9.754893244544535"><ele>464.0</ele><time>2026-05-02T12:19:58Z</time></trkpt><trkpt lat="45.75746426810443" lon="9.75482769948863"><ele>464.00000000000006</ele><time>2026-05-02T12:19:59Z</time></trkpt><trkpt lat="45.75751908818956" lon="9.754770591071884"><ele>464.00000000000006</ele><time>2026-05-02T12:20:00Z</time></trkpt><trkpt lat="45.757577482205186" lon="9.75472033510033"><ele>464.0</ele><time>2026-05-02T12:20:01Z</time></trkpt><trkpt lat="45.7576364538972" lon="9.7546651238968"><ele>464.00000000000006</ele><time>2026-05-02T12:20:02Z</time></trkpt><trkpt lat="45.757693959926065" lon="9.754602535953849"><ele>464.00000000000006</ele><time>2026-05-02T12:20:03Z</time></trkpt><trkpt lat="45.75774843476392" lon="9.754541580563648"><ele>458.4</ele><time>2026-05-02T12:20:04Z</time></trkpt><trkpt lat="45.75782923870744" lon="9.754437161996679"><ele>452.79999999999995</ele><time>2026-05-02T12:20:06Z</time></trkpt><trkpt lat="45.757905236668726" lon="9.754479089462071"><ele>447.20000000000005</ele><time>2026-05-02T12:20:09Z</time></trkpt><trkpt lat="45.75785972371083" lon="9.754616943454538"><ele>441.6</ele><time>2026-05-02T12:20:11Z</time></trkpt><trkpt lat="45.757767000175086" lon="9.754728641560554"><ele>436.0</ele><time>2026-05-02T12:20:13Z</time></trkpt><trkpt lat="45.75771873291898" lon="9.7547937800285"><ele>440.6666666666667</ele><time>2026-05-02T12:20:14Z</time></trkpt><trkpt lat="45.75766558410467" lon="9.754862110778355"><ele>445.33333333333337</ele><time>2026-05-02T12:20:15Z</time></trkpt><trkpt lat="45.75761133560502" lon="9.754928318111112"><ele>450.0</ele><time>2026-05-02T12:20:16Z</time></trkpt><trkpt lat="45.75755139505677" lon="9.754999705584133"><ele>454.66666666666663</ele><time>2026-05-02T12:20:17Z</time></trkpt><trkpt lat="45.757486322486194" lon="9.755066971563188"><ele>459.3333333333333</ele><time>2026-05-02T12:20:18Z</time></trkpt><trkpt lat="45.75741705151884" lon="9.75513225711199"><ele>464.0</ele><time>2026-05-02T12:20:19Z</time></trkpt><trkpt lat="45.75734572593229" lon="9.755202125397826"><ele>459.2</ele><time>2026-05-02T12:20:20Z</time></trkpt><trkpt lat="45.75727277860728" lon="9.755271386170092"><ele>454.4</ele><time>2026-05-02T12:20:21Z</time></trkpt><trkpt lat="45.75720128915683" lon="9.755353977998551"><ele>449.6</ele><time>2026-05-02T12:20:22Z</time></trkpt><trkpt lat="45.75713224478671" lon="9.755442470161055"><ele>444.8</ele><time>2026-05-02T12:20:23Z</time></trkpt><trkpt lat="45.75706458502975" lon="9.755532682373307"><ele>440.0</ele><time>2026-05-02T12:20:24Z</time></trkpt><trkpt lat="45.75699530869694" lon="9.755628251054496"><ele>440.0</ele><time>2026-05-02T12:20:25Z</time></trkpt><trkpt lat="45.756928384687264" lon="9.755730026351648"><ele>440.0</ele><time>2026-05-02T12:20:26Z</time></trkpt><trkpt lat="45.75686064901962" lon="9.755831866991295"><ele>440.0</ele><time>2026-05-02T12:20:27Z</time></trkpt><trkpt lat="45.75679609687709" lon="9.755941421575537"><ele>440.0</ele><time>2026-05-02T12:20:28Z</time></trkpt><trkpt lat="45.75673035892956" lon="9.756054267667325"><ele>440.0</ele><time>2026-05-02T12:20:29Z</time></trkpt><trkpt lat="45.756666654403425" lon="9.756172169037553"><ele>441.2</ele><time>2026-05-02T12:20:30Z</time></trkpt><trkpt lat="45.75660516673774" lon="9.756294173594357"><ele>442.4</ele><time>2026-05-02T12:20:31Z</time></trkpt><trkpt lat="45.75655126065538" lon="9.756425327227088"><ele>443.6</ele><time>2026-05-02T12:20:32Z</time></trkpt><trkpt lat="45.75650209562932" lon="9.7565545558438"><ele>444.8</ele><time>2026-05-02T12:20:33Z</time></trkpt><trkpt lat="45.75645330729922" lon="9.756659487782791"><ele>446.0</ele><time>2026-05-02T12:20:34Z</time></trkpt><trkpt lat="45.756405294147505" lon="9.75675342029945"><ele>445.99999999999994</ele><time>2026-05-02T12:20:35Z</time></trkpt><trkpt lat="45.756350524107546" lon="9.75682364275416"><ele>446.0</ele><time>2026-05-02T12:20:36Z</time></trkpt><trkpt lat="45.75628117607267" lon="9.756889212895414"><ele>446.0</ele><time>2026-05-02T12:20:37Z</time></trkpt><trkpt lat="45.75620653395246" lon="9.75695270654918"><ele>446.0</ele><time>2026-05-02T12:20:38Z</time></trkpt><trkpt lat="45.75613141848126" lon="9.75702059814977"><ele>445.99999999999994</ele><time>2026-05-02T12:20:39Z</time></trkpt><trkpt lat="45.756052772881056" lon="9.757086274272057"><ele>446.0</ele><time>2026-05-02T12:20:40Z</time></trkpt><trkpt lat="45.75596688109069" lon="9.757133775994596"><ele>444.4</ele><time>2026-05-02T12:20:41Z</time></trkpt><trkpt lat="45.75587584202222" lon="9.757169301465826"><ele>442.8</ele><time>2026-05-02T12:20:42Z</time></trkpt><trkpt lat="45.755780962414725" lon="9.757191981935085"><ele>441.19999999999993</ele><time>2026-05-02T12:20:43Z</time></trkpt><trkpt lat="45.75568488065881" lon="9.757209391978705"><ele>439.59999999999997</ele><time>2026-05-02T12:20:44Z</time></trkpt><trkpt lat="45.75558593225077" lon="9.757219501610743"><ele>438.0</ele><time>2026-05-02T12:20:45Z</time></trkpt><trkpt lat="45.75548396913863" lon="9.757225413586909"><ele>438.0</ele><time>2026-05-02T12:20:46Z</time></trkpt><trkpt lat="45.75538291177741" lon="9.757248732247168"><ele>437.99999999999994</ele><time>2026-05-02T12:20:47Z</time></trkpt><trkpt lat="45.7552881286171" lon="9.75730058120166"><ele>437.99999999999994</ele><time>2026-05-02T12:20:48Z</time></trkpt><trkpt lat="45.75520513417178" lon="9.757401169965414"><ele>438.0</ele><time>2026-05-02T12:20:49Z</time></trkpt><trkpt lat="45.755143312828004" lon="9.757531240176565"><ele>438.0</ele><time>2026-05-02T12:20:50Z</time></trkpt><trkpt lat="45.75509328985317" lon="9.75766349819446"><ele>436.59999999999997</ele><time>2026-05-02T12:20:51Z</time></trkpt><trkpt lat="45.75503042561788" lon="9.757784991020486"><ele>435.19999999999993</ele><time>2026-05-02T12:20:52Z</time></trkpt><trkpt lat="45.75496702294189" lon="9.757904541916071"><ele>433.8</ele><time>2026-05-02T12:20:53Z</time></trkpt><trkpt lat="45.7548976772335" lon="9.758022175105351"><ele>432.4</ele><time>2026-05-02T12:20:54Z</time></trkpt><trkpt lat="45.75482924003524" lon="9.758146338540787"><ele>431.0</ele><time>2026-05-02T12:20:55Z</time></trkpt><trkpt lat="45.754769516637865" lon="9.758279414073593"><ele>431.0</ele><time>2026-05-02T12:20:56Z</time></trkpt><trkpt lat="45.75471846906378" lon="9.758421183802497"><ele>431.0</ele><time>2026-05-02T12:20:57Z</time></trkpt><trkpt lat="45.754668626534404" lon="9.75856204660177"><ele>431.0</ele><time>2026-05-02T12:20:58Z</time></trkpt><trkpt lat="45.754614396002424" lon="9.758698128843116"><ele>431.0</ele><time>2026-05-02T12:20:59Z</time></trkpt><trkpt lat="45.75454371298014" lon="9.758817588777546"><ele>431.0</ele><time>2026-05-02T12:21:00Z</time></trkpt><trkpt lat="45.75446745922703" lon="9.758935095155207"><ele>431.0</ele><time>2026-05-02T12:21:01Z</time></trkpt><trkpt lat="45.75440043788791" lon="9.759044882664927"><ele>431.0</ele><time>2026-05-02T12:21:02Z</time></trkpt><trkpt lat="45.754308730882194" lon="9.759146883715877"><ele>431.0</ele><time>2026-05-02T12:21:03Z</time></trkpt><trkpt lat="45.754226683290725" lon="9.759245969604438"><ele>431.0</ele><time>2026-05-02T12:21:04Z</time></trkpt><trkpt lat="45.754138578129286" lon="9.759334036581118"><ele>431.0</ele><time>2026-05-02T12:21:05Z</time></trkpt><trkpt lat="45.754020613127636" lon="9.759358860679285"><ele>428.6</ele><time>2026-05-02T12:21:06Z</time></trkpt><trkpt lat="45.75391717289976" lon="9.759384618353232"><ele>426.20000000000005</ele><time>2026-05-02T12:21:07Z</time></trkpt><trkpt lat="45.75380652747839" lon="9.759393294819372"><ele>423.79999999999995</ele><time>2026-05-02T12:21:08Z</time></trkpt><trkpt lat="45.75370576375551" lon="9.759429761941098"><ele>421.4</ele><time>2026-05-02T12:21:09Z</time></trkpt><trkpt lat="45.753603532043265" lon="9.75947910230361"><ele>419.0</ele><time>2026-05-02T12:21:10Z</time></trkpt><trkpt lat="45.753504624711944" lon="9.759534728121388"><ele>419.0</ele><time>2026-05-02T12:21:11Z</time></trkpt><trkpt lat="45.75340926009073" lon="9.75960051245498"><ele>419.0</ele><time>2026-05-02T12:21:12Z</time></trkpt><trkpt lat="45.75331645658182" lon="9.759676051252146"><ele>419.0</ele><time>2026-05-02T12:21:13Z</time></trkpt><trkpt lat="45.75322930919773" lon="9.759762965603645"><ele>419.0</ele><time>2026-05-02T12:21:14Z</time></trkpt><trkpt lat="45.75314519774406" lon="9.759859023784534"><ele>419.0</ele><time>2026-05-02T12:21:15Z</time></trkpt><trkpt lat="45.753058723997356" lon="9.759947832504475"><ele>419.0</ele><time>2026-05-02T12:21:16Z</time></trkpt><trkpt lat="45.75295625386974" lon="9.760011638268336"><ele>419.0</ele><time>2026-05-02T12:21:17Z</time></trkpt><trkpt lat="45.75285086724064" lon="9.760053243578898"><ele>419.0</ele><time>2026-05-02T12:21:18Z</time></trkpt><trkpt lat="45.7527451300602" lon="9.760083930149019"><ele>419.0</ele><time>2026-05-02T12:21:19Z</time></trkpt><trkpt lat="45.75264368026034" lon="9.760137818683107"><ele>419.0</ele><time>2026-05-02T12:21:20Z</time></trkpt><trkpt lat="45.75254519021877" lon="9.760196661570411"><ele>414.79999999999995</ele><time>2026-05-02T12:21:21Z</time></trkpt><trkpt lat="45.75244897505387" lon="9.760263144062002"><ele>410.59999999999997</ele><time>2026-05-02T12:21:22Z</time></trkpt><trkpt lat="45.75234432312833" lon="9.760305627229277"><ele>406.4</ele><time>2026-05-02T12:21:23Z</time></trkpt><trkpt lat="45.75223738837605" lon="9.760321566875454"><ele>402.2</ele><time>2026-05-02T12:21:24Z</time></trkpt><trkpt lat="45.75213074739805" lon="9.76032496628086"><ele>398.0</ele><time>2026-05-02T12:21:25Z</time></trkpt><trkpt lat="45.75202878551502" lon="9.760331952560586"><ele>398.0</ele><time>2026-05-02T12:21:26Z</time></trkpt><trkpt lat="45.75192505443651" lon="9.760348645423077"><ele>398.0</ele><time>2026-05-02T12:21:27Z</time></trkpt><trkpt lat="45.7518197758145" lon="9.760368823375394"><ele>398.0</ele><time>2026-05-02T12:21:28Z</time></trkpt><trkpt lat="45.75171707638105" lon="9.760397650210269"><ele>398.0</ele><time>2026-05-02T12:21:29Z</time></trkpt><trkpt lat="45.75161629089176" lon="9.76042513320152"><ele>398.0</ele><time>2026-05-02T12:21:30Z</time></trkpt><trkpt lat="45.75151493667236" lon="9.760454639958061"><ele>395.79999999999995</ele><time>2026-05-02T12:21:31Z</time></trkpt><trkpt lat="45.75141335273883" lon="9.760481698647075"><ele>393.6</ele><time>2026-05-02T12:21:32Z</time></trkpt><trkpt lat="45.751307731361536" lon="9.760503356701166"><ele>391.4</ele><time>2026-05-02T12:21:33Z</time></trkpt><trkpt lat="45.751200506282636" lon="9.760508810286606"><ele>389.20000000000005</ele><time>2026-05-02T12:21:34Z</time></trkpt><trkpt lat="45.75109161411775" lon="9.760493714575235"><ele>387.0</ele><time>2026-05-02T12:21:35Z</time></trkpt><trkpt lat="45.75098860060476" lon="9.760458371105754"><ele>384.6</ele><time>2026-05-02T12:21:36Z</time></trkpt><trkpt lat="45.750890863813645" lon="9.760404747840012"><ele>382.20000000000005</ele><time>2026-05-02T12:21:37Z</time></trkpt><trkpt lat="45.75079962866338" lon="9.760339985014108"><ele>379.8</ele><time>2026-05-02T12:21:38Z</time></trkpt><trkpt lat="45.7507086623144" lon="9.760276913578066"><ele>377.4</ele><time>2026-05-02T12:21:39Z</time></trkpt><trkpt lat="45.750618888851065" lon="9.760213056490594"><ele>375.0</ele><time>2026-05-02T12:21:40Z</time></trkpt><trkpt lat="45.75053005151339" lon="9.760153783294012"><ele>379.2</ele><time>2026-05-02T12:21:41Z</time></trkpt><trkpt lat="45.75044199591964" lon="9.76009887699929"><ele>383.4</ele><time>2026-05-02T12:21:42Z</time></trkpt><trkpt lat="45.75035234853142" lon="9.760048640522864"><ele>387.6</ele><time>2026-05-02T12:21:43Z</time></trkpt><trkpt lat="45.75026055476554" lon="9.760003860394933"><ele>391.8</ele><time>2026-05-02T12:21:44Z</time></trkpt><trkpt lat="45.750171127953415" lon="9.759953983299013"><ele>396.0</ele><time>2026-05-02T12:21:45Z</time></trkpt><trkpt lat="45.750086471880365" lon="9.759897572709983"><ele>396.0</ele><time>2026-05-02T12:21:46Z</time></trkpt><trkpt lat="45.75000227665919" lon="9.759835078430765"><ele>396.0</ele><time>2026-05-02T12:21:47Z</time></trkpt><trkpt lat="45.74991909801312" lon="9.759771316630241"><ele>396.0</ele><time>2026-05-02T12:21:48Z</time></trkpt><trkpt lat="45.74983399180884" lon="9.75971366457209"><ele>396.0</ele><time>2026-05-02T12:21:49Z</time></trkpt><trkpt lat="45.749746645347464" lon="9.759659278111256"><ele>396.0</ele><time>2026-05-02T12:21:50Z</time></trkpt><trkpt lat="45.74966127298876" lon="9.759602296861898"><ele>396.0</ele><time>2026-05-02T12:21:51Z</time></trkpt><trkpt lat="45.74957738257607" lon="9.759538531093408"><ele>396.0</ele><time>2026-05-02T12:21:52Z</time></trkpt><trkpt lat="45.749500277449414" lon="9.75946270787462"><ele>396.0</ele><time>2026-05-02T12:21:53Z</time></trkpt><trkpt lat="45.749428269540054" lon="9.759374209811194"><ele>396.0</ele><time>2026-05-02T12:21:54Z</time></trkpt><trkpt lat="45.74935823418996" lon="9.759289190126555"><ele>396.0</ele><time>2026-05-02T12:21:55Z</time></trkpt><trkpt lat="45.749282760925986" lon="9.759216946747875"><ele>395.4</ele><time>2026-05-02T12:21:56Z</time></trkpt><trkpt lat="45.74920237379426" lon="9.759155296544481"><ele>394.8</ele><time>2026-05-02T12:21:57Z</time></trkpt><trkpt lat="45.74911742764617" lon="9.759104235312408"><ele>394.2</ele><time>2026-05-02T12:21:58Z</time></trkpt><trkpt lat="45.74902632693996" lon="9.75908007156185"><ele>393.59999999999997</ele><time>2026-05-02T12:21:59Z</time></trkpt><trkpt lat="45.74893138251833" lon="9.759083534368118"><ele>393.0</ele><time>2026-05-02T12:22:00Z</time></trkpt><trkpt lat="45.74883681727092" lon="9.759098981874315"><ele>393.0</ele><time>2026-05-02T12:22:01Z</time></trkpt><trkpt lat="45.74874308046337" lon="9.759098514696687"><ele>393.0</ele><time>2026-05-02T12:22:02Z</time></trkpt><trkpt lat="45.74865002751773" lon="9.759087131194441"><ele>393.0</ele><time>2026-05-02T12:22:03Z</time></trkpt><trkpt lat="45.74855652088968" lon="9.759081311982403"><ele>393.0</ele><time>2026-05-02T12:22:04Z</time></trkpt><trkpt lat="45.74846236592375" lon="9.759077840570553"><ele>393.0</ele><time>2026-05-02T12:22:05Z</time></trkpt><trkpt lat="45.74836606001256" lon="9.75906087541946"><ele>391.79999999999995</ele><time>2026-05-02T12:22:06Z</time></trkpt><trkpt lat="45.74827105419979" lon="9.75901731277832"><ele>390.6</ele><time>2026-05-02T12:22:07Z</time></trkpt><trkpt lat="45.74818943778554" lon="9.758935861301792"><ele>389.4</ele><time>2026-05-02T12:22:08Z</time></trkpt><trkpt lat="45.748121868673586" lon="9.758839272481824"><ele>388.20000000000005</ele><time>2026-05-02T12:22:09Z</time></trkpt><trkpt lat="45.74805863255256" lon="9.758739365246097"><ele>387.0</ele><time>2026-05-02T12:22:10Z</time></trkpt><trkpt lat="45.74799034971171" lon="9.758653788697702"><ele>387.0</ele><time>2026-05-02T12:22:11Z</time></trkpt><trkpt lat="45.747913133673165" lon="9.758586575538052"><ele>387.0</ele><time>2026-05-02T12:22:12Z</time></trkpt><trkpt lat="45.747833583784264" lon="9.758531564437169"><ele>387.0</ele><time>2026-05-02T12:22:13Z</time></trkpt><trkpt lat="45.7477407577762" lon="9.758487015245871"><ele>387.0</ele><time>2026-05-02T12:22:14Z</time></trkpt><trkpt lat="45.74765400047191" lon="9.758449088871673"><ele>387.0</ele><time>2026-05-02T12:22:15Z</time></trkpt><trkpt lat="45.747561426015935" lon="9.758416643622466"><ele>385.0</ele><time>2026-05-02T12:22:16Z</time></trkpt><trkpt lat="45.74746713365282" lon="9.758395492450266"><ele>383.0</ele><time>2026-05-02T12:22:17Z</time></trkpt><trkpt lat="45.747370345980855" lon="9.758391613910263"><ele>381.0</ele><time>2026-05-02T12:22:18Z</time></trkpt><trkpt lat="45.74727433598362" lon="9.7583965871237"><ele>379.0</ele><time>2026-05-02T12:22:19Z</time></trkpt><trkpt lat="45.74717718378765" lon="9.758395992743967"><ele>377.0</ele><time>2026-05-02T12:22:20Z</time></trkpt><trkpt lat="45.7470813260948" lon="9.75841041772707"><ele>377.0</ele><time>2026-05-02T12:22:21Z</time></trkpt><trkpt lat="45.74697976347866" lon="9.758428459687291"><ele>377.0</ele><time>2026-05-02T12:22:22Z</time></trkpt><trkpt lat="45.74688138830778" lon="9.758446482450115"><ele>377.0</ele><time>2026-05-02T12:22:23Z</time></trkpt><trkpt lat="45.74678608844666" lon="9.758468916968477"><ele>377.0</ele><time>2026-05-02T12:22:24Z</time></trkpt><trkpt lat="45.746687452838366" lon="9.758508611057396"><ele>377.0</ele><time>2026-05-02T12:22:25Z</time></trkpt><trkpt lat="45.74659310119537" lon="9.758568993234208"><ele>378.8</ele><time>2026-05-02T12:22:26Z</time></trkpt><trkpt lat="45.7464965863395" lon="9.758631799225876"><ele>380.6</ele><time>2026-05-02T12:22:27Z</time></trkpt><trkpt lat="45.746397152566466" lon="9.758679308711505"><ele>382.40000000000003</ele><time>2026-05-02T12:22:28Z</time></trkpt><trkpt lat="45.746298231343545" lon="9.758713444864645"><ele>384.20000000000005</ele><time>2026-05-02T12:22:29Z</time></trkpt><trkpt lat="45.746203614999025" lon="9.758739192442627"><ele>386.0</ele><time>2026-05-02T12:22:30Z</time></trkpt><trkpt lat="45.74611972752049" lon="9.758760851404997"><ele>380.20000000000005</ele><time>2026-05-02T12:22:31Z</time></trkpt><trkpt lat="45.74604215399678" lon="9.758819585948878"><ele>374.40000000000003</ele><time>2026-05-02T12:22:32Z</time></trkpt><trkpt lat="45.74598670198927" lon="9.758928268261313"><ele>368.6</ele><time>2026-05-02T12:22:33Z</time></trkpt><trkpt lat="45.74596746409201" lon="9.759072571435677"><ele>362.8</ele><time>2026-05-02T12:22:34Z</time></trkpt><trkpt lat="45.7459671234896" lon="9.75921600994581"><ele>357.0</ele><time>2026-05-02T12:22:35Z</time></trkpt><trkpt lat="45.74596478258409" lon="9.759363034042662"><ele>355.8</ele><time>2026-05-02T12:22:36Z</time></trkpt><trkpt lat="45.745957327770185" lon="9.759512166784841"><ele>354.6</ele><time>2026-05-02T12:22:37Z</time></trkpt><trkpt lat="45.74595942007959" lon="9.759664651309423"><ele>353.40000000000003</ele><time>2026-05-02T12:22:38Z</time></trkpt><trkpt lat="45.745989098630666" lon="9.759818911708521"><ele>352.20000000000005</ele><time>2026-05-02T12:22:39Z</time></trkpt><trkpt lat="45.74604460888176" lon="9.75995808799545"><ele>351.0</ele><time>2026-05-02T12:22:40Z</time></trkpt><trkpt lat="45.74611903330455" lon="9.760081909248452"><ele>351.0</ele><time>2026-05-02T12:22:41Z</time></trkpt><trkpt lat="45.74620741825571" lon="9.760189824804932"><ele>351.0</ele><time>2026-05-02T12:22:42Z</time></trkpt><trkpt lat="45.74630950406593" lon="9.760277746527073"><ele>351.0</ele><time>2026-05-02T12:22:43Z</time></trkpt><trkpt lat="45.74641770217572" lon="9.760353400240014"><ele>351.0</ele><time>2026-05-02T12:22:44Z</time></trkpt><trkpt lat="45.74652548920892" lon="9.760438767419652"><ele>351.0</ele><time>2026-05-02T12:22:45Z</time></trkpt><trkpt lat="45.746634519295036" lon="9.760535723668108"><ele>351.0</ele><time>2026-05-02T12:22:46Z</time></trkpt><trkpt lat="45.746748024092994" lon="9.760625160587509"><ele>351.0</ele><time>2026-05-02T12:22:47Z</time></trkpt><trkpt lat="45.746866151179596" lon="9.760717581077786"><ele>351.0</ele><time>2026-05-02T12:22:48Z</time></trkpt><trkpt lat="45.74698205829952" lon="9.760825841717146"><ele>348.5</ele><time>2026-05-02T12:22:49Z</time></trkpt><trkpt lat="45.74709607642685" lon="9.760940234211198"><ele>346.0</ele><time>2026-05-02T12:22:50Z</time></trkpt><trkpt lat="45.747207804756854" lon="9.761039187400044"><ele>343.5</ele><time>2026-05-02T12:22:51Z</time></trkpt><trkpt lat="45.74732235338554" lon="9.761135229575379"><ele>341.0</ele><time>2026-05-02T12:22:52Z</time></trkpt><trkpt lat="45.7474334433372" lon="9.761219069905078"><ele>341.0</ele><time>2026-05-02T12:22:53Z</time></trkpt><trkpt lat="45.74754071856522" lon="9.761301054981258"><ele>341.0</ele><time>2026-05-02T12:22:54Z</time></trkpt><trkpt lat="45.74763181942277" lon="9.761408872238194"><ele>341.0</ele><time>2026-05-02T12:22:55Z</time></trkpt><trkpt lat="45.74770629389283" lon="9.761522950920101"><ele>341.0</ele><time>2026-05-02T12:22:56Z</time></trkpt><trkpt lat="45.74777004877409" lon="9.761620626932185"><ele>341.0</ele><time>2026-05-02T12:22:57Z</time></trkpt><trkpt lat="45.7478489830999" lon="9.761673396436066"><ele>340.8</ele><time>2026-05-02T12:22:58Z</time></trkpt><trkpt lat="45.74794753825048" lon="9.761663241953713"><ele>340.6</ele><time>2026-05-02T12:22:59Z</time></trkpt><trkpt lat="45.74803609688788" lon="9.761589179957017"><ele>340.4</ele><time>2026-05-02T12:23:00Z</time></trkpt><trkpt lat="45.74811446220043" lon="9.761496720736535"><ele>340.2</ele><time>2026-05-02T12:23:01Z</time></trkpt><trkpt lat="45.74818987258934" lon="9.761411544157653"><ele>340.0</ele><time>2026-05-02T12:23:02Z</time></trkpt><trkpt lat="45.7482620339113" lon="9.761367686987644"><ele>340.0</ele><time>2026-05-02T12:23:03Z</time></trkpt><trkpt lat="45.74833271022155" lon="9.761375990784375"><ele>340.0</ele><time>2026-05-02T12:23:04Z</time></trkpt><trkpt lat="45.74838854694717" lon="9.761428661575037"><ele>340.0</ele><time>2026-05-02T12:23:05Z</time></trkpt><trkpt lat="45.74840389940675" lon="9.761535912107684"><ele>340.0</ele><time>2026-05-02T12:23:06Z</time></trkpt><trkpt lat="45.748363191708606" lon="9.761637383799346"><ele>340.0</ele><time>2026-05-02T12:23:07Z</time></trkpt><trkpt lat="45.748290019873366" lon="9.761686690712091"><ele>340.0</ele><time>2026-05-02T12:23:08Z</time></trkpt><trkpt lat="45.748224839401885" lon="9.76173049383081"><ele>340.0</ele><time>2026-05-02T12:23:09Z</time></trkpt><trkpt lat="45.748160392536256" lon="9.761780970848497"><ele>340.0</ele><time>2026-05-02T12:23:10Z</time></trkpt><trkpt lat="45.74809823566508" lon="9.761831980258611"><ele>340.0</ele><time>2026-05-02T12:23:11Z</time></trkpt><trkpt lat="45.74803312731226" lon="9.761874844552104"><ele>340.0</ele><time>2026-05-02T12:23:12Z</time></trkpt><trkpt lat="45.747965606244" lon="9.761903668662974"><ele>340.0</ele><time>2026-05-02T12:23:13Z</time></trkpt><trkpt lat="45.74789868727311" lon="9.761927521538015"><ele>340.0</ele><time>2026-05-02T12:23:14Z</time></trkpt><trkpt lat="45.7478297166128" lon="9.761949827950664"><ele>340.0</ele><time>2026-05-02T12:23:15Z</time></trkpt><trkpt lat="45.74776218559028" lon="9.761967352116926"><ele>340.0</ele><time>2026-05-02T12:23:16Z</time></trkpt><trkpt lat="45.74769302616965" lon="9.761983952191212"><ele>338.5</ele><time>2026-05-02T12:23:17Z</time></trkpt><trkpt lat="45.747619669106186" lon="9.762004506755279"><ele>337.0</ele><time>2026-05-02T12:23:18Z</time></trkpt><trkpt lat="45.7475418748946" lon="9.762013277658896"><ele>335.5</ele><time>2026-05-02T12:23:19Z</time></trkpt><trkpt lat="45.747466990565385" lon="9.762001367595664"><ele>334.0</ele><time>2026-05-02T12:23:20Z</time></trkpt><trkpt lat="45.747387519441" lon="9.761977608047976"><ele>332.5</ele><time>2026-05-02T12:23:21Z</time></trkpt><trkpt lat="45.74731363502866" lon="9.761933323779653"><ele>331.0</ele><time>2026-05-02T12:23:22Z</time></trkpt><trkpt lat="45.747246023664644" lon="9.761873149771269"><ele>331.3333333333333</ele><time>2026-05-02T12:23:23Z</time></trkpt><trkpt lat="45.74717808623016" lon="9.761813675124579"><ele>331.66666666666663</ele><time>2026-05-02T12:23:24Z</time></trkpt><trkpt lat="45.74710740474508" lon="9.761759631239784"><ele>332.0</ele><time>2026-05-02T12:23:25Z</time></trkpt><trkpt lat="45.74703089147155" lon="9.76170554363581"><ele>332.3333333333333</ele><time>2026-05-02T12:23:26Z</time></trkpt><trkpt lat="45.74694980361059" lon="9.761661939186638"><ele>332.6666666666667</ele><time>2026-05-02T12:23:27Z</time></trkpt><trkpt lat="45.74686558897035" lon="9.761624884350024"><ele>333.0</ele><time>2026-05-02T12:23:28Z</time></trkpt><trkpt lat="45.74678068415131" lon="9.761595268435368"><ele>333.0</ele><time>2026-05-02T12:23:29Z</time></trkpt><trkpt lat="45.74669843877984" lon="9.761557763851147"><ele>333.0</ele><time>2026-05-02T12:23:30Z</time></trkpt><trkpt lat="45.746617242076866" lon="9.761532397156229"><ele>333.0</ele><time>2026-05-02T12:23:31Z</time></trkpt><trkpt lat="45.746542696513345" lon="9.761534428274839"><ele>333.0</ele><time>2026-05-02T12:23:32Z</time></trkpt><trkpt lat="45.74648005223301" lon="9.761576612408064"><ele>333.0</ele><time>2026-05-02T12:23:33Z</time></trkpt><trkpt lat="45.74643555233111" lon="9.761667366162401"><ele>333.0</ele><time>2026-05-02T12:23:34Z</time></trkpt><trkpt lat="45.74642770251507" lon="9.76176679503285"><ele>332.0</ele><time>2026-05-02T12:23:35Z</time></trkpt><trkpt lat="45.74640621017989" lon="9.761888832227802"><ele>331.0</ele><time>2026-05-02T12:23:37Z</time></trkpt><trkpt lat="45.74640327716702" lon="9.761993864949966"><ele>330.0</ele><time>2026-05-02T12:23:39Z</time></trkpt><trkpt lat="45.74646367948352" lon="9.762063754447974"><ele>329.0</ele><time>2026-05-02T12:23:43Z</time></trkpt><trkpt lat="45.74654226991079" lon="9.762063352175586"><ele>328.0</ele><time>2026-05-02T12:23:47Z</time></trkpt><trkpt lat="45.74660242707535" lon="9.762021300216745"><ele>327.0</ele><time>2026-05-02T12:23:50Z</time></trkpt><trkpt lat="45.74667806823019" lon="9.762068025790683"><ele>327.0</ele><time>2026-05-02T12:23:55Z</time></trkpt><trkpt lat="45.746750350862996" lon="9.762075635477066"><ele>327.0</ele><time>2026-05-02T12:23:58Z</time></trkpt><trkpt lat="45.74683557053141" lon="9.762126352335263"><ele>327.0</ele><time>2026-05-02T12:24:01Z</time></trkpt><trkpt lat="45.746924818566754" lon="9.76214800087575"><ele>327.0</ele><time>2026-05-02T12:24:03Z</time></trkpt><trkpt lat="45.74699015561612" lon="9.762179427941177"><ele>327.0</ele><time>2026-05-02T12:24:05Z</time></trkpt><trkpt lat="45.74706629030389" lon="9.7622323732681"><ele>327.0</ele><time>2026-05-02T12:24:08Z</time></trkpt><trkpt lat="45.7470854366057" lon="9.762125577918653"><ele>327.6666666666667</ele><time>2026-05-02T12:24:15Z</time></trkpt><trkpt lat="45.747113081179" lon="9.761972285958473"><ele>328.3333333333333</ele><time>2026-05-02T12:24:31Z</time></trkpt><trkpt lat="45.747161525610366" lon="9.762036406482085"><ele>329.0</ele><time>2026-05-02T12:24:39Z</time></trkpt><trkpt lat="45.747204143888965" lon="9.762136775541988"><ele>329.66666666666663</ele><time>2026-05-02T12:24:42Z</time></trkpt><trkpt lat="45.74723687026436" lon="9.76222310228981"><ele>330.3333333333333</ele><time>2026-05-02T12:24:47Z</time></trkpt><trkpt lat="45.74720226286589" lon="9.762311217397855"><ele>331.0</ele><time>2026-05-02T12:24:52Z</time></trkpt><trkpt lat="45.7471740138287" lon="9.76240470937419"><ele>331.0</ele><time>2026-05-02T12:24:55Z</time></trkpt><trkpt lat="45.74720891753787" lon="9.762529441113612"><ele>331.0</ele><time>2026-05-02T12:24:58Z</time></trkpt><trkpt lat="45.747262284887334" lon="9.762584307980612"><ele>331.0</ele><time>2026-05-02T12:25:01Z</time></trkpt><trkpt lat="45.74720656295835" lon="9.76249390704644"><ele>331.0</ele><time>2026-05-02T12:25:08Z</time></trkpt><trkpt lat="45.74719490772468" lon="9.762393342532427"><ele>331.0</ele><time>2026-05-02T12:25:11Z</time></trkpt><trkpt lat="45.747204903784734" lon="9.76227558811967"><ele>331.0</ele><time>2026-05-02T12:25:14Z</time></trkpt><trkpt lat="45.74725811393769" lon="9.762219525300486"><ele>331.0</ele><time>2026-05-02T12:25:19Z</time></trkpt><trkpt lat="45.74718956335891" lon="9.762275452455107"><ele>331.0</ele><time>2026-05-02T12:25:28Z</time></trkpt><trkpt lat="45.747123876079236" lon="9.76224396167622"><ele>331.0</ele><time>2026-05-02T12:25:31Z</time></trkpt><trkpt lat="45.74703556004887" lon="9.762201356058315"><ele>331.0</ele><time>2026-05-02T12:25:34Z</time></trkpt><trkpt lat="45.74696608350168" lon="9.762207826781479"><ele>331.0</ele><time>2026-05-02T12:25:36Z</time></trkpt><trkpt lat="45.747036354230275" lon="9.762215786663456"><ele>331.0</ele><time>2026-05-02T12:25:45Z</time></trkpt><trkpt lat="45.74710669533543" lon="9.762225297750478"><ele>331.0</ele><time>2026-05-02T12:25:49Z</time></trkpt><trkpt lat="45.74716781138462" lon="9.762268270971472"><ele>331.0</ele><time>2026-05-02T12:26:02Z</time></trkpt><trkpt lat="45.74714391709307" lon="9.762366307134977"><ele>331.0</ele><time>2026-05-02T12:26:10Z</time></trkpt><trkpt lat="45.74712161686493" lon="9.762476677849456"><ele>331.0</ele><time>2026-05-02T12:26:15Z</time></trkpt><trkpt lat="45.74713976436522" lon="9.76238011131981"><ele>331.0</ele><time>2026-05-02T12:26:24Z</time></trkpt><trkpt lat="45.74715939844841" lon="9.762279769137887"><ele>331.0</ele><time>2026-05-02T12:26:27Z</time></trkpt><trkpt lat="45.74707620950979" lon="9.762251166579382"><ele>331.0</ele><time>2026-05-02T12:26:30Z</time></trkpt><trkpt lat="45.74701010276037" lon="9.76218763857446"><ele>331.0</ele><time>2026-05-02T12:26:34Z</time></trkpt><trkpt lat="45.746923591150015" lon="9.762174907982493"><ele>331.0</ele><time>2026-05-02T12:26:37Z</time></trkpt><trkpt lat="45.746838847226435" lon="9.762141860440211"><ele>331.0</ele><time>2026-05-02T12:26:40Z</time></trkpt><trkpt lat="45.74675774968377" lon="9.762109497646618"><ele>331.0</ele><time>2026-05-02T12:26:43Z</time></trkpt><trkpt lat="45.74670215272705" lon="9.762035115611965"><ele>331.0</ele><time>2026-05-02T12:26:46Z</time></trkpt><trkpt lat="45.74662709882021" lon="9.76220422792291"><ele>330.3333333333333</ele><time>2026-05-02T12:27:30Z</time></trkpt><trkpt lat="45.74661073305386" lon="9.762291707246796"><ele>329.66666666666663</ele><time>2026-05-02T12:27:50Z</time></trkpt><trkpt lat="45.746688611102286" lon="9.762187241353457"><ele>329.0</ele><time>2026-05-02T12:29:25Z</time></trkpt><trkpt lat="45.746682585154915" lon="9.762280468905216"><ele>328.3333333333333</ele><time>2026-05-02T12:30:51Z</time></trkpt><trkpt lat="45.74664840592801" lon="9.762383188694534"><ele>327.6666666666667</ele><time>2026-05-02T12:31:10Z</time></trkpt><trkpt lat="45.7466370821646" lon="9.762252069753535"><ele>327.0</ele><time>2026-05-02T12:31:16Z</time></trkpt><trkpt lat="45.74663917352291" lon="9.762085529858634"><ele>327.0</ele><time>2026-05-02T12:31:23Z</time></trkpt><trkpt lat="45.74670869007551" lon="9.76211776432684"><ele>327.0</ele><time>2026-05-02T12:31:55Z</time></trkpt><trkpt lat="45.746674800705854" lon="9.762196039783756"><ele>327.0</ele><time>2026-05-02T12:32:11Z</time></trkpt><trkpt lat="45.74663167995212" lon="9.76248987011539"><ele>327.0</ele><time>2026-05-02T12:32:29Z</time></trkpt><trkpt lat="45.74660253230536" lon="9.762583303767572"><ele>327.0</ele><time>2026-05-02T12:32:33Z</time></trkpt><trkpt lat="45.746629187868436" lon="9.762466686851955"><ele>327.0</ele><time>2026-05-02T12:32:43Z</time></trkpt><trkpt lat="45.746641801897304" lon="9.762373029968794"><ele>327.0</ele><time>2026-05-02T12:33:13Z</time></trkpt><trkpt lat="45.74661735826989" lon="9.76247327243982"><ele>327.0</ele><time>2026-05-02T12:33:19Z</time></trkpt><trkpt lat="45.746605379884116" lon="9.76234126767208"><ele>327.0</ele><time>2026-05-02T12:33:29Z</time></trkpt><trkpt lat="45.74659379181568" lon="9.762246016603418"><ele>327.0</ele><time>2026-05-02T12:33:35Z</time></trkpt><trkpt lat="45.74662099334517" lon="9.762373206025"><ele>327.0</ele><time>2026-05-02T12:33:54Z</time></trkpt><trkpt lat="45.74665171411169" lon="9.76245208609887"><ele>327.0</ele><time>2026-05-02T12:34:15Z</time></trkpt><trkpt lat="45.74665382261622" lon="9.762549650133991"><ele>327.0</ele><time>2026-05-02T12:34:19Z</time></trkpt><trkpt lat="45.746682916502216" lon="9.76244753184109"><ele>327.0</ele><time>2026-05-02T12:34:41Z</time></trkpt><trkpt lat="45.74668501087542" lon="9.762352874856434"><ele>327.0</ele><time>2026-05-02T12:34:43Z</time></trkpt><trkpt lat="45.7466625710913" lon="9.7622547607464"><ele>327.0</ele><time>2026-05-02T12:35:13Z</time></trkpt><trkpt lat="45.746651395188046" lon="9.762387982684812"><ele>327.0</ele><time>2026-05-02T12:37:18Z</time></trkpt><trkpt lat="45.746660069130414" lon="9.76249309301767"><ele>327.0</ele><time>2026-05-02T12:37:41Z</time></trkpt><trkpt lat="45.746602256738456" lon="9.762564810391966"><ele>327.0</ele><time>2026-05-02T12:38:23Z</time></trkpt><trkpt lat="45.7465768903593" lon="9.762648893528285"><ele>327.0</ele><time>2026-05-02T12:38:31Z</time></trkpt><trkpt lat="45.746596439967966" lon="9.762745956054735"><ele>327.0</ele><time>2026-05-02T12:38:39Z</time></trkpt><trkpt lat="45.746663631412076" lon="9.762719671536876"><ele>327.0</ele><time>2026-05-02T12:38:52Z</time></trkpt><trkpt lat="45.74667108453005" lon="9.76261205999418"><ele>327.0</ele><time>2026-05-02T12:38:57Z</time></trkpt><trkpt lat="45.746677796303" lon="9.762441168280125"><ele>327.0</ele><time>2026-05-02T12:39:02Z</time></trkpt><trkpt lat="45.74668000216336" lon="9.762345751013676"><ele>327.0</ele><time>2026-05-02T12:39:05Z</time></trkpt><trkpt lat="45.74666402910384" lon="9.762258309344041"><ele>327.0</ele><time>2026-05-02T12:39:29Z</time></trkpt><trkpt lat="45.7466705200219" lon="9.76216577102122"><ele>327.0</ele><time>2026-05-02T12:39:39Z</time></trkpt><trkpt lat="45.7466688050702" lon="9.76226216177685"><ele>327.0</ele><time>2026-05-02T12:39:49Z</time></trkpt><trkpt lat="45.74662672785776" lon="9.762338828804488"><ele>327.0</ele><time>2026-05-02T12:40:53Z</time></trkpt><trkpt lat="45.74660992098022" lon="9.762438403204067"><ele>327.0</ele><time>2026-05-02T12:41:00Z</time></trkpt><trkpt lat="45.74659665012345" lon="9.762529521747334"><ele>327.0</ele><time>2026-05-02T12:41:03Z</time></trkpt><trkpt lat="45.746602434782154" lon="9.762432418661042"><ele>327.0</ele><time>2026-05-02T12:41:10Z</time></trkpt><trkpt lat="45.74661993276075" lon="9.76223859628725"><ele>327.0</ele><time>2026-05-02T12:41:19Z</time></trkpt><trkpt lat="45.7465955991646" lon="9.762701695978413"><ele>327.0</ele><time>2026-05-02T12:42:36Z</time></trkpt><trkpt lat="45.746559348816184" lon="9.762606295532429"><ele>327.0</ele><time>2026-05-02T12:43:39Z</time></trkpt><trkpt lat="45.74651694804356" lon="9.762532147869846"><ele>327.0</ele><time>2026-05-02T12:43:42Z</time></trkpt><trkpt lat="45.74644356813684" lon="9.762476519416055"><ele>327.0</ele><time>2026-05-02T12:43:45Z</time></trkpt><trkpt lat="45.74643576891679" lon="9.762306437971137"><ele>327.0</ele><time>2026-05-02T12:43:47Z</time></trkpt><trkpt lat="45.74641766440904" lon="9.762173730431678"><ele>327.0</ele><time>2026-05-02T12:43:49Z</time></trkpt><trkpt lat="45.746424878428094" lon="9.762058347642313"><ele>327.0</ele><time>2026-05-02T12:43:51Z</time></trkpt><trkpt lat="45.74634123341091" lon="9.762016518304376"><ele>327.0</ele><time>2026-05-02T12:43:55Z</time></trkpt><trkpt lat="45.74626751388089" lon="9.762058046386121"><ele>327.0</ele><time>2026-05-02T12:43:57Z</time></trkpt><trkpt lat="45.746176975551776" lon="9.762095754132195"><ele>327.0</ele><time>2026-05-02T12:43:59Z</time></trkpt><trkpt lat="45.74607407473713" lon="9.762139917433919"><ele>327.0</ele><time>2026-05-02T12:44:01Z</time></trkpt><trkpt lat="45.74596286876614" lon="9.762205029242283"><ele>327.0</ele><time>2026-05-02T12:44:03Z</time></trkpt><trkpt lat="45.745860415936065" lon="9.762302765997546"><ele>327.0</ele><time>2026-05-02T12:44:05Z</time></trkpt><trkpt lat="45.745797385650114" lon="9.762323737268641"><ele>327.0</ele><time>2026-05-02T12:44:06Z</time></trkpt><trkpt lat="45.74568439655926" lon="9.762298491438102"><ele>327.0</ele><time>2026-05-02T12:44:08Z</time></trkpt><trkpt lat="45.745590953470185" lon="9.762211581952936"><ele>327.0</ele><time>2026-05-02T12:44:10Z</time></trkpt><trkpt lat="45.74549790200469" lon="9.762152584326136"><ele>327.0</ele><time>2026-05-02T12:44:12Z</time></trkpt><trkpt lat="45.74541286283572" lon="9.762083164160707"><ele>327.0</ele><time>2026-05-02T12:44:14Z</time></trkpt><trkpt lat="45.74532655102634" lon="9.762011050130452"><ele>327.0</ele><time>2026-05-02T12:44:16Z</time></trkpt><trkpt lat="45.74524318765651" lon="9.761957390508178"><ele>327.0</ele><time>2026-05-02T12:44:18Z</time></trkpt><trkpt lat="45.74517560724471" lon="9.761986940474172"><ele>327.0</ele><time>2026-05-02T12:44:20Z</time></trkpt><trkpt lat="45.745106187009185" lon="9.762017904215657"><ele>327.0</ele><time>2026-05-02T12:44:22Z</time></trkpt><trkpt lat="45.74501382710916" lon="9.76204646272335"><ele>325.25</ele><time>2026-05-02T12:44:24Z</time></trkpt><trkpt lat="45.74491479799392" lon="9.762094167766673"><ele>323.5</ele><time>2026-05-02T12:44:26Z</time></trkpt><trkpt lat="45.744815039346776" lon="9.76216578059543"><ele>321.75</ele><time>2026-05-02T12:44:28Z</time></trkpt><trkpt lat="45.74469955469208" lon="9.762197563351513"><ele>320.0</ele><time>2026-05-02T12:44:30Z</time></trkpt><trkpt lat="45.744568739721394" lon="9.762208886651532"><ele>320.0</ele><time>2026-05-02T12:44:32Z</time></trkpt><trkpt lat="45.74443982047251" lon="9.762196633287818"><ele>320.0</ele><time>2026-05-02T12:44:34Z</time></trkpt><trkpt lat="45.74437328138082" lon="9.7621651647098"><ele>320.0</ele><time>2026-05-02T12:44:35Z</time></trkpt><trkpt lat="45.744302137693545" lon="9.762128676966572"><ele>320.0</ele><time>2026-05-02T12:44:36Z</time></trkpt><trkpt lat="45.74423330232055" lon="9.76209247811803"><ele>320.0</ele><time>2026-05-02T12:44:37Z</time></trkpt><trkpt lat="45.744162503125324" lon="9.762046983165039"><ele>320.0</ele><time>2026-05-02T12:44:38Z</time></trkpt><trkpt lat="45.74409477998049" lon="9.761997060043262"><ele>319.83333333333337</ele><time>2026-05-02T12:44:39Z</time></trkpt><trkpt lat="45.74402390199341" lon="9.761940298418232"><ele>319.6666666666667</ele><time>2026-05-02T12:44:40Z</time></trkpt><trkpt lat="45.7439561033942" lon="9.761878535570405"><ele>319.5</ele><time>2026-05-02T12:44:41Z</time></trkpt><trkpt lat="45.743890153376796" lon="9.761810390727367"><ele>319.3333333333333</ele><time>2026-05-02T12:44:42Z</time></trkpt><trkpt lat="45.74382214938905" lon="9.761746689332504"><ele>319.16666666666663</ele><time>2026-05-02T12:44:43Z</time></trkpt><trkpt lat="45.7437545774344" lon="9.761684078893142"><ele>319.0</ele><time>2026-05-02T12:44:44Z</time></trkpt><trkpt lat="45.74368187076129" lon="9.761621614959184"><ele>319.0</ele><time>2026-05-02T12:44:45Z</time></trkpt><trkpt lat="45.74360661681225" lon="9.761572597486657"><ele>319.0</ele><time>2026-05-02T12:44:46Z</time></trkpt><trkpt lat="45.74352159123589" lon="9.761554202235038"><ele>319.0</ele><time>2026-05-02T12:44:47Z</time></trkpt><trkpt lat="45.743438279239136" lon="9.761558403918816"><ele>319.0</ele><time>2026-05-02T12:44:48Z</time></trkpt><trkpt lat="45.74335291074399" lon="9.76156319274638"><ele>319.0</ele><time>2026-05-02T12:44:49Z</time></trkpt><trkpt lat="45.743266476438976" lon="9.761570470360263"><ele>319.0</ele><time>2026-05-02T12:44:50Z</time></trkpt><trkpt lat="45.743176752096176" lon="9.761575080298938"><ele>317.59999999999997</ele><time>2026-05-02T12:44:51Z</time></trkpt><trkpt lat="45.74308600636377" lon="9.761575955983075"><ele>316.2</ele><time>2026-05-02T12:44:52Z</time></trkpt><trkpt lat="45.74299136417304" lon="9.761578441345977"><ele>314.79999999999995</ele><time>2026-05-02T12:44:53Z</time></trkpt><trkpt lat="45.742895573148644" lon="9.761586647746176"><ele>313.4</ele><time>2026-05-02T12:44:54Z</time></trkpt><trkpt lat="45.74279822917515" lon="9.761595776158755"><ele>312.0</ele><time>2026-05-02T12:44:55Z</time></trkpt><trkpt lat="45.74270072489127" lon="9.761604791790479"><ele>311.2</ele><time>2026-05-02T12:44:56Z</time></trkpt><trkpt lat="45.74260256093397" lon="9.761618769420148"><ele>310.4</ele><time>2026-05-02T12:44:57Z</time></trkpt><trkpt lat="45.742506637732426" lon="9.76163527447168"><ele>309.6</ele><time>2026-05-02T12:44:58Z</time></trkpt><trkpt lat="45.742413715115" lon="9.7616602035028"><ele>308.8</ele><time>2026-05-02T12:44:59Z</time></trkpt><trkpt lat="45.74232323542986" lon="9.76168810774827"><ele>308.0</ele><time>2026-05-02T12:45:00Z</time></trkpt><trkpt lat="45.74223457485795" lon="9.761711062197993"><ele>308.0</ele><time>2026-05-02T12:45:01Z</time></trkpt><trkpt lat="45.7421514490453" lon="9.761718215979059"><ele>308.0</ele><time>2026-05-02T12:45:02Z</time></trkpt><trkpt lat="45.742070247221086" lon="9.761709001603386"><ele>308.0</ele><time>2026-05-02T12:45:03Z</time></trkpt><trkpt lat="45.741989866060415" lon="9.76172003540027"><ele>308.0</ele><time>2026-05-02T12:45:04Z</time></trkpt><trkpt lat="45.741927161815966" lon="9.761780978685897"><ele>308.0</ele><time>2026-05-02T12:45:05Z</time></trkpt><trkpt lat="45.74188461373576" lon="9.761889202543514"><ele>308.0</ele><time>2026-05-02T12:45:06Z</time></trkpt><trkpt lat="45.74183873663411" lon="9.761969471739814"><ele>307.42857142857144</ele><time>2026-05-02T12:45:07Z</time></trkpt><trkpt lat="45.741767622836946" lon="9.762000675271764"><ele>306.8571428571429</ele><time>2026-05-02T12:45:08Z</time></trkpt><trkpt lat="45.741698624387396" lon="9.762029859963173"><ele>306.2857142857143</ele><time>2026-05-02T12:45:09Z</time></trkpt><trkpt lat="45.74163733777978" lon="9.762065002250797"><ele>305.7142857142857</ele><time>2026-05-02T12:45:10Z</time></trkpt><trkpt lat="45.74157463655128" lon="9.762100397749439"><ele>305.14285714285717</ele><time>2026-05-02T12:45:11Z</time></trkpt><trkpt lat="45.74151242663927" lon="9.762138873022012"><ele>304.57142857142856</ele><time>2026-05-02T12:45:12Z</time></trkpt><trkpt lat="45.741451312766465" lon="9.76217914855807"><ele>304.0</ele><time>2026-05-02T12:45:13Z</time></trkpt><trkpt lat="45.74139112092162" lon="9.762218943302964"><ele>304.0</ele><time>2026-05-02T12:45:14Z</time></trkpt><trkpt lat="45.74132741516205" lon="9.762252789814857"><ele>304.0</ele><time>2026-05-02T12:45:15Z</time></trkpt><trkpt lat="45.74126295560658" lon="9.76227374538786"><ele>304.0</ele><time>2026-05-02T12:45:16Z</time></trkpt><trkpt lat="45.74119948144289" lon="9.762286517944135"><ele>304.0</ele><time>2026-05-02T12:45:17Z</time></trkpt><trkpt lat="45.74113584833382" lon="9.762301856583914"><ele>304.0</ele><time>2026-05-02T12:45:18Z</time></trkpt><trkpt lat="45.74107390726685" lon="9.762329750168915"><ele>304.0</ele><time>2026-05-02T12:45:19Z</time></trkpt><trkpt lat="45.74102143803884" lon="9.76238723933947"><ele>304.0</ele><time>2026-05-02T12:45:20Z</time></trkpt><trkpt lat="45.74098078019789" lon="9.762466255395418"><ele>303.85714285714283</ele><time>2026-05-02T12:45:21Z</time></trkpt><trkpt lat="45.740942604616095" lon="9.762542192748748"><ele>303.7142857142857</ele><time>2026-05-02T12:45:22Z</time></trkpt><trkpt lat="45.74089622867437" lon="9.762608921808177"><ele>303.57142857142856</ele><time>2026-05-02T12:45:23Z</time></trkpt><trkpt lat="45.74083533269064" lon="9.762653022280851"><ele>303.42857142857144</ele><time>2026-05-02T12:45:24Z</time></trkpt><trkpt lat="45.74077269745926" lon="9.762691229683856"><ele>303.2857142857143</ele><time>2026-05-02T12:45:25Z</time></trkpt><trkpt lat="45.740712793107996" lon="9.762736071272947"><ele>303.14285714285717</ele><time>2026-05-02T12:45:26Z</time></trkpt><trkpt lat="45.740657398950376" lon="9.762789556918028"><ele>303.0</ele><time>2026-05-02T12:45:27Z</time></trkpt><trkpt lat="45.74059354216766" lon="9.762836399273654"><ele>303.0</ele><time>2026-05-02T12:45:28Z</time></trkpt><trkpt lat="45.740531231440656" lon="9.762883005959356"><ele>303.0</ele><time>2026-05-02T12:45:29Z</time></trkpt><trkpt lat="45.74046973583581" lon="9.76293249406992"><ele>303.0</ele><time>2026-05-02T12:45:30Z</time></trkpt><trkpt lat="45.74041159468971" lon="9.762980738683714"><ele>303.0</ele><time>2026-05-02T12:45:31Z</time></trkpt><trkpt lat="45.74035194401606" lon="9.76302620154567"><ele>303.0</ele><time>2026-05-02T12:45:32Z</time></trkpt><trkpt lat="45.74029574551391" lon="9.763072689593756"><ele>303.0</ele><time>2026-05-02T12:45:33Z</time></trkpt><trkpt lat="45.74023729365786" lon="9.76311251729252"><ele>303.0</ele><time>2026-05-02T12:45:34Z</time></trkpt><trkpt lat="45.74012837737882" lon="9.763191002091437"><ele>302.5</ele><time>2026-05-02T12:45:36Z</time></trkpt><trkpt lat="45.74002530639721" lon="9.76327160076217"><ele>302.0</ele><time>2026-05-02T12:45:38Z</time></trkpt><trkpt lat="45.73991785548442" lon="9.763332628965802"><ele>301.5</ele><time>2026-05-02T12:45:40Z</time></trkpt><trkpt lat="45.73981044195199" lon="9.763404601389128"><ele>301.0</ele><time>2026-05-02T12:45:42Z</time></trkpt><trkpt lat="45.73970069131446" lon="9.76345519496686"><ele>301.0</ele><time>2026-05-02T12:45:44Z</time></trkpt><trkpt lat="45.7395974652732" lon="9.763520026745374"><ele>301.0</ele><time>2026-05-02T12:45:46Z</time></trkpt><trkpt lat="45.73949162854455" lon="9.763558273315898"><ele>301.0</ele><time>2026-05-02T12:45:48Z</time></trkpt><trkpt lat="45.73938508475653" lon="9.763595287149052"><ele>301.0</ele><time>2026-05-02T12:45:50Z</time></trkpt><trkpt lat="45.7393109687874" lon="9.763666330275598"><ele>301.0</ele><time>2026-05-02T12:45:52Z</time></trkpt><trkpt lat="45.739216217368686" lon="9.763718869121522"><ele>300.2</ele><time>2026-05-02T12:45:54Z</time></trkpt><trkpt lat="45.73911417446665" lon="9.763691290465129"><ele>299.40000000000003</ele><time>2026-05-02T12:45:56Z</time></trkpt><trkpt lat="45.73903104799085" lon="9.763609950940218"><ele>298.6</ele><time>2026-05-02T12:45:58Z</time></trkpt><trkpt lat="45.738971902501405" lon="9.763485703386605"><ele>297.8</ele><time>2026-05-02T12:46:00Z</time></trkpt><trkpt lat="45.73892284568054" lon="9.763345231574872"><ele>297.0</ele><time>2026-05-02T12:46:02Z</time></trkpt><trkpt lat="45.73889108474812" lon="9.76318989832823"><ele>297.0</ele><time>2026-05-02T12:46:04Z</time></trkpt><trkpt lat="45.73887185428281" lon="9.763013094142954"><ele>297.0</ele><time>2026-05-02T12:46:06Z</time></trkpt><trkpt lat="45.738862615767" lon="9.762833824420108"><ele>297.0</ele><time>2026-05-02T12:46:08Z</time></trkpt><trkpt lat="45.738831309698824" lon="9.762662254282004"><ele>297.0</ele><time>2026-05-02T12:46:10Z</time></trkpt><trkpt lat="45.73880959467176" lon="9.762575613689696"><ele>297.0</ele><time>2026-05-02T12:46:11Z</time></trkpt><trkpt lat="45.73879160075726" lon="9.7624871024505"><ele>296.8</ele><time>2026-05-02T12:46:12Z</time></trkpt><trkpt lat="45.73877301920831" lon="9.762394513253001"><ele>296.6</ele><time>2026-05-02T12:46:13Z</time></trkpt><trkpt lat="45.73873408319412" lon="9.76224558785096"><ele>296.40000000000003</ele><time>2026-05-02T12:46:15Z</time></trkpt><trkpt lat="45.73867561756761" lon="9.76214171153471"><ele>296.2</ele><time>2026-05-02T12:46:17Z</time></trkpt><trkpt lat="45.738567655780685" lon="9.762147176121282"><ele>296.0</ele><time>2026-05-02T12:46:19Z</time></trkpt><trkpt lat="45.73846153348829" lon="9.762147708999771"><ele>295.2</ele><time>2026-05-02T12:46:21Z</time></trkpt><trkpt lat="45.738344332018805" lon="9.762119416570217"><ele>294.40000000000003</ele><time>2026-05-02T12:46:23Z</time></trkpt><trkpt lat="45.73824011480191" lon="9.762093774607274"><ele>293.6</ele><time>2026-05-02T12:46:25Z</time></trkpt><trkpt lat="45.738130923691585" lon="9.762071102256133"><ele>292.8</ele><time>2026-05-02T12:46:27Z</time></trkpt><trkpt lat="45.738026935308696" lon="9.762042356267248"><ele>292.0</ele><time>2026-05-02T12:46:29Z</time></trkpt><trkpt lat="45.73791760261519" lon="9.762045486337154"><ele>292.0</ele><time>2026-05-02T12:46:31Z</time></trkpt><trkpt lat="45.73783119026471" lon="9.762064988901043"><ele>292.0</ele><time>2026-05-02T12:46:33Z</time></trkpt><trkpt lat="45.737800376257944" lon="9.761951741785888"><ele>292.0</ele><time>2026-05-02T12:46:35Z</time></trkpt><trkpt lat="45.73779577533476" lon="9.761811088491784"><ele>292.0</ele><time>2026-05-02T12:46:37Z</time></trkpt><trkpt lat="45.73778283722524" lon="9.76164971514861"><ele>292.0</ele><time>2026-05-02T12:46:39Z</time></trkpt><trkpt lat="45.73777377510259" lon="9.761486809501369"><ele>292.0</ele><time>2026-05-02T12:46:41Z</time></trkpt><trkpt lat="45.737761285379094" lon="9.761322892342147"><ele>292.0</ele><time>2026-05-02T12:46:43Z</time></trkpt><trkpt lat="45.73773984890227" lon="9.761154039213237"><ele>292.0</ele><time>2026-05-02T12:46:45Z</time></trkpt><trkpt lat="45.73771811345204" lon="9.760982052643778"><ele>292.0</ele><time>2026-05-02T12:46:47Z</time></trkpt><trkpt lat="45.73768858906822" lon="9.760811230501263"><ele>293.25</ele><time>2026-05-02T12:46:49Z</time></trkpt><trkpt lat="45.73765947207725" lon="9.760642079905214"><ele>294.5</ele><time>2026-05-02T12:46:51Z</time></trkpt><trkpt lat="45.73762068799278" lon="9.760484804128252"><ele>295.75</ele><time>2026-05-02T12:46:53Z</time></trkpt><trkpt lat="45.73758592638214" lon="9.760333705235475"><ele>297.0</ele><time>2026-05-02T12:46:55Z</time></trkpt><trkpt lat="45.73754789513316" lon="9.760182491028566"><ele>297.0</ele><time>2026-05-02T12:46:57Z</time></trkpt><trkpt lat="45.73749925147717" lon="9.760044481507629"><ele>297.0</ele><time>2026-05-02T12:46:59Z</time></trkpt><trkpt lat="45.737459294777295" lon="9.759908739692959"><ele>297.0</ele><time>2026-05-02T12:47:01Z</time></trkpt><trkpt lat="45.73742316791474" lon="9.759776889649698"><ele>297.0</ele><time>2026-05-02T12:47:03Z</time></trkpt><trkpt lat="45.737385682725325" lon="9.759639741013801"><ele>297.0</ele><time>2026-05-02T12:47:05Z</time></trkpt><trkpt lat="45.73734394666924" lon="9.759492853101712"><ele>296.25</ele><time>2026-05-02T12:47:07Z</time></trkpt><trkpt lat="45.73729989362957" lon="9.759339993489135"><ele>295.5</ele><time>2026-05-02T12:47:09Z</time></trkpt><trkpt lat="45.73725297095331" lon="9.759187577672146"><ele>294.75</ele><time>2026-05-02T12:47:11Z</time></trkpt><trkpt lat="45.73720089699021" lon="9.759033890312203"><ele>294.0</ele><time>2026-05-02T12:47:13Z</time></trkpt><trkpt lat="45.737139813858064" lon="9.758894210090524"><ele>294.0</ele><time>2026-05-02T12:47:15Z</time></trkpt><trkpt lat="45.737074641740776" lon="9.75875285929453"><ele>294.0</ele><time>2026-05-02T12:47:17Z</time></trkpt><trkpt lat="45.73701015978533" lon="9.758610794053016"><ele>294.0</ele><time>2026-05-02T12:47:19Z</time></trkpt><trkpt lat="45.73694228607907" lon="9.75847525793894"><ele>294.0</ele><time>2026-05-02T12:47:21Z</time></trkpt><trkpt lat="45.73687870963291" lon="9.758335558177363"><ele>295.75</ele><time>2026-05-02T12:47:23Z</time></trkpt><trkpt lat="45.73681389176188" lon="9.758188543175656"><ele>297.5</ele><time>2026-05-02T12:47:25Z</time></trkpt><trkpt lat="45.73674706391496" lon="9.758040842945078"><ele>299.25</ele><time>2026-05-02T12:47:27Z</time></trkpt><trkpt lat="45.73668044486248" lon="9.757894904722736"><ele>301.0</ele><time>2026-05-02T12:47:29Z</time></trkpt><trkpt lat="45.73661446918097" lon="9.75775592464021"><ele>300.0</ele><time>2026-05-02T12:47:31Z</time></trkpt><trkpt lat="45.73655281600373" lon="9.757624546550549"><ele>299.0</ele><time>2026-05-02T12:47:33Z</time></trkpt><trkpt lat="45.73648826492457" lon="9.757506548343763"><ele>298.0</ele><time>2026-05-02T12:47:35Z</time></trkpt><trkpt lat="45.736403490469435" lon="9.75740065036884"><ele>297.0</ele><time>2026-05-02T12:47:37Z</time></trkpt><trkpt lat="45.73629216710914" lon="9.757340482080838"><ele>296.0</ele><time>2026-05-02T12:47:39Z</time></trkpt><trkpt lat="45.7361763186179" lon="9.757308549218326"><ele>296.0</ele><time>2026-05-02T12:47:41Z</time></trkpt><trkpt lat="45.73605933613941" lon="9.757260430304724"><ele>296.0</ele><time>2026-05-02T12:47:43Z</time></trkpt><trkpt lat="45.735925325333824" lon="9.757280295821454"><ele>296.0</ele><time>2026-05-02T12:47:45Z</time></trkpt><trkpt lat="45.735828990780725" lon="9.757219046247979"><ele>296.0</ele><time>2026-05-02T12:47:47Z</time></trkpt><trkpt lat="45.735717409211595" lon="9.757201295048219"><ele>297.5</ele><time>2026-05-02T12:47:49Z</time></trkpt><trkpt lat="45.73560595928931" lon="9.757206749531923"><ele>299.0</ele><time>2026-05-02T12:47:51Z</time></trkpt><trkpt lat="45.73549258644343" lon="9.757215982013868"><ele>300.5</ele><time>2026-05-02T12:47:53Z</time></trkpt><trkpt lat="45.735378682724644" lon="9.75722369714636"><ele>302.0</ele><time>2026-05-02T12:47:55Z</time></trkpt><trkpt lat="45.73526455155912" lon="9.757234723717044"><ele>303.0</ele><time>2026-05-02T12:47:57Z</time></trkpt><trkpt lat="45.73515187508375" lon="9.757238626143886"><ele>304.0</ele><time>2026-05-02T12:47:59Z</time></trkpt><trkpt lat="45.73503902820411" lon="9.757245980240185"><ele>305.0</ele><time>2026-05-02T12:48:01Z</time></trkpt><trkpt lat="45.73492601836559" lon="9.757255839671231"><ele>306.0</ele><time>2026-05-02T12:48:03Z</time></trkpt><trkpt lat="45.73481669380777" lon="9.757262801624684"><ele>307.0</ele><time>2026-05-02T12:48:05Z</time></trkpt><trkpt lat="45.73470835844611" lon="9.757271243368704"><ele>307.0</ele><time>2026-05-02T12:48:07Z</time></trkpt><trkpt lat="45.73460262187469" lon="9.757284582238103"><ele>307.0</ele><time>2026-05-02T12:48:09Z</time></trkpt><trkpt lat="45.73449975732963" lon="9.757288297888381"><ele>307.0</ele><time>2026-05-02T12:48:11Z</time></trkpt><trkpt lat="45.73439560829998" lon="9.757300926206065"><ele>307.0</ele><time>2026-05-02T12:48:13Z</time></trkpt><trkpt lat="45.734298201479525" lon="9.75731349560606"><ele>307.0</ele><time>2026-05-02T12:48:15Z</time></trkpt><trkpt lat="45.734203533919796" lon="9.757353293388485"><ele>307.0</ele><time>2026-05-02T12:48:17Z</time></trkpt><trkpt lat="45.7341138783612" lon="9.757411998123485"><ele>307.0</ele><time>2026-05-02T12:48:19Z</time></trkpt><trkpt lat="45.734021932213665" lon="9.757482997084454"><ele>307.0</ele><time>2026-05-02T12:48:21Z</time></trkpt><trkpt lat="45.733916391659065" lon="9.757553984953551"><ele>307.0</ele><time>2026-05-02T12:48:23Z</time></trkpt><trkpt lat="45.73380450856094" lon="9.757622834741827"><ele>307.0</ele><time>2026-05-02T12:48:25Z</time></trkpt><trkpt lat="45.73368603472684" lon="9.75767920579671"><ele>306.8</ele><time>2026-05-02T12:48:27Z</time></trkpt><trkpt lat="45.733569547435046" lon="9.757729485169355"><ele>306.6</ele><time>2026-05-02T12:48:29Z</time></trkpt><trkpt lat="45.73350774720217" lon="9.757768702781535"><ele>306.40000000000003</ele><time>2026-05-02T12:48:30Z</time></trkpt><trkpt lat="45.73344705980323" lon="9.757793345901979"><ele>306.2</ele><time>2026-05-02T12:48:31Z</time></trkpt><trkpt lat="45.73333032896015" lon="9.757855660290062"><ele>306.0</ele><time>2026-05-02T12:48:33Z</time></trkpt><trkpt lat="45.73321619602678" lon="9.757934789743382"><ele>306.0</ele><time>2026-05-02T12:48:35Z</time></trkpt><trkpt lat="45.733106243477174" lon="9.75801750939764"><ele>306.0</ele><time>2026-05-02T12:48:37Z</time></trkpt><trkpt lat="45.73304823647795" lon="9.758052865434527"><ele>306.0</ele><time>2026-05-02T12:48:38Z</time></trkpt><trkpt lat="45.73294525126243" lon="9.758132447442922"><ele>306.0</ele><time>2026-05-02T12:48:40Z</time></trkpt><trkpt lat="45.732840544163" lon="9.758208434529124"><ele>306.0</ele><time>2026-05-02T12:48:42Z</time></trkpt><trkpt lat="45.73273599715845" lon="9.75829054749188"><ele>305.6</ele><time>2026-05-02T12:48:44Z</time></trkpt><trkpt lat="45.73267767362771" lon="9.758332972054571"><ele>305.20000000000005</ele><time>2026-05-02T12:48:45Z</time></trkpt><trkpt lat="45.73256926461853" lon="9.758394199345899"><ele>304.79999999999995</ele><time>2026-05-02T12:48:47Z</time></trkpt><trkpt lat="45.732451131983005" lon="9.758453791221754"><ele>304.4</ele><time>2026-05-02T12:48:49Z</time></trkpt><trkpt lat="45.73233204031014" lon="9.758509703926652"><ele>304.0</ele><time>2026-05-02T12:48:51Z</time></trkpt><trkpt lat="45.73221674690862" lon="9.758571213947672"><ele>304.59999999999997</ele><time>2026-05-02T12:48:53Z</time></trkpt><trkpt lat="45.73210671909528" lon="9.758621207820713"><ele>305.2</ele><time>2026-05-02T12:48:55Z</time></trkpt><trkpt lat="45.73199312662498" lon="9.758669500480273"><ele>305.79999999999995</ele><time>2026-05-02T12:48:57Z</time></trkpt><trkpt lat="45.73187274692242" lon="9.758701715253684"><ele>306.4</ele><time>2026-05-02T12:48:59Z</time></trkpt><trkpt lat="45.73181107706854" lon="9.758721455932177"><ele>307.0</ele><time>2026-05-02T12:49:00Z</time></trkpt><trkpt lat="45.731747303500725" lon="9.758736831510573"><ele>307.0</ele><time>2026-05-02T12:49:01Z</time></trkpt><trkpt lat="45.7316809371786" lon="9.758746419532217"><ele>307.0</ele><time>2026-05-02T12:49:02Z</time></trkpt><trkpt lat="45.731616719408045" lon="9.758763717264076"><ele>307.0</ele><time>2026-05-02T12:49:03Z</time></trkpt><trkpt lat="45.73155092203652" lon="9.758767477323104"><ele>307.0</ele><time>2026-05-02T12:49:04Z</time></trkpt><trkpt lat="45.731487407695155" lon="9.75878723212534"><ele>307.0</ele><time>2026-05-02T12:49:05Z</time></trkpt><trkpt lat="45.7313628351267" lon="9.75879681923146"><ele>307.0</ele><time>2026-05-02T12:49:07Z</time></trkpt><trkpt lat="45.73125011810554" lon="9.758828654940052"><ele>307.0</ele><time>2026-05-02T12:49:09Z</time></trkpt><trkpt lat="45.73113804356428" lon="9.758860265158376"><ele>307.0</ele><time>2026-05-02T12:49:11Z</time></trkpt><trkpt lat="45.73103107057029" lon="9.75891585841393"><ele>307.0</ele><time>2026-05-02T12:49:13Z</time></trkpt><trkpt lat="45.730929638228424" lon="9.75898461329798"><ele>307.0</ele><time>2026-05-02T12:49:15Z</time></trkpt><trkpt lat="45.73083328428492" lon="9.759053917560308"><ele>307.0</ele><time>2026-05-02T12:49:17Z</time></trkpt><trkpt lat="45.730731030084556" lon="9.75912396639864"><ele>306.8</ele><time>2026-05-02T12:49:19Z</time></trkpt><trkpt lat="45.730624074368514" lon="9.75917356458389"><ele>306.6</ele><time>2026-05-02T12:49:21Z</time></trkpt><trkpt lat="45.73051128328935" lon="9.759217535328366"><ele>306.40000000000003</ele><time>2026-05-02T12:49:23Z</time></trkpt><trkpt lat="45.73039835493432" lon="9.759242754637969"><ele>306.2</ele><time>2026-05-02T12:49:25Z</time></trkpt><trkpt lat="45.73029892386337" lon="9.759260050786745"><ele>306.0</ele><time>2026-05-02T12:49:27Z</time></trkpt><trkpt lat="45.73019204052009" lon="9.759270361680073"><ele>306.0</ele><time>2026-05-02T12:49:29Z</time></trkpt><trkpt lat="45.73007717716555" lon="9.759282792510474"><ele>306.0</ele><time>2026-05-02T12:49:31Z</time></trkpt><trkpt lat="45.72995777301529" lon="9.759292645799702"><ele>306.0</ele><time>2026-05-02T12:49:33Z</time></trkpt><trkpt lat="45.729833702671954" lon="9.759308068881705"><ele>306.0</ele><time>2026-05-02T12:49:35Z</time></trkpt><trkpt lat="45.72971330721615" lon="9.759315441580299"><ele>306.0</ele><time>2026-05-02T12:49:37Z</time></trkpt><trkpt lat="45.72959294573728" lon="9.759318390594032"><ele>306.0</ele><time>2026-05-02T12:49:39Z</time></trkpt><trkpt lat="45.72947290908196" lon="9.759325586276217"><ele>306.0</ele><time>2026-05-02T12:49:41Z</time></trkpt><trkpt lat="45.72934995234746" lon="9.759329024769844"><ele>306.0</ele><time>2026-05-02T12:49:43Z</time></trkpt><trkpt lat="45.729224127943446" lon="9.759341103499025"><ele>307.6</ele><time>2026-05-02T12:49:45Z</time></trkpt><trkpt lat="45.72910342109646" lon="9.759367987856912"><ele>309.20000000000005</ele><time>2026-05-02T12:49:47Z</time></trkpt><trkpt lat="45.72904047943528" lon="9.759381238237664"><ele>310.79999999999995</ele><time>2026-05-02T12:49:48Z</time></trkpt><trkpt lat="45.728978262227315" lon="9.759397451369411"><ele>312.4</ele><time>2026-05-02T12:49:49Z</time></trkpt><trkpt lat="45.72885959139636" lon="9.759446832512307"><ele>314.0</ele><time>2026-05-02T12:49:51Z</time></trkpt><trkpt lat="45.72874316050535" lon="9.75950805909344"><ele>314.0</ele><time>2026-05-02T12:49:53Z</time></trkpt><trkpt lat="45.72862761948878" lon="9.759565106493685"><ele>314.0</ele><time>2026-05-02T12:49:55Z</time></trkpt><trkpt lat="45.72851356010681" lon="9.759623663731128"><ele>314.0</ele><time>2026-05-02T12:49:57Z</time></trkpt><trkpt lat="45.72839884697322" lon="9.759686928137107"><ele>314.0</ele><time>2026-05-02T12:49:59Z</time></trkpt><trkpt lat="45.7282853923571" lon="9.759746430533076"><ele>313.0</ele><time>2026-05-02T12:50:01Z</time></trkpt><trkpt lat="45.72817552192567" lon="9.759798338041817"><ele>312.0</ele><time>2026-05-02T12:50:03Z</time></trkpt><trkpt lat="45.72806135828976" lon="9.759865182619945"><ele>311.0</ele><time>2026-05-02T12:50:05Z</time></trkpt><trkpt lat="45.727946940988055" lon="9.759908235421586"><ele>310.0</ele><time>2026-05-02T12:50:07Z</time></trkpt><trkpt lat="45.72783380848061" lon="9.75995870041712"><ele>310.0</ele><time>2026-05-02T12:50:09Z</time></trkpt><trkpt lat="45.727725621664085" lon="9.760023194305603"><ele>310.0</ele><time>2026-05-02T12:50:11Z</time></trkpt><trkpt lat="45.72760837751224" lon="9.760064046388578"><ele>310.0</ele><time>2026-05-02T12:50:13Z</time></trkpt><trkpt lat="45.72750128022534" lon="9.760122521188686"><ele>310.0</ele><time>2026-05-02T12:50:15Z</time></trkpt><trkpt lat="45.72739193136413" lon="9.760183008850118"><ele>311.75</ele><time>2026-05-02T12:50:17Z</time></trkpt><trkpt lat="45.727281841529845" lon="9.760227733876883"><ele>313.5</ele><time>2026-05-02T12:50:19Z</time></trkpt><trkpt lat="45.72716279968425" lon="9.760261343154632"><ele>315.25</ele><time>2026-05-02T12:50:21Z</time></trkpt><trkpt lat="45.727048967279096" lon="9.76029156972878"><ele>317.0</ele><time>2026-05-02T12:50:23Z</time></trkpt><trkpt lat="45.726931902667765" lon="9.760317371760872"><ele>316.0</ele><time>2026-05-02T12:50:25Z</time></trkpt><trkpt lat="45.72682026332617" lon="9.76035196345313"><ele>315.0</ele><time>2026-05-02T12:50:27Z</time></trkpt><trkpt lat="45.72670721573909" lon="9.760393236251913"><ele>314.0</ele><time>2026-05-02T12:50:29Z</time></trkpt><trkpt lat="45.72659800641209" lon="9.76044547355176"><ele>313.0</ele><time>2026-05-02T12:50:31Z</time></trkpt><trkpt lat="45.72648743353132" lon="9.760485401792575"><ele>313.0</ele><time>2026-05-02T12:50:33Z</time></trkpt><trkpt lat="45.72637688542304" lon="9.760530516376013"><ele>313.0</ele><time>2026-05-02T12:50:35Z</time></trkpt><trkpt lat="45.72626288548671" lon="9.760572962937548"><ele>313.0</ele><time>2026-05-02T12:50:37Z</time></trkpt><trkpt lat="45.726149864913566" lon="9.760621969498452"><ele>313.0</ele><time>2026-05-02T12:50:39Z</time></trkpt><trkpt lat="45.726036779332404" lon="9.76067074917048"><ele>312.25</ele><time>2026-05-02T12:50:41Z</time></trkpt><trkpt lat="45.72592404106596" lon="9.760718637648946"><ele>311.5</ele><time>2026-05-02T12:50:43Z</time></trkpt><trkpt lat="45.72581346025146" lon="9.760764627659809"><ele>310.75</ele><time>2026-05-02T12:50:45Z</time></trkpt><trkpt lat="45.7256987025401" lon="9.760811451458574"><ele>310.0</ele><time>2026-05-02T12:50:47Z</time></trkpt><trkpt lat="45.72558496221883" lon="9.760859325762448"><ele>310.0</ele><time>2026-05-02T12:50:49Z</time></trkpt><trkpt lat="45.72547079656998" lon="9.76091021384027"><ele>310.0</ele><time>2026-05-02T12:50:51Z</time></trkpt><trkpt lat="45.72535692188207" lon="9.76096478664824"><ele>310.0</ele><time>2026-05-02T12:50:53Z</time></trkpt><trkpt lat="45.72524538377653" lon="9.76103025349383"><ele>310.0</ele><time>2026-05-02T12:50:55Z</time></trkpt><trkpt lat="45.725133083028936" lon="9.761087574696834"><ele>311.25</ele><time>2026-05-02T12:50:57Z</time></trkpt><trkpt lat="45.72502574530158" lon="9.761160229982977"><ele>312.5</ele><time>2026-05-02T12:50:59Z</time></trkpt><trkpt lat="45.72492345693703" lon="9.761239968144379"><ele>313.75</ele><time>2026-05-02T12:51:01Z</time></trkpt><trkpt lat="45.72482718717877" lon="9.761333387581736"><ele>315.0</ele><time>2026-05-02T12:51:03Z</time></trkpt><trkpt lat="45.72473918867087" lon="9.761440981503517"><ele>315.0</ele><time>2026-05-02T12:51:05Z</time></trkpt><trkpt lat="45.72465492894925" lon="9.761564226707073"><ele>315.0</ele><time>2026-05-02T12:51:07Z</time></trkpt><trkpt lat="45.724582740887975" lon="9.761701291598937"><ele>315.0</ele><time>2026-05-02T12:51:09Z</time></trkpt><trkpt lat="45.72452119537436" lon="9.761848218327874"><ele>315.0</ele><time>2026-05-02T12:51:11Z</time></trkpt><trkpt lat="45.72445989597248" lon="9.761995933218499"><ele>314.75</ele><time>2026-05-02T12:51:13Z</time></trkpt><trkpt lat="45.724400181545334" lon="9.762142382460999"><ele>314.5</ele><time>2026-05-02T12:51:15Z</time></trkpt><trkpt lat="45.72433868192778" lon="9.762281699514716"><ele>314.25</ele><time>2026-05-02T12:51:17Z</time></trkpt><trkpt lat="45.72426698162476" lon="9.762416504603676"><ele>314.0</ele><time>2026-05-02T12:51:19Z</time></trkpt><trkpt lat="45.72419462560315" lon="9.762548800660532"><ele>314.0</ele><time>2026-05-02T12:51:21Z</time></trkpt><trkpt lat="45.72411239739476" lon="9.762668550691954"><ele>314.0</ele><time>2026-05-02T12:51:23Z</time></trkpt><trkpt lat="45.72402189763266" lon="9.762775959512773"><ele>314.0</ele><time>2026-05-02T12:51:25Z</time></trkpt><trkpt lat="45.72392706925382" lon="9.76287653763833"><ele>314.0</ele><time>2026-05-02T12:51:27Z</time></trkpt><trkpt lat="45.72383177207388" lon="9.762981571841314"><ele>314.25</ele><time>2026-05-02T12:51:29Z</time></trkpt><trkpt lat="45.72373654764352" lon="9.763083281220815"><ele>314.5</ele><time>2026-05-02T12:51:31Z</time></trkpt><trkpt lat="45.72364347170056" lon="9.763189211008381"><ele>314.75</ele><time>2026-05-02T12:51:33Z</time></trkpt><trkpt lat="45.723560862719204" lon="9.763305239410197"><ele>315.0</ele><time>2026-05-02T12:51:35Z</time></trkpt><trkpt lat="45.7234761222495" lon="9.76342223693319"><ele>314.75</ele><time>2026-05-02T12:51:37Z</time></trkpt><trkpt lat="45.723388347492104" lon="9.763535553459922"><ele>314.5</ele><time>2026-05-02T12:51:39Z</time></trkpt><trkpt lat="45.72330058470057" lon="9.763659939173223"><ele>314.25</ele><time>2026-05-02T12:51:41Z</time></trkpt><trkpt lat="45.72321579904728" lon="9.7637824491519"><ele>314.0</ele><time>2026-05-02T12:51:43Z</time></trkpt><trkpt lat="45.72313002223325" lon="9.763909191292772"><ele>314.0</ele><time>2026-05-02T12:51:45Z</time></trkpt><trkpt lat="45.72303442099146" lon="9.764021166324106"><ele>314.0</ele><time>2026-05-02T12:51:47Z</time></trkpt><trkpt lat="45.7229428557998" lon="9.764125931369279"><ele>314.0</ele><time>2026-05-02T12:51:49Z</time></trkpt><trkpt lat="45.72284806699751" lon="9.764225982235327"><ele>314.0</ele><time>2026-05-02T12:51:51Z</time></trkpt><trkpt lat="45.722756388317194" lon="9.764318696569855"><ele>315.0</ele><time>2026-05-02T12:51:53Z</time></trkpt><trkpt lat="45.722661595843675" lon="9.764395305244017"><ele>316.0</ele><time>2026-05-02T12:51:55Z</time></trkpt><trkpt lat="45.72257434938273" lon="9.764486027087322"><ele>317.0</ele><time>2026-05-02T12:51:57Z</time></trkpt><trkpt lat="45.722485177179124" lon="9.764567610816174"><ele>318.0</ele><time>2026-05-02T12:51:59Z</time></trkpt><trkpt lat="45.72239968127874" lon="9.76465029112103"><ele>319.0</ele><time>2026-05-02T12:52:01Z</time></trkpt><trkpt lat="45.72231562935591" lon="9.764729945865357"><ele>319.0</ele><time>2026-05-02T12:52:03Z</time></trkpt><trkpt lat="45.72223922601575" lon="9.76481066144375"><ele>319.0</ele><time>2026-05-02T12:52:05Z</time></trkpt><trkpt lat="45.72216308939431" lon="9.764887357412832"><ele>319.0</ele><time>2026-05-02T12:52:07Z</time></trkpt><trkpt lat="45.72208377611389" lon="9.764961239613786"><ele>319.0</ele><time>2026-05-02T12:52:09Z</time></trkpt><trkpt lat="45.72200663667329" lon="9.765036551840224"><ele>319.0</ele><time>2026-05-02T12:52:11Z</time></trkpt><trkpt lat="45.72193128590261" lon="9.765110567158453"><ele>319.0</ele><time>2026-05-02T12:52:13Z</time></trkpt><trkpt lat="45.721854716869714" lon="9.765184109572536"><ele>319.0</ele><time>2026-05-02T12:52:15Z</time></trkpt><trkpt lat="45.72177755522404" lon="9.765259957932592"><ele>319.0</ele><time>2026-05-02T12:52:17Z</time></trkpt><trkpt lat="45.721696052907234" lon="9.76533684310453"><ele>319.0</ele><time>2026-05-02T12:52:19Z</time></trkpt><trkpt lat="45.7216130905059" lon="9.765422397292413"><ele>319.0</ele><time>2026-05-02T12:52:21Z</time></trkpt><trkpt lat="45.72153059266437" lon="9.765512717912266"><ele>319.0</ele><time>2026-05-02T12:52:23Z</time></trkpt><trkpt lat="45.72144601322425" lon="9.765601495990769"><ele>319.0</ele><time>2026-05-02T12:52:25Z</time></trkpt><trkpt lat="45.721359669354754" lon="9.76569619500148"><ele>319.0</ele><time>2026-05-02T12:52:27Z</time></trkpt><trkpt lat="45.72127950898504" lon="9.765791558796781"><ele>319.0</ele><time>2026-05-02T12:52:29Z</time></trkpt><trkpt lat="45.72119842968673" lon="9.765881790019213"><ele>319.0</ele><time>2026-05-02T12:52:31Z</time></trkpt><trkpt lat="45.72112010226411" lon="9.765978642489891"><ele>319.5</ele><time>2026-05-02T12:52:33Z</time></trkpt><trkpt lat="45.72105031087913" lon="9.76606459826402"><ele>320.0</ele><time>2026-05-02T12:52:35Z</time></trkpt><trkpt lat="45.7209858534868" lon="9.766136108330633"><ele>320.5</ele><time>2026-05-02T12:52:37Z</time></trkpt><trkpt lat="45.72092231163348" lon="9.766218328141896"><ele>321.0</ele><time>2026-05-02T12:52:39Z</time></trkpt><trkpt lat="45.72085207623907" lon="9.766306061317849"><ele>321.5</ele><time>2026-05-02T12:52:41Z</time></trkpt><trkpt lat="45.72078425736633" lon="9.766397212600394"><ele>322.0</ele><time>2026-05-02T12:52:43Z</time></trkpt><trkpt lat="45.720711334030156" lon="9.766490141541835"><ele>322.0</ele><time>2026-05-02T12:52:45Z</time></trkpt><trkpt lat="45.720641172195" lon="9.76658115790678"><ele>322.0</ele><time>2026-05-02T12:52:47Z</time></trkpt><trkpt lat="45.720565523511574" lon="9.766669194792339"><ele>322.0</ele><time>2026-05-02T12:52:49Z</time></trkpt><trkpt lat="45.72049082593992" lon="9.76674695080939"><ele>322.0</ele><time>2026-05-02T12:52:51Z</time></trkpt><trkpt lat="45.720418422312584" lon="9.76681290580252"><ele>322.0</ele><time>2026-05-02T12:52:53Z</time></trkpt><trkpt lat="45.72034855942133" lon="9.766878744426984"><ele>322.57142857142856</ele><time>2026-05-02T12:52:55Z</time></trkpt><trkpt lat="45.72028181135709" lon="9.766949901936192"><ele>323.1428571428571</ele><time>2026-05-02T12:52:57Z</time></trkpt><trkpt lat="45.72021919631893" lon="9.767010619714155"><ele>323.7142857142857</ele><time>2026-05-02T12:52:59Z</time></trkpt><trkpt lat="45.72016102150128" lon="9.76706928366388"><ele>324.2857142857143</ele><time>2026-05-02T12:53:01Z</time></trkpt><trkpt lat="45.720110163799355" lon="9.767123553095509"><ele>324.85714285714283</ele><time>2026-05-02T12:53:03Z</time></trkpt><trkpt lat="45.72004505722117" lon="9.767175059698857"><ele>325.42857142857144</ele><time>2026-05-02T12:53:18Z</time></trkpt><trkpt lat="45.719993664861825" lon="9.767240193109384"><ele>326.0</ele><time>2026-05-02T12:53:21Z</time></trkpt><trkpt lat="45.7199357630614" lon="9.767292441193492"><ele>326.0</ele><time>2026-05-02T12:53:23Z</time></trkpt><trkpt lat="45.71986952283141" lon="9.767358158941802"><ele>326.0</ele><time>2026-05-02T12:53:25Z</time></trkpt><trkpt lat="45.71979989049249" lon="9.767428734109393"><ele>326.0</ele><time>2026-05-02T12:53:27Z</time></trkpt><trkpt lat="45.71972762198834" lon="9.767503487893181"><ele>326.0</ele><time>2026-05-02T12:53:29Z</time></trkpt><trkpt lat="45.719654324814414" lon="9.767578091945403"><ele>326.0</ele><time>2026-05-02T12:53:31Z</time></trkpt><trkpt lat="45.71958015505746" lon="9.767648461733478"><ele>326.0</ele><time>2026-05-02T12:53:33Z</time></trkpt><trkpt lat="45.71950831020437" lon="9.767718870335171"><ele>325.5</ele><time>2026-05-02T12:53:35Z</time></trkpt><trkpt lat="45.719443105281144" lon="9.767791477525178"><ele>325.0</ele><time>2026-05-02T12:53:37Z</time></trkpt><trkpt lat="45.71937250186968" lon="9.76785885535881"><ele>324.5</ele><time>2026-05-02T12:53:39Z</time></trkpt><trkpt lat="45.719301381197475" lon="9.767928996208076"><ele>324.0</ele><time>2026-05-02T12:53:41Z</time></trkpt><trkpt lat="45.7192296876191" lon="9.76801030674007"><ele>323.5</ele><time>2026-05-02T12:53:43Z</time></trkpt><trkpt lat="45.71915214619991" lon="9.76807607716525"><ele>323.0</ele><time>2026-05-02T12:53:45Z</time></trkpt><trkpt lat="45.71907674400873" lon="9.768156867857902"><ele>323.0</ele><time>2026-05-02T12:53:47Z</time></trkpt><trkpt lat="45.71899798146495" lon="9.768232416852422"><ele>323.0</ele><time>2026-05-02T12:53:49Z</time></trkpt><trkpt lat="45.718922420456934" lon="9.768316168370143"><ele>323.0</ele><time>2026-05-02T12:53:51Z</time></trkpt><trkpt lat="45.71884005682979" lon="9.768389296644493"><ele>323.0</ele><time>2026-05-02T12:53:53Z</time></trkpt><trkpt lat="45.718758736012475" lon="9.768464178516297"><ele>323.0</ele><time>2026-05-02T12:53:55Z</time></trkpt><trkpt lat="45.718682735642" lon="9.76853756730868"><ele>322.83333333333337</ele><time>2026-05-02T12:53:57Z</time></trkpt><trkpt lat="45.71861063551915" lon="9.768610834990165"><ele>322.6666666666667</ele><time>2026-05-02T12:53:59Z</time></trkpt><trkpt lat="45.718534794921204" lon="9.768679543743882"><ele>322.5</ele><time>2026-05-02T12:54:01Z</time></trkpt><trkpt lat="45.71845963425136" lon="9.76875211555018"><ele>322.3333333333333</ele><time>2026-05-02T12:54:03Z</time></trkpt><trkpt lat="45.71838537649086" lon="9.768826776328986"><ele>322.16666666666663</ele><time>2026-05-02T12:54:05Z</time></trkpt><trkpt lat="45.71831405910169" lon="9.768902581630435"><ele>322.0</ele><time>2026-05-02T12:54:07Z</time></trkpt><trkpt lat="45.71824655600098" lon="9.76898385832686"><ele>322.0</ele><time>2026-05-02T12:54:09Z</time></trkpt><trkpt lat="45.7181818607265" lon="9.76907186386659"><ele>322.0</ele><time>2026-05-02T12:54:11Z</time></trkpt><trkpt lat="45.71811715448912" lon="9.769163811270108"><ele>322.0</ele><time>2026-05-02T12:54:13Z</time></trkpt><trkpt lat="45.71805184773309" lon="9.769256779560765"><ele>322.0</ele><time>2026-05-02T12:54:15Z</time></trkpt><trkpt lat="45.717988883731515" lon="9.769355078324457"><ele>322.0</ele><time>2026-05-02T12:54:17Z</time></trkpt><trkpt lat="45.71792390915406" lon="9.769453459304954"><ele>322.20000000000005</ele><time>2026-05-02T12:54:19Z</time></trkpt><trkpt lat="45.71786392008648" lon="9.769553145581364"><ele>322.4</ele><time>2026-05-02T12:54:21Z</time></trkpt><trkpt lat="45.71780117389537" lon="9.769650359641853"><ele>322.6</ele><time>2026-05-02T12:54:23Z</time></trkpt><trkpt lat="45.717739611163864" lon="9.769748536325254"><ele>322.79999999999995</ele><time>2026-05-02T12:54:25Z</time></trkpt><trkpt lat="45.71767961532304" lon="9.769846509521903"><ele>323.0</ele><time>2026-05-02T12:54:27Z</time></trkpt><trkpt lat="45.71761823872786" lon="9.769939342756622"><ele>323.0</ele><time>2026-05-02T12:54:29Z</time></trkpt><trkpt lat="45.71755688391906" lon="9.770031668013752"><ele>323.0</ele><time>2026-05-02T12:54:31Z</time></trkpt><trkpt lat="45.71750504747905" lon="9.77012873648467"><ele>323.0</ele><time>2026-05-02T12:54:33Z</time></trkpt><trkpt lat="45.717443898142726" lon="9.770215426322567"><ele>323.0</ele><time>2026-05-02T12:54:35Z</time></trkpt><trkpt lat="45.71739216558629" lon="9.770294748095063"><ele>323.0</ele><time>2026-05-02T12:54:37Z</time></trkpt><trkpt lat="45.7173436869972" lon="9.770387743978516"><ele>323.0</ele><time>2026-05-02T12:54:39Z</time></trkpt><trkpt lat="45.717300015346986" lon="9.770495794430456"><ele>323.5</ele><time>2026-05-02T12:54:41Z</time></trkpt><trkpt lat="45.71725324835203" lon="9.77060522364585"><ele>324.0</ele><time>2026-05-02T12:54:43Z</time></trkpt><trkpt lat="45.71719598863598" lon="9.770700373067298"><ele>324.5</ele><time>2026-05-02T12:54:45Z</time></trkpt><trkpt lat="45.71714326615018" lon="9.770799224534317"><ele>325.0</ele><time>2026-05-02T12:54:47Z</time></trkpt><trkpt lat="45.71709331985582" lon="9.770890439089891"><ele>325.5</ele><time>2026-05-02T12:54:49Z</time></trkpt><trkpt lat="45.71705052242187" lon="9.77097600351041"><ele>326.0</ele><time>2026-05-02T12:54:51Z</time></trkpt><trkpt lat="45.71701342886574" lon="9.771066397179066"><ele>326.42857142857144</ele><time>2026-05-02T12:54:53Z</time></trkpt><trkpt lat="45.717001110071195" lon="9.771204570863958"><ele>326.85714285714283</ele><time>2026-05-02T12:54:56Z</time></trkpt><trkpt lat="45.716961940560914" lon="9.771276638764922"><ele>327.2857142857143</ele><time>2026-05-02T12:54:58Z</time></trkpt><trkpt lat="45.716991450553905" lon="9.771363502023517"><ele>327.7142857142857</ele><time>2026-05-02T12:55:00Z</time></trkpt><trkpt lat="45.71705944092408" lon="9.77138523326568"><ele>328.1428571428571</ele><time>2026-05-02T12:55:02Z</time></trkpt><trkpt lat="45.71713569819604" lon="9.77141954631878"><ele>328.57142857142856</ele><time>2026-05-02T12:55:05Z</time></trkpt><trkpt lat="45.71720182646098" lon="9.771443536754704"><ele>329.0</ele><time>2026-05-02T12:55:08Z</time></trkpt><trkpt lat="45.71727071601381" lon="9.771458807414197"><ele>329.0</ele><time>2026-05-02T12:55:11Z</time></trkpt><trkpt lat="45.717341405862236" lon="9.771476960047549"><ele>329.0</ele><time>2026-05-02T12:55:14Z</time></trkpt><trkpt lat="45.71740796459122" lon="9.771490502346285"><ele>329.0</ele><time>2026-05-02T12:55:17Z</time></trkpt><trkpt lat="45.717470745349395" lon="9.771503446210929"><ele>329.0</ele><time>2026-05-02T12:55:20Z</time></trkpt><trkpt lat="45.71749949213565" lon="9.771413507553994"><ele>329.0</ele><time>2026-05-02T12:55:23Z</time></trkpt><trkpt lat="45.71753982577375" lon="9.771303088016989"><ele>329.0</ele><time>2026-05-02T12:55:26Z</time></trkpt><trkpt lat="45.717563639479934" lon="9.77118224858076"><ele>329.0</ele><time>2026-05-02T12:55:29Z</time></trkpt><trkpt lat="45.71759718500518" lon="9.771095763161458"><ele>328.57142857142856</ele><time>2026-05-02T12:55:32Z</time></trkpt><trkpt lat="45.71763916495228" lon="9.771012235100542"><ele>328.1428571428571</ele><time>2026-05-02T12:55:35Z</time></trkpt><trkpt lat="45.71768833843441" lon="9.77091772370515"><ele>327.7142857142857</ele><time>2026-05-02T12:55:38Z</time></trkpt><trkpt lat="45.71773019861724" lon="9.770848190645264"><ele>327.2857142857143</ele><time>2026-05-02T12:55:41Z</time></trkpt><trkpt lat="45.7177776628582" lon="9.770782175892963"><ele>326.85714285714283</ele><time>2026-05-02T12:55:46Z</time></trkpt><trkpt lat="45.717827155659904" lon="9.770702634019196"><ele>326.42857142857144</ele><time>2026-05-02T12:55:50Z</time></trkpt><trkpt lat="45.717887820204155" lon="9.770643719161503"><ele>326.0</ele><time>2026-05-02T12:55:53Z</time></trkpt><trkpt lat="45.71795866406704" lon="9.770621587294034"><ele>327.0</ele><time>2026-05-02T12:55:56Z</time></trkpt><trkpt lat="45.71801849842963" lon="9.77066283913736"><ele>328.0</ele><time>2026-05-02T12:55:59Z</time></trkpt><trkpt lat="45.718075825633534" lon="9.770706401771099"><ele>329.0</ele><time>2026-05-02T12:56:02Z</time></trkpt><trkpt lat="45.71815105949381" lon="9.770725097200001"><ele>330.0</ele><time>2026-05-02T12:56:07Z</time></trkpt><trkpt lat="45.718203479981746" lon="9.770796792724374"><ele>331.0</ele><time>2026-05-02T12:56:13Z</time></trkpt><trkpt lat="45.718268164740756" lon="9.770843007844087"><ele>332.0</ele><time>2026-05-02T12:56:18Z</time></trkpt><trkpt lat="45.718345263031075" lon="9.77084393799357"><ele>333.0</ele><time>2026-05-02T12:56:23Z</time></trkpt><trkpt lat="45.71839600761386" lon="9.770928534021209"><ele>333.0</ele><time>2026-05-02T12:56:28Z</time></trkpt><trkpt lat="45.718454800137515" lon="9.770986552264795"><ele>333.0</ele><time>2026-05-02T12:56:33Z</time></trkpt><trkpt lat="45.71852598572302" lon="9.770964657118306"><ele>333.0</ele><time>2026-05-02T12:56:38Z</time></trkpt><trkpt lat="45.71857831789828" lon="9.770911486532187"><ele>343.0</ele><time>2026-05-02T12:56:44Z</time></trkpt></trkseg></trk></gpx>